<?xml version="1.0" encoding="UTF-8" standalone="no" ?>
<gpx xmlns="http://www.topografix.com/GPX/1/1" xmlns:xsi="http://www.w3.org/2001/XMLSchema-instance" xsi:schemaLocation="http://www.topografix.com/GPX/1/1 http://www.topografix.com/GPX/1/1/gpx.xsd" version="1.1" creator="VisuGPX - https://www.visugpx.com">
  <metadata>
    <name>Grenoble - Briançonà Ski - J1/2</name>
  </metadata>
  <trk>
    <name><![CDATA[Activité matinale]]></name>
    <trkseg>
      <trkpt lat="45.12589" lon="5.87925">
        <ele>1678.6</ele>
        <time>2021-02-27T05:07:26Z</time>
      </trkpt>
      <trkpt lat="45.12589" lon="5.87925">
        <ele>1678.6</ele>
        <time>2021-02-27T05:07:27Z</time>
      </trkpt>
      <trkpt lat="45.12589" lon="5.87925">
        <ele>1678.6</ele>
        <time>2021-02-27T05:07:43Z</time>
      </trkpt>
      <trkpt lat="45.12587" lon="5.87927">
        <ele>1678.6</ele>
        <time>2021-02-27T05:07:51Z</time>
      </trkpt>
      <trkpt lat="45.12587" lon="5.87932">
        <ele>1677.4</ele>
        <time>2021-02-27T05:07:53Z</time>
      </trkpt>
      <trkpt lat="45.12586" lon="5.8794">
        <ele>1677.4</ele>
        <time>2021-02-27T05:07:55Z</time>
      </trkpt>
      <trkpt lat="45.12586" lon="5.87943">
        <ele>1677.4</ele>
        <time>2021-02-27T05:07:56Z</time>
      </trkpt>
      <trkpt lat="45.12585" lon="5.87946">
        <ele>1677.4</ele>
        <time>2021-02-27T05:07:57Z</time>
      </trkpt>
      <trkpt lat="45.12585" lon="5.87949">
        <ele>1677.4</ele>
        <time>2021-02-27T05:07:58Z</time>
      </trkpt>
      <trkpt lat="45.12584" lon="5.87952">
        <ele>1677.4</ele>
        <time>2021-02-27T05:07:59Z</time>
      </trkpt>
      <trkpt lat="45.12584" lon="5.87954">
        <ele>1677.4</ele>
        <time>2021-02-27T05:08:01Z</time>
      </trkpt>
      <trkpt lat="45.12584" lon="5.87957">
        <ele>1676.8</ele>
        <time>2021-02-27T05:08:03Z</time>
      </trkpt>
      <trkpt lat="45.12583" lon="5.87962">
        <ele>1676.8</ele>
        <time>2021-02-27T05:08:05Z</time>
      </trkpt>
      <trkpt lat="45.12582" lon="5.87966">
        <ele>1676.8</ele>
        <time>2021-02-27T05:08:07Z</time>
      </trkpt>
      <trkpt lat="45.12583" lon="5.87969">
        <ele>1676.8</ele>
        <time>2021-02-27T05:08:09Z</time>
      </trkpt>
      <trkpt lat="45.12582" lon="5.87973">
        <ele>1676.8</ele>
        <time>2021-02-27T05:08:11Z</time>
      </trkpt>
      <trkpt lat="45.12581" lon="5.87977">
        <ele>1677.2</ele>
        <time>2021-02-27T05:08:13Z</time>
      </trkpt>
      <trkpt lat="45.12581" lon="5.8798">
        <ele>1677.2</ele>
        <time>2021-02-27T05:08:15Z</time>
      </trkpt>
      <trkpt lat="45.12582" lon="5.87985">
        <ele>1677.2</ele>
        <time>2021-02-27T05:08:17Z</time>
      </trkpt>
      <trkpt lat="45.12582" lon="5.87988">
        <ele>1677.2</ele>
        <time>2021-02-27T05:08:19Z</time>
      </trkpt>
      <trkpt lat="45.12582" lon="5.87991">
        <ele>1677.2</ele>
        <time>2021-02-27T05:08:21Z</time>
      </trkpt>
      <trkpt lat="45.12582" lon="5.87995">
        <ele>1678</ele>
        <time>2021-02-27T05:08:23Z</time>
      </trkpt>
      <trkpt lat="45.12582" lon="5.88">
        <ele>1678</ele>
        <time>2021-02-27T05:08:25Z</time>
      </trkpt>
      <trkpt lat="45.12581" lon="5.88003">
        <ele>1678</ele>
        <time>2021-02-27T05:08:26Z</time>
      </trkpt>
      <trkpt lat="45.12581" lon="5.88006">
        <ele>1678</ele>
        <time>2021-02-27T05:08:29Z</time>
      </trkpt>
      <trkpt lat="45.1258" lon="5.88008">
        <ele>1678</ele>
        <time>2021-02-27T05:08:30Z</time>
      </trkpt>
      <trkpt lat="45.12579" lon="5.88011">
        <ele>1678</ele>
        <time>2021-02-27T05:08:32Z</time>
      </trkpt>
      <trkpt lat="45.12579" lon="5.88013">
        <ele>1678.6</ele>
        <time>2021-02-27T05:08:33Z</time>
      </trkpt>
      <trkpt lat="45.12576" lon="5.88018">
        <ele>1678.6</ele>
        <time>2021-02-27T05:08:34Z</time>
      </trkpt>
      <trkpt lat="45.12574" lon="5.88021">
        <ele>1678.6</ele>
        <time>2021-02-27T05:08:35Z</time>
      </trkpt>
      <trkpt lat="45.12573" lon="5.88024">
        <ele>1678.6</ele>
        <time>2021-02-27T05:08:37Z</time>
      </trkpt>
      <trkpt lat="45.12572" lon="5.88027">
        <ele>1678.6</ele>
        <time>2021-02-27T05:08:39Z</time>
      </trkpt>
      <trkpt lat="45.1257" lon="5.8803">
        <ele>1678.6</ele>
        <time>2021-02-27T05:08:41Z</time>
      </trkpt>
      <trkpt lat="45.12569" lon="5.88033">
        <ele>1679.8</ele>
        <time>2021-02-27T05:08:43Z</time>
      </trkpt>
      <trkpt lat="45.12566" lon="5.88037">
        <ele>1679.8</ele>
        <time>2021-02-27T05:08:45Z</time>
      </trkpt>
      <trkpt lat="45.12565" lon="5.88041">
        <ele>1679.8</ele>
        <time>2021-02-27T05:08:47Z</time>
      </trkpt>
      <trkpt lat="45.12563" lon="5.88044">
        <ele>1679.8</ele>
        <time>2021-02-27T05:08:49Z</time>
      </trkpt>
      <trkpt lat="45.12561" lon="5.88046">
        <ele>1679.8</ele>
        <time>2021-02-27T05:08:51Z</time>
      </trkpt>
      <trkpt lat="45.12561" lon="5.88046">
        <ele>1681.2</ele>
        <time>2021-02-27T05:08:53Z</time>
      </trkpt>
      <trkpt lat="45.12563" lon="5.88047">
        <ele>1681.2</ele>
        <time>2021-02-27T05:08:56Z</time>
      </trkpt>
      <trkpt lat="45.12565" lon="5.88046">
        <ele>1681.2</ele>
        <time>2021-02-27T05:08:58Z</time>
      </trkpt>
      <trkpt lat="45.12565" lon="5.88046">
        <ele>1681.2</ele>
        <time>2021-02-27T05:09:03Z</time>
      </trkpt>
      <trkpt lat="45.12565" lon="5.88049">
        <ele>1681.2</ele>
        <time>2021-02-27T05:09:08Z</time>
      </trkpt>
      <trkpt lat="45.12565" lon="5.88049">
        <ele>1681.8</ele>
        <time>2021-02-27T05:09:13Z</time>
      </trkpt>
      <trkpt lat="45.12565" lon="5.88049">
        <ele>1681.8</ele>
        <time>2021-02-27T05:09:23Z</time>
      </trkpt>
      <trkpt lat="45.12563" lon="5.8805">
        <ele>1681.8</ele>
        <time>2021-02-27T05:09:27Z</time>
      </trkpt>
      <trkpt lat="45.12561" lon="5.88053">
        <ele>1681.8</ele>
        <time>2021-02-27T05:09:29Z</time>
      </trkpt>
      <trkpt lat="45.12559" lon="5.88056">
        <ele>1681.8</ele>
        <time>2021-02-27T05:09:31Z</time>
      </trkpt>
      <trkpt lat="45.12559" lon="5.88056">
        <ele>1682.6</ele>
        <time>2021-02-27T05:09:33Z</time>
      </trkpt>
      <trkpt lat="45.12559" lon="5.8806">
        <ele>1682.6</ele>
        <time>2021-02-27T05:09:34Z</time>
      </trkpt>
      <trkpt lat="45.12559" lon="5.88062">
        <ele>1682.6</ele>
        <time>2021-02-27T05:09:37Z</time>
      </trkpt>
      <trkpt lat="45.12559" lon="5.88064">
        <ele>1682.6</ele>
        <time>2021-02-27T05:09:42Z</time>
      </trkpt>
      <trkpt lat="45.12559" lon="5.88066">
        <ele>1682.6</ele>
        <time>2021-02-27T05:09:43Z</time>
      </trkpt>
      <trkpt lat="45.12559" lon="5.88067">
        <ele>1682.6</ele>
        <time>2021-02-27T05:09:44Z</time>
      </trkpt>
      <trkpt lat="45.12557" lon="5.88069">
        <ele>1682.6</ele>
        <time>2021-02-27T05:09:46Z</time>
      </trkpt>
      <trkpt lat="45.12556" lon="5.88072">
        <ele>1682.6</ele>
        <time>2021-02-27T05:09:48Z</time>
      </trkpt>
      <trkpt lat="45.12554" lon="5.88074">
        <ele>1682.6</ele>
        <time>2021-02-27T05:09:50Z</time>
      </trkpt>
      <trkpt lat="45.12553" lon="5.88076">
        <ele>1682.6</ele>
        <time>2021-02-27T05:09:51Z</time>
      </trkpt>
      <trkpt lat="45.1255" lon="5.88079">
        <ele>1684</ele>
        <time>2021-02-27T05:09:53Z</time>
      </trkpt>
      <trkpt lat="45.12549" lon="5.88081">
        <ele>1684</ele>
        <time>2021-02-27T05:09:55Z</time>
      </trkpt>
      <trkpt lat="45.12547" lon="5.88082">
        <ele>1684</ele>
        <time>2021-02-27T05:09:57Z</time>
      </trkpt>
      <trkpt lat="45.12544" lon="5.88085">
        <ele>1684</ele>
        <time>2021-02-27T05:09:59Z</time>
      </trkpt>
      <trkpt lat="45.12542" lon="5.88087">
        <ele>1684</ele>
        <time>2021-02-27T05:10:01Z</time>
      </trkpt>
      <trkpt lat="45.1254" lon="5.88089">
        <ele>1686.2</ele>
        <time>2021-02-27T05:10:03Z</time>
      </trkpt>
      <trkpt lat="45.12535" lon="5.8809">
        <ele>1686.2</ele>
        <time>2021-02-27T05:10:05Z</time>
      </trkpt>
      <trkpt lat="45.12533" lon="5.8809">
        <ele>1686.2</ele>
        <time>2021-02-27T05:10:07Z</time>
      </trkpt>
      <trkpt lat="45.1253" lon="5.8809">
        <ele>1686.2</ele>
        <time>2021-02-27T05:10:09Z</time>
      </trkpt>
      <trkpt lat="45.12528" lon="5.8809">
        <ele>1686.2</ele>
        <time>2021-02-27T05:10:11Z</time>
      </trkpt>
      <trkpt lat="45.12526" lon="5.8809">
        <ele>1686.2</ele>
        <time>2021-02-27T05:10:12Z</time>
      </trkpt>
      <trkpt lat="45.12524" lon="5.8809">
        <ele>1687.2</ele>
        <time>2021-02-27T05:10:13Z</time>
      </trkpt>
      <trkpt lat="45.12521" lon="5.8809">
        <ele>1687.2</ele>
        <time>2021-02-27T05:10:14Z</time>
      </trkpt>
      <trkpt lat="45.12519" lon="5.8809">
        <ele>1687.2</ele>
        <time>2021-02-27T05:10:16Z</time>
      </trkpt>
      <trkpt lat="45.12517" lon="5.8809">
        <ele>1687.2</ele>
        <time>2021-02-27T05:10:18Z</time>
      </trkpt>
      <trkpt lat="45.12515" lon="5.8809">
        <ele>1687.2</ele>
        <time>2021-02-27T05:10:20Z</time>
      </trkpt>
      <trkpt lat="45.12512" lon="5.8809">
        <ele>1687.2</ele>
        <time>2021-02-27T05:10:22Z</time>
      </trkpt>
      <trkpt lat="45.1251" lon="5.88089">
        <ele>1688.2</ele>
        <time>2021-02-27T05:10:23Z</time>
      </trkpt>
      <trkpt lat="45.12507" lon="5.88089">
        <ele>1688.2</ele>
        <time>2021-02-27T05:10:24Z</time>
      </trkpt>
      <trkpt lat="45.12505" lon="5.88089">
        <ele>1688.2</ele>
        <time>2021-02-27T05:10:26Z</time>
      </trkpt>
      <trkpt lat="45.12503" lon="5.88089">
        <ele>1688.2</ele>
        <time>2021-02-27T05:10:28Z</time>
      </trkpt>
      <trkpt lat="45.12501" lon="5.88088">
        <ele>1688.2</ele>
        <time>2021-02-27T05:10:30Z</time>
      </trkpt>
      <trkpt lat="45.12499" lon="5.88088">
        <ele>1688.2</ele>
        <time>2021-02-27T05:10:32Z</time>
      </trkpt>
      <trkpt lat="45.12497" lon="5.88088">
        <ele>1690</ele>
        <time>2021-02-27T05:10:33Z</time>
      </trkpt>
      <trkpt lat="45.12493" lon="5.88088">
        <ele>1690</ele>
        <time>2021-02-27T05:10:34Z</time>
      </trkpt>
      <trkpt lat="45.12491" lon="5.88088">
        <ele>1690</ele>
        <time>2021-02-27T05:10:36Z</time>
      </trkpt>
      <trkpt lat="45.12489" lon="5.88088">
        <ele>1690</ele>
        <time>2021-02-27T05:10:38Z</time>
      </trkpt>
      <trkpt lat="45.12487" lon="5.88088">
        <ele>1690</ele>
        <time>2021-02-27T05:10:40Z</time>
      </trkpt>
      <trkpt lat="45.12485" lon="5.88088">
        <ele>1690</ele>
        <time>2021-02-27T05:10:42Z</time>
      </trkpt>
      <trkpt lat="45.12483" lon="5.88088">
        <ele>1691.6</ele>
        <time>2021-02-27T05:10:43Z</time>
      </trkpt>
      <trkpt lat="45.1248" lon="5.88089">
        <ele>1691.6</ele>
        <time>2021-02-27T05:10:44Z</time>
      </trkpt>
      <trkpt lat="45.12478" lon="5.88089">
        <ele>1691.6</ele>
        <time>2021-02-27T05:10:46Z</time>
      </trkpt>
      <trkpt lat="45.12476" lon="5.8809">
        <ele>1691.6</ele>
        <time>2021-02-27T05:10:48Z</time>
      </trkpt>
      <trkpt lat="45.12474" lon="5.8809">
        <ele>1691.6</ele>
        <time>2021-02-27T05:10:50Z</time>
      </trkpt>
      <trkpt lat="45.12472" lon="5.8809">
        <ele>1691.6</ele>
        <time>2021-02-27T05:10:52Z</time>
      </trkpt>
      <trkpt lat="45.1247" lon="5.88091">
        <ele>1694.4</ele>
        <time>2021-02-27T05:10:53Z</time>
      </trkpt>
      <trkpt lat="45.12469" lon="5.88091">
        <ele>1694.4</ele>
        <time>2021-02-27T05:10:54Z</time>
      </trkpt>
      <trkpt lat="45.12467" lon="5.88093">
        <ele>1694.4</ele>
        <time>2021-02-27T05:10:56Z</time>
      </trkpt>
      <trkpt lat="45.12464" lon="5.88093">
        <ele>1694.4</ele>
        <time>2021-02-27T05:10:58Z</time>
      </trkpt>
      <trkpt lat="45.12462" lon="5.88094">
        <ele>1694.4</ele>
        <time>2021-02-27T05:11:00Z</time>
      </trkpt>
      <trkpt lat="45.1246" lon="5.88094">
        <ele>1696.8</ele>
        <time>2021-02-27T05:11:03Z</time>
      </trkpt>
      <trkpt lat="45.12456" lon="5.88096">
        <ele>1696.8</ele>
        <time>2021-02-27T05:11:05Z</time>
      </trkpt>
      <trkpt lat="45.12454" lon="5.88096">
        <ele>1696.8</ele>
        <time>2021-02-27T05:11:07Z</time>
      </trkpt>
      <trkpt lat="45.12453" lon="5.88097">
        <ele>1696.8</ele>
        <time>2021-02-27T05:11:10Z</time>
      </trkpt>
      <trkpt lat="45.12451" lon="5.88097">
        <ele>1696.8</ele>
        <time>2021-02-27T05:11:12Z</time>
      </trkpt>
      <trkpt lat="45.1245" lon="5.88098">
        <ele>1699.6</ele>
        <time>2021-02-27T05:11:13Z</time>
      </trkpt>
      <trkpt lat="45.12447" lon="5.88098">
        <ele>1699.6</ele>
        <time>2021-02-27T05:11:15Z</time>
      </trkpt>
      <trkpt lat="45.12446" lon="5.88099">
        <ele>1699.6</ele>
        <time>2021-02-27T05:11:17Z</time>
      </trkpt>
      <trkpt lat="45.12445" lon="5.88099">
        <ele>1699.6</ele>
        <time>2021-02-27T05:11:20Z</time>
      </trkpt>
      <trkpt lat="45.12443" lon="5.881">
        <ele>1699.6</ele>
        <time>2021-02-27T05:11:22Z</time>
      </trkpt>
      <trkpt lat="45.12442" lon="5.88101">
        <ele>1702.4</ele>
        <time>2021-02-27T05:11:23Z</time>
      </trkpt>
      <trkpt lat="45.1244" lon="5.88101">
        <ele>1702.4</ele>
        <time>2021-02-27T05:11:25Z</time>
      </trkpt>
      <trkpt lat="45.12438" lon="5.88101">
        <ele>1702.4</ele>
        <time>2021-02-27T05:11:28Z</time>
      </trkpt>
      <trkpt lat="45.12436" lon="5.88102">
        <ele>1702.4</ele>
        <time>2021-02-27T05:11:30Z</time>
      </trkpt>
      <trkpt lat="45.12434" lon="5.88102">
        <ele>1706</ele>
        <time>2021-02-27T05:11:33Z</time>
      </trkpt>
      <trkpt lat="45.12431" lon="5.88105">
        <ele>1706</ele>
        <time>2021-02-27T05:11:36Z</time>
      </trkpt>
      <trkpt lat="45.1243" lon="5.88106">
        <ele>1706</ele>
        <time>2021-02-27T05:11:40Z</time>
      </trkpt>
      <trkpt lat="45.12429" lon="5.88106">
        <ele>1706</ele>
        <time>2021-02-27T05:11:42Z</time>
      </trkpt>
      <trkpt lat="45.12428" lon="5.88107">
        <ele>1708.6</ele>
        <time>2021-02-27T05:11:43Z</time>
      </trkpt>
      <trkpt lat="45.12426" lon="5.88108">
        <ele>1708.6</ele>
        <time>2021-02-27T05:11:44Z</time>
      </trkpt>
      <trkpt lat="45.12424" lon="5.8811">
        <ele>1708.6</ele>
        <time>2021-02-27T05:11:47Z</time>
      </trkpt>
      <trkpt lat="45.12422" lon="5.88111">
        <ele>1708.6</ele>
        <time>2021-02-27T05:11:49Z</time>
      </trkpt>
      <trkpt lat="45.1242" lon="5.88113">
        <ele>1708.6</ele>
        <time>2021-02-27T05:11:51Z</time>
      </trkpt>
      <trkpt lat="45.1242" lon="5.88113">
        <ele>1711.6</ele>
        <time>2021-02-27T05:11:53Z</time>
      </trkpt>
      <trkpt lat="45.12418" lon="5.88114">
        <ele>1711.6</ele>
        <time>2021-02-27T05:11:54Z</time>
      </trkpt>
      <trkpt lat="45.12415" lon="5.88116">
        <ele>1711.6</ele>
        <time>2021-02-27T05:11:56Z</time>
      </trkpt>
      <trkpt lat="45.12413" lon="5.88117">
        <ele>1711.6</ele>
        <time>2021-02-27T05:11:59Z</time>
      </trkpt>
      <trkpt lat="45.12412" lon="5.88117">
        <ele>1711.6</ele>
        <time>2021-02-27T05:12:01Z</time>
      </trkpt>
      <trkpt lat="45.12412" lon="5.88117">
        <ele>1714.2</ele>
        <time>2021-02-27T05:12:03Z</time>
      </trkpt>
      <trkpt lat="45.1241" lon="5.88119">
        <ele>1714.2</ele>
        <time>2021-02-27T05:12:04Z</time>
      </trkpt>
      <trkpt lat="45.12408" lon="5.8812">
        <ele>1714.2</ele>
        <time>2021-02-27T05:12:06Z</time>
      </trkpt>
      <trkpt lat="45.12406" lon="5.88121">
        <ele>1714.2</ele>
        <time>2021-02-27T05:12:08Z</time>
      </trkpt>
      <trkpt lat="45.12404" lon="5.88122">
        <ele>1714.2</ele>
        <time>2021-02-27T05:12:10Z</time>
      </trkpt>
      <trkpt lat="45.12402" lon="5.88123">
        <ele>1716.8</ele>
        <time>2021-02-27T05:12:13Z</time>
      </trkpt>
      <trkpt lat="45.124" lon="5.88125">
        <ele>1716.8</ele>
        <time>2021-02-27T05:12:15Z</time>
      </trkpt>
      <trkpt lat="45.12398" lon="5.88126">
        <ele>1716.8</ele>
        <time>2021-02-27T05:12:17Z</time>
      </trkpt>
      <trkpt lat="45.12396" lon="5.88127">
        <ele>1716.8</ele>
        <time>2021-02-27T05:12:20Z</time>
      </trkpt>
      <trkpt lat="45.12394" lon="5.88129">
        <ele>1719.8</ele>
        <time>2021-02-27T05:12:23Z</time>
      </trkpt>
      <trkpt lat="45.12391" lon="5.88131">
        <ele>1719.8</ele>
        <time>2021-02-27T05:12:26Z</time>
      </trkpt>
      <trkpt lat="45.12389" lon="5.88131">
        <ele>1719.8</ele>
        <time>2021-02-27T05:12:29Z</time>
      </trkpt>
      <trkpt lat="45.12388" lon="5.88132">
        <ele>1719.8</ele>
        <time>2021-02-27T05:12:32Z</time>
      </trkpt>
      <trkpt lat="45.12387" lon="5.88132">
        <ele>1722.6</ele>
        <time>2021-02-27T05:12:33Z</time>
      </trkpt>
      <trkpt lat="45.12384" lon="5.88133">
        <ele>1722.6</ele>
        <time>2021-02-27T05:12:35Z</time>
      </trkpt>
      <trkpt lat="45.12382" lon="5.88134">
        <ele>1722.6</ele>
        <time>2021-02-27T05:12:38Z</time>
      </trkpt>
      <trkpt lat="45.1238" lon="5.88134">
        <ele>1722.6</ele>
        <time>2021-02-27T05:12:41Z</time>
      </trkpt>
      <trkpt lat="45.1238" lon="5.88134">
        <ele>1725.4</ele>
        <time>2021-02-27T05:12:43Z</time>
      </trkpt>
      <trkpt lat="45.12378" lon="5.88136">
        <ele>1725.4</ele>
        <time>2021-02-27T05:12:44Z</time>
      </trkpt>
      <trkpt lat="45.12376" lon="5.88137">
        <ele>1725.4</ele>
        <time>2021-02-27T05:12:46Z</time>
      </trkpt>
      <trkpt lat="45.12374" lon="5.88138">
        <ele>1725.4</ele>
        <time>2021-02-27T05:12:49Z</time>
      </trkpt>
      <trkpt lat="45.12372" lon="5.88139">
        <ele>1725.4</ele>
        <time>2021-02-27T05:12:51Z</time>
      </trkpt>
      <trkpt lat="45.12372" lon="5.88139">
        <ele>1728.2</ele>
        <time>2021-02-27T05:12:53Z</time>
      </trkpt>
      <trkpt lat="45.1237" lon="5.8814">
        <ele>1728.2</ele>
        <time>2021-02-27T05:12:54Z</time>
      </trkpt>
      <trkpt lat="45.12368" lon="5.88142">
        <ele>1728.2</ele>
        <time>2021-02-27T05:12:58Z</time>
      </trkpt>
      <trkpt lat="45.12366" lon="5.88142">
        <ele>1728.2</ele>
        <time>2021-02-27T05:13:00Z</time>
      </trkpt>
      <trkpt lat="45.12364" lon="5.88144">
        <ele>1731.6</ele>
        <time>2021-02-27T05:13:03Z</time>
      </trkpt>
      <trkpt lat="45.12362" lon="5.88145">
        <ele>1731.6</ele>
        <time>2021-02-27T05:13:07Z</time>
      </trkpt>
      <trkpt lat="45.1236" lon="5.88146">
        <ele>1731.6</ele>
        <time>2021-02-27T05:13:10Z</time>
      </trkpt>
      <trkpt lat="45.12357" lon="5.88148">
        <ele>1734</ele>
        <time>2021-02-27T05:13:13Z</time>
      </trkpt>
      <trkpt lat="45.12356" lon="5.8815">
        <ele>1734</ele>
        <time>2021-02-27T05:13:17Z</time>
      </trkpt>
      <trkpt lat="45.12354" lon="5.88151">
        <ele>1734</ele>
        <time>2021-02-27T05:13:20Z</time>
      </trkpt>
      <trkpt lat="45.12351" lon="5.88153">
        <ele>1737</ele>
        <time>2021-02-27T05:13:23Z</time>
      </trkpt>
      <trkpt lat="45.12349" lon="5.88155">
        <ele>1737</ele>
        <time>2021-02-27T05:13:26Z</time>
      </trkpt>
      <trkpt lat="45.12348" lon="5.88156">
        <ele>1737</ele>
        <time>2021-02-27T05:13:29Z</time>
      </trkpt>
      <trkpt lat="45.12347" lon="5.88157">
        <ele>1737</ele>
        <time>2021-02-27T05:13:32Z</time>
      </trkpt>
      <trkpt lat="45.12346" lon="5.88157">
        <ele>1740.2</ele>
        <time>2021-02-27T05:13:33Z</time>
      </trkpt>
      <trkpt lat="45.12343" lon="5.8816">
        <ele>1740.2</ele>
        <time>2021-02-27T05:13:35Z</time>
      </trkpt>
      <trkpt lat="45.12342" lon="5.88161">
        <ele>1740.2</ele>
        <time>2021-02-27T05:13:37Z</time>
      </trkpt>
      <trkpt lat="45.1234" lon="5.88162">
        <ele>1740.2</ele>
        <time>2021-02-27T05:13:40Z</time>
      </trkpt>
      <trkpt lat="45.12339" lon="5.88163">
        <ele>1740.2</ele>
        <time>2021-02-27T05:13:42Z</time>
      </trkpt>
      <trkpt lat="45.12338" lon="5.88164">
        <ele>1743</ele>
        <time>2021-02-27T05:13:43Z</time>
      </trkpt>
      <trkpt lat="45.12336" lon="5.88165">
        <ele>1743</ele>
        <time>2021-02-27T05:13:46Z</time>
      </trkpt>
      <trkpt lat="45.12334" lon="5.88167">
        <ele>1743</ele>
        <time>2021-02-27T05:13:48Z</time>
      </trkpt>
      <trkpt lat="45.12332" lon="5.88169">
        <ele>1743</ele>
        <time>2021-02-27T05:13:51Z</time>
      </trkpt>
      <trkpt lat="45.12332" lon="5.88169">
        <ele>1745.4</ele>
        <time>2021-02-27T05:13:53Z</time>
      </trkpt>
      <trkpt lat="45.12331" lon="5.88171">
        <ele>1745.4</ele>
        <time>2021-02-27T05:13:54Z</time>
      </trkpt>
      <trkpt lat="45.12329" lon="5.88173">
        <ele>1745.4</ele>
        <time>2021-02-27T05:13:57Z</time>
      </trkpt>
      <trkpt lat="45.12327" lon="5.88175">
        <ele>1745.4</ele>
        <time>2021-02-27T05:14:00Z</time>
      </trkpt>
      <trkpt lat="45.12326" lon="5.88178">
        <ele>1748.2</ele>
        <time>2021-02-27T05:14:03Z</time>
      </trkpt>
      <trkpt lat="45.12324" lon="5.88183">
        <ele>1748.2</ele>
        <time>2021-02-27T05:14:06Z</time>
      </trkpt>
      <trkpt lat="45.12323" lon="5.88184">
        <ele>1748.2</ele>
        <time>2021-02-27T05:14:08Z</time>
      </trkpt>
      <trkpt lat="45.12323" lon="5.88186">
        <ele>1748.2</ele>
        <time>2021-02-27T05:14:10Z</time>
      </trkpt>
      <trkpt lat="45.12322" lon="5.88187">
        <ele>1748.2</ele>
        <time>2021-02-27T05:14:12Z</time>
      </trkpt>
      <trkpt lat="45.12322" lon="5.88188">
        <ele>1751.4</ele>
        <time>2021-02-27T05:14:13Z</time>
      </trkpt>
      <trkpt lat="45.12319" lon="5.88191">
        <ele>1751.4</ele>
        <time>2021-02-27T05:14:16Z</time>
      </trkpt>
      <trkpt lat="45.12318" lon="5.88194">
        <ele>1751.4</ele>
        <time>2021-02-27T05:14:19Z</time>
      </trkpt>
      <trkpt lat="45.12317" lon="5.88196">
        <ele>1751.4</ele>
        <time>2021-02-27T05:14:21Z</time>
      </trkpt>
      <trkpt lat="45.12317" lon="5.88196">
        <ele>1754</ele>
        <time>2021-02-27T05:14:23Z</time>
      </trkpt>
      <trkpt lat="45.12316" lon="5.88199">
        <ele>1754</ele>
        <time>2021-02-27T05:14:24Z</time>
      </trkpt>
      <trkpt lat="45.12314" lon="5.88201">
        <ele>1754</ele>
        <time>2021-02-27T05:14:27Z</time>
      </trkpt>
      <trkpt lat="45.12312" lon="5.88203">
        <ele>1754</ele>
        <time>2021-02-27T05:14:30Z</time>
      </trkpt>
      <trkpt lat="45.12312" lon="5.88203">
        <ele>1757.2</ele>
        <time>2021-02-27T05:14:33Z</time>
      </trkpt>
      <trkpt lat="45.1231" lon="5.88205">
        <ele>1757.2</ele>
        <time>2021-02-27T05:14:35Z</time>
      </trkpt>
      <trkpt lat="45.12309" lon="5.88205">
        <ele>1757.2</ele>
        <time>2021-02-27T05:14:42Z</time>
      </trkpt>
      <trkpt lat="45.12308" lon="5.88205">
        <ele>1759.8</ele>
        <time>2021-02-27T05:14:43Z</time>
      </trkpt>
      <trkpt lat="45.12306" lon="5.88207">
        <ele>1759.8</ele>
        <time>2021-02-27T05:14:45Z</time>
      </trkpt>
      <trkpt lat="45.12305" lon="5.88209">
        <ele>1759.8</ele>
        <time>2021-02-27T05:14:48Z</time>
      </trkpt>
      <trkpt lat="45.12303" lon="5.8821">
        <ele>1759.8</ele>
        <time>2021-02-27T05:14:50Z</time>
      </trkpt>
      <trkpt lat="45.12303" lon="5.8821">
        <ele>1762.8</ele>
        <time>2021-02-27T05:14:53Z</time>
      </trkpt>
      <trkpt lat="45.12301" lon="5.88212">
        <ele>1762.8</ele>
        <time>2021-02-27T05:14:54Z</time>
      </trkpt>
      <trkpt lat="45.12299" lon="5.88214">
        <ele>1762.8</ele>
        <time>2021-02-27T05:14:57Z</time>
      </trkpt>
      <trkpt lat="45.12297" lon="5.88216">
        <ele>1762.8</ele>
        <time>2021-02-27T05:14:59Z</time>
      </trkpt>
      <trkpt lat="45.12295" lon="5.88218">
        <ele>1765.6</ele>
        <time>2021-02-27T05:15:03Z</time>
      </trkpt>
      <trkpt lat="45.12293" lon="5.88219">
        <ele>1765.6</ele>
        <time>2021-02-27T05:15:06Z</time>
      </trkpt>
      <trkpt lat="45.12291" lon="5.8822">
        <ele>1765.6</ele>
        <time>2021-02-27T05:15:10Z</time>
      </trkpt>
      <trkpt lat="45.12289" lon="5.88222">
        <ele>1768.6</ele>
        <time>2021-02-27T05:15:13Z</time>
      </trkpt>
      <trkpt lat="45.12287" lon="5.88226">
        <ele>1768.6</ele>
        <time>2021-02-27T05:15:17Z</time>
      </trkpt>
      <trkpt lat="45.12287" lon="5.88227">
        <ele>1768.6</ele>
        <time>2021-02-27T05:15:22Z</time>
      </trkpt>
      <trkpt lat="45.12286" lon="5.88227">
        <ele>1771.6</ele>
        <time>2021-02-27T05:15:23Z</time>
      </trkpt>
      <trkpt lat="45.12284" lon="5.8823">
        <ele>1771.6</ele>
        <time>2021-02-27T05:15:25Z</time>
      </trkpt>
      <trkpt lat="45.12283" lon="5.88231">
        <ele>1771.6</ele>
        <time>2021-02-27T05:15:28Z</time>
      </trkpt>
      <trkpt lat="45.12282" lon="5.88232">
        <ele>1771.6</ele>
        <time>2021-02-27T05:15:32Z</time>
      </trkpt>
      <trkpt lat="45.12281" lon="5.88233">
        <ele>1774.2</ele>
        <time>2021-02-27T05:15:33Z</time>
      </trkpt>
      <trkpt lat="45.12279" lon="5.88234">
        <ele>1774.2</ele>
        <time>2021-02-27T05:15:35Z</time>
      </trkpt>
      <trkpt lat="45.12278" lon="5.88236">
        <ele>1774.2</ele>
        <time>2021-02-27T05:15:39Z</time>
      </trkpt>
      <trkpt lat="45.12276" lon="5.88239">
        <ele>1776.8</ele>
        <time>2021-02-27T05:15:43Z</time>
      </trkpt>
      <trkpt lat="45.12274" lon="5.88241">
        <ele>1776.8</ele>
        <time>2021-02-27T05:15:45Z</time>
      </trkpt>
      <trkpt lat="45.12273" lon="5.88243">
        <ele>1776.8</ele>
        <time>2021-02-27T05:15:48Z</time>
      </trkpt>
      <trkpt lat="45.12271" lon="5.88244">
        <ele>1776.8</ele>
        <time>2021-02-27T05:15:50Z</time>
      </trkpt>
      <trkpt lat="45.12269" lon="5.88245">
        <ele>1779.8</ele>
        <time>2021-02-27T05:15:53Z</time>
      </trkpt>
      <trkpt lat="45.12267" lon="5.88247">
        <ele>1779.8</ele>
        <time>2021-02-27T05:15:57Z</time>
      </trkpt>
      <trkpt lat="45.12265" lon="5.88249">
        <ele>1779.8</ele>
        <time>2021-02-27T05:16:00Z</time>
      </trkpt>
      <trkpt lat="45.12265" lon="5.88249">
        <ele>1782.4</ele>
        <time>2021-02-27T05:16:03Z</time>
      </trkpt>
      <trkpt lat="45.12262" lon="5.88253">
        <ele>1782.4</ele>
        <time>2021-02-27T05:16:04Z</time>
      </trkpt>
      <trkpt lat="45.12261" lon="5.88254">
        <ele>1782.4</ele>
        <time>2021-02-27T05:16:09Z</time>
      </trkpt>
      <trkpt lat="45.1226" lon="5.88256">
        <ele>1785.4</ele>
        <time>2021-02-27T05:16:13Z</time>
      </trkpt>
      <trkpt lat="45.12259" lon="5.88257">
        <ele>1785.4</ele>
        <time>2021-02-27T05:16:15Z</time>
      </trkpt>
      <trkpt lat="45.12258" lon="5.88259">
        <ele>1785.4</ele>
        <time>2021-02-27T05:16:18Z</time>
      </trkpt>
      <trkpt lat="45.12257" lon="5.8826">
        <ele>1785.4</ele>
        <time>2021-02-27T05:16:20Z</time>
      </trkpt>
      <trkpt lat="45.12256" lon="5.88261">
        <ele>1785.4</ele>
        <time>2021-02-27T05:16:22Z</time>
      </trkpt>
      <trkpt lat="45.12255" lon="5.88263">
        <ele>1788</ele>
        <time>2021-02-27T05:16:23Z</time>
      </trkpt>
      <trkpt lat="45.12253" lon="5.88265">
        <ele>1788</ele>
        <time>2021-02-27T05:16:24Z</time>
      </trkpt>
      <trkpt lat="45.12252" lon="5.88268">
        <ele>1788</ele>
        <time>2021-02-27T05:16:27Z</time>
      </trkpt>
      <trkpt lat="45.1225" lon="5.88269">
        <ele>1788</ele>
        <time>2021-02-27T05:16:31Z</time>
      </trkpt>
      <trkpt lat="45.1225" lon="5.88269">
        <ele>1790.8</ele>
        <time>2021-02-27T05:16:33Z</time>
      </trkpt>
      <trkpt lat="45.12248" lon="5.88271">
        <ele>1790.8</ele>
        <time>2021-02-27T05:16:40Z</time>
      </trkpt>
      <trkpt lat="45.12248" lon="5.88271">
        <ele>1793</ele>
        <time>2021-02-27T05:16:43Z</time>
      </trkpt>
      <trkpt lat="45.12248" lon="5.88271">
        <ele>1793.6</ele>
        <time>2021-02-27T05:16:53Z</time>
      </trkpt>
      <trkpt lat="45.12248" lon="5.88271">
        <ele>1793.4</ele>
        <time>2021-02-27T05:17:03Z</time>
      </trkpt>
      <trkpt lat="45.12248" lon="5.88271">
        <ele>1793.6</ele>
        <time>2021-02-27T05:17:13Z</time>
      </trkpt>
      <trkpt lat="45.12248" lon="5.88271">
        <ele>1793.6</ele>
        <time>2021-02-27T05:17:23Z</time>
      </trkpt>
      <trkpt lat="45.12247" lon="5.88273">
        <ele>1794.2</ele>
        <time>2021-02-27T05:17:33Z</time>
      </trkpt>
      <trkpt lat="45.12245" lon="5.88276">
        <ele>1794.2</ele>
        <time>2021-02-27T05:17:35Z</time>
      </trkpt>
      <trkpt lat="45.12244" lon="5.88278">
        <ele>1794.2</ele>
        <time>2021-02-27T05:17:36Z</time>
      </trkpt>
      <trkpt lat="45.12242" lon="5.8828">
        <ele>1794.2</ele>
        <time>2021-02-27T05:17:38Z</time>
      </trkpt>
      <trkpt lat="45.1224" lon="5.88283">
        <ele>1794.2</ele>
        <time>2021-02-27T05:17:40Z</time>
      </trkpt>
      <trkpt lat="45.12239" lon="5.88286">
        <ele>1796.4</ele>
        <time>2021-02-27T05:17:43Z</time>
      </trkpt>
      <trkpt lat="45.12237" lon="5.88288">
        <ele>1796.4</ele>
        <time>2021-02-27T05:17:45Z</time>
      </trkpt>
      <trkpt lat="45.12237" lon="5.88291">
        <ele>1796.4</ele>
        <time>2021-02-27T05:17:48Z</time>
      </trkpt>
      <trkpt lat="45.12236" lon="5.88295">
        <ele>1796.4</ele>
        <time>2021-02-27T05:17:51Z</time>
      </trkpt>
      <trkpt lat="45.12235" lon="5.88297">
        <ele>1799.4</ele>
        <time>2021-02-27T05:17:53Z</time>
      </trkpt>
      <trkpt lat="45.12233" lon="5.88301">
        <ele>1799.4</ele>
        <time>2021-02-27T05:17:56Z</time>
      </trkpt>
      <trkpt lat="45.12232" lon="5.88304">
        <ele>1799.4</ele>
        <time>2021-02-27T05:17:59Z</time>
      </trkpt>
      <trkpt lat="45.12231" lon="5.88307">
        <ele>1799.4</ele>
        <time>2021-02-27T05:18:01Z</time>
      </trkpt>
      <trkpt lat="45.1223" lon="5.88309">
        <ele>1800.6</ele>
        <time>2021-02-27T05:18:03Z</time>
      </trkpt>
      <trkpt lat="45.1223" lon="5.88314">
        <ele>1800.6</ele>
        <time>2021-02-27T05:18:05Z</time>
      </trkpt>
      <trkpt lat="45.1223" lon="5.88316">
        <ele>1800.6</ele>
        <time>2021-02-27T05:18:07Z</time>
      </trkpt>
      <trkpt lat="45.12229" lon="5.88318">
        <ele>1800.6</ele>
        <time>2021-02-27T05:18:09Z</time>
      </trkpt>
      <trkpt lat="45.12229" lon="5.8832">
        <ele>1800.6</ele>
        <time>2021-02-27T05:18:12Z</time>
      </trkpt>
      <trkpt lat="45.12228" lon="5.88322">
        <ele>1803.2</ele>
        <time>2021-02-27T05:18:13Z</time>
      </trkpt>
      <trkpt lat="45.12228" lon="5.88327">
        <ele>1803.2</ele>
        <time>2021-02-27T05:18:14Z</time>
      </trkpt>
      <trkpt lat="45.12228" lon="5.88329">
        <ele>1803.2</ele>
        <time>2021-02-27T05:18:16Z</time>
      </trkpt>
      <trkpt lat="45.12228" lon="5.88332">
        <ele>1803.2</ele>
        <time>2021-02-27T05:18:18Z</time>
      </trkpt>
      <trkpt lat="45.12228" lon="5.88334">
        <ele>1803.2</ele>
        <time>2021-02-27T05:18:20Z</time>
      </trkpt>
      <trkpt lat="45.12228" lon="5.88336">
        <ele>1803.2</ele>
        <time>2021-02-27T05:18:22Z</time>
      </trkpt>
      <trkpt lat="45.12228" lon="5.88338">
        <ele>1805.4</ele>
        <time>2021-02-27T05:18:23Z</time>
      </trkpt>
      <trkpt lat="45.12228" lon="5.88342">
        <ele>1805.4</ele>
        <time>2021-02-27T05:18:24Z</time>
      </trkpt>
      <trkpt lat="45.12228" lon="5.88345">
        <ele>1805.4</ele>
        <time>2021-02-27T05:18:26Z</time>
      </trkpt>
      <trkpt lat="45.12227" lon="5.88347">
        <ele>1805.4</ele>
        <time>2021-02-27T05:18:28Z</time>
      </trkpt>
      <trkpt lat="45.12227" lon="5.88349">
        <ele>1805.4</ele>
        <time>2021-02-27T05:18:30Z</time>
      </trkpt>
      <trkpt lat="45.12227" lon="5.88352">
        <ele>1805.4</ele>
        <time>2021-02-27T05:18:32Z</time>
      </trkpt>
      <trkpt lat="45.12226" lon="5.88354">
        <ele>1808</ele>
        <time>2021-02-27T05:18:33Z</time>
      </trkpt>
      <trkpt lat="45.12226" lon="5.88358">
        <ele>1808</ele>
        <time>2021-02-27T05:18:34Z</time>
      </trkpt>
      <trkpt lat="45.12226" lon="5.88359">
        <ele>1808</ele>
        <time>2021-02-27T05:18:36Z</time>
      </trkpt>
      <trkpt lat="45.12226" lon="5.88361">
        <ele>1808</ele>
        <time>2021-02-27T05:18:38Z</time>
      </trkpt>
      <trkpt lat="45.12226" lon="5.88363">
        <ele>1808</ele>
        <time>2021-02-27T05:18:40Z</time>
      </trkpt>
      <trkpt lat="45.12226" lon="5.88365">
        <ele>1808</ele>
        <time>2021-02-27T05:18:42Z</time>
      </trkpt>
      <trkpt lat="45.12225" lon="5.88367">
        <ele>1809.6</ele>
        <time>2021-02-27T05:18:43Z</time>
      </trkpt>
      <trkpt lat="45.12225" lon="5.88372">
        <ele>1809.6</ele>
        <time>2021-02-27T05:18:44Z</time>
      </trkpt>
      <trkpt lat="45.12224" lon="5.88374">
        <ele>1809.6</ele>
        <time>2021-02-27T05:18:46Z</time>
      </trkpt>
      <trkpt lat="45.12224" lon="5.88377">
        <ele>1809.6</ele>
        <time>2021-02-27T05:18:48Z</time>
      </trkpt>
      <trkpt lat="45.12224" lon="5.88379">
        <ele>1809.6</ele>
        <time>2021-02-27T05:18:50Z</time>
      </trkpt>
      <trkpt lat="45.12224" lon="5.88381">
        <ele>1809.6</ele>
        <time>2021-02-27T05:18:52Z</time>
      </trkpt>
      <trkpt lat="45.12223" lon="5.88383">
        <ele>1812.4</ele>
        <time>2021-02-27T05:18:53Z</time>
      </trkpt>
      <trkpt lat="45.12222" lon="5.88387">
        <ele>1812.4</ele>
        <time>2021-02-27T05:18:54Z</time>
      </trkpt>
      <trkpt lat="45.12221" lon="5.88389">
        <ele>1812.4</ele>
        <time>2021-02-27T05:18:56Z</time>
      </trkpt>
      <trkpt lat="45.1222" lon="5.88391">
        <ele>1812.4</ele>
        <time>2021-02-27T05:18:58Z</time>
      </trkpt>
      <trkpt lat="45.12219" lon="5.88394">
        <ele>1812.4</ele>
        <time>2021-02-27T05:19:00Z</time>
      </trkpt>
      <trkpt lat="45.12218" lon="5.88396">
        <ele>1812.4</ele>
        <time>2021-02-27T05:19:02Z</time>
      </trkpt>
      <trkpt lat="45.12217" lon="5.88398">
        <ele>1814</ele>
        <time>2021-02-27T05:19:03Z</time>
      </trkpt>
      <trkpt lat="45.12216" lon="5.88401">
        <ele>1814</ele>
        <time>2021-02-27T05:19:04Z</time>
      </trkpt>
      <trkpt lat="45.12215" lon="5.88404">
        <ele>1814</ele>
        <time>2021-02-27T05:19:06Z</time>
      </trkpt>
      <trkpt lat="45.12214" lon="5.88406">
        <ele>1814</ele>
        <time>2021-02-27T05:19:08Z</time>
      </trkpt>
      <trkpt lat="45.12213" lon="5.88408">
        <ele>1814</ele>
        <time>2021-02-27T05:19:10Z</time>
      </trkpt>
      <trkpt lat="45.12212" lon="5.8841">
        <ele>1814</ele>
        <time>2021-02-27T05:19:12Z</time>
      </trkpt>
      <trkpt lat="45.12211" lon="5.88412">
        <ele>1816.4</ele>
        <time>2021-02-27T05:19:13Z</time>
      </trkpt>
      <trkpt lat="45.12211" lon="5.88414">
        <ele>1816.4</ele>
        <time>2021-02-27T05:19:14Z</time>
      </trkpt>
      <trkpt lat="45.12209" lon="5.88417">
        <ele>1816.4</ele>
        <time>2021-02-27T05:19:16Z</time>
      </trkpt>
      <trkpt lat="45.12208" lon="5.88419">
        <ele>1816.4</ele>
        <time>2021-02-27T05:19:18Z</time>
      </trkpt>
      <trkpt lat="45.12206" lon="5.88423">
        <ele>1816.4</ele>
        <time>2021-02-27T05:19:21Z</time>
      </trkpt>
      <trkpt lat="45.12205" lon="5.88425">
        <ele>1818</ele>
        <time>2021-02-27T05:19:23Z</time>
      </trkpt>
      <trkpt lat="45.12203" lon="5.8843">
        <ele>1818</ele>
        <time>2021-02-27T05:19:25Z</time>
      </trkpt>
      <trkpt lat="45.12202" lon="5.88431">
        <ele>1818</ele>
        <time>2021-02-27T05:19:28Z</time>
      </trkpt>
      <trkpt lat="45.12201" lon="5.88432">
        <ele>1818</ele>
        <time>2021-02-27T05:19:30Z</time>
      </trkpt>
      <trkpt lat="45.122" lon="5.88434">
        <ele>1818</ele>
        <time>2021-02-27T05:19:32Z</time>
      </trkpt>
      <trkpt lat="45.12199" lon="5.88435">
        <ele>1819.8</ele>
        <time>2021-02-27T05:19:33Z</time>
      </trkpt>
      <trkpt lat="45.12197" lon="5.88438">
        <ele>1819.8</ele>
        <time>2021-02-27T05:19:34Z</time>
      </trkpt>
      <trkpt lat="45.12195" lon="5.8844">
        <ele>1819.8</ele>
        <time>2021-02-27T05:19:37Z</time>
      </trkpt>
      <trkpt lat="45.12193" lon="5.88443">
        <ele>1819.8</ele>
        <time>2021-02-27T05:19:39Z</time>
      </trkpt>
      <trkpt lat="45.1219" lon="5.88445">
        <ele>1819.8</ele>
        <time>2021-02-27T05:19:41Z</time>
      </trkpt>
      <trkpt lat="45.12189" lon="5.88446">
        <ele>1822.2</ele>
        <time>2021-02-27T05:19:43Z</time>
      </trkpt>
      <trkpt lat="45.12185" lon="5.88449">
        <ele>1822.2</ele>
        <time>2021-02-27T05:19:45Z</time>
      </trkpt>
      <trkpt lat="45.12183" lon="5.8845">
        <ele>1822.2</ele>
        <time>2021-02-27T05:19:48Z</time>
      </trkpt>
      <trkpt lat="45.12182" lon="5.88451">
        <ele>1822.2</ele>
        <time>2021-02-27T05:19:50Z</time>
      </trkpt>
      <trkpt lat="45.12181" lon="5.88452">
        <ele>1822.2</ele>
        <time>2021-02-27T05:19:52Z</time>
      </trkpt>
      <trkpt lat="45.12179" lon="5.88453">
        <ele>1824.4</ele>
        <time>2021-02-27T05:19:53Z</time>
      </trkpt>
      <trkpt lat="45.12176" lon="5.88456">
        <ele>1824.4</ele>
        <time>2021-02-27T05:19:54Z</time>
      </trkpt>
      <trkpt lat="45.12175" lon="5.88457">
        <ele>1824.4</ele>
        <time>2021-02-27T05:19:56Z</time>
      </trkpt>
      <trkpt lat="45.12173" lon="5.88458">
        <ele>1824.4</ele>
        <time>2021-02-27T05:19:58Z</time>
      </trkpt>
      <trkpt lat="45.12172" lon="5.88459">
        <ele>1824.4</ele>
        <time>2021-02-27T05:20:00Z</time>
      </trkpt>
      <trkpt lat="45.1217" lon="5.8846">
        <ele>1824.4</ele>
        <time>2021-02-27T05:20:02Z</time>
      </trkpt>
      <trkpt lat="45.12169" lon="5.88461">
        <ele>1826.8</ele>
        <time>2021-02-27T05:20:03Z</time>
      </trkpt>
      <trkpt lat="45.12168" lon="5.88462">
        <ele>1826.8</ele>
        <time>2021-02-27T05:20:05Z</time>
      </trkpt>
      <trkpt lat="45.12166" lon="5.88465">
        <ele>1826.8</ele>
        <time>2021-02-27T05:20:08Z</time>
      </trkpt>
      <trkpt lat="45.12165" lon="5.88469">
        <ele>1826.8</ele>
        <time>2021-02-27T05:20:11Z</time>
      </trkpt>
      <trkpt lat="45.12165" lon="5.88469">
        <ele>1828.8</ele>
        <time>2021-02-27T05:20:13Z</time>
      </trkpt>
      <trkpt lat="45.12165" lon="5.88472">
        <ele>1828.8</ele>
        <time>2021-02-27T05:20:14Z</time>
      </trkpt>
      <trkpt lat="45.12165" lon="5.88474">
        <ele>1828.8</ele>
        <time>2021-02-27T05:20:16Z</time>
      </trkpt>
      <trkpt lat="45.12165" lon="5.88478">
        <ele>1828.8</ele>
        <time>2021-02-27T05:20:19Z</time>
      </trkpt>
      <trkpt lat="45.12165" lon="5.88481">
        <ele>1828.8</ele>
        <time>2021-02-27T05:20:21Z</time>
      </trkpt>
      <trkpt lat="45.12164" lon="5.88483">
        <ele>1831.2</ele>
        <time>2021-02-27T05:20:23Z</time>
      </trkpt>
      <trkpt lat="45.12165" lon="5.88487">
        <ele>1831.2</ele>
        <time>2021-02-27T05:20:26Z</time>
      </trkpt>
      <trkpt lat="45.12163" lon="5.88489">
        <ele>1831.2</ele>
        <time>2021-02-27T05:20:28Z</time>
      </trkpt>
      <trkpt lat="45.12163" lon="5.88492">
        <ele>1831.2</ele>
        <time>2021-02-27T05:20:31Z</time>
      </trkpt>
      <trkpt lat="45.12162" lon="5.88494">
        <ele>1833.8</ele>
        <time>2021-02-27T05:20:33Z</time>
      </trkpt>
      <trkpt lat="45.12162" lon="5.88496">
        <ele>1833.8</ele>
        <time>2021-02-27T05:20:35Z</time>
      </trkpt>
      <trkpt lat="45.12161" lon="5.88499">
        <ele>1833.8</ele>
        <time>2021-02-27T05:20:38Z</time>
      </trkpt>
      <trkpt lat="45.1216" lon="5.88502">
        <ele>1833.8</ele>
        <time>2021-02-27T05:20:41Z</time>
      </trkpt>
      <trkpt lat="45.1216" lon="5.88502">
        <ele>1836.6</ele>
        <time>2021-02-27T05:20:43Z</time>
      </trkpt>
      <trkpt lat="45.12159" lon="5.88506">
        <ele>1836.6</ele>
        <time>2021-02-27T05:20:45Z</time>
      </trkpt>
      <trkpt lat="45.12158" lon="5.88509">
        <ele>1836.6</ele>
        <time>2021-02-27T05:20:48Z</time>
      </trkpt>
      <trkpt lat="45.12157" lon="5.88512">
        <ele>1836.6</ele>
        <time>2021-02-27T05:20:51Z</time>
      </trkpt>
      <trkpt lat="45.12156" lon="5.88514">
        <ele>1839.6</ele>
        <time>2021-02-27T05:20:53Z</time>
      </trkpt>
      <trkpt lat="45.12155" lon="5.88519">
        <ele>1839.6</ele>
        <time>2021-02-27T05:20:56Z</time>
      </trkpt>
      <trkpt lat="45.12154" lon="5.88521">
        <ele>1839.6</ele>
        <time>2021-02-27T05:20:58Z</time>
      </trkpt>
      <trkpt lat="45.12153" lon="5.88522">
        <ele>1839.6</ele>
        <time>2021-02-27T05:21:00Z</time>
      </trkpt>
      <trkpt lat="45.12152" lon="5.88524">
        <ele>1839.6</ele>
        <time>2021-02-27T05:21:02Z</time>
      </trkpt>
      <trkpt lat="45.12151" lon="5.88526">
        <ele>1842.4</ele>
        <time>2021-02-27T05:21:03Z</time>
      </trkpt>
      <trkpt lat="45.12151" lon="5.88529">
        <ele>1842.4</ele>
        <time>2021-02-27T05:21:05Z</time>
      </trkpt>
      <trkpt lat="45.12151" lon="5.88532">
        <ele>1842.4</ele>
        <time>2021-02-27T05:21:08Z</time>
      </trkpt>
      <trkpt lat="45.12149" lon="5.88536">
        <ele>1842.4</ele>
        <time>2021-02-27T05:21:11Z</time>
      </trkpt>
      <trkpt lat="45.12149" lon="5.88536">
        <ele>1845</ele>
        <time>2021-02-27T05:21:13Z</time>
      </trkpt>
      <trkpt lat="45.12148" lon="5.88541">
        <ele>1845</ele>
        <time>2021-02-27T05:21:14Z</time>
      </trkpt>
      <trkpt lat="45.12147" lon="5.88543">
        <ele>1845</ele>
        <time>2021-02-27T05:21:17Z</time>
      </trkpt>
      <trkpt lat="45.12147" lon="5.88544">
        <ele>1845</ele>
        <time>2021-02-27T05:21:19Z</time>
      </trkpt>
      <trkpt lat="45.12146" lon="5.88546">
        <ele>1845</ele>
        <time>2021-02-27T05:21:22Z</time>
      </trkpt>
      <trkpt lat="45.12145" lon="5.88548">
        <ele>1847.8</ele>
        <time>2021-02-27T05:21:23Z</time>
      </trkpt>
      <trkpt lat="45.12145" lon="5.88552">
        <ele>1847.8</ele>
        <time>2021-02-27T05:21:25Z</time>
      </trkpt>
      <trkpt lat="45.12145" lon="5.88554">
        <ele>1847.8</ele>
        <time>2021-02-27T05:21:28Z</time>
      </trkpt>
      <trkpt lat="45.12146" lon="5.88556">
        <ele>1847.8</ele>
        <time>2021-02-27T05:21:32Z</time>
      </trkpt>
      <trkpt lat="45.12146" lon="5.88557">
        <ele>1850.6</ele>
        <time>2021-02-27T05:21:33Z</time>
      </trkpt>
      <trkpt lat="45.12146" lon="5.8856">
        <ele>1850.6</ele>
        <time>2021-02-27T05:21:34Z</time>
      </trkpt>
      <trkpt lat="45.12146" lon="5.88563">
        <ele>1850.6</ele>
        <time>2021-02-27T05:21:37Z</time>
      </trkpt>
      <trkpt lat="45.12144" lon="5.88567">
        <ele>1850.6</ele>
        <time>2021-02-27T05:21:40Z</time>
      </trkpt>
      <trkpt lat="45.12144" lon="5.8857">
        <ele>1853.4</ele>
        <time>2021-02-27T05:21:43Z</time>
      </trkpt>
      <trkpt lat="45.12144" lon="5.88573">
        <ele>1853.4</ele>
        <time>2021-02-27T05:21:46Z</time>
      </trkpt>
      <trkpt lat="45.12143" lon="5.88576">
        <ele>1853.4</ele>
        <time>2021-02-27T05:21:48Z</time>
      </trkpt>
      <trkpt lat="45.12143" lon="5.88579">
        <ele>1853.4</ele>
        <time>2021-02-27T05:21:51Z</time>
      </trkpt>
      <trkpt lat="45.12143" lon="5.88579">
        <ele>1856.2</ele>
        <time>2021-02-27T05:21:53Z</time>
      </trkpt>
      <trkpt lat="45.12143" lon="5.88583">
        <ele>1856.2</ele>
        <time>2021-02-27T05:21:54Z</time>
      </trkpt>
      <trkpt lat="45.12143" lon="5.88585">
        <ele>1856.2</ele>
        <time>2021-02-27T05:21:57Z</time>
      </trkpt>
      <trkpt lat="45.12143" lon="5.88587">
        <ele>1856.2</ele>
        <time>2021-02-27T05:22:00Z</time>
      </trkpt>
      <trkpt lat="45.12143" lon="5.88589">
        <ele>1856.2</ele>
        <time>2021-02-27T05:22:02Z</time>
      </trkpt>
      <trkpt lat="45.12143" lon="5.88591">
        <ele>1859.2</ele>
        <time>2021-02-27T05:22:03Z</time>
      </trkpt>
      <trkpt lat="45.12142" lon="5.88594">
        <ele>1859.2</ele>
        <time>2021-02-27T05:22:04Z</time>
      </trkpt>
      <trkpt lat="45.12141" lon="5.88598">
        <ele>1859.2</ele>
        <time>2021-02-27T05:22:07Z</time>
      </trkpt>
      <trkpt lat="45.12141" lon="5.88601">
        <ele>1859.2</ele>
        <time>2021-02-27T05:22:09Z</time>
      </trkpt>
      <trkpt lat="45.1214" lon="5.88604">
        <ele>1859.2</ele>
        <time>2021-02-27T05:22:11Z</time>
      </trkpt>
      <trkpt lat="45.12139" lon="5.88607">
        <ele>1861.4</ele>
        <time>2021-02-27T05:22:13Z</time>
      </trkpt>
      <trkpt lat="45.12138" lon="5.88612">
        <ele>1861.4</ele>
        <time>2021-02-27T05:22:15Z</time>
      </trkpt>
      <trkpt lat="45.12138" lon="5.88614">
        <ele>1861.4</ele>
        <time>2021-02-27T05:22:17Z</time>
      </trkpt>
      <trkpt lat="45.12138" lon="5.88616">
        <ele>1861.4</ele>
        <time>2021-02-27T05:22:20Z</time>
      </trkpt>
      <trkpt lat="45.12138" lon="5.88618">
        <ele>1861.4</ele>
        <time>2021-02-27T05:22:22Z</time>
      </trkpt>
      <trkpt lat="45.12138" lon="5.8862">
        <ele>1863.4</ele>
        <time>2021-02-27T05:22:23Z</time>
      </trkpt>
      <trkpt lat="45.12137" lon="5.88624">
        <ele>1863.4</ele>
        <time>2021-02-27T05:22:24Z</time>
      </trkpt>
      <trkpt lat="45.12137" lon="5.88627">
        <ele>1863.4</ele>
        <time>2021-02-27T05:22:26Z</time>
      </trkpt>
      <trkpt lat="45.12138" lon="5.8863">
        <ele>1863.4</ele>
        <time>2021-02-27T05:22:28Z</time>
      </trkpt>
      <trkpt lat="45.12138" lon="5.88632">
        <ele>1863.4</ele>
        <time>2021-02-27T05:22:30Z</time>
      </trkpt>
      <trkpt lat="45.12138" lon="5.88635">
        <ele>1865.6</ele>
        <time>2021-02-27T05:22:33Z</time>
      </trkpt>
      <trkpt lat="45.12138" lon="5.8864">
        <ele>1865.6</ele>
        <time>2021-02-27T05:22:35Z</time>
      </trkpt>
      <trkpt lat="45.12139" lon="5.88642">
        <ele>1865.6</ele>
        <time>2021-02-27T05:22:38Z</time>
      </trkpt>
      <trkpt lat="45.12139" lon="5.88644">
        <ele>1865.6</ele>
        <time>2021-02-27T05:22:40Z</time>
      </trkpt>
      <trkpt lat="45.12139" lon="5.88645">
        <ele>1865.6</ele>
        <time>2021-02-27T05:22:42Z</time>
      </trkpt>
      <trkpt lat="45.12139" lon="5.88647">
        <ele>1867.8</ele>
        <time>2021-02-27T05:22:43Z</time>
      </trkpt>
      <trkpt lat="45.12138" lon="5.88653">
        <ele>1867.8</ele>
        <time>2021-02-27T05:22:44Z</time>
      </trkpt>
      <trkpt lat="45.12138" lon="5.88655">
        <ele>1867.8</ele>
        <time>2021-02-27T05:22:46Z</time>
      </trkpt>
      <trkpt lat="45.12138" lon="5.88657">
        <ele>1867.8</ele>
        <time>2021-02-27T05:22:48Z</time>
      </trkpt>
      <trkpt lat="45.12138" lon="5.8866">
        <ele>1867.8</ele>
        <time>2021-02-27T05:22:50Z</time>
      </trkpt>
      <trkpt lat="45.12138" lon="5.88662">
        <ele>1867.8</ele>
        <time>2021-02-27T05:22:52Z</time>
      </trkpt>
      <trkpt lat="45.12138" lon="5.88664">
        <ele>1870</ele>
        <time>2021-02-27T05:22:53Z</time>
      </trkpt>
      <trkpt lat="45.12139" lon="5.88668">
        <ele>1870</ele>
        <time>2021-02-27T05:22:54Z</time>
      </trkpt>
      <trkpt lat="45.12139" lon="5.8867">
        <ele>1870</ele>
        <time>2021-02-27T05:22:56Z</time>
      </trkpt>
      <trkpt lat="45.12138" lon="5.88673">
        <ele>1870</ele>
        <time>2021-02-27T05:22:58Z</time>
      </trkpt>
      <trkpt lat="45.12138" lon="5.88675">
        <ele>1870</ele>
        <time>2021-02-27T05:23:00Z</time>
      </trkpt>
      <trkpt lat="45.12138" lon="5.88677">
        <ele>1870</ele>
        <time>2021-02-27T05:23:02Z</time>
      </trkpt>
      <trkpt lat="45.12138" lon="5.88679">
        <ele>1872.2</ele>
        <time>2021-02-27T05:23:03Z</time>
      </trkpt>
      <trkpt lat="45.12137" lon="5.88683">
        <ele>1872.2</ele>
        <time>2021-02-27T05:23:04Z</time>
      </trkpt>
      <trkpt lat="45.12137" lon="5.88686">
        <ele>1872.2</ele>
        <time>2021-02-27T05:23:06Z</time>
      </trkpt>
      <trkpt lat="45.12137" lon="5.88689">
        <ele>1872.2</ele>
        <time>2021-02-27T05:23:08Z</time>
      </trkpt>
      <trkpt lat="45.12137" lon="5.88691">
        <ele>1872.2</ele>
        <time>2021-02-27T05:23:10Z</time>
      </trkpt>
      <trkpt lat="45.12136" lon="5.88694">
        <ele>1872.2</ele>
        <time>2021-02-27T05:23:12Z</time>
      </trkpt>
      <trkpt lat="45.12136" lon="5.88696">
        <ele>1873.8</ele>
        <time>2021-02-27T05:23:13Z</time>
      </trkpt>
      <trkpt lat="45.12136" lon="5.88698">
        <ele>1873.8</ele>
        <time>2021-02-27T05:23:14Z</time>
      </trkpt>
      <trkpt lat="45.12136" lon="5.88701">
        <ele>1873.8</ele>
        <time>2021-02-27T05:23:16Z</time>
      </trkpt>
      <trkpt lat="45.12136" lon="5.88705">
        <ele>1873.8</ele>
        <time>2021-02-27T05:23:18Z</time>
      </trkpt>
      <trkpt lat="45.12136" lon="5.88709">
        <ele>1873.8</ele>
        <time>2021-02-27T05:23:21Z</time>
      </trkpt>
      <trkpt lat="45.12137" lon="5.88712">
        <ele>1875.4</ele>
        <time>2021-02-27T05:23:23Z</time>
      </trkpt>
      <trkpt lat="45.12138" lon="5.88719">
        <ele>1875.4</ele>
        <time>2021-02-27T05:23:26Z</time>
      </trkpt>
      <trkpt lat="45.12137" lon="5.88722">
        <ele>1875.4</ele>
        <time>2021-02-27T05:23:28Z</time>
      </trkpt>
      <trkpt lat="45.12137" lon="5.88725">
        <ele>1875.4</ele>
        <time>2021-02-27T05:23:30Z</time>
      </trkpt>
      <trkpt lat="45.12137" lon="5.88727">
        <ele>1875.4</ele>
        <time>2021-02-27T05:23:32Z</time>
      </trkpt>
      <trkpt lat="45.12137" lon="5.8873">
        <ele>1876.8</ele>
        <time>2021-02-27T05:23:33Z</time>
      </trkpt>
      <trkpt lat="45.12136" lon="5.88735">
        <ele>1876.8</ele>
        <time>2021-02-27T05:23:35Z</time>
      </trkpt>
      <trkpt lat="45.12135" lon="5.88738">
        <ele>1876.8</ele>
        <time>2021-02-27T05:23:37Z</time>
      </trkpt>
      <trkpt lat="45.12136" lon="5.88742">
        <ele>1876.8</ele>
        <time>2021-02-27T05:23:39Z</time>
      </trkpt>
      <trkpt lat="45.12137" lon="5.88746">
        <ele>1876.8</ele>
        <time>2021-02-27T05:23:41Z</time>
      </trkpt>
      <trkpt lat="45.12138" lon="5.88749">
        <ele>1877.6</ele>
        <time>2021-02-27T05:23:43Z</time>
      </trkpt>
      <trkpt lat="45.12139" lon="5.88757">
        <ele>1877.6</ele>
        <time>2021-02-27T05:23:45Z</time>
      </trkpt>
      <trkpt lat="45.1214" lon="5.8876">
        <ele>1877.6</ele>
        <time>2021-02-27T05:23:47Z</time>
      </trkpt>
      <trkpt lat="45.12141" lon="5.88763">
        <ele>1877.6</ele>
        <time>2021-02-27T05:23:49Z</time>
      </trkpt>
      <trkpt lat="45.12141" lon="5.88767">
        <ele>1877.6</ele>
        <time>2021-02-27T05:23:51Z</time>
      </trkpt>
      <trkpt lat="45.12142" lon="5.8877">
        <ele>1878</ele>
        <time>2021-02-27T05:23:53Z</time>
      </trkpt>
      <trkpt lat="45.12143" lon="5.88773">
        <ele>1878</ele>
        <time>2021-02-27T05:23:55Z</time>
      </trkpt>
      <trkpt lat="45.12144" lon="5.88777">
        <ele>1878</ele>
        <time>2021-02-27T05:23:57Z</time>
      </trkpt>
      <trkpt lat="45.12145" lon="5.88781">
        <ele>1878</ele>
        <time>2021-02-27T05:23:59Z</time>
      </trkpt>
      <trkpt lat="45.12146" lon="5.88785">
        <ele>1878</ele>
        <time>2021-02-27T05:24:01Z</time>
      </trkpt>
      <trkpt lat="45.12147" lon="5.88789">
        <ele>1878.8</ele>
        <time>2021-02-27T05:24:03Z</time>
      </trkpt>
      <trkpt lat="45.12147" lon="5.88793">
        <ele>1878.8</ele>
        <time>2021-02-27T05:24:05Z</time>
      </trkpt>
      <trkpt lat="45.12148" lon="5.88797">
        <ele>1878.8</ele>
        <time>2021-02-27T05:24:07Z</time>
      </trkpt>
      <trkpt lat="45.12148" lon="5.88801">
        <ele>1878.8</ele>
        <time>2021-02-27T05:24:09Z</time>
      </trkpt>
      <trkpt lat="45.12148" lon="5.88805">
        <ele>1878.8</ele>
        <time>2021-02-27T05:24:11Z</time>
      </trkpt>
      <trkpt lat="45.12149" lon="5.88809">
        <ele>1880.2</ele>
        <time>2021-02-27T05:24:13Z</time>
      </trkpt>
      <trkpt lat="45.12151" lon="5.88814">
        <ele>1880.2</ele>
        <time>2021-02-27T05:24:14Z</time>
      </trkpt>
      <trkpt lat="45.12151" lon="5.88817">
        <ele>1880.2</ele>
        <time>2021-02-27T05:24:15Z</time>
      </trkpt>
      <trkpt lat="45.12152" lon="5.8882">
        <ele>1880.2</ele>
        <time>2021-02-27T05:24:17Z</time>
      </trkpt>
      <trkpt lat="45.12152" lon="5.88823">
        <ele>1880.2</ele>
        <time>2021-02-27T05:24:19Z</time>
      </trkpt>
      <trkpt lat="45.12153" lon="5.88826">
        <ele>1880.2</ele>
        <time>2021-02-27T05:24:21Z</time>
      </trkpt>
      <trkpt lat="45.12154" lon="5.88829">
        <ele>1880.4</ele>
        <time>2021-02-27T05:24:23Z</time>
      </trkpt>
      <trkpt lat="45.12155" lon="5.88832">
        <ele>1880.4</ele>
        <time>2021-02-27T05:24:25Z</time>
      </trkpt>
      <trkpt lat="45.12155" lon="5.88836">
        <ele>1880.4</ele>
        <time>2021-02-27T05:24:27Z</time>
      </trkpt>
      <trkpt lat="45.12156" lon="5.8884">
        <ele>1880.4</ele>
        <time>2021-02-27T05:24:29Z</time>
      </trkpt>
      <trkpt lat="45.12157" lon="5.88843">
        <ele>1880.4</ele>
        <time>2021-02-27T05:24:31Z</time>
      </trkpt>
      <trkpt lat="45.12157" lon="5.88846">
        <ele>1882</ele>
        <time>2021-02-27T05:24:33Z</time>
      </trkpt>
      <trkpt lat="45.12157" lon="5.88849">
        <ele>1882</ele>
        <time>2021-02-27T05:24:35Z</time>
      </trkpt>
      <trkpt lat="45.12158" lon="5.88852">
        <ele>1882</ele>
        <time>2021-02-27T05:24:37Z</time>
      </trkpt>
      <trkpt lat="45.12159" lon="5.88856">
        <ele>1882</ele>
        <time>2021-02-27T05:24:39Z</time>
      </trkpt>
      <trkpt lat="45.12159" lon="5.88859">
        <ele>1882</ele>
        <time>2021-02-27T05:24:41Z</time>
      </trkpt>
      <trkpt lat="45.12159" lon="5.88862">
        <ele>1883.8</ele>
        <time>2021-02-27T05:24:43Z</time>
      </trkpt>
      <trkpt lat="45.12159" lon="5.88865">
        <ele>1883.8</ele>
        <time>2021-02-27T05:24:45Z</time>
      </trkpt>
      <trkpt lat="45.1216" lon="5.88869">
        <ele>1883.8</ele>
        <time>2021-02-27T05:24:47Z</time>
      </trkpt>
      <trkpt lat="45.1216" lon="5.88871">
        <ele>1883.8</ele>
        <time>2021-02-27T05:24:49Z</time>
      </trkpt>
      <trkpt lat="45.1216" lon="5.88874">
        <ele>1883.8</ele>
        <time>2021-02-27T05:24:51Z</time>
      </trkpt>
      <trkpt lat="45.12161" lon="5.88877">
        <ele>1885.6</ele>
        <time>2021-02-27T05:24:53Z</time>
      </trkpt>
      <trkpt lat="45.12161" lon="5.88881">
        <ele>1885.6</ele>
        <time>2021-02-27T05:24:55Z</time>
      </trkpt>
      <trkpt lat="45.12161" lon="5.88884">
        <ele>1885.6</ele>
        <time>2021-02-27T05:24:57Z</time>
      </trkpt>
      <trkpt lat="45.12161" lon="5.88888">
        <ele>1885.6</ele>
        <time>2021-02-27T05:24:59Z</time>
      </trkpt>
      <trkpt lat="45.12161" lon="5.88892">
        <ele>1885.6</ele>
        <time>2021-02-27T05:25:01Z</time>
      </trkpt>
      <trkpt lat="45.12161" lon="5.88895">
        <ele>1887.6</ele>
        <time>2021-02-27T05:25:03Z</time>
      </trkpt>
      <trkpt lat="45.12161" lon="5.88898">
        <ele>1887.6</ele>
        <time>2021-02-27T05:25:05Z</time>
      </trkpt>
      <trkpt lat="45.12161" lon="5.88902">
        <ele>1887.6</ele>
        <time>2021-02-27T05:25:08Z</time>
      </trkpt>
      <trkpt lat="45.12162" lon="5.88904">
        <ele>1887.6</ele>
        <time>2021-02-27T05:25:11Z</time>
      </trkpt>
      <trkpt lat="45.12161" lon="5.88907">
        <ele>1889.6</ele>
        <time>2021-02-27T05:25:13Z</time>
      </trkpt>
      <trkpt lat="45.12161" lon="5.8891">
        <ele>1889.6</ele>
        <time>2021-02-27T05:25:15Z</time>
      </trkpt>
      <trkpt lat="45.1216" lon="5.88913">
        <ele>1889.6</ele>
        <time>2021-02-27T05:25:17Z</time>
      </trkpt>
      <trkpt lat="45.1216" lon="5.88916">
        <ele>1889.6</ele>
        <time>2021-02-27T05:25:20Z</time>
      </trkpt>
      <trkpt lat="45.1216" lon="5.8892">
        <ele>1892.6</ele>
        <time>2021-02-27T05:25:23Z</time>
      </trkpt>
      <trkpt lat="45.12159" lon="5.88923">
        <ele>1892.6</ele>
        <time>2021-02-27T05:25:25Z</time>
      </trkpt>
      <trkpt lat="45.12159" lon="5.88926">
        <ele>1892.6</ele>
        <time>2021-02-27T05:25:28Z</time>
      </trkpt>
      <trkpt lat="45.12159" lon="5.88929">
        <ele>1892.6</ele>
        <time>2021-02-27T05:25:30Z</time>
      </trkpt>
      <trkpt lat="45.12159" lon="5.88933">
        <ele>1895.8</ele>
        <time>2021-02-27T05:25:33Z</time>
      </trkpt>
      <trkpt lat="45.12159" lon="5.88936">
        <ele>1895.8</ele>
        <time>2021-02-27T05:25:35Z</time>
      </trkpt>
      <trkpt lat="45.12159" lon="5.88939">
        <ele>1895.8</ele>
        <time>2021-02-27T05:25:37Z</time>
      </trkpt>
      <trkpt lat="45.12158" lon="5.88942">
        <ele>1895.8</ele>
        <time>2021-02-27T05:25:39Z</time>
      </trkpt>
      <trkpt lat="45.12158" lon="5.88945">
        <ele>1895.8</ele>
        <time>2021-02-27T05:25:41Z</time>
      </trkpt>
      <trkpt lat="45.12157" lon="5.88948">
        <ele>1898</ele>
        <time>2021-02-27T05:25:43Z</time>
      </trkpt>
      <trkpt lat="45.12157" lon="5.88951">
        <ele>1898</ele>
        <time>2021-02-27T05:25:45Z</time>
      </trkpt>
      <trkpt lat="45.12157" lon="5.88955">
        <ele>1898</ele>
        <time>2021-02-27T05:25:47Z</time>
      </trkpt>
      <trkpt lat="45.12158" lon="5.88957">
        <ele>1898</ele>
        <time>2021-02-27T05:25:49Z</time>
      </trkpt>
      <trkpt lat="45.12159" lon="5.8896">
        <ele>1898</ele>
        <time>2021-02-27T05:25:51Z</time>
      </trkpt>
      <trkpt lat="45.12158" lon="5.88963">
        <ele>1899.6</ele>
        <time>2021-02-27T05:25:53Z</time>
      </trkpt>
      <trkpt lat="45.12158" lon="5.88966">
        <ele>1899.6</ele>
        <time>2021-02-27T05:25:55Z</time>
      </trkpt>
      <trkpt lat="45.12159" lon="5.88969">
        <ele>1899.6</ele>
        <time>2021-02-27T05:25:57Z</time>
      </trkpt>
      <trkpt lat="45.12158" lon="5.88972">
        <ele>1899.6</ele>
        <time>2021-02-27T05:25:59Z</time>
      </trkpt>
      <trkpt lat="45.12158" lon="5.88975">
        <ele>1899.6</ele>
        <time>2021-02-27T05:26:01Z</time>
      </trkpt>
      <trkpt lat="45.12157" lon="5.88978">
        <ele>1901.6</ele>
        <time>2021-02-27T05:26:03Z</time>
      </trkpt>
      <trkpt lat="45.12157" lon="5.88981">
        <ele>1901.6</ele>
        <time>2021-02-27T05:26:05Z</time>
      </trkpt>
      <trkpt lat="45.12156" lon="5.88984">
        <ele>1901.6</ele>
        <time>2021-02-27T05:26:07Z</time>
      </trkpt>
      <trkpt lat="45.12156" lon="5.88987">
        <ele>1901.6</ele>
        <time>2021-02-27T05:26:09Z</time>
      </trkpt>
      <trkpt lat="45.12155" lon="5.8899">
        <ele>1901.6</ele>
        <time>2021-02-27T05:26:11Z</time>
      </trkpt>
      <trkpt lat="45.12155" lon="5.88993">
        <ele>1904</ele>
        <time>2021-02-27T05:26:13Z</time>
      </trkpt>
      <trkpt lat="45.12155" lon="5.88998">
        <ele>1904</ele>
        <time>2021-02-27T05:26:15Z</time>
      </trkpt>
      <trkpt lat="45.12155" lon="5.89">
        <ele>1904</ele>
        <time>2021-02-27T05:26:17Z</time>
      </trkpt>
      <trkpt lat="45.12154" lon="5.89002">
        <ele>1904</ele>
        <time>2021-02-27T05:26:19Z</time>
      </trkpt>
      <trkpt lat="45.12154" lon="5.89004">
        <ele>1904</ele>
        <time>2021-02-27T05:26:22Z</time>
      </trkpt>
      <trkpt lat="45.12154" lon="5.89006">
        <ele>1906</ele>
        <time>2021-02-27T05:26:23Z</time>
      </trkpt>
      <trkpt lat="45.12153" lon="5.89011">
        <ele>1906</ele>
        <time>2021-02-27T05:26:24Z</time>
      </trkpt>
      <trkpt lat="45.12153" lon="5.89013">
        <ele>1906</ele>
        <time>2021-02-27T05:26:26Z</time>
      </trkpt>
      <trkpt lat="45.12153" lon="5.89014">
        <ele>1906</ele>
        <time>2021-02-27T05:26:29Z</time>
      </trkpt>
      <trkpt lat="45.12153" lon="5.89016">
        <ele>1906</ele>
        <time>2021-02-27T05:26:32Z</time>
      </trkpt>
      <trkpt lat="45.12153" lon="5.89018">
        <ele>1908.2</ele>
        <time>2021-02-27T05:26:33Z</time>
      </trkpt>
      <trkpt lat="45.12153" lon="5.89021">
        <ele>1908.2</ele>
        <time>2021-02-27T05:26:35Z</time>
      </trkpt>
      <trkpt lat="45.12151" lon="5.89024">
        <ele>1908.2</ele>
        <time>2021-02-27T05:26:38Z</time>
      </trkpt>
      <trkpt lat="45.1215" lon="5.89027">
        <ele>1908.2</ele>
        <time>2021-02-27T05:26:41Z</time>
      </trkpt>
      <trkpt lat="45.1215" lon="5.89027">
        <ele>1911</ele>
        <time>2021-02-27T05:26:43Z</time>
      </trkpt>
      <trkpt lat="45.12149" lon="5.8903">
        <ele>1911</ele>
        <time>2021-02-27T05:26:44Z</time>
      </trkpt>
      <trkpt lat="45.12149" lon="5.89033">
        <ele>1911</ele>
        <time>2021-02-27T05:26:46Z</time>
      </trkpt>
      <trkpt lat="45.12147" lon="5.89035">
        <ele>1911</ele>
        <time>2021-02-27T05:26:48Z</time>
      </trkpt>
      <trkpt lat="45.12147" lon="5.89037">
        <ele>1911</ele>
        <time>2021-02-27T05:26:50Z</time>
      </trkpt>
      <trkpt lat="45.12146" lon="5.89039">
        <ele>1914.2</ele>
        <time>2021-02-27T05:26:53Z</time>
      </trkpt>
      <trkpt lat="45.12147" lon="5.89043">
        <ele>1914.2</ele>
        <time>2021-02-27T05:26:56Z</time>
      </trkpt>
      <trkpt lat="45.12146" lon="5.89045">
        <ele>1914.2</ele>
        <time>2021-02-27T05:26:58Z</time>
      </trkpt>
      <trkpt lat="45.12145" lon="5.89048">
        <ele>1914.2</ele>
        <time>2021-02-27T05:27:01Z</time>
      </trkpt>
      <trkpt lat="45.12144" lon="5.89051">
        <ele>1917.2</ele>
        <time>2021-02-27T05:27:03Z</time>
      </trkpt>
      <trkpt lat="45.12143" lon="5.89054">
        <ele>1917.2</ele>
        <time>2021-02-27T05:27:06Z</time>
      </trkpt>
      <trkpt lat="45.12143" lon="5.89057">
        <ele>1917.2</ele>
        <time>2021-02-27T05:27:09Z</time>
      </trkpt>
      <trkpt lat="45.12142" lon="5.8906">
        <ele>1917.2</ele>
        <time>2021-02-27T05:27:11Z</time>
      </trkpt>
      <trkpt lat="45.12141" lon="5.89062">
        <ele>1919.2</ele>
        <time>2021-02-27T05:27:13Z</time>
      </trkpt>
      <trkpt lat="45.12141" lon="5.89065">
        <ele>1919.2</ele>
        <time>2021-02-27T05:27:15Z</time>
      </trkpt>
      <trkpt lat="45.12141" lon="5.89068">
        <ele>1919.2</ele>
        <time>2021-02-27T05:27:18Z</time>
      </trkpt>
      <trkpt lat="45.1214" lon="5.89071">
        <ele>1919.2</ele>
        <time>2021-02-27T05:27:20Z</time>
      </trkpt>
      <trkpt lat="45.12138" lon="5.89075">
        <ele>1921.8</ele>
        <time>2021-02-27T05:27:23Z</time>
      </trkpt>
      <trkpt lat="45.12136" lon="5.89078">
        <ele>1921.8</ele>
        <time>2021-02-27T05:27:25Z</time>
      </trkpt>
      <trkpt lat="45.12136" lon="5.8908">
        <ele>1921.8</ele>
        <time>2021-02-27T05:27:27Z</time>
      </trkpt>
      <trkpt lat="45.12135" lon="5.89082">
        <ele>1921.8</ele>
        <time>2021-02-27T05:27:29Z</time>
      </trkpt>
      <trkpt lat="45.12134" lon="5.89083">
        <ele>1921.8</ele>
        <time>2021-02-27T05:27:32Z</time>
      </trkpt>
      <trkpt lat="45.12134" lon="5.89085">
        <ele>1924.4</ele>
        <time>2021-02-27T05:27:33Z</time>
      </trkpt>
      <trkpt lat="45.12133" lon="5.89087">
        <ele>1924.4</ele>
        <time>2021-02-27T05:27:35Z</time>
      </trkpt>
      <trkpt lat="45.12133" lon="5.8909">
        <ele>1924.4</ele>
        <time>2021-02-27T05:27:38Z</time>
      </trkpt>
      <trkpt lat="45.12131" lon="5.89092">
        <ele>1924.4</ele>
        <time>2021-02-27T05:27:40Z</time>
      </trkpt>
      <trkpt lat="45.1213" lon="5.89095">
        <ele>1928.2</ele>
        <time>2021-02-27T05:27:43Z</time>
      </trkpt>
      <trkpt lat="45.12128" lon="5.89099">
        <ele>1928.2</ele>
        <time>2021-02-27T05:27:46Z</time>
      </trkpt>
      <trkpt lat="45.12128" lon="5.891">
        <ele>1928.2</ele>
        <time>2021-02-27T05:27:49Z</time>
      </trkpt>
      <trkpt lat="45.12127" lon="5.89101">
        <ele>1928.2</ele>
        <time>2021-02-27T05:27:52Z</time>
      </trkpt>
      <trkpt lat="45.12127" lon="5.89102">
        <ele>1930.6</ele>
        <time>2021-02-27T05:27:53Z</time>
      </trkpt>
      <trkpt lat="45.12126" lon="5.89107">
        <ele>1930.6</ele>
        <time>2021-02-27T05:27:56Z</time>
      </trkpt>
      <trkpt lat="45.12125" lon="5.89108">
        <ele>1930.6</ele>
        <time>2021-02-27T05:27:59Z</time>
      </trkpt>
      <trkpt lat="45.12125" lon="5.8911">
        <ele>1930.6</ele>
        <time>2021-02-27T05:28:02Z</time>
      </trkpt>
      <trkpt lat="45.12125" lon="5.89111">
        <ele>1934</ele>
        <time>2021-02-27T05:28:03Z</time>
      </trkpt>
      <trkpt lat="45.12124" lon="5.89115">
        <ele>1934</ele>
        <time>2021-02-27T05:28:05Z</time>
      </trkpt>
      <trkpt lat="45.12123" lon="5.89117">
        <ele>1934</ele>
        <time>2021-02-27T05:28:07Z</time>
      </trkpt>
      <trkpt lat="45.12122" lon="5.89119">
        <ele>1934</ele>
        <time>2021-02-27T05:28:09Z</time>
      </trkpt>
      <trkpt lat="45.1212" lon="5.89122">
        <ele>1937.4</ele>
        <time>2021-02-27T05:28:13Z</time>
      </trkpt>
      <trkpt lat="45.12118" lon="5.89127">
        <ele>1937.4</ele>
        <time>2021-02-27T05:28:16Z</time>
      </trkpt>
      <trkpt lat="45.12118" lon="5.89128">
        <ele>1937.4</ele>
        <time>2021-02-27T05:28:19Z</time>
      </trkpt>
      <trkpt lat="45.12117" lon="5.89129">
        <ele>1937.4</ele>
        <time>2021-02-27T05:28:22Z</time>
      </trkpt>
      <trkpt lat="45.12117" lon="5.89131">
        <ele>1939.4</ele>
        <time>2021-02-27T05:28:23Z</time>
      </trkpt>
      <trkpt lat="45.12116" lon="5.89133">
        <ele>1939.4</ele>
        <time>2021-02-27T05:28:25Z</time>
      </trkpt>
      <trkpt lat="45.12116" lon="5.89137">
        <ele>1939.4</ele>
        <time>2021-02-27T05:28:29Z</time>
      </trkpt>
      <trkpt lat="45.12114" lon="5.8914">
        <ele>1939.4</ele>
        <time>2021-02-27T05:28:31Z</time>
      </trkpt>
      <trkpt lat="45.12114" lon="5.8914">
        <ele>1942.2</ele>
        <time>2021-02-27T05:28:33Z</time>
      </trkpt>
      <trkpt lat="45.12114" lon="5.89143">
        <ele>1942.2</ele>
        <time>2021-02-27T05:28:34Z</time>
      </trkpt>
      <trkpt lat="45.12113" lon="5.89147">
        <ele>1942.2</ele>
        <time>2021-02-27T05:28:37Z</time>
      </trkpt>
      <trkpt lat="45.12112" lon="5.89149">
        <ele>1942.2</ele>
        <time>2021-02-27T05:28:40Z</time>
      </trkpt>
      <trkpt lat="45.12111" lon="5.89153">
        <ele>1945</ele>
        <time>2021-02-27T05:28:43Z</time>
      </trkpt>
      <trkpt lat="45.1211" lon="5.89157">
        <ele>1945</ele>
        <time>2021-02-27T05:28:45Z</time>
      </trkpt>
      <trkpt lat="45.12109" lon="5.8916">
        <ele>1945</ele>
        <time>2021-02-27T05:28:48Z</time>
      </trkpt>
      <trkpt lat="45.12108" lon="5.89163">
        <ele>1945</ele>
        <time>2021-02-27T05:28:51Z</time>
      </trkpt>
      <trkpt lat="45.12107" lon="5.89165">
        <ele>1948.4</ele>
        <time>2021-02-27T05:28:53Z</time>
      </trkpt>
      <trkpt lat="45.12107" lon="5.89167">
        <ele>1948.4</ele>
        <time>2021-02-27T05:28:56Z</time>
      </trkpt>
      <trkpt lat="45.12106" lon="5.8917">
        <ele>1948.4</ele>
        <time>2021-02-27T05:28:59Z</time>
      </trkpt>
      <trkpt lat="45.12105" lon="5.89172">
        <ele>1948.4</ele>
        <time>2021-02-27T05:29:01Z</time>
      </trkpt>
      <trkpt lat="45.12103" lon="5.89175">
        <ele>1951.2</ele>
        <time>2021-02-27T05:29:03Z</time>
      </trkpt>
      <trkpt lat="45.12101" lon="5.89179">
        <ele>1951.2</ele>
        <time>2021-02-27T05:29:05Z</time>
      </trkpt>
      <trkpt lat="45.12101" lon="5.8918">
        <ele>1951.2</ele>
        <time>2021-02-27T05:29:07Z</time>
      </trkpt>
      <trkpt lat="45.121" lon="5.89182">
        <ele>1951.2</ele>
        <time>2021-02-27T05:29:10Z</time>
      </trkpt>
      <trkpt lat="45.12099" lon="5.89183">
        <ele>1951.2</ele>
        <time>2021-02-27T05:29:12Z</time>
      </trkpt>
      <trkpt lat="45.12098" lon="5.89185">
        <ele>1954</ele>
        <time>2021-02-27T05:29:13Z</time>
      </trkpt>
      <trkpt lat="45.12096" lon="5.89188">
        <ele>1954</ele>
        <time>2021-02-27T05:29:16Z</time>
      </trkpt>
      <trkpt lat="45.12095" lon="5.89189">
        <ele>1954</ele>
        <time>2021-02-27T05:29:19Z</time>
      </trkpt>
      <trkpt lat="45.12094" lon="5.89191">
        <ele>1954</ele>
        <time>2021-02-27T05:29:22Z</time>
      </trkpt>
      <trkpt lat="45.12093" lon="5.89192">
        <ele>1956.4</ele>
        <time>2021-02-27T05:29:23Z</time>
      </trkpt>
      <trkpt lat="45.12091" lon="5.89194">
        <ele>1956.4</ele>
        <time>2021-02-27T05:29:24Z</time>
      </trkpt>
      <trkpt lat="45.1209" lon="5.89196">
        <ele>1956.4</ele>
        <time>2021-02-27T05:29:25Z</time>
      </trkpt>
      <trkpt lat="45.12088" lon="5.89198">
        <ele>1956.4</ele>
        <time>2021-02-27T05:29:28Z</time>
      </trkpt>
      <trkpt lat="45.12087" lon="5.89202">
        <ele>1958.8</ele>
        <time>2021-02-27T05:29:33Z</time>
      </trkpt>
      <trkpt lat="45.12086" lon="5.89205">
        <ele>1958.8</ele>
        <time>2021-02-27T05:29:36Z</time>
      </trkpt>
      <trkpt lat="45.12085" lon="5.89207">
        <ele>1958.8</ele>
        <time>2021-02-27T05:29:39Z</time>
      </trkpt>
      <trkpt lat="45.12085" lon="5.89208">
        <ele>1958.8</ele>
        <time>2021-02-27T05:29:42Z</time>
      </trkpt>
      <trkpt lat="45.12084" lon="5.89209">
        <ele>1962</ele>
        <time>2021-02-27T05:29:43Z</time>
      </trkpt>
      <trkpt lat="45.12082" lon="5.89213">
        <ele>1962</ele>
        <time>2021-02-27T05:29:44Z</time>
      </trkpt>
      <trkpt lat="45.1208" lon="5.89214">
        <ele>1962</ele>
        <time>2021-02-27T05:29:46Z</time>
      </trkpt>
      <trkpt lat="45.12079" lon="5.89215">
        <ele>1962</ele>
        <time>2021-02-27T05:29:48Z</time>
      </trkpt>
      <trkpt lat="45.12078" lon="5.89216">
        <ele>1962</ele>
        <time>2021-02-27T05:29:50Z</time>
      </trkpt>
      <trkpt lat="45.12076" lon="5.89218">
        <ele>1962</ele>
        <time>2021-02-27T05:29:52Z</time>
      </trkpt>
      <trkpt lat="45.12075" lon="5.89219">
        <ele>1965</ele>
        <time>2021-02-27T05:29:53Z</time>
      </trkpt>
      <trkpt lat="45.12072" lon="5.8922">
        <ele>1965</ele>
        <time>2021-02-27T05:29:54Z</time>
      </trkpt>
      <trkpt lat="45.1207" lon="5.89221">
        <ele>1965</ele>
        <time>2021-02-27T05:29:56Z</time>
      </trkpt>
      <trkpt lat="45.12069" lon="5.89222">
        <ele>1965</ele>
        <time>2021-02-27T05:29:58Z</time>
      </trkpt>
      <trkpt lat="45.12067" lon="5.89223">
        <ele>1965</ele>
        <time>2021-02-27T05:30:00Z</time>
      </trkpt>
      <trkpt lat="45.12065" lon="5.89225">
        <ele>1965</ele>
        <time>2021-02-27T05:30:02Z</time>
      </trkpt>
      <trkpt lat="45.12064" lon="5.89226">
        <ele>1967</ele>
        <time>2021-02-27T05:30:03Z</time>
      </trkpt>
      <trkpt lat="45.12061" lon="5.89227">
        <ele>1967</ele>
        <time>2021-02-27T05:30:04Z</time>
      </trkpt>
      <trkpt lat="45.12059" lon="5.89229">
        <ele>1967</ele>
        <time>2021-02-27T05:30:06Z</time>
      </trkpt>
      <trkpt lat="45.12057" lon="5.8923">
        <ele>1967</ele>
        <time>2021-02-27T05:30:08Z</time>
      </trkpt>
      <trkpt lat="45.12055" lon="5.89232">
        <ele>1967</ele>
        <time>2021-02-27T05:30:10Z</time>
      </trkpt>
      <trkpt lat="45.12053" lon="5.89233">
        <ele>1967</ele>
        <time>2021-02-27T05:30:12Z</time>
      </trkpt>
      <trkpt lat="45.12051" lon="5.89234">
        <ele>1968.2</ele>
        <time>2021-02-27T05:30:13Z</time>
      </trkpt>
      <trkpt lat="45.12048" lon="5.89235">
        <ele>1968.2</ele>
        <time>2021-02-27T05:30:14Z</time>
      </trkpt>
      <trkpt lat="45.12045" lon="5.89236">
        <ele>1968.2</ele>
        <time>2021-02-27T05:30:16Z</time>
      </trkpt>
      <trkpt lat="45.12043" lon="5.89237">
        <ele>1968.2</ele>
        <time>2021-02-27T05:30:18Z</time>
      </trkpt>
      <trkpt lat="45.12041" lon="5.89237">
        <ele>1968.2</ele>
        <time>2021-02-27T05:30:20Z</time>
      </trkpt>
      <trkpt lat="45.12039" lon="5.89238">
        <ele>1968.2</ele>
        <time>2021-02-27T05:30:22Z</time>
      </trkpt>
      <trkpt lat="45.12037" lon="5.89239">
        <ele>1969.2</ele>
        <time>2021-02-27T05:30:23Z</time>
      </trkpt>
      <trkpt lat="45.12036" lon="5.89239">
        <ele>1969.2</ele>
        <time>2021-02-27T05:30:24Z</time>
      </trkpt>
      <trkpt lat="45.12034" lon="5.89239">
        <ele>1969.2</ele>
        <time>2021-02-27T05:30:26Z</time>
      </trkpt>
      <trkpt lat="45.12032" lon="5.89239">
        <ele>1969.2</ele>
        <time>2021-02-27T05:30:28Z</time>
      </trkpt>
      <trkpt lat="45.1203" lon="5.89238">
        <ele>1969.2</ele>
        <time>2021-02-27T05:30:30Z</time>
      </trkpt>
      <trkpt lat="45.12026" lon="5.89238">
        <ele>1970.8</ele>
        <time>2021-02-27T05:30:33Z</time>
      </trkpt>
      <trkpt lat="45.12024" lon="5.89239">
        <ele>1970.8</ele>
        <time>2021-02-27T05:30:35Z</time>
      </trkpt>
      <trkpt lat="45.12022" lon="5.89239">
        <ele>1970.8</ele>
        <time>2021-02-27T05:30:37Z</time>
      </trkpt>
      <trkpt lat="45.1202" lon="5.89239">
        <ele>1970.8</ele>
        <time>2021-02-27T05:30:39Z</time>
      </trkpt>
      <trkpt lat="45.12018" lon="5.89239">
        <ele>1970.8</ele>
        <time>2021-02-27T05:30:41Z</time>
      </trkpt>
      <trkpt lat="45.12016" lon="5.89239">
        <ele>1973.4</ele>
        <time>2021-02-27T05:30:43Z</time>
      </trkpt>
      <trkpt lat="45.12012" lon="5.8924">
        <ele>1973.4</ele>
        <time>2021-02-27T05:30:45Z</time>
      </trkpt>
      <trkpt lat="45.1201" lon="5.8924">
        <ele>1973.4</ele>
        <time>2021-02-27T05:30:47Z</time>
      </trkpt>
      <trkpt lat="45.12009" lon="5.89241">
        <ele>1973.4</ele>
        <time>2021-02-27T05:30:49Z</time>
      </trkpt>
      <trkpt lat="45.12007" lon="5.89241">
        <ele>1973.4</ele>
        <time>2021-02-27T05:30:51Z</time>
      </trkpt>
      <trkpt lat="45.12005" lon="5.89241">
        <ele>1973.4</ele>
        <time>2021-02-27T05:30:52Z</time>
      </trkpt>
      <trkpt lat="45.12003" lon="5.89242">
        <ele>1975.4</ele>
        <time>2021-02-27T05:30:53Z</time>
      </trkpt>
      <trkpt lat="45.12002" lon="5.89242">
        <ele>1975.4</ele>
        <time>2021-02-27T05:30:54Z</time>
      </trkpt>
      <trkpt lat="45.11999" lon="5.89242">
        <ele>1975.4</ele>
        <time>2021-02-27T05:30:56Z</time>
      </trkpt>
      <trkpt lat="45.11997" lon="5.89242">
        <ele>1975.4</ele>
        <time>2021-02-27T05:30:59Z</time>
      </trkpt>
      <trkpt lat="45.11994" lon="5.89242">
        <ele>1975.4</ele>
        <time>2021-02-27T05:31:01Z</time>
      </trkpt>
      <trkpt lat="45.11992" lon="5.89242">
        <ele>1976.8</ele>
        <time>2021-02-27T05:31:03Z</time>
      </trkpt>
      <trkpt lat="45.11989" lon="5.89241">
        <ele>1976.8</ele>
        <time>2021-02-27T05:31:06Z</time>
      </trkpt>
      <trkpt lat="45.11986" lon="5.89241">
        <ele>1976.8</ele>
        <time>2021-02-27T05:31:09Z</time>
      </trkpt>
      <trkpt lat="45.11984" lon="5.8924">
        <ele>1979.4</ele>
        <time>2021-02-27T05:31:13Z</time>
      </trkpt>
      <trkpt lat="45.11982" lon="5.89242">
        <ele>1979.4</ele>
        <time>2021-02-27T05:31:16Z</time>
      </trkpt>
      <trkpt lat="45.1198" lon="5.89243">
        <ele>1979.4</ele>
        <time>2021-02-27T05:31:18Z</time>
      </trkpt>
      <trkpt lat="45.11977" lon="5.89243">
        <ele>1979.4</ele>
        <time>2021-02-27T05:31:21Z</time>
      </trkpt>
      <trkpt lat="45.11977" lon="5.89243">
        <ele>1981.8</ele>
        <time>2021-02-27T05:31:23Z</time>
      </trkpt>
      <trkpt lat="45.11975" lon="5.89243">
        <ele>1981.8</ele>
        <time>2021-02-27T05:31:24Z</time>
      </trkpt>
      <trkpt lat="45.11973" lon="5.89242">
        <ele>1981.8</ele>
        <time>2021-02-27T05:31:28Z</time>
      </trkpt>
      <trkpt lat="45.11972" lon="5.89242">
        <ele>1985.2</ele>
        <time>2021-02-27T05:31:33Z</time>
      </trkpt>
      <trkpt lat="45.1197" lon="5.89242">
        <ele>1985.2</ele>
        <time>2021-02-27T05:31:36Z</time>
      </trkpt>
      <trkpt lat="45.11967" lon="5.89244">
        <ele>1985.2</ele>
        <time>2021-02-27T05:31:40Z</time>
      </trkpt>
      <trkpt lat="45.11965" lon="5.89245">
        <ele>1988.2</ele>
        <time>2021-02-27T05:31:43Z</time>
      </trkpt>
      <trkpt lat="45.11963" lon="5.89246">
        <ele>1988.2</ele>
        <time>2021-02-27T05:31:46Z</time>
      </trkpt>
      <trkpt lat="45.11961" lon="5.89247">
        <ele>1988.2</ele>
        <time>2021-02-27T05:31:48Z</time>
      </trkpt>
      <trkpt lat="45.11959" lon="5.89249">
        <ele>1988.2</ele>
        <time>2021-02-27T05:31:51Z</time>
      </trkpt>
      <trkpt lat="45.11959" lon="5.89249">
        <ele>1991.4</ele>
        <time>2021-02-27T05:31:53Z</time>
      </trkpt>
      <trkpt lat="45.11957" lon="5.8925">
        <ele>1991.4</ele>
        <time>2021-02-27T05:31:54Z</time>
      </trkpt>
      <trkpt lat="45.11956" lon="5.89251">
        <ele>1991.4</ele>
        <time>2021-02-27T05:31:57Z</time>
      </trkpt>
      <trkpt lat="45.11953" lon="5.89253">
        <ele>1991.4</ele>
        <time>2021-02-27T05:32:00Z</time>
      </trkpt>
      <trkpt lat="45.11952" lon="5.89255">
        <ele>1993.6</ele>
        <time>2021-02-27T05:32:03Z</time>
      </trkpt>
      <trkpt lat="45.11949" lon="5.89258">
        <ele>1993.6</ele>
        <time>2021-02-27T05:32:05Z</time>
      </trkpt>
      <trkpt lat="45.11949" lon="5.89259">
        <ele>1993.6</ele>
        <time>2021-02-27T05:32:07Z</time>
      </trkpt>
      <trkpt lat="45.11948" lon="5.8926">
        <ele>1993.6</ele>
        <time>2021-02-27T05:32:10Z</time>
      </trkpt>
      <trkpt lat="45.11947" lon="5.89261">
        <ele>1993.6</ele>
        <time>2021-02-27T05:32:12Z</time>
      </trkpt>
      <trkpt lat="45.11946" lon="5.89262">
        <ele>1996</ele>
        <time>2021-02-27T05:32:13Z</time>
      </trkpt>
      <trkpt lat="45.11944" lon="5.89264">
        <ele>1996</ele>
        <time>2021-02-27T05:32:15Z</time>
      </trkpt>
      <trkpt lat="45.11941" lon="5.89266">
        <ele>1996</ele>
        <time>2021-02-27T05:32:18Z</time>
      </trkpt>
      <trkpt lat="45.11941" lon="5.8927">
        <ele>1996</ele>
        <time>2021-02-27T05:32:21Z</time>
      </trkpt>
      <trkpt lat="45.1194" lon="5.89273">
        <ele>1998</ele>
        <time>2021-02-27T05:32:23Z</time>
      </trkpt>
      <trkpt lat="45.11938" lon="5.89278">
        <ele>1998</ele>
        <time>2021-02-27T05:32:25Z</time>
      </trkpt>
      <trkpt lat="45.11937" lon="5.8928">
        <ele>1998</ele>
        <time>2021-02-27T05:32:27Z</time>
      </trkpt>
      <trkpt lat="45.11937" lon="5.89282">
        <ele>1998</ele>
        <time>2021-02-27T05:32:29Z</time>
      </trkpt>
      <trkpt lat="45.11936" lon="5.89283">
        <ele>1998</ele>
        <time>2021-02-27T05:32:32Z</time>
      </trkpt>
      <trkpt lat="45.11935" lon="5.89285">
        <ele>2000.4</ele>
        <time>2021-02-27T05:32:33Z</time>
      </trkpt>
      <trkpt lat="45.11935" lon="5.89288">
        <ele>2000.4</ele>
        <time>2021-02-27T05:32:34Z</time>
      </trkpt>
      <trkpt lat="45.11936" lon="5.89292">
        <ele>2000.4</ele>
        <time>2021-02-27T05:32:36Z</time>
      </trkpt>
      <trkpt lat="45.11935" lon="5.89296">
        <ele>2000.4</ele>
        <time>2021-02-27T05:32:38Z</time>
      </trkpt>
      <trkpt lat="45.11935" lon="5.89299">
        <ele>2000.4</ele>
        <time>2021-02-27T05:32:40Z</time>
      </trkpt>
      <trkpt lat="45.11935" lon="5.89303">
        <ele>2001.8</ele>
        <time>2021-02-27T05:32:43Z</time>
      </trkpt>
      <trkpt lat="45.11935" lon="5.89306">
        <ele>2001.8</ele>
        <time>2021-02-27T05:32:45Z</time>
      </trkpt>
      <trkpt lat="45.11934" lon="5.8931">
        <ele>2001.8</ele>
        <time>2021-02-27T05:32:47Z</time>
      </trkpt>
      <trkpt lat="45.11933" lon="5.89313">
        <ele>2001.8</ele>
        <time>2021-02-27T05:32:49Z</time>
      </trkpt>
      <trkpt lat="45.11934" lon="5.89317">
        <ele>2001.8</ele>
        <time>2021-02-27T05:32:51Z</time>
      </trkpt>
      <trkpt lat="45.11934" lon="5.89317">
        <ele>2003</ele>
        <time>2021-02-27T05:32:53Z</time>
      </trkpt>
      <trkpt lat="45.11934" lon="5.89323">
        <ele>2003</ele>
        <time>2021-02-27T05:32:54Z</time>
      </trkpt>
      <trkpt lat="45.11934" lon="5.89326">
        <ele>2003</ele>
        <time>2021-02-27T05:32:56Z</time>
      </trkpt>
      <trkpt lat="45.11934" lon="5.89328">
        <ele>2003</ele>
        <time>2021-02-27T05:32:58Z</time>
      </trkpt>
      <trkpt lat="45.11934" lon="5.89331">
        <ele>2003</ele>
        <time>2021-02-27T05:33:00Z</time>
      </trkpt>
      <trkpt lat="45.11934" lon="5.89334">
        <ele>2003</ele>
        <time>2021-02-27T05:33:02Z</time>
      </trkpt>
      <trkpt lat="45.11934" lon="5.89336">
        <ele>2004.2</ele>
        <time>2021-02-27T05:33:03Z</time>
      </trkpt>
      <trkpt lat="45.11934" lon="5.89341">
        <ele>2004.2</ele>
        <time>2021-02-27T05:33:04Z</time>
      </trkpt>
      <trkpt lat="45.11934" lon="5.89343">
        <ele>2004.2</ele>
        <time>2021-02-27T05:33:06Z</time>
      </trkpt>
      <trkpt lat="45.11933" lon="5.89345">
        <ele>2004.2</ele>
        <time>2021-02-27T05:33:08Z</time>
      </trkpt>
      <trkpt lat="45.11933" lon="5.89347">
        <ele>2004.2</ele>
        <time>2021-02-27T05:33:10Z</time>
      </trkpt>
      <trkpt lat="45.11933" lon="5.8935">
        <ele>2004.2</ele>
        <time>2021-02-27T05:33:12Z</time>
      </trkpt>
      <trkpt lat="45.11933" lon="5.89352">
        <ele>2006</ele>
        <time>2021-02-27T05:33:13Z</time>
      </trkpt>
      <trkpt lat="45.11932" lon="5.89355">
        <ele>2006</ele>
        <time>2021-02-27T05:33:14Z</time>
      </trkpt>
      <trkpt lat="45.11931" lon="5.89358">
        <ele>2006</ele>
        <time>2021-02-27T05:33:16Z</time>
      </trkpt>
      <trkpt lat="45.1193" lon="5.8936">
        <ele>2006</ele>
        <time>2021-02-27T05:33:18Z</time>
      </trkpt>
      <trkpt lat="45.11929" lon="5.89362">
        <ele>2006</ele>
        <time>2021-02-27T05:33:20Z</time>
      </trkpt>
      <trkpt lat="45.11928" lon="5.89364">
        <ele>2006</ele>
        <time>2021-02-27T05:33:22Z</time>
      </trkpt>
      <trkpt lat="45.11927" lon="5.89366">
        <ele>2008.8</ele>
        <time>2021-02-27T05:33:23Z</time>
      </trkpt>
      <trkpt lat="45.11926" lon="5.89369">
        <ele>2008.8</ele>
        <time>2021-02-27T05:33:26Z</time>
      </trkpt>
      <trkpt lat="45.11925" lon="5.89371">
        <ele>2008.8</ele>
        <time>2021-02-27T05:33:29Z</time>
      </trkpt>
      <trkpt lat="45.11923" lon="5.89373">
        <ele>2008.8</ele>
        <time>2021-02-27T05:33:31Z</time>
      </trkpt>
      <trkpt lat="45.11921" lon="5.89374">
        <ele>2011.2</ele>
        <time>2021-02-27T05:33:33Z</time>
      </trkpt>
      <trkpt lat="45.11919" lon="5.89376">
        <ele>2011.2</ele>
        <time>2021-02-27T05:33:36Z</time>
      </trkpt>
      <trkpt lat="45.11917" lon="5.89377">
        <ele>2011.2</ele>
        <time>2021-02-27T05:33:39Z</time>
      </trkpt>
      <trkpt lat="45.11915" lon="5.89379">
        <ele>2011.2</ele>
        <time>2021-02-27T05:33:41Z</time>
      </trkpt>
      <trkpt lat="45.11913" lon="5.8938">
        <ele>2014</ele>
        <time>2021-02-27T05:33:43Z</time>
      </trkpt>
      <trkpt lat="45.1191" lon="5.89383">
        <ele>2014</ele>
        <time>2021-02-27T05:33:45Z</time>
      </trkpt>
      <trkpt lat="45.11908" lon="5.89383">
        <ele>2014</ele>
        <time>2021-02-27T05:33:47Z</time>
      </trkpt>
      <trkpt lat="45.11907" lon="5.89383">
        <ele>2014</ele>
        <time>2021-02-27T05:33:50Z</time>
      </trkpt>
      <trkpt lat="45.11906" lon="5.89384">
        <ele>2014</ele>
        <time>2021-02-27T05:33:52Z</time>
      </trkpt>
      <trkpt lat="45.11905" lon="5.89384">
        <ele>2018.2</ele>
        <time>2021-02-27T05:33:53Z</time>
      </trkpt>
      <trkpt lat="45.119" lon="5.89383">
        <ele>2018.2</ele>
        <time>2021-02-27T05:33:55Z</time>
      </trkpt>
      <trkpt lat="45.11899" lon="5.89383">
        <ele>2018.2</ele>
        <time>2021-02-27T05:33:58Z</time>
      </trkpt>
      <trkpt lat="45.11898" lon="5.89383">
        <ele>2018.2</ele>
        <time>2021-02-27T05:34:00Z</time>
      </trkpt>
      <trkpt lat="45.11896" lon="5.89383">
        <ele>2018.2</ele>
        <time>2021-02-27T05:34:02Z</time>
      </trkpt>
      <trkpt lat="45.11895" lon="5.89383">
        <ele>2020.8</ele>
        <time>2021-02-27T05:34:03Z</time>
      </trkpt>
      <trkpt lat="45.11893" lon="5.89381">
        <ele>2020.8</ele>
        <time>2021-02-27T05:34:04Z</time>
      </trkpt>
      <trkpt lat="45.11891" lon="5.8938">
        <ele>2020.8</ele>
        <time>2021-02-27T05:34:06Z</time>
      </trkpt>
      <trkpt lat="45.11889" lon="5.89379">
        <ele>2020.8</ele>
        <time>2021-02-27T05:34:08Z</time>
      </trkpt>
      <trkpt lat="45.11886" lon="5.89377">
        <ele>2020.8</ele>
        <time>2021-02-27T05:34:11Z</time>
      </trkpt>
      <trkpt lat="45.11884" lon="5.89376">
        <ele>2022.8</ele>
        <time>2021-02-27T05:34:13Z</time>
      </trkpt>
      <trkpt lat="45.11882" lon="5.89374">
        <ele>2022.8</ele>
        <time>2021-02-27T05:34:15Z</time>
      </trkpt>
      <trkpt lat="45.1188" lon="5.89372">
        <ele>2022.8</ele>
        <time>2021-02-27T05:34:17Z</time>
      </trkpt>
      <trkpt lat="45.11878" lon="5.8937">
        <ele>2022.8</ele>
        <time>2021-02-27T05:34:19Z</time>
      </trkpt>
      <trkpt lat="45.11876" lon="5.89369">
        <ele>2022.8</ele>
        <time>2021-02-27T05:34:21Z</time>
      </trkpt>
      <trkpt lat="45.11874" lon="5.89367">
        <ele>2025.2</ele>
        <time>2021-02-27T05:34:23Z</time>
      </trkpt>
      <trkpt lat="45.11872" lon="5.89365">
        <ele>2025.2</ele>
        <time>2021-02-27T05:34:25Z</time>
      </trkpt>
      <trkpt lat="45.1187" lon="5.89363">
        <ele>2025.2</ele>
        <time>2021-02-27T05:34:27Z</time>
      </trkpt>
      <trkpt lat="45.11869" lon="5.89362">
        <ele>2025.2</ele>
        <time>2021-02-27T05:34:29Z</time>
      </trkpt>
      <trkpt lat="45.11867" lon="5.8936">
        <ele>2025.2</ele>
        <time>2021-02-27T05:34:31Z</time>
      </trkpt>
      <trkpt lat="45.11866" lon="5.89358">
        <ele>2027.2</ele>
        <time>2021-02-27T05:34:33Z</time>
      </trkpt>
      <trkpt lat="45.11863" lon="5.89355">
        <ele>2027.2</ele>
        <time>2021-02-27T05:34:35Z</time>
      </trkpt>
      <trkpt lat="45.11862" lon="5.89354">
        <ele>2027.2</ele>
        <time>2021-02-27T05:34:38Z</time>
      </trkpt>
      <trkpt lat="45.1186" lon="5.89353">
        <ele>2027.2</ele>
        <time>2021-02-27T05:34:40Z</time>
      </trkpt>
      <trkpt lat="45.11859" lon="5.89352">
        <ele>2027.2</ele>
        <time>2021-02-27T05:34:42Z</time>
      </trkpt>
      <trkpt lat="45.11858" lon="5.89351">
        <ele>2029</ele>
        <time>2021-02-27T05:34:43Z</time>
      </trkpt>
      <trkpt lat="45.11855" lon="5.89348">
        <ele>2029</ele>
        <time>2021-02-27T05:34:45Z</time>
      </trkpt>
      <trkpt lat="45.11854" lon="5.89347">
        <ele>2029</ele>
        <time>2021-02-27T05:34:48Z</time>
      </trkpt>
      <trkpt lat="45.11852" lon="5.89347">
        <ele>2029</ele>
        <time>2021-02-27T05:34:50Z</time>
      </trkpt>
      <trkpt lat="45.11851" lon="5.89346">
        <ele>2029</ele>
        <time>2021-02-27T05:34:52Z</time>
      </trkpt>
      <trkpt lat="45.1185" lon="5.89345">
        <ele>2031.4</ele>
        <time>2021-02-27T05:34:53Z</time>
      </trkpt>
      <trkpt lat="45.11847" lon="5.89342">
        <ele>2031.4</ele>
        <time>2021-02-27T05:34:54Z</time>
      </trkpt>
      <trkpt lat="45.11846" lon="5.89341">
        <ele>2031.4</ele>
        <time>2021-02-27T05:34:56Z</time>
      </trkpt>
      <trkpt lat="45.11845" lon="5.89339">
        <ele>2031.4</ele>
        <time>2021-02-27T05:34:58Z</time>
      </trkpt>
      <trkpt lat="45.11844" lon="5.89338">
        <ele>2031.4</ele>
        <time>2021-02-27T05:35:00Z</time>
      </trkpt>
      <trkpt lat="45.11843" lon="5.89337">
        <ele>2031.4</ele>
        <time>2021-02-27T05:35:02Z</time>
      </trkpt>
      <trkpt lat="45.11842" lon="5.89335">
        <ele>2034</ele>
        <time>2021-02-27T05:35:03Z</time>
      </trkpt>
      <trkpt lat="45.1184" lon="5.89333">
        <ele>2034</ele>
        <time>2021-02-27T05:35:04Z</time>
      </trkpt>
      <trkpt lat="45.11838" lon="5.89331">
        <ele>2034</ele>
        <time>2021-02-27T05:35:07Z</time>
      </trkpt>
      <trkpt lat="45.11836" lon="5.89329">
        <ele>2034</ele>
        <time>2021-02-27T05:35:09Z</time>
      </trkpt>
      <trkpt lat="45.11835" lon="5.89327">
        <ele>2034</ele>
        <time>2021-02-27T05:35:11Z</time>
      </trkpt>
      <trkpt lat="45.11835" lon="5.89327">
        <ele>2036.4</ele>
        <time>2021-02-27T05:35:13Z</time>
      </trkpt>
      <trkpt lat="45.11832" lon="5.89325">
        <ele>2036.4</ele>
        <time>2021-02-27T05:35:14Z</time>
      </trkpt>
      <trkpt lat="45.1183" lon="5.89323">
        <ele>2036.4</ele>
        <time>2021-02-27T05:35:17Z</time>
      </trkpt>
      <trkpt lat="45.11828" lon="5.89321">
        <ele>2036.4</ele>
        <time>2021-02-27T05:35:19Z</time>
      </trkpt>
      <trkpt lat="45.11826" lon="5.89319">
        <ele>2036.4</ele>
        <time>2021-02-27T05:35:21Z</time>
      </trkpt>
      <trkpt lat="45.11826" lon="5.89319">
        <ele>2038.6</ele>
        <time>2021-02-27T05:35:23Z</time>
      </trkpt>
      <trkpt lat="45.11823" lon="5.89315">
        <ele>2038.6</ele>
        <time>2021-02-27T05:35:24Z</time>
      </trkpt>
      <trkpt lat="45.11821" lon="5.89314">
        <ele>2038.6</ele>
        <time>2021-02-27T05:35:26Z</time>
      </trkpt>
      <trkpt lat="45.1182" lon="5.89313">
        <ele>2038.6</ele>
        <time>2021-02-27T05:35:28Z</time>
      </trkpt>
      <trkpt lat="45.11818" lon="5.89312">
        <ele>2038.6</ele>
        <time>2021-02-27T05:35:30Z</time>
      </trkpt>
      <trkpt lat="45.11817" lon="5.8931">
        <ele>2038.6</ele>
        <time>2021-02-27T05:35:32Z</time>
      </trkpt>
      <trkpt lat="45.11816" lon="5.89309">
        <ele>2041.2</ele>
        <time>2021-02-27T05:35:33Z</time>
      </trkpt>
      <trkpt lat="45.11814" lon="5.89309">
        <ele>2041.2</ele>
        <time>2021-02-27T05:35:34Z</time>
      </trkpt>
      <trkpt lat="45.11812" lon="5.89308">
        <ele>2041.2</ele>
        <time>2021-02-27T05:35:36Z</time>
      </trkpt>
      <trkpt lat="45.1181" lon="5.89307">
        <ele>2041.2</ele>
        <time>2021-02-27T05:35:38Z</time>
      </trkpt>
      <trkpt lat="45.11808" lon="5.89307">
        <ele>2041.2</ele>
        <time>2021-02-27T05:35:40Z</time>
      </trkpt>
      <trkpt lat="45.11805" lon="5.89306">
        <ele>2042.8</ele>
        <time>2021-02-27T05:35:43Z</time>
      </trkpt>
      <trkpt lat="45.11803" lon="5.89306">
        <ele>2042.8</ele>
        <time>2021-02-27T05:35:45Z</time>
      </trkpt>
      <trkpt lat="45.11801" lon="5.89307">
        <ele>2042.8</ele>
        <time>2021-02-27T05:35:47Z</time>
      </trkpt>
      <trkpt lat="45.11798" lon="5.89308">
        <ele>2042.8</ele>
        <time>2021-02-27T05:35:49Z</time>
      </trkpt>
      <trkpt lat="45.11796" lon="5.89308">
        <ele>2042.8</ele>
        <time>2021-02-27T05:35:51Z</time>
      </trkpt>
      <trkpt lat="45.11794" lon="5.89309">
        <ele>2044.4</ele>
        <time>2021-02-27T05:35:53Z</time>
      </trkpt>
      <trkpt lat="45.11792" lon="5.8931">
        <ele>2044.4</ele>
        <time>2021-02-27T05:35:55Z</time>
      </trkpt>
      <trkpt lat="45.11789" lon="5.89311">
        <ele>2044.4</ele>
        <time>2021-02-27T05:35:58Z</time>
      </trkpt>
      <trkpt lat="45.11787" lon="5.89311">
        <ele>2044.4</ele>
        <time>2021-02-27T05:36:00Z</time>
      </trkpt>
      <trkpt lat="45.11784" lon="5.8931">
        <ele>2047</ele>
        <time>2021-02-27T05:36:03Z</time>
      </trkpt>
      <trkpt lat="45.11782" lon="5.89311">
        <ele>2047</ele>
        <time>2021-02-27T05:36:07Z</time>
      </trkpt>
      <trkpt lat="45.1178" lon="5.89312">
        <ele>2047</ele>
        <time>2021-02-27T05:36:10Z</time>
      </trkpt>
      <trkpt lat="45.1178" lon="5.89312">
        <ele>2048.8</ele>
        <time>2021-02-27T05:36:13Z</time>
      </trkpt>
      <trkpt lat="45.11779" lon="5.89313">
        <ele>2048.8</ele>
        <time>2021-02-27T05:36:14Z</time>
      </trkpt>
      <trkpt lat="45.11777" lon="5.89315">
        <ele>2048.8</ele>
        <time>2021-02-27T05:36:16Z</time>
      </trkpt>
      <trkpt lat="45.11775" lon="5.89317">
        <ele>2048.8</ele>
        <time>2021-02-27T05:36:19Z</time>
      </trkpt>
      <trkpt lat="45.11773" lon="5.89318">
        <ele>2050.6</ele>
        <time>2021-02-27T05:36:23Z</time>
      </trkpt>
      <trkpt lat="45.11772" lon="5.8932">
        <ele>2050.6</ele>
        <time>2021-02-27T05:36:27Z</time>
      </trkpt>
      <trkpt lat="45.1177" lon="5.89321">
        <ele>2050.6</ele>
        <time>2021-02-27T05:36:30Z</time>
      </trkpt>
      <trkpt lat="45.11769" lon="5.89323">
        <ele>2053.6</ele>
        <time>2021-02-27T05:36:33Z</time>
      </trkpt>
      <trkpt lat="45.11767" lon="5.89326">
        <ele>2053.6</ele>
        <time>2021-02-27T05:36:37Z</time>
      </trkpt>
      <trkpt lat="45.11766" lon="5.89329">
        <ele>2053.6</ele>
        <time>2021-02-27T05:36:41Z</time>
      </trkpt>
      <trkpt lat="45.11766" lon="5.89329">
        <ele>2057</ele>
        <time>2021-02-27T05:36:43Z</time>
      </trkpt>
      <trkpt lat="45.11765" lon="5.89333">
        <ele>2057</ele>
        <time>2021-02-27T05:36:46Z</time>
      </trkpt>
      <trkpt lat="45.11764" lon="5.89334">
        <ele>2057</ele>
        <time>2021-02-27T05:36:49Z</time>
      </trkpt>
      <trkpt lat="45.11764" lon="5.89335">
        <ele>2057</ele>
        <time>2021-02-27T05:36:52Z</time>
      </trkpt>
      <trkpt lat="45.11763" lon="5.89336">
        <ele>2059.8</ele>
        <time>2021-02-27T05:36:53Z</time>
      </trkpt>
      <trkpt lat="45.11762" lon="5.89339">
        <ele>2059.8</ele>
        <time>2021-02-27T05:36:55Z</time>
      </trkpt>
      <trkpt lat="45.1176" lon="5.89341">
        <ele>2059.8</ele>
        <time>2021-02-27T05:36:58Z</time>
      </trkpt>
      <trkpt lat="45.11759" lon="5.89344">
        <ele>2059.8</ele>
        <time>2021-02-27T05:37:01Z</time>
      </trkpt>
      <trkpt lat="45.11759" lon="5.89344">
        <ele>2062.4</ele>
        <time>2021-02-27T05:37:03Z</time>
      </trkpt>
      <trkpt lat="45.11758" lon="5.89346">
        <ele>2062.4</ele>
        <time>2021-02-27T05:37:04Z</time>
      </trkpt>
      <trkpt lat="45.11756" lon="5.89348">
        <ele>2062.4</ele>
        <time>2021-02-27T05:37:07Z</time>
      </trkpt>
      <trkpt lat="45.11755" lon="5.89351">
        <ele>2062.4</ele>
        <time>2021-02-27T05:37:11Z</time>
      </trkpt>
      <trkpt lat="45.11755" lon="5.89351">
        <ele>2065.8</ele>
        <time>2021-02-27T05:37:13Z</time>
      </trkpt>
      <trkpt lat="45.11753" lon="5.89352">
        <ele>2065.8</ele>
        <time>2021-02-27T05:37:15Z</time>
      </trkpt>
      <trkpt lat="45.11752" lon="5.89355">
        <ele>2065.8</ele>
        <time>2021-02-27T05:37:18Z</time>
      </trkpt>
      <trkpt lat="45.11751" lon="5.89357">
        <ele>2065.8</ele>
        <time>2021-02-27T05:37:21Z</time>
      </trkpt>
      <trkpt lat="45.11751" lon="5.89357">
        <ele>2068.2</ele>
        <time>2021-02-27T05:37:23Z</time>
      </trkpt>
      <trkpt lat="45.11749" lon="5.89358">
        <ele>2068.2</ele>
        <time>2021-02-27T05:37:24Z</time>
      </trkpt>
      <trkpt lat="45.11747" lon="5.8936">
        <ele>2068.2</ele>
        <time>2021-02-27T05:37:28Z</time>
      </trkpt>
      <trkpt lat="45.11745" lon="5.89362">
        <ele>2068.2</ele>
        <time>2021-02-27T05:37:31Z</time>
      </trkpt>
      <trkpt lat="45.11743" lon="5.89364">
        <ele>2072</ele>
        <time>2021-02-27T05:37:33Z</time>
      </trkpt>
      <trkpt lat="45.11741" lon="5.89368">
        <ele>2072</ele>
        <time>2021-02-27T05:37:37Z</time>
      </trkpt>
      <trkpt lat="45.11741" lon="5.8937">
        <ele>2072</ele>
        <time>2021-02-27T05:37:39Z</time>
      </trkpt>
      <trkpt lat="45.11741" lon="5.89371">
        <ele>2072</ele>
        <time>2021-02-27T05:37:42Z</time>
      </trkpt>
      <trkpt lat="45.11741" lon="5.89373">
        <ele>2074.2</ele>
        <time>2021-02-27T05:37:43Z</time>
      </trkpt>
      <trkpt lat="45.11741" lon="5.89378">
        <ele>2074.2</ele>
        <time>2021-02-27T05:37:44Z</time>
      </trkpt>
      <trkpt lat="45.11742" lon="5.8938">
        <ele>2074.2</ele>
        <time>2021-02-27T05:37:46Z</time>
      </trkpt>
      <trkpt lat="45.11742" lon="5.89381">
        <ele>2074.2</ele>
        <time>2021-02-27T05:37:49Z</time>
      </trkpt>
      <trkpt lat="45.11743" lon="5.89383">
        <ele>2074.2</ele>
        <time>2021-02-27T05:37:52Z</time>
      </trkpt>
      <trkpt lat="45.11743" lon="5.89385">
        <ele>2076.2</ele>
        <time>2021-02-27T05:37:53Z</time>
      </trkpt>
      <trkpt lat="45.11745" lon="5.89389">
        <ele>2076.2</ele>
        <time>2021-02-27T05:37:54Z</time>
      </trkpt>
      <trkpt lat="45.11746" lon="5.89391">
        <ele>2076.2</ele>
        <time>2021-02-27T05:37:57Z</time>
      </trkpt>
      <trkpt lat="45.11747" lon="5.89393">
        <ele>2076.2</ele>
        <time>2021-02-27T05:38:00Z</time>
      </trkpt>
      <trkpt lat="45.11748" lon="5.89394">
        <ele>2076.2</ele>
        <time>2021-02-27T05:38:02Z</time>
      </trkpt>
      <trkpt lat="45.11749" lon="5.89396">
        <ele>2078.8</ele>
        <time>2021-02-27T05:38:03Z</time>
      </trkpt>
      <trkpt lat="45.1175" lon="5.89399">
        <ele>2078.8</ele>
        <time>2021-02-27T05:38:04Z</time>
      </trkpt>
      <trkpt lat="45.11751" lon="5.89402">
        <ele>2078.8</ele>
        <time>2021-02-27T05:38:07Z</time>
      </trkpt>
      <trkpt lat="45.11752" lon="5.89405">
        <ele>2078.8</ele>
        <time>2021-02-27T05:38:09Z</time>
      </trkpt>
      <trkpt lat="45.11753" lon="5.89407">
        <ele>2078.8</ele>
        <time>2021-02-27T05:38:11Z</time>
      </trkpt>
      <trkpt lat="45.11754" lon="5.89409">
        <ele>2080.6</ele>
        <time>2021-02-27T05:38:13Z</time>
      </trkpt>
      <trkpt lat="45.11756" lon="5.89414">
        <ele>2080.6</ele>
        <time>2021-02-27T05:38:15Z</time>
      </trkpt>
      <trkpt lat="45.11756" lon="5.89415">
        <ele>2080.6</ele>
        <time>2021-02-27T05:38:17Z</time>
      </trkpt>
      <trkpt lat="45.11757" lon="5.89417">
        <ele>2080.6</ele>
        <time>2021-02-27T05:38:20Z</time>
      </trkpt>
      <trkpt lat="45.11757" lon="5.89419">
        <ele>2080.6</ele>
        <time>2021-02-27T05:38:22Z</time>
      </trkpt>
      <trkpt lat="45.11758" lon="5.8942">
        <ele>2083</ele>
        <time>2021-02-27T05:38:23Z</time>
      </trkpt>
      <trkpt lat="45.11759" lon="5.89423">
        <ele>2083</ele>
        <time>2021-02-27T05:38:25Z</time>
      </trkpt>
      <trkpt lat="45.1176" lon="5.89426">
        <ele>2083</ele>
        <time>2021-02-27T05:38:27Z</time>
      </trkpt>
      <trkpt lat="45.11761" lon="5.89429">
        <ele>2083</ele>
        <time>2021-02-27T05:38:29Z</time>
      </trkpt>
      <trkpt lat="45.11762" lon="5.89432">
        <ele>2083</ele>
        <time>2021-02-27T05:38:31Z</time>
      </trkpt>
      <trkpt lat="45.11763" lon="5.89434">
        <ele>2085.4</ele>
        <time>2021-02-27T05:38:33Z</time>
      </trkpt>
      <trkpt lat="45.11764" lon="5.89438">
        <ele>2085.4</ele>
        <time>2021-02-27T05:38:36Z</time>
      </trkpt>
      <trkpt lat="45.11765" lon="5.89441">
        <ele>2085.4</ele>
        <time>2021-02-27T05:38:39Z</time>
      </trkpt>
      <trkpt lat="45.11766" lon="5.89444">
        <ele>2085.4</ele>
        <time>2021-02-27T05:38:41Z</time>
      </trkpt>
      <trkpt lat="45.11767" lon="5.89447">
        <ele>2087.8</ele>
        <time>2021-02-27T05:38:43Z</time>
      </trkpt>
      <trkpt lat="45.11768" lon="5.8945">
        <ele>2087.8</ele>
        <time>2021-02-27T05:38:45Z</time>
      </trkpt>
      <trkpt lat="45.11768" lon="5.89453">
        <ele>2087.8</ele>
        <time>2021-02-27T05:38:47Z</time>
      </trkpt>
      <trkpt lat="45.1177" lon="5.89455">
        <ele>2087.8</ele>
        <time>2021-02-27T05:38:49Z</time>
      </trkpt>
      <trkpt lat="45.11771" lon="5.89458">
        <ele>2087.8</ele>
        <time>2021-02-27T05:38:51Z</time>
      </trkpt>
      <trkpt lat="45.11772" lon="5.89461">
        <ele>2089.8</ele>
        <time>2021-02-27T05:38:53Z</time>
      </trkpt>
      <trkpt lat="45.11773" lon="5.89463">
        <ele>2089.8</ele>
        <time>2021-02-27T05:38:55Z</time>
      </trkpt>
      <trkpt lat="45.11774" lon="5.89466">
        <ele>2089.8</ele>
        <time>2021-02-27T05:38:57Z</time>
      </trkpt>
      <trkpt lat="45.11774" lon="5.89469">
        <ele>2089.8</ele>
        <time>2021-02-27T05:38:59Z</time>
      </trkpt>
      <trkpt lat="45.11775" lon="5.89471">
        <ele>2089.8</ele>
        <time>2021-02-27T05:39:01Z</time>
      </trkpt>
      <trkpt lat="45.11776" lon="5.89474">
        <ele>2092</ele>
        <time>2021-02-27T05:39:03Z</time>
      </trkpt>
      <trkpt lat="45.11778" lon="5.89479">
        <ele>2092</ele>
        <time>2021-02-27T05:39:06Z</time>
      </trkpt>
      <trkpt lat="45.11778" lon="5.8948">
        <ele>2092</ele>
        <time>2021-02-27T05:39:08Z</time>
      </trkpt>
      <trkpt lat="45.11779" lon="5.89482">
        <ele>2092</ele>
        <time>2021-02-27T05:39:10Z</time>
      </trkpt>
      <trkpt lat="45.11779" lon="5.89483">
        <ele>2092</ele>
        <time>2021-02-27T05:39:12Z</time>
      </trkpt>
      <trkpt lat="45.1178" lon="5.89485">
        <ele>2094.4</ele>
        <time>2021-02-27T05:39:13Z</time>
      </trkpt>
      <trkpt lat="45.11781" lon="5.89489">
        <ele>2094.4</ele>
        <time>2021-02-27T05:39:15Z</time>
      </trkpt>
      <trkpt lat="45.11781" lon="5.89491">
        <ele>2094.4</ele>
        <time>2021-02-27T05:39:17Z</time>
      </trkpt>
      <trkpt lat="45.11781" lon="5.89494">
        <ele>2094.4</ele>
        <time>2021-02-27T05:39:19Z</time>
      </trkpt>
      <trkpt lat="45.11782" lon="5.89497">
        <ele>2094.4</ele>
        <time>2021-02-27T05:39:21Z</time>
      </trkpt>
      <trkpt lat="45.11783" lon="5.895">
        <ele>2096.4</ele>
        <time>2021-02-27T05:39:23Z</time>
      </trkpt>
      <trkpt lat="45.11784" lon="5.89502">
        <ele>2096.4</ele>
        <time>2021-02-27T05:39:25Z</time>
      </trkpt>
      <trkpt lat="45.11786" lon="5.89504">
        <ele>2096.4</ele>
        <time>2021-02-27T05:39:27Z</time>
      </trkpt>
      <trkpt lat="45.11787" lon="5.89507">
        <ele>2096.4</ele>
        <time>2021-02-27T05:39:29Z</time>
      </trkpt>
      <trkpt lat="45.11788" lon="5.8951">
        <ele>2096.4</ele>
        <time>2021-02-27T05:39:31Z</time>
      </trkpt>
      <trkpt lat="45.11788" lon="5.89513">
        <ele>2098.6</ele>
        <time>2021-02-27T05:39:33Z</time>
      </trkpt>
      <trkpt lat="45.1179" lon="5.89518">
        <ele>2098.6</ele>
        <time>2021-02-27T05:39:35Z</time>
      </trkpt>
      <trkpt lat="45.11791" lon="5.8952">
        <ele>2098.6</ele>
        <time>2021-02-27T05:39:37Z</time>
      </trkpt>
      <trkpt lat="45.11792" lon="5.89523">
        <ele>2098.6</ele>
        <time>2021-02-27T05:39:39Z</time>
      </trkpt>
      <trkpt lat="45.11792" lon="5.89525">
        <ele>2098.6</ele>
        <time>2021-02-27T05:39:42Z</time>
      </trkpt>
      <trkpt lat="45.11793" lon="5.89527">
        <ele>2100.4</ele>
        <time>2021-02-27T05:39:43Z</time>
      </trkpt>
      <trkpt lat="45.11794" lon="5.89529">
        <ele>2100.4</ele>
        <time>2021-02-27T05:39:44Z</time>
      </trkpt>
      <trkpt lat="45.11795" lon="5.89533">
        <ele>2100.4</ele>
        <time>2021-02-27T05:39:47Z</time>
      </trkpt>
      <trkpt lat="45.11794" lon="5.89536">
        <ele>2100.4</ele>
        <time>2021-02-27T05:39:49Z</time>
      </trkpt>
      <trkpt lat="45.11795" lon="5.89539">
        <ele>2100.4</ele>
        <time>2021-02-27T05:39:51Z</time>
      </trkpt>
      <trkpt lat="45.11796" lon="5.89542">
        <ele>2102.4</ele>
        <time>2021-02-27T05:39:53Z</time>
      </trkpt>
      <trkpt lat="45.11798" lon="5.89546">
        <ele>2102.4</ele>
        <time>2021-02-27T05:39:55Z</time>
      </trkpt>
      <trkpt lat="45.11799" lon="5.89548">
        <ele>2102.4</ele>
        <time>2021-02-27T05:39:57Z</time>
      </trkpt>
      <trkpt lat="45.11799" lon="5.8955">
        <ele>2102.4</ele>
        <time>2021-02-27T05:39:59Z</time>
      </trkpt>
      <trkpt lat="45.118" lon="5.89552">
        <ele>2102.4</ele>
        <time>2021-02-27T05:40:02Z</time>
      </trkpt>
      <trkpt lat="45.11801" lon="5.89554">
        <ele>2104.2</ele>
        <time>2021-02-27T05:40:03Z</time>
      </trkpt>
      <trkpt lat="45.11802" lon="5.89559">
        <ele>2104.2</ele>
        <time>2021-02-27T05:40:04Z</time>
      </trkpt>
      <trkpt lat="45.11803" lon="5.89561">
        <ele>2104.2</ele>
        <time>2021-02-27T05:40:06Z</time>
      </trkpt>
      <trkpt lat="45.11804" lon="5.89563">
        <ele>2104.2</ele>
        <time>2021-02-27T05:40:08Z</time>
      </trkpt>
      <trkpt lat="45.11805" lon="5.89565">
        <ele>2104.2</ele>
        <time>2021-02-27T05:40:10Z</time>
      </trkpt>
      <trkpt lat="45.11806" lon="5.89567">
        <ele>2104.2</ele>
        <time>2021-02-27T05:40:12Z</time>
      </trkpt>
      <trkpt lat="45.11806" lon="5.89569">
        <ele>2106.6</ele>
        <time>2021-02-27T05:40:13Z</time>
      </trkpt>
      <trkpt lat="45.11808" lon="5.89573">
        <ele>2106.6</ele>
        <time>2021-02-27T05:40:14Z</time>
      </trkpt>
      <trkpt lat="45.11809" lon="5.89575">
        <ele>2106.6</ele>
        <time>2021-02-27T05:40:16Z</time>
      </trkpt>
      <trkpt lat="45.1181" lon="5.89577">
        <ele>2106.6</ele>
        <time>2021-02-27T05:40:18Z</time>
      </trkpt>
      <trkpt lat="45.11811" lon="5.89579">
        <ele>2106.6</ele>
        <time>2021-02-27T05:40:20Z</time>
      </trkpt>
      <trkpt lat="45.11813" lon="5.89581">
        <ele>2106.6</ele>
        <time>2021-02-27T05:40:22Z</time>
      </trkpt>
      <trkpt lat="45.11814" lon="5.89583">
        <ele>2107.8</ele>
        <time>2021-02-27T05:40:23Z</time>
      </trkpt>
      <trkpt lat="45.11815" lon="5.89586">
        <ele>2107.8</ele>
        <time>2021-02-27T05:40:24Z</time>
      </trkpt>
      <trkpt lat="45.11816" lon="5.89588">
        <ele>2107.8</ele>
        <time>2021-02-27T05:40:26Z</time>
      </trkpt>
      <trkpt lat="45.11817" lon="5.8959">
        <ele>2107.8</ele>
        <time>2021-02-27T05:40:28Z</time>
      </trkpt>
      <trkpt lat="45.11818" lon="5.89592">
        <ele>2107.8</ele>
        <time>2021-02-27T05:40:30Z</time>
      </trkpt>
      <trkpt lat="45.11819" lon="5.89594">
        <ele>2107.8</ele>
        <time>2021-02-27T05:40:32Z</time>
      </trkpt>
      <trkpt lat="45.1182" lon="5.89597">
        <ele>2109.2</ele>
        <time>2021-02-27T05:40:33Z</time>
      </trkpt>
      <trkpt lat="45.11822" lon="5.896">
        <ele>2109.2</ele>
        <time>2021-02-27T05:40:34Z</time>
      </trkpt>
      <trkpt lat="45.11823" lon="5.89602">
        <ele>2109.2</ele>
        <time>2021-02-27T05:40:36Z</time>
      </trkpt>
      <trkpt lat="45.11824" lon="5.89604">
        <ele>2109.2</ele>
        <time>2021-02-27T05:40:38Z</time>
      </trkpt>
      <trkpt lat="45.11825" lon="5.89606">
        <ele>2109.2</ele>
        <time>2021-02-27T05:40:40Z</time>
      </trkpt>
      <trkpt lat="45.11826" lon="5.89608">
        <ele>2109.2</ele>
        <time>2021-02-27T05:40:42Z</time>
      </trkpt>
      <trkpt lat="45.11827" lon="5.8961">
        <ele>2110.8</ele>
        <time>2021-02-27T05:40:43Z</time>
      </trkpt>
      <trkpt lat="45.11829" lon="5.89613">
        <ele>2110.8</ele>
        <time>2021-02-27T05:40:44Z</time>
      </trkpt>
      <trkpt lat="45.1183" lon="5.89615">
        <ele>2110.8</ele>
        <time>2021-02-27T05:40:46Z</time>
      </trkpt>
      <trkpt lat="45.11831" lon="5.89617">
        <ele>2110.8</ele>
        <time>2021-02-27T05:40:48Z</time>
      </trkpt>
      <trkpt lat="45.11831" lon="5.89619">
        <ele>2110.8</ele>
        <time>2021-02-27T05:40:50Z</time>
      </trkpt>
      <trkpt lat="45.11832" lon="5.89621">
        <ele>2110.8</ele>
        <time>2021-02-27T05:40:52Z</time>
      </trkpt>
      <trkpt lat="45.11833" lon="5.89623">
        <ele>2112.6</ele>
        <time>2021-02-27T05:40:53Z</time>
      </trkpt>
      <trkpt lat="45.11834" lon="5.89626">
        <ele>2112.6</ele>
        <time>2021-02-27T05:40:54Z</time>
      </trkpt>
      <trkpt lat="45.11835" lon="5.89628">
        <ele>2112.6</ele>
        <time>2021-02-27T05:40:56Z</time>
      </trkpt>
      <trkpt lat="45.11836" lon="5.8963">
        <ele>2112.6</ele>
        <time>2021-02-27T05:40:59Z</time>
      </trkpt>
      <trkpt lat="45.11837" lon="5.89631">
        <ele>2112.6</ele>
        <time>2021-02-27T05:41:02Z</time>
      </trkpt>
      <trkpt lat="45.11837" lon="5.89633">
        <ele>2114.4</ele>
        <time>2021-02-27T05:41:03Z</time>
      </trkpt>
      <trkpt lat="45.11839" lon="5.89638">
        <ele>2114.4</ele>
        <time>2021-02-27T05:41:05Z</time>
      </trkpt>
      <trkpt lat="45.1184" lon="5.8964">
        <ele>2114.4</ele>
        <time>2021-02-27T05:41:07Z</time>
      </trkpt>
      <trkpt lat="45.1184" lon="5.89641">
        <ele>2114.4</ele>
        <time>2021-02-27T05:41:09Z</time>
      </trkpt>
      <trkpt lat="45.11841" lon="5.89643">
        <ele>2114.4</ele>
        <time>2021-02-27T05:41:12Z</time>
      </trkpt>
      <trkpt lat="45.11842" lon="5.89645">
        <ele>2116.4</ele>
        <time>2021-02-27T05:41:13Z</time>
      </trkpt>
      <trkpt lat="45.11844" lon="5.8965">
        <ele>2116.4</ele>
        <time>2021-02-27T05:41:15Z</time>
      </trkpt>
      <trkpt lat="45.11845" lon="5.89651">
        <ele>2116.4</ele>
        <time>2021-02-27T05:41:18Z</time>
      </trkpt>
      <trkpt lat="45.11846" lon="5.89653">
        <ele>2116.4</ele>
        <time>2021-02-27T05:41:20Z</time>
      </trkpt>
      <trkpt lat="45.11847" lon="5.89655">
        <ele>2116.4</ele>
        <time>2021-02-27T05:41:22Z</time>
      </trkpt>
      <trkpt lat="45.11847" lon="5.89656">
        <ele>2118.2</ele>
        <time>2021-02-27T05:41:23Z</time>
      </trkpt>
      <trkpt lat="45.1185" lon="5.89661">
        <ele>2118.2</ele>
        <time>2021-02-27T05:41:24Z</time>
      </trkpt>
      <trkpt lat="45.11851" lon="5.89663">
        <ele>2118.2</ele>
        <time>2021-02-27T05:41:26Z</time>
      </trkpt>
      <trkpt lat="45.11853" lon="5.89664">
        <ele>2118.2</ele>
        <time>2021-02-27T05:41:29Z</time>
      </trkpt>
      <trkpt lat="45.11854" lon="5.89666">
        <ele>2118.2</ele>
        <time>2021-02-27T05:41:32Z</time>
      </trkpt>
      <trkpt lat="45.11855" lon="5.89668">
        <ele>2119.4</ele>
        <time>2021-02-27T05:41:33Z</time>
      </trkpt>
      <trkpt lat="45.11856" lon="5.89669">
        <ele>2119.4</ele>
        <time>2021-02-27T05:41:34Z</time>
      </trkpt>
      <trkpt lat="45.11857" lon="5.89671">
        <ele>2119.4</ele>
        <time>2021-02-27T05:41:36Z</time>
      </trkpt>
      <trkpt lat="45.1186" lon="5.89674">
        <ele>2119.4</ele>
        <time>2021-02-27T05:41:39Z</time>
      </trkpt>
      <trkpt lat="45.11861" lon="5.89676">
        <ele>2119.4</ele>
        <time>2021-02-27T05:41:41Z</time>
      </trkpt>
      <trkpt lat="45.11863" lon="5.89678">
        <ele>2121.4</ele>
        <time>2021-02-27T05:41:43Z</time>
      </trkpt>
      <trkpt lat="45.11864" lon="5.8968">
        <ele>2121.4</ele>
        <time>2021-02-27T05:41:45Z</time>
      </trkpt>
      <trkpt lat="45.11866" lon="5.89682">
        <ele>2121.4</ele>
        <time>2021-02-27T05:41:47Z</time>
      </trkpt>
      <trkpt lat="45.11868" lon="5.89684">
        <ele>2121.4</ele>
        <time>2021-02-27T05:41:49Z</time>
      </trkpt>
      <trkpt lat="45.11869" lon="5.89686">
        <ele>2121.4</ele>
        <time>2021-02-27T05:41:51Z</time>
      </trkpt>
      <trkpt lat="45.11869" lon="5.89686">
        <ele>2123.6</ele>
        <time>2021-02-27T05:41:53Z</time>
      </trkpt>
      <trkpt lat="45.11872" lon="5.8969">
        <ele>2123.6</ele>
        <time>2021-02-27T05:41:54Z</time>
      </trkpt>
      <trkpt lat="45.11873" lon="5.89692">
        <ele>2123.6</ele>
        <time>2021-02-27T05:41:56Z</time>
      </trkpt>
      <trkpt lat="45.11874" lon="5.89693">
        <ele>2123.6</ele>
        <time>2021-02-27T05:42:00Z</time>
      </trkpt>
      <trkpt lat="45.11875" lon="5.89695">
        <ele>2123.6</ele>
        <time>2021-02-27T05:42:02Z</time>
      </trkpt>
      <trkpt lat="45.11876" lon="5.89696">
        <ele>2125.2</ele>
        <time>2021-02-27T05:42:03Z</time>
      </trkpt>
      <trkpt lat="45.11877" lon="5.89698">
        <ele>2125.2</ele>
        <time>2021-02-27T05:42:04Z</time>
      </trkpt>
      <trkpt lat="45.11879" lon="5.897">
        <ele>2125.2</ele>
        <time>2021-02-27T05:42:06Z</time>
      </trkpt>
      <trkpt lat="45.11881" lon="5.89701">
        <ele>2125.2</ele>
        <time>2021-02-27T05:42:09Z</time>
      </trkpt>
      <trkpt lat="45.11883" lon="5.89703">
        <ele>2125.2</ele>
        <time>2021-02-27T05:42:11Z</time>
      </trkpt>
      <trkpt lat="45.11885" lon="5.89704">
        <ele>2127.6</ele>
        <time>2021-02-27T05:42:13Z</time>
      </trkpt>
      <trkpt lat="45.11887" lon="5.89708">
        <ele>2127.6</ele>
        <time>2021-02-27T05:42:15Z</time>
      </trkpt>
      <trkpt lat="45.11888" lon="5.89709">
        <ele>2127.6</ele>
        <time>2021-02-27T05:42:17Z</time>
      </trkpt>
      <trkpt lat="45.11889" lon="5.8971">
        <ele>2127.6</ele>
        <time>2021-02-27T05:42:20Z</time>
      </trkpt>
      <trkpt lat="45.1189" lon="5.89712">
        <ele>2127.6</ele>
        <time>2021-02-27T05:42:22Z</time>
      </trkpt>
      <trkpt lat="45.11891" lon="5.89713">
        <ele>2129.6</ele>
        <time>2021-02-27T05:42:23Z</time>
      </trkpt>
      <trkpt lat="45.11894" lon="5.89716">
        <ele>2129.6</ele>
        <time>2021-02-27T05:42:24Z</time>
      </trkpt>
      <trkpt lat="45.11895" lon="5.89718">
        <ele>2129.6</ele>
        <time>2021-02-27T05:42:26Z</time>
      </trkpt>
      <trkpt lat="45.11897" lon="5.89719">
        <ele>2129.6</ele>
        <time>2021-02-27T05:42:28Z</time>
      </trkpt>
      <trkpt lat="45.11898" lon="5.8972">
        <ele>2129.6</ele>
        <time>2021-02-27T05:42:30Z</time>
      </trkpt>
      <trkpt lat="45.119" lon="5.89721">
        <ele>2129.6</ele>
        <time>2021-02-27T05:42:32Z</time>
      </trkpt>
      <trkpt lat="45.11901" lon="5.89722">
        <ele>2132.2</ele>
        <time>2021-02-27T05:42:33Z</time>
      </trkpt>
      <trkpt lat="45.11903" lon="5.89723">
        <ele>2132.2</ele>
        <time>2021-02-27T05:42:35Z</time>
      </trkpt>
      <trkpt lat="45.11905" lon="5.89725">
        <ele>2132.2</ele>
        <time>2021-02-27T05:42:37Z</time>
      </trkpt>
      <trkpt lat="45.11907" lon="5.89727">
        <ele>2132.2</ele>
        <time>2021-02-27T05:42:39Z</time>
      </trkpt>
      <trkpt lat="45.11908" lon="5.89729">
        <ele>2132.2</ele>
        <time>2021-02-27T05:42:41Z</time>
      </trkpt>
      <trkpt lat="45.11909" lon="5.89731">
        <ele>2133.8</ele>
        <time>2021-02-27T05:42:43Z</time>
      </trkpt>
      <trkpt lat="45.11911" lon="5.89733">
        <ele>2133.8</ele>
        <time>2021-02-27T05:42:45Z</time>
      </trkpt>
      <trkpt lat="45.11914" lon="5.89735">
        <ele>2133.8</ele>
        <time>2021-02-27T05:42:48Z</time>
      </trkpt>
      <trkpt lat="45.11917" lon="5.89736">
        <ele>2133.8</ele>
        <time>2021-02-27T05:42:50Z</time>
      </trkpt>
      <trkpt lat="45.11919" lon="5.89738">
        <ele>2136.4</ele>
        <time>2021-02-27T05:42:53Z</time>
      </trkpt>
      <trkpt lat="45.11921" lon="5.89738">
        <ele>2136.4</ele>
        <time>2021-02-27T05:42:55Z</time>
      </trkpt>
      <trkpt lat="45.11923" lon="5.8974">
        <ele>2136.4</ele>
        <time>2021-02-27T05:42:57Z</time>
      </trkpt>
      <trkpt lat="45.11925" lon="5.89741">
        <ele>2136.4</ele>
        <time>2021-02-27T05:42:59Z</time>
      </trkpt>
      <trkpt lat="45.11927" lon="5.89743">
        <ele>2136.4</ele>
        <time>2021-02-27T05:43:01Z</time>
      </trkpt>
      <trkpt lat="45.11928" lon="5.89745">
        <ele>2138</ele>
        <time>2021-02-27T05:43:03Z</time>
      </trkpt>
      <trkpt lat="45.11932" lon="5.89748">
        <ele>2138</ele>
        <time>2021-02-27T05:43:06Z</time>
      </trkpt>
      <trkpt lat="45.11933" lon="5.89748">
        <ele>2138</ele>
        <time>2021-02-27T05:43:08Z</time>
      </trkpt>
      <trkpt lat="45.11934" lon="5.89749">
        <ele>2138</ele>
        <time>2021-02-27T05:43:10Z</time>
      </trkpt>
      <trkpt lat="45.11936" lon="5.8975">
        <ele>2138</ele>
        <time>2021-02-27T05:43:12Z</time>
      </trkpt>
      <trkpt lat="45.11937" lon="5.89751">
        <ele>2140</ele>
        <time>2021-02-27T05:43:13Z</time>
      </trkpt>
      <trkpt lat="45.11939" lon="5.89752">
        <ele>2140</ele>
        <time>2021-02-27T05:43:14Z</time>
      </trkpt>
      <trkpt lat="45.11941" lon="5.89753">
        <ele>2140</ele>
        <time>2021-02-27T05:43:16Z</time>
      </trkpt>
      <trkpt lat="45.11943" lon="5.89755">
        <ele>2140</ele>
        <time>2021-02-27T05:43:18Z</time>
      </trkpt>
      <trkpt lat="45.11945" lon="5.89756">
        <ele>2140</ele>
        <time>2021-02-27T05:43:20Z</time>
      </trkpt>
      <trkpt lat="45.11948" lon="5.89758">
        <ele>2141</ele>
        <time>2021-02-27T05:43:23Z</time>
      </trkpt>
      <trkpt lat="45.11951" lon="5.8976">
        <ele>2141</ele>
        <time>2021-02-27T05:43:25Z</time>
      </trkpt>
      <trkpt lat="45.11953" lon="5.89762">
        <ele>2141</ele>
        <time>2021-02-27T05:43:27Z</time>
      </trkpt>
      <trkpt lat="45.11955" lon="5.89764">
        <ele>2141</ele>
        <time>2021-02-27T05:43:29Z</time>
      </trkpt>
      <trkpt lat="45.11956" lon="5.89767">
        <ele>2141</ele>
        <time>2021-02-27T05:43:31Z</time>
      </trkpt>
      <trkpt lat="45.11958" lon="5.89769">
        <ele>2141.2</ele>
        <time>2021-02-27T05:43:33Z</time>
      </trkpt>
      <trkpt lat="45.1196" lon="5.89771">
        <ele>2141.2</ele>
        <time>2021-02-27T05:43:35Z</time>
      </trkpt>
      <trkpt lat="45.11963" lon="5.89773">
        <ele>2141.2</ele>
        <time>2021-02-27T05:43:37Z</time>
      </trkpt>
      <trkpt lat="45.11965" lon="5.89774">
        <ele>2141.2</ele>
        <time>2021-02-27T05:43:39Z</time>
      </trkpt>
      <trkpt lat="45.11967" lon="5.89776">
        <ele>2141.2</ele>
        <time>2021-02-27T05:43:41Z</time>
      </trkpt>
      <trkpt lat="45.1197" lon="5.89778">
        <ele>2141.4</ele>
        <time>2021-02-27T05:43:43Z</time>
      </trkpt>
      <trkpt lat="45.11974" lon="5.89782">
        <ele>2141.4</ele>
        <time>2021-02-27T05:43:45Z</time>
      </trkpt>
      <trkpt lat="45.11976" lon="5.89784">
        <ele>2141.4</ele>
        <time>2021-02-27T05:43:46Z</time>
      </trkpt>
      <trkpt lat="45.11977" lon="5.89785">
        <ele>2141.4</ele>
        <time>2021-02-27T05:43:47Z</time>
      </trkpt>
      <trkpt lat="45.11979" lon="5.89787">
        <ele>2141.4</ele>
        <time>2021-02-27T05:43:48Z</time>
      </trkpt>
      <trkpt lat="45.1198" lon="5.89788">
        <ele>2141.4</ele>
        <time>2021-02-27T05:43:49Z</time>
      </trkpt>
      <trkpt lat="45.11982" lon="5.89789">
        <ele>2141.4</ele>
        <time>2021-02-27T05:43:51Z</time>
      </trkpt>
      <trkpt lat="45.11983" lon="5.89791">
        <ele>2142.6</ele>
        <time>2021-02-27T05:43:53Z</time>
      </trkpt>
      <trkpt lat="45.11985" lon="5.89792">
        <ele>2142.6</ele>
        <time>2021-02-27T05:43:55Z</time>
      </trkpt>
      <trkpt lat="45.11988" lon="5.89794">
        <ele>2142.6</ele>
        <time>2021-02-27T05:43:57Z</time>
      </trkpt>
      <trkpt lat="45.11989" lon="5.89795">
        <ele>2142.6</ele>
        <time>2021-02-27T05:43:59Z</time>
      </trkpt>
      <trkpt lat="45.11991" lon="5.89797">
        <ele>2142.6</ele>
        <time>2021-02-27T05:44:01Z</time>
      </trkpt>
      <trkpt lat="45.11994" lon="5.89799">
        <ele>2143.2</ele>
        <time>2021-02-27T05:44:03Z</time>
      </trkpt>
      <trkpt lat="45.11997" lon="5.89801">
        <ele>2143.2</ele>
        <time>2021-02-27T05:44:05Z</time>
      </trkpt>
      <trkpt lat="45.11999" lon="5.89803">
        <ele>2143.2</ele>
        <time>2021-02-27T05:44:07Z</time>
      </trkpt>
      <trkpt lat="45.12001" lon="5.89804">
        <ele>2143.2</ele>
        <time>2021-02-27T05:44:09Z</time>
      </trkpt>
      <trkpt lat="45.12003" lon="5.89806">
        <ele>2143.2</ele>
        <time>2021-02-27T05:44:11Z</time>
      </trkpt>
      <trkpt lat="45.12005" lon="5.89807">
        <ele>2144</ele>
        <time>2021-02-27T05:44:13Z</time>
      </trkpt>
      <trkpt lat="45.12006" lon="5.89809">
        <ele>2144</ele>
        <time>2021-02-27T05:44:15Z</time>
      </trkpt>
      <trkpt lat="45.12009" lon="5.89811">
        <ele>2144</ele>
        <time>2021-02-27T05:44:17Z</time>
      </trkpt>
      <trkpt lat="45.1201" lon="5.89813">
        <ele>2144</ele>
        <time>2021-02-27T05:44:19Z</time>
      </trkpt>
      <trkpt lat="45.12013" lon="5.89814">
        <ele>2144</ele>
        <time>2021-02-27T05:44:21Z</time>
      </trkpt>
      <trkpt lat="45.12014" lon="5.89816">
        <ele>2145.6</ele>
        <time>2021-02-27T05:44:23Z</time>
      </trkpt>
      <trkpt lat="45.12017" lon="5.89819">
        <ele>2145.6</ele>
        <time>2021-02-27T05:44:24Z</time>
      </trkpt>
      <trkpt lat="45.12019" lon="5.89821">
        <ele>2145.6</ele>
        <time>2021-02-27T05:44:26Z</time>
      </trkpt>
      <trkpt lat="45.1202" lon="5.89823">
        <ele>2145.6</ele>
        <time>2021-02-27T05:44:28Z</time>
      </trkpt>
      <trkpt lat="45.12021" lon="5.89824">
        <ele>2145.6</ele>
        <time>2021-02-27T05:44:29Z</time>
      </trkpt>
      <trkpt lat="45.12022" lon="5.89826">
        <ele>2145.6</ele>
        <time>2021-02-27T05:44:30Z</time>
      </trkpt>
      <trkpt lat="45.12024" lon="5.89828">
        <ele>2145.6</ele>
        <time>2021-02-27T05:44:32Z</time>
      </trkpt>
      <trkpt lat="45.12025" lon="5.8983">
        <ele>2146.8</ele>
        <time>2021-02-27T05:44:33Z</time>
      </trkpt>
      <trkpt lat="45.12028" lon="5.89833">
        <ele>2146.8</ele>
        <time>2021-02-27T05:44:34Z</time>
      </trkpt>
      <trkpt lat="45.12029" lon="5.89834">
        <ele>2146.8</ele>
        <time>2021-02-27T05:44:36Z</time>
      </trkpt>
      <trkpt lat="45.12031" lon="5.89836">
        <ele>2146.8</ele>
        <time>2021-02-27T05:44:38Z</time>
      </trkpt>
      <trkpt lat="45.12032" lon="5.89838">
        <ele>2146.8</ele>
        <time>2021-02-27T05:44:40Z</time>
      </trkpt>
      <trkpt lat="45.12034" lon="5.8984">
        <ele>2146.8</ele>
        <time>2021-02-27T05:44:42Z</time>
      </trkpt>
      <trkpt lat="45.12036" lon="5.89842">
        <ele>2147</ele>
        <time>2021-02-27T05:44:43Z</time>
      </trkpt>
      <trkpt lat="45.12038" lon="5.89845">
        <ele>2147</ele>
        <time>2021-02-27T05:44:44Z</time>
      </trkpt>
      <trkpt lat="45.12039" lon="5.89848">
        <ele>2147</ele>
        <time>2021-02-27T05:44:45Z</time>
      </trkpt>
      <trkpt lat="45.1204" lon="5.8985">
        <ele>2147</ele>
        <time>2021-02-27T05:44:47Z</time>
      </trkpt>
      <trkpt lat="45.12041" lon="5.89852">
        <ele>2147</ele>
        <time>2021-02-27T05:44:48Z</time>
      </trkpt>
      <trkpt lat="45.12042" lon="5.89854">
        <ele>2147</ele>
        <time>2021-02-27T05:44:50Z</time>
      </trkpt>
      <trkpt lat="45.12043" lon="5.89857">
        <ele>2147</ele>
        <time>2021-02-27T05:44:52Z</time>
      </trkpt>
      <trkpt lat="45.12044" lon="5.89859">
        <ele>2148</ele>
        <time>2021-02-27T05:44:53Z</time>
      </trkpt>
      <trkpt lat="45.12046" lon="5.89863">
        <ele>2148</ele>
        <time>2021-02-27T05:44:54Z</time>
      </trkpt>
      <trkpt lat="45.12047" lon="5.89865">
        <ele>2148</ele>
        <time>2021-02-27T05:44:56Z</time>
      </trkpt>
      <trkpt lat="45.12047" lon="5.89868">
        <ele>2148</ele>
        <time>2021-02-27T05:44:58Z</time>
      </trkpt>
      <trkpt lat="45.12048" lon="5.89871">
        <ele>2148</ele>
        <time>2021-02-27T05:45:00Z</time>
      </trkpt>
      <trkpt lat="45.12049" lon="5.89873">
        <ele>2148</ele>
        <time>2021-02-27T05:45:02Z</time>
      </trkpt>
      <trkpt lat="45.1205" lon="5.89876">
        <ele>2149.4</ele>
        <time>2021-02-27T05:45:03Z</time>
      </trkpt>
      <trkpt lat="45.12051" lon="5.89879">
        <ele>2149.4</ele>
        <time>2021-02-27T05:45:04Z</time>
      </trkpt>
      <trkpt lat="45.12053" lon="5.89882">
        <ele>2149.4</ele>
        <time>2021-02-27T05:45:06Z</time>
      </trkpt>
      <trkpt lat="45.12054" lon="5.89884">
        <ele>2149.4</ele>
        <time>2021-02-27T05:45:08Z</time>
      </trkpt>
      <trkpt lat="45.12055" lon="5.89886">
        <ele>2149.4</ele>
        <time>2021-02-27T05:45:10Z</time>
      </trkpt>
      <trkpt lat="45.12056" lon="5.89888">
        <ele>2149.4</ele>
        <time>2021-02-27T05:45:12Z</time>
      </trkpt>
      <trkpt lat="45.12057" lon="5.89891">
        <ele>2150.4</ele>
        <time>2021-02-27T05:45:13Z</time>
      </trkpt>
      <trkpt lat="45.12059" lon="5.89894">
        <ele>2150.4</ele>
        <time>2021-02-27T05:45:14Z</time>
      </trkpt>
      <trkpt lat="45.1206" lon="5.89897">
        <ele>2150.4</ele>
        <time>2021-02-27T05:45:16Z</time>
      </trkpt>
      <trkpt lat="45.12062" lon="5.89899">
        <ele>2150.4</ele>
        <time>2021-02-27T05:45:18Z</time>
      </trkpt>
      <trkpt lat="45.12063" lon="5.89901">
        <ele>2150.4</ele>
        <time>2021-02-27T05:45:20Z</time>
      </trkpt>
      <trkpt lat="45.12064" lon="5.89903">
        <ele>2150.4</ele>
        <time>2021-02-27T05:45:22Z</time>
      </trkpt>
      <trkpt lat="45.12065" lon="5.89906">
        <ele>2151.8</ele>
        <time>2021-02-27T05:45:23Z</time>
      </trkpt>
      <trkpt lat="45.12066" lon="5.89907">
        <ele>2151.8</ele>
        <time>2021-02-27T05:45:24Z</time>
      </trkpt>
      <trkpt lat="45.12067" lon="5.8991">
        <ele>2151.8</ele>
        <time>2021-02-27T05:45:26Z</time>
      </trkpt>
      <trkpt lat="45.12069" lon="5.89913">
        <ele>2151.8</ele>
        <time>2021-02-27T05:45:28Z</time>
      </trkpt>
      <trkpt lat="45.1207" lon="5.89916">
        <ele>2151.8</ele>
        <time>2021-02-27T05:45:30Z</time>
      </trkpt>
      <trkpt lat="45.12071" lon="5.89917">
        <ele>2151.8</ele>
        <time>2021-02-27T05:45:31Z</time>
      </trkpt>
      <trkpt lat="45.12073" lon="5.8992">
        <ele>2153.2</ele>
        <time>2021-02-27T05:45:33Z</time>
      </trkpt>
      <trkpt lat="45.12075" lon="5.89923">
        <ele>2153.2</ele>
        <time>2021-02-27T05:45:35Z</time>
      </trkpt>
      <trkpt lat="45.12077" lon="5.89925">
        <ele>2153.2</ele>
        <time>2021-02-27T05:45:37Z</time>
      </trkpt>
      <trkpt lat="45.12078" lon="5.89928">
        <ele>2153.2</ele>
        <time>2021-02-27T05:45:39Z</time>
      </trkpt>
      <trkpt lat="45.1208" lon="5.89931">
        <ele>2153.2</ele>
        <time>2021-02-27T05:45:41Z</time>
      </trkpt>
      <trkpt lat="45.12082" lon="5.89934">
        <ele>2154.2</ele>
        <time>2021-02-27T05:45:43Z</time>
      </trkpt>
      <trkpt lat="45.12084" lon="5.89936">
        <ele>2154.2</ele>
        <time>2021-02-27T05:45:45Z</time>
      </trkpt>
      <trkpt lat="45.12086" lon="5.89938">
        <ele>2154.2</ele>
        <time>2021-02-27T05:45:47Z</time>
      </trkpt>
      <trkpt lat="45.12088" lon="5.89941">
        <ele>2154.2</ele>
        <time>2021-02-27T05:45:49Z</time>
      </trkpt>
      <trkpt lat="45.1209" lon="5.89943">
        <ele>2154.2</ele>
        <time>2021-02-27T05:45:51Z</time>
      </trkpt>
      <trkpt lat="45.12092" lon="5.89945">
        <ele>2155.8</ele>
        <time>2021-02-27T05:45:53Z</time>
      </trkpt>
      <trkpt lat="45.12096" lon="5.89948">
        <ele>2155.8</ele>
        <time>2021-02-27T05:45:54Z</time>
      </trkpt>
      <trkpt lat="45.12097" lon="5.89949">
        <ele>2155.8</ele>
        <time>2021-02-27T05:45:56Z</time>
      </trkpt>
      <trkpt lat="45.12099" lon="5.89951">
        <ele>2155.8</ele>
        <time>2021-02-27T05:45:58Z</time>
      </trkpt>
      <trkpt lat="45.12101" lon="5.89952">
        <ele>2155.8</ele>
        <time>2021-02-27T05:46:00Z</time>
      </trkpt>
      <trkpt lat="45.12103" lon="5.89953">
        <ele>2155.8</ele>
        <time>2021-02-27T05:46:02Z</time>
      </trkpt>
      <trkpt lat="45.12104" lon="5.89955">
        <ele>2156.6</ele>
        <time>2021-02-27T05:46:03Z</time>
      </trkpt>
      <trkpt lat="45.12108" lon="5.89957">
        <ele>2156.6</ele>
        <time>2021-02-27T05:46:04Z</time>
      </trkpt>
      <trkpt lat="45.1211" lon="5.89958">
        <ele>2156.6</ele>
        <time>2021-02-27T05:46:06Z</time>
      </trkpt>
      <trkpt lat="45.12112" lon="5.89959">
        <ele>2156.6</ele>
        <time>2021-02-27T05:46:08Z</time>
      </trkpt>
      <trkpt lat="45.12114" lon="5.8996">
        <ele>2156.6</ele>
        <time>2021-02-27T05:46:10Z</time>
      </trkpt>
      <trkpt lat="45.12116" lon="5.89961">
        <ele>2156.6</ele>
        <time>2021-02-27T05:46:12Z</time>
      </trkpt>
      <trkpt lat="45.12118" lon="5.89962">
        <ele>2157.2</ele>
        <time>2021-02-27T05:46:13Z</time>
      </trkpt>
      <trkpt lat="45.12122" lon="5.89963">
        <ele>2157.2</ele>
        <time>2021-02-27T05:46:14Z</time>
      </trkpt>
      <trkpt lat="45.12124" lon="5.89964">
        <ele>2157.2</ele>
        <time>2021-02-27T05:46:16Z</time>
      </trkpt>
      <trkpt lat="45.12126" lon="5.89965">
        <ele>2157.2</ele>
        <time>2021-02-27T05:46:18Z</time>
      </trkpt>
      <trkpt lat="45.12128" lon="5.89965">
        <ele>2157.2</ele>
        <time>2021-02-27T05:46:20Z</time>
      </trkpt>
      <trkpt lat="45.1213" lon="5.89966">
        <ele>2157.2</ele>
        <time>2021-02-27T05:46:22Z</time>
      </trkpt>
      <trkpt lat="45.12132" lon="5.89967">
        <ele>2158.4</ele>
        <time>2021-02-27T05:46:23Z</time>
      </trkpt>
      <trkpt lat="45.12133" lon="5.89967">
        <ele>2158.4</ele>
        <time>2021-02-27T05:46:24Z</time>
      </trkpt>
      <trkpt lat="45.12135" lon="5.89968">
        <ele>2158.4</ele>
        <time>2021-02-27T05:46:26Z</time>
      </trkpt>
      <trkpt lat="45.12137" lon="5.89969">
        <ele>2158.4</ele>
        <time>2021-02-27T05:46:27Z</time>
      </trkpt>
      <trkpt lat="45.1214" lon="5.89969">
        <ele>2158.4</ele>
        <time>2021-02-27T05:46:29Z</time>
      </trkpt>
      <trkpt lat="45.12143" lon="5.8997">
        <ele>2158.4</ele>
        <time>2021-02-27T05:46:31Z</time>
      </trkpt>
      <trkpt lat="45.12145" lon="5.89971">
        <ele>2159.6</ele>
        <time>2021-02-27T05:46:33Z</time>
      </trkpt>
      <trkpt lat="45.12148" lon="5.89971">
        <ele>2159.6</ele>
        <time>2021-02-27T05:46:35Z</time>
      </trkpt>
      <trkpt lat="45.1215" lon="5.89971">
        <ele>2159.6</ele>
        <time>2021-02-27T05:46:37Z</time>
      </trkpt>
      <trkpt lat="45.12153" lon="5.89971">
        <ele>2159.6</ele>
        <time>2021-02-27T05:46:39Z</time>
      </trkpt>
      <trkpt lat="45.12155" lon="5.89971">
        <ele>2159.6</ele>
        <time>2021-02-27T05:46:41Z</time>
      </trkpt>
      <trkpt lat="45.12158" lon="5.89971">
        <ele>2161.2</ele>
        <time>2021-02-27T05:46:43Z</time>
      </trkpt>
      <trkpt lat="45.1216" lon="5.89971">
        <ele>2161.2</ele>
        <time>2021-02-27T05:46:45Z</time>
      </trkpt>
      <trkpt lat="45.12162" lon="5.89971">
        <ele>2161.2</ele>
        <time>2021-02-27T05:46:47Z</time>
      </trkpt>
      <trkpt lat="45.12164" lon="5.8997">
        <ele>2161.2</ele>
        <time>2021-02-27T05:46:49Z</time>
      </trkpt>
      <trkpt lat="45.12167" lon="5.8997">
        <ele>2161.2</ele>
        <time>2021-02-27T05:46:51Z</time>
      </trkpt>
      <trkpt lat="45.12169" lon="5.8997">
        <ele>2162</ele>
        <time>2021-02-27T05:46:53Z</time>
      </trkpt>
      <trkpt lat="45.12171" lon="5.8997">
        <ele>2162</ele>
        <time>2021-02-27T05:46:55Z</time>
      </trkpt>
      <trkpt lat="45.12173" lon="5.89969">
        <ele>2162</ele>
        <time>2021-02-27T05:46:57Z</time>
      </trkpt>
      <trkpt lat="45.12177" lon="5.8997">
        <ele>2162</ele>
        <time>2021-02-27T05:46:59Z</time>
      </trkpt>
      <trkpt lat="45.12179" lon="5.89971">
        <ele>2162</ele>
        <time>2021-02-27T05:47:01Z</time>
      </trkpt>
      <trkpt lat="45.12182" lon="5.89971">
        <ele>2164</ele>
        <time>2021-02-27T05:47:03Z</time>
      </trkpt>
      <trkpt lat="45.12184" lon="5.89971">
        <ele>2164</ele>
        <time>2021-02-27T05:47:05Z</time>
      </trkpt>
      <trkpt lat="45.12186" lon="5.89971">
        <ele>2164</ele>
        <time>2021-02-27T05:47:07Z</time>
      </trkpt>
      <trkpt lat="45.12189" lon="5.89971">
        <ele>2164</ele>
        <time>2021-02-27T05:47:09Z</time>
      </trkpt>
      <trkpt lat="45.12191" lon="5.89972">
        <ele>2164</ele>
        <time>2021-02-27T05:47:11Z</time>
      </trkpt>
      <trkpt lat="45.12193" lon="5.89972">
        <ele>2166</ele>
        <time>2021-02-27T05:47:13Z</time>
      </trkpt>
      <trkpt lat="45.12195" lon="5.89972">
        <ele>2166</ele>
        <time>2021-02-27T05:47:15Z</time>
      </trkpt>
      <trkpt lat="45.12197" lon="5.89973">
        <ele>2166</ele>
        <time>2021-02-27T05:47:17Z</time>
      </trkpt>
      <trkpt lat="45.12199" lon="5.89973">
        <ele>2166</ele>
        <time>2021-02-27T05:47:19Z</time>
      </trkpt>
      <trkpt lat="45.12202" lon="5.89974">
        <ele>2166</ele>
        <time>2021-02-27T05:47:21Z</time>
      </trkpt>
      <trkpt lat="45.12204" lon="5.89974">
        <ele>2167.8</ele>
        <time>2021-02-27T05:47:23Z</time>
      </trkpt>
      <trkpt lat="45.12207" lon="5.89975">
        <ele>2167.8</ele>
        <time>2021-02-27T05:47:25Z</time>
      </trkpt>
      <trkpt lat="45.12209" lon="5.89975">
        <ele>2167.8</ele>
        <time>2021-02-27T05:47:27Z</time>
      </trkpt>
      <trkpt lat="45.12211" lon="5.89976">
        <ele>2167.8</ele>
        <time>2021-02-27T05:47:29Z</time>
      </trkpt>
      <trkpt lat="45.12213" lon="5.89976">
        <ele>2167.8</ele>
        <time>2021-02-27T05:47:31Z</time>
      </trkpt>
      <trkpt lat="45.12215" lon="5.89978">
        <ele>2169.8</ele>
        <time>2021-02-27T05:47:33Z</time>
      </trkpt>
      <trkpt lat="45.12217" lon="5.89979">
        <ele>2169.8</ele>
        <time>2021-02-27T05:47:36Z</time>
      </trkpt>
      <trkpt lat="45.12219" lon="5.8998">
        <ele>2169.8</ele>
        <time>2021-02-27T05:47:39Z</time>
      </trkpt>
      <trkpt lat="45.12221" lon="5.89981">
        <ele>2169.8</ele>
        <time>2021-02-27T05:47:41Z</time>
      </trkpt>
      <trkpt lat="45.12221" lon="5.89981">
        <ele>2171.8</ele>
        <time>2021-02-27T05:47:43Z</time>
      </trkpt>
      <trkpt lat="45.12224" lon="5.89982">
        <ele>2171.8</ele>
        <time>2021-02-27T05:47:44Z</time>
      </trkpt>
      <trkpt lat="45.12226" lon="5.89983">
        <ele>2171.8</ele>
        <time>2021-02-27T05:47:46Z</time>
      </trkpt>
      <trkpt lat="45.12228" lon="5.89984">
        <ele>2171.8</ele>
        <time>2021-02-27T05:47:49Z</time>
      </trkpt>
      <trkpt lat="45.12231" lon="5.89985">
        <ele>2174.6</ele>
        <time>2021-02-27T05:47:53Z</time>
      </trkpt>
      <trkpt lat="45.12233" lon="5.89987">
        <ele>2174.6</ele>
        <time>2021-02-27T05:47:56Z</time>
      </trkpt>
      <trkpt lat="45.12235" lon="5.89988">
        <ele>2174.6</ele>
        <time>2021-02-27T05:47:58Z</time>
      </trkpt>
      <trkpt lat="45.12237" lon="5.8999">
        <ele>2174.6</ele>
        <time>2021-02-27T05:48:01Z</time>
      </trkpt>
      <trkpt lat="45.12237" lon="5.8999">
        <ele>2178.2</ele>
        <time>2021-02-27T05:48:03Z</time>
      </trkpt>
      <trkpt lat="45.12241" lon="5.89992">
        <ele>2178.2</ele>
        <time>2021-02-27T05:48:04Z</time>
      </trkpt>
      <trkpt lat="45.12242" lon="5.89992">
        <ele>2178.2</ele>
        <time>2021-02-27T05:48:07Z</time>
      </trkpt>
      <trkpt lat="45.12243" lon="5.89993">
        <ele>2178.2</ele>
        <time>2021-02-27T05:48:09Z</time>
      </trkpt>
      <trkpt lat="45.12245" lon="5.89994">
        <ele>2178.2</ele>
        <time>2021-02-27T05:48:12Z</time>
      </trkpt>
      <trkpt lat="45.12246" lon="5.89995">
        <ele>2180.8</ele>
        <time>2021-02-27T05:48:13Z</time>
      </trkpt>
      <trkpt lat="45.12248" lon="5.89996">
        <ele>2180.8</ele>
        <time>2021-02-27T05:48:14Z</time>
      </trkpt>
      <trkpt lat="45.12251" lon="5.89998">
        <ele>2180.8</ele>
        <time>2021-02-27T05:48:17Z</time>
      </trkpt>
      <trkpt lat="45.12253" lon="5.89999">
        <ele>2180.8</ele>
        <time>2021-02-27T05:48:19Z</time>
      </trkpt>
      <trkpt lat="45.12254" lon="5.9">
        <ele>2180.8</ele>
        <time>2021-02-27T05:48:21Z</time>
      </trkpt>
      <trkpt lat="45.12256" lon="5.90002">
        <ele>2183.4</ele>
        <time>2021-02-27T05:48:23Z</time>
      </trkpt>
      <trkpt lat="45.12258" lon="5.90003">
        <ele>2183.4</ele>
        <time>2021-02-27T05:48:25Z</time>
      </trkpt>
      <trkpt lat="45.1226" lon="5.90005">
        <ele>2183.4</ele>
        <time>2021-02-27T05:48:27Z</time>
      </trkpt>
      <trkpt lat="45.12261" lon="5.90007">
        <ele>2183.4</ele>
        <time>2021-02-27T05:48:29Z</time>
      </trkpt>
      <trkpt lat="45.12263" lon="5.90009">
        <ele>2183.4</ele>
        <time>2021-02-27T05:48:31Z</time>
      </trkpt>
      <trkpt lat="45.12265" lon="5.9001">
        <ele>2185.4</ele>
        <time>2021-02-27T05:48:33Z</time>
      </trkpt>
      <trkpt lat="45.12267" lon="5.90012">
        <ele>2185.4</ele>
        <time>2021-02-27T05:48:35Z</time>
      </trkpt>
      <trkpt lat="45.12268" lon="5.90014">
        <ele>2185.4</ele>
        <time>2021-02-27T05:48:37Z</time>
      </trkpt>
      <trkpt lat="45.1227" lon="5.90015">
        <ele>2185.4</ele>
        <time>2021-02-27T05:48:39Z</time>
      </trkpt>
      <trkpt lat="45.12272" lon="5.90017">
        <ele>2185.4</ele>
        <time>2021-02-27T05:48:41Z</time>
      </trkpt>
      <trkpt lat="45.12272" lon="5.90017">
        <ele>2187.6</ele>
        <time>2021-02-27T05:48:43Z</time>
      </trkpt>
      <trkpt lat="45.12275" lon="5.90019">
        <ele>2187.6</ele>
        <time>2021-02-27T05:48:44Z</time>
      </trkpt>
      <trkpt lat="45.12276" lon="5.90021">
        <ele>2187.6</ele>
        <time>2021-02-27T05:48:46Z</time>
      </trkpt>
      <trkpt lat="45.12278" lon="5.90023">
        <ele>2187.6</ele>
        <time>2021-02-27T05:48:48Z</time>
      </trkpt>
      <trkpt lat="45.12281" lon="5.90025">
        <ele>2187.6</ele>
        <time>2021-02-27T05:48:51Z</time>
      </trkpt>
      <trkpt lat="45.12283" lon="5.90027">
        <ele>2189.2</ele>
        <time>2021-02-27T05:48:53Z</time>
      </trkpt>
      <trkpt lat="45.12284" lon="5.90029">
        <ele>2189.2</ele>
        <time>2021-02-27T05:48:55Z</time>
      </trkpt>
      <trkpt lat="45.12286" lon="5.9003">
        <ele>2189.2</ele>
        <time>2021-02-27T05:48:56Z</time>
      </trkpt>
      <trkpt lat="45.12288" lon="5.90033">
        <ele>2189.2</ele>
        <time>2021-02-27T05:48:59Z</time>
      </trkpt>
      <trkpt lat="45.1229" lon="5.90034">
        <ele>2189.2</ele>
        <time>2021-02-27T05:49:01Z</time>
      </trkpt>
      <trkpt lat="45.12292" lon="5.90036">
        <ele>2191.2</ele>
        <time>2021-02-27T05:49:03Z</time>
      </trkpt>
      <trkpt lat="45.12293" lon="5.90038">
        <ele>2191.2</ele>
        <time>2021-02-27T05:49:05Z</time>
      </trkpt>
      <trkpt lat="45.12295" lon="5.9004">
        <ele>2191.2</ele>
        <time>2021-02-27T05:49:07Z</time>
      </trkpt>
      <trkpt lat="45.12297" lon="5.90041">
        <ele>2191.2</ele>
        <time>2021-02-27T05:49:09Z</time>
      </trkpt>
      <trkpt lat="45.12299" lon="5.90043">
        <ele>2191.2</ele>
        <time>2021-02-27T05:49:11Z</time>
      </trkpt>
      <trkpt lat="45.12301" lon="5.90045">
        <ele>2192.6</ele>
        <time>2021-02-27T05:49:13Z</time>
      </trkpt>
      <trkpt lat="45.12304" lon="5.90049">
        <ele>2192.6</ele>
        <time>2021-02-27T05:49:15Z</time>
      </trkpt>
      <trkpt lat="45.12305" lon="5.9005">
        <ele>2192.6</ele>
        <time>2021-02-27T05:49:16Z</time>
      </trkpt>
      <trkpt lat="45.12306" lon="5.90051">
        <ele>2192.6</ele>
        <time>2021-02-27T05:49:18Z</time>
      </trkpt>
      <trkpt lat="45.12307" lon="5.90053">
        <ele>2192.6</ele>
        <time>2021-02-27T05:49:20Z</time>
      </trkpt>
      <trkpt lat="45.12309" lon="5.90054">
        <ele>2192.6</ele>
        <time>2021-02-27T05:49:22Z</time>
      </trkpt>
      <trkpt lat="45.1231" lon="5.90055">
        <ele>2194.8</ele>
        <time>2021-02-27T05:49:23Z</time>
      </trkpt>
      <trkpt lat="45.12312" lon="5.90058">
        <ele>2194.8</ele>
        <time>2021-02-27T05:49:24Z</time>
      </trkpt>
      <trkpt lat="45.12314" lon="5.90059">
        <ele>2194.8</ele>
        <time>2021-02-27T05:49:26Z</time>
      </trkpt>
      <trkpt lat="45.12315" lon="5.90061">
        <ele>2194.8</ele>
        <time>2021-02-27T05:49:28Z</time>
      </trkpt>
      <trkpt lat="45.12317" lon="5.90062">
        <ele>2194.8</ele>
        <time>2021-02-27T05:49:30Z</time>
      </trkpt>
      <trkpt lat="45.12318" lon="5.90064">
        <ele>2194.8</ele>
        <time>2021-02-27T05:49:32Z</time>
      </trkpt>
      <trkpt lat="45.1232" lon="5.90065">
        <ele>2196.2</ele>
        <time>2021-02-27T05:49:33Z</time>
      </trkpt>
      <trkpt lat="45.12322" lon="5.90068">
        <ele>2196.2</ele>
        <time>2021-02-27T05:49:34Z</time>
      </trkpt>
      <trkpt lat="45.12323" lon="5.90069">
        <ele>2196.2</ele>
        <time>2021-02-27T05:49:36Z</time>
      </trkpt>
      <trkpt lat="45.12325" lon="5.90071">
        <ele>2196.2</ele>
        <time>2021-02-27T05:49:38Z</time>
      </trkpt>
      <trkpt lat="45.12327" lon="5.90072">
        <ele>2196.2</ele>
        <time>2021-02-27T05:49:40Z</time>
      </trkpt>
      <trkpt lat="45.12328" lon="5.90074">
        <ele>2196.2</ele>
        <time>2021-02-27T05:49:42Z</time>
      </trkpt>
      <trkpt lat="45.1233" lon="5.90075">
        <ele>2198</ele>
        <time>2021-02-27T05:49:43Z</time>
      </trkpt>
      <trkpt lat="45.12332" lon="5.90077">
        <ele>2198</ele>
        <time>2021-02-27T05:49:44Z</time>
      </trkpt>
      <trkpt lat="45.12333" lon="5.90078">
        <ele>2198</ele>
        <time>2021-02-27T05:49:46Z</time>
      </trkpt>
      <trkpt lat="45.12334" lon="5.9008">
        <ele>2198</ele>
        <time>2021-02-27T05:49:48Z</time>
      </trkpt>
      <trkpt lat="45.12335" lon="5.90081">
        <ele>2198</ele>
        <time>2021-02-27T05:49:50Z</time>
      </trkpt>
      <trkpt lat="45.12336" lon="5.90082">
        <ele>2198</ele>
        <time>2021-02-27T05:49:52Z</time>
      </trkpt>
      <trkpt lat="45.12337" lon="5.90083">
        <ele>2200.2</ele>
        <time>2021-02-27T05:49:53Z</time>
      </trkpt>
      <trkpt lat="45.1234" lon="5.90086">
        <ele>2200.2</ele>
        <time>2021-02-27T05:49:54Z</time>
      </trkpt>
      <trkpt lat="45.12341" lon="5.90088">
        <ele>2200.2</ele>
        <time>2021-02-27T05:49:56Z</time>
      </trkpt>
      <trkpt lat="45.12343" lon="5.90089">
        <ele>2200.2</ele>
        <time>2021-02-27T05:49:58Z</time>
      </trkpt>
      <trkpt lat="45.12344" lon="5.90091">
        <ele>2200.2</ele>
        <time>2021-02-27T05:50:00Z</time>
      </trkpt>
      <trkpt lat="45.12346" lon="5.90092">
        <ele>2200.2</ele>
        <time>2021-02-27T05:50:02Z</time>
      </trkpt>
      <trkpt lat="45.12347" lon="5.90093">
        <ele>2201.6</ele>
        <time>2021-02-27T05:50:03Z</time>
      </trkpt>
      <trkpt lat="45.12348" lon="5.90095">
        <ele>2201.6</ele>
        <time>2021-02-27T05:50:04Z</time>
      </trkpt>
      <trkpt lat="45.12349" lon="5.90097">
        <ele>2201.6</ele>
        <time>2021-02-27T05:50:06Z</time>
      </trkpt>
      <trkpt lat="45.12352" lon="5.90099">
        <ele>2201.6</ele>
        <time>2021-02-27T05:50:09Z</time>
      </trkpt>
      <trkpt lat="45.12354" lon="5.90101">
        <ele>2201.6</ele>
        <time>2021-02-27T05:50:11Z</time>
      </trkpt>
      <trkpt lat="45.12356" lon="5.90103">
        <ele>2203.6</ele>
        <time>2021-02-27T05:50:13Z</time>
      </trkpt>
      <trkpt lat="45.12359" lon="5.90105">
        <ele>2203.6</ele>
        <time>2021-02-27T05:50:15Z</time>
      </trkpt>
      <trkpt lat="45.1236" lon="5.90107">
        <ele>2203.6</ele>
        <time>2021-02-27T05:50:17Z</time>
      </trkpt>
      <trkpt lat="45.12361" lon="5.90108">
        <ele>2203.6</ele>
        <time>2021-02-27T05:50:19Z</time>
      </trkpt>
      <trkpt lat="45.12363" lon="5.90109">
        <ele>2203.6</ele>
        <time>2021-02-27T05:50:22Z</time>
      </trkpt>
      <trkpt lat="45.12364" lon="5.9011">
        <ele>2205.6</ele>
        <time>2021-02-27T05:50:23Z</time>
      </trkpt>
      <trkpt lat="45.12367" lon="5.90113">
        <ele>2205.6</ele>
        <time>2021-02-27T05:50:24Z</time>
      </trkpt>
      <trkpt lat="45.12369" lon="5.90114">
        <ele>2205.6</ele>
        <time>2021-02-27T05:50:26Z</time>
      </trkpt>
      <trkpt lat="45.1237" lon="5.90116">
        <ele>2205.6</ele>
        <time>2021-02-27T05:50:28Z</time>
      </trkpt>
      <trkpt lat="45.12371" lon="5.90117">
        <ele>2205.6</ele>
        <time>2021-02-27T05:50:30Z</time>
      </trkpt>
      <trkpt lat="45.12373" lon="5.90118">
        <ele>2205.6</ele>
        <time>2021-02-27T05:50:32Z</time>
      </trkpt>
      <trkpt lat="45.12374" lon="5.9012">
        <ele>2207.6</ele>
        <time>2021-02-27T05:50:33Z</time>
      </trkpt>
      <trkpt lat="45.12376" lon="5.90122">
        <ele>2207.6</ele>
        <time>2021-02-27T05:50:34Z</time>
      </trkpt>
      <trkpt lat="45.12377" lon="5.90124">
        <ele>2207.6</ele>
        <time>2021-02-27T05:50:36Z</time>
      </trkpt>
      <trkpt lat="45.12378" lon="5.90125">
        <ele>2207.6</ele>
        <time>2021-02-27T05:50:38Z</time>
      </trkpt>
      <trkpt lat="45.1238" lon="5.90126">
        <ele>2207.6</ele>
        <time>2021-02-27T05:50:40Z</time>
      </trkpt>
      <trkpt lat="45.12381" lon="5.90128">
        <ele>2207.6</ele>
        <time>2021-02-27T05:50:42Z</time>
      </trkpt>
      <trkpt lat="45.12382" lon="5.90129">
        <ele>2209.8</ele>
        <time>2021-02-27T05:50:43Z</time>
      </trkpt>
      <trkpt lat="45.12383" lon="5.9013">
        <ele>2209.8</ele>
        <time>2021-02-27T05:50:44Z</time>
      </trkpt>
      <trkpt lat="45.12385" lon="5.90132">
        <ele>2209.8</ele>
        <time>2021-02-27T05:50:46Z</time>
      </trkpt>
      <trkpt lat="45.12388" lon="5.90135">
        <ele>2209.8</ele>
        <time>2021-02-27T05:50:49Z</time>
      </trkpt>
      <trkpt lat="45.1239" lon="5.90137">
        <ele>2209.8</ele>
        <time>2021-02-27T05:50:51Z</time>
      </trkpt>
      <trkpt lat="45.12392" lon="5.90139">
        <ele>2212.6</ele>
        <time>2021-02-27T05:50:53Z</time>
      </trkpt>
      <trkpt lat="45.12394" lon="5.90142">
        <ele>2212.6</ele>
        <time>2021-02-27T05:50:55Z</time>
      </trkpt>
      <trkpt lat="45.12396" lon="5.90144">
        <ele>2212.6</ele>
        <time>2021-02-27T05:50:57Z</time>
      </trkpt>
      <trkpt lat="45.12397" lon="5.90145">
        <ele>2212.6</ele>
        <time>2021-02-27T05:50:59Z</time>
      </trkpt>
      <trkpt lat="45.12398" lon="5.90146">
        <ele>2212.6</ele>
        <time>2021-02-27T05:51:02Z</time>
      </trkpt>
      <trkpt lat="45.12399" lon="5.90147">
        <ele>2214.4</ele>
        <time>2021-02-27T05:51:03Z</time>
      </trkpt>
      <trkpt lat="45.12402" lon="5.90152">
        <ele>2214.4</ele>
        <time>2021-02-27T05:51:05Z</time>
      </trkpt>
      <trkpt lat="45.12403" lon="5.90153">
        <ele>2214.4</ele>
        <time>2021-02-27T05:51:08Z</time>
      </trkpt>
      <trkpt lat="45.12404" lon="5.90154">
        <ele>2214.4</ele>
        <time>2021-02-27T05:51:10Z</time>
      </trkpt>
      <trkpt lat="45.12405" lon="5.90156">
        <ele>2214.4</ele>
        <time>2021-02-27T05:51:12Z</time>
      </trkpt>
      <trkpt lat="45.12406" lon="5.90157">
        <ele>2217</ele>
        <time>2021-02-27T05:51:13Z</time>
      </trkpt>
      <trkpt lat="45.1241" lon="5.90161">
        <ele>2217</ele>
        <time>2021-02-27T05:51:14Z</time>
      </trkpt>
      <trkpt lat="45.12411" lon="5.90163">
        <ele>2217</ele>
        <time>2021-02-27T05:51:16Z</time>
      </trkpt>
      <trkpt lat="45.12413" lon="5.90164">
        <ele>2217</ele>
        <time>2021-02-27T05:51:18Z</time>
      </trkpt>
      <trkpt lat="45.12414" lon="5.90166">
        <ele>2217</ele>
        <time>2021-02-27T05:51:20Z</time>
      </trkpt>
      <trkpt lat="45.12416" lon="5.90168">
        <ele>2217</ele>
        <time>2021-02-27T05:51:22Z</time>
      </trkpt>
      <trkpt lat="45.12417" lon="5.9017">
        <ele>2218</ele>
        <time>2021-02-27T05:51:23Z</time>
      </trkpt>
      <trkpt lat="45.1242" lon="5.90173">
        <ele>2218</ele>
        <time>2021-02-27T05:51:24Z</time>
      </trkpt>
      <trkpt lat="45.12421" lon="5.90174">
        <ele>2218</ele>
        <time>2021-02-27T05:51:26Z</time>
      </trkpt>
      <trkpt lat="45.12422" lon="5.90176">
        <ele>2218</ele>
        <time>2021-02-27T05:51:28Z</time>
      </trkpt>
      <trkpt lat="45.12424" lon="5.90178">
        <ele>2218</ele>
        <time>2021-02-27T05:51:30Z</time>
      </trkpt>
      <trkpt lat="45.12425" lon="5.9018">
        <ele>2218</ele>
        <time>2021-02-27T05:51:32Z</time>
      </trkpt>
      <trkpt lat="45.12426" lon="5.90181">
        <ele>2219.6</ele>
        <time>2021-02-27T05:51:33Z</time>
      </trkpt>
      <trkpt lat="45.12428" lon="5.90184">
        <ele>2219.6</ele>
        <time>2021-02-27T05:51:34Z</time>
      </trkpt>
      <trkpt lat="45.1243" lon="5.90186">
        <ele>2219.6</ele>
        <time>2021-02-27T05:51:36Z</time>
      </trkpt>
      <trkpt lat="45.12431" lon="5.90187">
        <ele>2219.6</ele>
        <time>2021-02-27T05:51:38Z</time>
      </trkpt>
      <trkpt lat="45.12432" lon="5.90189">
        <ele>2219.6</ele>
        <time>2021-02-27T05:51:40Z</time>
      </trkpt>
      <trkpt lat="45.12433" lon="5.9019">
        <ele>2219.6</ele>
        <time>2021-02-27T05:51:42Z</time>
      </trkpt>
      <trkpt lat="45.12435" lon="5.90192">
        <ele>2221.2</ele>
        <time>2021-02-27T05:51:43Z</time>
      </trkpt>
      <trkpt lat="45.12436" lon="5.90194">
        <ele>2221.2</ele>
        <time>2021-02-27T05:51:44Z</time>
      </trkpt>
      <trkpt lat="45.12437" lon="5.90196">
        <ele>2221.2</ele>
        <time>2021-02-27T05:51:46Z</time>
      </trkpt>
      <trkpt lat="45.12438" lon="5.90197">
        <ele>2221.2</ele>
        <time>2021-02-27T05:51:48Z</time>
      </trkpt>
      <trkpt lat="45.12439" lon="5.90199">
        <ele>2221.2</ele>
        <time>2021-02-27T05:51:50Z</time>
      </trkpt>
      <trkpt lat="45.1244" lon="5.902">
        <ele>2221.2</ele>
        <time>2021-02-27T05:51:52Z</time>
      </trkpt>
      <trkpt lat="45.12441" lon="5.90202">
        <ele>2223</ele>
        <time>2021-02-27T05:51:53Z</time>
      </trkpt>
      <trkpt lat="45.12442" lon="5.90204">
        <ele>2223</ele>
        <time>2021-02-27T05:51:54Z</time>
      </trkpt>
      <trkpt lat="45.12444" lon="5.90206">
        <ele>2223</ele>
        <time>2021-02-27T05:51:56Z</time>
      </trkpt>
      <trkpt lat="45.12445" lon="5.90209">
        <ele>2223</ele>
        <time>2021-02-27T05:51:58Z</time>
      </trkpt>
      <trkpt lat="45.12447" lon="5.90212">
        <ele>2223</ele>
        <time>2021-02-27T05:52:01Z</time>
      </trkpt>
      <trkpt lat="45.12449" lon="5.90215">
        <ele>2225.4</ele>
        <time>2021-02-27T05:52:03Z</time>
      </trkpt>
      <trkpt lat="45.12451" lon="5.90217">
        <ele>2225.4</ele>
        <time>2021-02-27T05:52:05Z</time>
      </trkpt>
      <trkpt lat="45.12452" lon="5.90219">
        <ele>2225.4</ele>
        <time>2021-02-27T05:52:07Z</time>
      </trkpt>
      <trkpt lat="45.12454" lon="5.90222">
        <ele>2225.4</ele>
        <time>2021-02-27T05:52:09Z</time>
      </trkpt>
      <trkpt lat="45.12456" lon="5.90224">
        <ele>2225.4</ele>
        <time>2021-02-27T05:52:11Z</time>
      </trkpt>
      <trkpt lat="45.12458" lon="5.90226">
        <ele>2227</ele>
        <time>2021-02-27T05:52:13Z</time>
      </trkpt>
      <trkpt lat="45.12459" lon="5.90228">
        <ele>2227</ele>
        <time>2021-02-27T05:52:15Z</time>
      </trkpt>
      <trkpt lat="45.12461" lon="5.9023">
        <ele>2227</ele>
        <time>2021-02-27T05:52:17Z</time>
      </trkpt>
      <trkpt lat="45.12462" lon="5.90233">
        <ele>2227</ele>
        <time>2021-02-27T05:52:19Z</time>
      </trkpt>
      <trkpt lat="45.12463" lon="5.90235">
        <ele>2227</ele>
        <time>2021-02-27T05:52:21Z</time>
      </trkpt>
      <trkpt lat="45.12465" lon="5.90237">
        <ele>2229</ele>
        <time>2021-02-27T05:52:23Z</time>
      </trkpt>
      <trkpt lat="45.12466" lon="5.90239">
        <ele>2229</ele>
        <time>2021-02-27T05:52:25Z</time>
      </trkpt>
      <trkpt lat="45.12468" lon="5.90241">
        <ele>2229</ele>
        <time>2021-02-27T05:52:27Z</time>
      </trkpt>
      <trkpt lat="45.12469" lon="5.90243">
        <ele>2229</ele>
        <time>2021-02-27T05:52:29Z</time>
      </trkpt>
      <trkpt lat="45.12471" lon="5.90246">
        <ele>2229</ele>
        <time>2021-02-27T05:52:31Z</time>
      </trkpt>
      <trkpt lat="45.12473" lon="5.90248">
        <ele>2231.2</ele>
        <time>2021-02-27T05:52:33Z</time>
      </trkpt>
      <trkpt lat="45.12475" lon="5.90251">
        <ele>2231.2</ele>
        <time>2021-02-27T05:52:35Z</time>
      </trkpt>
      <trkpt lat="45.12476" lon="5.90254">
        <ele>2231.2</ele>
        <time>2021-02-27T05:52:37Z</time>
      </trkpt>
      <trkpt lat="45.12477" lon="5.90256">
        <ele>2231.2</ele>
        <time>2021-02-27T05:52:39Z</time>
      </trkpt>
      <trkpt lat="45.12479" lon="5.90259">
        <ele>2231.2</ele>
        <time>2021-02-27T05:52:41Z</time>
      </trkpt>
      <trkpt lat="45.1248" lon="5.90261">
        <ele>2232.8</ele>
        <time>2021-02-27T05:52:43Z</time>
      </trkpt>
      <trkpt lat="45.12481" lon="5.90264">
        <ele>2232.8</ele>
        <time>2021-02-27T05:52:45Z</time>
      </trkpt>
      <trkpt lat="45.12482" lon="5.90267">
        <ele>2232.8</ele>
        <time>2021-02-27T05:52:47Z</time>
      </trkpt>
      <trkpt lat="45.12484" lon="5.90269">
        <ele>2232.8</ele>
        <time>2021-02-27T05:52:49Z</time>
      </trkpt>
      <trkpt lat="45.12485" lon="5.90272">
        <ele>2232.8</ele>
        <time>2021-02-27T05:52:51Z</time>
      </trkpt>
      <trkpt lat="45.12487" lon="5.90275">
        <ele>2234.8</ele>
        <time>2021-02-27T05:52:53Z</time>
      </trkpt>
      <trkpt lat="45.12487" lon="5.90277">
        <ele>2234.8</ele>
        <time>2021-02-27T05:52:55Z</time>
      </trkpt>
      <trkpt lat="45.12489" lon="5.9028">
        <ele>2234.8</ele>
        <time>2021-02-27T05:52:57Z</time>
      </trkpt>
      <trkpt lat="45.12491" lon="5.90283">
        <ele>2234.8</ele>
        <time>2021-02-27T05:52:59Z</time>
      </trkpt>
      <trkpt lat="45.12492" lon="5.90285">
        <ele>2234.8</ele>
        <time>2021-02-27T05:53:01Z</time>
      </trkpt>
      <trkpt lat="45.12493" lon="5.90288">
        <ele>2237.2</ele>
        <time>2021-02-27T05:53:03Z</time>
      </trkpt>
      <trkpt lat="45.12496" lon="5.90292">
        <ele>2237.2</ele>
        <time>2021-02-27T05:53:05Z</time>
      </trkpt>
      <trkpt lat="45.12497" lon="5.90294">
        <ele>2237.2</ele>
        <time>2021-02-27T05:53:07Z</time>
      </trkpt>
      <trkpt lat="45.12498" lon="5.90296">
        <ele>2237.2</ele>
        <time>2021-02-27T05:53:09Z</time>
      </trkpt>
      <trkpt lat="45.12499" lon="5.90298">
        <ele>2237.2</ele>
        <time>2021-02-27T05:53:12Z</time>
      </trkpt>
      <trkpt lat="45.12501" lon="5.903">
        <ele>2238.6</ele>
        <time>2021-02-27T05:53:13Z</time>
      </trkpt>
      <trkpt lat="45.12503" lon="5.90303">
        <ele>2238.6</ele>
        <time>2021-02-27T05:53:14Z</time>
      </trkpt>
      <trkpt lat="45.12504" lon="5.90305">
        <ele>2238.6</ele>
        <time>2021-02-27T05:53:16Z</time>
      </trkpt>
      <trkpt lat="45.12505" lon="5.90306">
        <ele>2238.6</ele>
        <time>2021-02-27T05:53:18Z</time>
      </trkpt>
      <trkpt lat="45.12506" lon="5.90308">
        <ele>2238.6</ele>
        <time>2021-02-27T05:53:20Z</time>
      </trkpt>
      <trkpt lat="45.12508" lon="5.90309">
        <ele>2238.6</ele>
        <time>2021-02-27T05:53:22Z</time>
      </trkpt>
      <trkpt lat="45.12509" lon="5.90311">
        <ele>2240.6</ele>
        <time>2021-02-27T05:53:23Z</time>
      </trkpt>
      <trkpt lat="45.12511" lon="5.90314">
        <ele>2240.6</ele>
        <time>2021-02-27T05:53:24Z</time>
      </trkpt>
      <trkpt lat="45.12512" lon="5.90316">
        <ele>2240.6</ele>
        <time>2021-02-27T05:53:26Z</time>
      </trkpt>
      <trkpt lat="45.12513" lon="5.90317">
        <ele>2240.6</ele>
        <time>2021-02-27T05:53:28Z</time>
      </trkpt>
      <trkpt lat="45.12514" lon="5.90319">
        <ele>2240.6</ele>
        <time>2021-02-27T05:53:30Z</time>
      </trkpt>
      <trkpt lat="45.12515" lon="5.90321">
        <ele>2240.6</ele>
        <time>2021-02-27T05:53:32Z</time>
      </trkpt>
      <trkpt lat="45.12516" lon="5.90323">
        <ele>2242.8</ele>
        <time>2021-02-27T05:53:33Z</time>
      </trkpt>
      <trkpt lat="45.12517" lon="5.90324">
        <ele>2242.8</ele>
        <time>2021-02-27T05:53:34Z</time>
      </trkpt>
      <trkpt lat="45.12518" lon="5.90327">
        <ele>2242.8</ele>
        <time>2021-02-27T05:53:37Z</time>
      </trkpt>
      <trkpt lat="45.1252" lon="5.90328">
        <ele>2242.8</ele>
        <time>2021-02-27T05:53:39Z</time>
      </trkpt>
      <trkpt lat="45.12522" lon="5.9033">
        <ele>2242.8</ele>
        <time>2021-02-27T05:53:41Z</time>
      </trkpt>
      <trkpt lat="45.12524" lon="5.90332">
        <ele>2245.4</ele>
        <time>2021-02-27T05:53:43Z</time>
      </trkpt>
      <trkpt lat="45.12525" lon="5.90334">
        <ele>2245.4</ele>
        <time>2021-02-27T05:53:45Z</time>
      </trkpt>
      <trkpt lat="45.12527" lon="5.90336">
        <ele>2245.4</ele>
        <time>2021-02-27T05:53:47Z</time>
      </trkpt>
      <trkpt lat="45.12529" lon="5.90339">
        <ele>2245.4</ele>
        <time>2021-02-27T05:53:49Z</time>
      </trkpt>
      <trkpt lat="45.12531" lon="5.9034">
        <ele>2245.4</ele>
        <time>2021-02-27T05:53:51Z</time>
      </trkpt>
      <trkpt lat="45.12533" lon="5.90342">
        <ele>2248</ele>
        <time>2021-02-27T05:53:53Z</time>
      </trkpt>
      <trkpt lat="45.12535" lon="5.90344">
        <ele>2248</ele>
        <time>2021-02-27T05:53:55Z</time>
      </trkpt>
      <trkpt lat="45.12537" lon="5.90345">
        <ele>2248</ele>
        <time>2021-02-27T05:53:57Z</time>
      </trkpt>
      <trkpt lat="45.12539" lon="5.90347">
        <ele>2248</ele>
        <time>2021-02-27T05:53:59Z</time>
      </trkpt>
      <trkpt lat="45.12541" lon="5.90348">
        <ele>2248</ele>
        <time>2021-02-27T05:54:01Z</time>
      </trkpt>
      <trkpt lat="45.12544" lon="5.90349">
        <ele>2249.8</ele>
        <time>2021-02-27T05:54:03Z</time>
      </trkpt>
      <trkpt lat="45.12547" lon="5.9035">
        <ele>2249.8</ele>
        <time>2021-02-27T05:54:05Z</time>
      </trkpt>
      <trkpt lat="45.12549" lon="5.9035">
        <ele>2249.8</ele>
        <time>2021-02-27T05:54:07Z</time>
      </trkpt>
      <trkpt lat="45.12551" lon="5.90351">
        <ele>2249.8</ele>
        <time>2021-02-27T05:54:09Z</time>
      </trkpt>
      <trkpt lat="45.12554" lon="5.90352">
        <ele>2249.8</ele>
        <time>2021-02-27T05:54:11Z</time>
      </trkpt>
      <trkpt lat="45.12556" lon="5.90352">
        <ele>2251.2</ele>
        <time>2021-02-27T05:54:13Z</time>
      </trkpt>
      <trkpt lat="45.12558" lon="5.90352">
        <ele>2251.2</ele>
        <time>2021-02-27T05:54:15Z</time>
      </trkpt>
      <trkpt lat="45.12561" lon="5.90353">
        <ele>2251.2</ele>
        <time>2021-02-27T05:54:17Z</time>
      </trkpt>
      <trkpt lat="45.12563" lon="5.90354">
        <ele>2251.2</ele>
        <time>2021-02-27T05:54:19Z</time>
      </trkpt>
      <trkpt lat="45.12566" lon="5.90354">
        <ele>2251.2</ele>
        <time>2021-02-27T05:54:21Z</time>
      </trkpt>
      <trkpt lat="45.12569" lon="5.90354">
        <ele>2252.8</ele>
        <time>2021-02-27T05:54:23Z</time>
      </trkpt>
      <trkpt lat="45.1257" lon="5.90355">
        <ele>2252.8</ele>
        <time>2021-02-27T05:54:25Z</time>
      </trkpt>
      <trkpt lat="45.12573" lon="5.90357">
        <ele>2252.8</ele>
        <time>2021-02-27T05:54:27Z</time>
      </trkpt>
      <trkpt lat="45.12574" lon="5.90358">
        <ele>2252.8</ele>
        <time>2021-02-27T05:54:29Z</time>
      </trkpt>
      <trkpt lat="45.12577" lon="5.90361">
        <ele>2252.8</ele>
        <time>2021-02-27T05:54:31Z</time>
      </trkpt>
      <trkpt lat="45.12579" lon="5.90363">
        <ele>2254.2</ele>
        <time>2021-02-27T05:54:33Z</time>
      </trkpt>
      <trkpt lat="45.12581" lon="5.90365">
        <ele>2254.2</ele>
        <time>2021-02-27T05:54:35Z</time>
      </trkpt>
      <trkpt lat="45.12584" lon="5.90367">
        <ele>2254.2</ele>
        <time>2021-02-27T05:54:37Z</time>
      </trkpt>
      <trkpt lat="45.12586" lon="5.90368">
        <ele>2254.2</ele>
        <time>2021-02-27T05:54:39Z</time>
      </trkpt>
      <trkpt lat="45.12586" lon="5.90368">
        <ele>2254.6</ele>
        <time>2021-02-27T05:54:43Z</time>
      </trkpt>
      <trkpt lat="45.12586" lon="5.9037">
        <ele>2253.6</ele>
        <time>2021-02-27T05:54:53Z</time>
      </trkpt>
      <trkpt lat="45.12586" lon="5.90371">
        <ele>2254.4</ele>
        <time>2021-02-27T05:55:03Z</time>
      </trkpt>
      <trkpt lat="45.12587" lon="5.90373">
        <ele>2255</ele>
        <time>2021-02-27T05:55:13Z</time>
      </trkpt>
      <trkpt lat="45.12587" lon="5.90374">
        <ele>2254.8</ele>
        <time>2021-02-27T05:55:23Z</time>
      </trkpt>
      <trkpt lat="45.12587" lon="5.90376">
        <ele>2253.8</ele>
        <time>2021-02-27T05:55:33Z</time>
      </trkpt>
      <trkpt lat="45.12588" lon="5.90377">
        <ele>2254.6</ele>
        <time>2021-02-27T05:55:43Z</time>
      </trkpt>
      <trkpt lat="45.12588" lon="5.90379">
        <ele>2254.2</ele>
        <time>2021-02-27T05:55:53Z</time>
      </trkpt>
      <trkpt lat="45.12588" lon="5.9038">
        <ele>2254.2</ele>
        <time>2021-02-27T05:55:57Z</time>
      </trkpt>
      <trkpt lat="45.12589" lon="5.90382">
        <ele>2254.2</ele>
        <time>2021-02-27T05:55:58Z</time>
      </trkpt>
      <trkpt lat="45.12589" lon="5.90383">
        <ele>2254.2</ele>
        <time>2021-02-27T05:55:59Z</time>
      </trkpt>
      <trkpt lat="45.12589" lon="5.90385">
        <ele>2254.2</ele>
        <time>2021-02-27T05:56:00Z</time>
      </trkpt>
      <trkpt lat="45.1259" lon="5.90386">
        <ele>2254.2</ele>
        <time>2021-02-27T05:56:01Z</time>
      </trkpt>
      <trkpt lat="45.1259" lon="5.90388">
        <ele>2254.2</ele>
        <time>2021-02-27T05:56:02Z</time>
      </trkpt>
      <trkpt lat="45.1259" lon="5.90389">
        <ele>2254</ele>
        <time>2021-02-27T05:56:03Z</time>
      </trkpt>
      <trkpt lat="45.12591" lon="5.90396">
        <ele>2254</ele>
        <time>2021-02-27T05:56:04Z</time>
      </trkpt>
      <trkpt lat="45.12591" lon="5.90399">
        <ele>2254</ele>
        <time>2021-02-27T05:56:05Z</time>
      </trkpt>
      <trkpt lat="45.12591" lon="5.90402">
        <ele>2254</ele>
        <time>2021-02-27T05:56:06Z</time>
      </trkpt>
      <trkpt lat="45.12591" lon="5.90405">
        <ele>2254</ele>
        <time>2021-02-27T05:56:07Z</time>
      </trkpt>
      <trkpt lat="45.12591" lon="5.90408">
        <ele>2254</ele>
        <time>2021-02-27T05:56:08Z</time>
      </trkpt>
      <trkpt lat="45.12591" lon="5.90411">
        <ele>2254</ele>
        <time>2021-02-27T05:56:09Z</time>
      </trkpt>
      <trkpt lat="45.12591" lon="5.90414">
        <ele>2254</ele>
        <time>2021-02-27T05:56:11Z</time>
      </trkpt>
      <trkpt lat="45.12591" lon="5.90417">
        <ele>2253.8</ele>
        <time>2021-02-27T05:56:13Z</time>
      </trkpt>
      <trkpt lat="45.12594" lon="5.90422">
        <ele>2253.8</ele>
        <time>2021-02-27T05:56:15Z</time>
      </trkpt>
      <trkpt lat="45.12596" lon="5.90424">
        <ele>2253.8</ele>
        <time>2021-02-27T05:56:17Z</time>
      </trkpt>
      <trkpt lat="45.12598" lon="5.90426">
        <ele>2253.8</ele>
        <time>2021-02-27T05:56:18Z</time>
      </trkpt>
      <trkpt lat="45.126" lon="5.90428">
        <ele>2253.8</ele>
        <time>2021-02-27T05:56:20Z</time>
      </trkpt>
      <trkpt lat="45.12601" lon="5.9043">
        <ele>2253.8</ele>
        <time>2021-02-27T05:56:22Z</time>
      </trkpt>
      <trkpt lat="45.12603" lon="5.90432">
        <ele>2254.2</ele>
        <time>2021-02-27T05:56:23Z</time>
      </trkpt>
      <trkpt lat="45.12605" lon="5.90439">
        <ele>2254.2</ele>
        <time>2021-02-27T05:56:24Z</time>
      </trkpt>
      <trkpt lat="45.12606" lon="5.90444">
        <ele>2254.2</ele>
        <time>2021-02-27T05:56:25Z</time>
      </trkpt>
      <trkpt lat="45.12606" lon="5.90448">
        <ele>2254.2</ele>
        <time>2021-02-27T05:56:26Z</time>
      </trkpt>
      <trkpt lat="45.12607" lon="5.90453">
        <ele>2254.2</ele>
        <time>2021-02-27T05:56:27Z</time>
      </trkpt>
      <trkpt lat="45.12607" lon="5.90458">
        <ele>2254.2</ele>
        <time>2021-02-27T05:56:28Z</time>
      </trkpt>
      <trkpt lat="45.12608" lon="5.90462">
        <ele>2254.2</ele>
        <time>2021-02-27T05:56:29Z</time>
      </trkpt>
      <trkpt lat="45.12608" lon="5.90467">
        <ele>2254.2</ele>
        <time>2021-02-27T05:56:30Z</time>
      </trkpt>
      <trkpt lat="45.12609" lon="5.90472">
        <ele>2254.2</ele>
        <time>2021-02-27T05:56:31Z</time>
      </trkpt>
      <trkpt lat="45.12609" lon="5.90476">
        <ele>2254.2</ele>
        <time>2021-02-27T05:56:32Z</time>
      </trkpt>
      <trkpt lat="45.1261" lon="5.90481">
        <ele>2251.4</ele>
        <time>2021-02-27T05:56:33Z</time>
      </trkpt>
      <trkpt lat="45.12609" lon="5.90495">
        <ele>2251.4</ele>
        <time>2021-02-27T05:56:34Z</time>
      </trkpt>
      <trkpt lat="45.12607" lon="5.90503">
        <ele>2251.4</ele>
        <time>2021-02-27T05:56:35Z</time>
      </trkpt>
      <trkpt lat="45.12606" lon="5.9051">
        <ele>2251.4</ele>
        <time>2021-02-27T05:56:36Z</time>
      </trkpt>
      <trkpt lat="45.12605" lon="5.90517">
        <ele>2251.4</ele>
        <time>2021-02-27T05:56:37Z</time>
      </trkpt>
      <trkpt lat="45.12604" lon="5.90524">
        <ele>2251.4</ele>
        <time>2021-02-27T05:56:38Z</time>
      </trkpt>
      <trkpt lat="45.12603" lon="5.90531">
        <ele>2251.4</ele>
        <time>2021-02-27T05:56:39Z</time>
      </trkpt>
      <trkpt lat="45.12602" lon="5.90538">
        <ele>2251.4</ele>
        <time>2021-02-27T05:56:40Z</time>
      </trkpt>
      <trkpt lat="45.126" lon="5.90545">
        <ele>2251.4</ele>
        <time>2021-02-27T05:56:41Z</time>
      </trkpt>
      <trkpt lat="45.12599" lon="5.90552">
        <ele>2251.4</ele>
        <time>2021-02-27T05:56:42Z</time>
      </trkpt>
      <trkpt lat="45.12598" lon="5.90559">
        <ele>2245.4</ele>
        <time>2021-02-27T05:56:43Z</time>
      </trkpt>
      <trkpt lat="45.12599" lon="5.90577">
        <ele>2245.4</ele>
        <time>2021-02-27T05:56:44Z</time>
      </trkpt>
      <trkpt lat="45.126" lon="5.90586">
        <ele>2245.4</ele>
        <time>2021-02-27T05:56:45Z</time>
      </trkpt>
      <trkpt lat="45.12601" lon="5.90596">
        <ele>2245.4</ele>
        <time>2021-02-27T05:56:46Z</time>
      </trkpt>
      <trkpt lat="45.12602" lon="5.90605">
        <ele>2245.4</ele>
        <time>2021-02-27T05:56:47Z</time>
      </trkpt>
      <trkpt lat="45.12603" lon="5.90615">
        <ele>2245.4</ele>
        <time>2021-02-27T05:56:48Z</time>
      </trkpt>
      <trkpt lat="45.12604" lon="5.90624">
        <ele>2245.4</ele>
        <time>2021-02-27T05:56:49Z</time>
      </trkpt>
      <trkpt lat="45.12606" lon="5.90634">
        <ele>2245.4</ele>
        <time>2021-02-27T05:56:50Z</time>
      </trkpt>
      <trkpt lat="45.12607" lon="5.90643">
        <ele>2245.4</ele>
        <time>2021-02-27T05:56:51Z</time>
      </trkpt>
      <trkpt lat="45.12608" lon="5.90653">
        <ele>2245.4</ele>
        <time>2021-02-27T05:56:52Z</time>
      </trkpt>
      <trkpt lat="45.12609" lon="5.90663">
        <ele>2235.6</ele>
        <time>2021-02-27T05:56:53Z</time>
      </trkpt>
      <trkpt lat="45.12609" lon="5.90683">
        <ele>2235.6</ele>
        <time>2021-02-27T05:56:54Z</time>
      </trkpt>
      <trkpt lat="45.12606" lon="5.90694">
        <ele>2235.6</ele>
        <time>2021-02-27T05:56:55Z</time>
      </trkpt>
      <trkpt lat="45.12604" lon="5.90704">
        <ele>2235.6</ele>
        <time>2021-02-27T05:56:56Z</time>
      </trkpt>
      <trkpt lat="45.12602" lon="5.90714">
        <ele>2235.6</ele>
        <time>2021-02-27T05:56:57Z</time>
      </trkpt>
      <trkpt lat="45.126" lon="5.90725">
        <ele>2235.6</ele>
        <time>2021-02-27T05:56:58Z</time>
      </trkpt>
      <trkpt lat="45.12598" lon="5.90735">
        <ele>2235.6</ele>
        <time>2021-02-27T05:56:59Z</time>
      </trkpt>
      <trkpt lat="45.12596" lon="5.90745">
        <ele>2235.6</ele>
        <time>2021-02-27T05:57:00Z</time>
      </trkpt>
      <trkpt lat="45.12594" lon="5.90756">
        <ele>2235.6</ele>
        <time>2021-02-27T05:57:01Z</time>
      </trkpt>
      <trkpt lat="45.12592" lon="5.90766">
        <ele>2235.6</ele>
        <time>2021-02-27T05:57:02Z</time>
      </trkpt>
      <trkpt lat="45.1259" lon="5.90776">
        <ele>2218.4</ele>
        <time>2021-02-27T05:57:03Z</time>
      </trkpt>
      <trkpt lat="45.12588" lon="5.90796">
        <ele>2218.4</ele>
        <time>2021-02-27T05:57:04Z</time>
      </trkpt>
      <trkpt lat="45.12589" lon="5.90806">
        <ele>2218.4</ele>
        <time>2021-02-27T05:57:05Z</time>
      </trkpt>
      <trkpt lat="45.12589" lon="5.90815">
        <ele>2218.4</ele>
        <time>2021-02-27T05:57:06Z</time>
      </trkpt>
      <trkpt lat="45.12589" lon="5.90824">
        <ele>2218.4</ele>
        <time>2021-02-27T05:57:07Z</time>
      </trkpt>
      <trkpt lat="45.12589" lon="5.90833">
        <ele>2218.4</ele>
        <time>2021-02-27T05:57:08Z</time>
      </trkpt>
      <trkpt lat="45.12589" lon="5.90843">
        <ele>2218.4</ele>
        <time>2021-02-27T05:57:09Z</time>
      </trkpt>
      <trkpt lat="45.12589" lon="5.90852">
        <ele>2218.4</ele>
        <time>2021-02-27T05:57:10Z</time>
      </trkpt>
      <trkpt lat="45.12589" lon="5.90861">
        <ele>2218.4</ele>
        <time>2021-02-27T05:57:11Z</time>
      </trkpt>
      <trkpt lat="45.12589" lon="5.90871">
        <ele>2218.4</ele>
        <time>2021-02-27T05:57:12Z</time>
      </trkpt>
      <trkpt lat="45.1259" lon="5.9088">
        <ele>2198.6</ele>
        <time>2021-02-27T05:57:13Z</time>
      </trkpt>
      <trkpt lat="45.12592" lon="5.90898">
        <ele>2198.6</ele>
        <time>2021-02-27T05:57:14Z</time>
      </trkpt>
      <trkpt lat="45.12594" lon="5.90903">
        <ele>2198.6</ele>
        <time>2021-02-27T05:57:15Z</time>
      </trkpt>
      <trkpt lat="45.12596" lon="5.90908">
        <ele>2198.6</ele>
        <time>2021-02-27T05:57:16Z</time>
      </trkpt>
      <trkpt lat="45.12598" lon="5.90913">
        <ele>2198.6</ele>
        <time>2021-02-27T05:57:17Z</time>
      </trkpt>
      <trkpt lat="45.12599" lon="5.90918">
        <ele>2198.6</ele>
        <time>2021-02-27T05:57:18Z</time>
      </trkpt>
      <trkpt lat="45.12601" lon="5.90924">
        <ele>2198.6</ele>
        <time>2021-02-27T05:57:19Z</time>
      </trkpt>
      <trkpt lat="45.12603" lon="5.90929">
        <ele>2198.6</ele>
        <time>2021-02-27T05:57:20Z</time>
      </trkpt>
      <trkpt lat="45.12605" lon="5.90934">
        <ele>2198.6</ele>
        <time>2021-02-27T05:57:21Z</time>
      </trkpt>
      <trkpt lat="45.12606" lon="5.90939">
        <ele>2198.6</ele>
        <time>2021-02-27T05:57:22Z</time>
      </trkpt>
      <trkpt lat="45.12608" lon="5.90945">
        <ele>2182.8</ele>
        <time>2021-02-27T05:57:23Z</time>
      </trkpt>
      <trkpt lat="45.12615" lon="5.90932">
        <ele>2182.8</ele>
        <time>2021-02-27T05:57:24Z</time>
      </trkpt>
      <trkpt lat="45.12619" lon="5.90926">
        <ele>2182.8</ele>
        <time>2021-02-27T05:57:25Z</time>
      </trkpt>
      <trkpt lat="45.12623" lon="5.90921">
        <ele>2182.8</ele>
        <time>2021-02-27T05:57:26Z</time>
      </trkpt>
      <trkpt lat="45.12627" lon="5.90915">
        <ele>2182.8</ele>
        <time>2021-02-27T05:57:27Z</time>
      </trkpt>
      <trkpt lat="45.12631" lon="5.90909">
        <ele>2182.8</ele>
        <time>2021-02-27T05:57:28Z</time>
      </trkpt>
      <trkpt lat="45.12635" lon="5.90904">
        <ele>2182.8</ele>
        <time>2021-02-27T05:57:29Z</time>
      </trkpt>
      <trkpt lat="45.12639" lon="5.90898">
        <ele>2182.8</ele>
        <time>2021-02-27T05:57:30Z</time>
      </trkpt>
      <trkpt lat="45.12643" lon="5.90892">
        <ele>2182.8</ele>
        <time>2021-02-27T05:57:31Z</time>
      </trkpt>
      <trkpt lat="45.12647" lon="5.90887">
        <ele>2182.8</ele>
        <time>2021-02-27T05:57:32Z</time>
      </trkpt>
      <trkpt lat="45.12651" lon="5.90881">
        <ele>2169</ele>
        <time>2021-02-27T05:57:33Z</time>
      </trkpt>
      <trkpt lat="45.12662" lon="5.90878">
        <ele>2169</ele>
        <time>2021-02-27T05:57:34Z</time>
      </trkpt>
      <trkpt lat="45.12669" lon="5.90881">
        <ele>2169</ele>
        <time>2021-02-27T05:57:35Z</time>
      </trkpt>
      <trkpt lat="45.12675" lon="5.90885">
        <ele>2169</ele>
        <time>2021-02-27T05:57:36Z</time>
      </trkpt>
      <trkpt lat="45.12681" lon="5.90888">
        <ele>2169</ele>
        <time>2021-02-27T05:57:37Z</time>
      </trkpt>
      <trkpt lat="45.12688" lon="5.90891">
        <ele>2169</ele>
        <time>2021-02-27T05:57:38Z</time>
      </trkpt>
      <trkpt lat="45.12694" lon="5.90895">
        <ele>2169</ele>
        <time>2021-02-27T05:57:39Z</time>
      </trkpt>
      <trkpt lat="45.12701" lon="5.90898">
        <ele>2169</ele>
        <time>2021-02-27T05:57:40Z</time>
      </trkpt>
      <trkpt lat="45.12707" lon="5.90901">
        <ele>2169</ele>
        <time>2021-02-27T05:57:41Z</time>
      </trkpt>
      <trkpt lat="45.12714" lon="5.90905">
        <ele>2169</ele>
        <time>2021-02-27T05:57:42Z</time>
      </trkpt>
      <trkpt lat="45.1272" lon="5.90908">
        <ele>2146.2</ele>
        <time>2021-02-27T05:57:43Z</time>
      </trkpt>
      <trkpt lat="45.12725" lon="5.9092">
        <ele>2146.2</ele>
        <time>2021-02-27T05:57:44Z</time>
      </trkpt>
      <trkpt lat="45.1273" lon="5.9093">
        <ele>2146.2</ele>
        <time>2021-02-27T05:57:45Z</time>
      </trkpt>
      <trkpt lat="45.12737" lon="5.9094">
        <ele>2146.2</ele>
        <time>2021-02-27T05:57:46Z</time>
      </trkpt>
      <trkpt lat="45.12742" lon="5.90948">
        <ele>2146.2</ele>
        <time>2021-02-27T05:57:47Z</time>
      </trkpt>
      <trkpt lat="45.1275" lon="5.9096">
        <ele>2146.2</ele>
        <time>2021-02-27T05:57:48Z</time>
      </trkpt>
      <trkpt lat="45.12757" lon="5.90971">
        <ele>2146.2</ele>
        <time>2021-02-27T05:57:49Z</time>
      </trkpt>
      <trkpt lat="45.12765" lon="5.90983">
        <ele>2146.2</ele>
        <time>2021-02-27T05:57:50Z</time>
      </trkpt>
      <trkpt lat="45.12771" lon="5.90997">
        <ele>2146.2</ele>
        <time>2021-02-27T05:57:51Z</time>
      </trkpt>
      <trkpt lat="45.12777" lon="5.91008">
        <ele>2146.2</ele>
        <time>2021-02-27T05:57:52Z</time>
      </trkpt>
      <trkpt lat="45.12785" lon="5.91018">
        <ele>2125</ele>
        <time>2021-02-27T05:57:53Z</time>
      </trkpt>
      <trkpt lat="45.12793" lon="5.91029">
        <ele>2125</ele>
        <time>2021-02-27T05:57:54Z</time>
      </trkpt>
      <trkpt lat="45.12799" lon="5.9104">
        <ele>2125</ele>
        <time>2021-02-27T05:57:55Z</time>
      </trkpt>
      <trkpt lat="45.12805" lon="5.91051">
        <ele>2125</ele>
        <time>2021-02-27T05:57:56Z</time>
      </trkpt>
      <trkpt lat="45.12811" lon="5.91062">
        <ele>2125</ele>
        <time>2021-02-27T05:57:57Z</time>
      </trkpt>
      <trkpt lat="45.12818" lon="5.91072">
        <ele>2125</ele>
        <time>2021-02-27T05:57:58Z</time>
      </trkpt>
      <trkpt lat="45.12823" lon="5.91082">
        <ele>2125</ele>
        <time>2021-02-27T05:57:59Z</time>
      </trkpt>
      <trkpt lat="45.12828" lon="5.91092">
        <ele>2125</ele>
        <time>2021-02-27T05:58:00Z</time>
      </trkpt>
      <trkpt lat="45.12833" lon="5.911">
        <ele>2125</ele>
        <time>2021-02-27T05:58:01Z</time>
      </trkpt>
      <trkpt lat="45.12838" lon="5.91109">
        <ele>2125</ele>
        <time>2021-02-27T05:58:02Z</time>
      </trkpt>
      <trkpt lat="45.12842" lon="5.91119">
        <ele>2111</ele>
        <time>2021-02-27T05:58:03Z</time>
      </trkpt>
      <trkpt lat="45.12849" lon="5.91137">
        <ele>2111</ele>
        <time>2021-02-27T05:58:04Z</time>
      </trkpt>
      <trkpt lat="45.12852" lon="5.91145">
        <ele>2111</ele>
        <time>2021-02-27T05:58:05Z</time>
      </trkpt>
      <trkpt lat="45.12856" lon="5.91154">
        <ele>2111</ele>
        <time>2021-02-27T05:58:06Z</time>
      </trkpt>
      <trkpt lat="45.1286" lon="5.91162">
        <ele>2111</ele>
        <time>2021-02-27T05:58:07Z</time>
      </trkpt>
      <trkpt lat="45.12864" lon="5.91171">
        <ele>2111</ele>
        <time>2021-02-27T05:58:08Z</time>
      </trkpt>
      <trkpt lat="45.12867" lon="5.91179">
        <ele>2111</ele>
        <time>2021-02-27T05:58:09Z</time>
      </trkpt>
      <trkpt lat="45.12871" lon="5.91188">
        <ele>2111</ele>
        <time>2021-02-27T05:58:10Z</time>
      </trkpt>
      <trkpt lat="45.12875" lon="5.91196">
        <ele>2111</ele>
        <time>2021-02-27T05:58:11Z</time>
      </trkpt>
      <trkpt lat="45.12878" lon="5.91205">
        <ele>2111</ele>
        <time>2021-02-27T05:58:12Z</time>
      </trkpt>
      <trkpt lat="45.12882" lon="5.91213">
        <ele>2098.8</ele>
        <time>2021-02-27T05:58:13Z</time>
      </trkpt>
      <trkpt lat="45.12891" lon="5.91234">
        <ele>2098.8</ele>
        <time>2021-02-27T05:58:14Z</time>
      </trkpt>
      <trkpt lat="45.12895" lon="5.91245">
        <ele>2098.8</ele>
        <time>2021-02-27T05:58:15Z</time>
      </trkpt>
      <trkpt lat="45.129" lon="5.91256">
        <ele>2098.8</ele>
        <time>2021-02-27T05:58:16Z</time>
      </trkpt>
      <trkpt lat="45.12904" lon="5.91267">
        <ele>2098.8</ele>
        <time>2021-02-27T05:58:17Z</time>
      </trkpt>
      <trkpt lat="45.12909" lon="5.91278">
        <ele>2098.8</ele>
        <time>2021-02-27T05:58:18Z</time>
      </trkpt>
      <trkpt lat="45.12913" lon="5.91289">
        <ele>2098.8</ele>
        <time>2021-02-27T05:58:19Z</time>
      </trkpt>
      <trkpt lat="45.12917" lon="5.913">
        <ele>2098.8</ele>
        <time>2021-02-27T05:58:20Z</time>
      </trkpt>
      <trkpt lat="45.12922" lon="5.91311">
        <ele>2098.8</ele>
        <time>2021-02-27T05:58:21Z</time>
      </trkpt>
      <trkpt lat="45.12926" lon="5.91322">
        <ele>2077.2</ele>
        <time>2021-02-27T05:58:23Z</time>
      </trkpt>
      <trkpt lat="45.12932" lon="5.91343">
        <ele>2077.2</ele>
        <time>2021-02-27T05:58:24Z</time>
      </trkpt>
      <trkpt lat="45.12935" lon="5.91352">
        <ele>2077.2</ele>
        <time>2021-02-27T05:58:25Z</time>
      </trkpt>
      <trkpt lat="45.12937" lon="5.91361">
        <ele>2077.2</ele>
        <time>2021-02-27T05:58:26Z</time>
      </trkpt>
      <trkpt lat="45.1294" lon="5.9137">
        <ele>2077.2</ele>
        <time>2021-02-27T05:58:27Z</time>
      </trkpt>
      <trkpt lat="45.12943" lon="5.91379">
        <ele>2077.2</ele>
        <time>2021-02-27T05:58:28Z</time>
      </trkpt>
      <trkpt lat="45.12945" lon="5.91388">
        <ele>2077.2</ele>
        <time>2021-02-27T05:58:29Z</time>
      </trkpt>
      <trkpt lat="45.12948" lon="5.91397">
        <ele>2077.2</ele>
        <time>2021-02-27T05:58:30Z</time>
      </trkpt>
      <trkpt lat="45.12951" lon="5.91406">
        <ele>2077.2</ele>
        <time>2021-02-27T05:58:31Z</time>
      </trkpt>
      <trkpt lat="45.12953" lon="5.91414">
        <ele>2077.2</ele>
        <time>2021-02-27T05:58:32Z</time>
      </trkpt>
      <trkpt lat="45.12956" lon="5.91423">
        <ele>2057.6</ele>
        <time>2021-02-27T05:58:33Z</time>
      </trkpt>
      <trkpt lat="45.12963" lon="5.91441">
        <ele>2057.6</ele>
        <time>2021-02-27T05:58:34Z</time>
      </trkpt>
      <trkpt lat="45.12966" lon="5.9145">
        <ele>2057.6</ele>
        <time>2021-02-27T05:58:35Z</time>
      </trkpt>
      <trkpt lat="45.12969" lon="5.91458">
        <ele>2057.6</ele>
        <time>2021-02-27T05:58:36Z</time>
      </trkpt>
      <trkpt lat="45.12972" lon="5.91466">
        <ele>2057.6</ele>
        <time>2021-02-27T05:58:37Z</time>
      </trkpt>
      <trkpt lat="45.12976" lon="5.91474">
        <ele>2057.6</ele>
        <time>2021-02-27T05:58:38Z</time>
      </trkpt>
      <trkpt lat="45.12979" lon="5.91482">
        <ele>2057.6</ele>
        <time>2021-02-27T05:58:39Z</time>
      </trkpt>
      <trkpt lat="45.12982" lon="5.91491">
        <ele>2057.6</ele>
        <time>2021-02-27T05:58:40Z</time>
      </trkpt>
      <trkpt lat="45.12986" lon="5.91499">
        <ele>2057.6</ele>
        <time>2021-02-27T05:58:41Z</time>
      </trkpt>
      <trkpt lat="45.12989" lon="5.91507">
        <ele>2057.6</ele>
        <time>2021-02-27T05:58:42Z</time>
      </trkpt>
      <trkpt lat="45.12992" lon="5.91515">
        <ele>2037</ele>
        <time>2021-02-27T05:58:43Z</time>
      </trkpt>
      <trkpt lat="45.12998" lon="5.91533">
        <ele>2037</ele>
        <time>2021-02-27T05:58:44Z</time>
      </trkpt>
      <trkpt lat="45.13001" lon="5.91541">
        <ele>2037</ele>
        <time>2021-02-27T05:58:45Z</time>
      </trkpt>
      <trkpt lat="45.13004" lon="5.9155">
        <ele>2037</ele>
        <time>2021-02-27T05:58:46Z</time>
      </trkpt>
      <trkpt lat="45.13007" lon="5.91558">
        <ele>2037</ele>
        <time>2021-02-27T05:58:47Z</time>
      </trkpt>
      <trkpt lat="45.1301" lon="5.91567">
        <ele>2037</ele>
        <time>2021-02-27T05:58:48Z</time>
      </trkpt>
      <trkpt lat="45.13013" lon="5.91575">
        <ele>2037</ele>
        <time>2021-02-27T05:58:49Z</time>
      </trkpt>
      <trkpt lat="45.13016" lon="5.91584">
        <ele>2037</ele>
        <time>2021-02-27T05:58:50Z</time>
      </trkpt>
      <trkpt lat="45.13019" lon="5.91592">
        <ele>2037</ele>
        <time>2021-02-27T05:58:51Z</time>
      </trkpt>
      <trkpt lat="45.13022" lon="5.91601">
        <ele>2037</ele>
        <time>2021-02-27T05:58:52Z</time>
      </trkpt>
      <trkpt lat="45.13025" lon="5.9161">
        <ele>2016</ele>
        <time>2021-02-27T05:58:53Z</time>
      </trkpt>
      <trkpt lat="45.1303" lon="5.91626">
        <ele>2016</ele>
        <time>2021-02-27T05:58:54Z</time>
      </trkpt>
      <trkpt lat="45.13032" lon="5.91632">
        <ele>2016</ele>
        <time>2021-02-27T05:58:55Z</time>
      </trkpt>
      <trkpt lat="45.13035" lon="5.91638">
        <ele>2016</ele>
        <time>2021-02-27T05:58:56Z</time>
      </trkpt>
      <trkpt lat="45.13038" lon="5.91644">
        <ele>2016</ele>
        <time>2021-02-27T05:58:57Z</time>
      </trkpt>
      <trkpt lat="45.13041" lon="5.91651">
        <ele>2016</ele>
        <time>2021-02-27T05:58:58Z</time>
      </trkpt>
      <trkpt lat="45.13044" lon="5.91657">
        <ele>2016</ele>
        <time>2021-02-27T05:58:59Z</time>
      </trkpt>
      <trkpt lat="45.13047" lon="5.91663">
        <ele>2016</ele>
        <time>2021-02-27T05:59:00Z</time>
      </trkpt>
      <trkpt lat="45.13049" lon="5.91669">
        <ele>2016</ele>
        <time>2021-02-27T05:59:01Z</time>
      </trkpt>
      <trkpt lat="45.13052" lon="5.91675">
        <ele>2016</ele>
        <time>2021-02-27T05:59:02Z</time>
      </trkpt>
      <trkpt lat="45.13055" lon="5.91681">
        <ele>2007.8</ele>
        <time>2021-02-27T05:59:03Z</time>
      </trkpt>
      <trkpt lat="45.13064" lon="5.91694">
        <ele>2007.8</ele>
        <time>2021-02-27T05:59:04Z</time>
      </trkpt>
      <trkpt lat="45.13068" lon="5.91698">
        <ele>2007.8</ele>
        <time>2021-02-27T05:59:05Z</time>
      </trkpt>
      <trkpt lat="45.13072" lon="5.91703">
        <ele>2007.8</ele>
        <time>2021-02-27T05:59:06Z</time>
      </trkpt>
      <trkpt lat="45.13076" lon="5.91708">
        <ele>2007.8</ele>
        <time>2021-02-27T05:59:07Z</time>
      </trkpt>
      <trkpt lat="45.1308" lon="5.91712">
        <ele>2007.8</ele>
        <time>2021-02-27T05:59:08Z</time>
      </trkpt>
      <trkpt lat="45.13084" lon="5.91717">
        <ele>2007.8</ele>
        <time>2021-02-27T05:59:09Z</time>
      </trkpt>
      <trkpt lat="45.13089" lon="5.91721">
        <ele>2007.8</ele>
        <time>2021-02-27T05:59:10Z</time>
      </trkpt>
      <trkpt lat="45.13093" lon="5.91726">
        <ele>2007.8</ele>
        <time>2021-02-27T05:59:11Z</time>
      </trkpt>
      <trkpt lat="45.13097" lon="5.9173">
        <ele>2007.8</ele>
        <time>2021-02-27T05:59:12Z</time>
      </trkpt>
      <trkpt lat="45.13101" lon="5.91735">
        <ele>2001.4</ele>
        <time>2021-02-27T05:59:13Z</time>
      </trkpt>
      <trkpt lat="45.13108" lon="5.91744">
        <ele>2001.4</ele>
        <time>2021-02-27T05:59:14Z</time>
      </trkpt>
      <trkpt lat="45.1311" lon="5.91749">
        <ele>2001.4</ele>
        <time>2021-02-27T05:59:15Z</time>
      </trkpt>
      <trkpt lat="45.13112" lon="5.91753">
        <ele>2001.4</ele>
        <time>2021-02-27T05:59:16Z</time>
      </trkpt>
      <trkpt lat="45.13115" lon="5.91757">
        <ele>2001.4</ele>
        <time>2021-02-27T05:59:17Z</time>
      </trkpt>
      <trkpt lat="45.13117" lon="5.91762">
        <ele>2001.4</ele>
        <time>2021-02-27T05:59:18Z</time>
      </trkpt>
      <trkpt lat="45.1312" lon="5.91766">
        <ele>2001.4</ele>
        <time>2021-02-27T05:59:19Z</time>
      </trkpt>
      <trkpt lat="45.13122" lon="5.9177">
        <ele>2001.4</ele>
        <time>2021-02-27T05:59:20Z</time>
      </trkpt>
      <trkpt lat="45.13125" lon="5.91775">
        <ele>2001.4</ele>
        <time>2021-02-27T05:59:21Z</time>
      </trkpt>
      <trkpt lat="45.13127" lon="5.91779">
        <ele>2001.4</ele>
        <time>2021-02-27T05:59:22Z</time>
      </trkpt>
      <trkpt lat="45.1313" lon="5.91783">
        <ele>1998</ele>
        <time>2021-02-27T05:59:23Z</time>
      </trkpt>
      <trkpt lat="45.13134" lon="5.91793">
        <ele>1998</ele>
        <time>2021-02-27T05:59:24Z</time>
      </trkpt>
      <trkpt lat="45.13136" lon="5.91797">
        <ele>1998</ele>
        <time>2021-02-27T05:59:25Z</time>
      </trkpt>
      <trkpt lat="45.13138" lon="5.91802">
        <ele>1998</ele>
        <time>2021-02-27T05:59:26Z</time>
      </trkpt>
      <trkpt lat="45.1314" lon="5.91806">
        <ele>1998</ele>
        <time>2021-02-27T05:59:27Z</time>
      </trkpt>
      <trkpt lat="45.13142" lon="5.9181">
        <ele>1998</ele>
        <time>2021-02-27T05:59:28Z</time>
      </trkpt>
      <trkpt lat="45.13144" lon="5.91814">
        <ele>1998</ele>
        <time>2021-02-27T05:59:29Z</time>
      </trkpt>
      <trkpt lat="45.13145" lon="5.91819">
        <ele>1998</ele>
        <time>2021-02-27T05:59:30Z</time>
      </trkpt>
      <trkpt lat="45.13147" lon="5.91823">
        <ele>1998</ele>
        <time>2021-02-27T05:59:31Z</time>
      </trkpt>
      <trkpt lat="45.13149" lon="5.91827">
        <ele>1996.6</ele>
        <time>2021-02-27T05:59:33Z</time>
      </trkpt>
      <trkpt lat="45.13151" lon="5.91833">
        <ele>1996.6</ele>
        <time>2021-02-27T05:59:34Z</time>
      </trkpt>
      <trkpt lat="45.13152" lon="5.91835">
        <ele>1996.6</ele>
        <time>2021-02-27T05:59:36Z</time>
      </trkpt>
      <trkpt lat="45.13153" lon="5.91838">
        <ele>1996.6</ele>
        <time>2021-02-27T05:59:37Z</time>
      </trkpt>
      <trkpt lat="45.13154" lon="5.9184">
        <ele>1996.6</ele>
        <time>2021-02-27T05:59:38Z</time>
      </trkpt>
      <trkpt lat="45.13154" lon="5.91843">
        <ele>1996.6</ele>
        <time>2021-02-27T05:59:39Z</time>
      </trkpt>
      <trkpt lat="45.13155" lon="5.91846">
        <ele>1996.6</ele>
        <time>2021-02-27T05:59:40Z</time>
      </trkpt>
      <trkpt lat="45.13156" lon="5.91848">
        <ele>1996.6</ele>
        <time>2021-02-27T05:59:42Z</time>
      </trkpt>
      <trkpt lat="45.13157" lon="5.91851">
        <ele>1998.2</ele>
        <time>2021-02-27T05:59:43Z</time>
      </trkpt>
      <trkpt lat="45.13158" lon="5.91854">
        <ele>1998.2</ele>
        <time>2021-02-27T05:59:45Z</time>
      </trkpt>
      <trkpt lat="45.13159" lon="5.91857">
        <ele>1998.2</ele>
        <time>2021-02-27T05:59:47Z</time>
      </trkpt>
      <trkpt lat="45.13162" lon="5.91861">
        <ele>1998.2</ele>
        <time>2021-02-27T05:59:49Z</time>
      </trkpt>
      <trkpt lat="45.13164" lon="5.91862">
        <ele>1998.2</ele>
        <time>2021-02-27T05:59:50Z</time>
      </trkpt>
      <trkpt lat="45.13166" lon="5.91863">
        <ele>1998.2</ele>
        <time>2021-02-27T05:59:51Z</time>
      </trkpt>
      <trkpt lat="45.13166" lon="5.91863">
        <ele>1999.4</ele>
        <time>2021-02-27T05:59:53Z</time>
      </trkpt>
      <trkpt lat="45.13173" lon="5.91872">
        <ele>1999.4</ele>
        <time>2021-02-27T05:59:54Z</time>
      </trkpt>
      <trkpt lat="45.13176" lon="5.91876">
        <ele>1999.4</ele>
        <time>2021-02-27T05:59:55Z</time>
      </trkpt>
      <trkpt lat="45.13179" lon="5.9188">
        <ele>1999.4</ele>
        <time>2021-02-27T05:59:56Z</time>
      </trkpt>
      <trkpt lat="45.13183" lon="5.91883">
        <ele>1999.4</ele>
        <time>2021-02-27T05:59:57Z</time>
      </trkpt>
      <trkpt lat="45.13186" lon="5.91887">
        <ele>1999.4</ele>
        <time>2021-02-27T05:59:59Z</time>
      </trkpt>
      <trkpt lat="45.13189" lon="5.91891">
        <ele>1999.4</ele>
        <time>2021-02-27T06:00:00Z</time>
      </trkpt>
      <trkpt lat="45.13192" lon="5.91894">
        <ele>1999.4</ele>
        <time>2021-02-27T06:00:01Z</time>
      </trkpt>
      <trkpt lat="45.13195" lon="5.91898">
        <ele>1999.4</ele>
        <time>2021-02-27T06:00:02Z</time>
      </trkpt>
      <trkpt lat="45.13198" lon="5.91902">
        <ele>1997.4</ele>
        <time>2021-02-27T06:00:03Z</time>
      </trkpt>
      <trkpt lat="45.13205" lon="5.91907">
        <ele>1997.4</ele>
        <time>2021-02-27T06:00:04Z</time>
      </trkpt>
      <trkpt lat="45.13208" lon="5.9191">
        <ele>1997.4</ele>
        <time>2021-02-27T06:00:05Z</time>
      </trkpt>
      <trkpt lat="45.13211" lon="5.91912">
        <ele>1997.4</ele>
        <time>2021-02-27T06:00:06Z</time>
      </trkpt>
      <trkpt lat="45.13214" lon="5.91915">
        <ele>1997.4</ele>
        <time>2021-02-27T06:00:07Z</time>
      </trkpt>
      <trkpt lat="45.13217" lon="5.91917">
        <ele>1997.4</ele>
        <time>2021-02-27T06:00:08Z</time>
      </trkpt>
      <trkpt lat="45.1322" lon="5.9192">
        <ele>1997.4</ele>
        <time>2021-02-27T06:00:09Z</time>
      </trkpt>
      <trkpt lat="45.13223" lon="5.91922">
        <ele>1997.4</ele>
        <time>2021-02-27T06:00:10Z</time>
      </trkpt>
      <trkpt lat="45.13227" lon="5.91924">
        <ele>1997.4</ele>
        <time>2021-02-27T06:00:11Z</time>
      </trkpt>
      <trkpt lat="45.1323" lon="5.91927">
        <ele>1997.4</ele>
        <time>2021-02-27T06:00:12Z</time>
      </trkpt>
      <trkpt lat="45.13233" lon="5.91929">
        <ele>1997</ele>
        <time>2021-02-27T06:00:13Z</time>
      </trkpt>
      <trkpt lat="45.13239" lon="5.91935">
        <ele>1997</ele>
        <time>2021-02-27T06:00:14Z</time>
      </trkpt>
      <trkpt lat="45.13241" lon="5.91938">
        <ele>1997</ele>
        <time>2021-02-27T06:00:15Z</time>
      </trkpt>
      <trkpt lat="45.13244" lon="5.91941">
        <ele>1997</ele>
        <time>2021-02-27T06:00:16Z</time>
      </trkpt>
      <trkpt lat="45.13246" lon="5.91944">
        <ele>1997</ele>
        <time>2021-02-27T06:00:17Z</time>
      </trkpt>
      <trkpt lat="45.13249" lon="5.91947">
        <ele>1997</ele>
        <time>2021-02-27T06:00:18Z</time>
      </trkpt>
      <trkpt lat="45.13252" lon="5.91951">
        <ele>1997</ele>
        <time>2021-02-27T06:00:19Z</time>
      </trkpt>
      <trkpt lat="45.13254" lon="5.91954">
        <ele>1997</ele>
        <time>2021-02-27T06:00:20Z</time>
      </trkpt>
      <trkpt lat="45.13257" lon="5.91957">
        <ele>1997</ele>
        <time>2021-02-27T06:00:21Z</time>
      </trkpt>
      <trkpt lat="45.1326" lon="5.9196">
        <ele>1997</ele>
        <time>2021-02-27T06:00:22Z</time>
      </trkpt>
      <trkpt lat="45.13262" lon="5.91963">
        <ele>1996</ele>
        <time>2021-02-27T06:00:23Z</time>
      </trkpt>
      <trkpt lat="45.13266" lon="5.9197">
        <ele>1996</ele>
        <time>2021-02-27T06:00:24Z</time>
      </trkpt>
      <trkpt lat="45.13267" lon="5.91972">
        <ele>1996</ele>
        <time>2021-02-27T06:00:25Z</time>
      </trkpt>
      <trkpt lat="45.13268" lon="5.91974">
        <ele>1996</ele>
        <time>2021-02-27T06:00:26Z</time>
      </trkpt>
      <trkpt lat="45.1327" lon="5.91976">
        <ele>1996</ele>
        <time>2021-02-27T06:00:27Z</time>
      </trkpt>
      <trkpt lat="45.13271" lon="5.91979">
        <ele>1996</ele>
        <time>2021-02-27T06:00:28Z</time>
      </trkpt>
      <trkpt lat="45.13272" lon="5.91981">
        <ele>1996</ele>
        <time>2021-02-27T06:00:30Z</time>
      </trkpt>
      <trkpt lat="45.13273" lon="5.91983">
        <ele>1996</ele>
        <time>2021-02-27T06:00:32Z</time>
      </trkpt>
      <trkpt lat="45.13274" lon="5.91985">
        <ele>1996.8</ele>
        <time>2021-02-27T06:00:33Z</time>
      </trkpt>
      <trkpt lat="45.13276" lon="5.9199">
        <ele>1996.8</ele>
        <time>2021-02-27T06:00:34Z</time>
      </trkpt>
      <trkpt lat="45.13276" lon="5.91993">
        <ele>1996.8</ele>
        <time>2021-02-27T06:00:36Z</time>
      </trkpt>
      <trkpt lat="45.13277" lon="5.91996">
        <ele>1996.8</ele>
        <time>2021-02-27T06:00:38Z</time>
      </trkpt>
      <trkpt lat="45.13277" lon="5.92">
        <ele>1996.8</ele>
        <time>2021-02-27T06:00:39Z</time>
      </trkpt>
      <trkpt lat="45.13278" lon="5.92003">
        <ele>1996.8</ele>
        <time>2021-02-27T06:00:40Z</time>
      </trkpt>
      <trkpt lat="45.13279" lon="5.92006">
        <ele>1996.8</ele>
        <time>2021-02-27T06:00:41Z</time>
      </trkpt>
      <trkpt lat="45.13279" lon="5.92009">
        <ele>1996.8</ele>
        <time>2021-02-27T06:00:42Z</time>
      </trkpt>
      <trkpt lat="45.1328" lon="5.92013">
        <ele>1998.2</ele>
        <time>2021-02-27T06:00:43Z</time>
      </trkpt>
      <trkpt lat="45.13281" lon="5.9202">
        <ele>1998.2</ele>
        <time>2021-02-27T06:00:44Z</time>
      </trkpt>
      <trkpt lat="45.13282" lon="5.92023">
        <ele>1998.2</ele>
        <time>2021-02-27T06:00:45Z</time>
      </trkpt>
      <trkpt lat="45.13283" lon="5.92026">
        <ele>1998.2</ele>
        <time>2021-02-27T06:00:46Z</time>
      </trkpt>
      <trkpt lat="45.13284" lon="5.92029">
        <ele>1998.2</ele>
        <time>2021-02-27T06:00:47Z</time>
      </trkpt>
      <trkpt lat="45.13285" lon="5.92033">
        <ele>1998.2</ele>
        <time>2021-02-27T06:00:49Z</time>
      </trkpt>
      <trkpt lat="45.13286" lon="5.92036">
        <ele>1998.2</ele>
        <time>2021-02-27T06:00:51Z</time>
      </trkpt>
      <trkpt lat="45.13287" lon="5.92039">
        <ele>1998.2</ele>
        <time>2021-02-27T06:00:52Z</time>
      </trkpt>
      <trkpt lat="45.13288" lon="5.92042">
        <ele>1998.4</ele>
        <time>2021-02-27T06:00:53Z</time>
      </trkpt>
      <trkpt lat="45.13292" lon="5.92048">
        <ele>1998.4</ele>
        <time>2021-02-27T06:00:54Z</time>
      </trkpt>
      <trkpt lat="45.13295" lon="5.92052">
        <ele>1998.4</ele>
        <time>2021-02-27T06:00:55Z</time>
      </trkpt>
      <trkpt lat="45.13298" lon="5.92055">
        <ele>1998.4</ele>
        <time>2021-02-27T06:00:56Z</time>
      </trkpt>
      <trkpt lat="45.13301" lon="5.92059">
        <ele>1998.4</ele>
        <time>2021-02-27T06:00:57Z</time>
      </trkpt>
      <trkpt lat="45.13304" lon="5.92062">
        <ele>1998.4</ele>
        <time>2021-02-27T06:00:58Z</time>
      </trkpt>
      <trkpt lat="45.13307" lon="5.92066">
        <ele>1998.4</ele>
        <time>2021-02-27T06:00:59Z</time>
      </trkpt>
      <trkpt lat="45.1331" lon="5.92069">
        <ele>1998.4</ele>
        <time>2021-02-27T06:01:00Z</time>
      </trkpt>
      <trkpt lat="45.13313" lon="5.92073">
        <ele>1998.4</ele>
        <time>2021-02-27T06:01:01Z</time>
      </trkpt>
      <trkpt lat="45.13316" lon="5.92076">
        <ele>1998.4</ele>
        <time>2021-02-27T06:01:02Z</time>
      </trkpt>
      <trkpt lat="45.13319" lon="5.9208">
        <ele>1996.6</ele>
        <time>2021-02-27T06:01:03Z</time>
      </trkpt>
      <trkpt lat="45.13326" lon="5.92092">
        <ele>1996.6</ele>
        <time>2021-02-27T06:01:04Z</time>
      </trkpt>
      <trkpt lat="45.13329" lon="5.92098">
        <ele>1996.6</ele>
        <time>2021-02-27T06:01:05Z</time>
      </trkpt>
      <trkpt lat="45.13333" lon="5.92104">
        <ele>1996.6</ele>
        <time>2021-02-27T06:01:06Z</time>
      </trkpt>
      <trkpt lat="45.13336" lon="5.9211">
        <ele>1996.6</ele>
        <time>2021-02-27T06:01:07Z</time>
      </trkpt>
      <trkpt lat="45.1334" lon="5.92115">
        <ele>1996.6</ele>
        <time>2021-02-27T06:01:08Z</time>
      </trkpt>
      <trkpt lat="45.13344" lon="5.92121">
        <ele>1996.6</ele>
        <time>2021-02-27T06:01:09Z</time>
      </trkpt>
      <trkpt lat="45.13347" lon="5.92127">
        <ele>1996.6</ele>
        <time>2021-02-27T06:01:10Z</time>
      </trkpt>
      <trkpt lat="45.13351" lon="5.92133">
        <ele>1996.6</ele>
        <time>2021-02-27T06:01:11Z</time>
      </trkpt>
      <trkpt lat="45.13354" lon="5.92139">
        <ele>1996.6</ele>
        <time>2021-02-27T06:01:12Z</time>
      </trkpt>
      <trkpt lat="45.13358" lon="5.92145">
        <ele>1991.2</ele>
        <time>2021-02-27T06:01:13Z</time>
      </trkpt>
      <trkpt lat="45.13367" lon="5.92154">
        <ele>1991.2</ele>
        <time>2021-02-27T06:01:14Z</time>
      </trkpt>
      <trkpt lat="45.13371" lon="5.92158">
        <ele>1991.2</ele>
        <time>2021-02-27T06:01:15Z</time>
      </trkpt>
      <trkpt lat="45.13376" lon="5.92161">
        <ele>1991.2</ele>
        <time>2021-02-27T06:01:16Z</time>
      </trkpt>
      <trkpt lat="45.13381" lon="5.92165">
        <ele>1991.2</ele>
        <time>2021-02-27T06:01:17Z</time>
      </trkpt>
      <trkpt lat="45.13385" lon="5.92168">
        <ele>1991.2</ele>
        <time>2021-02-27T06:01:18Z</time>
      </trkpt>
      <trkpt lat="45.1339" lon="5.92172">
        <ele>1991.2</ele>
        <time>2021-02-27T06:01:19Z</time>
      </trkpt>
      <trkpt lat="45.13394" lon="5.92176">
        <ele>1991.2</ele>
        <time>2021-02-27T06:01:20Z</time>
      </trkpt>
      <trkpt lat="45.13399" lon="5.92179">
        <ele>1991.2</ele>
        <time>2021-02-27T06:01:21Z</time>
      </trkpt>
      <trkpt lat="45.13403" lon="5.92183">
        <ele>1991.2</ele>
        <time>2021-02-27T06:01:22Z</time>
      </trkpt>
      <trkpt lat="45.13408" lon="5.92186">
        <ele>1985.4</ele>
        <time>2021-02-27T06:01:23Z</time>
      </trkpt>
      <trkpt lat="45.13417" lon="5.92188">
        <ele>1985.4</ele>
        <time>2021-02-27T06:01:24Z</time>
      </trkpt>
      <trkpt lat="45.13421" lon="5.92188">
        <ele>1985.4</ele>
        <time>2021-02-27T06:01:25Z</time>
      </trkpt>
      <trkpt lat="45.13425" lon="5.92189">
        <ele>1985.4</ele>
        <time>2021-02-27T06:01:26Z</time>
      </trkpt>
      <trkpt lat="45.13429" lon="5.92189">
        <ele>1985.4</ele>
        <time>2021-02-27T06:01:27Z</time>
      </trkpt>
      <trkpt lat="45.13432" lon="5.9219">
        <ele>1985.4</ele>
        <time>2021-02-27T06:01:29Z</time>
      </trkpt>
      <trkpt lat="45.13436" lon="5.9219">
        <ele>1985.4</ele>
        <time>2021-02-27T06:01:30Z</time>
      </trkpt>
      <trkpt lat="45.1344" lon="5.92191">
        <ele>1985.4</ele>
        <time>2021-02-27T06:01:31Z</time>
      </trkpt>
      <trkpt lat="45.13444" lon="5.92191">
        <ele>1985.4</ele>
        <time>2021-02-27T06:01:32Z</time>
      </trkpt>
      <trkpt lat="45.13448" lon="5.92192">
        <ele>1982.6</ele>
        <time>2021-02-27T06:01:33Z</time>
      </trkpt>
      <trkpt lat="45.13456" lon="5.92193">
        <ele>1982.6</ele>
        <time>2021-02-27T06:01:34Z</time>
      </trkpt>
      <trkpt lat="45.1346" lon="5.92195">
        <ele>1982.6</ele>
        <time>2021-02-27T06:01:35Z</time>
      </trkpt>
      <trkpt lat="45.13464" lon="5.92196">
        <ele>1982.6</ele>
        <time>2021-02-27T06:01:36Z</time>
      </trkpt>
      <trkpt lat="45.13468" lon="5.92197">
        <ele>1982.6</ele>
        <time>2021-02-27T06:01:37Z</time>
      </trkpt>
      <trkpt lat="45.13472" lon="5.92198">
        <ele>1982.6</ele>
        <time>2021-02-27T06:01:38Z</time>
      </trkpt>
      <trkpt lat="45.13476" lon="5.922">
        <ele>1982.6</ele>
        <time>2021-02-27T06:01:39Z</time>
      </trkpt>
      <trkpt lat="45.1348" lon="5.92201">
        <ele>1982.6</ele>
        <time>2021-02-27T06:01:40Z</time>
      </trkpt>
      <trkpt lat="45.13484" lon="5.92202">
        <ele>1982.6</ele>
        <time>2021-02-27T06:01:41Z</time>
      </trkpt>
      <trkpt lat="45.13488" lon="5.92203">
        <ele>1982.6</ele>
        <time>2021-02-27T06:01:42Z</time>
      </trkpt>
      <trkpt lat="45.13492" lon="5.92205">
        <ele>1979.2</ele>
        <time>2021-02-27T06:01:43Z</time>
      </trkpt>
      <trkpt lat="45.13502" lon="5.92208">
        <ele>1979.2</ele>
        <time>2021-02-27T06:01:44Z</time>
      </trkpt>
      <trkpt lat="45.13507" lon="5.9221">
        <ele>1979.2</ele>
        <time>2021-02-27T06:01:45Z</time>
      </trkpt>
      <trkpt lat="45.13512" lon="5.92211">
        <ele>1979.2</ele>
        <time>2021-02-27T06:01:46Z</time>
      </trkpt>
      <trkpt lat="45.13518" lon="5.92213">
        <ele>1979.2</ele>
        <time>2021-02-27T06:01:47Z</time>
      </trkpt>
      <trkpt lat="45.13523" lon="5.92215">
        <ele>1979.2</ele>
        <time>2021-02-27T06:01:48Z</time>
      </trkpt>
      <trkpt lat="45.13528" lon="5.92216">
        <ele>1979.2</ele>
        <time>2021-02-27T06:01:49Z</time>
      </trkpt>
      <trkpt lat="45.13534" lon="5.92218">
        <ele>1979.2</ele>
        <time>2021-02-27T06:01:50Z</time>
      </trkpt>
      <trkpt lat="45.13539" lon="5.92219">
        <ele>1979.2</ele>
        <time>2021-02-27T06:01:51Z</time>
      </trkpt>
      <trkpt lat="45.13544" lon="5.92221">
        <ele>1979.2</ele>
        <time>2021-02-27T06:01:52Z</time>
      </trkpt>
      <trkpt lat="45.1355" lon="5.92222">
        <ele>1971.8</ele>
        <time>2021-02-27T06:01:53Z</time>
      </trkpt>
      <trkpt lat="45.13557" lon="5.92225">
        <ele>1971.8</ele>
        <time>2021-02-27T06:01:54Z</time>
      </trkpt>
      <trkpt lat="45.13561" lon="5.92227">
        <ele>1971.8</ele>
        <time>2021-02-27T06:01:55Z</time>
      </trkpt>
      <trkpt lat="45.13564" lon="5.92228">
        <ele>1971.8</ele>
        <time>2021-02-27T06:01:56Z</time>
      </trkpt>
      <trkpt lat="45.13568" lon="5.9223">
        <ele>1971.8</ele>
        <time>2021-02-27T06:01:57Z</time>
      </trkpt>
      <trkpt lat="45.13571" lon="5.92231">
        <ele>1971.8</ele>
        <time>2021-02-27T06:01:58Z</time>
      </trkpt>
      <trkpt lat="45.13575" lon="5.92233">
        <ele>1971.8</ele>
        <time>2021-02-27T06:01:59Z</time>
      </trkpt>
      <trkpt lat="45.13578" lon="5.92235">
        <ele>1971.8</ele>
        <time>2021-02-27T06:02:00Z</time>
      </trkpt>
      <trkpt lat="45.13582" lon="5.92236">
        <ele>1971.8</ele>
        <time>2021-02-27T06:02:01Z</time>
      </trkpt>
      <trkpt lat="45.13585" lon="5.92238">
        <ele>1971.8</ele>
        <time>2021-02-27T06:02:02Z</time>
      </trkpt>
      <trkpt lat="45.13589" lon="5.9224">
        <ele>1968.4</ele>
        <time>2021-02-27T06:02:03Z</time>
      </trkpt>
      <trkpt lat="45.13594" lon="5.92244">
        <ele>1968.4</ele>
        <time>2021-02-27T06:02:04Z</time>
      </trkpt>
      <trkpt lat="45.13597" lon="5.92246">
        <ele>1968.4</ele>
        <time>2021-02-27T06:02:05Z</time>
      </trkpt>
      <trkpt lat="45.136" lon="5.92248">
        <ele>1968.4</ele>
        <time>2021-02-27T06:02:06Z</time>
      </trkpt>
      <trkpt lat="45.13602" lon="5.9225">
        <ele>1968.4</ele>
        <time>2021-02-27T06:02:07Z</time>
      </trkpt>
      <trkpt lat="45.13605" lon="5.92252">
        <ele>1968.4</ele>
        <time>2021-02-27T06:02:08Z</time>
      </trkpt>
      <trkpt lat="45.13608" lon="5.92254">
        <ele>1968.4</ele>
        <time>2021-02-27T06:02:09Z</time>
      </trkpt>
      <trkpt lat="45.1361" lon="5.92256">
        <ele>1968.4</ele>
        <time>2021-02-27T06:02:10Z</time>
      </trkpt>
      <trkpt lat="45.13613" lon="5.92258">
        <ele>1968.4</ele>
        <time>2021-02-27T06:02:11Z</time>
      </trkpt>
      <trkpt lat="45.13616" lon="5.9226">
        <ele>1968.4</ele>
        <time>2021-02-27T06:02:12Z</time>
      </trkpt>
      <trkpt lat="45.13618" lon="5.92262">
        <ele>1968.4</ele>
        <time>2021-02-27T06:02:13Z</time>
      </trkpt>
      <trkpt lat="45.13623" lon="5.92266">
        <ele>1968.4</ele>
        <time>2021-02-27T06:02:14Z</time>
      </trkpt>
      <trkpt lat="45.13625" lon="5.92268">
        <ele>1968.4</ele>
        <time>2021-02-27T06:02:15Z</time>
      </trkpt>
      <trkpt lat="45.13627" lon="5.9227">
        <ele>1968.4</ele>
        <time>2021-02-27T06:02:16Z</time>
      </trkpt>
      <trkpt lat="45.1363" lon="5.92272">
        <ele>1968.4</ele>
        <time>2021-02-27T06:02:17Z</time>
      </trkpt>
      <trkpt lat="45.13632" lon="5.92274">
        <ele>1968.4</ele>
        <time>2021-02-27T06:02:19Z</time>
      </trkpt>
      <trkpt lat="45.13634" lon="5.92277">
        <ele>1968.4</ele>
        <time>2021-02-27T06:02:20Z</time>
      </trkpt>
      <trkpt lat="45.13636" lon="5.92279">
        <ele>1968.4</ele>
        <time>2021-02-27T06:02:21Z</time>
      </trkpt>
      <trkpt lat="45.13639" lon="5.92281">
        <ele>1968.4</ele>
        <time>2021-02-27T06:02:22Z</time>
      </trkpt>
      <trkpt lat="45.13641" lon="5.92283">
        <ele>1968</ele>
        <time>2021-02-27T06:02:23Z</time>
      </trkpt>
      <trkpt lat="45.13645" lon="5.92287">
        <ele>1968</ele>
        <time>2021-02-27T06:02:24Z</time>
      </trkpt>
      <trkpt lat="45.13647" lon="5.92289">
        <ele>1968</ele>
        <time>2021-02-27T06:02:25Z</time>
      </trkpt>
      <trkpt lat="45.13649" lon="5.92291">
        <ele>1968</ele>
        <time>2021-02-27T06:02:26Z</time>
      </trkpt>
      <trkpt lat="45.13651" lon="5.92292">
        <ele>1968</ele>
        <time>2021-02-27T06:02:27Z</time>
      </trkpt>
      <trkpt lat="45.13653" lon="5.92294">
        <ele>1968</ele>
        <time>2021-02-27T06:02:28Z</time>
      </trkpt>
      <trkpt lat="45.13655" lon="5.92296">
        <ele>1968</ele>
        <time>2021-02-27T06:02:29Z</time>
      </trkpt>
      <trkpt lat="45.13657" lon="5.92298">
        <ele>1968</ele>
        <time>2021-02-27T06:02:30Z</time>
      </trkpt>
      <trkpt lat="45.13659" lon="5.92299">
        <ele>1968</ele>
        <time>2021-02-27T06:02:31Z</time>
      </trkpt>
      <trkpt lat="45.13661" lon="5.92301">
        <ele>1968</ele>
        <time>2021-02-27T06:02:32Z</time>
      </trkpt>
      <trkpt lat="45.13663" lon="5.92303">
        <ele>1967</ele>
        <time>2021-02-27T06:02:33Z</time>
      </trkpt>
      <trkpt lat="45.13666" lon="5.92306">
        <ele>1967</ele>
        <time>2021-02-27T06:02:34Z</time>
      </trkpt>
      <trkpt lat="45.13668" lon="5.92307">
        <ele>1967</ele>
        <time>2021-02-27T06:02:36Z</time>
      </trkpt>
      <trkpt lat="45.13669" lon="5.92309">
        <ele>1967</ele>
        <time>2021-02-27T06:02:38Z</time>
      </trkpt>
      <trkpt lat="45.13671" lon="5.92311">
        <ele>1967</ele>
        <time>2021-02-27T06:02:39Z</time>
      </trkpt>
      <trkpt lat="45.13673" lon="5.92312">
        <ele>1967</ele>
        <time>2021-02-27T06:02:40Z</time>
      </trkpt>
      <trkpt lat="45.13674" lon="5.92314">
        <ele>1967</ele>
        <time>2021-02-27T06:02:41Z</time>
      </trkpt>
      <trkpt lat="45.13676" lon="5.92315">
        <ele>1967</ele>
        <time>2021-02-27T06:02:42Z</time>
      </trkpt>
      <trkpt lat="45.13678" lon="5.92317">
        <ele>1968</ele>
        <time>2021-02-27T06:02:43Z</time>
      </trkpt>
      <trkpt lat="45.13683" lon="5.92322">
        <ele>1968</ele>
        <time>2021-02-27T06:02:45Z</time>
      </trkpt>
      <trkpt lat="45.13685" lon="5.92324">
        <ele>1968</ele>
        <time>2021-02-27T06:02:46Z</time>
      </trkpt>
      <trkpt lat="45.13686" lon="5.92327">
        <ele>1968</ele>
        <time>2021-02-27T06:02:47Z</time>
      </trkpt>
      <trkpt lat="45.13688" lon="5.92329">
        <ele>1968</ele>
        <time>2021-02-27T06:02:49Z</time>
      </trkpt>
      <trkpt lat="45.1369" lon="5.92331">
        <ele>1968</ele>
        <time>2021-02-27T06:02:50Z</time>
      </trkpt>
      <trkpt lat="45.13691" lon="5.92334">
        <ele>1968</ele>
        <time>2021-02-27T06:02:52Z</time>
      </trkpt>
      <trkpt lat="45.13693" lon="5.92336">
        <ele>1967.8</ele>
        <time>2021-02-27T06:02:53Z</time>
      </trkpt>
      <trkpt lat="45.13697" lon="5.92341">
        <ele>1967.8</ele>
        <time>2021-02-27T06:02:54Z</time>
      </trkpt>
      <trkpt lat="45.13699" lon="5.92342">
        <ele>1967.8</ele>
        <time>2021-02-27T06:02:55Z</time>
      </trkpt>
      <trkpt lat="45.137" lon="5.92344">
        <ele>1967.8</ele>
        <time>2021-02-27T06:02:56Z</time>
      </trkpt>
      <trkpt lat="45.13702" lon="5.92345">
        <ele>1967.8</ele>
        <time>2021-02-27T06:02:57Z</time>
      </trkpt>
      <trkpt lat="45.13704" lon="5.92347">
        <ele>1967.8</ele>
        <time>2021-02-27T06:02:58Z</time>
      </trkpt>
      <trkpt lat="45.13705" lon="5.92348">
        <ele>1967.8</ele>
        <time>2021-02-27T06:02:59Z</time>
      </trkpt>
      <trkpt lat="45.13707" lon="5.9235">
        <ele>1967.8</ele>
        <time>2021-02-27T06:03:01Z</time>
      </trkpt>
      <trkpt lat="45.13709" lon="5.92351">
        <ele>1968.2</ele>
        <time>2021-02-27T06:03:03Z</time>
      </trkpt>
      <trkpt lat="45.13714" lon="5.92354">
        <ele>1968.2</ele>
        <time>2021-02-27T06:03:05Z</time>
      </trkpt>
      <trkpt lat="45.13715" lon="5.92355">
        <ele>1968.2</ele>
        <time>2021-02-27T06:03:07Z</time>
      </trkpt>
      <trkpt lat="45.13717" lon="5.92357">
        <ele>1968.2</ele>
        <time>2021-02-27T06:03:11Z</time>
      </trkpt>
      <trkpt lat="45.13718" lon="5.92358">
        <ele>1968.2</ele>
        <time>2021-02-27T06:03:12Z</time>
      </trkpt>
      <trkpt lat="45.1372" lon="5.92359">
        <ele>1969.8</ele>
        <time>2021-02-27T06:03:13Z</time>
      </trkpt>
      <trkpt lat="45.13723" lon="5.92363">
        <ele>1969.8</ele>
        <time>2021-02-27T06:03:14Z</time>
      </trkpt>
      <trkpt lat="45.13725" lon="5.92365">
        <ele>1969.8</ele>
        <time>2021-02-27T06:03:15Z</time>
      </trkpt>
      <trkpt lat="45.13727" lon="5.92367">
        <ele>1969.8</ele>
        <time>2021-02-27T06:03:16Z</time>
      </trkpt>
      <trkpt lat="45.13729" lon="5.92369">
        <ele>1969.8</ele>
        <time>2021-02-27T06:03:17Z</time>
      </trkpt>
      <trkpt lat="45.13731" lon="5.92371">
        <ele>1969.8</ele>
        <time>2021-02-27T06:03:18Z</time>
      </trkpt>
      <trkpt lat="45.13733" lon="5.92373">
        <ele>1969.8</ele>
        <time>2021-02-27T06:03:19Z</time>
      </trkpt>
      <trkpt lat="45.13735" lon="5.92375">
        <ele>1969.8</ele>
        <time>2021-02-27T06:03:20Z</time>
      </trkpt>
      <trkpt lat="45.13738" lon="5.92377">
        <ele>1969.8</ele>
        <time>2021-02-27T06:03:21Z</time>
      </trkpt>
      <trkpt lat="45.1374" lon="5.92378">
        <ele>1969.8</ele>
        <time>2021-02-27T06:03:22Z</time>
      </trkpt>
      <trkpt lat="45.13742" lon="5.9238">
        <ele>1970.4</ele>
        <time>2021-02-27T06:03:23Z</time>
      </trkpt>
      <trkpt lat="45.13748" lon="5.92384">
        <ele>1970.4</ele>
        <time>2021-02-27T06:03:24Z</time>
      </trkpt>
      <trkpt lat="45.13751" lon="5.92385">
        <ele>1970.4</ele>
        <time>2021-02-27T06:03:25Z</time>
      </trkpt>
      <trkpt lat="45.13754" lon="5.92386">
        <ele>1970.4</ele>
        <time>2021-02-27T06:03:26Z</time>
      </trkpt>
      <trkpt lat="45.13758" lon="5.92387">
        <ele>1970.4</ele>
        <time>2021-02-27T06:03:27Z</time>
      </trkpt>
      <trkpt lat="45.13761" lon="5.92389">
        <ele>1970.4</ele>
        <time>2021-02-27T06:03:28Z</time>
      </trkpt>
      <trkpt lat="45.13764" lon="5.9239">
        <ele>1970.4</ele>
        <time>2021-02-27T06:03:29Z</time>
      </trkpt>
      <trkpt lat="45.13768" lon="5.92391">
        <ele>1970.4</ele>
        <time>2021-02-27T06:03:30Z</time>
      </trkpt>
      <trkpt lat="45.13771" lon="5.92392">
        <ele>1970.4</ele>
        <time>2021-02-27T06:03:32Z</time>
      </trkpt>
      <trkpt lat="45.13774" lon="5.92393">
        <ele>1969.8</ele>
        <time>2021-02-27T06:03:33Z</time>
      </trkpt>
      <trkpt lat="45.13781" lon="5.92396">
        <ele>1969.8</ele>
        <time>2021-02-27T06:03:34Z</time>
      </trkpt>
      <trkpt lat="45.13784" lon="5.92397">
        <ele>1969.8</ele>
        <time>2021-02-27T06:03:35Z</time>
      </trkpt>
      <trkpt lat="45.13787" lon="5.92398">
        <ele>1969.8</ele>
        <time>2021-02-27T06:03:36Z</time>
      </trkpt>
      <trkpt lat="45.1379" lon="5.92399">
        <ele>1969.8</ele>
        <time>2021-02-27T06:03:37Z</time>
      </trkpt>
      <trkpt lat="45.13793" lon="5.92401">
        <ele>1969.8</ele>
        <time>2021-02-27T06:03:38Z</time>
      </trkpt>
      <trkpt lat="45.13796" lon="5.92402">
        <ele>1969.8</ele>
        <time>2021-02-27T06:03:39Z</time>
      </trkpt>
      <trkpt lat="45.13799" lon="5.92403">
        <ele>1969.8</ele>
        <time>2021-02-27T06:03:40Z</time>
      </trkpt>
      <trkpt lat="45.13802" lon="5.92404">
        <ele>1969.8</ele>
        <time>2021-02-27T06:03:41Z</time>
      </trkpt>
      <trkpt lat="45.13806" lon="5.92405">
        <ele>1969.8</ele>
        <time>2021-02-27T06:03:42Z</time>
      </trkpt>
      <trkpt lat="45.13809" lon="5.92406">
        <ele>1968.2</ele>
        <time>2021-02-27T06:03:43Z</time>
      </trkpt>
      <trkpt lat="45.13816" lon="5.92409">
        <ele>1968.2</ele>
        <time>2021-02-27T06:03:44Z</time>
      </trkpt>
      <trkpt lat="45.1382" lon="5.92412">
        <ele>1968.2</ele>
        <time>2021-02-27T06:03:45Z</time>
      </trkpt>
      <trkpt lat="45.13824" lon="5.92414">
        <ele>1968.2</ele>
        <time>2021-02-27T06:03:47Z</time>
      </trkpt>
      <trkpt lat="45.13828" lon="5.92416">
        <ele>1968.2</ele>
        <time>2021-02-27T06:03:48Z</time>
      </trkpt>
      <trkpt lat="45.13832" lon="5.92418">
        <ele>1968.2</ele>
        <time>2021-02-27T06:03:49Z</time>
      </trkpt>
      <trkpt lat="45.13836" lon="5.9242">
        <ele>1968.2</ele>
        <time>2021-02-27T06:03:50Z</time>
      </trkpt>
      <trkpt lat="45.13841" lon="5.92422">
        <ele>1968.2</ele>
        <time>2021-02-27T06:03:51Z</time>
      </trkpt>
      <trkpt lat="45.13845" lon="5.92424">
        <ele>1968.2</ele>
        <time>2021-02-27T06:03:52Z</time>
      </trkpt>
      <trkpt lat="45.13849" lon="5.92427">
        <ele>1964.8</ele>
        <time>2021-02-27T06:03:53Z</time>
      </trkpt>
      <trkpt lat="45.13856" lon="5.92429">
        <ele>1964.8</ele>
        <time>2021-02-27T06:03:54Z</time>
      </trkpt>
      <trkpt lat="45.13859" lon="5.92429">
        <ele>1964.8</ele>
        <time>2021-02-27T06:03:55Z</time>
      </trkpt>
      <trkpt lat="45.13863" lon="5.92429">
        <ele>1964.8</ele>
        <time>2021-02-27T06:03:56Z</time>
      </trkpt>
      <trkpt lat="45.13867" lon="5.92429">
        <ele>1964.8</ele>
        <time>2021-02-27T06:03:57Z</time>
      </trkpt>
      <trkpt lat="45.1387" lon="5.92429">
        <ele>1964.8</ele>
        <time>2021-02-27T06:03:58Z</time>
      </trkpt>
      <trkpt lat="45.13874" lon="5.92429">
        <ele>1964.8</ele>
        <time>2021-02-27T06:03:59Z</time>
      </trkpt>
      <trkpt lat="45.13878" lon="5.92429">
        <ele>1964.8</ele>
        <time>2021-02-27T06:04:00Z</time>
      </trkpt>
      <trkpt lat="45.13881" lon="5.92428">
        <ele>1964.8</ele>
        <time>2021-02-27T06:04:01Z</time>
      </trkpt>
      <trkpt lat="45.13885" lon="5.92428">
        <ele>1962</ele>
        <time>2021-02-27T06:04:03Z</time>
      </trkpt>
      <trkpt lat="45.13892" lon="5.92428">
        <ele>1962</ele>
        <time>2021-02-27T06:04:04Z</time>
      </trkpt>
      <trkpt lat="45.13895" lon="5.92427">
        <ele>1962</ele>
        <time>2021-02-27T06:04:05Z</time>
      </trkpt>
      <trkpt lat="45.13898" lon="5.92426">
        <ele>1962</ele>
        <time>2021-02-27T06:04:06Z</time>
      </trkpt>
      <trkpt lat="45.13901" lon="5.92426">
        <ele>1962</ele>
        <time>2021-02-27T06:04:07Z</time>
      </trkpt>
      <trkpt lat="45.13904" lon="5.92425">
        <ele>1962</ele>
        <time>2021-02-27T06:04:08Z</time>
      </trkpt>
      <trkpt lat="45.13907" lon="5.92424">
        <ele>1962</ele>
        <time>2021-02-27T06:04:10Z</time>
      </trkpt>
      <trkpt lat="45.1391" lon="5.92423">
        <ele>1962</ele>
        <time>2021-02-27T06:04:11Z</time>
      </trkpt>
      <trkpt lat="45.13913" lon="5.92422">
        <ele>1959.8</ele>
        <time>2021-02-27T06:04:13Z</time>
      </trkpt>
      <trkpt lat="45.13915" lon="5.92421">
        <ele>1959.8</ele>
        <time>2021-02-27T06:04:14Z</time>
      </trkpt>
      <trkpt lat="45.13918" lon="5.92419">
        <ele>1959.8</ele>
        <time>2021-02-27T06:04:15Z</time>
      </trkpt>
      <trkpt lat="45.1392" lon="5.92417">
        <ele>1959.8</ele>
        <time>2021-02-27T06:04:16Z</time>
      </trkpt>
      <trkpt lat="45.13923" lon="5.92416">
        <ele>1959.8</ele>
        <time>2021-02-27T06:04:18Z</time>
      </trkpt>
      <trkpt lat="45.13923" lon="5.92416">
        <ele>1960</ele>
        <time>2021-02-27T06:04:23Z</time>
      </trkpt>
      <trkpt lat="45.13923" lon="5.92416">
        <ele>1959.4</ele>
        <time>2021-02-27T06:04:33Z</time>
      </trkpt>
      <trkpt lat="45.13923" lon="5.92417">
        <ele>1959.4</ele>
        <time>2021-02-27T06:04:39Z</time>
      </trkpt>
      <trkpt lat="45.13923" lon="5.92418">
        <ele>1960.6</ele>
        <time>2021-02-27T06:04:43Z</time>
      </trkpt>
      <trkpt lat="45.13922" lon="5.92418">
        <ele>1960.6</ele>
        <time>2021-02-27T06:04:47Z</time>
      </trkpt>
      <trkpt lat="45.13922" lon="5.92419">
        <ele>1960.4</ele>
        <time>2021-02-27T06:04:53Z</time>
      </trkpt>
      <trkpt lat="45.13922" lon="5.9242">
        <ele>1960.4</ele>
        <time>2021-02-27T06:04:58Z</time>
      </trkpt>
      <trkpt lat="45.13922" lon="5.9242">
        <ele>1960.4</ele>
        <time>2021-02-27T06:05:03Z</time>
      </trkpt>
      <trkpt lat="45.13922" lon="5.92421">
        <ele>1959.2</ele>
        <time>2021-02-27T06:05:13Z</time>
      </trkpt>
      <trkpt lat="45.13922" lon="5.92421">
        <ele>1960.4</ele>
        <time>2021-02-27T06:05:23Z</time>
      </trkpt>
      <trkpt lat="45.13922" lon="5.92422">
        <ele>1959.8</ele>
        <time>2021-02-27T06:05:33Z</time>
      </trkpt>
      <trkpt lat="45.13921" lon="5.92423">
        <ele>1959.8</ele>
        <time>2021-02-27T06:05:43Z</time>
      </trkpt>
      <trkpt lat="45.13921" lon="5.92423">
        <ele>1958.4</ele>
        <time>2021-02-27T06:05:53Z</time>
      </trkpt>
      <trkpt lat="45.13921" lon="5.92424">
        <ele>1958.8</ele>
        <time>2021-02-27T06:06:03Z</time>
      </trkpt>
      <trkpt lat="45.13921" lon="5.92425">
        <ele>1959.8</ele>
        <time>2021-02-27T06:06:13Z</time>
      </trkpt>
      <trkpt lat="45.13921" lon="5.92425">
        <ele>1959.8</ele>
        <time>2021-02-27T06:06:18Z</time>
      </trkpt>
      <trkpt lat="45.13921" lon="5.92426">
        <ele>1959.8</ele>
        <time>2021-02-27T06:06:20Z</time>
      </trkpt>
      <trkpt lat="45.1392" lon="5.92426">
        <ele>1959.8</ele>
        <time>2021-02-27T06:06:22Z</time>
      </trkpt>
      <trkpt lat="45.1392" lon="5.92427">
        <ele>1961.2</ele>
        <time>2021-02-27T06:06:23Z</time>
      </trkpt>
      <trkpt lat="45.1392" lon="5.92431">
        <ele>1961.2</ele>
        <time>2021-02-27T06:06:24Z</time>
      </trkpt>
      <trkpt lat="45.13919" lon="5.92434">
        <ele>1961.2</ele>
        <time>2021-02-27T06:06:27Z</time>
      </trkpt>
      <trkpt lat="45.13921" lon="5.92435">
        <ele>1961.2</ele>
        <time>2021-02-27T06:06:31Z</time>
      </trkpt>
      <trkpt lat="45.13921" lon="5.92435">
        <ele>1963.8</ele>
        <time>2021-02-27T06:06:33Z</time>
      </trkpt>
      <trkpt lat="45.13923" lon="5.92437">
        <ele>1963.8</ele>
        <time>2021-02-27T06:06:35Z</time>
      </trkpt>
      <trkpt lat="45.13925" lon="5.92438">
        <ele>1963.8</ele>
        <time>2021-02-27T06:06:38Z</time>
      </trkpt>
      <trkpt lat="45.13925" lon="5.92438">
        <ele>1966.8</ele>
        <time>2021-02-27T06:06:43Z</time>
      </trkpt>
      <trkpt lat="45.13927" lon="5.92439">
        <ele>1966.8</ele>
        <time>2021-02-27T06:06:44Z</time>
      </trkpt>
      <trkpt lat="45.13929" lon="5.92439">
        <ele>1966.8</ele>
        <time>2021-02-27T06:06:50Z</time>
      </trkpt>
      <trkpt lat="45.13929" lon="5.92439">
        <ele>1969.4</ele>
        <time>2021-02-27T06:06:53Z</time>
      </trkpt>
      <trkpt lat="45.13932" lon="5.92439">
        <ele>1969.4</ele>
        <time>2021-02-27T06:06:55Z</time>
      </trkpt>
      <trkpt lat="45.13932" lon="5.92439">
        <ele>1972</ele>
        <time>2021-02-27T06:07:03Z</time>
      </trkpt>
      <trkpt lat="45.13933" lon="5.92441">
        <ele>1972</ele>
        <time>2021-02-27T06:07:04Z</time>
      </trkpt>
      <trkpt lat="45.13935" lon="5.92442">
        <ele>1972</ele>
        <time>2021-02-27T06:07:08Z</time>
      </trkpt>
      <trkpt lat="45.13937" lon="5.92442">
        <ele>1973.6</ele>
        <time>2021-02-27T06:07:13Z</time>
      </trkpt>
      <trkpt lat="45.13936" lon="5.92445">
        <ele>1973.6</ele>
        <time>2021-02-27T06:07:20Z</time>
      </trkpt>
      <trkpt lat="45.13936" lon="5.92445">
        <ele>1976.2</ele>
        <time>2021-02-27T06:07:23Z</time>
      </trkpt>
      <trkpt lat="45.13937" lon="5.92448">
        <ele>1976.2</ele>
        <time>2021-02-27T06:07:26Z</time>
      </trkpt>
      <trkpt lat="45.13939" lon="5.92449">
        <ele>1976.2</ele>
        <time>2021-02-27T06:07:29Z</time>
      </trkpt>
      <trkpt lat="45.13939" lon="5.92449">
        <ele>1979</ele>
        <time>2021-02-27T06:07:33Z</time>
      </trkpt>
      <trkpt lat="45.1394" lon="5.9245">
        <ele>1979</ele>
        <time>2021-02-27T06:07:35Z</time>
      </trkpt>
      <trkpt lat="45.1394" lon="5.92454">
        <ele>1979</ele>
        <time>2021-02-27T06:07:42Z</time>
      </trkpt>
      <trkpt lat="45.1394" lon="5.92454">
        <ele>1981.8</ele>
        <time>2021-02-27T06:07:43Z</time>
      </trkpt>
      <trkpt lat="45.13941" lon="5.92457">
        <ele>1981.8</ele>
        <time>2021-02-27T06:07:48Z</time>
      </trkpt>
      <trkpt lat="45.13942" lon="5.92459">
        <ele>1984.6</ele>
        <time>2021-02-27T06:07:53Z</time>
      </trkpt>
      <trkpt lat="45.13943" lon="5.92461">
        <ele>1986.6</ele>
        <time>2021-02-27T06:08:03Z</time>
      </trkpt>
      <trkpt lat="45.13943" lon="5.92462">
        <ele>1986.6</ele>
        <time>2021-02-27T06:08:10Z</time>
      </trkpt>
      <trkpt lat="45.13944" lon="5.92464">
        <ele>1988.8</ele>
        <time>2021-02-27T06:08:13Z</time>
      </trkpt>
      <trkpt lat="45.13944" lon="5.92466">
        <ele>1988.8</ele>
        <time>2021-02-27T06:08:15Z</time>
      </trkpt>
      <trkpt lat="45.13945" lon="5.92467">
        <ele>1988.8</ele>
        <time>2021-02-27T06:08:18Z</time>
      </trkpt>
      <trkpt lat="45.13946" lon="5.92469">
        <ele>1991.6</ele>
        <time>2021-02-27T06:08:23Z</time>
      </trkpt>
      <trkpt lat="45.13946" lon="5.92471">
        <ele>1991.6</ele>
        <time>2021-02-27T06:08:28Z</time>
      </trkpt>
      <trkpt lat="45.13947" lon="5.92472">
        <ele>1991.6</ele>
        <time>2021-02-27T06:08:32Z</time>
      </trkpt>
      <trkpt lat="45.13947" lon="5.92474">
        <ele>1993.4</ele>
        <time>2021-02-27T06:08:33Z</time>
      </trkpt>
      <trkpt lat="45.13949" lon="5.92476">
        <ele>1993.4</ele>
        <time>2021-02-27T06:08:36Z</time>
      </trkpt>
      <trkpt lat="45.13948" lon="5.92478">
        <ele>1993.4</ele>
        <time>2021-02-27T06:08:38Z</time>
      </trkpt>
      <trkpt lat="45.13946" lon="5.9248">
        <ele>1993.4</ele>
        <time>2021-02-27T06:08:41Z</time>
      </trkpt>
      <trkpt lat="45.13946" lon="5.9248">
        <ele>1997.2</ele>
        <time>2021-02-27T06:08:43Z</time>
      </trkpt>
      <trkpt lat="45.13948" lon="5.92481">
        <ele>1997.2</ele>
        <time>2021-02-27T06:08:49Z</time>
      </trkpt>
      <trkpt lat="45.1395" lon="5.92481">
        <ele>1997.2</ele>
        <time>2021-02-27T06:08:52Z</time>
      </trkpt>
      <trkpt lat="45.1395" lon="5.92481">
        <ele>1999</ele>
        <time>2021-02-27T06:08:53Z</time>
      </trkpt>
      <trkpt lat="45.13952" lon="5.92482">
        <ele>1999</ele>
        <time>2021-02-27T06:08:56Z</time>
      </trkpt>
      <trkpt lat="45.13954" lon="5.92483">
        <ele>1999</ele>
        <time>2021-02-27T06:09:01Z</time>
      </trkpt>
      <trkpt lat="45.13954" lon="5.92483">
        <ele>2002</ele>
        <time>2021-02-27T06:09:03Z</time>
      </trkpt>
      <trkpt lat="45.13956" lon="5.92483">
        <ele>2002</ele>
        <time>2021-02-27T06:09:06Z</time>
      </trkpt>
      <trkpt lat="45.13957" lon="5.92486">
        <ele>2002</ele>
        <time>2021-02-27T06:09:10Z</time>
      </trkpt>
      <trkpt lat="45.13957" lon="5.92486">
        <ele>2005</ele>
        <time>2021-02-27T06:09:13Z</time>
      </trkpt>
      <trkpt lat="45.13959" lon="5.92486">
        <ele>2005</ele>
        <time>2021-02-27T06:09:16Z</time>
      </trkpt>
      <trkpt lat="45.13961" lon="5.92487">
        <ele>2005</ele>
        <time>2021-02-27T06:09:21Z</time>
      </trkpt>
      <trkpt lat="45.13961" lon="5.92487">
        <ele>2007</ele>
        <time>2021-02-27T06:09:23Z</time>
      </trkpt>
      <trkpt lat="45.13963" lon="5.9249">
        <ele>2007</ele>
        <time>2021-02-27T06:09:25Z</time>
      </trkpt>
      <trkpt lat="45.13964" lon="5.9249">
        <ele>2007</ele>
        <time>2021-02-27T06:09:29Z</time>
      </trkpt>
      <trkpt lat="45.13965" lon="5.92491">
        <ele>2009.4</ele>
        <time>2021-02-27T06:09:33Z</time>
      </trkpt>
      <trkpt lat="45.13966" lon="5.92492">
        <ele>2009.4</ele>
        <time>2021-02-27T06:09:35Z</time>
      </trkpt>
      <trkpt lat="45.13967" lon="5.92493">
        <ele>2009.4</ele>
        <time>2021-02-27T06:09:38Z</time>
      </trkpt>
      <trkpt lat="45.13968" lon="5.92493">
        <ele>2012.4</ele>
        <time>2021-02-27T06:09:43Z</time>
      </trkpt>
      <trkpt lat="45.13969" lon="5.92494">
        <ele>2012.4</ele>
        <time>2021-02-27T06:09:44Z</time>
      </trkpt>
      <trkpt lat="45.1397" lon="5.92495">
        <ele>2012.4</ele>
        <time>2021-02-27T06:09:48Z</time>
      </trkpt>
      <trkpt lat="45.13971" lon="5.92496">
        <ele>2012.4</ele>
        <time>2021-02-27T06:09:52Z</time>
      </trkpt>
      <trkpt lat="45.13972" lon="5.92496">
        <ele>2014.2</ele>
        <time>2021-02-27T06:09:53Z</time>
      </trkpt>
      <trkpt lat="45.13973" lon="5.92499">
        <ele>2014.2</ele>
        <time>2021-02-27T06:09:57Z</time>
      </trkpt>
      <trkpt lat="45.13974" lon="5.92501">
        <ele>2014.2</ele>
        <time>2021-02-27T06:10:02Z</time>
      </trkpt>
      <trkpt lat="45.13974" lon="5.92501">
        <ele>2016.8</ele>
        <time>2021-02-27T06:10:03Z</time>
      </trkpt>
      <trkpt lat="45.13976" lon="5.92502">
        <ele>2016.8</ele>
        <time>2021-02-27T06:10:08Z</time>
      </trkpt>
      <trkpt lat="45.13978" lon="5.92503">
        <ele>2019</ele>
        <time>2021-02-27T06:10:13Z</time>
      </trkpt>
      <trkpt lat="45.13979" lon="5.92506">
        <ele>2019</ele>
        <time>2021-02-27T06:10:17Z</time>
      </trkpt>
      <trkpt lat="45.13979" lon="5.92506">
        <ele>2022</ele>
        <time>2021-02-27T06:10:23Z</time>
      </trkpt>
      <trkpt lat="45.13982" lon="5.92508">
        <ele>2022</ele>
        <time>2021-02-27T06:10:25Z</time>
      </trkpt>
      <trkpt lat="45.13982" lon="5.92511">
        <ele>2022</ele>
        <time>2021-02-27T06:10:28Z</time>
      </trkpt>
      <trkpt lat="45.13981" lon="5.92512">
        <ele>2022</ele>
        <time>2021-02-27T06:10:30Z</time>
      </trkpt>
      <trkpt lat="45.13981" lon="5.92512">
        <ele>2024.6</ele>
        <time>2021-02-27T06:10:33Z</time>
      </trkpt>
      <trkpt lat="45.13979" lon="5.92515">
        <ele>2024.6</ele>
        <time>2021-02-27T06:10:34Z</time>
      </trkpt>
      <trkpt lat="45.13977" lon="5.92518">
        <ele>2024.6</ele>
        <time>2021-02-27T06:10:37Z</time>
      </trkpt>
      <trkpt lat="45.13976" lon="5.9252">
        <ele>2024.6</ele>
        <time>2021-02-27T06:10:41Z</time>
      </trkpt>
      <trkpt lat="45.13976" lon="5.9252">
        <ele>2026.2</ele>
        <time>2021-02-27T06:10:43Z</time>
      </trkpt>
      <trkpt lat="45.13977" lon="5.92523">
        <ele>2026.2</ele>
        <time>2021-02-27T06:10:44Z</time>
      </trkpt>
      <trkpt lat="45.13977" lon="5.92525">
        <ele>2026.2</ele>
        <time>2021-02-27T06:10:48Z</time>
      </trkpt>
      <trkpt lat="45.13977" lon="5.92529">
        <ele>2026.2</ele>
        <time>2021-02-27T06:10:51Z</time>
      </trkpt>
      <trkpt lat="45.13977" lon="5.92529">
        <ele>2029</ele>
        <time>2021-02-27T06:10:53Z</time>
      </trkpt>
      <trkpt lat="45.13976" lon="5.92533">
        <ele>2029</ele>
        <time>2021-02-27T06:10:54Z</time>
      </trkpt>
      <trkpt lat="45.13976" lon="5.92534">
        <ele>2029</ele>
        <time>2021-02-27T06:10:58Z</time>
      </trkpt>
      <trkpt lat="45.13976" lon="5.92536">
        <ele>2029</ele>
        <time>2021-02-27T06:11:02Z</time>
      </trkpt>
      <trkpt lat="45.13976" lon="5.92537">
        <ele>2031.2</ele>
        <time>2021-02-27T06:11:03Z</time>
      </trkpt>
      <trkpt lat="45.13976" lon="5.92541">
        <ele>2031.2</ele>
        <time>2021-02-27T06:11:05Z</time>
      </trkpt>
      <trkpt lat="45.13976" lon="5.92543">
        <ele>2031.2</ele>
        <time>2021-02-27T06:11:08Z</time>
      </trkpt>
      <trkpt lat="45.13976" lon="5.92544">
        <ele>2031.2</ele>
        <time>2021-02-27T06:11:12Z</time>
      </trkpt>
      <trkpt lat="45.13976" lon="5.92545">
        <ele>2032.6</ele>
        <time>2021-02-27T06:11:13Z</time>
      </trkpt>
      <trkpt lat="45.13977" lon="5.92547">
        <ele>2033</ele>
        <time>2021-02-27T06:11:23Z</time>
      </trkpt>
      <trkpt lat="45.13977" lon="5.92548">
        <ele>2033.8</ele>
        <time>2021-02-27T06:11:33Z</time>
      </trkpt>
      <trkpt lat="45.13977" lon="5.9255">
        <ele>2033.8</ele>
        <time>2021-02-27T06:11:43Z</time>
      </trkpt>
      <trkpt lat="45.13977" lon="5.92551">
        <ele>2033.8</ele>
        <time>2021-02-27T06:11:49Z</time>
      </trkpt>
      <trkpt lat="45.13977" lon="5.92553">
        <ele>2033.8</ele>
        <time>2021-02-27T06:11:51Z</time>
      </trkpt>
      <trkpt lat="45.13978" lon="5.92554">
        <ele>2033.8</ele>
        <time>2021-02-27T06:11:52Z</time>
      </trkpt>
      <trkpt lat="45.13978" lon="5.92556">
        <ele>2033.4</ele>
        <time>2021-02-27T06:11:53Z</time>
      </trkpt>
      <trkpt lat="45.13979" lon="5.92563">
        <ele>2033.4</ele>
        <time>2021-02-27T06:11:54Z</time>
      </trkpt>
      <trkpt lat="45.1398" lon="5.92566">
        <ele>2033.4</ele>
        <time>2021-02-27T06:11:56Z</time>
      </trkpt>
      <trkpt lat="45.1398" lon="5.92568">
        <ele>2033.4</ele>
        <time>2021-02-27T06:11:58Z</time>
      </trkpt>
      <trkpt lat="45.13981" lon="5.92571">
        <ele>2033.4</ele>
        <time>2021-02-27T06:12:00Z</time>
      </trkpt>
      <trkpt lat="45.13981" lon="5.92574">
        <ele>2033.4</ele>
        <time>2021-02-27T06:12:02Z</time>
      </trkpt>
      <trkpt lat="45.13982" lon="5.92577">
        <ele>2035.2</ele>
        <time>2021-02-27T06:12:03Z</time>
      </trkpt>
      <trkpt lat="45.13982" lon="5.9258">
        <ele>2035.2</ele>
        <time>2021-02-27T06:12:04Z</time>
      </trkpt>
      <trkpt lat="45.13983" lon="5.92582">
        <ele>2035.2</ele>
        <time>2021-02-27T06:12:07Z</time>
      </trkpt>
      <trkpt lat="45.13983" lon="5.92584">
        <ele>2035.2</ele>
        <time>2021-02-27T06:12:10Z</time>
      </trkpt>
      <trkpt lat="45.13984" lon="5.92586">
        <ele>2035.2</ele>
        <time>2021-02-27T06:12:12Z</time>
      </trkpt>
      <trkpt lat="45.13984" lon="5.92588">
        <ele>2037</ele>
        <time>2021-02-27T06:12:13Z</time>
      </trkpt>
      <trkpt lat="45.13987" lon="5.92594">
        <ele>2037</ele>
        <time>2021-02-27T06:12:15Z</time>
      </trkpt>
      <trkpt lat="45.13988" lon="5.92596">
        <ele>2037</ele>
        <time>2021-02-27T06:12:18Z</time>
      </trkpt>
      <trkpt lat="45.13989" lon="5.92598">
        <ele>2037</ele>
        <time>2021-02-27T06:12:20Z</time>
      </trkpt>
      <trkpt lat="45.1399" lon="5.926">
        <ele>2037</ele>
        <time>2021-02-27T06:12:22Z</time>
      </trkpt>
      <trkpt lat="45.13991" lon="5.92603">
        <ele>2038.6</ele>
        <time>2021-02-27T06:12:23Z</time>
      </trkpt>
      <trkpt lat="45.13991" lon="5.92605">
        <ele>2038.6</ele>
        <time>2021-02-27T06:12:25Z</time>
      </trkpt>
      <trkpt lat="45.1399" lon="5.92609">
        <ele>2038.6</ele>
        <time>2021-02-27T06:12:27Z</time>
      </trkpt>
      <trkpt lat="45.13991" lon="5.92612">
        <ele>2038.6</ele>
        <time>2021-02-27T06:12:29Z</time>
      </trkpt>
      <trkpt lat="45.1399" lon="5.92615">
        <ele>2038.6</ele>
        <time>2021-02-27T06:12:31Z</time>
      </trkpt>
      <trkpt lat="45.13991" lon="5.92618">
        <ele>2040.6</ele>
        <time>2021-02-27T06:12:33Z</time>
      </trkpt>
      <trkpt lat="45.13991" lon="5.92623">
        <ele>2040.6</ele>
        <time>2021-02-27T06:12:35Z</time>
      </trkpt>
      <trkpt lat="45.13992" lon="5.92625">
        <ele>2040.6</ele>
        <time>2021-02-27T06:12:37Z</time>
      </trkpt>
      <trkpt lat="45.13992" lon="5.92627">
        <ele>2040.6</ele>
        <time>2021-02-27T06:12:40Z</time>
      </trkpt>
      <trkpt lat="45.13992" lon="5.9263">
        <ele>2040.6</ele>
        <time>2021-02-27T06:12:42Z</time>
      </trkpt>
      <trkpt lat="45.13993" lon="5.92632">
        <ele>2043</ele>
        <time>2021-02-27T06:12:43Z</time>
      </trkpt>
      <trkpt lat="45.13994" lon="5.92632">
        <ele>2043</ele>
        <time>2021-02-27T06:12:44Z</time>
      </trkpt>
      <trkpt lat="45.13996" lon="5.92634">
        <ele>2043</ele>
        <time>2021-02-27T06:12:47Z</time>
      </trkpt>
      <trkpt lat="45.13995" lon="5.92638">
        <ele>2043</ele>
        <time>2021-02-27T06:12:50Z</time>
      </trkpt>
      <trkpt lat="45.13995" lon="5.92638">
        <ele>2045.4</ele>
        <time>2021-02-27T06:12:53Z</time>
      </trkpt>
      <trkpt lat="45.13996" lon="5.92643">
        <ele>2045.4</ele>
        <time>2021-02-27T06:12:54Z</time>
      </trkpt>
      <trkpt lat="45.13997" lon="5.92646">
        <ele>2045.4</ele>
        <time>2021-02-27T06:12:56Z</time>
      </trkpt>
      <trkpt lat="45.13997" lon="5.92648">
        <ele>2045.4</ele>
        <time>2021-02-27T06:12:58Z</time>
      </trkpt>
      <trkpt lat="45.13997" lon="5.92651">
        <ele>2045.4</ele>
        <time>2021-02-27T06:13:00Z</time>
      </trkpt>
      <trkpt lat="45.13999" lon="5.92653">
        <ele>2047.8</ele>
        <time>2021-02-27T06:13:03Z</time>
      </trkpt>
      <trkpt lat="45.13999" lon="5.92657">
        <ele>2047.8</ele>
        <time>2021-02-27T06:13:06Z</time>
      </trkpt>
      <trkpt lat="45.13999" lon="5.9266">
        <ele>2047.8</ele>
        <time>2021-02-27T06:13:08Z</time>
      </trkpt>
      <trkpt lat="45.14" lon="5.92663">
        <ele>2047.8</ele>
        <time>2021-02-27T06:13:11Z</time>
      </trkpt>
      <trkpt lat="45.14" lon="5.92663">
        <ele>2050.4</ele>
        <time>2021-02-27T06:13:13Z</time>
      </trkpt>
      <trkpt lat="45.14" lon="5.92666">
        <ele>2050.4</ele>
        <time>2021-02-27T06:13:14Z</time>
      </trkpt>
      <trkpt lat="45.14" lon="5.92669">
        <ele>2050.4</ele>
        <time>2021-02-27T06:13:17Z</time>
      </trkpt>
      <trkpt lat="45.14002" lon="5.92672">
        <ele>2050.4</ele>
        <time>2021-02-27T06:13:20Z</time>
      </trkpt>
      <trkpt lat="45.14003" lon="5.92674">
        <ele>2053.8</ele>
        <time>2021-02-27T06:13:23Z</time>
      </trkpt>
      <trkpt lat="45.14005" lon="5.92678">
        <ele>2053.8</ele>
        <time>2021-02-27T06:13:25Z</time>
      </trkpt>
      <trkpt lat="45.14006" lon="5.92679">
        <ele>2053.8</ele>
        <time>2021-02-27T06:13:27Z</time>
      </trkpt>
      <trkpt lat="45.14006" lon="5.92681">
        <ele>2053.8</ele>
        <time>2021-02-27T06:13:29Z</time>
      </trkpt>
      <trkpt lat="45.14006" lon="5.92683">
        <ele>2053.8</ele>
        <time>2021-02-27T06:13:32Z</time>
      </trkpt>
      <trkpt lat="45.14007" lon="5.92685">
        <ele>2057.8</ele>
        <time>2021-02-27T06:13:33Z</time>
      </trkpt>
      <trkpt lat="45.14006" lon="5.92688">
        <ele>2057.8</ele>
        <time>2021-02-27T06:13:35Z</time>
      </trkpt>
      <trkpt lat="45.14007" lon="5.9269">
        <ele>2057.8</ele>
        <time>2021-02-27T06:13:37Z</time>
      </trkpt>
      <trkpt lat="45.14008" lon="5.92692">
        <ele>2057.8</ele>
        <time>2021-02-27T06:13:39Z</time>
      </trkpt>
      <trkpt lat="45.1401" lon="5.92694">
        <ele>2057.8</ele>
        <time>2021-02-27T06:13:41Z</time>
      </trkpt>
      <trkpt lat="45.1401" lon="5.92696">
        <ele>2060.2</ele>
        <time>2021-02-27T06:13:43Z</time>
      </trkpt>
      <trkpt lat="45.14011" lon="5.92701">
        <ele>2060.2</ele>
        <time>2021-02-27T06:13:45Z</time>
      </trkpt>
      <trkpt lat="45.14011" lon="5.92703">
        <ele>2060.2</ele>
        <time>2021-02-27T06:13:48Z</time>
      </trkpt>
      <trkpt lat="45.14011" lon="5.92705">
        <ele>2060.2</ele>
        <time>2021-02-27T06:13:50Z</time>
      </trkpt>
      <trkpt lat="45.14011" lon="5.92706">
        <ele>2060.2</ele>
        <time>2021-02-27T06:13:52Z</time>
      </trkpt>
      <trkpt lat="45.14011" lon="5.92708">
        <ele>2062.4</ele>
        <time>2021-02-27T06:13:53Z</time>
      </trkpt>
      <trkpt lat="45.14011" lon="5.92713">
        <ele>2062.4</ele>
        <time>2021-02-27T06:13:55Z</time>
      </trkpt>
      <trkpt lat="45.14011" lon="5.92715">
        <ele>2062.4</ele>
        <time>2021-02-27T06:13:57Z</time>
      </trkpt>
      <trkpt lat="45.14011" lon="5.92717">
        <ele>2062.4</ele>
        <time>2021-02-27T06:14:00Z</time>
      </trkpt>
      <trkpt lat="45.14012" lon="5.92719">
        <ele>2062.4</ele>
        <time>2021-02-27T06:14:02Z</time>
      </trkpt>
      <trkpt lat="45.14012" lon="5.92721">
        <ele>2065.4</ele>
        <time>2021-02-27T06:14:03Z</time>
      </trkpt>
      <trkpt lat="45.14014" lon="5.92724">
        <ele>2065.4</ele>
        <time>2021-02-27T06:14:05Z</time>
      </trkpt>
      <trkpt lat="45.14014" lon="5.92727">
        <ele>2065.4</ele>
        <time>2021-02-27T06:14:08Z</time>
      </trkpt>
      <trkpt lat="45.14015" lon="5.9273">
        <ele>2065.4</ele>
        <time>2021-02-27T06:14:11Z</time>
      </trkpt>
      <trkpt lat="45.14015" lon="5.9273">
        <ele>2068.8</ele>
        <time>2021-02-27T06:14:13Z</time>
      </trkpt>
      <trkpt lat="45.14015" lon="5.92733">
        <ele>2068.8</ele>
        <time>2021-02-27T06:14:14Z</time>
      </trkpt>
      <trkpt lat="45.14016" lon="5.92735">
        <ele>2068.8</ele>
        <time>2021-02-27T06:14:17Z</time>
      </trkpt>
      <trkpt lat="45.14017" lon="5.92738">
        <ele>2068.8</ele>
        <time>2021-02-27T06:14:21Z</time>
      </trkpt>
      <trkpt lat="45.14017" lon="5.92738">
        <ele>2071.8</ele>
        <time>2021-02-27T06:14:23Z</time>
      </trkpt>
      <trkpt lat="45.14017" lon="5.92741">
        <ele>2071.8</ele>
        <time>2021-02-27T06:14:25Z</time>
      </trkpt>
      <trkpt lat="45.14018" lon="5.92744">
        <ele>2071.8</ele>
        <time>2021-02-27T06:14:28Z</time>
      </trkpt>
      <trkpt lat="45.14019" lon="5.92746">
        <ele>2071.8</ele>
        <time>2021-02-27T06:14:31Z</time>
      </trkpt>
      <trkpt lat="45.14019" lon="5.92746">
        <ele>2075</ele>
        <time>2021-02-27T06:14:33Z</time>
      </trkpt>
      <trkpt lat="45.14019" lon="5.92749">
        <ele>2075</ele>
        <time>2021-02-27T06:14:34Z</time>
      </trkpt>
      <trkpt lat="45.1402" lon="5.92751">
        <ele>2075</ele>
        <time>2021-02-27T06:14:37Z</time>
      </trkpt>
      <trkpt lat="45.1402" lon="5.92754">
        <ele>2075</ele>
        <time>2021-02-27T06:14:41Z</time>
      </trkpt>
      <trkpt lat="45.1402" lon="5.92754">
        <ele>2078</ele>
        <time>2021-02-27T06:14:43Z</time>
      </trkpt>
      <trkpt lat="45.14022" lon="5.92758">
        <ele>2078</ele>
        <time>2021-02-27T06:14:44Z</time>
      </trkpt>
      <trkpt lat="45.14023" lon="5.92759">
        <ele>2078</ele>
        <time>2021-02-27T06:14:47Z</time>
      </trkpt>
      <trkpt lat="45.14024" lon="5.92761">
        <ele>2078</ele>
        <time>2021-02-27T06:14:50Z</time>
      </trkpt>
      <trkpt lat="45.14024" lon="5.92762">
        <ele>2078</ele>
        <time>2021-02-27T06:14:52Z</time>
      </trkpt>
      <trkpt lat="45.14025" lon="5.92764">
        <ele>2081.4</ele>
        <time>2021-02-27T06:14:53Z</time>
      </trkpt>
      <trkpt lat="45.14029" lon="5.92767">
        <ele>2081.4</ele>
        <time>2021-02-27T06:14:54Z</time>
      </trkpt>
      <trkpt lat="45.1403" lon="5.92768">
        <ele>2081.4</ele>
        <time>2021-02-27T06:14:56Z</time>
      </trkpt>
      <trkpt lat="45.14031" lon="5.9277">
        <ele>2081.4</ele>
        <time>2021-02-27T06:14:58Z</time>
      </trkpt>
      <trkpt lat="45.14032" lon="5.92771">
        <ele>2081.4</ele>
        <time>2021-02-27T06:15:00Z</time>
      </trkpt>
      <trkpt lat="45.14033" lon="5.92773">
        <ele>2081.4</ele>
        <time>2021-02-27T06:15:02Z</time>
      </trkpt>
      <trkpt lat="45.14034" lon="5.92775">
        <ele>2084.4</ele>
        <time>2021-02-27T06:15:03Z</time>
      </trkpt>
      <trkpt lat="45.14036" lon="5.92778">
        <ele>2084.4</ele>
        <time>2021-02-27T06:15:04Z</time>
      </trkpt>
      <trkpt lat="45.14037" lon="5.9278">
        <ele>2084.4</ele>
        <time>2021-02-27T06:15:06Z</time>
      </trkpt>
      <trkpt lat="45.14039" lon="5.92783">
        <ele>2084.4</ele>
        <time>2021-02-27T06:15:08Z</time>
      </trkpt>
      <trkpt lat="45.1404" lon="5.92785">
        <ele>2084.4</ele>
        <time>2021-02-27T06:15:10Z</time>
      </trkpt>
      <trkpt lat="45.14041" lon="5.92787">
        <ele>2084.4</ele>
        <time>2021-02-27T06:15:12Z</time>
      </trkpt>
      <trkpt lat="45.14042" lon="5.9279">
        <ele>2086.2</ele>
        <time>2021-02-27T06:15:13Z</time>
      </trkpt>
      <trkpt lat="45.14043" lon="5.92791">
        <ele>2086.2</ele>
        <time>2021-02-27T06:15:14Z</time>
      </trkpt>
      <trkpt lat="45.14045" lon="5.92794">
        <ele>2086.2</ele>
        <time>2021-02-27T06:15:16Z</time>
      </trkpt>
      <trkpt lat="45.14046" lon="5.92796">
        <ele>2086.2</ele>
        <time>2021-02-27T06:15:17Z</time>
      </trkpt>
      <trkpt lat="45.14048" lon="5.92799">
        <ele>2086.2</ele>
        <time>2021-02-27T06:15:19Z</time>
      </trkpt>
      <trkpt lat="45.1405" lon="5.92802">
        <ele>2086.2</ele>
        <time>2021-02-27T06:15:21Z</time>
      </trkpt>
      <trkpt lat="45.14051" lon="5.92805">
        <ele>2088.2</ele>
        <time>2021-02-27T06:15:23Z</time>
      </trkpt>
      <trkpt lat="45.14053" lon="5.92807">
        <ele>2088.2</ele>
        <time>2021-02-27T06:15:25Z</time>
      </trkpt>
      <trkpt lat="45.14055" lon="5.9281">
        <ele>2088.2</ele>
        <time>2021-02-27T06:15:27Z</time>
      </trkpt>
      <trkpt lat="45.14056" lon="5.92812">
        <ele>2088.2</ele>
        <time>2021-02-27T06:15:29Z</time>
      </trkpt>
      <trkpt lat="45.14058" lon="5.92815">
        <ele>2088.2</ele>
        <time>2021-02-27T06:15:31Z</time>
      </trkpt>
      <trkpt lat="45.1406" lon="5.92818">
        <ele>2089.6</ele>
        <time>2021-02-27T06:15:33Z</time>
      </trkpt>
      <trkpt lat="45.14062" lon="5.92823">
        <ele>2089.6</ele>
        <time>2021-02-27T06:15:35Z</time>
      </trkpt>
      <trkpt lat="45.14063" lon="5.92824">
        <ele>2089.6</ele>
        <time>2021-02-27T06:15:37Z</time>
      </trkpt>
      <trkpt lat="45.14064" lon="5.92826">
        <ele>2089.6</ele>
        <time>2021-02-27T06:15:39Z</time>
      </trkpt>
      <trkpt lat="45.14064" lon="5.92828">
        <ele>2089.6</ele>
        <time>2021-02-27T06:15:40Z</time>
      </trkpt>
      <trkpt lat="45.14065" lon="5.9283">
        <ele>2089.6</ele>
        <time>2021-02-27T06:15:42Z</time>
      </trkpt>
      <trkpt lat="45.14066" lon="5.92832">
        <ele>2092</ele>
        <time>2021-02-27T06:15:43Z</time>
      </trkpt>
      <trkpt lat="45.14067" lon="5.92836">
        <ele>2092</ele>
        <time>2021-02-27T06:15:44Z</time>
      </trkpt>
      <trkpt lat="45.14068" lon="5.92838">
        <ele>2092</ele>
        <time>2021-02-27T06:15:46Z</time>
      </trkpt>
      <trkpt lat="45.14069" lon="5.9284">
        <ele>2092</ele>
        <time>2021-02-27T06:15:48Z</time>
      </trkpt>
      <trkpt lat="45.1407" lon="5.92842">
        <ele>2092</ele>
        <time>2021-02-27T06:15:50Z</time>
      </trkpt>
      <trkpt lat="45.1407" lon="5.92845">
        <ele>2092</ele>
        <time>2021-02-27T06:15:52Z</time>
      </trkpt>
      <trkpt lat="45.14071" lon="5.92847">
        <ele>2094.4</ele>
        <time>2021-02-27T06:15:53Z</time>
      </trkpt>
      <trkpt lat="45.14073" lon="5.9285">
        <ele>2094.4</ele>
        <time>2021-02-27T06:15:54Z</time>
      </trkpt>
      <trkpt lat="45.14074" lon="5.92851">
        <ele>2094.4</ele>
        <time>2021-02-27T06:15:56Z</time>
      </trkpt>
      <trkpt lat="45.14075" lon="5.92853">
        <ele>2094.4</ele>
        <time>2021-02-27T06:15:58Z</time>
      </trkpt>
      <trkpt lat="45.14076" lon="5.92855">
        <ele>2094.4</ele>
        <time>2021-02-27T06:16:00Z</time>
      </trkpt>
      <trkpt lat="45.14077" lon="5.92857">
        <ele>2094.4</ele>
        <time>2021-02-27T06:16:02Z</time>
      </trkpt>
      <trkpt lat="45.14078" lon="5.92858">
        <ele>2096.6</ele>
        <time>2021-02-27T06:16:03Z</time>
      </trkpt>
      <trkpt lat="45.14078" lon="5.92862">
        <ele>2096.6</ele>
        <time>2021-02-27T06:16:04Z</time>
      </trkpt>
      <trkpt lat="45.14079" lon="5.92864">
        <ele>2096.6</ele>
        <time>2021-02-27T06:16:06Z</time>
      </trkpt>
      <trkpt lat="45.14079" lon="5.92866">
        <ele>2096.6</ele>
        <time>2021-02-27T06:16:08Z</time>
      </trkpt>
      <trkpt lat="45.14079" lon="5.92869">
        <ele>2096.6</ele>
        <time>2021-02-27T06:16:10Z</time>
      </trkpt>
      <trkpt lat="45.1408" lon="5.92871">
        <ele>2096.6</ele>
        <time>2021-02-27T06:16:12Z</time>
      </trkpt>
      <trkpt lat="45.1408" lon="5.92873">
        <ele>2098.4</ele>
        <time>2021-02-27T06:16:13Z</time>
      </trkpt>
      <trkpt lat="45.1408" lon="5.92874">
        <ele>2098.4</ele>
        <time>2021-02-27T06:16:14Z</time>
      </trkpt>
      <trkpt lat="45.14081" lon="5.92877">
        <ele>2098.4</ele>
        <time>2021-02-27T06:16:16Z</time>
      </trkpt>
      <trkpt lat="45.14082" lon="5.9288">
        <ele>2098.4</ele>
        <time>2021-02-27T06:16:19Z</time>
      </trkpt>
      <trkpt lat="45.14082" lon="5.92883">
        <ele>2098.4</ele>
        <time>2021-02-27T06:16:21Z</time>
      </trkpt>
      <trkpt lat="45.14083" lon="5.92886">
        <ele>2100.8</ele>
        <time>2021-02-27T06:16:23Z</time>
      </trkpt>
      <trkpt lat="45.14083" lon="5.92889">
        <ele>2100.8</ele>
        <time>2021-02-27T06:16:25Z</time>
      </trkpt>
      <trkpt lat="45.14083" lon="5.92892">
        <ele>2100.8</ele>
        <time>2021-02-27T06:16:27Z</time>
      </trkpt>
      <trkpt lat="45.14083" lon="5.92895">
        <ele>2100.8</ele>
        <time>2021-02-27T06:16:30Z</time>
      </trkpt>
      <trkpt lat="45.14082" lon="5.92898">
        <ele>2103.4</ele>
        <time>2021-02-27T06:16:33Z</time>
      </trkpt>
      <trkpt lat="45.14084" lon="5.92898">
        <ele>2103.4</ele>
        <time>2021-02-27T06:16:38Z</time>
      </trkpt>
      <trkpt lat="45.14086" lon="5.92897">
        <ele>2103.4</ele>
        <time>2021-02-27T06:16:40Z</time>
      </trkpt>
      <trkpt lat="45.14086" lon="5.92897">
        <ele>2104.6</ele>
        <time>2021-02-27T06:16:43Z</time>
      </trkpt>
      <trkpt lat="45.14089" lon="5.92897">
        <ele>2104.6</ele>
        <time>2021-02-27T06:16:45Z</time>
      </trkpt>
      <trkpt lat="45.14091" lon="5.92899">
        <ele>2104.6</ele>
        <time>2021-02-27T06:16:49Z</time>
      </trkpt>
      <trkpt lat="45.14092" lon="5.92902">
        <ele>2107.4</ele>
        <time>2021-02-27T06:16:53Z</time>
      </trkpt>
      <trkpt lat="45.14092" lon="5.92904">
        <ele>2107.4</ele>
        <time>2021-02-27T06:16:57Z</time>
      </trkpt>
      <trkpt lat="45.14092" lon="5.92904">
        <ele>2110.4</ele>
        <time>2021-02-27T06:17:03Z</time>
      </trkpt>
      <trkpt lat="45.14093" lon="5.92906">
        <ele>2110.4</ele>
        <time>2021-02-27T06:17:04Z</time>
      </trkpt>
      <trkpt lat="45.14096" lon="5.92906">
        <ele>2110.4</ele>
        <time>2021-02-27T06:17:07Z</time>
      </trkpt>
      <trkpt lat="45.14098" lon="5.92906">
        <ele>2110.4</ele>
        <time>2021-02-27T06:17:10Z</time>
      </trkpt>
      <trkpt lat="45.14098" lon="5.92906">
        <ele>2113.6</ele>
        <time>2021-02-27T06:17:13Z</time>
      </trkpt>
      <trkpt lat="45.141" lon="5.92909">
        <ele>2113.6</ele>
        <time>2021-02-27T06:17:14Z</time>
      </trkpt>
      <trkpt lat="45.14101" lon="5.92911">
        <ele>2113.6</ele>
        <time>2021-02-27T06:17:17Z</time>
      </trkpt>
      <trkpt lat="45.14102" lon="5.92913">
        <ele>2113.6</ele>
        <time>2021-02-27T06:17:19Z</time>
      </trkpt>
      <trkpt lat="45.14103" lon="5.92915">
        <ele>2113.6</ele>
        <time>2021-02-27T06:17:22Z</time>
      </trkpt>
      <trkpt lat="45.14103" lon="5.92917">
        <ele>2117.2</ele>
        <time>2021-02-27T06:17:23Z</time>
      </trkpt>
      <trkpt lat="45.14106" lon="5.92922">
        <ele>2117.2</ele>
        <time>2021-02-27T06:17:24Z</time>
      </trkpt>
      <trkpt lat="45.14107" lon="5.92924">
        <ele>2117.2</ele>
        <time>2021-02-27T06:17:26Z</time>
      </trkpt>
      <trkpt lat="45.14109" lon="5.92926">
        <ele>2117.2</ele>
        <time>2021-02-27T06:17:28Z</time>
      </trkpt>
      <trkpt lat="45.1411" lon="5.92928">
        <ele>2117.2</ele>
        <time>2021-02-27T06:17:30Z</time>
      </trkpt>
      <trkpt lat="45.14112" lon="5.9293">
        <ele>2117.2</ele>
        <time>2021-02-27T06:17:32Z</time>
      </trkpt>
      <trkpt lat="45.14113" lon="5.92932">
        <ele>2119.2</ele>
        <time>2021-02-27T06:17:33Z</time>
      </trkpt>
      <trkpt lat="45.14116" lon="5.92935">
        <ele>2119.2</ele>
        <time>2021-02-27T06:17:34Z</time>
      </trkpt>
      <trkpt lat="45.14117" lon="5.92937">
        <ele>2119.2</ele>
        <time>2021-02-27T06:17:36Z</time>
      </trkpt>
      <trkpt lat="45.14119" lon="5.92939">
        <ele>2119.2</ele>
        <time>2021-02-27T06:17:38Z</time>
      </trkpt>
      <trkpt lat="45.1412" lon="5.92941">
        <ele>2119.2</ele>
        <time>2021-02-27T06:17:40Z</time>
      </trkpt>
      <trkpt lat="45.14121" lon="5.92943">
        <ele>2119.2</ele>
        <time>2021-02-27T06:17:42Z</time>
      </trkpt>
      <trkpt lat="45.14123" lon="5.92945">
        <ele>2121.2</ele>
        <time>2021-02-27T06:17:43Z</time>
      </trkpt>
      <trkpt lat="45.14125" lon="5.92948">
        <ele>2121.2</ele>
        <time>2021-02-27T06:17:44Z</time>
      </trkpt>
      <trkpt lat="45.14126" lon="5.9295">
        <ele>2121.2</ele>
        <time>2021-02-27T06:17:45Z</time>
      </trkpt>
      <trkpt lat="45.14128" lon="5.92953">
        <ele>2121.2</ele>
        <time>2021-02-27T06:17:47Z</time>
      </trkpt>
      <trkpt lat="45.14129" lon="5.92955">
        <ele>2121.2</ele>
        <time>2021-02-27T06:17:48Z</time>
      </trkpt>
      <trkpt lat="45.1413" lon="5.92958">
        <ele>2121.2</ele>
        <time>2021-02-27T06:17:50Z</time>
      </trkpt>
      <trkpt lat="45.14132" lon="5.9296">
        <ele>2121.2</ele>
        <time>2021-02-27T06:17:51Z</time>
      </trkpt>
      <trkpt lat="45.14133" lon="5.92962">
        <ele>2121.2</ele>
        <time>2021-02-27T06:17:52Z</time>
      </trkpt>
      <trkpt lat="45.14135" lon="5.92965">
        <ele>2121</ele>
        <time>2021-02-27T06:17:53Z</time>
      </trkpt>
      <trkpt lat="45.14137" lon="5.92969">
        <ele>2121</ele>
        <time>2021-02-27T06:17:54Z</time>
      </trkpt>
      <trkpt lat="45.14138" lon="5.92971">
        <ele>2121</ele>
        <time>2021-02-27T06:17:56Z</time>
      </trkpt>
      <trkpt lat="45.1414" lon="5.92973">
        <ele>2121</ele>
        <time>2021-02-27T06:17:58Z</time>
      </trkpt>
      <trkpt lat="45.14141" lon="5.92975">
        <ele>2121</ele>
        <time>2021-02-27T06:18:00Z</time>
      </trkpt>
      <trkpt lat="45.14143" lon="5.92977">
        <ele>2121</ele>
        <time>2021-02-27T06:18:02Z</time>
      </trkpt>
      <trkpt lat="45.14144" lon="5.92979">
        <ele>2122</ele>
        <time>2021-02-27T06:18:03Z</time>
      </trkpt>
      <trkpt lat="45.14145" lon="5.92981">
        <ele>2122</ele>
        <time>2021-02-27T06:18:04Z</time>
      </trkpt>
      <trkpt lat="45.14147" lon="5.92982">
        <ele>2122</ele>
        <time>2021-02-27T06:18:06Z</time>
      </trkpt>
      <trkpt lat="45.14149" lon="5.92985">
        <ele>2122</ele>
        <time>2021-02-27T06:18:09Z</time>
      </trkpt>
      <trkpt lat="45.14151" lon="5.92987">
        <ele>2122</ele>
        <time>2021-02-27T06:18:11Z</time>
      </trkpt>
      <trkpt lat="45.14151" lon="5.92987">
        <ele>2123.4</ele>
        <time>2021-02-27T06:18:13Z</time>
      </trkpt>
      <trkpt lat="45.14153" lon="5.92989">
        <ele>2123.4</ele>
        <time>2021-02-27T06:18:14Z</time>
      </trkpt>
      <trkpt lat="45.14155" lon="5.92992">
        <ele>2123.4</ele>
        <time>2021-02-27T06:18:16Z</time>
      </trkpt>
      <trkpt lat="45.14157" lon="5.92993">
        <ele>2123.4</ele>
        <time>2021-02-27T06:18:18Z</time>
      </trkpt>
      <trkpt lat="45.14158" lon="5.92995">
        <ele>2123.4</ele>
        <time>2021-02-27T06:18:20Z</time>
      </trkpt>
      <trkpt lat="45.14158" lon="5.92995">
        <ele>2126</ele>
        <time>2021-02-27T06:18:23Z</time>
      </trkpt>
      <trkpt lat="45.1416" lon="5.92998">
        <ele>2126</ele>
        <time>2021-02-27T06:18:28Z</time>
      </trkpt>
      <trkpt lat="45.14161" lon="5.93">
        <ele>2126</ele>
        <time>2021-02-27T06:18:31Z</time>
      </trkpt>
      <trkpt lat="45.14161" lon="5.93">
        <ele>2127.4</ele>
        <time>2021-02-27T06:18:33Z</time>
      </trkpt>
      <trkpt lat="45.14162" lon="5.93003">
        <ele>2127.4</ele>
        <time>2021-02-27T06:18:34Z</time>
      </trkpt>
      <trkpt lat="45.14164" lon="5.93005">
        <ele>2127.4</ele>
        <time>2021-02-27T06:18:36Z</time>
      </trkpt>
      <trkpt lat="45.14165" lon="5.93008">
        <ele>2127.4</ele>
        <time>2021-02-27T06:18:39Z</time>
      </trkpt>
      <trkpt lat="45.14166" lon="5.93011">
        <ele>2127.4</ele>
        <time>2021-02-27T06:18:41Z</time>
      </trkpt>
      <trkpt lat="45.14166" lon="5.93011">
        <ele>2129.8</ele>
        <time>2021-02-27T06:18:43Z</time>
      </trkpt>
      <trkpt lat="45.14168" lon="5.93016">
        <ele>2129.8</ele>
        <time>2021-02-27T06:18:44Z</time>
      </trkpt>
      <trkpt lat="45.14168" lon="5.93018">
        <ele>2129.8</ele>
        <time>2021-02-27T06:18:46Z</time>
      </trkpt>
      <trkpt lat="45.14169" lon="5.9302">
        <ele>2129.8</ele>
        <time>2021-02-27T06:18:48Z</time>
      </trkpt>
      <trkpt lat="45.14169" lon="5.93022">
        <ele>2129.8</ele>
        <time>2021-02-27T06:18:50Z</time>
      </trkpt>
      <trkpt lat="45.1417" lon="5.93025">
        <ele>2129.8</ele>
        <time>2021-02-27T06:18:52Z</time>
      </trkpt>
      <trkpt lat="45.1417" lon="5.93027">
        <ele>2132.6</ele>
        <time>2021-02-27T06:18:53Z</time>
      </trkpt>
      <trkpt lat="45.14171" lon="5.93028">
        <ele>2132.6</ele>
        <time>2021-02-27T06:18:54Z</time>
      </trkpt>
      <trkpt lat="45.14173" lon="5.93031">
        <ele>2132.6</ele>
        <time>2021-02-27T06:18:57Z</time>
      </trkpt>
      <trkpt lat="45.14175" lon="5.93033">
        <ele>2132.6</ele>
        <time>2021-02-27T06:18:59Z</time>
      </trkpt>
      <trkpt lat="45.14176" lon="5.93035">
        <ele>2132.6</ele>
        <time>2021-02-27T06:19:01Z</time>
      </trkpt>
      <trkpt lat="45.14176" lon="5.93035">
        <ele>2135.8</ele>
        <time>2021-02-27T06:19:03Z</time>
      </trkpt>
      <trkpt lat="45.1418" lon="5.93038">
        <ele>2135.8</ele>
        <time>2021-02-27T06:19:04Z</time>
      </trkpt>
      <trkpt lat="45.14181" lon="5.9304">
        <ele>2135.8</ele>
        <time>2021-02-27T06:19:06Z</time>
      </trkpt>
      <trkpt lat="45.14183" lon="5.93041">
        <ele>2135.8</ele>
        <time>2021-02-27T06:19:08Z</time>
      </trkpt>
      <trkpt lat="45.14184" lon="5.93043">
        <ele>2135.8</ele>
        <time>2021-02-27T06:19:10Z</time>
      </trkpt>
      <trkpt lat="45.14185" lon="5.93045">
        <ele>2135.8</ele>
        <time>2021-02-27T06:19:12Z</time>
      </trkpt>
      <trkpt lat="45.14187" lon="5.93046">
        <ele>2139</ele>
        <time>2021-02-27T06:19:13Z</time>
      </trkpt>
      <trkpt lat="45.14189" lon="5.93049">
        <ele>2139</ele>
        <time>2021-02-27T06:19:14Z</time>
      </trkpt>
      <trkpt lat="45.1419" lon="5.93051">
        <ele>2139</ele>
        <time>2021-02-27T06:19:16Z</time>
      </trkpt>
      <trkpt lat="45.14192" lon="5.93053">
        <ele>2139</ele>
        <time>2021-02-27T06:19:18Z</time>
      </trkpt>
      <trkpt lat="45.14193" lon="5.93055">
        <ele>2139</ele>
        <time>2021-02-27T06:19:19Z</time>
      </trkpt>
      <trkpt lat="45.14195" lon="5.93056">
        <ele>2139</ele>
        <time>2021-02-27T06:19:20Z</time>
      </trkpt>
      <trkpt lat="45.14196" lon="5.93058">
        <ele>2139</ele>
        <time>2021-02-27T06:19:22Z</time>
      </trkpt>
      <trkpt lat="45.14197" lon="5.9306">
        <ele>2140.2</ele>
        <time>2021-02-27T06:19:23Z</time>
      </trkpt>
      <trkpt lat="45.14199" lon="5.93064">
        <ele>2140.2</ele>
        <time>2021-02-27T06:19:24Z</time>
      </trkpt>
      <trkpt lat="45.142" lon="5.93067">
        <ele>2140.2</ele>
        <time>2021-02-27T06:19:26Z</time>
      </trkpt>
      <trkpt lat="45.14201" lon="5.93069">
        <ele>2140.2</ele>
        <time>2021-02-27T06:19:28Z</time>
      </trkpt>
      <trkpt lat="45.14202" lon="5.93072">
        <ele>2140.2</ele>
        <time>2021-02-27T06:19:30Z</time>
      </trkpt>
      <trkpt lat="45.14203" lon="5.93074">
        <ele>2140.2</ele>
        <time>2021-02-27T06:19:32Z</time>
      </trkpt>
      <trkpt lat="45.14204" lon="5.93077">
        <ele>2141.4</ele>
        <time>2021-02-27T06:19:33Z</time>
      </trkpt>
      <trkpt lat="45.14204" lon="5.93079">
        <ele>2141.4</ele>
        <time>2021-02-27T06:19:34Z</time>
      </trkpt>
      <trkpt lat="45.14205" lon="5.93082">
        <ele>2141.4</ele>
        <time>2021-02-27T06:19:36Z</time>
      </trkpt>
      <trkpt lat="45.14206" lon="5.93084">
        <ele>2141.4</ele>
        <time>2021-02-27T06:19:37Z</time>
      </trkpt>
      <trkpt lat="45.14209" lon="5.93087">
        <ele>2141.4</ele>
        <time>2021-02-27T06:19:39Z</time>
      </trkpt>
      <trkpt lat="45.1421" lon="5.93091">
        <ele>2141.4</ele>
        <time>2021-02-27T06:19:41Z</time>
      </trkpt>
      <trkpt lat="45.14211" lon="5.93095">
        <ele>2143.2</ele>
        <time>2021-02-27T06:19:43Z</time>
      </trkpt>
      <trkpt lat="45.14213" lon="5.93102">
        <ele>2143.2</ele>
        <time>2021-02-27T06:19:45Z</time>
      </trkpt>
      <trkpt lat="45.14214" lon="5.93104">
        <ele>2143.2</ele>
        <time>2021-02-27T06:19:47Z</time>
      </trkpt>
      <trkpt lat="45.14215" lon="5.93107">
        <ele>2143.2</ele>
        <time>2021-02-27T06:19:48Z</time>
      </trkpt>
      <trkpt lat="45.14215" lon="5.9311">
        <ele>2143.2</ele>
        <time>2021-02-27T06:19:50Z</time>
      </trkpt>
      <trkpt lat="45.14216" lon="5.93112">
        <ele>2143.2</ele>
        <time>2021-02-27T06:19:52Z</time>
      </trkpt>
      <trkpt lat="45.14217" lon="5.93115">
        <ele>2144.6</ele>
        <time>2021-02-27T06:19:53Z</time>
      </trkpt>
      <trkpt lat="45.14218" lon="5.93119">
        <ele>2144.6</ele>
        <time>2021-02-27T06:19:54Z</time>
      </trkpt>
      <trkpt lat="45.14219" lon="5.93122">
        <ele>2144.6</ele>
        <time>2021-02-27T06:19:56Z</time>
      </trkpt>
      <trkpt lat="45.1422" lon="5.93125">
        <ele>2144.6</ele>
        <time>2021-02-27T06:19:58Z</time>
      </trkpt>
      <trkpt lat="45.14221" lon="5.93128">
        <ele>2144.6</ele>
        <time>2021-02-27T06:19:59Z</time>
      </trkpt>
      <trkpt lat="45.14222" lon="5.9313">
        <ele>2144.6</ele>
        <time>2021-02-27T06:20:00Z</time>
      </trkpt>
      <trkpt lat="45.14223" lon="5.93133">
        <ele>2144.6</ele>
        <time>2021-02-27T06:20:01Z</time>
      </trkpt>
      <trkpt lat="45.14224" lon="5.93136">
        <ele>2144.6</ele>
        <time>2021-02-27T06:20:02Z</time>
      </trkpt>
      <trkpt lat="45.14225" lon="5.93138">
        <ele>2143.4</ele>
        <time>2021-02-27T06:20:03Z</time>
      </trkpt>
      <trkpt lat="45.14228" lon="5.93144">
        <ele>2143.4</ele>
        <time>2021-02-27T06:20:04Z</time>
      </trkpt>
      <trkpt lat="45.14229" lon="5.93147">
        <ele>2143.4</ele>
        <time>2021-02-27T06:20:06Z</time>
      </trkpt>
      <trkpt lat="45.1423" lon="5.9315">
        <ele>2143.4</ele>
        <time>2021-02-27T06:20:08Z</time>
      </trkpt>
      <trkpt lat="45.14232" lon="5.93153">
        <ele>2143.4</ele>
        <time>2021-02-27T06:20:10Z</time>
      </trkpt>
      <trkpt lat="45.14233" lon="5.93155">
        <ele>2143.4</ele>
        <time>2021-02-27T06:20:12Z</time>
      </trkpt>
      <trkpt lat="45.14234" lon="5.93158">
        <ele>2143</ele>
        <time>2021-02-27T06:20:13Z</time>
      </trkpt>
      <trkpt lat="45.14237" lon="5.93166">
        <ele>2143</ele>
        <time>2021-02-27T06:20:15Z</time>
      </trkpt>
      <trkpt lat="45.14238" lon="5.93169">
        <ele>2143</ele>
        <time>2021-02-27T06:20:16Z</time>
      </trkpt>
      <trkpt lat="45.14239" lon="5.93171">
        <ele>2143</ele>
        <time>2021-02-27T06:20:17Z</time>
      </trkpt>
      <trkpt lat="45.1424" lon="5.93174">
        <ele>2143</ele>
        <time>2021-02-27T06:20:19Z</time>
      </trkpt>
      <trkpt lat="45.14242" lon="5.93177">
        <ele>2143</ele>
        <time>2021-02-27T06:20:21Z</time>
      </trkpt>
      <trkpt lat="45.14243" lon="5.9318">
        <ele>2143.6</ele>
        <time>2021-02-27T06:20:23Z</time>
      </trkpt>
      <trkpt lat="45.14245" lon="5.93185">
        <ele>2143.6</ele>
        <time>2021-02-27T06:20:25Z</time>
      </trkpt>
      <trkpt lat="45.14246" lon="5.93187">
        <ele>2143.6</ele>
        <time>2021-02-27T06:20:26Z</time>
      </trkpt>
      <trkpt lat="45.14248" lon="5.93189">
        <ele>2143.6</ele>
        <time>2021-02-27T06:20:28Z</time>
      </trkpt>
      <trkpt lat="45.14249" lon="5.93191">
        <ele>2143.6</ele>
        <time>2021-02-27T06:20:30Z</time>
      </trkpt>
      <trkpt lat="45.1425" lon="5.93193">
        <ele>2143.6</ele>
        <time>2021-02-27T06:20:32Z</time>
      </trkpt>
      <trkpt lat="45.14251" lon="5.93195">
        <ele>2144.2</ele>
        <time>2021-02-27T06:20:33Z</time>
      </trkpt>
      <trkpt lat="45.14252" lon="5.93197">
        <ele>2144.2</ele>
        <time>2021-02-27T06:20:34Z</time>
      </trkpt>
      <trkpt lat="45.14253" lon="5.93199">
        <ele>2144.2</ele>
        <time>2021-02-27T06:20:35Z</time>
      </trkpt>
      <trkpt lat="45.14254" lon="5.93201">
        <ele>2144.2</ele>
        <time>2021-02-27T06:20:37Z</time>
      </trkpt>
      <trkpt lat="45.14256" lon="5.93204">
        <ele>2144.2</ele>
        <time>2021-02-27T06:20:39Z</time>
      </trkpt>
      <trkpt lat="45.14257" lon="5.93207">
        <ele>2144.2</ele>
        <time>2021-02-27T06:20:41Z</time>
      </trkpt>
      <trkpt lat="45.14259" lon="5.9321">
        <ele>2146.8</ele>
        <time>2021-02-27T06:20:43Z</time>
      </trkpt>
      <trkpt lat="45.14262" lon="5.93215">
        <ele>2146.8</ele>
        <time>2021-02-27T06:20:45Z</time>
      </trkpt>
      <trkpt lat="45.14262" lon="5.93217">
        <ele>2146.8</ele>
        <time>2021-02-27T06:20:47Z</time>
      </trkpt>
      <trkpt lat="45.14263" lon="5.93219">
        <ele>2146.8</ele>
        <time>2021-02-27T06:20:48Z</time>
      </trkpt>
      <trkpt lat="45.14264" lon="5.93221">
        <ele>2146.8</ele>
        <time>2021-02-27T06:20:50Z</time>
      </trkpt>
      <trkpt lat="45.14265" lon="5.93223">
        <ele>2146.8</ele>
        <time>2021-02-27T06:20:52Z</time>
      </trkpt>
      <trkpt lat="45.14266" lon="5.93225">
        <ele>2147.6</ele>
        <time>2021-02-27T06:20:53Z</time>
      </trkpt>
      <trkpt lat="45.14267" lon="5.93227">
        <ele>2147.6</ele>
        <time>2021-02-27T06:20:55Z</time>
      </trkpt>
      <trkpt lat="45.14268" lon="5.9323">
        <ele>2147.6</ele>
        <time>2021-02-27T06:20:57Z</time>
      </trkpt>
      <trkpt lat="45.14269" lon="5.93233">
        <ele>2147.6</ele>
        <time>2021-02-27T06:20:59Z</time>
      </trkpt>
      <trkpt lat="45.1427" lon="5.93235">
        <ele>2147.6</ele>
        <time>2021-02-27T06:21:01Z</time>
      </trkpt>
      <trkpt lat="45.14272" lon="5.93239">
        <ele>2146.8</ele>
        <time>2021-02-27T06:21:03Z</time>
      </trkpt>
      <trkpt lat="45.14274" lon="5.93243">
        <ele>2146.8</ele>
        <time>2021-02-27T06:21:05Z</time>
      </trkpt>
      <trkpt lat="45.14275" lon="5.93245">
        <ele>2146.8</ele>
        <time>2021-02-27T06:21:06Z</time>
      </trkpt>
      <trkpt lat="45.14276" lon="5.93247">
        <ele>2146.8</ele>
        <time>2021-02-27T06:21:08Z</time>
      </trkpt>
      <trkpt lat="45.14277" lon="5.93248">
        <ele>2146.8</ele>
        <time>2021-02-27T06:21:11Z</time>
      </trkpt>
      <trkpt lat="45.14278" lon="5.9325">
        <ele>2146.8</ele>
        <time>2021-02-27T06:21:12Z</time>
      </trkpt>
      <trkpt lat="45.14279" lon="5.93252">
        <ele>2147</ele>
        <time>2021-02-27T06:21:13Z</time>
      </trkpt>
      <trkpt lat="45.14281" lon="5.93254">
        <ele>2147</ele>
        <time>2021-02-27T06:21:14Z</time>
      </trkpt>
      <trkpt lat="45.14282" lon="5.93256">
        <ele>2147</ele>
        <time>2021-02-27T06:21:16Z</time>
      </trkpt>
      <trkpt lat="45.14283" lon="5.93257">
        <ele>2147</ele>
        <time>2021-02-27T06:21:18Z</time>
      </trkpt>
      <trkpt lat="45.14285" lon="5.93259">
        <ele>2147</ele>
        <time>2021-02-27T06:21:20Z</time>
      </trkpt>
      <trkpt lat="45.14286" lon="5.93261">
        <ele>2147</ele>
        <time>2021-02-27T06:21:22Z</time>
      </trkpt>
      <trkpt lat="45.14287" lon="5.93262">
        <ele>2148.8</ele>
        <time>2021-02-27T06:21:23Z</time>
      </trkpt>
      <trkpt lat="45.14289" lon="5.93266">
        <ele>2148.8</ele>
        <time>2021-02-27T06:21:25Z</time>
      </trkpt>
      <trkpt lat="45.1429" lon="5.93268">
        <ele>2148.8</ele>
        <time>2021-02-27T06:21:27Z</time>
      </trkpt>
      <trkpt lat="45.14292" lon="5.9327">
        <ele>2148.8</ele>
        <time>2021-02-27T06:21:30Z</time>
      </trkpt>
      <trkpt lat="45.14293" lon="5.93272">
        <ele>2148.8</ele>
        <time>2021-02-27T06:21:32Z</time>
      </trkpt>
      <trkpt lat="45.14294" lon="5.93274">
        <ele>2151</ele>
        <time>2021-02-27T06:21:33Z</time>
      </trkpt>
      <trkpt lat="45.14295" lon="5.93275">
        <ele>2151</ele>
        <time>2021-02-27T06:21:34Z</time>
      </trkpt>
      <trkpt lat="45.14296" lon="5.93277">
        <ele>2151</ele>
        <time>2021-02-27T06:21:36Z</time>
      </trkpt>
      <trkpt lat="45.14298" lon="5.93279">
        <ele>2151</ele>
        <time>2021-02-27T06:21:38Z</time>
      </trkpt>
      <trkpt lat="45.143" lon="5.93283">
        <ele>2151</ele>
        <time>2021-02-27T06:21:41Z</time>
      </trkpt>
      <trkpt lat="45.14301" lon="5.93285">
        <ele>2154</ele>
        <time>2021-02-27T06:21:43Z</time>
      </trkpt>
      <trkpt lat="45.14302" lon="5.93288">
        <ele>2154</ele>
        <time>2021-02-27T06:21:45Z</time>
      </trkpt>
      <trkpt lat="45.14304" lon="5.93291">
        <ele>2154</ele>
        <time>2021-02-27T06:21:47Z</time>
      </trkpt>
      <trkpt lat="45.14305" lon="5.93293">
        <ele>2154</ele>
        <time>2021-02-27T06:21:49Z</time>
      </trkpt>
      <trkpt lat="45.14307" lon="5.93295">
        <ele>2154</ele>
        <time>2021-02-27T06:21:51Z</time>
      </trkpt>
      <trkpt lat="45.14309" lon="5.93298">
        <ele>2155</ele>
        <time>2021-02-27T06:21:53Z</time>
      </trkpt>
      <trkpt lat="45.1431" lon="5.93301">
        <ele>2155</ele>
        <time>2021-02-27T06:21:55Z</time>
      </trkpt>
      <trkpt lat="45.14312" lon="5.93304">
        <ele>2155</ele>
        <time>2021-02-27T06:21:57Z</time>
      </trkpt>
      <trkpt lat="45.14313" lon="5.93307">
        <ele>2155</ele>
        <time>2021-02-27T06:21:59Z</time>
      </trkpt>
      <trkpt lat="45.14314" lon="5.9331">
        <ele>2155</ele>
        <time>2021-02-27T06:22:01Z</time>
      </trkpt>
      <trkpt lat="45.14315" lon="5.93313">
        <ele>2155</ele>
        <time>2021-02-27T06:22:03Z</time>
      </trkpt>
      <trkpt lat="45.14316" lon="5.93316">
        <ele>2155</ele>
        <time>2021-02-27T06:22:05Z</time>
      </trkpt>
      <trkpt lat="45.14317" lon="5.93319">
        <ele>2155</ele>
        <time>2021-02-27T06:22:07Z</time>
      </trkpt>
      <trkpt lat="45.14318" lon="5.93322">
        <ele>2155</ele>
        <time>2021-02-27T06:22:09Z</time>
      </trkpt>
      <trkpt lat="45.14319" lon="5.93327">
        <ele>2155</ele>
        <time>2021-02-27T06:22:11Z</time>
      </trkpt>
      <trkpt lat="45.1432" lon="5.9333">
        <ele>2154.6</ele>
        <time>2021-02-27T06:22:13Z</time>
      </trkpt>
      <trkpt lat="45.14321" lon="5.93334">
        <ele>2154.6</ele>
        <time>2021-02-27T06:22:15Z</time>
      </trkpt>
      <trkpt lat="45.14322" lon="5.93337">
        <ele>2154.6</ele>
        <time>2021-02-27T06:22:18Z</time>
      </trkpt>
      <trkpt lat="45.14324" lon="5.9334">
        <ele>2154.6</ele>
        <time>2021-02-27T06:22:21Z</time>
      </trkpt>
      <trkpt lat="45.14325" lon="5.93342">
        <ele>2155.4</ele>
        <time>2021-02-27T06:22:23Z</time>
      </trkpt>
      <trkpt lat="45.14327" lon="5.93344">
        <ele>2155.4</ele>
        <time>2021-02-27T06:22:25Z</time>
      </trkpt>
      <trkpt lat="45.1433" lon="5.93345">
        <ele>2155.4</ele>
        <time>2021-02-27T06:22:27Z</time>
      </trkpt>
      <trkpt lat="45.14332" lon="5.93346">
        <ele>2155.4</ele>
        <time>2021-02-27T06:22:29Z</time>
      </trkpt>
      <trkpt lat="45.14333" lon="5.93348">
        <ele>2155.4</ele>
        <time>2021-02-27T06:22:31Z</time>
      </trkpt>
      <trkpt lat="45.14336" lon="5.9335">
        <ele>2156.8</ele>
        <time>2021-02-27T06:22:33Z</time>
      </trkpt>
      <trkpt lat="45.14338" lon="5.93354">
        <ele>2156.8</ele>
        <time>2021-02-27T06:22:35Z</time>
      </trkpt>
      <trkpt lat="45.1434" lon="5.93356">
        <ele>2156.8</ele>
        <time>2021-02-27T06:22:37Z</time>
      </trkpt>
      <trkpt lat="45.14341" lon="5.93358">
        <ele>2156.8</ele>
        <time>2021-02-27T06:22:39Z</time>
      </trkpt>
      <trkpt lat="45.14342" lon="5.9336">
        <ele>2156.8</ele>
        <time>2021-02-27T06:22:42Z</time>
      </trkpt>
      <trkpt lat="45.14343" lon="5.93362">
        <ele>2157.8</ele>
        <time>2021-02-27T06:22:43Z</time>
      </trkpt>
      <trkpt lat="45.14344" lon="5.93364">
        <ele>2157.8</ele>
        <time>2021-02-27T06:22:45Z</time>
      </trkpt>
      <trkpt lat="45.14346" lon="5.93366">
        <ele>2157.8</ele>
        <time>2021-02-27T06:22:48Z</time>
      </trkpt>
      <trkpt lat="45.14348" lon="5.93368">
        <ele>2157.8</ele>
        <time>2021-02-27T06:22:51Z</time>
      </trkpt>
      <trkpt lat="45.14348" lon="5.93368">
        <ele>2158</ele>
        <time>2021-02-27T06:22:53Z</time>
      </trkpt>
      <trkpt lat="45.14352" lon="5.93369">
        <ele>2158</ele>
        <time>2021-02-27T06:22:54Z</time>
      </trkpt>
      <trkpt lat="45.14353" lon="5.93371">
        <ele>2158</ele>
        <time>2021-02-27T06:22:56Z</time>
      </trkpt>
      <trkpt lat="45.14354" lon="5.93372">
        <ele>2158</ele>
        <time>2021-02-27T06:22:59Z</time>
      </trkpt>
      <trkpt lat="45.14356" lon="5.93373">
        <ele>2158</ele>
        <time>2021-02-27T06:23:02Z</time>
      </trkpt>
      <trkpt lat="45.14357" lon="5.93374">
        <ele>2159.6</ele>
        <time>2021-02-27T06:23:03Z</time>
      </trkpt>
      <trkpt lat="45.14358" lon="5.93376">
        <ele>2159.6</ele>
        <time>2021-02-27T06:23:04Z</time>
      </trkpt>
      <trkpt lat="45.1436" lon="5.93377">
        <ele>2159.6</ele>
        <time>2021-02-27T06:23:06Z</time>
      </trkpt>
      <trkpt lat="45.14362" lon="5.93379">
        <ele>2159.6</ele>
        <time>2021-02-27T06:23:08Z</time>
      </trkpt>
      <trkpt lat="45.14364" lon="5.93382">
        <ele>2159.6</ele>
        <time>2021-02-27T06:23:11Z</time>
      </trkpt>
      <trkpt lat="45.14364" lon="5.93385">
        <ele>2161.2</ele>
        <time>2021-02-27T06:23:13Z</time>
      </trkpt>
      <trkpt lat="45.14365" lon="5.93389">
        <ele>2161.2</ele>
        <time>2021-02-27T06:23:16Z</time>
      </trkpt>
      <trkpt lat="45.14365" lon="5.93392">
        <ele>2161.2</ele>
        <time>2021-02-27T06:23:18Z</time>
      </trkpt>
      <trkpt lat="45.14366" lon="5.93395">
        <ele>2161.2</ele>
        <time>2021-02-27T06:23:21Z</time>
      </trkpt>
      <trkpt lat="45.14366" lon="5.93395">
        <ele>2162.8</ele>
        <time>2021-02-27T06:23:23Z</time>
      </trkpt>
      <trkpt lat="45.14367" lon="5.93398">
        <ele>2162.8</ele>
        <time>2021-02-27T06:23:24Z</time>
      </trkpt>
      <trkpt lat="45.14368" lon="5.93402">
        <ele>2162.8</ele>
        <time>2021-02-27T06:23:27Z</time>
      </trkpt>
      <trkpt lat="45.1437" lon="5.93404">
        <ele>2162.8</ele>
        <time>2021-02-27T06:23:29Z</time>
      </trkpt>
      <trkpt lat="45.14371" lon="5.93407">
        <ele>2164.6</ele>
        <time>2021-02-27T06:23:33Z</time>
      </trkpt>
      <trkpt lat="45.14373" lon="5.93411">
        <ele>2164.6</ele>
        <time>2021-02-27T06:23:35Z</time>
      </trkpt>
      <trkpt lat="45.14374" lon="5.93413">
        <ele>2164.6</ele>
        <time>2021-02-27T06:23:38Z</time>
      </trkpt>
      <trkpt lat="45.14375" lon="5.93415">
        <ele>2164.6</ele>
        <time>2021-02-27T06:23:40Z</time>
      </trkpt>
      <trkpt lat="45.14376" lon="5.93418">
        <ele>2164.6</ele>
        <time>2021-02-27T06:23:42Z</time>
      </trkpt>
      <trkpt lat="45.14377" lon="5.9342">
        <ele>2166.6</ele>
        <time>2021-02-27T06:23:43Z</time>
      </trkpt>
      <trkpt lat="45.14379" lon="5.93422">
        <ele>2166.6</ele>
        <time>2021-02-27T06:23:44Z</time>
      </trkpt>
      <trkpt lat="45.1438" lon="5.93424">
        <ele>2166.6</ele>
        <time>2021-02-27T06:23:46Z</time>
      </trkpt>
      <trkpt lat="45.14381" lon="5.93425">
        <ele>2166.6</ele>
        <time>2021-02-27T06:23:48Z</time>
      </trkpt>
      <trkpt lat="45.14382" lon="5.93426">
        <ele>2166.6</ele>
        <time>2021-02-27T06:23:50Z</time>
      </trkpt>
      <trkpt lat="45.14384" lon="5.93428">
        <ele>2166.6</ele>
        <time>2021-02-27T06:23:52Z</time>
      </trkpt>
      <trkpt lat="45.14385" lon="5.93429">
        <ele>2168.8</ele>
        <time>2021-02-27T06:23:53Z</time>
      </trkpt>
      <trkpt lat="45.14386" lon="5.93429">
        <ele>2168.8</ele>
        <time>2021-02-27T06:23:54Z</time>
      </trkpt>
      <trkpt lat="45.14388" lon="5.93431">
        <ele>2168.8</ele>
        <time>2021-02-27T06:23:57Z</time>
      </trkpt>
      <trkpt lat="45.1439" lon="5.93433">
        <ele>2168.8</ele>
        <time>2021-02-27T06:23:59Z</time>
      </trkpt>
      <trkpt lat="45.14392" lon="5.93434">
        <ele>2168.8</ele>
        <time>2021-02-27T06:24:01Z</time>
      </trkpt>
      <trkpt lat="45.14392" lon="5.93434">
        <ele>2170.6</ele>
        <time>2021-02-27T06:24:03Z</time>
      </trkpt>
      <trkpt lat="45.14396" lon="5.93436">
        <ele>2170.6</ele>
        <time>2021-02-27T06:24:04Z</time>
      </trkpt>
      <trkpt lat="45.14397" lon="5.93436">
        <ele>2170.6</ele>
        <time>2021-02-27T06:24:06Z</time>
      </trkpt>
      <trkpt lat="45.14398" lon="5.93437">
        <ele>2170.6</ele>
        <time>2021-02-27T06:24:09Z</time>
      </trkpt>
      <trkpt lat="45.144" lon="5.93438">
        <ele>2170.6</ele>
        <time>2021-02-27T06:24:12Z</time>
      </trkpt>
      <trkpt lat="45.14401" lon="5.93439">
        <ele>2172.6</ele>
        <time>2021-02-27T06:24:13Z</time>
      </trkpt>
      <trkpt lat="45.14403" lon="5.93443">
        <ele>2172.6</ele>
        <time>2021-02-27T06:24:16Z</time>
      </trkpt>
      <trkpt lat="45.14404" lon="5.93444">
        <ele>2172.6</ele>
        <time>2021-02-27T06:24:19Z</time>
      </trkpt>
      <trkpt lat="45.14404" lon="5.93445">
        <ele>2172.6</ele>
        <time>2021-02-27T06:24:22Z</time>
      </trkpt>
      <trkpt lat="45.14405" lon="5.93446">
        <ele>2176.6</ele>
        <time>2021-02-27T06:24:23Z</time>
      </trkpt>
      <trkpt lat="45.14405" lon="5.9345">
        <ele>2176.6</ele>
        <time>2021-02-27T06:24:25Z</time>
      </trkpt>
      <trkpt lat="45.14405" lon="5.93452">
        <ele>2176.6</ele>
        <time>2021-02-27T06:24:27Z</time>
      </trkpt>
      <trkpt lat="45.14405" lon="5.93455">
        <ele>2176.6</ele>
        <time>2021-02-27T06:24:29Z</time>
      </trkpt>
      <trkpt lat="45.14406" lon="5.93458">
        <ele>2176.6</ele>
        <time>2021-02-27T06:24:31Z</time>
      </trkpt>
      <trkpt lat="45.14406" lon="5.93458">
        <ele>2178.8</ele>
        <time>2021-02-27T06:24:33Z</time>
      </trkpt>
      <trkpt lat="45.14406" lon="5.93461">
        <ele>2178.8</ele>
        <time>2021-02-27T06:24:34Z</time>
      </trkpt>
      <trkpt lat="45.14406" lon="5.93463">
        <ele>2178.8</ele>
        <time>2021-02-27T06:24:37Z</time>
      </trkpt>
      <trkpt lat="45.14404" lon="5.93465">
        <ele>2178.8</ele>
        <time>2021-02-27T06:24:39Z</time>
      </trkpt>
      <trkpt lat="45.14403" lon="5.93468">
        <ele>2178.8</ele>
        <time>2021-02-27T06:24:41Z</time>
      </trkpt>
      <trkpt lat="45.14403" lon="5.93468">
        <ele>2179.8</ele>
        <time>2021-02-27T06:24:43Z</time>
      </trkpt>
      <trkpt lat="45.14401" lon="5.93471">
        <ele>2179.8</ele>
        <time>2021-02-27T06:24:44Z</time>
      </trkpt>
      <trkpt lat="45.14399" lon="5.93474">
        <ele>2179.8</ele>
        <time>2021-02-27T06:24:47Z</time>
      </trkpt>
      <trkpt lat="45.14398" lon="5.93476">
        <ele>2179.8</ele>
        <time>2021-02-27T06:24:49Z</time>
      </trkpt>
      <trkpt lat="45.14397" lon="5.93479">
        <ele>2179.8</ele>
        <time>2021-02-27T06:24:51Z</time>
      </trkpt>
      <trkpt lat="45.14397" lon="5.93479">
        <ele>2180.8</ele>
        <time>2021-02-27T06:24:53Z</time>
      </trkpt>
      <trkpt lat="45.14396" lon="5.93484">
        <ele>2180.8</ele>
        <time>2021-02-27T06:24:54Z</time>
      </trkpt>
      <trkpt lat="45.14396" lon="5.93487">
        <ele>2180.8</ele>
        <time>2021-02-27T06:24:56Z</time>
      </trkpt>
      <trkpt lat="45.14396" lon="5.93489">
        <ele>2180.8</ele>
        <time>2021-02-27T06:24:58Z</time>
      </trkpt>
      <trkpt lat="45.14395" lon="5.93491">
        <ele>2180.8</ele>
        <time>2021-02-27T06:25:00Z</time>
      </trkpt>
      <trkpt lat="45.14395" lon="5.93494">
        <ele>2180.8</ele>
        <time>2021-02-27T06:25:02Z</time>
      </trkpt>
      <trkpt lat="45.14394" lon="5.93496">
        <ele>2183</ele>
        <time>2021-02-27T06:25:03Z</time>
      </trkpt>
      <trkpt lat="45.14394" lon="5.935">
        <ele>2183</ele>
        <time>2021-02-27T06:25:04Z</time>
      </trkpt>
      <trkpt lat="45.14394" lon="5.93502">
        <ele>2183</ele>
        <time>2021-02-27T06:25:06Z</time>
      </trkpt>
      <trkpt lat="45.14395" lon="5.93504">
        <ele>2183</ele>
        <time>2021-02-27T06:25:08Z</time>
      </trkpt>
      <trkpt lat="45.14395" lon="5.93507">
        <ele>2183</ele>
        <time>2021-02-27T06:25:10Z</time>
      </trkpt>
      <trkpt lat="45.14395" lon="5.93509">
        <ele>2183</ele>
        <time>2021-02-27T06:25:12Z</time>
      </trkpt>
      <trkpt lat="45.14395" lon="5.93511">
        <ele>2184.2</ele>
        <time>2021-02-27T06:25:13Z</time>
      </trkpt>
      <trkpt lat="45.14396" lon="5.93515">
        <ele>2184.2</ele>
        <time>2021-02-27T06:25:14Z</time>
      </trkpt>
      <trkpt lat="45.14397" lon="5.93517">
        <ele>2184.2</ele>
        <time>2021-02-27T06:25:16Z</time>
      </trkpt>
      <trkpt lat="45.14397" lon="5.9352">
        <ele>2184.2</ele>
        <time>2021-02-27T06:25:18Z</time>
      </trkpt>
      <trkpt lat="45.14398" lon="5.93522">
        <ele>2184.2</ele>
        <time>2021-02-27T06:25:20Z</time>
      </trkpt>
      <trkpt lat="45.14398" lon="5.93524">
        <ele>2184.2</ele>
        <time>2021-02-27T06:25:22Z</time>
      </trkpt>
      <trkpt lat="45.14399" lon="5.93527">
        <ele>2185.2</ele>
        <time>2021-02-27T06:25:23Z</time>
      </trkpt>
      <trkpt lat="45.14399" lon="5.9353">
        <ele>2185.2</ele>
        <time>2021-02-27T06:25:24Z</time>
      </trkpt>
      <trkpt lat="45.144" lon="5.93532">
        <ele>2185.2</ele>
        <time>2021-02-27T06:25:26Z</time>
      </trkpt>
      <trkpt lat="45.144" lon="5.93533">
        <ele>2185.2</ele>
        <time>2021-02-27T06:25:28Z</time>
      </trkpt>
      <trkpt lat="45.14401" lon="5.93535">
        <ele>2185.2</ele>
        <time>2021-02-27T06:25:30Z</time>
      </trkpt>
      <trkpt lat="45.14401" lon="5.93537">
        <ele>2185.2</ele>
        <time>2021-02-27T06:25:32Z</time>
      </trkpt>
      <trkpt lat="45.14401" lon="5.93539">
        <ele>2187.2</ele>
        <time>2021-02-27T06:25:33Z</time>
      </trkpt>
      <trkpt lat="45.14401" lon="5.93542">
        <ele>2187.2</ele>
        <time>2021-02-27T06:25:35Z</time>
      </trkpt>
      <trkpt lat="45.144" lon="5.93545">
        <ele>2187.2</ele>
        <time>2021-02-27T06:25:38Z</time>
      </trkpt>
      <trkpt lat="45.144" lon="5.93549">
        <ele>2187.2</ele>
        <time>2021-02-27T06:25:41Z</time>
      </trkpt>
      <trkpt lat="45.14401" lon="5.93551">
        <ele>2190.6</ele>
        <time>2021-02-27T06:25:43Z</time>
      </trkpt>
      <trkpt lat="45.14401" lon="5.93554">
        <ele>2190.6</ele>
        <time>2021-02-27T06:25:45Z</time>
      </trkpt>
      <trkpt lat="45.14401" lon="5.93558">
        <ele>2190.6</ele>
        <time>2021-02-27T06:25:47Z</time>
      </trkpt>
      <trkpt lat="45.14402" lon="5.93561">
        <ele>2190.6</ele>
        <time>2021-02-27T06:25:49Z</time>
      </trkpt>
      <trkpt lat="45.14404" lon="5.93564">
        <ele>2190.6</ele>
        <time>2021-02-27T06:25:51Z</time>
      </trkpt>
      <trkpt lat="45.14404" lon="5.93567">
        <ele>2190.8</ele>
        <time>2021-02-27T06:25:53Z</time>
      </trkpt>
      <trkpt lat="45.14405" lon="5.93569">
        <ele>2190.8</ele>
        <time>2021-02-27T06:25:55Z</time>
      </trkpt>
      <trkpt lat="45.14405" lon="5.93572">
        <ele>2190.8</ele>
        <time>2021-02-27T06:25:57Z</time>
      </trkpt>
      <trkpt lat="45.14406" lon="5.93576">
        <ele>2190.8</ele>
        <time>2021-02-27T06:25:59Z</time>
      </trkpt>
      <trkpt lat="45.14406" lon="5.93579">
        <ele>2190.8</ele>
        <time>2021-02-27T06:26:01Z</time>
      </trkpt>
      <trkpt lat="45.14407" lon="5.93582">
        <ele>2192</ele>
        <time>2021-02-27T06:26:03Z</time>
      </trkpt>
      <trkpt lat="45.14407" lon="5.93587">
        <ele>2192</ele>
        <time>2021-02-27T06:26:05Z</time>
      </trkpt>
      <trkpt lat="45.14408" lon="5.93589">
        <ele>2192</ele>
        <time>2021-02-27T06:26:07Z</time>
      </trkpt>
      <trkpt lat="45.14408" lon="5.93592">
        <ele>2192</ele>
        <time>2021-02-27T06:26:09Z</time>
      </trkpt>
      <trkpt lat="45.14409" lon="5.93594">
        <ele>2192</ele>
        <time>2021-02-27T06:26:10Z</time>
      </trkpt>
      <trkpt lat="45.14409" lon="5.93596">
        <ele>2192</ele>
        <time>2021-02-27T06:26:12Z</time>
      </trkpt>
      <trkpt lat="45.1441" lon="5.93599">
        <ele>2193.4</ele>
        <time>2021-02-27T06:26:13Z</time>
      </trkpt>
      <trkpt lat="45.1441" lon="5.93601">
        <ele>2193.4</ele>
        <time>2021-02-27T06:26:14Z</time>
      </trkpt>
      <trkpt lat="45.14411" lon="5.93603">
        <ele>2193.4</ele>
        <time>2021-02-27T06:26:16Z</time>
      </trkpt>
      <trkpt lat="45.14411" lon="5.93607">
        <ele>2193.4</ele>
        <time>2021-02-27T06:26:19Z</time>
      </trkpt>
      <trkpt lat="45.14411" lon="5.93611">
        <ele>2193.4</ele>
        <time>2021-02-27T06:26:21Z</time>
      </trkpt>
      <trkpt lat="45.14412" lon="5.93615">
        <ele>2193.6</ele>
        <time>2021-02-27T06:26:23Z</time>
      </trkpt>
      <trkpt lat="45.14412" lon="5.93618">
        <ele>2193.6</ele>
        <time>2021-02-27T06:26:25Z</time>
      </trkpt>
      <trkpt lat="45.14412" lon="5.9362">
        <ele>2193.6</ele>
        <time>2021-02-27T06:26:27Z</time>
      </trkpt>
      <trkpt lat="45.14413" lon="5.93623">
        <ele>2193.6</ele>
        <time>2021-02-27T06:26:28Z</time>
      </trkpt>
      <trkpt lat="45.14413" lon="5.93625">
        <ele>2193.6</ele>
        <time>2021-02-27T06:26:30Z</time>
      </trkpt>
      <trkpt lat="45.14413" lon="5.93628">
        <ele>2193.6</ele>
        <time>2021-02-27T06:26:33Z</time>
      </trkpt>
      <trkpt lat="45.14415" lon="5.93632">
        <ele>2193.6</ele>
        <time>2021-02-27T06:26:36Z</time>
      </trkpt>
      <trkpt lat="45.14414" lon="5.93635">
        <ele>2193.6</ele>
        <time>2021-02-27T06:26:39Z</time>
      </trkpt>
      <trkpt lat="45.14414" lon="5.93637">
        <ele>2193.6</ele>
        <time>2021-02-27T06:26:41Z</time>
      </trkpt>
      <trkpt lat="45.14414" lon="5.93637">
        <ele>2195.4</ele>
        <time>2021-02-27T06:26:43Z</time>
      </trkpt>
      <trkpt lat="45.14414" lon="5.93641">
        <ele>2195.4</ele>
        <time>2021-02-27T06:26:44Z</time>
      </trkpt>
      <trkpt lat="45.14415" lon="5.93644">
        <ele>2195.4</ele>
        <time>2021-02-27T06:26:46Z</time>
      </trkpt>
      <trkpt lat="45.14416" lon="5.93647">
        <ele>2195.4</ele>
        <time>2021-02-27T06:26:48Z</time>
      </trkpt>
      <trkpt lat="45.14417" lon="5.9365">
        <ele>2195.4</ele>
        <time>2021-02-27T06:26:50Z</time>
      </trkpt>
      <trkpt lat="45.14417" lon="5.93654">
        <ele>2197</ele>
        <time>2021-02-27T06:26:53Z</time>
      </trkpt>
      <trkpt lat="45.14417" lon="5.93656">
        <ele>2197</ele>
        <time>2021-02-27T06:26:55Z</time>
      </trkpt>
      <trkpt lat="45.14417" lon="5.93659">
        <ele>2197</ele>
        <time>2021-02-27T06:26:57Z</time>
      </trkpt>
      <trkpt lat="45.14418" lon="5.93663">
        <ele>2197</ele>
        <time>2021-02-27T06:26:59Z</time>
      </trkpt>
      <trkpt lat="45.14419" lon="5.93665">
        <ele>2197</ele>
        <time>2021-02-27T06:27:01Z</time>
      </trkpt>
      <trkpt lat="45.14419" lon="5.93668">
        <ele>2198.2</ele>
        <time>2021-02-27T06:27:03Z</time>
      </trkpt>
      <trkpt lat="45.14419" lon="5.93672">
        <ele>2198.2</ele>
        <time>2021-02-27T06:27:05Z</time>
      </trkpt>
      <trkpt lat="45.1442" lon="5.93675">
        <ele>2198.2</ele>
        <time>2021-02-27T06:27:07Z</time>
      </trkpt>
      <trkpt lat="45.1442" lon="5.93679">
        <ele>2198.2</ele>
        <time>2021-02-27T06:27:09Z</time>
      </trkpt>
      <trkpt lat="45.1442" lon="5.93683">
        <ele>2198.2</ele>
        <time>2021-02-27T06:27:11Z</time>
      </trkpt>
      <trkpt lat="45.1442" lon="5.93686">
        <ele>2199.4</ele>
        <time>2021-02-27T06:27:13Z</time>
      </trkpt>
      <trkpt lat="45.1442" lon="5.93689">
        <ele>2199.4</ele>
        <time>2021-02-27T06:27:15Z</time>
      </trkpt>
      <trkpt lat="45.14421" lon="5.93692">
        <ele>2199.4</ele>
        <time>2021-02-27T06:27:17Z</time>
      </trkpt>
      <trkpt lat="45.14421" lon="5.93695">
        <ele>2199.4</ele>
        <time>2021-02-27T06:27:19Z</time>
      </trkpt>
      <trkpt lat="45.14422" lon="5.93698">
        <ele>2199.4</ele>
        <time>2021-02-27T06:27:21Z</time>
      </trkpt>
      <trkpt lat="45.14422" lon="5.93698">
        <ele>2200.4</ele>
        <time>2021-02-27T06:27:23Z</time>
      </trkpt>
      <trkpt lat="45.14424" lon="5.93702">
        <ele>2200.4</ele>
        <time>2021-02-27T06:27:24Z</time>
      </trkpt>
      <trkpt lat="45.14424" lon="5.93705">
        <ele>2200.4</ele>
        <time>2021-02-27T06:27:26Z</time>
      </trkpt>
      <trkpt lat="45.14425" lon="5.93707">
        <ele>2200.4</ele>
        <time>2021-02-27T06:27:28Z</time>
      </trkpt>
      <trkpt lat="45.14425" lon="5.93709">
        <ele>2200.4</ele>
        <time>2021-02-27T06:27:30Z</time>
      </trkpt>
      <trkpt lat="45.14426" lon="5.93711">
        <ele>2200.4</ele>
        <time>2021-02-27T06:27:32Z</time>
      </trkpt>
      <trkpt lat="45.14426" lon="5.93714">
        <ele>2201.4</ele>
        <time>2021-02-27T06:27:33Z</time>
      </trkpt>
      <trkpt lat="45.14427" lon="5.93718">
        <ele>2201.4</ele>
        <time>2021-02-27T06:27:34Z</time>
      </trkpt>
      <trkpt lat="45.14426" lon="5.9372">
        <ele>2201.4</ele>
        <time>2021-02-27T06:27:36Z</time>
      </trkpt>
      <trkpt lat="45.14426" lon="5.93722">
        <ele>2201.4</ele>
        <time>2021-02-27T06:27:38Z</time>
      </trkpt>
      <trkpt lat="45.14426" lon="5.93724">
        <ele>2201.4</ele>
        <time>2021-02-27T06:27:40Z</time>
      </trkpt>
      <trkpt lat="45.14426" lon="5.93727">
        <ele>2201.4</ele>
        <time>2021-02-27T06:27:42Z</time>
      </trkpt>
      <trkpt lat="45.14426" lon="5.93729">
        <ele>2202.6</ele>
        <time>2021-02-27T06:27:43Z</time>
      </trkpt>
      <trkpt lat="45.14427" lon="5.9373">
        <ele>2202.6</ele>
        <time>2021-02-27T06:27:44Z</time>
      </trkpt>
      <trkpt lat="45.14427" lon="5.93734">
        <ele>2202.6</ele>
        <time>2021-02-27T06:27:47Z</time>
      </trkpt>
      <trkpt lat="45.14428" lon="5.93737">
        <ele>2202.6</ele>
        <time>2021-02-27T06:27:49Z</time>
      </trkpt>
      <trkpt lat="45.14428" lon="5.93741">
        <ele>2202.6</ele>
        <time>2021-02-27T06:27:51Z</time>
      </trkpt>
      <trkpt lat="45.14429" lon="5.93744">
        <ele>2205</ele>
        <time>2021-02-27T06:27:53Z</time>
      </trkpt>
      <trkpt lat="45.14429" lon="5.93747">
        <ele>2205</ele>
        <time>2021-02-27T06:27:55Z</time>
      </trkpt>
      <trkpt lat="45.14429" lon="5.93749">
        <ele>2205</ele>
        <time>2021-02-27T06:27:57Z</time>
      </trkpt>
      <trkpt lat="45.14429" lon="5.93753">
        <ele>2205</ele>
        <time>2021-02-27T06:28:00Z</time>
      </trkpt>
      <trkpt lat="45.14429" lon="5.93753">
        <ele>2206.8</ele>
        <time>2021-02-27T06:28:03Z</time>
      </trkpt>
      <trkpt lat="45.14427" lon="5.93755">
        <ele>2206.8</ele>
        <time>2021-02-27T06:28:04Z</time>
      </trkpt>
      <trkpt lat="45.14428" lon="5.93759">
        <ele>2206.8</ele>
        <time>2021-02-27T06:28:07Z</time>
      </trkpt>
      <trkpt lat="45.14428" lon="5.93762">
        <ele>2206.8</ele>
        <time>2021-02-27T06:28:09Z</time>
      </trkpt>
      <trkpt lat="45.14428" lon="5.93765">
        <ele>2206.8</ele>
        <time>2021-02-27T06:28:11Z</time>
      </trkpt>
      <trkpt lat="45.14427" lon="5.93768">
        <ele>2208.6</ele>
        <time>2021-02-27T06:28:13Z</time>
      </trkpt>
      <trkpt lat="45.14429" lon="5.93774">
        <ele>2208.6</ele>
        <time>2021-02-27T06:28:15Z</time>
      </trkpt>
      <trkpt lat="45.14429" lon="5.93777">
        <ele>2208.6</ele>
        <time>2021-02-27T06:28:18Z</time>
      </trkpt>
      <trkpt lat="45.14429" lon="5.93779">
        <ele>2208.6</ele>
        <time>2021-02-27T06:28:20Z</time>
      </trkpt>
      <trkpt lat="45.1443" lon="5.93781">
        <ele>2208.6</ele>
        <time>2021-02-27T06:28:22Z</time>
      </trkpt>
      <trkpt lat="45.1443" lon="5.93783">
        <ele>2209.4</ele>
        <time>2021-02-27T06:28:23Z</time>
      </trkpt>
      <trkpt lat="45.1443" lon="5.93787">
        <ele>2209.4</ele>
        <time>2021-02-27T06:28:24Z</time>
      </trkpt>
      <trkpt lat="45.1443" lon="5.9379">
        <ele>2209.4</ele>
        <time>2021-02-27T06:28:26Z</time>
      </trkpt>
      <trkpt lat="45.1443" lon="5.93792">
        <ele>2209.4</ele>
        <time>2021-02-27T06:28:28Z</time>
      </trkpt>
      <trkpt lat="45.1443" lon="5.93795">
        <ele>2209.4</ele>
        <time>2021-02-27T06:28:30Z</time>
      </trkpt>
      <trkpt lat="45.14429" lon="5.93797">
        <ele>2209.4</ele>
        <time>2021-02-27T06:28:32Z</time>
      </trkpt>
      <trkpt lat="45.14429" lon="5.938">
        <ele>2211.2</ele>
        <time>2021-02-27T06:28:33Z</time>
      </trkpt>
      <trkpt lat="45.14429" lon="5.93804">
        <ele>2211.2</ele>
        <time>2021-02-27T06:28:34Z</time>
      </trkpt>
      <trkpt lat="45.14428" lon="5.93806">
        <ele>2211.2</ele>
        <time>2021-02-27T06:28:36Z</time>
      </trkpt>
      <trkpt lat="45.14427" lon="5.93809">
        <ele>2211.2</ele>
        <time>2021-02-27T06:28:38Z</time>
      </trkpt>
      <trkpt lat="45.14427" lon="5.93811">
        <ele>2211.2</ele>
        <time>2021-02-27T06:28:40Z</time>
      </trkpt>
      <trkpt lat="45.14426" lon="5.93814">
        <ele>2211.2</ele>
        <time>2021-02-27T06:28:42Z</time>
      </trkpt>
      <trkpt lat="45.14425" lon="5.93816">
        <ele>2212.8</ele>
        <time>2021-02-27T06:28:43Z</time>
      </trkpt>
      <trkpt lat="45.14424" lon="5.93819">
        <ele>2212.8</ele>
        <time>2021-02-27T06:28:44Z</time>
      </trkpt>
      <trkpt lat="45.14424" lon="5.93821">
        <ele>2212.8</ele>
        <time>2021-02-27T06:28:46Z</time>
      </trkpt>
      <trkpt lat="45.14423" lon="5.93823">
        <ele>2212.8</ele>
        <time>2021-02-27T06:28:49Z</time>
      </trkpt>
      <trkpt lat="45.14422" lon="5.93825">
        <ele>2212.8</ele>
        <time>2021-02-27T06:28:52Z</time>
      </trkpt>
      <trkpt lat="45.14422" lon="5.93827">
        <ele>2214</ele>
        <time>2021-02-27T06:28:53Z</time>
      </trkpt>
      <trkpt lat="45.14421" lon="5.93829">
        <ele>2214</ele>
        <time>2021-02-27T06:28:54Z</time>
      </trkpt>
      <trkpt lat="45.1442" lon="5.93832">
        <ele>2214</ele>
        <time>2021-02-27T06:28:56Z</time>
      </trkpt>
      <trkpt lat="45.1442" lon="5.93835">
        <ele>2214</ele>
        <time>2021-02-27T06:28:58Z</time>
      </trkpt>
      <trkpt lat="45.14419" lon="5.93838">
        <ele>2214</ele>
        <time>2021-02-27T06:29:01Z</time>
      </trkpt>
      <trkpt lat="45.14419" lon="5.93838">
        <ele>2214.2</ele>
        <time>2021-02-27T06:29:03Z</time>
      </trkpt>
      <trkpt lat="45.14419" lon="5.93843">
        <ele>2214.2</ele>
        <time>2021-02-27T06:29:04Z</time>
      </trkpt>
      <trkpt lat="45.14419" lon="5.93846">
        <ele>2214.2</ele>
        <time>2021-02-27T06:29:06Z</time>
      </trkpt>
      <trkpt lat="45.14419" lon="5.93848">
        <ele>2214.2</ele>
        <time>2021-02-27T06:29:08Z</time>
      </trkpt>
      <trkpt lat="45.14419" lon="5.9385">
        <ele>2214.2</ele>
        <time>2021-02-27T06:29:10Z</time>
      </trkpt>
      <trkpt lat="45.14419" lon="5.93853">
        <ele>2214.2</ele>
        <time>2021-02-27T06:29:12Z</time>
      </trkpt>
      <trkpt lat="45.14418" lon="5.93855">
        <ele>2216</ele>
        <time>2021-02-27T06:29:13Z</time>
      </trkpt>
      <trkpt lat="45.1442" lon="5.93859">
        <ele>2216</ele>
        <time>2021-02-27T06:29:14Z</time>
      </trkpt>
      <trkpt lat="45.1442" lon="5.93862">
        <ele>2216</ele>
        <time>2021-02-27T06:29:16Z</time>
      </trkpt>
      <trkpt lat="45.14421" lon="5.93864">
        <ele>2216</ele>
        <time>2021-02-27T06:29:18Z</time>
      </trkpt>
      <trkpt lat="45.14422" lon="5.93866">
        <ele>2216</ele>
        <time>2021-02-27T06:29:20Z</time>
      </trkpt>
      <trkpt lat="45.14422" lon="5.93869">
        <ele>2216</ele>
        <time>2021-02-27T06:29:22Z</time>
      </trkpt>
      <trkpt lat="45.14423" lon="5.93871">
        <ele>2218</ele>
        <time>2021-02-27T06:29:23Z</time>
      </trkpt>
      <trkpt lat="45.14423" lon="5.93875">
        <ele>2218</ele>
        <time>2021-02-27T06:29:24Z</time>
      </trkpt>
      <trkpt lat="45.14423" lon="5.93877">
        <ele>2218</ele>
        <time>2021-02-27T06:29:26Z</time>
      </trkpt>
      <trkpt lat="45.14424" lon="5.93879">
        <ele>2218</ele>
        <time>2021-02-27T06:29:28Z</time>
      </trkpt>
      <trkpt lat="45.14424" lon="5.93881">
        <ele>2218</ele>
        <time>2021-02-27T06:29:30Z</time>
      </trkpt>
      <trkpt lat="45.14424" lon="5.93883">
        <ele>2218</ele>
        <time>2021-02-27T06:29:32Z</time>
      </trkpt>
      <trkpt lat="45.14424" lon="5.93885">
        <ele>2219.4</ele>
        <time>2021-02-27T06:29:33Z</time>
      </trkpt>
      <trkpt lat="45.14424" lon="5.93888">
        <ele>2219.4</ele>
        <time>2021-02-27T06:29:35Z</time>
      </trkpt>
      <trkpt lat="45.14424" lon="5.93891">
        <ele>2219.4</ele>
        <time>2021-02-27T06:29:37Z</time>
      </trkpt>
      <trkpt lat="45.14424" lon="5.93894">
        <ele>2219.4</ele>
        <time>2021-02-27T06:29:40Z</time>
      </trkpt>
      <trkpt lat="45.14425" lon="5.93897">
        <ele>2221.2</ele>
        <time>2021-02-27T06:29:43Z</time>
      </trkpt>
      <trkpt lat="45.14425" lon="5.93901">
        <ele>2221.2</ele>
        <time>2021-02-27T06:29:46Z</time>
      </trkpt>
      <trkpt lat="45.14425" lon="5.93903">
        <ele>2221.2</ele>
        <time>2021-02-27T06:29:49Z</time>
      </trkpt>
      <trkpt lat="45.14425" lon="5.93905">
        <ele>2221.2</ele>
        <time>2021-02-27T06:29:52Z</time>
      </trkpt>
      <trkpt lat="45.14426" lon="5.93907">
        <ele>2222.6</ele>
        <time>2021-02-27T06:29:53Z</time>
      </trkpt>
      <trkpt lat="45.14426" lon="5.9391">
        <ele>2222.6</ele>
        <time>2021-02-27T06:29:55Z</time>
      </trkpt>
      <trkpt lat="45.14426" lon="5.93914">
        <ele>2222.6</ele>
        <time>2021-02-27T06:29:58Z</time>
      </trkpt>
      <trkpt lat="45.14427" lon="5.93916">
        <ele>2222.6</ele>
        <time>2021-02-27T06:30:00Z</time>
      </trkpt>
      <trkpt lat="45.14429" lon="5.93918">
        <ele>2224.4</ele>
        <time>2021-02-27T06:30:03Z</time>
      </trkpt>
      <trkpt lat="45.1443" lon="5.93923">
        <ele>2224.4</ele>
        <time>2021-02-27T06:30:07Z</time>
      </trkpt>
      <trkpt lat="45.1443" lon="5.93924">
        <ele>2224.4</ele>
        <time>2021-02-27T06:30:10Z</time>
      </trkpt>
      <trkpt lat="45.14431" lon="5.93925">
        <ele>2224.4</ele>
        <time>2021-02-27T06:30:12Z</time>
      </trkpt>
      <trkpt lat="45.14431" lon="5.93926">
        <ele>2226.4</ele>
        <time>2021-02-27T06:30:13Z</time>
      </trkpt>
      <trkpt lat="45.14433" lon="5.93931">
        <ele>2226.4</ele>
        <time>2021-02-27T06:30:15Z</time>
      </trkpt>
      <trkpt lat="45.14433" lon="5.93932">
        <ele>2226.4</ele>
        <time>2021-02-27T06:30:19Z</time>
      </trkpt>
      <trkpt lat="45.14434" lon="5.93934">
        <ele>2226.4</ele>
        <time>2021-02-27T06:30:22Z</time>
      </trkpt>
      <trkpt lat="45.14434" lon="5.93935">
        <ele>2228</ele>
        <time>2021-02-27T06:30:23Z</time>
      </trkpt>
      <trkpt lat="45.14435" lon="5.93938">
        <ele>2228</ele>
        <time>2021-02-27T06:30:25Z</time>
      </trkpt>
      <trkpt lat="45.14436" lon="5.93941">
        <ele>2228</ele>
        <time>2021-02-27T06:30:28Z</time>
      </trkpt>
      <trkpt lat="45.14437" lon="5.93944">
        <ele>2228</ele>
        <time>2021-02-27T06:30:31Z</time>
      </trkpt>
      <trkpt lat="45.14437" lon="5.93944">
        <ele>2229.8</ele>
        <time>2021-02-27T06:30:33Z</time>
      </trkpt>
      <trkpt lat="45.14438" lon="5.93949">
        <ele>2229.8</ele>
        <time>2021-02-27T06:30:34Z</time>
      </trkpt>
      <trkpt lat="45.14439" lon="5.9395">
        <ele>2229.8</ele>
        <time>2021-02-27T06:30:36Z</time>
      </trkpt>
      <trkpt lat="45.1444" lon="5.93952">
        <ele>2229.8</ele>
        <time>2021-02-27T06:30:39Z</time>
      </trkpt>
      <trkpt lat="45.14441" lon="5.93954">
        <ele>2229.8</ele>
        <time>2021-02-27T06:30:42Z</time>
      </trkpt>
      <trkpt lat="45.14441" lon="5.93956">
        <ele>2231.8</ele>
        <time>2021-02-27T06:30:43Z</time>
      </trkpt>
      <trkpt lat="45.14443" lon="5.93959">
        <ele>2231.8</ele>
        <time>2021-02-27T06:30:45Z</time>
      </trkpt>
      <trkpt lat="45.14443" lon="5.93962">
        <ele>2231.8</ele>
        <time>2021-02-27T06:30:48Z</time>
      </trkpt>
      <trkpt lat="45.14444" lon="5.93966">
        <ele>2231.8</ele>
        <time>2021-02-27T06:30:51Z</time>
      </trkpt>
      <trkpt lat="45.14443" lon="5.93968">
        <ele>2234.2</ele>
        <time>2021-02-27T06:30:53Z</time>
      </trkpt>
      <trkpt lat="45.14444" lon="5.93971">
        <ele>2234.2</ele>
        <time>2021-02-27T06:30:56Z</time>
      </trkpt>
      <trkpt lat="45.14445" lon="5.93974">
        <ele>2234.2</ele>
        <time>2021-02-27T06:30:58Z</time>
      </trkpt>
      <trkpt lat="45.14445" lon="5.93978">
        <ele>2234.2</ele>
        <time>2021-02-27T06:31:01Z</time>
      </trkpt>
      <trkpt lat="45.14446" lon="5.9398">
        <ele>2236.8</ele>
        <time>2021-02-27T06:31:03Z</time>
      </trkpt>
      <trkpt lat="45.14446" lon="5.93983">
        <ele>2236.8</ele>
        <time>2021-02-27T06:31:05Z</time>
      </trkpt>
      <trkpt lat="45.14447" lon="5.93986">
        <ele>2236.8</ele>
        <time>2021-02-27T06:31:07Z</time>
      </trkpt>
      <trkpt lat="45.14445" lon="5.93988">
        <ele>2236.8</ele>
        <time>2021-02-27T06:31:09Z</time>
      </trkpt>
      <trkpt lat="45.14443" lon="5.93989">
        <ele>2236.8</ele>
        <time>2021-02-27T06:31:11Z</time>
      </trkpt>
      <trkpt lat="45.14443" lon="5.93989">
        <ele>2239.4</ele>
        <time>2021-02-27T06:31:13Z</time>
      </trkpt>
      <trkpt lat="45.1444" lon="5.9399">
        <ele>2239.4</ele>
        <time>2021-02-27T06:31:15Z</time>
      </trkpt>
      <trkpt lat="45.14439" lon="5.93992">
        <ele>2239.4</ele>
        <time>2021-02-27T06:31:19Z</time>
      </trkpt>
      <trkpt lat="45.14439" lon="5.93993">
        <ele>2239.4</ele>
        <time>2021-02-27T06:31:22Z</time>
      </trkpt>
      <trkpt lat="45.14438" lon="5.93995">
        <ele>2241.2</ele>
        <time>2021-02-27T06:31:23Z</time>
      </trkpt>
      <trkpt lat="45.14438" lon="5.94001">
        <ele>2241.2</ele>
        <time>2021-02-27T06:31:24Z</time>
      </trkpt>
      <trkpt lat="45.14438" lon="5.94003">
        <ele>2241.2</ele>
        <time>2021-02-27T06:31:26Z</time>
      </trkpt>
      <trkpt lat="45.14438" lon="5.94006">
        <ele>2241.2</ele>
        <time>2021-02-27T06:31:28Z</time>
      </trkpt>
      <trkpt lat="45.14438" lon="5.94008">
        <ele>2241.2</ele>
        <time>2021-02-27T06:31:30Z</time>
      </trkpt>
      <trkpt lat="45.14438" lon="5.9401">
        <ele>2241.2</ele>
        <time>2021-02-27T06:31:32Z</time>
      </trkpt>
      <trkpt lat="45.14438" lon="5.94013">
        <ele>2244.6</ele>
        <time>2021-02-27T06:31:33Z</time>
      </trkpt>
      <trkpt lat="45.14438" lon="5.94017">
        <ele>2244.6</ele>
        <time>2021-02-27T06:31:34Z</time>
      </trkpt>
      <trkpt lat="45.14439" lon="5.94019">
        <ele>2244.6</ele>
        <time>2021-02-27T06:31:36Z</time>
      </trkpt>
      <trkpt lat="45.14439" lon="5.94021">
        <ele>2244.6</ele>
        <time>2021-02-27T06:31:38Z</time>
      </trkpt>
      <trkpt lat="45.1444" lon="5.94023">
        <ele>2244.6</ele>
        <time>2021-02-27T06:31:40Z</time>
      </trkpt>
      <trkpt lat="45.1444" lon="5.94026">
        <ele>2244.6</ele>
        <time>2021-02-27T06:31:42Z</time>
      </trkpt>
      <trkpt lat="45.14441" lon="5.94028">
        <ele>2247.2</ele>
        <time>2021-02-27T06:31:43Z</time>
      </trkpt>
      <trkpt lat="45.14442" lon="5.94029">
        <ele>2247.2</ele>
        <time>2021-02-27T06:31:44Z</time>
      </trkpt>
      <trkpt lat="45.14442" lon="5.94032">
        <ele>2247.2</ele>
        <time>2021-02-27T06:31:46Z</time>
      </trkpt>
      <trkpt lat="45.14441" lon="5.94036">
        <ele>2247.2</ele>
        <time>2021-02-27T06:31:48Z</time>
      </trkpt>
      <trkpt lat="45.14442" lon="5.94039">
        <ele>2247.2</ele>
        <time>2021-02-27T06:31:51Z</time>
      </trkpt>
      <trkpt lat="45.14442" lon="5.94039">
        <ele>2249.2</ele>
        <time>2021-02-27T06:31:53Z</time>
      </trkpt>
      <trkpt lat="45.14442" lon="5.94043">
        <ele>2249.2</ele>
        <time>2021-02-27T06:31:54Z</time>
      </trkpt>
      <trkpt lat="45.14442" lon="5.94046">
        <ele>2249.2</ele>
        <time>2021-02-27T06:31:56Z</time>
      </trkpt>
      <trkpt lat="45.14443" lon="5.94049">
        <ele>2249.2</ele>
        <time>2021-02-27T06:31:58Z</time>
      </trkpt>
      <trkpt lat="45.14443" lon="5.94053">
        <ele>2249.2</ele>
        <time>2021-02-27T06:32:01Z</time>
      </trkpt>
      <trkpt lat="45.14443" lon="5.94053">
        <ele>2252</ele>
        <time>2021-02-27T06:32:03Z</time>
      </trkpt>
      <trkpt lat="45.14442" lon="5.94056">
        <ele>2252</ele>
        <time>2021-02-27T06:32:04Z</time>
      </trkpt>
      <trkpt lat="45.14443" lon="5.94059">
        <ele>2252</ele>
        <time>2021-02-27T06:32:07Z</time>
      </trkpt>
      <trkpt lat="45.14442" lon="5.94062">
        <ele>2252</ele>
        <time>2021-02-27T06:32:10Z</time>
      </trkpt>
      <trkpt lat="45.14443" lon="5.94065">
        <ele>2255</ele>
        <time>2021-02-27T06:32:13Z</time>
      </trkpt>
      <trkpt lat="45.14441" lon="5.94067">
        <ele>2255</ele>
        <time>2021-02-27T06:32:14Z</time>
      </trkpt>
      <trkpt lat="45.14442" lon="5.94069">
        <ele>2255</ele>
        <time>2021-02-27T06:32:19Z</time>
      </trkpt>
      <trkpt lat="45.14442" lon="5.9407">
        <ele>2255</ele>
        <time>2021-02-27T06:32:22Z</time>
      </trkpt>
      <trkpt lat="45.14443" lon="5.94071">
        <ele>2258.2</ele>
        <time>2021-02-27T06:32:23Z</time>
      </trkpt>
      <trkpt lat="45.14443" lon="5.94074">
        <ele>2258.2</ele>
        <time>2021-02-27T06:32:25Z</time>
      </trkpt>
      <trkpt lat="45.14443" lon="5.94077">
        <ele>2258.2</ele>
        <time>2021-02-27T06:32:28Z</time>
      </trkpt>
      <trkpt lat="45.14444" lon="5.94079">
        <ele>2258.2</ele>
        <time>2021-02-27T06:32:31Z</time>
      </trkpt>
      <trkpt lat="45.14444" lon="5.94082">
        <ele>2261.2</ele>
        <time>2021-02-27T06:32:33Z</time>
      </trkpt>
      <trkpt lat="45.14445" lon="5.94087">
        <ele>2261.2</ele>
        <time>2021-02-27T06:32:36Z</time>
      </trkpt>
      <trkpt lat="45.14445" lon="5.94088">
        <ele>2261.2</ele>
        <time>2021-02-27T06:32:39Z</time>
      </trkpt>
      <trkpt lat="45.14445" lon="5.9409">
        <ele>2261.2</ele>
        <time>2021-02-27T06:32:42Z</time>
      </trkpt>
      <trkpt lat="45.14445" lon="5.94092">
        <ele>2264</ele>
        <time>2021-02-27T06:32:43Z</time>
      </trkpt>
      <trkpt lat="45.14445" lon="5.94095">
        <ele>2264</ele>
        <time>2021-02-27T06:32:45Z</time>
      </trkpt>
      <trkpt lat="45.14447" lon="5.94097">
        <ele>2264</ele>
        <time>2021-02-27T06:32:47Z</time>
      </trkpt>
      <trkpt lat="45.14448" lon="5.941">
        <ele>2264</ele>
        <time>2021-02-27T06:32:50Z</time>
      </trkpt>
      <trkpt lat="45.14449" lon="5.94104">
        <ele>2266</ele>
        <time>2021-02-27T06:32:53Z</time>
      </trkpt>
      <trkpt lat="45.14448" lon="5.94107">
        <ele>2266</ele>
        <time>2021-02-27T06:32:55Z</time>
      </trkpt>
      <trkpt lat="45.14448" lon="5.94109">
        <ele>2266</ele>
        <time>2021-02-27T06:32:57Z</time>
      </trkpt>
      <trkpt lat="45.14449" lon="5.94112">
        <ele>2266</ele>
        <time>2021-02-27T06:33:00Z</time>
      </trkpt>
      <trkpt lat="45.14451" lon="5.94116">
        <ele>2267.8</ele>
        <time>2021-02-27T06:33:03Z</time>
      </trkpt>
      <trkpt lat="45.14451" lon="5.94118">
        <ele>2267.8</ele>
        <time>2021-02-27T06:33:05Z</time>
      </trkpt>
      <trkpt lat="45.14453" lon="5.9412">
        <ele>2267.8</ele>
        <time>2021-02-27T06:33:07Z</time>
      </trkpt>
      <trkpt lat="45.14453" lon="5.94124">
        <ele>2267.8</ele>
        <time>2021-02-27T06:33:09Z</time>
      </trkpt>
      <trkpt lat="45.14455" lon="5.94126">
        <ele>2267.8</ele>
        <time>2021-02-27T06:33:11Z</time>
      </trkpt>
      <trkpt lat="45.14456" lon="5.94129">
        <ele>2269.8</ele>
        <time>2021-02-27T06:33:13Z</time>
      </trkpt>
      <trkpt lat="45.1446" lon="5.94132">
        <ele>2269.8</ele>
        <time>2021-02-27T06:33:15Z</time>
      </trkpt>
      <trkpt lat="45.14462" lon="5.94133">
        <ele>2269.8</ele>
        <time>2021-02-27T06:33:18Z</time>
      </trkpt>
      <trkpt lat="45.14463" lon="5.94134">
        <ele>2269.8</ele>
        <time>2021-02-27T06:33:20Z</time>
      </trkpt>
      <trkpt lat="45.14465" lon="5.94135">
        <ele>2269.8</ele>
        <time>2021-02-27T06:33:22Z</time>
      </trkpt>
      <trkpt lat="45.14467" lon="5.94136">
        <ele>2270.6</ele>
        <time>2021-02-27T06:33:23Z</time>
      </trkpt>
      <trkpt lat="45.14468" lon="5.94136">
        <ele>2270.6</ele>
        <time>2021-02-27T06:33:24Z</time>
      </trkpt>
      <trkpt lat="45.1447" lon="5.94138">
        <ele>2270.6</ele>
        <time>2021-02-27T06:33:26Z</time>
      </trkpt>
      <trkpt lat="45.14473" lon="5.9414">
        <ele>2270.6</ele>
        <time>2021-02-27T06:33:29Z</time>
      </trkpt>
      <trkpt lat="45.14477" lon="5.9414">
        <ele>2270.6</ele>
        <time>2021-02-27T06:33:31Z</time>
      </trkpt>
      <trkpt lat="45.14479" lon="5.94142">
        <ele>2272.2</ele>
        <time>2021-02-27T06:33:33Z</time>
      </trkpt>
      <trkpt lat="45.14481" lon="5.94142">
        <ele>2272.2</ele>
        <time>2021-02-27T06:33:35Z</time>
      </trkpt>
      <trkpt lat="45.14483" lon="5.94145">
        <ele>2272.2</ele>
        <time>2021-02-27T06:33:38Z</time>
      </trkpt>
      <trkpt lat="45.14485" lon="5.94147">
        <ele>2272.2</ele>
        <time>2021-02-27T06:33:41Z</time>
      </trkpt>
      <trkpt lat="45.14487" lon="5.94149">
        <ele>2275.2</ele>
        <time>2021-02-27T06:33:43Z</time>
      </trkpt>
      <trkpt lat="45.14489" lon="5.94151">
        <ele>2275.2</ele>
        <time>2021-02-27T06:33:45Z</time>
      </trkpt>
      <trkpt lat="45.14491" lon="5.94153">
        <ele>2275.2</ele>
        <time>2021-02-27T06:33:47Z</time>
      </trkpt>
      <trkpt lat="45.14493" lon="5.94155">
        <ele>2275.2</ele>
        <time>2021-02-27T06:33:49Z</time>
      </trkpt>
      <trkpt lat="45.14495" lon="5.94158">
        <ele>2275.2</ele>
        <time>2021-02-27T06:33:51Z</time>
      </trkpt>
      <trkpt lat="45.14497" lon="5.9416">
        <ele>2277</ele>
        <time>2021-02-27T06:33:53Z</time>
      </trkpt>
      <trkpt lat="45.14499" lon="5.94161">
        <ele>2277</ele>
        <time>2021-02-27T06:33:55Z</time>
      </trkpt>
      <trkpt lat="45.14501" lon="5.94163">
        <ele>2277</ele>
        <time>2021-02-27T06:33:57Z</time>
      </trkpt>
      <trkpt lat="45.14503" lon="5.94164">
        <ele>2277</ele>
        <time>2021-02-27T06:33:59Z</time>
      </trkpt>
      <trkpt lat="45.14506" lon="5.94166">
        <ele>2277</ele>
        <time>2021-02-27T06:34:01Z</time>
      </trkpt>
      <trkpt lat="45.14508" lon="5.94168">
        <ele>2278.2</ele>
        <time>2021-02-27T06:34:03Z</time>
      </trkpt>
      <trkpt lat="45.14509" lon="5.9417">
        <ele>2278.2</ele>
        <time>2021-02-27T06:34:05Z</time>
      </trkpt>
      <trkpt lat="45.14511" lon="5.94172">
        <ele>2278.2</ele>
        <time>2021-02-27T06:34:07Z</time>
      </trkpt>
      <trkpt lat="45.14513" lon="5.94174">
        <ele>2278.2</ele>
        <time>2021-02-27T06:34:10Z</time>
      </trkpt>
      <trkpt lat="45.14513" lon="5.94174">
        <ele>2280.2</ele>
        <time>2021-02-27T06:34:13Z</time>
      </trkpt>
      <trkpt lat="45.14512" lon="5.94176">
        <ele>2280.4</ele>
        <time>2021-02-27T06:34:23Z</time>
      </trkpt>
      <trkpt lat="45.14511" lon="5.94179">
        <ele>2280.4</ele>
        <time>2021-02-27T06:34:30Z</time>
      </trkpt>
      <trkpt lat="45.1451" lon="5.94181">
        <ele>2280.4</ele>
        <time>2021-02-27T06:34:32Z</time>
      </trkpt>
      <trkpt lat="45.14509" lon="5.94183">
        <ele>2279.6</ele>
        <time>2021-02-27T06:34:33Z</time>
      </trkpt>
      <trkpt lat="45.14508" lon="5.94188">
        <ele>2279.6</ele>
        <time>2021-02-27T06:34:35Z</time>
      </trkpt>
      <trkpt lat="45.14507" lon="5.94189">
        <ele>2279.6</ele>
        <time>2021-02-27T06:34:37Z</time>
      </trkpt>
      <trkpt lat="45.14506" lon="5.94191">
        <ele>2279.6</ele>
        <time>2021-02-27T06:34:42Z</time>
      </trkpt>
      <trkpt lat="45.14505" lon="5.94192">
        <ele>2280.4</ele>
        <time>2021-02-27T06:34:43Z</time>
      </trkpt>
      <trkpt lat="45.14503" lon="5.94192">
        <ele>2280.4</ele>
        <time>2021-02-27T06:34:44Z</time>
      </trkpt>
      <trkpt lat="45.14501" lon="5.94191">
        <ele>2280.4</ele>
        <time>2021-02-27T06:34:47Z</time>
      </trkpt>
      <trkpt lat="45.14499" lon="5.94189">
        <ele>2280.4</ele>
        <time>2021-02-27T06:34:50Z</time>
      </trkpt>
      <trkpt lat="45.14497" lon="5.94187">
        <ele>2284.6</ele>
        <time>2021-02-27T06:34:53Z</time>
      </trkpt>
      <trkpt lat="45.14494" lon="5.94186">
        <ele>2284.6</ele>
        <time>2021-02-27T06:34:55Z</time>
      </trkpt>
      <trkpt lat="45.14493" lon="5.94186">
        <ele>2284.6</ele>
        <time>2021-02-27T06:34:57Z</time>
      </trkpt>
      <trkpt lat="45.1449" lon="5.94185">
        <ele>2284.6</ele>
        <time>2021-02-27T06:35:01Z</time>
      </trkpt>
      <trkpt lat="45.14488" lon="5.94186">
        <ele>2287</ele>
        <time>2021-02-27T06:35:03Z</time>
      </trkpt>
      <trkpt lat="45.14484" lon="5.94185">
        <ele>2287</ele>
        <time>2021-02-27T06:35:05Z</time>
      </trkpt>
      <trkpt lat="45.14482" lon="5.94184">
        <ele>2287</ele>
        <time>2021-02-27T06:35:07Z</time>
      </trkpt>
      <trkpt lat="45.14481" lon="5.94183">
        <ele>2287</ele>
        <time>2021-02-27T06:35:08Z</time>
      </trkpt>
      <trkpt lat="45.14479" lon="5.94183">
        <ele>2287</ele>
        <time>2021-02-27T06:35:10Z</time>
      </trkpt>
      <trkpt lat="45.14478" lon="5.94182">
        <ele>2287</ele>
        <time>2021-02-27T06:35:12Z</time>
      </trkpt>
      <trkpt lat="45.14476" lon="5.94181">
        <ele>2288.2</ele>
        <time>2021-02-27T06:35:13Z</time>
      </trkpt>
      <trkpt lat="45.14473" lon="5.94176">
        <ele>2288.2</ele>
        <time>2021-02-27T06:35:15Z</time>
      </trkpt>
      <trkpt lat="45.14471" lon="5.94175">
        <ele>2288.2</ele>
        <time>2021-02-27T06:35:16Z</time>
      </trkpt>
      <trkpt lat="45.1447" lon="5.94174">
        <ele>2288.2</ele>
        <time>2021-02-27T06:35:17Z</time>
      </trkpt>
      <trkpt lat="45.14468" lon="5.94173">
        <ele>2288.2</ele>
        <time>2021-02-27T06:35:18Z</time>
      </trkpt>
      <trkpt lat="45.14467" lon="5.94172">
        <ele>2288.2</ele>
        <time>2021-02-27T06:35:20Z</time>
      </trkpt>
      <trkpt lat="45.14465" lon="5.94171">
        <ele>2288.2</ele>
        <time>2021-02-27T06:35:22Z</time>
      </trkpt>
      <trkpt lat="45.14463" lon="5.9417">
        <ele>2288.2</ele>
        <time>2021-02-27T06:35:23Z</time>
      </trkpt>
      <trkpt lat="45.14461" lon="5.94168">
        <ele>2288.2</ele>
        <time>2021-02-27T06:35:24Z</time>
      </trkpt>
      <trkpt lat="45.14459" lon="5.94166">
        <ele>2288.2</ele>
        <time>2021-02-27T06:35:26Z</time>
      </trkpt>
      <trkpt lat="45.14458" lon="5.94165">
        <ele>2288.2</ele>
        <time>2021-02-27T06:35:28Z</time>
      </trkpt>
      <trkpt lat="45.14456" lon="5.94164">
        <ele>2288.2</ele>
        <time>2021-02-27T06:35:30Z</time>
      </trkpt>
      <trkpt lat="45.14455" lon="5.94163">
        <ele>2288.2</ele>
        <time>2021-02-27T06:35:32Z</time>
      </trkpt>
      <trkpt lat="45.14453" lon="5.94161">
        <ele>2287.6</ele>
        <time>2021-02-27T06:35:33Z</time>
      </trkpt>
      <trkpt lat="45.14452" lon="5.9416">
        <ele>2287.6</ele>
        <time>2021-02-27T06:35:35Z</time>
      </trkpt>
      <trkpt lat="45.1445" lon="5.94159">
        <ele>2287.6</ele>
        <time>2021-02-27T06:35:40Z</time>
      </trkpt>
      <trkpt lat="45.1445" lon="5.94159">
        <ele>2287.2</ele>
        <time>2021-02-27T06:35:43Z</time>
      </trkpt>
      <trkpt lat="45.14448" lon="5.94158">
        <ele>2287.2</ele>
        <time>2021-02-27T06:35:44Z</time>
      </trkpt>
      <trkpt lat="45.14446" lon="5.94157">
        <ele>2287.2</ele>
        <time>2021-02-27T06:35:48Z</time>
      </trkpt>
      <trkpt lat="45.14444" lon="5.94156">
        <ele>2287.2</ele>
        <time>2021-02-27T06:35:51Z</time>
      </trkpt>
      <trkpt lat="45.14444" lon="5.94156">
        <ele>2287.2</ele>
        <time>2021-02-27T06:35:53Z</time>
      </trkpt>
      <trkpt lat="45.1444" lon="5.94155">
        <ele>2287.2</ele>
        <time>2021-02-27T06:35:55Z</time>
      </trkpt>
      <trkpt lat="45.14439" lon="5.94155">
        <ele>2287.2</ele>
        <time>2021-02-27T06:35:57Z</time>
      </trkpt>
      <trkpt lat="45.14437" lon="5.94155">
        <ele>2287.2</ele>
        <time>2021-02-27T06:35:59Z</time>
      </trkpt>
      <trkpt lat="45.14436" lon="5.94155">
        <ele>2287.2</ele>
        <time>2021-02-27T06:36:02Z</time>
      </trkpt>
      <trkpt lat="45.14435" lon="5.94155">
        <ele>2288</ele>
        <time>2021-02-27T06:36:03Z</time>
      </trkpt>
      <trkpt lat="45.14432" lon="5.94155">
        <ele>2288</ele>
        <time>2021-02-27T06:36:04Z</time>
      </trkpt>
      <trkpt lat="45.1443" lon="5.94155">
        <ele>2288</ele>
        <time>2021-02-27T06:36:07Z</time>
      </trkpt>
      <trkpt lat="45.14428" lon="5.94155">
        <ele>2288</ele>
        <time>2021-02-27T06:36:09Z</time>
      </trkpt>
      <trkpt lat="45.14426" lon="5.94155">
        <ele>2288</ele>
        <time>2021-02-27T06:36:11Z</time>
      </trkpt>
      <trkpt lat="45.14426" lon="5.94155">
        <ele>2290</ele>
        <time>2021-02-27T06:36:13Z</time>
      </trkpt>
      <trkpt lat="45.14423" lon="5.94155">
        <ele>2290</ele>
        <time>2021-02-27T06:36:14Z</time>
      </trkpt>
      <trkpt lat="45.1442" lon="5.94154">
        <ele>2290</ele>
        <time>2021-02-27T06:36:17Z</time>
      </trkpt>
      <trkpt lat="45.14417" lon="5.94154">
        <ele>2290</ele>
        <time>2021-02-27T06:36:19Z</time>
      </trkpt>
      <trkpt lat="45.14417" lon="5.94154">
        <ele>2291.8</ele>
        <time>2021-02-27T06:36:23Z</time>
      </trkpt>
      <trkpt lat="45.14417" lon="5.94154">
        <ele>2293.4</ele>
        <time>2021-02-27T06:36:33Z</time>
      </trkpt>
      <trkpt lat="45.14417" lon="5.94154">
        <ele>2295.6</ele>
        <time>2021-02-27T06:36:43Z</time>
      </trkpt>
      <trkpt lat="45.14417" lon="5.94154">
        <ele>2297.2</ele>
        <time>2021-02-27T06:36:53Z</time>
      </trkpt>
      <trkpt lat="45.14417" lon="5.94154">
        <ele>2300.4</ele>
        <time>2021-02-27T06:37:03Z</time>
      </trkpt>
      <trkpt lat="45.14417" lon="5.94154">
        <ele>2304.2</ele>
        <time>2021-02-27T06:37:13Z</time>
      </trkpt>
      <trkpt lat="45.14417" lon="5.94154">
        <ele>2302.4</ele>
        <time>2021-02-27T06:37:23Z</time>
      </trkpt>
      <trkpt lat="45.14417" lon="5.94154">
        <ele>2301.8</ele>
        <time>2021-02-27T06:37:33Z</time>
      </trkpt>
      <trkpt lat="45.14417" lon="5.94154">
        <ele>2302.2</ele>
        <time>2021-02-27T06:37:43Z</time>
      </trkpt>
      <trkpt lat="45.14417" lon="5.94154">
        <ele>2304</ele>
        <time>2021-02-27T06:37:53Z</time>
      </trkpt>
      <trkpt lat="45.14417" lon="5.94154">
        <ele>2306.4</ele>
        <time>2021-02-27T06:38:03Z</time>
      </trkpt>
      <trkpt lat="45.14417" lon="5.94154">
        <ele>2307.8</ele>
        <time>2021-02-27T06:38:13Z</time>
      </trkpt>
      <trkpt lat="45.14417" lon="5.94154">
        <ele>2309.6</ele>
        <time>2021-02-27T06:38:23Z</time>
      </trkpt>
      <trkpt lat="45.14417" lon="5.94154">
        <ele>2311.8</ele>
        <time>2021-02-27T06:38:33Z</time>
      </trkpt>
      <trkpt lat="45.14417" lon="5.94154">
        <ele>2315</ele>
        <time>2021-02-27T06:38:43Z</time>
      </trkpt>
      <trkpt lat="45.14417" lon="5.94154">
        <ele>2317.8</ele>
        <time>2021-02-27T06:38:53Z</time>
      </trkpt>
      <trkpt lat="45.14417" lon="5.94154">
        <ele>2320.6</ele>
        <time>2021-02-27T06:39:03Z</time>
      </trkpt>
      <trkpt lat="45.14417" lon="5.94154">
        <ele>2323.8</ele>
        <time>2021-02-27T06:39:13Z</time>
      </trkpt>
      <trkpt lat="45.14417" lon="5.94154">
        <ele>2327.4</ele>
        <time>2021-02-27T06:39:23Z</time>
      </trkpt>
      <trkpt lat="45.14417" lon="5.94154">
        <ele>2330.6</ele>
        <time>2021-02-27T06:39:33Z</time>
      </trkpt>
      <trkpt lat="45.14417" lon="5.94154">
        <ele>2333</ele>
        <time>2021-02-27T06:39:43Z</time>
      </trkpt>
      <trkpt lat="45.14417" lon="5.94154">
        <ele>2334.2</ele>
        <time>2021-02-27T06:39:53Z</time>
      </trkpt>
      <trkpt lat="45.14417" lon="5.94154">
        <ele>2335.6</ele>
        <time>2021-02-27T06:40:03Z</time>
      </trkpt>
      <trkpt lat="45.14417" lon="5.94154">
        <ele>2337.8</ele>
        <time>2021-02-27T06:40:13Z</time>
      </trkpt>
      <trkpt lat="45.14417" lon="5.94154">
        <ele>2340</ele>
        <time>2021-02-27T06:40:23Z</time>
      </trkpt>
      <trkpt lat="45.14417" lon="5.94154">
        <ele>2340.8</ele>
        <time>2021-02-27T06:40:33Z</time>
      </trkpt>
      <trkpt lat="45.14417" lon="5.94154">
        <ele>2341.4</ele>
        <time>2021-02-27T06:40:43Z</time>
      </trkpt>
      <trkpt lat="45.14417" lon="5.94154">
        <ele>2341.2</ele>
        <time>2021-02-27T06:40:53Z</time>
      </trkpt>
      <trkpt lat="45.14417" lon="5.94154">
        <ele>2341.8</ele>
        <time>2021-02-27T06:41:03Z</time>
      </trkpt>
      <trkpt lat="45.14417" lon="5.94154">
        <ele>2344</ele>
        <time>2021-02-27T06:41:13Z</time>
      </trkpt>
      <trkpt lat="45.14417" lon="5.94154">
        <ele>2346.6</ele>
        <time>2021-02-27T06:41:23Z</time>
      </trkpt>
      <trkpt lat="45.14465" lon="5.94515">
        <ele>2348.4</ele>
        <time>2021-02-27T06:41:33Z</time>
      </trkpt>
      <trkpt lat="45.14467" lon="5.9452">
        <ele>2348.4</ele>
        <time>2021-02-27T06:41:36Z</time>
      </trkpt>
      <trkpt lat="45.14468" lon="5.94521">
        <ele>2348.4</ele>
        <time>2021-02-27T06:41:39Z</time>
      </trkpt>
      <trkpt lat="45.14468" lon="5.94523">
        <ele>2348.4</ele>
        <time>2021-02-27T06:41:42Z</time>
      </trkpt>
      <trkpt lat="45.14469" lon="5.94525">
        <ele>2349.8</ele>
        <time>2021-02-27T06:41:43Z</time>
      </trkpt>
      <trkpt lat="45.14469" lon="5.94526">
        <ele>2349.8</ele>
        <time>2021-02-27T06:41:45Z</time>
      </trkpt>
      <trkpt lat="45.14471" lon="5.94528">
        <ele>2349.8</ele>
        <time>2021-02-27T06:41:48Z</time>
      </trkpt>
      <trkpt lat="45.14473" lon="5.9453">
        <ele>2349.8</ele>
        <time>2021-02-27T06:41:51Z</time>
      </trkpt>
      <trkpt lat="45.14475" lon="5.94532">
        <ele>2351.4</ele>
        <time>2021-02-27T06:41:53Z</time>
      </trkpt>
      <trkpt lat="45.14479" lon="5.94537">
        <ele>2351.4</ele>
        <time>2021-02-27T06:41:55Z</time>
      </trkpt>
      <trkpt lat="45.1448" lon="5.94539">
        <ele>2351.4</ele>
        <time>2021-02-27T06:41:56Z</time>
      </trkpt>
      <trkpt lat="45.14482" lon="5.94541">
        <ele>2351.4</ele>
        <time>2021-02-27T06:41:58Z</time>
      </trkpt>
      <trkpt lat="45.14484" lon="5.94544">
        <ele>2351.4</ele>
        <time>2021-02-27T06:41:59Z</time>
      </trkpt>
      <trkpt lat="45.14485" lon="5.94546">
        <ele>2351.4</ele>
        <time>2021-02-27T06:42:00Z</time>
      </trkpt>
      <trkpt lat="45.14487" lon="5.94548">
        <ele>2351.4</ele>
        <time>2021-02-27T06:42:02Z</time>
      </trkpt>
      <trkpt lat="45.14489" lon="5.9455">
        <ele>2355.4</ele>
        <time>2021-02-27T06:42:03Z</time>
      </trkpt>
      <trkpt lat="45.1449" lon="5.94555">
        <ele>2355.4</ele>
        <time>2021-02-27T06:42:04Z</time>
      </trkpt>
      <trkpt lat="45.1449" lon="5.94557">
        <ele>2355.4</ele>
        <time>2021-02-27T06:42:06Z</time>
      </trkpt>
      <trkpt lat="45.1449" lon="5.9456">
        <ele>2355.4</ele>
        <time>2021-02-27T06:42:08Z</time>
      </trkpt>
      <trkpt lat="45.1449" lon="5.94563">
        <ele>2355.4</ele>
        <time>2021-02-27T06:42:10Z</time>
      </trkpt>
      <trkpt lat="45.14491" lon="5.94565">
        <ele>2355.4</ele>
        <time>2021-02-27T06:42:12Z</time>
      </trkpt>
      <trkpt lat="45.14491" lon="5.94568">
        <ele>2357.8</ele>
        <time>2021-02-27T06:42:13Z</time>
      </trkpt>
      <trkpt lat="45.14491" lon="5.94569">
        <ele>2357.8</ele>
        <time>2021-02-27T06:42:14Z</time>
      </trkpt>
      <trkpt lat="45.14489" lon="5.94573">
        <ele>2357.8</ele>
        <time>2021-02-27T06:42:17Z</time>
      </trkpt>
      <trkpt lat="45.14489" lon="5.94573">
        <ele>2359.6</ele>
        <time>2021-02-27T06:42:23Z</time>
      </trkpt>
      <trkpt lat="45.1449" lon="5.94576">
        <ele>2359.6</ele>
        <time>2021-02-27T06:42:24Z</time>
      </trkpt>
      <trkpt lat="45.14489" lon="5.94578">
        <ele>2359.6</ele>
        <time>2021-02-27T06:42:27Z</time>
      </trkpt>
      <trkpt lat="45.14488" lon="5.94581">
        <ele>2359.6</ele>
        <time>2021-02-27T06:42:30Z</time>
      </trkpt>
      <trkpt lat="45.14488" lon="5.94584">
        <ele>2361</ele>
        <time>2021-02-27T06:42:33Z</time>
      </trkpt>
      <trkpt lat="45.14488" lon="5.94587">
        <ele>2361</ele>
        <time>2021-02-27T06:42:35Z</time>
      </trkpt>
      <trkpt lat="45.14489" lon="5.94591">
        <ele>2361</ele>
        <time>2021-02-27T06:42:38Z</time>
      </trkpt>
      <trkpt lat="45.14488" lon="5.94594">
        <ele>2361</ele>
        <time>2021-02-27T06:42:40Z</time>
      </trkpt>
      <trkpt lat="45.14487" lon="5.94597">
        <ele>2363.8</ele>
        <time>2021-02-27T06:42:43Z</time>
      </trkpt>
      <trkpt lat="45.14487" lon="5.94601">
        <ele>2363.8</ele>
        <time>2021-02-27T06:42:45Z</time>
      </trkpt>
      <trkpt lat="45.14487" lon="5.94604">
        <ele>2363.8</ele>
        <time>2021-02-27T06:42:48Z</time>
      </trkpt>
      <trkpt lat="45.14489" lon="5.94607">
        <ele>2363.8</ele>
        <time>2021-02-27T06:42:51Z</time>
      </trkpt>
      <trkpt lat="45.14489" lon="5.94607">
        <ele>2367.4</ele>
        <time>2021-02-27T06:42:53Z</time>
      </trkpt>
      <trkpt lat="45.14489" lon="5.94613">
        <ele>2367.4</ele>
        <time>2021-02-27T06:42:54Z</time>
      </trkpt>
      <trkpt lat="45.14489" lon="5.94615">
        <ele>2367.4</ele>
        <time>2021-02-27T06:42:56Z</time>
      </trkpt>
      <trkpt lat="45.14489" lon="5.94617">
        <ele>2367.4</ele>
        <time>2021-02-27T06:42:59Z</time>
      </trkpt>
      <trkpt lat="45.14488" lon="5.94619">
        <ele>2367.4</ele>
        <time>2021-02-27T06:43:02Z</time>
      </trkpt>
      <trkpt lat="45.14488" lon="5.94621">
        <ele>2371.6</ele>
        <time>2021-02-27T06:43:03Z</time>
      </trkpt>
      <trkpt lat="45.14489" lon="5.94626">
        <ele>2371.6</ele>
        <time>2021-02-27T06:43:04Z</time>
      </trkpt>
      <trkpt lat="45.1449" lon="5.94628">
        <ele>2371.6</ele>
        <time>2021-02-27T06:43:06Z</time>
      </trkpt>
      <trkpt lat="45.1449" lon="5.9463">
        <ele>2371.6</ele>
        <time>2021-02-27T06:43:08Z</time>
      </trkpt>
      <trkpt lat="45.14491" lon="5.94632">
        <ele>2371.6</ele>
        <time>2021-02-27T06:43:10Z</time>
      </trkpt>
      <trkpt lat="45.14491" lon="5.94634">
        <ele>2371.6</ele>
        <time>2021-02-27T06:43:12Z</time>
      </trkpt>
      <trkpt lat="45.14492" lon="5.94635">
        <ele>2375.8</ele>
        <time>2021-02-27T06:43:13Z</time>
      </trkpt>
      <trkpt lat="45.14492" lon="5.94638">
        <ele>2375.8</ele>
        <time>2021-02-27T06:43:17Z</time>
      </trkpt>
      <trkpt lat="45.14492" lon="5.94638">
        <ele>2372.6</ele>
        <time>2021-02-27T06:43:23Z</time>
      </trkpt>
      <trkpt lat="45.14492" lon="5.94638">
        <ele>2370.8</ele>
        <time>2021-02-27T06:43:33Z</time>
      </trkpt>
      <trkpt lat="45.14492" lon="5.94638">
        <ele>2370.6</ele>
        <time>2021-02-27T06:43:43Z</time>
      </trkpt>
      <trkpt lat="45.14492" lon="5.94638">
        <ele>2370.8</ele>
        <time>2021-02-27T06:43:53Z</time>
      </trkpt>
      <trkpt lat="45.14492" lon="5.94638">
        <ele>2370</ele>
        <time>2021-02-27T06:44:03Z</time>
      </trkpt>
      <trkpt lat="45.14492" lon="5.94638">
        <ele>2371.8</ele>
        <time>2021-02-27T06:44:13Z</time>
      </trkpt>
      <trkpt lat="45.14496" lon="5.94641">
        <ele>2371.8</ele>
        <time>2021-02-27T06:44:21Z</time>
      </trkpt>
      <trkpt lat="45.14497" lon="5.94647">
        <ele>2371.8</ele>
        <time>2021-02-27T06:44:23Z</time>
      </trkpt>
      <trkpt lat="45.14497" lon="5.9465">
        <ele>2371.8</ele>
        <time>2021-02-27T06:44:24Z</time>
      </trkpt>
      <trkpt lat="45.14497" lon="5.94654">
        <ele>2371.8</ele>
        <time>2021-02-27T06:44:25Z</time>
      </trkpt>
      <trkpt lat="45.14497" lon="5.94658">
        <ele>2371.8</ele>
        <time>2021-02-27T06:44:26Z</time>
      </trkpt>
      <trkpt lat="45.14497" lon="5.94662">
        <ele>2371.8</ele>
        <time>2021-02-27T06:44:27Z</time>
      </trkpt>
      <trkpt lat="45.14497" lon="5.94665">
        <ele>2371.8</ele>
        <time>2021-02-27T06:44:28Z</time>
      </trkpt>
      <trkpt lat="45.14497" lon="5.9467">
        <ele>2371.8</ele>
        <time>2021-02-27T06:44:29Z</time>
      </trkpt>
      <trkpt lat="45.14498" lon="5.94673">
        <ele>2371.8</ele>
        <time>2021-02-27T06:44:30Z</time>
      </trkpt>
      <trkpt lat="45.14499" lon="5.94676">
        <ele>2369.6</ele>
        <time>2021-02-27T06:44:33Z</time>
      </trkpt>
      <trkpt lat="45.14499" lon="5.94682">
        <ele>2369.6</ele>
        <time>2021-02-27T06:44:36Z</time>
      </trkpt>
      <trkpt lat="45.145" lon="5.94685">
        <ele>2369.6</ele>
        <time>2021-02-27T06:44:38Z</time>
      </trkpt>
      <trkpt lat="45.14501" lon="5.94689">
        <ele>2369.6</ele>
        <time>2021-02-27T06:44:39Z</time>
      </trkpt>
      <trkpt lat="45.14502" lon="5.94692">
        <ele>2369.6</ele>
        <time>2021-02-27T06:44:40Z</time>
      </trkpt>
      <trkpt lat="45.14503" lon="5.94695">
        <ele>2369.6</ele>
        <time>2021-02-27T06:44:41Z</time>
      </trkpt>
      <trkpt lat="45.14504" lon="5.94698">
        <ele>2369.6</ele>
        <time>2021-02-27T06:44:42Z</time>
      </trkpt>
      <trkpt lat="45.14506" lon="5.94702">
        <ele>2368</ele>
        <time>2021-02-27T06:44:43Z</time>
      </trkpt>
      <trkpt lat="45.14509" lon="5.94711">
        <ele>2368</ele>
        <time>2021-02-27T06:44:44Z</time>
      </trkpt>
      <trkpt lat="45.14511" lon="5.94715">
        <ele>2368</ele>
        <time>2021-02-27T06:44:45Z</time>
      </trkpt>
      <trkpt lat="45.14512" lon="5.94719">
        <ele>2368</ele>
        <time>2021-02-27T06:44:46Z</time>
      </trkpt>
      <trkpt lat="45.14514" lon="5.94724">
        <ele>2368</ele>
        <time>2021-02-27T06:44:47Z</time>
      </trkpt>
      <trkpt lat="45.14515" lon="5.94728">
        <ele>2368</ele>
        <time>2021-02-27T06:44:48Z</time>
      </trkpt>
      <trkpt lat="45.14517" lon="5.94732">
        <ele>2368</ele>
        <time>2021-02-27T06:44:49Z</time>
      </trkpt>
      <trkpt lat="45.14519" lon="5.94736">
        <ele>2368</ele>
        <time>2021-02-27T06:44:50Z</time>
      </trkpt>
      <trkpt lat="45.1452" lon="5.9474">
        <ele>2368</ele>
        <time>2021-02-27T06:44:51Z</time>
      </trkpt>
      <trkpt lat="45.14522" lon="5.94744">
        <ele>2368</ele>
        <time>2021-02-27T06:44:52Z</time>
      </trkpt>
      <trkpt lat="45.14523" lon="5.94749">
        <ele>2365</ele>
        <time>2021-02-27T06:44:53Z</time>
      </trkpt>
      <trkpt lat="45.14524" lon="5.94756">
        <ele>2365</ele>
        <time>2021-02-27T06:44:54Z</time>
      </trkpt>
      <trkpt lat="45.14525" lon="5.94759">
        <ele>2365</ele>
        <time>2021-02-27T06:44:55Z</time>
      </trkpt>
      <trkpt lat="45.14525" lon="5.94763">
        <ele>2365</ele>
        <time>2021-02-27T06:44:56Z</time>
      </trkpt>
      <trkpt lat="45.14525" lon="5.94767">
        <ele>2365</ele>
        <time>2021-02-27T06:44:57Z</time>
      </trkpt>
      <trkpt lat="45.14526" lon="5.94771">
        <ele>2365</ele>
        <time>2021-02-27T06:44:58Z</time>
      </trkpt>
      <trkpt lat="45.14526" lon="5.94775">
        <ele>2365</ele>
        <time>2021-02-27T06:44:59Z</time>
      </trkpt>
      <trkpt lat="45.14526" lon="5.94779">
        <ele>2365</ele>
        <time>2021-02-27T06:45:00Z</time>
      </trkpt>
      <trkpt lat="45.14526" lon="5.94783">
        <ele>2365</ele>
        <time>2021-02-27T06:45:01Z</time>
      </trkpt>
      <trkpt lat="45.14527" lon="5.94787">
        <ele>2365</ele>
        <time>2021-02-27T06:45:02Z</time>
      </trkpt>
      <trkpt lat="45.14527" lon="5.94791">
        <ele>2364.4</ele>
        <time>2021-02-27T06:45:03Z</time>
      </trkpt>
      <trkpt lat="45.14528" lon="5.948">
        <ele>2364.4</ele>
        <time>2021-02-27T06:45:04Z</time>
      </trkpt>
      <trkpt lat="45.14529" lon="5.94804">
        <ele>2364.4</ele>
        <time>2021-02-27T06:45:05Z</time>
      </trkpt>
      <trkpt lat="45.14529" lon="5.94807">
        <ele>2364.4</ele>
        <time>2021-02-27T06:45:06Z</time>
      </trkpt>
      <trkpt lat="45.14529" lon="5.94811">
        <ele>2364.4</ele>
        <time>2021-02-27T06:45:07Z</time>
      </trkpt>
      <trkpt lat="45.1453" lon="5.94815">
        <ele>2364.4</ele>
        <time>2021-02-27T06:45:08Z</time>
      </trkpt>
      <trkpt lat="45.1453" lon="5.94819">
        <ele>2364.4</ele>
        <time>2021-02-27T06:45:09Z</time>
      </trkpt>
      <trkpt lat="45.1453" lon="5.94823">
        <ele>2364.4</ele>
        <time>2021-02-27T06:45:10Z</time>
      </trkpt>
      <trkpt lat="45.1453" lon="5.94827">
        <ele>2364.4</ele>
        <time>2021-02-27T06:45:12Z</time>
      </trkpt>
      <trkpt lat="45.14531" lon="5.94831">
        <ele>2356.8</ele>
        <time>2021-02-27T06:45:13Z</time>
      </trkpt>
      <trkpt lat="45.14528" lon="5.94837">
        <ele>2356.8</ele>
        <time>2021-02-27T06:45:14Z</time>
      </trkpt>
      <trkpt lat="45.14525" lon="5.94841">
        <ele>2356.8</ele>
        <time>2021-02-27T06:45:16Z</time>
      </trkpt>
      <trkpt lat="45.14522" lon="5.94844">
        <ele>2356.8</ele>
        <time>2021-02-27T06:45:18Z</time>
      </trkpt>
      <trkpt lat="45.1452" lon="5.94848">
        <ele>2356.8</ele>
        <time>2021-02-27T06:45:19Z</time>
      </trkpt>
      <trkpt lat="45.14517" lon="5.94851">
        <ele>2356.8</ele>
        <time>2021-02-27T06:45:20Z</time>
      </trkpt>
      <trkpt lat="45.14514" lon="5.94854">
        <ele>2356.8</ele>
        <time>2021-02-27T06:45:21Z</time>
      </trkpt>
      <trkpt lat="45.14512" lon="5.94858">
        <ele>2356.8</ele>
        <time>2021-02-27T06:45:22Z</time>
      </trkpt>
      <trkpt lat="45.14509" lon="5.94861">
        <ele>2348.2</ele>
        <time>2021-02-27T06:45:23Z</time>
      </trkpt>
      <trkpt lat="45.14501" lon="5.94871">
        <ele>2348.2</ele>
        <time>2021-02-27T06:45:24Z</time>
      </trkpt>
      <trkpt lat="45.145" lon="5.94875">
        <ele>2348.2</ele>
        <time>2021-02-27T06:45:25Z</time>
      </trkpt>
      <trkpt lat="45.14498" lon="5.94878">
        <ele>2348.2</ele>
        <time>2021-02-27T06:45:26Z</time>
      </trkpt>
      <trkpt lat="45.14496" lon="5.94882">
        <ele>2348.2</ele>
        <time>2021-02-27T06:45:27Z</time>
      </trkpt>
      <trkpt lat="45.14495" lon="5.94885">
        <ele>2348.2</ele>
        <time>2021-02-27T06:45:28Z</time>
      </trkpt>
      <trkpt lat="45.14493" lon="5.94889">
        <ele>2348.2</ele>
        <time>2021-02-27T06:45:29Z</time>
      </trkpt>
      <trkpt lat="45.14491" lon="5.94892">
        <ele>2348.2</ele>
        <time>2021-02-27T06:45:30Z</time>
      </trkpt>
      <trkpt lat="45.14489" lon="5.94896">
        <ele>2348.2</ele>
        <time>2021-02-27T06:45:32Z</time>
      </trkpt>
      <trkpt lat="45.14488" lon="5.94899">
        <ele>2344.4</ele>
        <time>2021-02-27T06:45:33Z</time>
      </trkpt>
      <trkpt lat="45.14488" lon="5.94899">
        <ele>2345.2</ele>
        <time>2021-02-27T06:45:43Z</time>
      </trkpt>
      <trkpt lat="45.14488" lon="5.94899">
        <ele>2339.6</ele>
        <time>2021-02-27T06:45:53Z</time>
      </trkpt>
      <trkpt lat="45.14488" lon="5.94899">
        <ele>2333.2</ele>
        <time>2021-02-27T06:46:03Z</time>
      </trkpt>
      <trkpt lat="45.14488" lon="5.94899">
        <ele>2328.4</ele>
        <time>2021-02-27T06:46:13Z</time>
      </trkpt>
      <trkpt lat="45.14488" lon="5.94899">
        <ele>2322.2</ele>
        <time>2021-02-27T06:46:23Z</time>
      </trkpt>
      <trkpt lat="45.14488" lon="5.94899">
        <ele>2319</ele>
        <time>2021-02-27T06:46:33Z</time>
      </trkpt>
      <trkpt lat="45.14488" lon="5.94899">
        <ele>2318.4</ele>
        <time>2021-02-27T06:46:43Z</time>
      </trkpt>
      <trkpt lat="45.14488" lon="5.94899">
        <ele>2320.2</ele>
        <time>2021-02-27T06:46:53Z</time>
      </trkpt>
      <trkpt lat="45.14488" lon="5.94899">
        <ele>2319</ele>
        <time>2021-02-27T06:47:03Z</time>
      </trkpt>
      <trkpt lat="45.14488" lon="5.94899">
        <ele>2318.2</ele>
        <time>2021-02-27T06:47:13Z</time>
      </trkpt>
      <trkpt lat="45.14488" lon="5.94899">
        <ele>2320.2</ele>
        <time>2021-02-27T06:47:23Z</time>
      </trkpt>
      <trkpt lat="45.14488" lon="5.94899">
        <ele>2321</ele>
        <time>2021-02-27T06:47:33Z</time>
      </trkpt>
      <trkpt lat="45.14488" lon="5.94899">
        <ele>2321.6</ele>
        <time>2021-02-27T06:47:43Z</time>
      </trkpt>
      <trkpt lat="45.14488" lon="5.94899">
        <ele>2320.4</ele>
        <time>2021-02-27T06:47:53Z</time>
      </trkpt>
      <trkpt lat="45.14488" lon="5.94899">
        <ele>2320.4</ele>
        <time>2021-02-27T06:48:03Z</time>
      </trkpt>
      <trkpt lat="45.14488" lon="5.94899">
        <ele>2319</ele>
        <time>2021-02-27T06:48:13Z</time>
      </trkpt>
      <trkpt lat="45.14488" lon="5.94899">
        <ele>2318.2</ele>
        <time>2021-02-27T06:48:23Z</time>
      </trkpt>
      <trkpt lat="45.14488" lon="5.94899">
        <ele>2318</ele>
        <time>2021-02-27T06:48:33Z</time>
      </trkpt>
      <trkpt lat="45.14488" lon="5.94899">
        <ele>2317.4</ele>
        <time>2021-02-27T06:48:43Z</time>
      </trkpt>
      <trkpt lat="45.14488" lon="5.94899">
        <ele>2317.2</ele>
        <time>2021-02-27T06:48:53Z</time>
      </trkpt>
      <trkpt lat="45.14488" lon="5.94899">
        <ele>2319</ele>
        <time>2021-02-27T06:49:03Z</time>
      </trkpt>
      <trkpt lat="45.14488" lon="5.94899">
        <ele>2318.4</ele>
        <time>2021-02-27T06:49:13Z</time>
      </trkpt>
      <trkpt lat="45.14488" lon="5.94899">
        <ele>2321.4</ele>
        <time>2021-02-27T06:49:23Z</time>
      </trkpt>
      <trkpt lat="45.14488" lon="5.94899">
        <ele>2321.6</ele>
        <time>2021-02-27T06:49:33Z</time>
      </trkpt>
      <trkpt lat="45.14488" lon="5.94899">
        <ele>2324.2</ele>
        <time>2021-02-27T06:49:43Z</time>
      </trkpt>
      <trkpt lat="45.14488" lon="5.94899">
        <ele>2326.6</ele>
        <time>2021-02-27T06:49:53Z</time>
      </trkpt>
      <trkpt lat="45.14488" lon="5.94899">
        <ele>2328.8</ele>
        <time>2021-02-27T06:50:03Z</time>
      </trkpt>
      <trkpt lat="45.14488" lon="5.94899">
        <ele>2331.2</ele>
        <time>2021-02-27T06:50:13Z</time>
      </trkpt>
      <trkpt lat="45.14624" lon="5.95272">
        <ele>2331.2</ele>
        <time>2021-02-27T06:50:18Z</time>
      </trkpt>
      <trkpt lat="45.14626" lon="5.95274">
        <ele>2331.2</ele>
        <time>2021-02-27T06:50:20Z</time>
      </trkpt>
      <trkpt lat="45.14627" lon="5.95275">
        <ele>2331.2</ele>
        <time>2021-02-27T06:50:22Z</time>
      </trkpt>
      <trkpt lat="45.14629" lon="5.95276">
        <ele>2332.6</ele>
        <time>2021-02-27T06:50:23Z</time>
      </trkpt>
      <trkpt lat="45.14632" lon="5.95277">
        <ele>2332.6</ele>
        <time>2021-02-27T06:50:25Z</time>
      </trkpt>
      <trkpt lat="45.14634" lon="5.95277">
        <ele>2332.6</ele>
        <time>2021-02-27T06:50:28Z</time>
      </trkpt>
      <trkpt lat="45.14635" lon="5.95278">
        <ele>2332.6</ele>
        <time>2021-02-27T06:50:30Z</time>
      </trkpt>
      <trkpt lat="45.14637" lon="5.95278">
        <ele>2332.6</ele>
        <time>2021-02-27T06:50:32Z</time>
      </trkpt>
      <trkpt lat="45.14639" lon="5.95278">
        <ele>2335.6</ele>
        <time>2021-02-27T06:50:33Z</time>
      </trkpt>
      <trkpt lat="45.1464" lon="5.95279">
        <ele>2335.6</ele>
        <time>2021-02-27T06:50:34Z</time>
      </trkpt>
      <trkpt lat="45.14643" lon="5.95279">
        <ele>2335.6</ele>
        <time>2021-02-27T06:50:36Z</time>
      </trkpt>
      <trkpt lat="45.14645" lon="5.95279">
        <ele>2335.6</ele>
        <time>2021-02-27T06:50:37Z</time>
      </trkpt>
      <trkpt lat="45.14648" lon="5.95281">
        <ele>2335.6</ele>
        <time>2021-02-27T06:50:41Z</time>
      </trkpt>
      <trkpt lat="45.1465" lon="5.9528">
        <ele>2338.2</ele>
        <time>2021-02-27T06:50:43Z</time>
      </trkpt>
      <trkpt lat="45.14653" lon="5.9528">
        <ele>2338.2</ele>
        <time>2021-02-27T06:50:45Z</time>
      </trkpt>
      <trkpt lat="45.14653" lon="5.9528">
        <ele>2339.8</ele>
        <time>2021-02-27T06:50:53Z</time>
      </trkpt>
      <trkpt lat="45.14657" lon="5.95284">
        <ele>2339.8</ele>
        <time>2021-02-27T06:50:55Z</time>
      </trkpt>
      <trkpt lat="45.14657" lon="5.95284">
        <ele>2342.4</ele>
        <time>2021-02-27T06:51:03Z</time>
      </trkpt>
      <trkpt lat="45.14657" lon="5.95284">
        <ele>2344.4</ele>
        <time>2021-02-27T06:51:13Z</time>
      </trkpt>
      <trkpt lat="45.14657" lon="5.95284">
        <ele>2346.8</ele>
        <time>2021-02-27T06:51:23Z</time>
      </trkpt>
      <trkpt lat="45.14657" lon="5.95284">
        <ele>2349.6</ele>
        <time>2021-02-27T06:51:33Z</time>
      </trkpt>
      <trkpt lat="45.14657" lon="5.95284">
        <ele>2354.6</ele>
        <time>2021-02-27T06:51:43Z</time>
      </trkpt>
      <trkpt lat="45.14691" lon="5.95307">
        <ele>2354.6</ele>
        <time>2021-02-27T06:51:47Z</time>
      </trkpt>
      <trkpt lat="45.14694" lon="5.95307">
        <ele>2354.6</ele>
        <time>2021-02-27T06:51:48Z</time>
      </trkpt>
      <trkpt lat="45.14696" lon="5.95308">
        <ele>2354.6</ele>
        <time>2021-02-27T06:51:51Z</time>
      </trkpt>
      <trkpt lat="45.14696" lon="5.95308">
        <ele>2355.6</ele>
        <time>2021-02-27T06:51:53Z</time>
      </trkpt>
      <trkpt lat="45.14697" lon="5.9531">
        <ele>2355.6</ele>
        <time>2021-02-27T06:51:56Z</time>
      </trkpt>
      <trkpt lat="45.14699" lon="5.95311">
        <ele>2355.6</ele>
        <time>2021-02-27T06:51:58Z</time>
      </trkpt>
      <trkpt lat="45.14701" lon="5.95313">
        <ele>2355.6</ele>
        <time>2021-02-27T06:52:00Z</time>
      </trkpt>
      <trkpt lat="45.14704" lon="5.95314">
        <ele>2359</ele>
        <time>2021-02-27T06:52:03Z</time>
      </trkpt>
      <trkpt lat="45.14707" lon="5.95318">
        <ele>2359</ele>
        <time>2021-02-27T06:52:07Z</time>
      </trkpt>
      <trkpt lat="45.14708" lon="5.95319">
        <ele>2359</ele>
        <time>2021-02-27T06:52:09Z</time>
      </trkpt>
      <trkpt lat="45.14709" lon="5.9532">
        <ele>2359</ele>
        <time>2021-02-27T06:52:12Z</time>
      </trkpt>
      <trkpt lat="45.1471" lon="5.95321">
        <ele>2361</ele>
        <time>2021-02-27T06:52:13Z</time>
      </trkpt>
      <trkpt lat="45.14711" lon="5.95323">
        <ele>2361</ele>
        <time>2021-02-27T06:52:15Z</time>
      </trkpt>
      <trkpt lat="45.14713" lon="5.95324">
        <ele>2361</ele>
        <time>2021-02-27T06:52:19Z</time>
      </trkpt>
      <trkpt lat="45.14713" lon="5.95324">
        <ele>2364.6</ele>
        <time>2021-02-27T06:52:23Z</time>
      </trkpt>
      <trkpt lat="45.14715" lon="5.95323">
        <ele>2364.6</ele>
        <time>2021-02-27T06:52:25Z</time>
      </trkpt>
      <trkpt lat="45.14717" lon="5.95323">
        <ele>2364.6</ele>
        <time>2021-02-27T06:52:28Z</time>
      </trkpt>
      <trkpt lat="45.14719" lon="5.95323">
        <ele>2364.6</ele>
        <time>2021-02-27T06:52:31Z</time>
      </trkpt>
      <trkpt lat="45.14719" lon="5.95323">
        <ele>2368</ele>
        <time>2021-02-27T06:52:33Z</time>
      </trkpt>
      <trkpt lat="45.14721" lon="5.95322">
        <ele>2368</ele>
        <time>2021-02-27T06:52:35Z</time>
      </trkpt>
      <trkpt lat="45.14723" lon="5.95322">
        <ele>2368</ele>
        <time>2021-02-27T06:52:38Z</time>
      </trkpt>
      <trkpt lat="45.14725" lon="5.95322">
        <ele>2368</ele>
        <time>2021-02-27T06:52:40Z</time>
      </trkpt>
      <trkpt lat="45.14727" lon="5.95321">
        <ele>2369</ele>
        <time>2021-02-27T06:52:43Z</time>
      </trkpt>
      <trkpt lat="45.1473" lon="5.95318">
        <ele>2369</ele>
        <time>2021-02-27T06:52:46Z</time>
      </trkpt>
      <trkpt lat="45.14731" lon="5.95317">
        <ele>2369</ele>
        <time>2021-02-27T06:52:48Z</time>
      </trkpt>
      <trkpt lat="45.14732" lon="5.95316">
        <ele>2369</ele>
        <time>2021-02-27T06:52:50Z</time>
      </trkpt>
      <trkpt lat="45.14734" lon="5.95315">
        <ele>2369</ele>
        <time>2021-02-27T06:52:52Z</time>
      </trkpt>
      <trkpt lat="45.14735" lon="5.95315">
        <ele>2371.8</ele>
        <time>2021-02-27T06:52:53Z</time>
      </trkpt>
      <trkpt lat="45.14737" lon="5.95315">
        <ele>2371.8</ele>
        <time>2021-02-27T06:52:54Z</time>
      </trkpt>
      <trkpt lat="45.14739" lon="5.95315">
        <ele>2371.8</ele>
        <time>2021-02-27T06:52:57Z</time>
      </trkpt>
      <trkpt lat="45.14741" lon="5.95315">
        <ele>2371.8</ele>
        <time>2021-02-27T06:53:01Z</time>
      </trkpt>
      <trkpt lat="45.14741" lon="5.95315">
        <ele>2374.6</ele>
        <time>2021-02-27T06:53:03Z</time>
      </trkpt>
      <trkpt lat="45.14745" lon="5.95317">
        <ele>2374.6</ele>
        <time>2021-02-27T06:53:04Z</time>
      </trkpt>
      <trkpt lat="45.14746" lon="5.95318">
        <ele>2374.6</ele>
        <time>2021-02-27T06:53:09Z</time>
      </trkpt>
      <trkpt lat="45.14748" lon="5.95319">
        <ele>2377.8</ele>
        <time>2021-02-27T06:53:13Z</time>
      </trkpt>
      <trkpt lat="45.14749" lon="5.9532">
        <ele>2377.8</ele>
        <time>2021-02-27T06:53:17Z</time>
      </trkpt>
      <trkpt lat="45.14751" lon="5.9532">
        <ele>2377.8</ele>
        <time>2021-02-27T06:53:22Z</time>
      </trkpt>
      <trkpt lat="45.14753" lon="5.95321">
        <ele>2380.8</ele>
        <time>2021-02-27T06:53:23Z</time>
      </trkpt>
      <trkpt lat="45.14756" lon="5.95322">
        <ele>2380.8</ele>
        <time>2021-02-27T06:53:26Z</time>
      </trkpt>
      <trkpt lat="45.14757" lon="5.95323">
        <ele>2380.8</ele>
        <time>2021-02-27T06:53:30Z</time>
      </trkpt>
      <trkpt lat="45.14758" lon="5.95323">
        <ele>2380.8</ele>
        <time>2021-02-27T06:53:32Z</time>
      </trkpt>
      <trkpt lat="45.14759" lon="5.95324">
        <ele>2383.8</ele>
        <time>2021-02-27T06:53:33Z</time>
      </trkpt>
      <trkpt lat="45.14762" lon="5.95325">
        <ele>2383.8</ele>
        <time>2021-02-27T06:53:35Z</time>
      </trkpt>
      <trkpt lat="45.14763" lon="5.95325">
        <ele>2383.8</ele>
        <time>2021-02-27T06:53:39Z</time>
      </trkpt>
      <trkpt lat="45.14764" lon="5.95325">
        <ele>2383.8</ele>
        <time>2021-02-27T06:53:42Z</time>
      </trkpt>
      <trkpt lat="45.14765" lon="5.95325">
        <ele>2385.8</ele>
        <time>2021-02-27T06:53:43Z</time>
      </trkpt>
      <trkpt lat="45.14768" lon="5.95326">
        <ele>2385.8</ele>
        <time>2021-02-27T06:53:48Z</time>
      </trkpt>
      <trkpt lat="45.14768" lon="5.95326">
        <ele>2385.8</ele>
        <time>2021-02-27T06:53:52Z</time>
      </trkpt>
      <trkpt lat="45.14769" lon="5.95325">
        <ele>2387.6</ele>
        <time>2021-02-27T06:53:53Z</time>
      </trkpt>
      <trkpt lat="45.14771" lon="5.95327">
        <ele>2387.6</ele>
        <time>2021-02-27T06:53:56Z</time>
      </trkpt>
      <trkpt lat="45.14772" lon="5.95331">
        <ele>2387.6</ele>
        <time>2021-02-27T06:53:59Z</time>
      </trkpt>
      <trkpt lat="45.14772" lon="5.95331">
        <ele>2389.8</ele>
        <time>2021-02-27T06:54:03Z</time>
      </trkpt>
      <trkpt lat="45.14774" lon="5.95332">
        <ele>2389.8</ele>
        <time>2021-02-27T06:54:04Z</time>
      </trkpt>
      <trkpt lat="45.14776" lon="5.9533">
        <ele>2389.8</ele>
        <time>2021-02-27T06:54:09Z</time>
      </trkpt>
      <trkpt lat="45.14778" lon="5.95329">
        <ele>2392</ele>
        <time>2021-02-27T06:54:13Z</time>
      </trkpt>
      <trkpt lat="45.14779" lon="5.95326">
        <ele>2392</ele>
        <time>2021-02-27T06:54:16Z</time>
      </trkpt>
      <trkpt lat="45.14781" lon="5.95324">
        <ele>2392</ele>
        <time>2021-02-27T06:54:18Z</time>
      </trkpt>
      <trkpt lat="45.14783" lon="5.95324">
        <ele>2392</ele>
        <time>2021-02-27T06:54:21Z</time>
      </trkpt>
      <trkpt lat="45.14783" lon="5.95324">
        <ele>2395</ele>
        <time>2021-02-27T06:54:23Z</time>
      </trkpt>
      <trkpt lat="45.14785" lon="5.95322">
        <ele>2395</ele>
        <time>2021-02-27T06:54:24Z</time>
      </trkpt>
      <trkpt lat="45.14787" lon="5.95322">
        <ele>2395</ele>
        <time>2021-02-27T06:54:28Z</time>
      </trkpt>
      <trkpt lat="45.14788" lon="5.95325">
        <ele>2395</ele>
        <time>2021-02-27T06:54:31Z</time>
      </trkpt>
      <trkpt lat="45.14788" lon="5.95325">
        <ele>2398</ele>
        <time>2021-02-27T06:54:33Z</time>
      </trkpt>
      <trkpt lat="45.14789" lon="5.95328">
        <ele>2398</ele>
        <time>2021-02-27T06:54:34Z</time>
      </trkpt>
      <trkpt lat="45.1479" lon="5.95326">
        <ele>2398</ele>
        <time>2021-02-27T06:54:38Z</time>
      </trkpt>
      <trkpt lat="45.14792" lon="5.95324">
        <ele>2398</ele>
        <time>2021-02-27T06:54:41Z</time>
      </trkpt>
      <trkpt lat="45.14794" lon="5.95322">
        <ele>2399</ele>
        <time>2021-02-27T06:54:43Z</time>
      </trkpt>
      <trkpt lat="45.14795" lon="5.95319">
        <ele>2399</ele>
        <time>2021-02-27T06:54:45Z</time>
      </trkpt>
      <trkpt lat="45.14795" lon="5.95317">
        <ele>2399</ele>
        <time>2021-02-27T06:54:48Z</time>
      </trkpt>
      <trkpt lat="45.14795" lon="5.95314">
        <ele>2399</ele>
        <time>2021-02-27T06:54:51Z</time>
      </trkpt>
      <trkpt lat="45.14796" lon="5.95311">
        <ele>2400.4</ele>
        <time>2021-02-27T06:54:53Z</time>
      </trkpt>
      <trkpt lat="45.14797" lon="5.95309">
        <ele>2400.4</ele>
        <time>2021-02-27T06:54:55Z</time>
      </trkpt>
      <trkpt lat="45.14798" lon="5.95306">
        <ele>2400.4</ele>
        <time>2021-02-27T06:54:58Z</time>
      </trkpt>
      <trkpt lat="45.14797" lon="5.95303">
        <ele>2400.4</ele>
        <time>2021-02-27T06:55:01Z</time>
      </trkpt>
      <trkpt lat="45.14797" lon="5.95303">
        <ele>2403.6</ele>
        <time>2021-02-27T06:55:03Z</time>
      </trkpt>
      <trkpt lat="45.14798" lon="5.95301">
        <ele>2403.6</ele>
        <time>2021-02-27T06:55:04Z</time>
      </trkpt>
      <trkpt lat="45.148" lon="5.95302">
        <ele>2403.6</ele>
        <time>2021-02-27T06:55:07Z</time>
      </trkpt>
      <trkpt lat="45.14801" lon="5.95302">
        <ele>2403.6</ele>
        <time>2021-02-27T06:55:09Z</time>
      </trkpt>
      <trkpt lat="45.14803" lon="5.95303">
        <ele>2403.6</ele>
        <time>2021-02-27T06:55:12Z</time>
      </trkpt>
      <trkpt lat="45.14804" lon="5.95304">
        <ele>2405.8</ele>
        <time>2021-02-27T06:55:13Z</time>
      </trkpt>
      <trkpt lat="45.14806" lon="5.95307">
        <ele>2405.8</ele>
        <time>2021-02-27T06:55:14Z</time>
      </trkpt>
      <trkpt lat="45.14807" lon="5.95308">
        <ele>2405.8</ele>
        <time>2021-02-27T06:55:16Z</time>
      </trkpt>
      <trkpt lat="45.14807" lon="5.95309">
        <ele>2405.8</ele>
        <time>2021-02-27T06:55:19Z</time>
      </trkpt>
      <trkpt lat="45.14808" lon="5.9531">
        <ele>2405.8</ele>
        <time>2021-02-27T06:55:22Z</time>
      </trkpt>
      <trkpt lat="45.14809" lon="5.95312">
        <ele>2409.8</ele>
        <time>2021-02-27T06:55:23Z</time>
      </trkpt>
      <trkpt lat="45.14813" lon="5.95313">
        <ele>2409.8</ele>
        <time>2021-02-27T06:55:25Z</time>
      </trkpt>
      <trkpt lat="45.14814" lon="5.95313">
        <ele>2409.8</ele>
        <time>2021-02-27T06:55:27Z</time>
      </trkpt>
      <trkpt lat="45.14815" lon="5.95314">
        <ele>2409.8</ele>
        <time>2021-02-27T06:55:29Z</time>
      </trkpt>
      <trkpt lat="45.14817" lon="5.95314">
        <ele>2409.8</ele>
        <time>2021-02-27T06:55:32Z</time>
      </trkpt>
      <trkpt lat="45.14818" lon="5.95315">
        <ele>2411.8</ele>
        <time>2021-02-27T06:55:33Z</time>
      </trkpt>
      <trkpt lat="45.1482" lon="5.95316">
        <ele>2411.8</ele>
        <time>2021-02-27T06:55:34Z</time>
      </trkpt>
      <trkpt lat="45.14821" lon="5.95318">
        <ele>2411.8</ele>
        <time>2021-02-27T06:55:37Z</time>
      </trkpt>
      <trkpt lat="45.14823" lon="5.95321">
        <ele>2411.8</ele>
        <time>2021-02-27T06:55:40Z</time>
      </trkpt>
      <trkpt lat="45.14823" lon="5.95321">
        <ele>2414.2</ele>
        <time>2021-02-27T06:55:43Z</time>
      </trkpt>
      <trkpt lat="45.14826" lon="5.95323">
        <ele>2414.2</ele>
        <time>2021-02-27T06:55:44Z</time>
      </trkpt>
      <trkpt lat="45.14827" lon="5.95323">
        <ele>2414.2</ele>
        <time>2021-02-27T06:55:47Z</time>
      </trkpt>
      <trkpt lat="45.14829" lon="5.95323">
        <ele>2414.2</ele>
        <time>2021-02-27T06:55:50Z</time>
      </trkpt>
      <trkpt lat="45.1483" lon="5.95323">
        <ele>2414.2</ele>
        <time>2021-02-27T06:55:52Z</time>
      </trkpt>
      <trkpt lat="45.14831" lon="5.95323">
        <ele>2417.6</ele>
        <time>2021-02-27T06:55:53Z</time>
      </trkpt>
      <trkpt lat="45.14833" lon="5.95324">
        <ele>2417.6</ele>
        <time>2021-02-27T06:55:54Z</time>
      </trkpt>
      <trkpt lat="45.14835" lon="5.95325">
        <ele>2417.6</ele>
        <time>2021-02-27T06:55:57Z</time>
      </trkpt>
      <trkpt lat="45.14837" lon="5.95326">
        <ele>2417.6</ele>
        <time>2021-02-27T06:56:01Z</time>
      </trkpt>
      <trkpt lat="45.14837" lon="5.95326">
        <ele>2419.8</ele>
        <time>2021-02-27T06:56:03Z</time>
      </trkpt>
      <trkpt lat="45.1484" lon="5.95326">
        <ele>2419.8</ele>
        <time>2021-02-27T06:56:04Z</time>
      </trkpt>
      <trkpt lat="45.14841" lon="5.95326">
        <ele>2419.8</ele>
        <time>2021-02-27T06:56:07Z</time>
      </trkpt>
      <trkpt lat="45.14843" lon="5.95327">
        <ele>2419.8</ele>
        <time>2021-02-27T06:56:09Z</time>
      </trkpt>
      <trkpt lat="45.14844" lon="5.95327">
        <ele>2419.8</ele>
        <time>2021-02-27T06:56:12Z</time>
      </trkpt>
      <trkpt lat="45.14845" lon="5.95327">
        <ele>2424.4</ele>
        <time>2021-02-27T06:56:13Z</time>
      </trkpt>
      <trkpt lat="45.14847" lon="5.95328">
        <ele>2424.4</ele>
        <time>2021-02-27T06:56:15Z</time>
      </trkpt>
      <trkpt lat="45.1485" lon="5.9533">
        <ele>2424.4</ele>
        <time>2021-02-27T06:56:18Z</time>
      </trkpt>
      <trkpt lat="45.14853" lon="5.95331">
        <ele>2424.4</ele>
        <time>2021-02-27T06:56:21Z</time>
      </trkpt>
      <trkpt lat="45.14853" lon="5.95331">
        <ele>2427</ele>
        <time>2021-02-27T06:56:23Z</time>
      </trkpt>
      <trkpt lat="45.14855" lon="5.95332">
        <ele>2427</ele>
        <time>2021-02-27T06:56:24Z</time>
      </trkpt>
      <trkpt lat="45.14857" lon="5.95333">
        <ele>2427</ele>
        <time>2021-02-27T06:56:26Z</time>
      </trkpt>
      <trkpt lat="45.14859" lon="5.95334">
        <ele>2427</ele>
        <time>2021-02-27T06:56:28Z</time>
      </trkpt>
      <trkpt lat="45.14861" lon="5.95335">
        <ele>2427</ele>
        <time>2021-02-27T06:56:31Z</time>
      </trkpt>
      <trkpt lat="45.14863" lon="5.95335">
        <ele>2429.2</ele>
        <time>2021-02-27T06:56:33Z</time>
      </trkpt>
      <trkpt lat="45.14866" lon="5.95336">
        <ele>2429.2</ele>
        <time>2021-02-27T06:56:36Z</time>
      </trkpt>
      <trkpt lat="45.14867" lon="5.95336">
        <ele>2429.2</ele>
        <time>2021-02-27T06:56:39Z</time>
      </trkpt>
      <trkpt lat="45.14868" lon="5.95336">
        <ele>2429.2</ele>
        <time>2021-02-27T06:56:42Z</time>
      </trkpt>
      <trkpt lat="45.14869" lon="5.95337">
        <ele>2431.8</ele>
        <time>2021-02-27T06:56:43Z</time>
      </trkpt>
      <trkpt lat="45.14873" lon="5.95339">
        <ele>2431.8</ele>
        <time>2021-02-27T06:56:46Z</time>
      </trkpt>
      <trkpt lat="45.14874" lon="5.95339">
        <ele>2431.8</ele>
        <time>2021-02-27T06:56:49Z</time>
      </trkpt>
      <trkpt lat="45.14875" lon="5.95339">
        <ele>2431.8</ele>
        <time>2021-02-27T06:56:52Z</time>
      </trkpt>
      <trkpt lat="45.14876" lon="5.9534">
        <ele>2434.6</ele>
        <time>2021-02-27T06:56:53Z</time>
      </trkpt>
      <trkpt lat="45.14878" lon="5.9534">
        <ele>2434.6</ele>
        <time>2021-02-27T06:56:55Z</time>
      </trkpt>
      <trkpt lat="45.1488" lon="5.95341">
        <ele>2434.6</ele>
        <time>2021-02-27T06:56:58Z</time>
      </trkpt>
      <trkpt lat="45.14882" lon="5.95342">
        <ele>2434.6</ele>
        <time>2021-02-27T06:57:01Z</time>
      </trkpt>
      <trkpt lat="45.14882" lon="5.95342">
        <ele>2439</ele>
        <time>2021-02-27T06:57:03Z</time>
      </trkpt>
      <trkpt lat="45.14885" lon="5.95343">
        <ele>2439</ele>
        <time>2021-02-27T06:57:05Z</time>
      </trkpt>
      <trkpt lat="45.14886" lon="5.95343">
        <ele>2439</ele>
        <time>2021-02-27T06:57:09Z</time>
      </trkpt>
      <trkpt lat="45.14887" lon="5.95343">
        <ele>2439</ele>
        <time>2021-02-27T06:57:12Z</time>
      </trkpt>
      <trkpt lat="45.14888" lon="5.95343">
        <ele>2441.4</ele>
        <time>2021-02-27T06:57:13Z</time>
      </trkpt>
      <trkpt lat="45.14891" lon="5.95343">
        <ele>2441.4</ele>
        <time>2021-02-27T06:57:15Z</time>
      </trkpt>
      <trkpt lat="45.14894" lon="5.95343">
        <ele>2441.4</ele>
        <time>2021-02-27T06:57:18Z</time>
      </trkpt>
      <trkpt lat="45.14896" lon="5.95343">
        <ele>2441.4</ele>
        <time>2021-02-27T06:57:21Z</time>
      </trkpt>
      <trkpt lat="45.14896" lon="5.95343">
        <ele>2442.4</ele>
        <time>2021-02-27T06:57:23Z</time>
      </trkpt>
      <trkpt lat="45.14899" lon="5.95344">
        <ele>2442.4</ele>
        <time>2021-02-27T06:57:24Z</time>
      </trkpt>
      <trkpt lat="45.149" lon="5.95344">
        <ele>2442.4</ele>
        <time>2021-02-27T06:57:26Z</time>
      </trkpt>
      <trkpt lat="45.14902" lon="5.95345">
        <ele>2442.4</ele>
        <time>2021-02-27T06:57:29Z</time>
      </trkpt>
      <trkpt lat="45.14903" lon="5.95345">
        <ele>2442.4</ele>
        <time>2021-02-27T06:57:32Z</time>
      </trkpt>
      <trkpt lat="45.14904" lon="5.95346">
        <ele>2445</ele>
        <time>2021-02-27T06:57:33Z</time>
      </trkpt>
      <trkpt lat="45.14907" lon="5.95346">
        <ele>2445</ele>
        <time>2021-02-27T06:57:35Z</time>
      </trkpt>
      <trkpt lat="45.14909" lon="5.95346">
        <ele>2445</ele>
        <time>2021-02-27T06:57:38Z</time>
      </trkpt>
      <trkpt lat="45.14911" lon="5.95347">
        <ele>2445</ele>
        <time>2021-02-27T06:57:41Z</time>
      </trkpt>
      <trkpt lat="45.14911" lon="5.95347">
        <ele>2447.8</ele>
        <time>2021-02-27T06:57:43Z</time>
      </trkpt>
      <trkpt lat="45.14913" lon="5.95347">
        <ele>2447.8</ele>
        <time>2021-02-27T06:57:45Z</time>
      </trkpt>
      <trkpt lat="45.14916" lon="5.95348">
        <ele>2447.8</ele>
        <time>2021-02-27T06:57:48Z</time>
      </trkpt>
      <trkpt lat="45.14917" lon="5.9535">
        <ele>2447.8</ele>
        <time>2021-02-27T06:57:51Z</time>
      </trkpt>
      <trkpt lat="45.14917" lon="5.9535">
        <ele>2450.8</ele>
        <time>2021-02-27T06:57:53Z</time>
      </trkpt>
      <trkpt lat="45.14919" lon="5.95351">
        <ele>2450.8</ele>
        <time>2021-02-27T06:57:55Z</time>
      </trkpt>
      <trkpt lat="45.14921" lon="5.95352">
        <ele>2450.8</ele>
        <time>2021-02-27T06:57:59Z</time>
      </trkpt>
      <trkpt lat="45.14924" lon="5.95352">
        <ele>2453.6</ele>
        <time>2021-02-27T06:58:03Z</time>
      </trkpt>
      <trkpt lat="45.14925" lon="5.95354">
        <ele>2453.6</ele>
        <time>2021-02-27T06:58:08Z</time>
      </trkpt>
      <trkpt lat="45.14928" lon="5.95356">
        <ele>2453.6</ele>
        <time>2021-02-27T06:58:11Z</time>
      </trkpt>
      <trkpt lat="45.14928" lon="5.95356">
        <ele>2455.8</ele>
        <time>2021-02-27T06:58:13Z</time>
      </trkpt>
      <trkpt lat="45.14929" lon="5.95357">
        <ele>2455.8</ele>
        <time>2021-02-27T06:58:14Z</time>
      </trkpt>
      <trkpt lat="45.14932" lon="5.95359">
        <ele>2455.8</ele>
        <time>2021-02-27T06:58:17Z</time>
      </trkpt>
      <trkpt lat="45.14934" lon="5.9536">
        <ele>2455.8</ele>
        <time>2021-02-27T06:58:19Z</time>
      </trkpt>
      <trkpt lat="45.14937" lon="5.95361">
        <ele>2455.8</ele>
        <time>2021-02-27T06:58:21Z</time>
      </trkpt>
      <trkpt lat="45.1494" lon="5.95362">
        <ele>2458</ele>
        <time>2021-02-27T06:58:23Z</time>
      </trkpt>
      <trkpt lat="45.14943" lon="5.95365">
        <ele>2458</ele>
        <time>2021-02-27T06:58:25Z</time>
      </trkpt>
      <trkpt lat="45.14944" lon="5.95367">
        <ele>2458</ele>
        <time>2021-02-27T06:58:27Z</time>
      </trkpt>
      <trkpt lat="45.14945" lon="5.95368">
        <ele>2458</ele>
        <time>2021-02-27T06:58:29Z</time>
      </trkpt>
      <trkpt lat="45.14946" lon="5.95369">
        <ele>2458</ele>
        <time>2021-02-27T06:58:32Z</time>
      </trkpt>
      <trkpt lat="45.14948" lon="5.95371">
        <ele>2459.8</ele>
        <time>2021-02-27T06:58:33Z</time>
      </trkpt>
      <trkpt lat="45.1495" lon="5.95372">
        <ele>2459.8</ele>
        <time>2021-02-27T06:58:34Z</time>
      </trkpt>
      <trkpt lat="45.14951" lon="5.95373">
        <ele>2459.8</ele>
        <time>2021-02-27T06:58:36Z</time>
      </trkpt>
      <trkpt lat="45.14953" lon="5.95374">
        <ele>2459.8</ele>
        <time>2021-02-27T06:58:39Z</time>
      </trkpt>
      <trkpt lat="45.14954" lon="5.95375">
        <ele>2459.8</ele>
        <time>2021-02-27T06:58:42Z</time>
      </trkpt>
      <trkpt lat="45.14955" lon="5.95376">
        <ele>2462.4</ele>
        <time>2021-02-27T06:58:43Z</time>
      </trkpt>
      <trkpt lat="45.14959" lon="5.95377">
        <ele>2462.4</ele>
        <time>2021-02-27T06:58:44Z</time>
      </trkpt>
      <trkpt lat="45.1496" lon="5.95378">
        <ele>2462.4</ele>
        <time>2021-02-27T06:58:46Z</time>
      </trkpt>
      <trkpt lat="45.14962" lon="5.95379">
        <ele>2462.4</ele>
        <time>2021-02-27T06:58:48Z</time>
      </trkpt>
      <trkpt lat="45.14963" lon="5.95379">
        <ele>2462.4</ele>
        <time>2021-02-27T06:58:50Z</time>
      </trkpt>
      <trkpt lat="45.14965" lon="5.9538">
        <ele>2462.4</ele>
        <time>2021-02-27T06:58:52Z</time>
      </trkpt>
      <trkpt lat="45.14966" lon="5.9538">
        <ele>2464.8</ele>
        <time>2021-02-27T06:58:53Z</time>
      </trkpt>
      <trkpt lat="45.14969" lon="5.95382">
        <ele>2464.8</ele>
        <time>2021-02-27T06:58:54Z</time>
      </trkpt>
      <trkpt lat="45.14971" lon="5.95383">
        <ele>2464.8</ele>
        <time>2021-02-27T06:58:56Z</time>
      </trkpt>
      <trkpt lat="45.14973" lon="5.95384">
        <ele>2464.8</ele>
        <time>2021-02-27T06:58:58Z</time>
      </trkpt>
      <trkpt lat="45.14975" lon="5.95385">
        <ele>2464.8</ele>
        <time>2021-02-27T06:59:00Z</time>
      </trkpt>
      <trkpt lat="45.14976" lon="5.95387">
        <ele>2464.8</ele>
        <time>2021-02-27T06:59:02Z</time>
      </trkpt>
      <trkpt lat="45.14978" lon="5.95388">
        <ele>2465.8</ele>
        <time>2021-02-27T06:59:03Z</time>
      </trkpt>
      <trkpt lat="45.1498" lon="5.95391">
        <ele>2465.8</ele>
        <time>2021-02-27T06:59:04Z</time>
      </trkpt>
      <trkpt lat="45.14981" lon="5.95393">
        <ele>2465.8</ele>
        <time>2021-02-27T06:59:06Z</time>
      </trkpt>
      <trkpt lat="45.14982" lon="5.95395">
        <ele>2465.8</ele>
        <time>2021-02-27T06:59:08Z</time>
      </trkpt>
      <trkpt lat="45.14983" lon="5.95397">
        <ele>2465.8</ele>
        <time>2021-02-27T06:59:10Z</time>
      </trkpt>
      <trkpt lat="45.14984" lon="5.95399">
        <ele>2465.8</ele>
        <time>2021-02-27T06:59:12Z</time>
      </trkpt>
      <trkpt lat="45.14985" lon="5.95401">
        <ele>2467.4</ele>
        <time>2021-02-27T06:59:13Z</time>
      </trkpt>
      <trkpt lat="45.14987" lon="5.95404">
        <ele>2467.4</ele>
        <time>2021-02-27T06:59:14Z</time>
      </trkpt>
      <trkpt lat="45.14988" lon="5.95406">
        <ele>2467.4</ele>
        <time>2021-02-27T06:59:16Z</time>
      </trkpt>
      <trkpt lat="45.1499" lon="5.95407">
        <ele>2467.4</ele>
        <time>2021-02-27T06:59:18Z</time>
      </trkpt>
      <trkpt lat="45.14991" lon="5.95409">
        <ele>2467.4</ele>
        <time>2021-02-27T06:59:20Z</time>
      </trkpt>
      <trkpt lat="45.14993" lon="5.9541">
        <ele>2467.4</ele>
        <time>2021-02-27T06:59:22Z</time>
      </trkpt>
      <trkpt lat="45.14994" lon="5.95412">
        <ele>2468.8</ele>
        <time>2021-02-27T06:59:23Z</time>
      </trkpt>
      <trkpt lat="45.14995" lon="5.95413">
        <ele>2468.8</ele>
        <time>2021-02-27T06:59:24Z</time>
      </trkpt>
      <trkpt lat="45.14997" lon="5.95415">
        <ele>2468.8</ele>
        <time>2021-02-27T06:59:26Z</time>
      </trkpt>
      <trkpt lat="45.14999" lon="5.95416">
        <ele>2468.8</ele>
        <time>2021-02-27T06:59:29Z</time>
      </trkpt>
      <trkpt lat="45.15002" lon="5.95417">
        <ele>2468.8</ele>
        <time>2021-02-27T06:59:31Z</time>
      </trkpt>
      <trkpt lat="45.15002" lon="5.95417">
        <ele>2470.6</ele>
        <time>2021-02-27T06:59:33Z</time>
      </trkpt>
      <trkpt lat="45.15006" lon="5.95419">
        <ele>2470.6</ele>
        <time>2021-02-27T06:59:34Z</time>
      </trkpt>
      <trkpt lat="45.15007" lon="5.95419">
        <ele>2470.6</ele>
        <time>2021-02-27T06:59:36Z</time>
      </trkpt>
      <trkpt lat="45.15009" lon="5.9542">
        <ele>2470.6</ele>
        <time>2021-02-27T06:59:38Z</time>
      </trkpt>
      <trkpt lat="45.15011" lon="5.95421">
        <ele>2470.6</ele>
        <time>2021-02-27T06:59:40Z</time>
      </trkpt>
      <trkpt lat="45.15013" lon="5.95422">
        <ele>2470.6</ele>
        <time>2021-02-27T06:59:42Z</time>
      </trkpt>
      <trkpt lat="45.15014" lon="5.95423">
        <ele>2472.4</ele>
        <time>2021-02-27T06:59:43Z</time>
      </trkpt>
      <trkpt lat="45.15016" lon="5.95423">
        <ele>2472.4</ele>
        <time>2021-02-27T06:59:45Z</time>
      </trkpt>
      <trkpt lat="45.15019" lon="5.95424">
        <ele>2472.4</ele>
        <time>2021-02-27T06:59:47Z</time>
      </trkpt>
      <trkpt lat="45.15021" lon="5.95424">
        <ele>2472.4</ele>
        <time>2021-02-27T06:59:50Z</time>
      </trkpt>
      <trkpt lat="45.15021" lon="5.95424">
        <ele>2475</ele>
        <time>2021-02-27T06:59:53Z</time>
      </trkpt>
      <trkpt lat="45.15025" lon="5.95425">
        <ele>2475</ele>
        <time>2021-02-27T06:59:54Z</time>
      </trkpt>
      <trkpt lat="45.15027" lon="5.95426">
        <ele>2475</ele>
        <time>2021-02-27T06:59:56Z</time>
      </trkpt>
      <trkpt lat="45.15029" lon="5.95426">
        <ele>2475</ele>
        <time>2021-02-27T06:59:58Z</time>
      </trkpt>
      <trkpt lat="45.15031" lon="5.95427">
        <ele>2475</ele>
        <time>2021-02-27T07:00:00Z</time>
      </trkpt>
      <trkpt lat="45.15032" lon="5.95427">
        <ele>2475</ele>
        <time>2021-02-27T07:00:02Z</time>
      </trkpt>
      <trkpt lat="45.15034" lon="5.95428">
        <ele>2478.6</ele>
        <time>2021-02-27T07:00:03Z</time>
      </trkpt>
      <trkpt lat="45.15036" lon="5.95429">
        <ele>2478.6</ele>
        <time>2021-02-27T07:00:04Z</time>
      </trkpt>
      <trkpt lat="45.15038" lon="5.9543">
        <ele>2478.6</ele>
        <time>2021-02-27T07:00:06Z</time>
      </trkpt>
      <trkpt lat="45.15039" lon="5.95431">
        <ele>2478.6</ele>
        <time>2021-02-27T07:00:08Z</time>
      </trkpt>
      <trkpt lat="45.15041" lon="5.95432">
        <ele>2478.6</ele>
        <time>2021-02-27T07:00:10Z</time>
      </trkpt>
      <trkpt lat="45.15042" lon="5.95433">
        <ele>2478.6</ele>
        <time>2021-02-27T07:00:12Z</time>
      </trkpt>
      <trkpt lat="45.15044" lon="5.95434">
        <ele>2482.4</ele>
        <time>2021-02-27T07:00:13Z</time>
      </trkpt>
      <trkpt lat="45.15046" lon="5.95436">
        <ele>2482.4</ele>
        <time>2021-02-27T07:00:14Z</time>
      </trkpt>
      <trkpt lat="45.15048" lon="5.95438">
        <ele>2482.4</ele>
        <time>2021-02-27T07:00:16Z</time>
      </trkpt>
      <trkpt lat="45.15049" lon="5.95439">
        <ele>2482.4</ele>
        <time>2021-02-27T07:00:18Z</time>
      </trkpt>
      <trkpt lat="45.15051" lon="5.9544">
        <ele>2482.4</ele>
        <time>2021-02-27T07:00:20Z</time>
      </trkpt>
      <trkpt lat="45.15052" lon="5.95441">
        <ele>2482.4</ele>
        <time>2021-02-27T07:00:22Z</time>
      </trkpt>
      <trkpt lat="45.15054" lon="5.95442">
        <ele>2483.8</ele>
        <time>2021-02-27T07:00:23Z</time>
      </trkpt>
      <trkpt lat="45.15055" lon="5.95442">
        <ele>2483.8</ele>
        <time>2021-02-27T07:00:24Z</time>
      </trkpt>
      <trkpt lat="45.15057" lon="5.95444">
        <ele>2483.8</ele>
        <time>2021-02-27T07:00:27Z</time>
      </trkpt>
      <trkpt lat="45.1506" lon="5.95445">
        <ele>2483.8</ele>
        <time>2021-02-27T07:00:29Z</time>
      </trkpt>
      <trkpt lat="45.15062" lon="5.95445">
        <ele>2483.8</ele>
        <time>2021-02-27T07:00:31Z</time>
      </trkpt>
      <trkpt lat="45.15064" lon="5.95446">
        <ele>2485.4</ele>
        <time>2021-02-27T07:00:33Z</time>
      </trkpt>
      <trkpt lat="45.15067" lon="5.95447">
        <ele>2485.4</ele>
        <time>2021-02-27T07:00:35Z</time>
      </trkpt>
      <trkpt lat="45.15067" lon="5.95447">
        <ele>2485.4</ele>
        <time>2021-02-27T07:00:38Z</time>
      </trkpt>
      <trkpt lat="45.15067" lon="5.95448">
        <ele>2486.8</ele>
        <time>2021-02-27T07:00:43Z</time>
      </trkpt>
      <trkpt lat="45.15067" lon="5.95448">
        <ele>2485.8</ele>
        <time>2021-02-27T07:00:53Z</time>
      </trkpt>
      <trkpt lat="45.15068" lon="5.95449">
        <ele>2485</ele>
        <time>2021-02-27T07:01:03Z</time>
      </trkpt>
      <trkpt lat="45.15068" lon="5.95449">
        <ele>2485.2</ele>
        <time>2021-02-27T07:01:13Z</time>
      </trkpt>
      <trkpt lat="45.15068" lon="5.95449">
        <ele>2485.2</ele>
        <time>2021-02-27T07:01:23Z</time>
      </trkpt>
      <trkpt lat="45.15069" lon="5.9545">
        <ele>2485.6</ele>
        <time>2021-02-27T07:01:33Z</time>
      </trkpt>
      <trkpt lat="45.15069" lon="5.9545">
        <ele>2486.6</ele>
        <time>2021-02-27T07:01:43Z</time>
      </trkpt>
      <trkpt lat="45.15069" lon="5.95451">
        <ele>2486.6</ele>
        <time>2021-02-27T07:01:53Z</time>
      </trkpt>
      <trkpt lat="45.1507" lon="5.95451">
        <ele>2485.8</ele>
        <time>2021-02-27T07:02:03Z</time>
      </trkpt>
      <trkpt lat="45.1507" lon="5.95451">
        <ele>2485.4</ele>
        <time>2021-02-27T07:02:13Z</time>
      </trkpt>
      <trkpt lat="45.1507" lon="5.95452">
        <ele>2486</ele>
        <time>2021-02-27T07:02:23Z</time>
      </trkpt>
      <trkpt lat="45.15071" lon="5.95452">
        <ele>2486.4</ele>
        <time>2021-02-27T07:02:33Z</time>
      </trkpt>
      <trkpt lat="45.15071" lon="5.95453">
        <ele>2486.2</ele>
        <time>2021-02-27T07:02:43Z</time>
      </trkpt>
      <trkpt lat="45.15071" lon="5.95453">
        <ele>2486</ele>
        <time>2021-02-27T07:02:53Z</time>
      </trkpt>
      <trkpt lat="45.15071" lon="5.95453">
        <ele>2486</ele>
        <time>2021-02-27T07:03:00Z</time>
      </trkpt>
      <trkpt lat="45.15072" lon="5.95454">
        <ele>2486</ele>
        <time>2021-02-27T07:03:02Z</time>
      </trkpt>
      <trkpt lat="45.15072" lon="5.95454">
        <ele>2488</ele>
        <time>2021-02-27T07:03:03Z</time>
      </trkpt>
      <trkpt lat="45.15075" lon="5.95456">
        <ele>2488</ele>
        <time>2021-02-27T07:03:04Z</time>
      </trkpt>
      <trkpt lat="45.15077" lon="5.95458">
        <ele>2488</ele>
        <time>2021-02-27T07:03:05Z</time>
      </trkpt>
      <trkpt lat="45.15079" lon="5.9546">
        <ele>2488</ele>
        <time>2021-02-27T07:03:07Z</time>
      </trkpt>
      <trkpt lat="45.15081" lon="5.95462">
        <ele>2488</ele>
        <time>2021-02-27T07:03:09Z</time>
      </trkpt>
      <trkpt lat="45.15082" lon="5.95463">
        <ele>2488</ele>
        <time>2021-02-27T07:03:11Z</time>
      </trkpt>
      <trkpt lat="45.15082" lon="5.95463">
        <ele>2490.4</ele>
        <time>2021-02-27T07:03:13Z</time>
      </trkpt>
      <trkpt lat="45.15086" lon="5.95466">
        <ele>2490.4</ele>
        <time>2021-02-27T07:03:14Z</time>
      </trkpt>
      <trkpt lat="45.15088" lon="5.95467">
        <ele>2490.4</ele>
        <time>2021-02-27T07:03:16Z</time>
      </trkpt>
      <trkpt lat="45.15089" lon="5.95468">
        <ele>2490.4</ele>
        <time>2021-02-27T07:03:18Z</time>
      </trkpt>
      <trkpt lat="45.15091" lon="5.95469">
        <ele>2490.4</ele>
        <time>2021-02-27T07:03:20Z</time>
      </trkpt>
      <trkpt lat="45.15092" lon="5.9547">
        <ele>2490.4</ele>
        <time>2021-02-27T07:03:22Z</time>
      </trkpt>
      <trkpt lat="45.15094" lon="5.9547">
        <ele>2491.6</ele>
        <time>2021-02-27T07:03:23Z</time>
      </trkpt>
      <trkpt lat="45.15096" lon="5.95472">
        <ele>2491.6</ele>
        <time>2021-02-27T07:03:24Z</time>
      </trkpt>
      <trkpt lat="45.15097" lon="5.95472">
        <ele>2491.6</ele>
        <time>2021-02-27T07:03:26Z</time>
      </trkpt>
      <trkpt lat="45.15098" lon="5.95473">
        <ele>2491.6</ele>
        <time>2021-02-27T07:03:28Z</time>
      </trkpt>
      <trkpt lat="45.15099" lon="5.95474">
        <ele>2491.6</ele>
        <time>2021-02-27T07:03:32Z</time>
      </trkpt>
      <trkpt lat="45.15101" lon="5.95474">
        <ele>2494</ele>
        <time>2021-02-27T07:03:33Z</time>
      </trkpt>
      <trkpt lat="45.15104" lon="5.95475">
        <ele>2494</ele>
        <time>2021-02-27T07:03:34Z</time>
      </trkpt>
      <trkpt lat="45.15106" lon="5.95476">
        <ele>2494</ele>
        <time>2021-02-27T07:03:36Z</time>
      </trkpt>
      <trkpt lat="45.15107" lon="5.95476">
        <ele>2494</ele>
        <time>2021-02-27T07:03:39Z</time>
      </trkpt>
      <trkpt lat="45.15109" lon="5.95477">
        <ele>2494</ele>
        <time>2021-02-27T07:03:42Z</time>
      </trkpt>
      <trkpt lat="45.1511" lon="5.95478">
        <ele>2496.4</ele>
        <time>2021-02-27T07:03:43Z</time>
      </trkpt>
      <trkpt lat="45.15113" lon="5.95479">
        <ele>2496.4</ele>
        <time>2021-02-27T07:03:44Z</time>
      </trkpt>
      <trkpt lat="45.15114" lon="5.9548">
        <ele>2496.4</ele>
        <time>2021-02-27T07:03:46Z</time>
      </trkpt>
      <trkpt lat="45.15115" lon="5.95481">
        <ele>2496.4</ele>
        <time>2021-02-27T07:03:49Z</time>
      </trkpt>
      <trkpt lat="45.15117" lon="5.95481">
        <ele>2496.4</ele>
        <time>2021-02-27T07:03:52Z</time>
      </trkpt>
      <trkpt lat="45.15118" lon="5.95482">
        <ele>2499.4</ele>
        <time>2021-02-27T07:03:53Z</time>
      </trkpt>
      <trkpt lat="45.15119" lon="5.95477">
        <ele>2499.4</ele>
        <time>2021-02-27T07:03:55Z</time>
      </trkpt>
      <trkpt lat="45.15119" lon="5.95476">
        <ele>2499.4</ele>
        <time>2021-02-27T07:03:58Z</time>
      </trkpt>
      <trkpt lat="45.15119" lon="5.95474">
        <ele>2499.4</ele>
        <time>2021-02-27T07:04:00Z</time>
      </trkpt>
      <trkpt lat="45.15119" lon="5.95472">
        <ele>2499.4</ele>
        <time>2021-02-27T07:04:02Z</time>
      </trkpt>
      <trkpt lat="45.15119" lon="5.95471">
        <ele>2501.4</ele>
        <time>2021-02-27T07:04:03Z</time>
      </trkpt>
      <trkpt lat="45.15119" lon="5.95468">
        <ele>2501.4</ele>
        <time>2021-02-27T07:04:04Z</time>
      </trkpt>
      <trkpt lat="45.1512" lon="5.95465">
        <ele>2501.4</ele>
        <time>2021-02-27T07:04:07Z</time>
      </trkpt>
      <trkpt lat="45.15122" lon="5.95463">
        <ele>2501.4</ele>
        <time>2021-02-27T07:04:10Z</time>
      </trkpt>
      <trkpt lat="45.15122" lon="5.95463">
        <ele>2504.2</ele>
        <time>2021-02-27T07:04:13Z</time>
      </trkpt>
      <trkpt lat="45.15123" lon="5.95461">
        <ele>2504.2</ele>
        <time>2021-02-27T07:04:15Z</time>
      </trkpt>
      <trkpt lat="45.15122" lon="5.95458">
        <ele>2504.2</ele>
        <time>2021-02-27T07:04:17Z</time>
      </trkpt>
      <trkpt lat="45.15121" lon="5.95456">
        <ele>2504.2</ele>
        <time>2021-02-27T07:04:19Z</time>
      </trkpt>
      <trkpt lat="45.15123" lon="5.95454">
        <ele>2507.4</ele>
        <time>2021-02-27T07:04:23Z</time>
      </trkpt>
      <trkpt lat="45.15125" lon="5.95455">
        <ele>2507.4</ele>
        <time>2021-02-27T07:04:25Z</time>
      </trkpt>
      <trkpt lat="45.15126" lon="5.95456">
        <ele>2507.4</ele>
        <time>2021-02-27T07:04:27Z</time>
      </trkpt>
      <trkpt lat="45.15128" lon="5.95457">
        <ele>2507.4</ele>
        <time>2021-02-27T07:04:29Z</time>
      </trkpt>
      <trkpt lat="45.1513" lon="5.95458">
        <ele>2507.4</ele>
        <time>2021-02-27T07:04:31Z</time>
      </trkpt>
      <trkpt lat="45.1513" lon="5.95458">
        <ele>2510.2</ele>
        <time>2021-02-27T07:04:33Z</time>
      </trkpt>
      <trkpt lat="45.15132" lon="5.95456">
        <ele>2510.2</ele>
        <time>2021-02-27T07:04:38Z</time>
      </trkpt>
      <trkpt lat="45.1513" lon="5.95452">
        <ele>2510.2</ele>
        <time>2021-02-27T07:04:41Z</time>
      </trkpt>
      <trkpt lat="45.1513" lon="5.95452">
        <ele>2512</ele>
        <time>2021-02-27T07:04:43Z</time>
      </trkpt>
      <trkpt lat="45.1513" lon="5.95449">
        <ele>2512</ele>
        <time>2021-02-27T07:04:44Z</time>
      </trkpt>
      <trkpt lat="45.15132" lon="5.95449">
        <ele>2512</ele>
        <time>2021-02-27T07:04:48Z</time>
      </trkpt>
      <trkpt lat="45.15133" lon="5.9545">
        <ele>2512</ele>
        <time>2021-02-27T07:04:50Z</time>
      </trkpt>
      <trkpt lat="45.15135" lon="5.9545">
        <ele>2512</ele>
        <time>2021-02-27T07:04:52Z</time>
      </trkpt>
      <trkpt lat="45.15136" lon="5.9545">
        <ele>2514.8</ele>
        <time>2021-02-27T07:04:53Z</time>
      </trkpt>
      <trkpt lat="45.15138" lon="5.95448">
        <ele>2514.8</ele>
        <time>2021-02-27T07:04:55Z</time>
      </trkpt>
      <trkpt lat="45.15137" lon="5.95447">
        <ele>2514.8</ele>
        <time>2021-02-27T07:04:59Z</time>
      </trkpt>
      <trkpt lat="45.15137" lon="5.95445">
        <ele>2514.8</ele>
        <time>2021-02-27T07:05:02Z</time>
      </trkpt>
      <trkpt lat="45.15136" lon="5.95444">
        <ele>2516.4</ele>
        <time>2021-02-27T07:05:03Z</time>
      </trkpt>
      <trkpt lat="45.15134" lon="5.95441">
        <ele>2516.4</ele>
        <time>2021-02-27T07:05:05Z</time>
      </trkpt>
      <trkpt lat="45.15133" lon="5.95438">
        <ele>2516.4</ele>
        <time>2021-02-27T07:05:07Z</time>
      </trkpt>
      <trkpt lat="45.15132" lon="5.95434">
        <ele>2516.4</ele>
        <time>2021-02-27T07:05:10Z</time>
      </trkpt>
      <trkpt lat="45.15132" lon="5.95431">
        <ele>2518.6</ele>
        <time>2021-02-27T07:05:13Z</time>
      </trkpt>
      <trkpt lat="45.15134" lon="5.95428">
        <ele>2518.6</ele>
        <time>2021-02-27T07:05:15Z</time>
      </trkpt>
      <trkpt lat="45.15135" lon="5.95425">
        <ele>2518.6</ele>
        <time>2021-02-27T07:05:17Z</time>
      </trkpt>
      <trkpt lat="45.15136" lon="5.95423">
        <ele>2518.6</ele>
        <time>2021-02-27T07:05:19Z</time>
      </trkpt>
      <trkpt lat="45.15137" lon="5.95419">
        <ele>2518.6</ele>
        <time>2021-02-27T07:05:21Z</time>
      </trkpt>
      <trkpt lat="45.15137" lon="5.95419">
        <ele>2521.8</ele>
        <time>2021-02-27T07:05:23Z</time>
      </trkpt>
      <trkpt lat="45.15139" lon="5.95414">
        <ele>2521.8</ele>
        <time>2021-02-27T07:05:24Z</time>
      </trkpt>
      <trkpt lat="45.1514" lon="5.95413">
        <ele>2521.8</ele>
        <time>2021-02-27T07:05:26Z</time>
      </trkpt>
      <trkpt lat="45.15141" lon="5.95411">
        <ele>2521.8</ele>
        <time>2021-02-27T07:05:29Z</time>
      </trkpt>
      <trkpt lat="45.15142" lon="5.95409">
        <ele>2521.8</ele>
        <time>2021-02-27T07:05:32Z</time>
      </trkpt>
      <trkpt lat="45.15143" lon="5.95408">
        <ele>2523.6</ele>
        <time>2021-02-27T07:05:33Z</time>
      </trkpt>
      <trkpt lat="45.15146" lon="5.95406">
        <ele>2523.6</ele>
        <time>2021-02-27T07:05:35Z</time>
      </trkpt>
      <trkpt lat="45.15148" lon="5.95405">
        <ele>2523.6</ele>
        <time>2021-02-27T07:05:37Z</time>
      </trkpt>
      <trkpt lat="45.15149" lon="5.95403">
        <ele>2523.6</ele>
        <time>2021-02-27T07:05:40Z</time>
      </trkpt>
      <trkpt lat="45.15149" lon="5.95403">
        <ele>2527.4</ele>
        <time>2021-02-27T07:05:43Z</time>
      </trkpt>
      <trkpt lat="45.15152" lon="5.95401">
        <ele>2527.4</ele>
        <time>2021-02-27T07:05:44Z</time>
      </trkpt>
      <trkpt lat="45.15153" lon="5.95398">
        <ele>2527.4</ele>
        <time>2021-02-27T07:05:47Z</time>
      </trkpt>
      <trkpt lat="45.15156" lon="5.95397">
        <ele>2527.4</ele>
        <time>2021-02-27T07:05:50Z</time>
      </trkpt>
      <trkpt lat="45.15157" lon="5.95395">
        <ele>2530.2</ele>
        <time>2021-02-27T07:05:53Z</time>
      </trkpt>
      <trkpt lat="45.15159" lon="5.95391">
        <ele>2530.2</ele>
        <time>2021-02-27T07:05:55Z</time>
      </trkpt>
      <trkpt lat="45.15161" lon="5.95389">
        <ele>2530.2</ele>
        <time>2021-02-27T07:05:57Z</time>
      </trkpt>
      <trkpt lat="45.15162" lon="5.95388">
        <ele>2530.2</ele>
        <time>2021-02-27T07:05:59Z</time>
      </trkpt>
      <trkpt lat="45.15163" lon="5.95386">
        <ele>2530.2</ele>
        <time>2021-02-27T07:06:02Z</time>
      </trkpt>
      <trkpt lat="45.15164" lon="5.95384">
        <ele>2532.4</ele>
        <time>2021-02-27T07:06:03Z</time>
      </trkpt>
      <trkpt lat="45.15165" lon="5.95383">
        <ele>2532.4</ele>
        <time>2021-02-27T07:06:05Z</time>
      </trkpt>
      <trkpt lat="45.15166" lon="5.9538">
        <ele>2532.4</ele>
        <time>2021-02-27T07:06:08Z</time>
      </trkpt>
      <trkpt lat="45.15168" lon="5.95378">
        <ele>2532.4</ele>
        <time>2021-02-27T07:06:11Z</time>
      </trkpt>
      <trkpt lat="45.1517" lon="5.95378">
        <ele>2535.4</ele>
        <time>2021-02-27T07:06:13Z</time>
      </trkpt>
      <trkpt lat="45.15173" lon="5.95379">
        <ele>2535.4</ele>
        <time>2021-02-27T07:06:16Z</time>
      </trkpt>
      <trkpt lat="45.15174" lon="5.9538">
        <ele>2535.4</ele>
        <time>2021-02-27T07:06:18Z</time>
      </trkpt>
      <trkpt lat="45.15175" lon="5.9538">
        <ele>2535.4</ele>
        <time>2021-02-27T07:06:22Z</time>
      </trkpt>
      <trkpt lat="45.15176" lon="5.9538">
        <ele>2538.4</ele>
        <time>2021-02-27T07:06:23Z</time>
      </trkpt>
      <trkpt lat="45.15178" lon="5.95379">
        <ele>2538.4</ele>
        <time>2021-02-27T07:06:25Z</time>
      </trkpt>
      <trkpt lat="45.1518" lon="5.95381">
        <ele>2538.4</ele>
        <time>2021-02-27T07:06:28Z</time>
      </trkpt>
      <trkpt lat="45.15181" lon="5.95383">
        <ele>2538.4</ele>
        <time>2021-02-27T07:06:31Z</time>
      </trkpt>
      <trkpt lat="45.15181" lon="5.95383">
        <ele>2541.6</ele>
        <time>2021-02-27T07:06:33Z</time>
      </trkpt>
      <trkpt lat="45.15183" lon="5.95385">
        <ele>2541.6</ele>
        <time>2021-02-27T07:06:34Z</time>
      </trkpt>
      <trkpt lat="45.15184" lon="5.95387">
        <ele>2541.6</ele>
        <time>2021-02-27T07:06:37Z</time>
      </trkpt>
      <trkpt lat="45.15185" lon="5.9539">
        <ele>2541.6</ele>
        <time>2021-02-27T07:06:39Z</time>
      </trkpt>
      <trkpt lat="45.15186" lon="5.95393">
        <ele>2541.6</ele>
        <time>2021-02-27T07:06:41Z</time>
      </trkpt>
      <trkpt lat="45.15186" lon="5.95395">
        <ele>2543.8</ele>
        <time>2021-02-27T07:06:43Z</time>
      </trkpt>
      <trkpt lat="45.15186" lon="5.954">
        <ele>2543.8</ele>
        <time>2021-02-27T07:06:46Z</time>
      </trkpt>
      <trkpt lat="45.15187" lon="5.95401">
        <ele>2543.8</ele>
        <time>2021-02-27T07:06:50Z</time>
      </trkpt>
      <trkpt lat="45.15188" lon="5.95401">
        <ele>2543.8</ele>
        <time>2021-02-27T07:06:52Z</time>
      </trkpt>
      <trkpt lat="45.15189" lon="5.95402">
        <ele>2546.6</ele>
        <time>2021-02-27T07:06:53Z</time>
      </trkpt>
      <trkpt lat="45.15191" lon="5.95403">
        <ele>2546.6</ele>
        <time>2021-02-27T07:06:54Z</time>
      </trkpt>
      <trkpt lat="45.15193" lon="5.95405">
        <ele>2546.6</ele>
        <time>2021-02-27T07:06:57Z</time>
      </trkpt>
      <trkpt lat="45.15195" lon="5.95407">
        <ele>2546.6</ele>
        <time>2021-02-27T07:07:00Z</time>
      </trkpt>
      <trkpt lat="45.15196" lon="5.9541">
        <ele>2550.2</ele>
        <time>2021-02-27T07:07:03Z</time>
      </trkpt>
      <trkpt lat="45.15197" lon="5.95414">
        <ele>2550.2</ele>
        <time>2021-02-27T07:07:06Z</time>
      </trkpt>
      <trkpt lat="45.15198" lon="5.95417">
        <ele>2550.2</ele>
        <time>2021-02-27T07:07:09Z</time>
      </trkpt>
      <trkpt lat="45.15198" lon="5.9542">
        <ele>2550.2</ele>
        <time>2021-02-27T07:07:11Z</time>
      </trkpt>
      <trkpt lat="45.15199" lon="5.95423">
        <ele>2553.4</ele>
        <time>2021-02-27T07:07:13Z</time>
      </trkpt>
      <trkpt lat="45.152" lon="5.95426">
        <ele>2553.4</ele>
        <time>2021-02-27T07:07:15Z</time>
      </trkpt>
      <trkpt lat="45.152" lon="5.95429">
        <ele>2553.4</ele>
        <time>2021-02-27T07:07:17Z</time>
      </trkpt>
      <trkpt lat="45.152" lon="5.95432">
        <ele>2553.4</ele>
        <time>2021-02-27T07:07:19Z</time>
      </trkpt>
      <trkpt lat="45.152" lon="5.95435">
        <ele>2553.4</ele>
        <time>2021-02-27T07:07:21Z</time>
      </trkpt>
      <trkpt lat="45.152" lon="5.95435">
        <ele>2555.4</ele>
        <time>2021-02-27T07:07:23Z</time>
      </trkpt>
      <trkpt lat="45.15201" lon="5.95438">
        <ele>2555.4</ele>
        <time>2021-02-27T07:07:24Z</time>
      </trkpt>
      <trkpt lat="45.15201" lon="5.95441">
        <ele>2555.4</ele>
        <time>2021-02-27T07:07:27Z</time>
      </trkpt>
      <trkpt lat="45.15201" lon="5.95444">
        <ele>2555.4</ele>
        <time>2021-02-27T07:07:29Z</time>
      </trkpt>
      <trkpt lat="45.15201" lon="5.95447">
        <ele>2555.4</ele>
        <time>2021-02-27T07:07:31Z</time>
      </trkpt>
      <trkpt lat="45.15202" lon="5.9545">
        <ele>2556.8</ele>
        <time>2021-02-27T07:07:33Z</time>
      </trkpt>
      <trkpt lat="45.15203" lon="5.95454">
        <ele>2556.8</ele>
        <time>2021-02-27T07:07:36Z</time>
      </trkpt>
      <trkpt lat="45.15204" lon="5.95455">
        <ele>2556.8</ele>
        <time>2021-02-27T07:07:38Z</time>
      </trkpt>
      <trkpt lat="45.15204" lon="5.95457">
        <ele>2556.8</ele>
        <time>2021-02-27T07:07:40Z</time>
      </trkpt>
      <trkpt lat="45.15205" lon="5.95458">
        <ele>2556.8</ele>
        <time>2021-02-27T07:07:42Z</time>
      </trkpt>
      <trkpt lat="45.15206" lon="5.95459">
        <ele>2560.2</ele>
        <time>2021-02-27T07:07:43Z</time>
      </trkpt>
      <trkpt lat="45.15207" lon="5.95461">
        <ele>2560.2</ele>
        <time>2021-02-27T07:07:44Z</time>
      </trkpt>
      <trkpt lat="45.15209" lon="5.95463">
        <ele>2560.2</ele>
        <time>2021-02-27T07:07:46Z</time>
      </trkpt>
      <trkpt lat="45.15211" lon="5.95464">
        <ele>2560.2</ele>
        <time>2021-02-27T07:07:48Z</time>
      </trkpt>
      <trkpt lat="45.15213" lon="5.95465">
        <ele>2560.2</ele>
        <time>2021-02-27T07:07:50Z</time>
      </trkpt>
      <trkpt lat="45.15216" lon="5.95466">
        <ele>2562.8</ele>
        <time>2021-02-27T07:07:53Z</time>
      </trkpt>
      <trkpt lat="45.15219" lon="5.95469">
        <ele>2562.8</ele>
        <time>2021-02-27T07:07:56Z</time>
      </trkpt>
      <trkpt lat="45.1522" lon="5.9547">
        <ele>2562.8</ele>
        <time>2021-02-27T07:07:58Z</time>
      </trkpt>
      <trkpt lat="45.15222" lon="5.95471">
        <ele>2562.8</ele>
        <time>2021-02-27T07:08:00Z</time>
      </trkpt>
      <trkpt lat="45.15223" lon="5.95472">
        <ele>2562.8</ele>
        <time>2021-02-27T07:08:02Z</time>
      </trkpt>
      <trkpt lat="45.15224" lon="5.95473">
        <ele>2564.8</ele>
        <time>2021-02-27T07:08:03Z</time>
      </trkpt>
      <trkpt lat="45.15226" lon="5.95476">
        <ele>2564.8</ele>
        <time>2021-02-27T07:08:04Z</time>
      </trkpt>
      <trkpt lat="45.15227" lon="5.95477">
        <ele>2564.8</ele>
        <time>2021-02-27T07:08:06Z</time>
      </trkpt>
      <trkpt lat="45.15228" lon="5.95479">
        <ele>2564.8</ele>
        <time>2021-02-27T07:08:09Z</time>
      </trkpt>
      <trkpt lat="45.1523" lon="5.9548">
        <ele>2564.8</ele>
        <time>2021-02-27T07:08:12Z</time>
      </trkpt>
      <trkpt lat="45.15231" lon="5.95482">
        <ele>2566.6</ele>
        <time>2021-02-27T07:08:13Z</time>
      </trkpt>
      <trkpt lat="45.15233" lon="5.95485">
        <ele>2566.6</ele>
        <time>2021-02-27T07:08:14Z</time>
      </trkpt>
      <trkpt lat="45.15235" lon="5.95487">
        <ele>2566.6</ele>
        <time>2021-02-27T07:08:16Z</time>
      </trkpt>
      <trkpt lat="45.15236" lon="5.95488">
        <ele>2566.6</ele>
        <time>2021-02-27T07:08:18Z</time>
      </trkpt>
      <trkpt lat="45.15238" lon="5.9549">
        <ele>2566.6</ele>
        <time>2021-02-27T07:08:20Z</time>
      </trkpt>
      <trkpt lat="45.15239" lon="5.95492">
        <ele>2566.6</ele>
        <time>2021-02-27T07:08:22Z</time>
      </trkpt>
      <trkpt lat="45.15241" lon="5.95493">
        <ele>2570</ele>
        <time>2021-02-27T07:08:23Z</time>
      </trkpt>
      <trkpt lat="45.15243" lon="5.95494">
        <ele>2570</ele>
        <time>2021-02-27T07:08:24Z</time>
      </trkpt>
      <trkpt lat="45.15245" lon="5.95495">
        <ele>2570</ele>
        <time>2021-02-27T07:08:26Z</time>
      </trkpt>
      <trkpt lat="45.15246" lon="5.95495">
        <ele>2570</ele>
        <time>2021-02-27T07:08:28Z</time>
      </trkpt>
      <trkpt lat="45.15248" lon="5.95495">
        <ele>2570</ele>
        <time>2021-02-27T07:08:30Z</time>
      </trkpt>
      <trkpt lat="45.1525" lon="5.95496">
        <ele>2570</ele>
        <time>2021-02-27T07:08:32Z</time>
      </trkpt>
      <trkpt lat="45.15251" lon="5.95496">
        <ele>2572.4</ele>
        <time>2021-02-27T07:08:33Z</time>
      </trkpt>
      <trkpt lat="45.15254" lon="5.95496">
        <ele>2572.4</ele>
        <time>2021-02-27T07:08:35Z</time>
      </trkpt>
      <trkpt lat="45.15256" lon="5.95496">
        <ele>2572.4</ele>
        <time>2021-02-27T07:08:37Z</time>
      </trkpt>
      <trkpt lat="45.15257" lon="5.95496">
        <ele>2572.4</ele>
        <time>2021-02-27T07:08:39Z</time>
      </trkpt>
      <trkpt lat="45.15258" lon="5.95496">
        <ele>2572.4</ele>
        <time>2021-02-27T07:08:42Z</time>
      </trkpt>
      <trkpt lat="45.1526" lon="5.95497">
        <ele>2575</ele>
        <time>2021-02-27T07:08:43Z</time>
      </trkpt>
      <trkpt lat="45.15264" lon="5.95496">
        <ele>2575</ele>
        <time>2021-02-27T07:08:44Z</time>
      </trkpt>
      <trkpt lat="45.15265" lon="5.95496">
        <ele>2575</ele>
        <time>2021-02-27T07:08:45Z</time>
      </trkpt>
      <trkpt lat="45.15267" lon="5.95496">
        <ele>2575</ele>
        <time>2021-02-27T07:08:46Z</time>
      </trkpt>
      <trkpt lat="45.15269" lon="5.95495">
        <ele>2575</ele>
        <time>2021-02-27T07:08:48Z</time>
      </trkpt>
      <trkpt lat="45.15271" lon="5.95495">
        <ele>2575</ele>
        <time>2021-02-27T07:08:50Z</time>
      </trkpt>
      <trkpt lat="45.15272" lon="5.95495">
        <ele>2575</ele>
        <time>2021-02-27T07:08:52Z</time>
      </trkpt>
      <trkpt lat="45.15274" lon="5.95495">
        <ele>2576.4</ele>
        <time>2021-02-27T07:08:53Z</time>
      </trkpt>
      <trkpt lat="45.15276" lon="5.95495">
        <ele>2576.4</ele>
        <time>2021-02-27T07:08:55Z</time>
      </trkpt>
      <trkpt lat="45.15277" lon="5.95495">
        <ele>2576.4</ele>
        <time>2021-02-27T07:08:57Z</time>
      </trkpt>
      <trkpt lat="45.15279" lon="5.95497">
        <ele>2576.4</ele>
        <time>2021-02-27T07:08:59Z</time>
      </trkpt>
      <trkpt lat="45.15281" lon="5.95498">
        <ele>2576.4</ele>
        <time>2021-02-27T07:09:01Z</time>
      </trkpt>
      <trkpt lat="45.15281" lon="5.95498">
        <ele>2578.8</ele>
        <time>2021-02-27T07:09:03Z</time>
      </trkpt>
      <trkpt lat="45.15283" lon="5.955">
        <ele>2578.8</ele>
        <time>2021-02-27T07:09:04Z</time>
      </trkpt>
      <trkpt lat="45.15285" lon="5.95503">
        <ele>2578.8</ele>
        <time>2021-02-27T07:09:07Z</time>
      </trkpt>
      <trkpt lat="45.15285" lon="5.95506">
        <ele>2578.8</ele>
        <time>2021-02-27T07:09:09Z</time>
      </trkpt>
      <trkpt lat="45.15287" lon="5.95508">
        <ele>2578.8</ele>
        <time>2021-02-27T07:09:11Z</time>
      </trkpt>
      <trkpt lat="45.15288" lon="5.9551">
        <ele>2581.2</ele>
        <time>2021-02-27T07:09:13Z</time>
      </trkpt>
      <trkpt lat="45.1529" lon="5.95513">
        <ele>2581.2</ele>
        <time>2021-02-27T07:09:16Z</time>
      </trkpt>
      <trkpt lat="45.15291" lon="5.95515">
        <ele>2581.2</ele>
        <time>2021-02-27T07:09:18Z</time>
      </trkpt>
      <trkpt lat="45.15292" lon="5.95518">
        <ele>2581.2</ele>
        <time>2021-02-27T07:09:20Z</time>
      </trkpt>
      <trkpt lat="45.15293" lon="5.9552">
        <ele>2582</ele>
        <time>2021-02-27T07:09:23Z</time>
      </trkpt>
      <trkpt lat="45.15296" lon="5.95524">
        <ele>2582</ele>
        <time>2021-02-27T07:09:25Z</time>
      </trkpt>
      <trkpt lat="45.15297" lon="5.95525">
        <ele>2582</ele>
        <time>2021-02-27T07:09:27Z</time>
      </trkpt>
      <trkpt lat="45.15298" lon="5.95526">
        <ele>2582</ele>
        <time>2021-02-27T07:09:30Z</time>
      </trkpt>
      <trkpt lat="45.15299" lon="5.95528">
        <ele>2582</ele>
        <time>2021-02-27T07:09:32Z</time>
      </trkpt>
      <trkpt lat="45.153" lon="5.95529">
        <ele>2584.4</ele>
        <time>2021-02-27T07:09:33Z</time>
      </trkpt>
      <trkpt lat="45.15301" lon="5.9553">
        <ele>2584.4</ele>
        <time>2021-02-27T07:09:34Z</time>
      </trkpt>
      <trkpt lat="45.15304" lon="5.95531">
        <ele>2584.4</ele>
        <time>2021-02-27T07:09:38Z</time>
      </trkpt>
      <trkpt lat="45.15306" lon="5.95531">
        <ele>2584.4</ele>
        <time>2021-02-27T07:09:40Z</time>
      </trkpt>
      <trkpt lat="45.15308" lon="5.9553">
        <ele>2587.2</ele>
        <time>2021-02-27T07:09:43Z</time>
      </trkpt>
      <trkpt lat="45.1531" lon="5.95529">
        <ele>2587.2</ele>
        <time>2021-02-27T07:09:46Z</time>
      </trkpt>
      <trkpt lat="45.15312" lon="5.95527">
        <ele>2587.2</ele>
        <time>2021-02-27T07:09:48Z</time>
      </trkpt>
      <trkpt lat="45.15315" lon="5.95526">
        <ele>2587.2</ele>
        <time>2021-02-27T07:09:51Z</time>
      </trkpt>
      <trkpt lat="45.15315" lon="5.95526">
        <ele>2589.6</ele>
        <time>2021-02-27T07:09:53Z</time>
      </trkpt>
      <trkpt lat="45.15317" lon="5.95526">
        <ele>2589.6</ele>
        <time>2021-02-27T07:09:54Z</time>
      </trkpt>
      <trkpt lat="45.15319" lon="5.95528">
        <ele>2589.6</ele>
        <time>2021-02-27T07:09:56Z</time>
      </trkpt>
      <trkpt lat="45.15321" lon="5.95531">
        <ele>2589.6</ele>
        <time>2021-02-27T07:09:59Z</time>
      </trkpt>
      <trkpt lat="45.15323" lon="5.95532">
        <ele>2589.6</ele>
        <time>2021-02-27T07:10:01Z</time>
      </trkpt>
      <trkpt lat="45.15323" lon="5.95532">
        <ele>2593.2</ele>
        <time>2021-02-27T07:10:03Z</time>
      </trkpt>
      <trkpt lat="45.15325" lon="5.95534">
        <ele>2593.2</ele>
        <time>2021-02-27T07:10:04Z</time>
      </trkpt>
      <trkpt lat="45.15327" lon="5.95535">
        <ele>2593.2</ele>
        <time>2021-02-27T07:10:06Z</time>
      </trkpt>
      <trkpt lat="45.15328" lon="5.95537">
        <ele>2593.2</ele>
        <time>2021-02-27T07:10:08Z</time>
      </trkpt>
      <trkpt lat="45.1533" lon="5.95539">
        <ele>2593.2</ele>
        <time>2021-02-27T07:10:11Z</time>
      </trkpt>
      <trkpt lat="45.1533" lon="5.95539">
        <ele>2596.4</ele>
        <time>2021-02-27T07:10:13Z</time>
      </trkpt>
      <trkpt lat="45.15332" lon="5.95542">
        <ele>2596.4</ele>
        <time>2021-02-27T07:10:14Z</time>
      </trkpt>
      <trkpt lat="45.15333" lon="5.95543">
        <ele>2596.4</ele>
        <time>2021-02-27T07:10:16Z</time>
      </trkpt>
      <trkpt lat="45.15335" lon="5.95546">
        <ele>2596.4</ele>
        <time>2021-02-27T07:10:19Z</time>
      </trkpt>
      <trkpt lat="45.15337" lon="5.95547">
        <ele>2596.4</ele>
        <time>2021-02-27T07:10:21Z</time>
      </trkpt>
      <trkpt lat="45.15339" lon="5.95549">
        <ele>2598</ele>
        <time>2021-02-27T07:10:23Z</time>
      </trkpt>
      <trkpt lat="45.15342" lon="5.95552">
        <ele>2598</ele>
        <time>2021-02-27T07:10:26Z</time>
      </trkpt>
      <trkpt lat="45.15343" lon="5.95553">
        <ele>2598</ele>
        <time>2021-02-27T07:10:29Z</time>
      </trkpt>
      <trkpt lat="45.15344" lon="5.95555">
        <ele>2598</ele>
        <time>2021-02-27T07:10:32Z</time>
      </trkpt>
      <trkpt lat="45.15345" lon="5.95556">
        <ele>2601</ele>
        <time>2021-02-27T07:10:33Z</time>
      </trkpt>
      <trkpt lat="45.15348" lon="5.95559">
        <ele>2601</ele>
        <time>2021-02-27T07:10:35Z</time>
      </trkpt>
      <trkpt lat="45.15349" lon="5.95561">
        <ele>2601</ele>
        <time>2021-02-27T07:10:37Z</time>
      </trkpt>
      <trkpt lat="45.1535" lon="5.95562">
        <ele>2601</ele>
        <time>2021-02-27T07:10:40Z</time>
      </trkpt>
      <trkpt lat="45.15351" lon="5.95563">
        <ele>2601</ele>
        <time>2021-02-27T07:10:42Z</time>
      </trkpt>
      <trkpt lat="45.15352" lon="5.95564">
        <ele>2603.2</ele>
        <time>2021-02-27T07:10:43Z</time>
      </trkpt>
      <trkpt lat="45.15353" lon="5.95566">
        <ele>2603.2</ele>
        <time>2021-02-27T07:10:44Z</time>
      </trkpt>
      <trkpt lat="45.15355" lon="5.95568">
        <ele>2603.2</ele>
        <time>2021-02-27T07:10:46Z</time>
      </trkpt>
      <trkpt lat="45.15356" lon="5.95571">
        <ele>2603.2</ele>
        <time>2021-02-27T07:10:51Z</time>
      </trkpt>
      <trkpt lat="45.15357" lon="5.95573">
        <ele>2605.6</ele>
        <time>2021-02-27T07:10:53Z</time>
      </trkpt>
      <trkpt lat="45.15357" lon="5.95576">
        <ele>2605.6</ele>
        <time>2021-02-27T07:10:55Z</time>
      </trkpt>
      <trkpt lat="45.15358" lon="5.95579">
        <ele>2605.6</ele>
        <time>2021-02-27T07:10:57Z</time>
      </trkpt>
      <trkpt lat="45.1536" lon="5.95582">
        <ele>2605.6</ele>
        <time>2021-02-27T07:11:00Z</time>
      </trkpt>
      <trkpt lat="45.15362" lon="5.95584">
        <ele>2607.2</ele>
        <time>2021-02-27T07:11:03Z</time>
      </trkpt>
      <trkpt lat="45.15363" lon="5.95587">
        <ele>2607.2</ele>
        <time>2021-02-27T07:11:06Z</time>
      </trkpt>
      <trkpt lat="45.15365" lon="5.95588">
        <ele>2607.2</ele>
        <time>2021-02-27T07:11:08Z</time>
      </trkpt>
      <trkpt lat="45.15367" lon="5.95589">
        <ele>2607.2</ele>
        <time>2021-02-27T07:11:11Z</time>
      </trkpt>
      <trkpt lat="45.1537" lon="5.9559">
        <ele>2609</ele>
        <time>2021-02-27T07:11:13Z</time>
      </trkpt>
      <trkpt lat="45.15372" lon="5.95591">
        <ele>2609</ele>
        <time>2021-02-27T07:11:15Z</time>
      </trkpt>
      <trkpt lat="45.15374" lon="5.95593">
        <ele>2609</ele>
        <time>2021-02-27T07:11:18Z</time>
      </trkpt>
      <trkpt lat="45.15377" lon="5.95593">
        <ele>2609</ele>
        <time>2021-02-27T07:11:20Z</time>
      </trkpt>
      <trkpt lat="45.15379" lon="5.95593">
        <ele>2612.2</ele>
        <time>2021-02-27T07:11:23Z</time>
      </trkpt>
      <trkpt lat="45.15382" lon="5.95593">
        <ele>2612.2</ele>
        <time>2021-02-27T07:11:25Z</time>
      </trkpt>
      <trkpt lat="45.15383" lon="5.95593">
        <ele>2612.2</ele>
        <time>2021-02-27T07:11:27Z</time>
      </trkpt>
      <trkpt lat="45.15385" lon="5.95593">
        <ele>2612.2</ele>
        <time>2021-02-27T07:11:30Z</time>
      </trkpt>
      <trkpt lat="45.15386" lon="5.95593">
        <ele>2612.2</ele>
        <time>2021-02-27T07:11:32Z</time>
      </trkpt>
      <trkpt lat="45.15387" lon="5.95592">
        <ele>2615.2</ele>
        <time>2021-02-27T07:11:33Z</time>
      </trkpt>
      <trkpt lat="45.1539" lon="5.95592">
        <ele>2615.2</ele>
        <time>2021-02-27T07:11:35Z</time>
      </trkpt>
      <trkpt lat="45.15392" lon="5.95592">
        <ele>2615.2</ele>
        <time>2021-02-27T07:11:37Z</time>
      </trkpt>
      <trkpt lat="45.15394" lon="5.95592">
        <ele>2615.2</ele>
        <time>2021-02-27T07:11:39Z</time>
      </trkpt>
      <trkpt lat="45.15396" lon="5.95592">
        <ele>2615.2</ele>
        <time>2021-02-27T07:11:41Z</time>
      </trkpt>
      <trkpt lat="45.15398" lon="5.95593">
        <ele>2617</ele>
        <time>2021-02-27T07:11:43Z</time>
      </trkpt>
      <trkpt lat="45.15402" lon="5.95593">
        <ele>2617</ele>
        <time>2021-02-27T07:11:45Z</time>
      </trkpt>
      <trkpt lat="45.15403" lon="5.95594">
        <ele>2617</ele>
        <time>2021-02-27T07:11:48Z</time>
      </trkpt>
      <trkpt lat="45.15405" lon="5.95594">
        <ele>2617</ele>
        <time>2021-02-27T07:11:50Z</time>
      </trkpt>
      <trkpt lat="45.15406" lon="5.95595">
        <ele>2617</ele>
        <time>2021-02-27T07:11:52Z</time>
      </trkpt>
      <trkpt lat="45.15408" lon="5.95595">
        <ele>2619.4</ele>
        <time>2021-02-27T07:11:53Z</time>
      </trkpt>
      <trkpt lat="45.15411" lon="5.95596">
        <ele>2619.4</ele>
        <time>2021-02-27T07:11:54Z</time>
      </trkpt>
      <trkpt lat="45.15413" lon="5.95596">
        <ele>2619.4</ele>
        <time>2021-02-27T07:11:56Z</time>
      </trkpt>
      <trkpt lat="45.15415" lon="5.95596">
        <ele>2619.4</ele>
        <time>2021-02-27T07:11:58Z</time>
      </trkpt>
      <trkpt lat="45.15416" lon="5.95597">
        <ele>2619.4</ele>
        <time>2021-02-27T07:12:00Z</time>
      </trkpt>
      <trkpt lat="45.15418" lon="5.95597">
        <ele>2619.4</ele>
        <time>2021-02-27T07:12:02Z</time>
      </trkpt>
      <trkpt lat="45.1542" lon="5.95598">
        <ele>2622</ele>
        <time>2021-02-27T07:12:03Z</time>
      </trkpt>
      <trkpt lat="45.15423" lon="5.95599">
        <ele>2622</ele>
        <time>2021-02-27T07:12:04Z</time>
      </trkpt>
      <trkpt lat="45.15425" lon="5.956">
        <ele>2622</ele>
        <time>2021-02-27T07:12:06Z</time>
      </trkpt>
      <trkpt lat="45.15427" lon="5.956">
        <ele>2622</ele>
        <time>2021-02-27T07:12:08Z</time>
      </trkpt>
      <trkpt lat="45.15429" lon="5.95601">
        <ele>2622</ele>
        <time>2021-02-27T07:12:10Z</time>
      </trkpt>
      <trkpt lat="45.15431" lon="5.95602">
        <ele>2622</ele>
        <time>2021-02-27T07:12:12Z</time>
      </trkpt>
      <trkpt lat="45.15432" lon="5.95603">
        <ele>2623.8</ele>
        <time>2021-02-27T07:12:13Z</time>
      </trkpt>
      <trkpt lat="45.15435" lon="5.95604">
        <ele>2623.8</ele>
        <time>2021-02-27T07:12:14Z</time>
      </trkpt>
      <trkpt lat="45.15437" lon="5.95605">
        <ele>2623.8</ele>
        <time>2021-02-27T07:12:16Z</time>
      </trkpt>
      <trkpt lat="45.15439" lon="5.95606">
        <ele>2623.8</ele>
        <time>2021-02-27T07:12:18Z</time>
      </trkpt>
      <trkpt lat="45.1544" lon="5.95606">
        <ele>2623.8</ele>
        <time>2021-02-27T07:12:20Z</time>
      </trkpt>
      <trkpt lat="45.15442" lon="5.95607">
        <ele>2623.8</ele>
        <time>2021-02-27T07:12:22Z</time>
      </trkpt>
      <trkpt lat="45.15444" lon="5.95608">
        <ele>2626.4</ele>
        <time>2021-02-27T07:12:23Z</time>
      </trkpt>
      <trkpt lat="45.15445" lon="5.95609">
        <ele>2626.4</ele>
        <time>2021-02-27T07:12:24Z</time>
      </trkpt>
      <trkpt lat="45.15448" lon="5.95609">
        <ele>2626.4</ele>
        <time>2021-02-27T07:12:26Z</time>
      </trkpt>
      <trkpt lat="45.1545" lon="5.9561">
        <ele>2626.4</ele>
        <time>2021-02-27T07:12:28Z</time>
      </trkpt>
      <trkpt lat="45.15452" lon="5.95612">
        <ele>2626.4</ele>
        <time>2021-02-27T07:12:31Z</time>
      </trkpt>
      <trkpt lat="45.15454" lon="5.95612">
        <ele>2628.2</ele>
        <time>2021-02-27T07:12:33Z</time>
      </trkpt>
      <trkpt lat="45.15456" lon="5.95613">
        <ele>2628.2</ele>
        <time>2021-02-27T07:12:35Z</time>
      </trkpt>
      <trkpt lat="45.15458" lon="5.95612">
        <ele>2628.2</ele>
        <time>2021-02-27T07:12:37Z</time>
      </trkpt>
      <trkpt lat="45.15461" lon="5.95613">
        <ele>2628.2</ele>
        <time>2021-02-27T07:12:40Z</time>
      </trkpt>
      <trkpt lat="45.15464" lon="5.95614">
        <ele>2629.4</ele>
        <time>2021-02-27T07:12:43Z</time>
      </trkpt>
      <trkpt lat="45.15466" lon="5.95615">
        <ele>2629.4</ele>
        <time>2021-02-27T07:12:45Z</time>
      </trkpt>
      <trkpt lat="45.15468" lon="5.95616">
        <ele>2629.4</ele>
        <time>2021-02-27T07:12:47Z</time>
      </trkpt>
      <trkpt lat="45.1547" lon="5.95617">
        <ele>2629.4</ele>
        <time>2021-02-27T07:12:49Z</time>
      </trkpt>
      <trkpt lat="45.15472" lon="5.95618">
        <ele>2629.4</ele>
        <time>2021-02-27T07:12:51Z</time>
      </trkpt>
      <trkpt lat="45.15474" lon="5.95619">
        <ele>2631.2</ele>
        <time>2021-02-27T07:12:53Z</time>
      </trkpt>
      <trkpt lat="45.15477" lon="5.95622">
        <ele>2631.2</ele>
        <time>2021-02-27T07:12:55Z</time>
      </trkpt>
      <trkpt lat="45.15479" lon="5.95623">
        <ele>2631.2</ele>
        <time>2021-02-27T07:12:57Z</time>
      </trkpt>
      <trkpt lat="45.1548" lon="5.95624">
        <ele>2631.2</ele>
        <time>2021-02-27T07:13:00Z</time>
      </trkpt>
      <trkpt lat="45.15481" lon="5.95625">
        <ele>2631.2</ele>
        <time>2021-02-27T07:13:02Z</time>
      </trkpt>
      <trkpt lat="45.15483" lon="5.95626">
        <ele>2633.4</ele>
        <time>2021-02-27T07:13:03Z</time>
      </trkpt>
      <trkpt lat="45.15484" lon="5.95626">
        <ele>2633.4</ele>
        <time>2021-02-27T07:13:04Z</time>
      </trkpt>
      <trkpt lat="45.15485" lon="5.95629">
        <ele>2633.4</ele>
        <time>2021-02-27T07:13:07Z</time>
      </trkpt>
      <trkpt lat="45.15487" lon="5.95631">
        <ele>2633.4</ele>
        <time>2021-02-27T07:13:09Z</time>
      </trkpt>
      <trkpt lat="45.15489" lon="5.95633">
        <ele>2633.4</ele>
        <time>2021-02-27T07:13:11Z</time>
      </trkpt>
      <trkpt lat="45.15491" lon="5.95634">
        <ele>2635.2</ele>
        <time>2021-02-27T07:13:13Z</time>
      </trkpt>
      <trkpt lat="45.15492" lon="5.95636">
        <ele>2635.2</ele>
        <time>2021-02-27T07:13:16Z</time>
      </trkpt>
      <trkpt lat="45.15493" lon="5.95638">
        <ele>2635.2</ele>
        <time>2021-02-27T07:13:18Z</time>
      </trkpt>
      <trkpt lat="45.15495" lon="5.9564">
        <ele>2635.2</ele>
        <time>2021-02-27T07:13:20Z</time>
      </trkpt>
      <trkpt lat="45.15497" lon="5.95642">
        <ele>2638.2</ele>
        <time>2021-02-27T07:13:23Z</time>
      </trkpt>
      <trkpt lat="45.155" lon="5.95645">
        <ele>2638.2</ele>
        <time>2021-02-27T07:13:25Z</time>
      </trkpt>
      <trkpt lat="45.15502" lon="5.95646">
        <ele>2638.2</ele>
        <time>2021-02-27T07:13:27Z</time>
      </trkpt>
      <trkpt lat="45.15503" lon="5.95647">
        <ele>2638.2</ele>
        <time>2021-02-27T07:13:30Z</time>
      </trkpt>
      <trkpt lat="45.15504" lon="5.95648">
        <ele>2638.2</ele>
        <time>2021-02-27T07:13:32Z</time>
      </trkpt>
      <trkpt lat="45.15505" lon="5.95649">
        <ele>2640</ele>
        <time>2021-02-27T07:13:33Z</time>
      </trkpt>
      <trkpt lat="45.15506" lon="5.95649">
        <ele>2640</ele>
        <time>2021-02-27T07:13:34Z</time>
      </trkpt>
      <trkpt lat="45.15508" lon="5.95652">
        <ele>2640</ele>
        <time>2021-02-27T07:13:37Z</time>
      </trkpt>
      <trkpt lat="45.1551" lon="5.95653">
        <ele>2640</ele>
        <time>2021-02-27T07:13:39Z</time>
      </trkpt>
      <trkpt lat="45.15512" lon="5.95655">
        <ele>2640</ele>
        <time>2021-02-27T07:13:41Z</time>
      </trkpt>
      <trkpt lat="45.15514" lon="5.95656">
        <ele>2643.4</ele>
        <time>2021-02-27T07:13:43Z</time>
      </trkpt>
      <trkpt lat="45.15516" lon="5.95659">
        <ele>2643.4</ele>
        <time>2021-02-27T07:13:45Z</time>
      </trkpt>
      <trkpt lat="45.15518" lon="5.9566">
        <ele>2643.4</ele>
        <time>2021-02-27T07:13:47Z</time>
      </trkpt>
      <trkpt lat="45.15519" lon="5.95661">
        <ele>2643.4</ele>
        <time>2021-02-27T07:13:50Z</time>
      </trkpt>
      <trkpt lat="45.1552" lon="5.95663">
        <ele>2643.4</ele>
        <time>2021-02-27T07:13:52Z</time>
      </trkpt>
      <trkpt lat="45.15521" lon="5.95664">
        <ele>2645</ele>
        <time>2021-02-27T07:13:53Z</time>
      </trkpt>
      <trkpt lat="45.15522" lon="5.95664">
        <ele>2645</ele>
        <time>2021-02-27T07:13:54Z</time>
      </trkpt>
      <trkpt lat="45.15524" lon="5.95666">
        <ele>2645</ele>
        <time>2021-02-27T07:13:56Z</time>
      </trkpt>
      <trkpt lat="45.15526" lon="5.95668">
        <ele>2645</ele>
        <time>2021-02-27T07:13:59Z</time>
      </trkpt>
      <trkpt lat="45.15527" lon="5.9567">
        <ele>2645</ele>
        <time>2021-02-27T07:14:01Z</time>
      </trkpt>
      <trkpt lat="45.15529" lon="5.95671">
        <ele>2647.6</ele>
        <time>2021-02-27T07:14:03Z</time>
      </trkpt>
      <trkpt lat="45.15531" lon="5.95672">
        <ele>2647.6</ele>
        <time>2021-02-27T07:14:05Z</time>
      </trkpt>
      <trkpt lat="45.15533" lon="5.95674">
        <ele>2647.6</ele>
        <time>2021-02-27T07:14:07Z</time>
      </trkpt>
      <trkpt lat="45.15535" lon="5.95675">
        <ele>2647.6</ele>
        <time>2021-02-27T07:14:09Z</time>
      </trkpt>
      <trkpt lat="45.15537" lon="5.95677">
        <ele>2647.6</ele>
        <time>2021-02-27T07:14:11Z</time>
      </trkpt>
      <trkpt lat="45.15539" lon="5.95678">
        <ele>2650.4</ele>
        <time>2021-02-27T07:14:13Z</time>
      </trkpt>
      <trkpt lat="45.15541" lon="5.95679">
        <ele>2650.4</ele>
        <time>2021-02-27T07:14:15Z</time>
      </trkpt>
      <trkpt lat="45.15543" lon="5.9568">
        <ele>2650.4</ele>
        <time>2021-02-27T07:14:17Z</time>
      </trkpt>
      <trkpt lat="45.15545" lon="5.95682">
        <ele>2650.4</ele>
        <time>2021-02-27T07:14:20Z</time>
      </trkpt>
      <trkpt lat="45.15547" lon="5.95683">
        <ele>2652.6</ele>
        <time>2021-02-27T07:14:23Z</time>
      </trkpt>
      <trkpt lat="45.15551" lon="5.95685">
        <ele>2652.6</ele>
        <time>2021-02-27T07:14:25Z</time>
      </trkpt>
      <trkpt lat="45.15552" lon="5.95686">
        <ele>2652.6</ele>
        <time>2021-02-27T07:14:27Z</time>
      </trkpt>
      <trkpt lat="45.15553" lon="5.95687">
        <ele>2652.6</ele>
        <time>2021-02-27T07:14:30Z</time>
      </trkpt>
      <trkpt lat="45.15555" lon="5.95688">
        <ele>2652.6</ele>
        <time>2021-02-27T07:14:32Z</time>
      </trkpt>
      <trkpt lat="45.15556" lon="5.95689">
        <ele>2654.4</ele>
        <time>2021-02-27T07:14:33Z</time>
      </trkpt>
      <trkpt lat="45.15558" lon="5.95691">
        <ele>2654.4</ele>
        <time>2021-02-27T07:14:34Z</time>
      </trkpt>
      <trkpt lat="45.1556" lon="5.95692">
        <ele>2654.4</ele>
        <time>2021-02-27T07:14:36Z</time>
      </trkpt>
      <trkpt lat="45.15561" lon="5.95693">
        <ele>2654.4</ele>
        <time>2021-02-27T07:14:38Z</time>
      </trkpt>
      <trkpt lat="45.15563" lon="5.95694">
        <ele>2654.4</ele>
        <time>2021-02-27T07:14:40Z</time>
      </trkpt>
      <trkpt lat="45.15564" lon="5.95695">
        <ele>2654.4</ele>
        <time>2021-02-27T07:14:42Z</time>
      </trkpt>
      <trkpt lat="45.15565" lon="5.95697">
        <ele>2655.6</ele>
        <time>2021-02-27T07:14:43Z</time>
      </trkpt>
      <trkpt lat="45.15567" lon="5.95698">
        <ele>2655.6</ele>
        <time>2021-02-27T07:14:45Z</time>
      </trkpt>
      <trkpt lat="45.15569" lon="5.957">
        <ele>2655.6</ele>
        <time>2021-02-27T07:14:47Z</time>
      </trkpt>
      <trkpt lat="45.15571" lon="5.95702">
        <ele>2655.6</ele>
        <time>2021-02-27T07:14:49Z</time>
      </trkpt>
      <trkpt lat="45.15573" lon="5.95703">
        <ele>2655.6</ele>
        <time>2021-02-27T07:14:51Z</time>
      </trkpt>
      <trkpt lat="45.15573" lon="5.95703">
        <ele>2657</ele>
        <time>2021-02-27T07:14:53Z</time>
      </trkpt>
      <trkpt lat="45.15575" lon="5.95705">
        <ele>2657</ele>
        <time>2021-02-27T07:14:54Z</time>
      </trkpt>
      <trkpt lat="45.15577" lon="5.95707">
        <ele>2657</ele>
        <time>2021-02-27T07:14:56Z</time>
      </trkpt>
      <trkpt lat="45.15579" lon="5.95709">
        <ele>2657</ele>
        <time>2021-02-27T07:14:58Z</time>
      </trkpt>
      <trkpt lat="45.15581" lon="5.95712">
        <ele>2657</ele>
        <time>2021-02-27T07:15:01Z</time>
      </trkpt>
      <trkpt lat="45.15583" lon="5.95715">
        <ele>2659.4</ele>
        <time>2021-02-27T07:15:03Z</time>
      </trkpt>
      <trkpt lat="45.15584" lon="5.95717">
        <ele>2659.4</ele>
        <time>2021-02-27T07:15:05Z</time>
      </trkpt>
      <trkpt lat="45.15586" lon="5.95719">
        <ele>2659.4</ele>
        <time>2021-02-27T07:15:07Z</time>
      </trkpt>
      <trkpt lat="45.15587" lon="5.9572">
        <ele>2659.4</ele>
        <time>2021-02-27T07:15:09Z</time>
      </trkpt>
      <trkpt lat="45.15589" lon="5.95722">
        <ele>2659.4</ele>
        <time>2021-02-27T07:15:11Z</time>
      </trkpt>
      <trkpt lat="45.15589" lon="5.95722">
        <ele>2661.8</ele>
        <time>2021-02-27T07:15:13Z</time>
      </trkpt>
      <trkpt lat="45.1559" lon="5.95726">
        <ele>2661.8</ele>
        <time>2021-02-27T07:15:14Z</time>
      </trkpt>
      <trkpt lat="45.15591" lon="5.95728">
        <ele>2661.8</ele>
        <time>2021-02-27T07:15:16Z</time>
      </trkpt>
      <trkpt lat="45.15591" lon="5.95731">
        <ele>2661.8</ele>
        <time>2021-02-27T07:15:19Z</time>
      </trkpt>
      <trkpt lat="45.15593" lon="5.95733">
        <ele>2661.8</ele>
        <time>2021-02-27T07:15:21Z</time>
      </trkpt>
      <trkpt lat="45.15593" lon="5.95733">
        <ele>2664</ele>
        <time>2021-02-27T07:15:23Z</time>
      </trkpt>
      <trkpt lat="45.15596" lon="5.95736">
        <ele>2664</ele>
        <time>2021-02-27T07:15:24Z</time>
      </trkpt>
      <trkpt lat="45.15597" lon="5.95738">
        <ele>2664</ele>
        <time>2021-02-27T07:15:26Z</time>
      </trkpt>
      <trkpt lat="45.15598" lon="5.95739">
        <ele>2664</ele>
        <time>2021-02-27T07:15:28Z</time>
      </trkpt>
      <trkpt lat="45.15599" lon="5.95741">
        <ele>2664</ele>
        <time>2021-02-27T07:15:30Z</time>
      </trkpt>
      <trkpt lat="45.156" lon="5.95742">
        <ele>2664</ele>
        <time>2021-02-27T07:15:32Z</time>
      </trkpt>
      <trkpt lat="45.15601" lon="5.95744">
        <ele>2667</ele>
        <time>2021-02-27T07:15:33Z</time>
      </trkpt>
      <trkpt lat="45.15603" lon="5.95747">
        <ele>2667</ele>
        <time>2021-02-27T07:15:34Z</time>
      </trkpt>
      <trkpt lat="45.15604" lon="5.95748">
        <ele>2667</ele>
        <time>2021-02-27T07:15:36Z</time>
      </trkpt>
      <trkpt lat="45.15605" lon="5.9575">
        <ele>2667</ele>
        <time>2021-02-27T07:15:38Z</time>
      </trkpt>
      <trkpt lat="45.15606" lon="5.95751">
        <ele>2667</ele>
        <time>2021-02-27T07:15:40Z</time>
      </trkpt>
      <trkpt lat="45.15608" lon="5.95753">
        <ele>2667</ele>
        <time>2021-02-27T07:15:42Z</time>
      </trkpt>
      <trkpt lat="45.15609" lon="5.95754">
        <ele>2669.4</ele>
        <time>2021-02-27T07:15:43Z</time>
      </trkpt>
      <trkpt lat="45.1561" lon="5.95755">
        <ele>2669.4</ele>
        <time>2021-02-27T07:15:44Z</time>
      </trkpt>
      <trkpt lat="45.15611" lon="5.95757">
        <ele>2669.4</ele>
        <time>2021-02-27T07:15:46Z</time>
      </trkpt>
      <trkpt lat="45.15613" lon="5.95761">
        <ele>2669.4</ele>
        <time>2021-02-27T07:15:49Z</time>
      </trkpt>
      <trkpt lat="45.15614" lon="5.95763">
        <ele>2669.4</ele>
        <time>2021-02-27T07:15:51Z</time>
      </trkpt>
      <trkpt lat="45.15615" lon="5.95767">
        <ele>2671.6</ele>
        <time>2021-02-27T07:15:53Z</time>
      </trkpt>
      <trkpt lat="45.15615" lon="5.9577">
        <ele>2671.6</ele>
        <time>2021-02-27T07:15:55Z</time>
      </trkpt>
      <trkpt lat="45.15615" lon="5.95773">
        <ele>2671.6</ele>
        <time>2021-02-27T07:15:57Z</time>
      </trkpt>
      <trkpt lat="45.15616" lon="5.95776">
        <ele>2671.6</ele>
        <time>2021-02-27T07:15:59Z</time>
      </trkpt>
      <trkpt lat="45.15617" lon="5.9578">
        <ele>2671.6</ele>
        <time>2021-02-27T07:16:01Z</time>
      </trkpt>
      <trkpt lat="45.15617" lon="5.95784">
        <ele>2673.8</ele>
        <time>2021-02-27T07:16:03Z</time>
      </trkpt>
      <trkpt lat="45.15617" lon="5.95787">
        <ele>2673.8</ele>
        <time>2021-02-27T07:16:05Z</time>
      </trkpt>
      <trkpt lat="45.15617" lon="5.95791">
        <ele>2673.8</ele>
        <time>2021-02-27T07:16:07Z</time>
      </trkpt>
      <trkpt lat="45.15617" lon="5.95795">
        <ele>2673.8</ele>
        <time>2021-02-27T07:16:09Z</time>
      </trkpt>
      <trkpt lat="45.15617" lon="5.95798">
        <ele>2673.8</ele>
        <time>2021-02-27T07:16:11Z</time>
      </trkpt>
      <trkpt lat="45.15617" lon="5.95802">
        <ele>2673</ele>
        <time>2021-02-27T07:16:13Z</time>
      </trkpt>
      <trkpt lat="45.15617" lon="5.95805">
        <ele>2673</ele>
        <time>2021-02-27T07:16:15Z</time>
      </trkpt>
      <trkpt lat="45.15618" lon="5.95809">
        <ele>2673</ele>
        <time>2021-02-27T07:16:17Z</time>
      </trkpt>
      <trkpt lat="45.15618" lon="5.95812">
        <ele>2673</ele>
        <time>2021-02-27T07:16:19Z</time>
      </trkpt>
      <trkpt lat="45.15619" lon="5.95816">
        <ele>2673</ele>
        <time>2021-02-27T07:16:21Z</time>
      </trkpt>
      <trkpt lat="45.15619" lon="5.9582">
        <ele>2673.8</ele>
        <time>2021-02-27T07:16:23Z</time>
      </trkpt>
      <trkpt lat="45.15619" lon="5.95824">
        <ele>2673.8</ele>
        <time>2021-02-27T07:16:25Z</time>
      </trkpt>
      <trkpt lat="45.15619" lon="5.95828">
        <ele>2673.8</ele>
        <time>2021-02-27T07:16:27Z</time>
      </trkpt>
      <trkpt lat="45.15619" lon="5.95831">
        <ele>2673.8</ele>
        <time>2021-02-27T07:16:29Z</time>
      </trkpt>
      <trkpt lat="45.15619" lon="5.95835">
        <ele>2673.8</ele>
        <time>2021-02-27T07:16:31Z</time>
      </trkpt>
      <trkpt lat="45.15619" lon="5.95838">
        <ele>2675.4</ele>
        <time>2021-02-27T07:16:33Z</time>
      </trkpt>
      <trkpt lat="45.15619" lon="5.95841">
        <ele>2675.4</ele>
        <time>2021-02-27T07:16:35Z</time>
      </trkpt>
      <trkpt lat="45.15619" lon="5.95844">
        <ele>2675.4</ele>
        <time>2021-02-27T07:16:37Z</time>
      </trkpt>
      <trkpt lat="45.15619" lon="5.95848">
        <ele>2675.4</ele>
        <time>2021-02-27T07:16:39Z</time>
      </trkpt>
      <trkpt lat="45.15619" lon="5.95851">
        <ele>2675.4</ele>
        <time>2021-02-27T07:16:41Z</time>
      </trkpt>
      <trkpt lat="45.1562" lon="5.95854">
        <ele>2677.4</ele>
        <time>2021-02-27T07:16:43Z</time>
      </trkpt>
      <trkpt lat="45.1562" lon="5.95856">
        <ele>2677.4</ele>
        <time>2021-02-27T07:16:45Z</time>
      </trkpt>
      <trkpt lat="45.1562" lon="5.95859">
        <ele>2677.4</ele>
        <time>2021-02-27T07:16:47Z</time>
      </trkpt>
      <trkpt lat="45.1562" lon="5.95862">
        <ele>2677.4</ele>
        <time>2021-02-27T07:16:50Z</time>
      </trkpt>
      <trkpt lat="45.15621" lon="5.95866">
        <ele>2679</ele>
        <time>2021-02-27T07:16:53Z</time>
      </trkpt>
      <trkpt lat="45.1562" lon="5.95869">
        <ele>2679</ele>
        <time>2021-02-27T07:16:55Z</time>
      </trkpt>
      <trkpt lat="45.1562" lon="5.95872">
        <ele>2679</ele>
        <time>2021-02-27T07:16:57Z</time>
      </trkpt>
      <trkpt lat="45.1562" lon="5.95875">
        <ele>2679</ele>
        <time>2021-02-27T07:16:59Z</time>
      </trkpt>
      <trkpt lat="45.15621" lon="5.95878">
        <ele>2679</ele>
        <time>2021-02-27T07:17:01Z</time>
      </trkpt>
      <trkpt lat="45.15621" lon="5.95878">
        <ele>2681.6</ele>
        <time>2021-02-27T07:17:03Z</time>
      </trkpt>
      <trkpt lat="45.15621" lon="5.95882">
        <ele>2681.6</ele>
        <time>2021-02-27T07:17:04Z</time>
      </trkpt>
      <trkpt lat="45.15622" lon="5.95885">
        <ele>2681.6</ele>
        <time>2021-02-27T07:17:06Z</time>
      </trkpt>
      <trkpt lat="45.15624" lon="5.95888">
        <ele>2681.6</ele>
        <time>2021-02-27T07:17:09Z</time>
      </trkpt>
      <trkpt lat="45.15626" lon="5.9589">
        <ele>2681.6</ele>
        <time>2021-02-27T07:17:11Z</time>
      </trkpt>
      <trkpt lat="45.15628" lon="5.95893">
        <ele>2684.6</ele>
        <time>2021-02-27T07:17:13Z</time>
      </trkpt>
      <trkpt lat="45.1563" lon="5.95895">
        <ele>2684.6</ele>
        <time>2021-02-27T07:17:15Z</time>
      </trkpt>
      <trkpt lat="45.15631" lon="5.95898">
        <ele>2684.6</ele>
        <time>2021-02-27T07:17:17Z</time>
      </trkpt>
      <trkpt lat="45.15633" lon="5.959">
        <ele>2684.6</ele>
        <time>2021-02-27T07:17:19Z</time>
      </trkpt>
      <trkpt lat="45.15635" lon="5.95903">
        <ele>2684.6</ele>
        <time>2021-02-27T07:17:21Z</time>
      </trkpt>
      <trkpt lat="45.15636" lon="5.95904">
        <ele>2686.4</ele>
        <time>2021-02-27T07:17:23Z</time>
      </trkpt>
      <trkpt lat="45.15637" lon="5.95906">
        <ele>2686.4</ele>
        <time>2021-02-27T07:17:25Z</time>
      </trkpt>
      <trkpt lat="45.15639" lon="5.95909">
        <ele>2686.4</ele>
        <time>2021-02-27T07:17:27Z</time>
      </trkpt>
      <trkpt lat="45.15641" lon="5.9591">
        <ele>2686.4</ele>
        <time>2021-02-27T07:17:29Z</time>
      </trkpt>
      <trkpt lat="45.15643" lon="5.95913">
        <ele>2686.4</ele>
        <time>2021-02-27T07:17:31Z</time>
      </trkpt>
      <trkpt lat="45.15645" lon="5.95915">
        <ele>2689</ele>
        <time>2021-02-27T07:17:33Z</time>
      </trkpt>
      <trkpt lat="45.15646" lon="5.95917">
        <ele>2689</ele>
        <time>2021-02-27T07:17:35Z</time>
      </trkpt>
      <trkpt lat="45.15648" lon="5.95919">
        <ele>2689</ele>
        <time>2021-02-27T07:17:37Z</time>
      </trkpt>
      <trkpt lat="45.1565" lon="5.95921">
        <ele>2689</ele>
        <time>2021-02-27T07:17:39Z</time>
      </trkpt>
      <trkpt lat="45.15652" lon="5.95923">
        <ele>2689</ele>
        <time>2021-02-27T07:17:41Z</time>
      </trkpt>
      <trkpt lat="45.15652" lon="5.95923">
        <ele>2692</ele>
        <time>2021-02-27T07:17:43Z</time>
      </trkpt>
      <trkpt lat="45.15655" lon="5.95927">
        <ele>2692</ele>
        <time>2021-02-27T07:17:44Z</time>
      </trkpt>
      <trkpt lat="45.15655" lon="5.95928">
        <ele>2692</ele>
        <time>2021-02-27T07:17:47Z</time>
      </trkpt>
      <trkpt lat="45.15656" lon="5.95929">
        <ele>2692</ele>
        <time>2021-02-27T07:17:50Z</time>
      </trkpt>
      <trkpt lat="45.15657" lon="5.95931">
        <ele>2692</ele>
        <time>2021-02-27T07:17:52Z</time>
      </trkpt>
      <trkpt lat="45.15658" lon="5.95932">
        <ele>2695.4</ele>
        <time>2021-02-27T07:17:53Z</time>
      </trkpt>
      <trkpt lat="45.15659" lon="5.95935">
        <ele>2695.4</ele>
        <time>2021-02-27T07:17:55Z</time>
      </trkpt>
      <trkpt lat="45.15661" lon="5.95936">
        <ele>2695.4</ele>
        <time>2021-02-27T07:17:57Z</time>
      </trkpt>
      <trkpt lat="45.15663" lon="5.95938">
        <ele>2695.4</ele>
        <time>2021-02-27T07:17:59Z</time>
      </trkpt>
      <trkpt lat="45.15665" lon="5.95939">
        <ele>2695.4</ele>
        <time>2021-02-27T07:18:01Z</time>
      </trkpt>
      <trkpt lat="45.15665" lon="5.95939">
        <ele>2698</ele>
        <time>2021-02-27T07:18:03Z</time>
      </trkpt>
      <trkpt lat="45.15667" lon="5.9594">
        <ele>2698</ele>
        <time>2021-02-27T07:18:04Z</time>
      </trkpt>
      <trkpt lat="45.15669" lon="5.95942">
        <ele>2698</ele>
        <time>2021-02-27T07:18:07Z</time>
      </trkpt>
      <trkpt lat="45.1567" lon="5.95943">
        <ele>2698</ele>
        <time>2021-02-27T07:18:09Z</time>
      </trkpt>
      <trkpt lat="45.15672" lon="5.95944">
        <ele>2698</ele>
        <time>2021-02-27T07:18:11Z</time>
      </trkpt>
      <trkpt lat="45.15672" lon="5.95944">
        <ele>2699.8</ele>
        <time>2021-02-27T07:18:13Z</time>
      </trkpt>
      <trkpt lat="45.15675" lon="5.95945">
        <ele>2699.8</ele>
        <time>2021-02-27T07:18:14Z</time>
      </trkpt>
      <trkpt lat="45.15677" lon="5.95946">
        <ele>2699.8</ele>
        <time>2021-02-27T07:18:17Z</time>
      </trkpt>
      <trkpt lat="45.15679" lon="5.95947">
        <ele>2699.8</ele>
        <time>2021-02-27T07:18:19Z</time>
      </trkpt>
      <trkpt lat="45.15681" lon="5.95948">
        <ele>2699.8</ele>
        <time>2021-02-27T07:18:21Z</time>
      </trkpt>
      <trkpt lat="45.15683" lon="5.9595">
        <ele>2702</ele>
        <time>2021-02-27T07:18:23Z</time>
      </trkpt>
      <trkpt lat="45.15685" lon="5.95952">
        <ele>2702</ele>
        <time>2021-02-27T07:18:25Z</time>
      </trkpt>
      <trkpt lat="45.15687" lon="5.95954">
        <ele>2702</ele>
        <time>2021-02-27T07:18:27Z</time>
      </trkpt>
      <trkpt lat="45.15689" lon="5.95955">
        <ele>2702</ele>
        <time>2021-02-27T07:18:29Z</time>
      </trkpt>
      <trkpt lat="45.15691" lon="5.95957">
        <ele>2702</ele>
        <time>2021-02-27T07:18:31Z</time>
      </trkpt>
      <trkpt lat="45.15692" lon="5.95959">
        <ele>2703.6</ele>
        <time>2021-02-27T07:18:33Z</time>
      </trkpt>
      <trkpt lat="45.15695" lon="5.95963">
        <ele>2703.6</ele>
        <time>2021-02-27T07:18:35Z</time>
      </trkpt>
      <trkpt lat="45.15696" lon="5.95964">
        <ele>2703.6</ele>
        <time>2021-02-27T07:18:36Z</time>
      </trkpt>
      <trkpt lat="45.15698" lon="5.95966">
        <ele>2703.6</ele>
        <time>2021-02-27T07:18:38Z</time>
      </trkpt>
      <trkpt lat="45.15699" lon="5.95968">
        <ele>2703.6</ele>
        <time>2021-02-27T07:18:40Z</time>
      </trkpt>
      <trkpt lat="45.157" lon="5.95969">
        <ele>2703.6</ele>
        <time>2021-02-27T07:18:42Z</time>
      </trkpt>
      <trkpt lat="45.15701" lon="5.95971">
        <ele>2704.6</ele>
        <time>2021-02-27T07:18:43Z</time>
      </trkpt>
      <trkpt lat="45.15703" lon="5.95975">
        <ele>2704.6</ele>
        <time>2021-02-27T07:18:44Z</time>
      </trkpt>
      <trkpt lat="45.15704" lon="5.95977">
        <ele>2704.6</ele>
        <time>2021-02-27T07:18:46Z</time>
      </trkpt>
      <trkpt lat="45.15705" lon="5.9598">
        <ele>2704.6</ele>
        <time>2021-02-27T07:18:48Z</time>
      </trkpt>
      <trkpt lat="45.15707" lon="5.95983">
        <ele>2704.6</ele>
        <time>2021-02-27T07:18:50Z</time>
      </trkpt>
      <trkpt lat="45.15708" lon="5.95986">
        <ele>2704.6</ele>
        <time>2021-02-27T07:18:52Z</time>
      </trkpt>
      <trkpt lat="45.15709" lon="5.95988">
        <ele>2705</ele>
        <time>2021-02-27T07:18:53Z</time>
      </trkpt>
      <trkpt lat="45.15711" lon="5.95993">
        <ele>2705</ele>
        <time>2021-02-27T07:18:54Z</time>
      </trkpt>
      <trkpt lat="45.15712" lon="5.95995">
        <ele>2705</ele>
        <time>2021-02-27T07:18:56Z</time>
      </trkpt>
      <trkpt lat="45.15714" lon="5.95998">
        <ele>2705</ele>
        <time>2021-02-27T07:18:58Z</time>
      </trkpt>
      <trkpt lat="45.15715" lon="5.96">
        <ele>2705</ele>
        <time>2021-02-27T07:19:00Z</time>
      </trkpt>
      <trkpt lat="45.15716" lon="5.96003">
        <ele>2705</ele>
        <time>2021-02-27T07:19:02Z</time>
      </trkpt>
      <trkpt lat="45.15717" lon="5.96005">
        <ele>2705.2</ele>
        <time>2021-02-27T07:19:03Z</time>
      </trkpt>
      <trkpt lat="45.1572" lon="5.96011">
        <ele>2705.2</ele>
        <time>2021-02-27T07:19:05Z</time>
      </trkpt>
      <trkpt lat="45.15721" lon="5.96013">
        <ele>2705.2</ele>
        <time>2021-02-27T07:19:07Z</time>
      </trkpt>
      <trkpt lat="45.15722" lon="5.96016">
        <ele>2705.2</ele>
        <time>2021-02-27T07:19:08Z</time>
      </trkpt>
      <trkpt lat="45.15723" lon="5.96018">
        <ele>2705.2</ele>
        <time>2021-02-27T07:19:10Z</time>
      </trkpt>
      <trkpt lat="45.15725" lon="5.96021">
        <ele>2705.2</ele>
        <time>2021-02-27T07:19:12Z</time>
      </trkpt>
      <trkpt lat="45.15726" lon="5.96023">
        <ele>2704.8</ele>
        <time>2021-02-27T07:19:13Z</time>
      </trkpt>
      <trkpt lat="45.15729" lon="5.96028">
        <ele>2704.8</ele>
        <time>2021-02-27T07:19:15Z</time>
      </trkpt>
      <trkpt lat="45.15731" lon="5.96029">
        <ele>2704.8</ele>
        <time>2021-02-27T07:19:17Z</time>
      </trkpt>
      <trkpt lat="45.15733" lon="5.96031">
        <ele>2704.8</ele>
        <time>2021-02-27T07:19:18Z</time>
      </trkpt>
      <trkpt lat="45.15735" lon="5.96033">
        <ele>2704.8</ele>
        <time>2021-02-27T07:19:20Z</time>
      </trkpt>
      <trkpt lat="45.15736" lon="5.96035">
        <ele>2704.8</ele>
        <time>2021-02-27T07:19:22Z</time>
      </trkpt>
      <trkpt lat="45.15738" lon="5.96037">
        <ele>2705.2</ele>
        <time>2021-02-27T07:19:23Z</time>
      </trkpt>
      <trkpt lat="45.15742" lon="5.96041">
        <ele>2705.2</ele>
        <time>2021-02-27T07:19:24Z</time>
      </trkpt>
      <trkpt lat="45.15744" lon="5.96044">
        <ele>2705.2</ele>
        <time>2021-02-27T07:19:25Z</time>
      </trkpt>
      <trkpt lat="45.15746" lon="5.96046">
        <ele>2705.2</ele>
        <time>2021-02-27T07:19:27Z</time>
      </trkpt>
      <trkpt lat="45.15748" lon="5.96049">
        <ele>2705.2</ele>
        <time>2021-02-27T07:19:29Z</time>
      </trkpt>
      <trkpt lat="45.1575" lon="5.96051">
        <ele>2705.2</ele>
        <time>2021-02-27T07:19:30Z</time>
      </trkpt>
      <trkpt lat="45.15752" lon="5.96054">
        <ele>2705.2</ele>
        <time>2021-02-27T07:19:31Z</time>
      </trkpt>
      <trkpt lat="45.15755" lon="5.96056">
        <ele>2705.2</ele>
        <time>2021-02-27T07:19:32Z</time>
      </trkpt>
      <trkpt lat="45.15757" lon="5.96059">
        <ele>2703.4</ele>
        <time>2021-02-27T07:19:33Z</time>
      </trkpt>
      <trkpt lat="45.15762" lon="5.96064">
        <ele>2703.4</ele>
        <time>2021-02-27T07:19:34Z</time>
      </trkpt>
      <trkpt lat="45.15764" lon="5.96066">
        <ele>2703.4</ele>
        <time>2021-02-27T07:19:35Z</time>
      </trkpt>
      <trkpt lat="45.15766" lon="5.96068">
        <ele>2703.4</ele>
        <time>2021-02-27T07:19:36Z</time>
      </trkpt>
      <trkpt lat="45.15768" lon="5.9607">
        <ele>2703.4</ele>
        <time>2021-02-27T07:19:37Z</time>
      </trkpt>
      <trkpt lat="45.1577" lon="5.96072">
        <ele>2703.4</ele>
        <time>2021-02-27T07:19:38Z</time>
      </trkpt>
      <trkpt lat="45.15772" lon="5.96074">
        <ele>2703.4</ele>
        <time>2021-02-27T07:19:39Z</time>
      </trkpt>
      <trkpt lat="45.15775" lon="5.96075">
        <ele>2703.4</ele>
        <time>2021-02-27T07:19:40Z</time>
      </trkpt>
      <trkpt lat="45.15777" lon="5.96077">
        <ele>2703.4</ele>
        <time>2021-02-27T07:19:41Z</time>
      </trkpt>
      <trkpt lat="45.15779" lon="5.96079">
        <ele>2703.4</ele>
        <time>2021-02-27T07:19:42Z</time>
      </trkpt>
      <trkpt lat="45.15781" lon="5.96081">
        <ele>2696</ele>
        <time>2021-02-27T07:19:43Z</time>
      </trkpt>
      <trkpt lat="45.15784" lon="5.96085">
        <ele>2696</ele>
        <time>2021-02-27T07:19:44Z</time>
      </trkpt>
      <trkpt lat="45.15786" lon="5.96087">
        <ele>2696</ele>
        <time>2021-02-27T07:19:45Z</time>
      </trkpt>
      <trkpt lat="45.15787" lon="5.96089">
        <ele>2696</ele>
        <time>2021-02-27T07:19:46Z</time>
      </trkpt>
      <trkpt lat="45.15789" lon="5.9609">
        <ele>2696</ele>
        <time>2021-02-27T07:19:47Z</time>
      </trkpt>
      <trkpt lat="45.15791" lon="5.96092">
        <ele>2696</ele>
        <time>2021-02-27T07:19:48Z</time>
      </trkpt>
      <trkpt lat="45.15792" lon="5.96094">
        <ele>2696</ele>
        <time>2021-02-27T07:19:49Z</time>
      </trkpt>
      <trkpt lat="45.15794" lon="5.96096">
        <ele>2696</ele>
        <time>2021-02-27T07:19:50Z</time>
      </trkpt>
      <trkpt lat="45.15796" lon="5.96098">
        <ele>2696</ele>
        <time>2021-02-27T07:19:51Z</time>
      </trkpt>
      <trkpt lat="45.15797" lon="5.96099">
        <ele>2696</ele>
        <time>2021-02-27T07:19:52Z</time>
      </trkpt>
      <trkpt lat="45.15799" lon="5.96101">
        <ele>2694.4</ele>
        <time>2021-02-27T07:19:53Z</time>
      </trkpt>
      <trkpt lat="45.15801" lon="5.96106">
        <ele>2694.4</ele>
        <time>2021-02-27T07:19:54Z</time>
      </trkpt>
      <trkpt lat="45.15802" lon="5.96108">
        <ele>2694.4</ele>
        <time>2021-02-27T07:19:55Z</time>
      </trkpt>
      <trkpt lat="45.15803" lon="5.9611">
        <ele>2694.4</ele>
        <time>2021-02-27T07:19:56Z</time>
      </trkpt>
      <trkpt lat="45.15804" lon="5.96112">
        <ele>2694.4</ele>
        <time>2021-02-27T07:19:57Z</time>
      </trkpt>
      <trkpt lat="45.15805" lon="5.96114">
        <ele>2694.4</ele>
        <time>2021-02-27T07:19:58Z</time>
      </trkpt>
      <trkpt lat="45.15806" lon="5.96116">
        <ele>2694.4</ele>
        <time>2021-02-27T07:19:59Z</time>
      </trkpt>
      <trkpt lat="45.15807" lon="5.96118">
        <ele>2694.4</ele>
        <time>2021-02-27T07:20:00Z</time>
      </trkpt>
      <trkpt lat="45.15808" lon="5.9612">
        <ele>2694.4</ele>
        <time>2021-02-27T07:20:01Z</time>
      </trkpt>
      <trkpt lat="45.15809" lon="5.96122">
        <ele>2694.4</ele>
        <time>2021-02-27T07:20:02Z</time>
      </trkpt>
      <trkpt lat="45.1581" lon="5.96124">
        <ele>2691.6</ele>
        <time>2021-02-27T07:20:03Z</time>
      </trkpt>
      <trkpt lat="45.15811" lon="5.96127">
        <ele>2691.6</ele>
        <time>2021-02-27T07:20:04Z</time>
      </trkpt>
      <trkpt lat="45.15812" lon="5.96128">
        <ele>2691.6</ele>
        <time>2021-02-27T07:20:08Z</time>
      </trkpt>
      <trkpt lat="45.15812" lon="5.96129">
        <ele>2690.8</ele>
        <time>2021-02-27T07:20:13Z</time>
      </trkpt>
      <trkpt lat="45.15813" lon="5.9613">
        <ele>2691.4</ele>
        <time>2021-02-27T07:20:23Z</time>
      </trkpt>
      <trkpt lat="45.15813" lon="5.96131">
        <ele>2691</ele>
        <time>2021-02-27T07:20:33Z</time>
      </trkpt>
      <trkpt lat="45.15814" lon="5.96132">
        <ele>2691</ele>
        <time>2021-02-27T07:20:43Z</time>
      </trkpt>
      <trkpt lat="45.15814" lon="5.96133">
        <ele>2691.4</ele>
        <time>2021-02-27T07:20:53Z</time>
      </trkpt>
      <trkpt lat="45.15815" lon="5.96134">
        <ele>2691.4</ele>
        <time>2021-02-27T07:21:03Z</time>
      </trkpt>
      <trkpt lat="45.15815" lon="5.96135">
        <ele>2690.2</ele>
        <time>2021-02-27T07:21:13Z</time>
      </trkpt>
      <trkpt lat="45.15816" lon="5.96136">
        <ele>2689.8</ele>
        <time>2021-02-27T07:21:23Z</time>
      </trkpt>
      <trkpt lat="45.15816" lon="5.96137">
        <ele>2690.2</ele>
        <time>2021-02-27T07:21:33Z</time>
      </trkpt>
      <trkpt lat="45.15817" lon="5.96138">
        <ele>2690.6</ele>
        <time>2021-02-27T07:21:43Z</time>
      </trkpt>
      <trkpt lat="45.15817" lon="5.96139">
        <ele>2690.2</ele>
        <time>2021-02-27T07:21:53Z</time>
      </trkpt>
      <trkpt lat="45.15818" lon="5.9614">
        <ele>2689.4</ele>
        <time>2021-02-27T07:22:03Z</time>
      </trkpt>
      <trkpt lat="45.15818" lon="5.96141">
        <ele>2690.6</ele>
        <time>2021-02-27T07:22:13Z</time>
      </trkpt>
      <trkpt lat="45.15818" lon="5.96142">
        <ele>2690.8</ele>
        <time>2021-02-27T07:22:23Z</time>
      </trkpt>
      <trkpt lat="45.15819" lon="5.96142">
        <ele>2690.6</ele>
        <time>2021-02-27T07:22:33Z</time>
      </trkpt>
      <trkpt lat="45.15819" lon="5.96143">
        <ele>2691</ele>
        <time>2021-02-27T07:22:43Z</time>
      </trkpt>
      <trkpt lat="45.1582" lon="5.96144">
        <ele>2689.6</ele>
        <time>2021-02-27T07:22:53Z</time>
      </trkpt>
      <trkpt lat="45.1582" lon="5.96145">
        <ele>2690.6</ele>
        <time>2021-02-27T07:23:03Z</time>
      </trkpt>
      <trkpt lat="45.15821" lon="5.96146">
        <ele>2690</ele>
        <time>2021-02-27T07:23:13Z</time>
      </trkpt>
      <trkpt lat="45.15821" lon="5.96147">
        <ele>2689.6</ele>
        <time>2021-02-27T07:23:23Z</time>
      </trkpt>
      <trkpt lat="45.15822" lon="5.96148">
        <ele>2690.8</ele>
        <time>2021-02-27T07:23:33Z</time>
      </trkpt>
      <trkpt lat="45.15822" lon="5.96149">
        <ele>2690</ele>
        <time>2021-02-27T07:23:43Z</time>
      </trkpt>
      <trkpt lat="45.15823" lon="5.9615">
        <ele>2690</ele>
        <time>2021-02-27T07:23:45Z</time>
      </trkpt>
      <trkpt lat="45.15823" lon="5.96151">
        <ele>2690</ele>
        <time>2021-02-27T07:23:46Z</time>
      </trkpt>
      <trkpt lat="45.15824" lon="5.96152">
        <ele>2690</ele>
        <time>2021-02-27T07:23:47Z</time>
      </trkpt>
      <trkpt lat="45.15824" lon="5.96153">
        <ele>2690</ele>
        <time>2021-02-27T07:23:48Z</time>
      </trkpt>
      <trkpt lat="45.15825" lon="5.96154">
        <ele>2690</ele>
        <time>2021-02-27T07:23:49Z</time>
      </trkpt>
      <trkpt lat="45.15825" lon="5.96155">
        <ele>2690</ele>
        <time>2021-02-27T07:23:50Z</time>
      </trkpt>
      <trkpt lat="45.15826" lon="5.96156">
        <ele>2690</ele>
        <time>2021-02-27T07:23:51Z</time>
      </trkpt>
      <trkpt lat="45.15826" lon="5.96157">
        <ele>2690</ele>
        <time>2021-02-27T07:23:52Z</time>
      </trkpt>
      <trkpt lat="45.15826" lon="5.96158">
        <ele>2688.4</ele>
        <time>2021-02-27T07:23:53Z</time>
      </trkpt>
      <trkpt lat="45.15829" lon="5.96166">
        <ele>2688.4</ele>
        <time>2021-02-27T07:23:54Z</time>
      </trkpt>
      <trkpt lat="45.1583" lon="5.96169">
        <ele>2688.4</ele>
        <time>2021-02-27T07:23:55Z</time>
      </trkpt>
      <trkpt lat="45.15831" lon="5.96172">
        <ele>2688.4</ele>
        <time>2021-02-27T07:23:56Z</time>
      </trkpt>
      <trkpt lat="45.15832" lon="5.96175">
        <ele>2688.4</ele>
        <time>2021-02-27T07:23:57Z</time>
      </trkpt>
      <trkpt lat="45.15834" lon="5.96178">
        <ele>2688.4</ele>
        <time>2021-02-27T07:23:58Z</time>
      </trkpt>
      <trkpt lat="45.15835" lon="5.9618">
        <ele>2688.4</ele>
        <time>2021-02-27T07:23:59Z</time>
      </trkpt>
      <trkpt lat="45.15836" lon="5.96183">
        <ele>2688.4</ele>
        <time>2021-02-27T07:24:00Z</time>
      </trkpt>
      <trkpt lat="45.15837" lon="5.96186">
        <ele>2688.4</ele>
        <time>2021-02-27T07:24:01Z</time>
      </trkpt>
      <trkpt lat="45.15839" lon="5.96189">
        <ele>2688.4</ele>
        <time>2021-02-27T07:24:02Z</time>
      </trkpt>
      <trkpt lat="45.1584" lon="5.96192">
        <ele>2684.8</ele>
        <time>2021-02-27T07:24:03Z</time>
      </trkpt>
      <trkpt lat="45.15842" lon="5.96199">
        <ele>2684.8</ele>
        <time>2021-02-27T07:24:04Z</time>
      </trkpt>
      <trkpt lat="45.15843" lon="5.96203">
        <ele>2684.8</ele>
        <time>2021-02-27T07:24:05Z</time>
      </trkpt>
      <trkpt lat="45.15843" lon="5.96206">
        <ele>2684.8</ele>
        <time>2021-02-27T07:24:06Z</time>
      </trkpt>
      <trkpt lat="45.15844" lon="5.96209">
        <ele>2684.8</ele>
        <time>2021-02-27T07:24:07Z</time>
      </trkpt>
      <trkpt lat="45.15844" lon="5.96212">
        <ele>2684.8</ele>
        <time>2021-02-27T07:24:08Z</time>
      </trkpt>
      <trkpt lat="45.15845" lon="5.96215">
        <ele>2684.8</ele>
        <time>2021-02-27T07:24:10Z</time>
      </trkpt>
      <trkpt lat="45.15845" lon="5.96219">
        <ele>2684.8</ele>
        <time>2021-02-27T07:24:12Z</time>
      </trkpt>
      <trkpt lat="45.15846" lon="5.96222">
        <ele>2678</ele>
        <time>2021-02-27T07:24:13Z</time>
      </trkpt>
      <trkpt lat="45.15846" lon="5.96224">
        <ele>2678</ele>
        <time>2021-02-27T07:24:14Z</time>
      </trkpt>
      <trkpt lat="45.15847" lon="5.96227">
        <ele>2678</ele>
        <time>2021-02-27T07:24:16Z</time>
      </trkpt>
      <trkpt lat="45.15847" lon="5.96231">
        <ele>2678</ele>
        <time>2021-02-27T07:24:18Z</time>
      </trkpt>
      <trkpt lat="45.15847" lon="5.96234">
        <ele>2678</ele>
        <time>2021-02-27T07:24:21Z</time>
      </trkpt>
      <trkpt lat="45.15847" lon="5.96234">
        <ele>2676.8</ele>
        <time>2021-02-27T07:24:23Z</time>
      </trkpt>
      <trkpt lat="45.15846" lon="5.9624">
        <ele>2676.8</ele>
        <time>2021-02-27T07:24:27Z</time>
      </trkpt>
      <trkpt lat="45.15846" lon="5.96243">
        <ele>2676.8</ele>
        <time>2021-02-27T07:24:30Z</time>
      </trkpt>
      <trkpt lat="45.15846" lon="5.96246">
        <ele>2676.8</ele>
        <time>2021-02-27T07:24:31Z</time>
      </trkpt>
      <trkpt lat="45.15845" lon="5.96249">
        <ele>2676.8</ele>
        <time>2021-02-27T07:24:32Z</time>
      </trkpt>
      <trkpt lat="45.15845" lon="5.96251">
        <ele>2674.6</ele>
        <time>2021-02-27T07:24:33Z</time>
      </trkpt>
      <trkpt lat="45.15845" lon="5.9626">
        <ele>2674.6</ele>
        <time>2021-02-27T07:24:34Z</time>
      </trkpt>
      <trkpt lat="45.15845" lon="5.96264">
        <ele>2674.6</ele>
        <time>2021-02-27T07:24:35Z</time>
      </trkpt>
      <trkpt lat="45.15845" lon="5.96268">
        <ele>2674.6</ele>
        <time>2021-02-27T07:24:36Z</time>
      </trkpt>
      <trkpt lat="45.15845" lon="5.96272">
        <ele>2674.6</ele>
        <time>2021-02-27T07:24:37Z</time>
      </trkpt>
      <trkpt lat="45.15845" lon="5.96276">
        <ele>2674.6</ele>
        <time>2021-02-27T07:24:38Z</time>
      </trkpt>
      <trkpt lat="45.15845" lon="5.9628">
        <ele>2674.6</ele>
        <time>2021-02-27T07:24:39Z</time>
      </trkpt>
      <trkpt lat="45.15845" lon="5.96284">
        <ele>2674.6</ele>
        <time>2021-02-27T07:24:40Z</time>
      </trkpt>
      <trkpt lat="45.15845" lon="5.96288">
        <ele>2674.6</ele>
        <time>2021-02-27T07:24:42Z</time>
      </trkpt>
      <trkpt lat="45.15845" lon="5.96292">
        <ele>2667</ele>
        <time>2021-02-27T07:24:43Z</time>
      </trkpt>
      <trkpt lat="45.15845" lon="5.96294">
        <ele>2667</ele>
        <time>2021-02-27T07:24:52Z</time>
      </trkpt>
      <trkpt lat="45.15845" lon="5.96294">
        <ele>2666</ele>
        <time>2021-02-27T07:24:53Z</time>
      </trkpt>
      <trkpt lat="45.15849" lon="5.96297">
        <ele>2666</ele>
        <time>2021-02-27T07:24:54Z</time>
      </trkpt>
      <trkpt lat="45.15851" lon="5.96296">
        <ele>2666</ele>
        <time>2021-02-27T07:24:56Z</time>
      </trkpt>
      <trkpt lat="45.15852" lon="5.96296">
        <ele>2666</ele>
        <time>2021-02-27T07:24:57Z</time>
      </trkpt>
      <trkpt lat="45.15854" lon="5.96295">
        <ele>2666</ele>
        <time>2021-02-27T07:24:58Z</time>
      </trkpt>
      <trkpt lat="45.15855" lon="5.96294">
        <ele>2666</ele>
        <time>2021-02-27T07:24:59Z</time>
      </trkpt>
      <trkpt lat="45.15857" lon="5.96294">
        <ele>2666</ele>
        <time>2021-02-27T07:25:00Z</time>
      </trkpt>
      <trkpt lat="45.15858" lon="5.96293">
        <ele>2666</ele>
        <time>2021-02-27T07:25:01Z</time>
      </trkpt>
      <trkpt lat="45.1586" lon="5.96292">
        <ele>2666</ele>
        <time>2021-02-27T07:25:02Z</time>
      </trkpt>
      <trkpt lat="45.15861" lon="5.96292">
        <ele>2658.4</ele>
        <time>2021-02-27T07:25:03Z</time>
      </trkpt>
      <trkpt lat="45.15865" lon="5.96291">
        <ele>2658.4</ele>
        <time>2021-02-27T07:25:04Z</time>
      </trkpt>
      <trkpt lat="45.15866" lon="5.9629">
        <ele>2658.4</ele>
        <time>2021-02-27T07:25:05Z</time>
      </trkpt>
      <trkpt lat="45.15867" lon="5.96289">
        <ele>2658.4</ele>
        <time>2021-02-27T07:25:06Z</time>
      </trkpt>
      <trkpt lat="45.15869" lon="5.96288">
        <ele>2658.4</ele>
        <time>2021-02-27T07:25:07Z</time>
      </trkpt>
      <trkpt lat="45.1587" lon="5.96288">
        <ele>2658.4</ele>
        <time>2021-02-27T07:25:08Z</time>
      </trkpt>
      <trkpt lat="45.15872" lon="5.96287">
        <ele>2658.4</ele>
        <time>2021-02-27T07:25:09Z</time>
      </trkpt>
      <trkpt lat="45.15873" lon="5.96286">
        <ele>2658.4</ele>
        <time>2021-02-27T07:25:10Z</time>
      </trkpt>
      <trkpt lat="45.15875" lon="5.96285">
        <ele>2658.4</ele>
        <time>2021-02-27T07:25:12Z</time>
      </trkpt>
      <trkpt lat="45.15876" lon="5.96284">
        <ele>2645.8</ele>
        <time>2021-02-27T07:25:13Z</time>
      </trkpt>
      <trkpt lat="45.15878" lon="5.96281">
        <ele>2645.8</ele>
        <time>2021-02-27T07:25:14Z</time>
      </trkpt>
      <trkpt lat="45.1588" lon="5.9628">
        <ele>2645.8</ele>
        <time>2021-02-27T07:25:15Z</time>
      </trkpt>
      <trkpt lat="45.15881" lon="5.9628">
        <ele>2645.8</ele>
        <time>2021-02-27T07:25:16Z</time>
      </trkpt>
      <trkpt lat="45.15882" lon="5.9628">
        <ele>2645.8</ele>
        <time>2021-02-27T07:25:17Z</time>
      </trkpt>
      <trkpt lat="45.15883" lon="5.96279">
        <ele>2645.8</ele>
        <time>2021-02-27T07:25:18Z</time>
      </trkpt>
      <trkpt lat="45.15884" lon="5.96279">
        <ele>2645.8</ele>
        <time>2021-02-27T07:25:19Z</time>
      </trkpt>
      <trkpt lat="45.15886" lon="5.96279">
        <ele>2645.8</ele>
        <time>2021-02-27T07:25:20Z</time>
      </trkpt>
      <trkpt lat="45.15887" lon="5.96279">
        <ele>2645.8</ele>
        <time>2021-02-27T07:25:21Z</time>
      </trkpt>
      <trkpt lat="45.15888" lon="5.96278">
        <ele>2645.8</ele>
        <time>2021-02-27T07:25:22Z</time>
      </trkpt>
      <trkpt lat="45.15889" lon="5.96278">
        <ele>2632.6</ele>
        <time>2021-02-27T07:25:23Z</time>
      </trkpt>
      <trkpt lat="45.15896" lon="5.96278">
        <ele>2632.6</ele>
        <time>2021-02-27T07:25:25Z</time>
      </trkpt>
      <trkpt lat="45.15898" lon="5.96277">
        <ele>2632.6</ele>
        <time>2021-02-27T07:25:26Z</time>
      </trkpt>
      <trkpt lat="45.159" lon="5.96276">
        <ele>2632.6</ele>
        <time>2021-02-27T07:25:27Z</time>
      </trkpt>
      <trkpt lat="45.15903" lon="5.96275">
        <ele>2632.6</ele>
        <time>2021-02-27T07:25:28Z</time>
      </trkpt>
      <trkpt lat="45.15905" lon="5.96273">
        <ele>2632.6</ele>
        <time>2021-02-27T07:25:29Z</time>
      </trkpt>
      <trkpt lat="45.15907" lon="5.96272">
        <ele>2632.6</ele>
        <time>2021-02-27T07:25:30Z</time>
      </trkpt>
      <trkpt lat="45.1591" lon="5.96271">
        <ele>2632.6</ele>
        <time>2021-02-27T07:25:31Z</time>
      </trkpt>
      <trkpt lat="45.15912" lon="5.9627">
        <ele>2632.6</ele>
        <time>2021-02-27T07:25:32Z</time>
      </trkpt>
      <trkpt lat="45.15915" lon="5.96268">
        <ele>2617</ele>
        <time>2021-02-27T07:25:33Z</time>
      </trkpt>
      <trkpt lat="45.1592" lon="5.96269">
        <ele>2617</ele>
        <time>2021-02-27T07:25:34Z</time>
      </trkpt>
      <trkpt lat="45.15922" lon="5.96269">
        <ele>2617</ele>
        <time>2021-02-27T07:25:35Z</time>
      </trkpt>
      <trkpt lat="45.15924" lon="5.96268">
        <ele>2617</ele>
        <time>2021-02-27T07:25:36Z</time>
      </trkpt>
      <trkpt lat="45.15926" lon="5.96267">
        <ele>2617</ele>
        <time>2021-02-27T07:25:37Z</time>
      </trkpt>
      <trkpt lat="45.15927" lon="5.96266">
        <ele>2617</ele>
        <time>2021-02-27T07:25:38Z</time>
      </trkpt>
      <trkpt lat="45.15929" lon="5.96265">
        <ele>2617</ele>
        <time>2021-02-27T07:25:39Z</time>
      </trkpt>
      <trkpt lat="45.15931" lon="5.96264">
        <ele>2617</ele>
        <time>2021-02-27T07:25:40Z</time>
      </trkpt>
      <trkpt lat="45.15933" lon="5.96263">
        <ele>2617</ele>
        <time>2021-02-27T07:25:41Z</time>
      </trkpt>
      <trkpt lat="45.15934" lon="5.96262">
        <ele>2617</ele>
        <time>2021-02-27T07:25:42Z</time>
      </trkpt>
      <trkpt lat="45.15936" lon="5.96262">
        <ele>2597.2</ele>
        <time>2021-02-27T07:25:43Z</time>
      </trkpt>
      <trkpt lat="45.15939" lon="5.96259">
        <ele>2597.2</ele>
        <time>2021-02-27T07:25:44Z</time>
      </trkpt>
      <trkpt lat="45.1594" lon="5.96261">
        <ele>2597.2</ele>
        <time>2021-02-27T07:25:45Z</time>
      </trkpt>
      <trkpt lat="45.15942" lon="5.96264">
        <ele>2597.2</ele>
        <time>2021-02-27T07:25:46Z</time>
      </trkpt>
      <trkpt lat="45.15943" lon="5.96267">
        <ele>2597.2</ele>
        <time>2021-02-27T07:25:47Z</time>
      </trkpt>
      <trkpt lat="45.15945" lon="5.96269">
        <ele>2597.2</ele>
        <time>2021-02-27T07:25:48Z</time>
      </trkpt>
      <trkpt lat="45.15946" lon="5.96272">
        <ele>2597.2</ele>
        <time>2021-02-27T07:25:49Z</time>
      </trkpt>
      <trkpt lat="45.15948" lon="5.96274">
        <ele>2597.2</ele>
        <time>2021-02-27T07:25:50Z</time>
      </trkpt>
      <trkpt lat="45.15949" lon="5.96277">
        <ele>2597.2</ele>
        <time>2021-02-27T07:25:51Z</time>
      </trkpt>
      <trkpt lat="45.15951" lon="5.96279">
        <ele>2597.2</ele>
        <time>2021-02-27T07:25:52Z</time>
      </trkpt>
      <trkpt lat="45.15952" lon="5.96282">
        <ele>2584</ele>
        <time>2021-02-27T07:25:53Z</time>
      </trkpt>
      <trkpt lat="45.15956" lon="5.9628">
        <ele>2584</ele>
        <time>2021-02-27T07:25:54Z</time>
      </trkpt>
      <trkpt lat="45.15958" lon="5.96276">
        <ele>2584</ele>
        <time>2021-02-27T07:25:55Z</time>
      </trkpt>
      <trkpt lat="45.1596" lon="5.96271">
        <ele>2584</ele>
        <time>2021-02-27T07:25:56Z</time>
      </trkpt>
      <trkpt lat="45.15962" lon="5.96267">
        <ele>2584</ele>
        <time>2021-02-27T07:25:57Z</time>
      </trkpt>
      <trkpt lat="45.15964" lon="5.96262">
        <ele>2584</ele>
        <time>2021-02-27T07:25:58Z</time>
      </trkpt>
      <trkpt lat="45.15965" lon="5.96258">
        <ele>2584</ele>
        <time>2021-02-27T07:25:59Z</time>
      </trkpt>
      <trkpt lat="45.15967" lon="5.96253">
        <ele>2584</ele>
        <time>2021-02-27T07:26:00Z</time>
      </trkpt>
      <trkpt lat="45.15969" lon="5.96249">
        <ele>2584</ele>
        <time>2021-02-27T07:26:01Z</time>
      </trkpt>
      <trkpt lat="45.15971" lon="5.96244">
        <ele>2584</ele>
        <time>2021-02-27T07:26:02Z</time>
      </trkpt>
      <trkpt lat="45.15973" lon="5.9624">
        <ele>2571.4</ele>
        <time>2021-02-27T07:26:03Z</time>
      </trkpt>
      <trkpt lat="45.15975" lon="5.96237">
        <ele>2571.4</ele>
        <time>2021-02-27T07:26:04Z</time>
      </trkpt>
      <trkpt lat="45.15976" lon="5.96237">
        <ele>2571.4</ele>
        <time>2021-02-27T07:26:05Z</time>
      </trkpt>
      <trkpt lat="45.15978" lon="5.96238">
        <ele>2571.4</ele>
        <time>2021-02-27T07:26:06Z</time>
      </trkpt>
      <trkpt lat="45.15979" lon="5.96239">
        <ele>2571.4</ele>
        <time>2021-02-27T07:26:07Z</time>
      </trkpt>
      <trkpt lat="45.1598" lon="5.96239">
        <ele>2571.4</ele>
        <time>2021-02-27T07:26:08Z</time>
      </trkpt>
      <trkpt lat="45.15982" lon="5.9624">
        <ele>2571.4</ele>
        <time>2021-02-27T07:26:09Z</time>
      </trkpt>
      <trkpt lat="45.15983" lon="5.9624">
        <ele>2571.4</ele>
        <time>2021-02-27T07:26:10Z</time>
      </trkpt>
      <trkpt lat="45.15984" lon="5.96241">
        <ele>2571.4</ele>
        <time>2021-02-27T07:26:11Z</time>
      </trkpt>
      <trkpt lat="45.15986" lon="5.96242">
        <ele>2571.4</ele>
        <time>2021-02-27T07:26:12Z</time>
      </trkpt>
      <trkpt lat="45.15987" lon="5.96242">
        <ele>2562</ele>
        <time>2021-02-27T07:26:13Z</time>
      </trkpt>
      <trkpt lat="45.1599" lon="5.96235">
        <ele>2562</ele>
        <time>2021-02-27T07:26:14Z</time>
      </trkpt>
      <trkpt lat="45.15992" lon="5.96234">
        <ele>2562</ele>
        <time>2021-02-27T07:26:15Z</time>
      </trkpt>
      <trkpt lat="45.15994" lon="5.96233">
        <ele>2562</ele>
        <time>2021-02-27T07:26:16Z</time>
      </trkpt>
      <trkpt lat="45.15996" lon="5.96232">
        <ele>2562</ele>
        <time>2021-02-27T07:26:17Z</time>
      </trkpt>
      <trkpt lat="45.15998" lon="5.96231">
        <ele>2562</ele>
        <time>2021-02-27T07:26:18Z</time>
      </trkpt>
      <trkpt lat="45.16" lon="5.9623">
        <ele>2562</ele>
        <time>2021-02-27T07:26:19Z</time>
      </trkpt>
      <trkpt lat="45.16002" lon="5.96229">
        <ele>2562</ele>
        <time>2021-02-27T07:26:20Z</time>
      </trkpt>
      <trkpt lat="45.16003" lon="5.96228">
        <ele>2562</ele>
        <time>2021-02-27T07:26:21Z</time>
      </trkpt>
      <trkpt lat="45.16005" lon="5.96228">
        <ele>2562</ele>
        <time>2021-02-27T07:26:22Z</time>
      </trkpt>
      <trkpt lat="45.16007" lon="5.96227">
        <ele>2549.6</ele>
        <time>2021-02-27T07:26:23Z</time>
      </trkpt>
      <trkpt lat="45.16012" lon="5.96229">
        <ele>2549.6</ele>
        <time>2021-02-27T07:26:24Z</time>
      </trkpt>
      <trkpt lat="45.16014" lon="5.96231">
        <ele>2549.6</ele>
        <time>2021-02-27T07:26:25Z</time>
      </trkpt>
      <trkpt lat="45.16017" lon="5.96232">
        <ele>2549.6</ele>
        <time>2021-02-27T07:26:26Z</time>
      </trkpt>
      <trkpt lat="45.16019" lon="5.96233">
        <ele>2549.6</ele>
        <time>2021-02-27T07:26:27Z</time>
      </trkpt>
      <trkpt lat="45.16021" lon="5.96235">
        <ele>2549.6</ele>
        <time>2021-02-27T07:26:28Z</time>
      </trkpt>
      <trkpt lat="45.16023" lon="5.96236">
        <ele>2549.6</ele>
        <time>2021-02-27T07:26:29Z</time>
      </trkpt>
      <trkpt lat="45.16025" lon="5.96237">
        <ele>2549.6</ele>
        <time>2021-02-27T07:26:30Z</time>
      </trkpt>
      <trkpt lat="45.16027" lon="5.96239">
        <ele>2549.6</ele>
        <time>2021-02-27T07:26:31Z</time>
      </trkpt>
      <trkpt lat="45.16029" lon="5.9624">
        <ele>2549.6</ele>
        <time>2021-02-27T07:26:32Z</time>
      </trkpt>
      <trkpt lat="45.16031" lon="5.96241">
        <ele>2528.8</ele>
        <time>2021-02-27T07:26:33Z</time>
      </trkpt>
      <trkpt lat="45.16036" lon="5.96245">
        <ele>2528.8</ele>
        <time>2021-02-27T07:26:34Z</time>
      </trkpt>
      <trkpt lat="45.16038" lon="5.96246">
        <ele>2528.8</ele>
        <time>2021-02-27T07:26:35Z</time>
      </trkpt>
      <trkpt lat="45.16041" lon="5.96246">
        <ele>2528.8</ele>
        <time>2021-02-27T07:26:36Z</time>
      </trkpt>
      <trkpt lat="45.16043" lon="5.96247">
        <ele>2528.8</ele>
        <time>2021-02-27T07:26:37Z</time>
      </trkpt>
      <trkpt lat="45.16046" lon="5.96247">
        <ele>2528.8</ele>
        <time>2021-02-27T07:26:38Z</time>
      </trkpt>
      <trkpt lat="45.16048" lon="5.96248">
        <ele>2528.8</ele>
        <time>2021-02-27T07:26:39Z</time>
      </trkpt>
      <trkpt lat="45.1605" lon="5.96249">
        <ele>2528.8</ele>
        <time>2021-02-27T07:26:40Z</time>
      </trkpt>
      <trkpt lat="45.16053" lon="5.96249">
        <ele>2528.8</ele>
        <time>2021-02-27T07:26:41Z</time>
      </trkpt>
      <trkpt lat="45.16055" lon="5.9625">
        <ele>2528.8</ele>
        <time>2021-02-27T07:26:42Z</time>
      </trkpt>
      <trkpt lat="45.16058" lon="5.9625">
        <ele>2505.6</ele>
        <time>2021-02-27T07:26:43Z</time>
      </trkpt>
      <trkpt lat="45.16061" lon="5.96252">
        <ele>2505.6</ele>
        <time>2021-02-27T07:26:44Z</time>
      </trkpt>
      <trkpt lat="45.16063" lon="5.96253">
        <ele>2505.6</ele>
        <time>2021-02-27T07:26:45Z</time>
      </trkpt>
      <trkpt lat="45.16064" lon="5.96255">
        <ele>2505.6</ele>
        <time>2021-02-27T07:26:46Z</time>
      </trkpt>
      <trkpt lat="45.16066" lon="5.96256">
        <ele>2505.6</ele>
        <time>2021-02-27T07:26:47Z</time>
      </trkpt>
      <trkpt lat="45.16067" lon="5.96258">
        <ele>2505.6</ele>
        <time>2021-02-27T07:26:48Z</time>
      </trkpt>
      <trkpt lat="45.16069" lon="5.96259">
        <ele>2505.6</ele>
        <time>2021-02-27T07:26:49Z</time>
      </trkpt>
      <trkpt lat="45.1607" lon="5.96261">
        <ele>2505.6</ele>
        <time>2021-02-27T07:26:50Z</time>
      </trkpt>
      <trkpt lat="45.16071" lon="5.96262">
        <ele>2505.6</ele>
        <time>2021-02-27T07:26:51Z</time>
      </trkpt>
      <trkpt lat="45.16073" lon="5.96264">
        <ele>2505.6</ele>
        <time>2021-02-27T07:26:52Z</time>
      </trkpt>
      <trkpt lat="45.16074" lon="5.96265">
        <ele>2487</ele>
        <time>2021-02-27T07:26:53Z</time>
      </trkpt>
      <trkpt lat="45.16078" lon="5.96269">
        <ele>2487</ele>
        <time>2021-02-27T07:26:54Z</time>
      </trkpt>
      <trkpt lat="45.1608" lon="5.9627">
        <ele>2487</ele>
        <time>2021-02-27T07:26:55Z</time>
      </trkpt>
      <trkpt lat="45.16082" lon="5.9627">
        <ele>2487</ele>
        <time>2021-02-27T07:26:56Z</time>
      </trkpt>
      <trkpt lat="45.16084" lon="5.96271">
        <ele>2487</ele>
        <time>2021-02-27T07:26:57Z</time>
      </trkpt>
      <trkpt lat="45.16086" lon="5.96271">
        <ele>2487</ele>
        <time>2021-02-27T07:26:58Z</time>
      </trkpt>
      <trkpt lat="45.16089" lon="5.96272">
        <ele>2487</ele>
        <time>2021-02-27T07:26:59Z</time>
      </trkpt>
      <trkpt lat="45.16091" lon="5.96272">
        <ele>2487</ele>
        <time>2021-02-27T07:27:00Z</time>
      </trkpt>
      <trkpt lat="45.16093" lon="5.96273">
        <ele>2487</ele>
        <time>2021-02-27T07:27:01Z</time>
      </trkpt>
      <trkpt lat="45.16095" lon="5.96273">
        <ele>2487</ele>
        <time>2021-02-27T07:27:02Z</time>
      </trkpt>
      <trkpt lat="45.16097" lon="5.96274">
        <ele>2470.2</ele>
        <time>2021-02-27T07:27:03Z</time>
      </trkpt>
      <trkpt lat="45.16103" lon="5.96276">
        <ele>2470.2</ele>
        <time>2021-02-27T07:27:04Z</time>
      </trkpt>
      <trkpt lat="45.16105" lon="5.96276">
        <ele>2470.2</ele>
        <time>2021-02-27T07:27:05Z</time>
      </trkpt>
      <trkpt lat="45.16108" lon="5.96277">
        <ele>2470.2</ele>
        <time>2021-02-27T07:27:06Z</time>
      </trkpt>
      <trkpt lat="45.1611" lon="5.96277">
        <ele>2470.2</ele>
        <time>2021-02-27T07:27:07Z</time>
      </trkpt>
      <trkpt lat="45.16113" lon="5.96278">
        <ele>2470.2</ele>
        <time>2021-02-27T07:27:08Z</time>
      </trkpt>
      <trkpt lat="45.16115" lon="5.96278">
        <ele>2470.2</ele>
        <time>2021-02-27T07:27:09Z</time>
      </trkpt>
      <trkpt lat="45.16118" lon="5.96278">
        <ele>2470.2</ele>
        <time>2021-02-27T07:27:10Z</time>
      </trkpt>
      <trkpt lat="45.1612" lon="5.96279">
        <ele>2470.2</ele>
        <time>2021-02-27T07:27:11Z</time>
      </trkpt>
      <trkpt lat="45.16123" lon="5.96279">
        <ele>2470.2</ele>
        <time>2021-02-27T07:27:12Z</time>
      </trkpt>
      <trkpt lat="45.16125" lon="5.9628">
        <ele>2452.4</ele>
        <time>2021-02-27T07:27:13Z</time>
      </trkpt>
      <trkpt lat="45.16129" lon="5.96286">
        <ele>2452.4</ele>
        <time>2021-02-27T07:27:14Z</time>
      </trkpt>
      <trkpt lat="45.16132" lon="5.96286">
        <ele>2452.4</ele>
        <time>2021-02-27T07:27:15Z</time>
      </trkpt>
      <trkpt lat="45.16134" lon="5.96287">
        <ele>2452.4</ele>
        <time>2021-02-27T07:27:16Z</time>
      </trkpt>
      <trkpt lat="45.16137" lon="5.96288">
        <ele>2452.4</ele>
        <time>2021-02-27T07:27:17Z</time>
      </trkpt>
      <trkpt lat="45.16139" lon="5.96289">
        <ele>2452.4</ele>
        <time>2021-02-27T07:27:18Z</time>
      </trkpt>
      <trkpt lat="45.16141" lon="5.96289">
        <ele>2452.4</ele>
        <time>2021-02-27T07:27:19Z</time>
      </trkpt>
      <trkpt lat="45.16144" lon="5.9629">
        <ele>2452.4</ele>
        <time>2021-02-27T07:27:20Z</time>
      </trkpt>
      <trkpt lat="45.16146" lon="5.96291">
        <ele>2452.4</ele>
        <time>2021-02-27T07:27:21Z</time>
      </trkpt>
      <trkpt lat="45.16148" lon="5.96292">
        <ele>2452.4</ele>
        <time>2021-02-27T07:27:22Z</time>
      </trkpt>
      <trkpt lat="45.16151" lon="5.96293">
        <ele>2435.2</ele>
        <time>2021-02-27T07:27:23Z</time>
      </trkpt>
      <trkpt lat="45.16154" lon="5.96296">
        <ele>2435.2</ele>
        <time>2021-02-27T07:27:24Z</time>
      </trkpt>
      <trkpt lat="45.16156" lon="5.96296">
        <ele>2435.2</ele>
        <time>2021-02-27T07:27:25Z</time>
      </trkpt>
      <trkpt lat="45.16159" lon="5.96295">
        <ele>2435.2</ele>
        <time>2021-02-27T07:27:26Z</time>
      </trkpt>
      <trkpt lat="45.16161" lon="5.96294">
        <ele>2435.2</ele>
        <time>2021-02-27T07:27:27Z</time>
      </trkpt>
      <trkpt lat="45.16164" lon="5.96293">
        <ele>2435.2</ele>
        <time>2021-02-27T07:27:28Z</time>
      </trkpt>
      <trkpt lat="45.16166" lon="5.96293">
        <ele>2435.2</ele>
        <time>2021-02-27T07:27:29Z</time>
      </trkpt>
      <trkpt lat="45.16169" lon="5.96292">
        <ele>2435.2</ele>
        <time>2021-02-27T07:27:30Z</time>
      </trkpt>
      <trkpt lat="45.16171" lon="5.96291">
        <ele>2435.2</ele>
        <time>2021-02-27T07:27:31Z</time>
      </trkpt>
      <trkpt lat="45.16174" lon="5.9629">
        <ele>2435.2</ele>
        <time>2021-02-27T07:27:32Z</time>
      </trkpt>
      <trkpt lat="45.16177" lon="5.96289">
        <ele>2420.6</ele>
        <time>2021-02-27T07:27:33Z</time>
      </trkpt>
      <trkpt lat="45.16182" lon="5.96301">
        <ele>2420.6</ele>
        <time>2021-02-27T07:27:34Z</time>
      </trkpt>
      <trkpt lat="45.16185" lon="5.96308">
        <ele>2420.6</ele>
        <time>2021-02-27T07:27:35Z</time>
      </trkpt>
      <trkpt lat="45.16188" lon="5.96314">
        <ele>2420.6</ele>
        <time>2021-02-27T07:27:36Z</time>
      </trkpt>
      <trkpt lat="45.16191" lon="5.96321">
        <ele>2420.6</ele>
        <time>2021-02-27T07:27:37Z</time>
      </trkpt>
      <trkpt lat="45.16193" lon="5.96328">
        <ele>2420.6</ele>
        <time>2021-02-27T07:27:38Z</time>
      </trkpt>
      <trkpt lat="45.16196" lon="5.96335">
        <ele>2420.6</ele>
        <time>2021-02-27T07:27:39Z</time>
      </trkpt>
      <trkpt lat="45.16199" lon="5.96342">
        <ele>2420.6</ele>
        <time>2021-02-27T07:27:40Z</time>
      </trkpt>
      <trkpt lat="45.16202" lon="5.96348">
        <ele>2420.6</ele>
        <time>2021-02-27T07:27:41Z</time>
      </trkpt>
      <trkpt lat="45.16205" lon="5.96355">
        <ele>2420.6</ele>
        <time>2021-02-27T07:27:42Z</time>
      </trkpt>
      <trkpt lat="45.16208" lon="5.96362">
        <ele>2406.6</ele>
        <time>2021-02-27T07:27:43Z</time>
      </trkpt>
      <trkpt lat="45.16217" lon="5.9637">
        <ele>2406.6</ele>
        <time>2021-02-27T07:27:44Z</time>
      </trkpt>
      <trkpt lat="45.16222" lon="5.96374">
        <ele>2406.6</ele>
        <time>2021-02-27T07:27:45Z</time>
      </trkpt>
      <trkpt lat="45.16226" lon="5.96377">
        <ele>2406.6</ele>
        <time>2021-02-27T07:27:46Z</time>
      </trkpt>
      <trkpt lat="45.16231" lon="5.96381">
        <ele>2406.6</ele>
        <time>2021-02-27T07:27:47Z</time>
      </trkpt>
      <trkpt lat="45.16235" lon="5.96384">
        <ele>2406.6</ele>
        <time>2021-02-27T07:27:48Z</time>
      </trkpt>
      <trkpt lat="45.1624" lon="5.96388">
        <ele>2406.6</ele>
        <time>2021-02-27T07:27:49Z</time>
      </trkpt>
      <trkpt lat="45.16244" lon="5.96392">
        <ele>2406.6</ele>
        <time>2021-02-27T07:27:50Z</time>
      </trkpt>
      <trkpt lat="45.16248" lon="5.96395">
        <ele>2406.6</ele>
        <time>2021-02-27T07:27:51Z</time>
      </trkpt>
      <trkpt lat="45.16253" lon="5.96399">
        <ele>2406.6</ele>
        <time>2021-02-27T07:27:52Z</time>
      </trkpt>
      <trkpt lat="45.16257" lon="5.96403">
        <ele>2397.8</ele>
        <time>2021-02-27T07:27:53Z</time>
      </trkpt>
      <trkpt lat="45.16265" lon="5.96409">
        <ele>2397.8</ele>
        <time>2021-02-27T07:27:54Z</time>
      </trkpt>
      <trkpt lat="45.16269" lon="5.96411">
        <ele>2397.8</ele>
        <time>2021-02-27T07:27:55Z</time>
      </trkpt>
      <trkpt lat="45.16272" lon="5.96413">
        <ele>2397.8</ele>
        <time>2021-02-27T07:27:56Z</time>
      </trkpt>
      <trkpt lat="45.16275" lon="5.96416">
        <ele>2397.8</ele>
        <time>2021-02-27T07:27:57Z</time>
      </trkpt>
      <trkpt lat="45.16279" lon="5.96418">
        <ele>2397.8</ele>
        <time>2021-02-27T07:27:58Z</time>
      </trkpt>
      <trkpt lat="45.16282" lon="5.9642">
        <ele>2397.8</ele>
        <time>2021-02-27T07:27:59Z</time>
      </trkpt>
      <trkpt lat="45.16286" lon="5.96422">
        <ele>2397.8</ele>
        <time>2021-02-27T07:28:00Z</time>
      </trkpt>
      <trkpt lat="45.16289" lon="5.96425">
        <ele>2397.8</ele>
        <time>2021-02-27T07:28:01Z</time>
      </trkpt>
      <trkpt lat="45.16293" lon="5.96427">
        <ele>2397.8</ele>
        <time>2021-02-27T07:28:02Z</time>
      </trkpt>
      <trkpt lat="45.16296" lon="5.96429">
        <ele>2393.2</ele>
        <time>2021-02-27T07:28:03Z</time>
      </trkpt>
      <trkpt lat="45.16304" lon="5.96433">
        <ele>2393.2</ele>
        <time>2021-02-27T07:28:04Z</time>
      </trkpt>
      <trkpt lat="45.16307" lon="5.96435">
        <ele>2393.2</ele>
        <time>2021-02-27T07:28:05Z</time>
      </trkpt>
      <trkpt lat="45.1631" lon="5.96437">
        <ele>2393.2</ele>
        <time>2021-02-27T07:28:06Z</time>
      </trkpt>
      <trkpt lat="45.16314" lon="5.96439">
        <ele>2393.2</ele>
        <time>2021-02-27T07:28:07Z</time>
      </trkpt>
      <trkpt lat="45.16317" lon="5.96441">
        <ele>2393.2</ele>
        <time>2021-02-27T07:28:08Z</time>
      </trkpt>
      <trkpt lat="45.16321" lon="5.96444">
        <ele>2393.2</ele>
        <time>2021-02-27T07:28:09Z</time>
      </trkpt>
      <trkpt lat="45.16324" lon="5.96446">
        <ele>2393.2</ele>
        <time>2021-02-27T07:28:10Z</time>
      </trkpt>
      <trkpt lat="45.16327" lon="5.96448">
        <ele>2393.2</ele>
        <time>2021-02-27T07:28:11Z</time>
      </trkpt>
      <trkpt lat="45.16331" lon="5.9645">
        <ele>2393.2</ele>
        <time>2021-02-27T07:28:12Z</time>
      </trkpt>
      <trkpt lat="45.16334" lon="5.96452">
        <ele>2389.6</ele>
        <time>2021-02-27T07:28:13Z</time>
      </trkpt>
      <trkpt lat="45.16341" lon="5.96456">
        <ele>2389.6</ele>
        <time>2021-02-27T07:28:14Z</time>
      </trkpt>
      <trkpt lat="45.16345" lon="5.96458">
        <ele>2389.6</ele>
        <time>2021-02-27T07:28:15Z</time>
      </trkpt>
      <trkpt lat="45.16348" lon="5.9646">
        <ele>2389.6</ele>
        <time>2021-02-27T07:28:16Z</time>
      </trkpt>
      <trkpt lat="45.16352" lon="5.96461">
        <ele>2389.6</ele>
        <time>2021-02-27T07:28:17Z</time>
      </trkpt>
      <trkpt lat="45.16356" lon="5.96463">
        <ele>2389.6</ele>
        <time>2021-02-27T07:28:18Z</time>
      </trkpt>
      <trkpt lat="45.16359" lon="5.96465">
        <ele>2389.6</ele>
        <time>2021-02-27T07:28:19Z</time>
      </trkpt>
      <trkpt lat="45.16363" lon="5.96466">
        <ele>2389.6</ele>
        <time>2021-02-27T07:28:20Z</time>
      </trkpt>
      <trkpt lat="45.16366" lon="5.96468">
        <ele>2389.6</ele>
        <time>2021-02-27T07:28:21Z</time>
      </trkpt>
      <trkpt lat="45.1637" lon="5.9647">
        <ele>2389.6</ele>
        <time>2021-02-27T07:28:22Z</time>
      </trkpt>
      <trkpt lat="45.16374" lon="5.96471">
        <ele>2386.8</ele>
        <time>2021-02-27T07:28:23Z</time>
      </trkpt>
      <trkpt lat="45.16376" lon="5.96472">
        <ele>2386.8</ele>
        <time>2021-02-27T07:28:24Z</time>
      </trkpt>
      <trkpt lat="45.16377" lon="5.96472">
        <ele>2386.8</ele>
        <time>2021-02-27T07:28:25Z</time>
      </trkpt>
      <trkpt lat="45.16377" lon="5.96472">
        <ele>2387.8</ele>
        <time>2021-02-27T07:28:33Z</time>
      </trkpt>
      <trkpt lat="45.16378" lon="5.96472">
        <ele>2388.8</ele>
        <time>2021-02-27T07:28:43Z</time>
      </trkpt>
      <trkpt lat="45.16378" lon="5.96472">
        <ele>2388.4</ele>
        <time>2021-02-27T07:28:53Z</time>
      </trkpt>
      <trkpt lat="45.16379" lon="5.96472">
        <ele>2388.6</ele>
        <time>2021-02-27T07:29:03Z</time>
      </trkpt>
      <trkpt lat="45.16379" lon="5.96472">
        <ele>2389.6</ele>
        <time>2021-02-27T07:29:13Z</time>
      </trkpt>
      <trkpt lat="45.1638" lon="5.96472">
        <ele>2389.4</ele>
        <time>2021-02-27T07:29:23Z</time>
      </trkpt>
      <trkpt lat="45.1638" lon="5.96472">
        <ele>2388.6</ele>
        <time>2021-02-27T07:29:33Z</time>
      </trkpt>
      <trkpt lat="45.1638" lon="5.96472">
        <ele>2387.6</ele>
        <time>2021-02-27T07:29:43Z</time>
      </trkpt>
      <trkpt lat="45.16381" lon="5.96472">
        <ele>2388.2</ele>
        <time>2021-02-27T07:29:53Z</time>
      </trkpt>
      <trkpt lat="45.16381" lon="5.96472">
        <ele>2389</ele>
        <time>2021-02-27T07:30:03Z</time>
      </trkpt>
      <trkpt lat="45.16382" lon="5.96472">
        <ele>2389</ele>
        <time>2021-02-27T07:30:13Z</time>
      </trkpt>
      <trkpt lat="45.16382" lon="5.96472">
        <ele>2389</ele>
        <time>2021-02-27T07:30:20Z</time>
      </trkpt>
      <trkpt lat="45.16383" lon="5.96472">
        <ele>2389</ele>
        <time>2021-02-27T07:30:22Z</time>
      </trkpt>
      <trkpt lat="45.16383" lon="5.96472">
        <ele>2389.8</ele>
        <time>2021-02-27T07:30:23Z</time>
      </trkpt>
      <trkpt lat="45.16386" lon="5.96473">
        <ele>2389.8</ele>
        <time>2021-02-27T07:30:24Z</time>
      </trkpt>
      <trkpt lat="45.16388" lon="5.96473">
        <ele>2389.8</ele>
        <time>2021-02-27T07:30:25Z</time>
      </trkpt>
      <trkpt lat="45.16391" lon="5.96475">
        <ele>2389.8</ele>
        <time>2021-02-27T07:30:27Z</time>
      </trkpt>
      <trkpt lat="45.16393" lon="5.96476">
        <ele>2389.8</ele>
        <time>2021-02-27T07:30:29Z</time>
      </trkpt>
      <trkpt lat="45.16397" lon="5.96478">
        <ele>2389.8</ele>
        <time>2021-02-27T07:30:31Z</time>
      </trkpt>
      <trkpt lat="45.16397" lon="5.96478">
        <ele>2390.4</ele>
        <time>2021-02-27T07:30:33Z</time>
      </trkpt>
      <trkpt lat="45.164" lon="5.96479">
        <ele>2390.4</ele>
        <time>2021-02-27T07:30:34Z</time>
      </trkpt>
      <trkpt lat="45.16402" lon="5.9648">
        <ele>2390.4</ele>
        <time>2021-02-27T07:30:36Z</time>
      </trkpt>
      <trkpt lat="45.16404" lon="5.96482">
        <ele>2390.4</ele>
        <time>2021-02-27T07:30:39Z</time>
      </trkpt>
      <trkpt lat="45.16407" lon="5.96484">
        <ele>2390.4</ele>
        <time>2021-02-27T07:30:41Z</time>
      </trkpt>
      <trkpt lat="45.16409" lon="5.96486">
        <ele>2391</ele>
        <time>2021-02-27T07:30:43Z</time>
      </trkpt>
      <trkpt lat="45.16412" lon="5.96489">
        <ele>2391</ele>
        <time>2021-02-27T07:30:44Z</time>
      </trkpt>
      <trkpt lat="45.16414" lon="5.9649">
        <ele>2391</ele>
        <time>2021-02-27T07:30:45Z</time>
      </trkpt>
      <trkpt lat="45.16415" lon="5.96492">
        <ele>2391</ele>
        <time>2021-02-27T07:30:47Z</time>
      </trkpt>
      <trkpt lat="45.16417" lon="5.96494">
        <ele>2391</ele>
        <time>2021-02-27T07:30:48Z</time>
      </trkpt>
      <trkpt lat="45.16419" lon="5.96495">
        <ele>2391</ele>
        <time>2021-02-27T07:30:49Z</time>
      </trkpt>
      <trkpt lat="45.1642" lon="5.96497">
        <ele>2391</ele>
        <time>2021-02-27T07:30:50Z</time>
      </trkpt>
      <trkpt lat="45.16422" lon="5.96499">
        <ele>2391</ele>
        <time>2021-02-27T07:30:51Z</time>
      </trkpt>
      <trkpt lat="45.16423" lon="5.965">
        <ele>2393</ele>
        <time>2021-02-27T07:30:53Z</time>
      </trkpt>
      <trkpt lat="45.16426" lon="5.96502">
        <ele>2393</ele>
        <time>2021-02-27T07:30:55Z</time>
      </trkpt>
      <trkpt lat="45.16428" lon="5.96504">
        <ele>2393</ele>
        <time>2021-02-27T07:30:57Z</time>
      </trkpt>
      <trkpt lat="45.1643" lon="5.96507">
        <ele>2393</ele>
        <time>2021-02-27T07:30:59Z</time>
      </trkpt>
      <trkpt lat="45.16432" lon="5.96509">
        <ele>2393</ele>
        <time>2021-02-27T07:31:01Z</time>
      </trkpt>
      <trkpt lat="45.16434" lon="5.96512">
        <ele>2394.2</ele>
        <time>2021-02-27T07:31:03Z</time>
      </trkpt>
      <trkpt lat="45.16436" lon="5.96514">
        <ele>2394.2</ele>
        <time>2021-02-27T07:31:05Z</time>
      </trkpt>
      <trkpt lat="45.16438" lon="5.96516">
        <ele>2394.2</ele>
        <time>2021-02-27T07:31:07Z</time>
      </trkpt>
      <trkpt lat="45.16441" lon="5.96519">
        <ele>2394.2</ele>
        <time>2021-02-27T07:31:09Z</time>
      </trkpt>
      <trkpt lat="45.16443" lon="5.96522">
        <ele>2394.2</ele>
        <time>2021-02-27T07:31:11Z</time>
      </trkpt>
      <trkpt lat="45.16444" lon="5.96525">
        <ele>2395.6</ele>
        <time>2021-02-27T07:31:13Z</time>
      </trkpt>
      <trkpt lat="45.16445" lon="5.96528">
        <ele>2395.6</ele>
        <time>2021-02-27T07:31:15Z</time>
      </trkpt>
      <trkpt lat="45.16447" lon="5.96531">
        <ele>2395.6</ele>
        <time>2021-02-27T07:31:17Z</time>
      </trkpt>
      <trkpt lat="45.16448" lon="5.96534">
        <ele>2395.6</ele>
        <time>2021-02-27T07:31:19Z</time>
      </trkpt>
      <trkpt lat="45.16451" lon="5.96536">
        <ele>2395.6</ele>
        <time>2021-02-27T07:31:21Z</time>
      </trkpt>
      <trkpt lat="45.16452" lon="5.96538">
        <ele>2397.6</ele>
        <time>2021-02-27T07:31:23Z</time>
      </trkpt>
      <trkpt lat="45.16454" lon="5.9654">
        <ele>2397.6</ele>
        <time>2021-02-27T07:31:25Z</time>
      </trkpt>
      <trkpt lat="45.16456" lon="5.96542">
        <ele>2397.6</ele>
        <time>2021-02-27T07:31:27Z</time>
      </trkpt>
      <trkpt lat="45.16458" lon="5.96545">
        <ele>2397.6</ele>
        <time>2021-02-27T07:31:29Z</time>
      </trkpt>
      <trkpt lat="45.16459" lon="5.96548">
        <ele>2397.6</ele>
        <time>2021-02-27T07:31:31Z</time>
      </trkpt>
      <trkpt lat="45.1646" lon="5.9655">
        <ele>2399.4</ele>
        <time>2021-02-27T07:31:33Z</time>
      </trkpt>
      <trkpt lat="45.16462" lon="5.96552">
        <ele>2399.4</ele>
        <time>2021-02-27T07:31:35Z</time>
      </trkpt>
      <trkpt lat="45.16464" lon="5.96555">
        <ele>2399.4</ele>
        <time>2021-02-27T07:31:37Z</time>
      </trkpt>
      <trkpt lat="45.16466" lon="5.96558">
        <ele>2399.4</ele>
        <time>2021-02-27T07:31:39Z</time>
      </trkpt>
      <trkpt lat="45.16468" lon="5.9656">
        <ele>2399.4</ele>
        <time>2021-02-27T07:31:41Z</time>
      </trkpt>
      <trkpt lat="45.1647" lon="5.96562">
        <ele>2401.4</ele>
        <time>2021-02-27T07:31:43Z</time>
      </trkpt>
      <trkpt lat="45.16472" lon="5.96565">
        <ele>2401.4</ele>
        <time>2021-02-27T07:31:45Z</time>
      </trkpt>
      <trkpt lat="45.16475" lon="5.96568">
        <ele>2401.4</ele>
        <time>2021-02-27T07:31:47Z</time>
      </trkpt>
      <trkpt lat="45.16476" lon="5.9657">
        <ele>2401.4</ele>
        <time>2021-02-27T07:31:48Z</time>
      </trkpt>
      <trkpt lat="45.16478" lon="5.96573">
        <ele>2401.4</ele>
        <time>2021-02-27T07:31:51Z</time>
      </trkpt>
      <trkpt lat="45.16479" lon="5.96576">
        <ele>2403.4</ele>
        <time>2021-02-27T07:31:53Z</time>
      </trkpt>
      <trkpt lat="45.16482" lon="5.96581">
        <ele>2403.4</ele>
        <time>2021-02-27T07:31:55Z</time>
      </trkpt>
      <trkpt lat="45.16483" lon="5.96582">
        <ele>2403.4</ele>
        <time>2021-02-27T07:31:56Z</time>
      </trkpt>
      <trkpt lat="45.16484" lon="5.96584">
        <ele>2403.4</ele>
        <time>2021-02-27T07:31:58Z</time>
      </trkpt>
      <trkpt lat="45.16485" lon="5.96586">
        <ele>2403.4</ele>
        <time>2021-02-27T07:32:00Z</time>
      </trkpt>
      <trkpt lat="45.16486" lon="5.96587">
        <ele>2403.4</ele>
        <time>2021-02-27T07:32:02Z</time>
      </trkpt>
      <trkpt lat="45.16487" lon="5.96589">
        <ele>2404.8</ele>
        <time>2021-02-27T07:32:03Z</time>
      </trkpt>
      <trkpt lat="45.16489" lon="5.96591">
        <ele>2404.8</ele>
        <time>2021-02-27T07:32:04Z</time>
      </trkpt>
      <trkpt lat="45.1649" lon="5.96592">
        <ele>2404.8</ele>
        <time>2021-02-27T07:32:05Z</time>
      </trkpt>
      <trkpt lat="45.16492" lon="5.96595">
        <ele>2404.8</ele>
        <time>2021-02-27T07:32:07Z</time>
      </trkpt>
      <trkpt lat="45.16494" lon="5.96598">
        <ele>2404.8</ele>
        <time>2021-02-27T07:32:09Z</time>
      </trkpt>
      <trkpt lat="45.16495" lon="5.96601">
        <ele>2404.8</ele>
        <time>2021-02-27T07:32:11Z</time>
      </trkpt>
      <trkpt lat="45.16497" lon="5.96603">
        <ele>2407.4</ele>
        <time>2021-02-27T07:32:13Z</time>
      </trkpt>
      <trkpt lat="45.165" lon="5.96605">
        <ele>2407.4</ele>
        <time>2021-02-27T07:32:15Z</time>
      </trkpt>
      <trkpt lat="45.16502" lon="5.96607">
        <ele>2407.4</ele>
        <time>2021-02-27T07:32:17Z</time>
      </trkpt>
      <trkpt lat="45.16504" lon="5.96609">
        <ele>2407.4</ele>
        <time>2021-02-27T07:32:19Z</time>
      </trkpt>
      <trkpt lat="45.16505" lon="5.96611">
        <ele>2407.4</ele>
        <time>2021-02-27T07:32:21Z</time>
      </trkpt>
      <trkpt lat="45.16505" lon="5.96611">
        <ele>2409.2</ele>
        <time>2021-02-27T07:32:23Z</time>
      </trkpt>
      <trkpt lat="45.16507" lon="5.96613">
        <ele>2409.2</ele>
        <time>2021-02-27T07:32:24Z</time>
      </trkpt>
      <trkpt lat="45.16509" lon="5.96616">
        <ele>2409.2</ele>
        <time>2021-02-27T07:32:26Z</time>
      </trkpt>
      <trkpt lat="45.1651" lon="5.96618">
        <ele>2409.2</ele>
        <time>2021-02-27T07:32:28Z</time>
      </trkpt>
      <trkpt lat="45.16512" lon="5.9662">
        <ele>2409.2</ele>
        <time>2021-02-27T07:32:31Z</time>
      </trkpt>
      <trkpt lat="45.16512" lon="5.9662">
        <ele>2412.4</ele>
        <time>2021-02-27T07:32:33Z</time>
      </trkpt>
      <trkpt lat="45.16514" lon="5.96623">
        <ele>2412.4</ele>
        <time>2021-02-27T07:32:34Z</time>
      </trkpt>
      <trkpt lat="45.16515" lon="5.96626">
        <ele>2412.4</ele>
        <time>2021-02-27T07:32:37Z</time>
      </trkpt>
      <trkpt lat="45.16517" lon="5.96628">
        <ele>2412.4</ele>
        <time>2021-02-27T07:32:39Z</time>
      </trkpt>
      <trkpt lat="45.16518" lon="5.9663">
        <ele>2412.4</ele>
        <time>2021-02-27T07:32:41Z</time>
      </trkpt>
      <trkpt lat="45.1652" lon="5.96632">
        <ele>2415.4</ele>
        <time>2021-02-27T07:32:43Z</time>
      </trkpt>
      <trkpt lat="45.16523" lon="5.96636">
        <ele>2415.4</ele>
        <time>2021-02-27T07:32:45Z</time>
      </trkpt>
      <trkpt lat="45.16524" lon="5.96637">
        <ele>2415.4</ele>
        <time>2021-02-27T07:32:48Z</time>
      </trkpt>
      <trkpt lat="45.16525" lon="5.96638">
        <ele>2415.4</ele>
        <time>2021-02-27T07:32:50Z</time>
      </trkpt>
      <trkpt lat="45.16526" lon="5.96639">
        <ele>2415.4</ele>
        <time>2021-02-27T07:32:52Z</time>
      </trkpt>
      <trkpt lat="45.16527" lon="5.96641">
        <ele>2418.4</ele>
        <time>2021-02-27T07:32:53Z</time>
      </trkpt>
      <trkpt lat="45.16528" lon="5.96641">
        <ele>2418.4</ele>
        <time>2021-02-27T07:32:54Z</time>
      </trkpt>
      <trkpt lat="45.1653" lon="5.96644">
        <ele>2418.4</ele>
        <time>2021-02-27T07:32:56Z</time>
      </trkpt>
      <trkpt lat="45.16532" lon="5.96645">
        <ele>2418.4</ele>
        <time>2021-02-27T07:32:57Z</time>
      </trkpt>
      <trkpt lat="45.16534" lon="5.96646">
        <ele>2418.4</ele>
        <time>2021-02-27T07:32:59Z</time>
      </trkpt>
      <trkpt lat="45.16536" lon="5.96648">
        <ele>2418.4</ele>
        <time>2021-02-27T07:33:01Z</time>
      </trkpt>
      <trkpt lat="45.16538" lon="5.96651">
        <ele>2421</ele>
        <time>2021-02-27T07:33:03Z</time>
      </trkpt>
      <trkpt lat="45.16541" lon="5.96655">
        <ele>2421</ele>
        <time>2021-02-27T07:33:05Z</time>
      </trkpt>
      <trkpt lat="45.16542" lon="5.96656">
        <ele>2421</ele>
        <time>2021-02-27T07:33:07Z</time>
      </trkpt>
      <trkpt lat="45.16544" lon="5.96658">
        <ele>2421</ele>
        <time>2021-02-27T07:33:09Z</time>
      </trkpt>
      <trkpt lat="45.16545" lon="5.9666">
        <ele>2421</ele>
        <time>2021-02-27T07:33:10Z</time>
      </trkpt>
      <trkpt lat="45.16546" lon="5.96662">
        <ele>2421</ele>
        <time>2021-02-27T07:33:12Z</time>
      </trkpt>
      <trkpt lat="45.16547" lon="5.96664">
        <ele>2423.4</ele>
        <time>2021-02-27T07:33:13Z</time>
      </trkpt>
      <trkpt lat="45.16548" lon="5.96665">
        <ele>2423.4</ele>
        <time>2021-02-27T07:33:14Z</time>
      </trkpt>
      <trkpt lat="45.16549" lon="5.96667">
        <ele>2423.4</ele>
        <time>2021-02-27T07:33:16Z</time>
      </trkpt>
      <trkpt lat="45.1655" lon="5.96669">
        <ele>2423.4</ele>
        <time>2021-02-27T07:33:17Z</time>
      </trkpt>
      <trkpt lat="45.16552" lon="5.96672">
        <ele>2423.4</ele>
        <time>2021-02-27T07:33:19Z</time>
      </trkpt>
      <trkpt lat="45.16552" lon="5.96675">
        <ele>2423.4</ele>
        <time>2021-02-27T07:33:21Z</time>
      </trkpt>
      <trkpt lat="45.16554" lon="5.96678">
        <ele>2424.8</ele>
        <time>2021-02-27T07:33:23Z</time>
      </trkpt>
      <trkpt lat="45.16554" lon="5.96682">
        <ele>2424.8</ele>
        <time>2021-02-27T07:33:25Z</time>
      </trkpt>
      <trkpt lat="45.16556" lon="5.96684">
        <ele>2424.8</ele>
        <time>2021-02-27T07:33:27Z</time>
      </trkpt>
      <trkpt lat="45.16557" lon="5.96687">
        <ele>2424.8</ele>
        <time>2021-02-27T07:33:29Z</time>
      </trkpt>
      <trkpt lat="45.16558" lon="5.96689">
        <ele>2424.8</ele>
        <time>2021-02-27T07:33:31Z</time>
      </trkpt>
      <trkpt lat="45.1656" lon="5.96691">
        <ele>2427.4</ele>
        <time>2021-02-27T07:33:33Z</time>
      </trkpt>
      <trkpt lat="45.1656" lon="5.96694">
        <ele>2427.4</ele>
        <time>2021-02-27T07:33:35Z</time>
      </trkpt>
      <trkpt lat="45.16562" lon="5.96698">
        <ele>2427.4</ele>
        <time>2021-02-27T07:33:37Z</time>
      </trkpt>
      <trkpt lat="45.16564" lon="5.967">
        <ele>2427.4</ele>
        <time>2021-02-27T07:33:39Z</time>
      </trkpt>
      <trkpt lat="45.16565" lon="5.96702">
        <ele>2427.4</ele>
        <time>2021-02-27T07:33:41Z</time>
      </trkpt>
      <trkpt lat="45.16566" lon="5.96706">
        <ele>2429.4</ele>
        <time>2021-02-27T07:33:43Z</time>
      </trkpt>
      <trkpt lat="45.16567" lon="5.9671">
        <ele>2429.4</ele>
        <time>2021-02-27T07:33:45Z</time>
      </trkpt>
      <trkpt lat="45.16569" lon="5.96712">
        <ele>2429.4</ele>
        <time>2021-02-27T07:33:47Z</time>
      </trkpt>
      <trkpt lat="45.1657" lon="5.96715">
        <ele>2429.4</ele>
        <time>2021-02-27T07:33:49Z</time>
      </trkpt>
      <trkpt lat="45.16572" lon="5.96718">
        <ele>2429.4</ele>
        <time>2021-02-27T07:33:51Z</time>
      </trkpt>
      <trkpt lat="45.16573" lon="5.96721">
        <ele>2431.6</ele>
        <time>2021-02-27T07:33:53Z</time>
      </trkpt>
      <trkpt lat="45.16574" lon="5.96724">
        <ele>2431.6</ele>
        <time>2021-02-27T07:33:55Z</time>
      </trkpt>
      <trkpt lat="45.16574" lon="5.96727">
        <ele>2431.6</ele>
        <time>2021-02-27T07:33:57Z</time>
      </trkpt>
      <trkpt lat="45.16576" lon="5.9673">
        <ele>2431.6</ele>
        <time>2021-02-27T07:33:59Z</time>
      </trkpt>
      <trkpt lat="45.16578" lon="5.96733">
        <ele>2431.6</ele>
        <time>2021-02-27T07:34:01Z</time>
      </trkpt>
      <trkpt lat="45.16579" lon="5.96735">
        <ele>2433.6</ele>
        <time>2021-02-27T07:34:03Z</time>
      </trkpt>
      <trkpt lat="45.16581" lon="5.96738">
        <ele>2433.6</ele>
        <time>2021-02-27T07:34:05Z</time>
      </trkpt>
      <trkpt lat="45.16582" lon="5.9674">
        <ele>2433.6</ele>
        <time>2021-02-27T07:34:07Z</time>
      </trkpt>
      <trkpt lat="45.16583" lon="5.96743">
        <ele>2433.6</ele>
        <time>2021-02-27T07:34:09Z</time>
      </trkpt>
      <trkpt lat="45.16584" lon="5.96746">
        <ele>2433.6</ele>
        <time>2021-02-27T07:34:11Z</time>
      </trkpt>
      <trkpt lat="45.16585" lon="5.9675">
        <ele>2435.2</ele>
        <time>2021-02-27T07:34:13Z</time>
      </trkpt>
      <trkpt lat="45.16586" lon="5.96753">
        <ele>2435.2</ele>
        <time>2021-02-27T07:34:15Z</time>
      </trkpt>
      <trkpt lat="45.16587" lon="5.96756">
        <ele>2435.2</ele>
        <time>2021-02-27T07:34:17Z</time>
      </trkpt>
      <trkpt lat="45.16588" lon="5.9676">
        <ele>2435.2</ele>
        <time>2021-02-27T07:34:19Z</time>
      </trkpt>
      <trkpt lat="45.16588" lon="5.96763">
        <ele>2435.2</ele>
        <time>2021-02-27T07:34:21Z</time>
      </trkpt>
      <trkpt lat="45.16589" lon="5.96766">
        <ele>2437.8</ele>
        <time>2021-02-27T07:34:23Z</time>
      </trkpt>
      <trkpt lat="45.1659" lon="5.9677">
        <ele>2437.8</ele>
        <time>2021-02-27T07:34:25Z</time>
      </trkpt>
      <trkpt lat="45.16591" lon="5.96773">
        <ele>2437.8</ele>
        <time>2021-02-27T07:34:26Z</time>
      </trkpt>
      <trkpt lat="45.16592" lon="5.96776">
        <ele>2437.8</ele>
        <time>2021-02-27T07:34:28Z</time>
      </trkpt>
      <trkpt lat="45.16593" lon="5.9678">
        <ele>2437.8</ele>
        <time>2021-02-27T07:34:30Z</time>
      </trkpt>
      <trkpt lat="45.16593" lon="5.96783">
        <ele>2437.8</ele>
        <time>2021-02-27T07:34:31Z</time>
      </trkpt>
      <trkpt lat="45.16594" lon="5.96787">
        <ele>2439.8</ele>
        <time>2021-02-27T07:34:33Z</time>
      </trkpt>
      <trkpt lat="45.16595" lon="5.9679">
        <ele>2439.8</ele>
        <time>2021-02-27T07:34:35Z</time>
      </trkpt>
      <trkpt lat="45.16596" lon="5.96793">
        <ele>2439.8</ele>
        <time>2021-02-27T07:34:37Z</time>
      </trkpt>
      <trkpt lat="45.16597" lon="5.96797">
        <ele>2439.8</ele>
        <time>2021-02-27T07:34:39Z</time>
      </trkpt>
      <trkpt lat="45.16598" lon="5.968">
        <ele>2439.8</ele>
        <time>2021-02-27T07:34:41Z</time>
      </trkpt>
      <trkpt lat="45.16599" lon="5.96804">
        <ele>2441.4</ele>
        <time>2021-02-27T07:34:43Z</time>
      </trkpt>
      <trkpt lat="45.16601" lon="5.96811">
        <ele>2441.4</ele>
        <time>2021-02-27T07:34:45Z</time>
      </trkpt>
      <trkpt lat="45.16601" lon="5.96815">
        <ele>2441.4</ele>
        <time>2021-02-27T07:34:47Z</time>
      </trkpt>
      <trkpt lat="45.16602" lon="5.96818">
        <ele>2441.4</ele>
        <time>2021-02-27T07:34:49Z</time>
      </trkpt>
      <trkpt lat="45.16602" lon="5.96821">
        <ele>2441.4</ele>
        <time>2021-02-27T07:34:51Z</time>
      </trkpt>
      <trkpt lat="45.16603" lon="5.96824">
        <ele>2443.8</ele>
        <time>2021-02-27T07:34:53Z</time>
      </trkpt>
      <trkpt lat="45.16604" lon="5.96827">
        <ele>2443.8</ele>
        <time>2021-02-27T07:34:55Z</time>
      </trkpt>
      <trkpt lat="45.16604" lon="5.96831">
        <ele>2443.8</ele>
        <time>2021-02-27T07:34:57Z</time>
      </trkpt>
      <trkpt lat="45.16605" lon="5.96835">
        <ele>2443.8</ele>
        <time>2021-02-27T07:34:59Z</time>
      </trkpt>
      <trkpt lat="45.16606" lon="5.96838">
        <ele>2443.8</ele>
        <time>2021-02-27T07:35:01Z</time>
      </trkpt>
      <trkpt lat="45.16606" lon="5.96842">
        <ele>2445.2</ele>
        <time>2021-02-27T07:35:03Z</time>
      </trkpt>
      <trkpt lat="45.16607" lon="5.96846">
        <ele>2445.2</ele>
        <time>2021-02-27T07:35:05Z</time>
      </trkpt>
      <trkpt lat="45.16608" lon="5.9685">
        <ele>2445.2</ele>
        <time>2021-02-27T07:35:07Z</time>
      </trkpt>
      <trkpt lat="45.16608" lon="5.96853">
        <ele>2445.2</ele>
        <time>2021-02-27T07:35:09Z</time>
      </trkpt>
      <trkpt lat="45.16609" lon="5.96857">
        <ele>2445.2</ele>
        <time>2021-02-27T07:35:11Z</time>
      </trkpt>
      <trkpt lat="45.1661" lon="5.96862">
        <ele>2446.2</ele>
        <time>2021-02-27T07:35:13Z</time>
      </trkpt>
      <trkpt lat="45.16611" lon="5.96868">
        <ele>2446.2</ele>
        <time>2021-02-27T07:35:15Z</time>
      </trkpt>
      <trkpt lat="45.16611" lon="5.9687">
        <ele>2446.2</ele>
        <time>2021-02-27T07:35:17Z</time>
      </trkpt>
      <trkpt lat="45.16612" lon="5.96873">
        <ele>2446.2</ele>
        <time>2021-02-27T07:35:19Z</time>
      </trkpt>
      <trkpt lat="45.16612" lon="5.96876">
        <ele>2446.2</ele>
        <time>2021-02-27T07:35:20Z</time>
      </trkpt>
      <trkpt lat="45.16612" lon="5.96878">
        <ele>2446.2</ele>
        <time>2021-02-27T07:35:22Z</time>
      </trkpt>
      <trkpt lat="45.16613" lon="5.96881">
        <ele>2447.4</ele>
        <time>2021-02-27T07:35:23Z</time>
      </trkpt>
      <trkpt lat="45.16613" lon="5.96885">
        <ele>2447.4</ele>
        <time>2021-02-27T07:35:24Z</time>
      </trkpt>
      <trkpt lat="45.16613" lon="5.96888">
        <ele>2447.4</ele>
        <time>2021-02-27T07:35:26Z</time>
      </trkpt>
      <trkpt lat="45.16614" lon="5.9689">
        <ele>2447.4</ele>
        <time>2021-02-27T07:35:28Z</time>
      </trkpt>
      <trkpt lat="45.16614" lon="5.96893">
        <ele>2447.4</ele>
        <time>2021-02-27T07:35:30Z</time>
      </trkpt>
      <trkpt lat="45.16614" lon="5.96895">
        <ele>2447.4</ele>
        <time>2021-02-27T07:35:32Z</time>
      </trkpt>
      <trkpt lat="45.16614" lon="5.96898">
        <ele>2449.2</ele>
        <time>2021-02-27T07:35:33Z</time>
      </trkpt>
      <trkpt lat="45.16616" lon="5.96902">
        <ele>2449.2</ele>
        <time>2021-02-27T07:35:34Z</time>
      </trkpt>
      <trkpt lat="45.16616" lon="5.96904">
        <ele>2449.2</ele>
        <time>2021-02-27T07:35:36Z</time>
      </trkpt>
      <trkpt lat="45.16617" lon="5.96906">
        <ele>2449.2</ele>
        <time>2021-02-27T07:35:38Z</time>
      </trkpt>
      <trkpt lat="45.16617" lon="5.96908">
        <ele>2449.2</ele>
        <time>2021-02-27T07:35:40Z</time>
      </trkpt>
      <trkpt lat="45.16618" lon="5.96911">
        <ele>2449.2</ele>
        <time>2021-02-27T07:35:42Z</time>
      </trkpt>
      <trkpt lat="45.16618" lon="5.96913">
        <ele>2452</ele>
        <time>2021-02-27T07:35:43Z</time>
      </trkpt>
      <trkpt lat="45.16618" lon="5.96914">
        <ele>2452</ele>
        <time>2021-02-27T07:35:44Z</time>
      </trkpt>
      <trkpt lat="45.1662" lon="5.96917">
        <ele>2452</ele>
        <time>2021-02-27T07:35:46Z</time>
      </trkpt>
      <trkpt lat="45.16621" lon="5.9692">
        <ele>2452</ele>
        <time>2021-02-27T07:35:48Z</time>
      </trkpt>
      <trkpt lat="45.16621" lon="5.96924">
        <ele>2452</ele>
        <time>2021-02-27T07:35:51Z</time>
      </trkpt>
      <trkpt lat="45.16621" lon="5.96924">
        <ele>2455.6</ele>
        <time>2021-02-27T07:35:53Z</time>
      </trkpt>
      <trkpt lat="45.16622" lon="5.96928">
        <ele>2455.6</ele>
        <time>2021-02-27T07:35:54Z</time>
      </trkpt>
      <trkpt lat="45.16623" lon="5.9693">
        <ele>2455.6</ele>
        <time>2021-02-27T07:35:56Z</time>
      </trkpt>
      <trkpt lat="45.16624" lon="5.96934">
        <ele>2455.6</ele>
        <time>2021-02-27T07:35:58Z</time>
      </trkpt>
      <trkpt lat="45.16625" lon="5.96937">
        <ele>2455.6</ele>
        <time>2021-02-27T07:36:01Z</time>
      </trkpt>
      <trkpt lat="45.16626" lon="5.96941">
        <ele>2458.6</ele>
        <time>2021-02-27T07:36:03Z</time>
      </trkpt>
      <trkpt lat="45.16628" lon="5.96946">
        <ele>2458.6</ele>
        <time>2021-02-27T07:36:06Z</time>
      </trkpt>
      <trkpt lat="45.16628" lon="5.96948">
        <ele>2458.6</ele>
        <time>2021-02-27T07:36:08Z</time>
      </trkpt>
      <trkpt lat="45.16628" lon="5.9695">
        <ele>2458.6</ele>
        <time>2021-02-27T07:36:10Z</time>
      </trkpt>
      <trkpt lat="45.16629" lon="5.96953">
        <ele>2458.6</ele>
        <time>2021-02-27T07:36:12Z</time>
      </trkpt>
      <trkpt lat="45.16629" lon="5.96955">
        <ele>2460.6</ele>
        <time>2021-02-27T07:36:13Z</time>
      </trkpt>
      <trkpt lat="45.16629" lon="5.96959">
        <ele>2460.6</ele>
        <time>2021-02-27T07:36:14Z</time>
      </trkpt>
      <trkpt lat="45.16629" lon="5.96961">
        <ele>2460.6</ele>
        <time>2021-02-27T07:36:16Z</time>
      </trkpt>
      <trkpt lat="45.16629" lon="5.96964">
        <ele>2460.6</ele>
        <time>2021-02-27T07:36:18Z</time>
      </trkpt>
      <trkpt lat="45.16629" lon="5.96966">
        <ele>2460.6</ele>
        <time>2021-02-27T07:36:20Z</time>
      </trkpt>
      <trkpt lat="45.1663" lon="5.96969">
        <ele>2460.6</ele>
        <time>2021-02-27T07:36:22Z</time>
      </trkpt>
      <trkpt lat="45.1663" lon="5.96971">
        <ele>2463.4</ele>
        <time>2021-02-27T07:36:23Z</time>
      </trkpt>
      <trkpt lat="45.1663" lon="5.96975">
        <ele>2463.4</ele>
        <time>2021-02-27T07:36:24Z</time>
      </trkpt>
      <trkpt lat="45.1663" lon="5.96978">
        <ele>2463.4</ele>
        <time>2021-02-27T07:36:26Z</time>
      </trkpt>
      <trkpt lat="45.1663" lon="5.96981">
        <ele>2463.4</ele>
        <time>2021-02-27T07:36:28Z</time>
      </trkpt>
      <trkpt lat="45.1663" lon="5.96983">
        <ele>2463.4</ele>
        <time>2021-02-27T07:36:30Z</time>
      </trkpt>
      <trkpt lat="45.1663" lon="5.96986">
        <ele>2463.4</ele>
        <time>2021-02-27T07:36:32Z</time>
      </trkpt>
      <trkpt lat="45.1663" lon="5.96989">
        <ele>2465</ele>
        <time>2021-02-27T07:36:33Z</time>
      </trkpt>
      <trkpt lat="45.1663" lon="5.96993">
        <ele>2465</ele>
        <time>2021-02-27T07:36:34Z</time>
      </trkpt>
      <trkpt lat="45.1663" lon="5.96995">
        <ele>2465</ele>
        <time>2021-02-27T07:36:36Z</time>
      </trkpt>
      <trkpt lat="45.1663" lon="5.96998">
        <ele>2465</ele>
        <time>2021-02-27T07:36:38Z</time>
      </trkpt>
      <trkpt lat="45.1663" lon="5.97">
        <ele>2465</ele>
        <time>2021-02-27T07:36:40Z</time>
      </trkpt>
      <trkpt lat="45.1663" lon="5.97002">
        <ele>2465</ele>
        <time>2021-02-27T07:36:42Z</time>
      </trkpt>
      <trkpt lat="45.1663" lon="5.97004">
        <ele>2466.6</ele>
        <time>2021-02-27T07:36:43Z</time>
      </trkpt>
      <trkpt lat="45.16631" lon="5.97008">
        <ele>2466.6</ele>
        <time>2021-02-27T07:36:44Z</time>
      </trkpt>
      <trkpt lat="45.16631" lon="5.97011">
        <ele>2466.6</ele>
        <time>2021-02-27T07:36:46Z</time>
      </trkpt>
      <trkpt lat="45.16631" lon="5.97014">
        <ele>2466.6</ele>
        <time>2021-02-27T07:36:48Z</time>
      </trkpt>
      <trkpt lat="45.16631" lon="5.97016">
        <ele>2466.6</ele>
        <time>2021-02-27T07:36:50Z</time>
      </trkpt>
      <trkpt lat="45.16631" lon="5.97019">
        <ele>2466.6</ele>
        <time>2021-02-27T07:36:52Z</time>
      </trkpt>
      <trkpt lat="45.16632" lon="5.97022">
        <ele>2468.4</ele>
        <time>2021-02-27T07:36:53Z</time>
      </trkpt>
      <trkpt lat="45.16632" lon="5.97026">
        <ele>2468.4</ele>
        <time>2021-02-27T07:36:54Z</time>
      </trkpt>
      <trkpt lat="45.16632" lon="5.97029">
        <ele>2468.4</ele>
        <time>2021-02-27T07:36:56Z</time>
      </trkpt>
      <trkpt lat="45.16633" lon="5.97031">
        <ele>2468.4</ele>
        <time>2021-02-27T07:36:58Z</time>
      </trkpt>
      <trkpt lat="45.16633" lon="5.97034">
        <ele>2468.4</ele>
        <time>2021-02-27T07:37:00Z</time>
      </trkpt>
      <trkpt lat="45.16634" lon="5.97036">
        <ele>2468.4</ele>
        <time>2021-02-27T07:37:02Z</time>
      </trkpt>
      <trkpt lat="45.16634" lon="5.97039">
        <ele>2471.4</ele>
        <time>2021-02-27T07:37:03Z</time>
      </trkpt>
      <trkpt lat="45.16634" lon="5.9704">
        <ele>2471.4</ele>
        <time>2021-02-27T07:37:04Z</time>
      </trkpt>
      <trkpt lat="45.16634" lon="5.97044">
        <ele>2471.4</ele>
        <time>2021-02-27T07:37:06Z</time>
      </trkpt>
      <trkpt lat="45.16635" lon="5.97048">
        <ele>2471.4</ele>
        <time>2021-02-27T07:37:08Z</time>
      </trkpt>
      <trkpt lat="45.16636" lon="5.97051">
        <ele>2471.4</ele>
        <time>2021-02-27T07:37:11Z</time>
      </trkpt>
      <trkpt lat="45.16636" lon="5.97055">
        <ele>2473.2</ele>
        <time>2021-02-27T07:37:13Z</time>
      </trkpt>
      <trkpt lat="45.16637" lon="5.97057">
        <ele>2473.2</ele>
        <time>2021-02-27T07:37:15Z</time>
      </trkpt>
      <trkpt lat="45.16639" lon="5.9706">
        <ele>2473.2</ele>
        <time>2021-02-27T07:37:17Z</time>
      </trkpt>
      <trkpt lat="45.16642" lon="5.97063">
        <ele>2473.2</ele>
        <time>2021-02-27T07:37:19Z</time>
      </trkpt>
      <trkpt lat="45.16644" lon="5.97065">
        <ele>2473.2</ele>
        <time>2021-02-27T07:37:21Z</time>
      </trkpt>
      <trkpt lat="45.16645" lon="5.97068">
        <ele>2475.2</ele>
        <time>2021-02-27T07:37:23Z</time>
      </trkpt>
      <trkpt lat="45.16649" lon="5.97073">
        <ele>2475.2</ele>
        <time>2021-02-27T07:37:25Z</time>
      </trkpt>
      <trkpt lat="45.1665" lon="5.97075">
        <ele>2475.2</ele>
        <time>2021-02-27T07:37:27Z</time>
      </trkpt>
      <trkpt lat="45.16652" lon="5.97077">
        <ele>2475.2</ele>
        <time>2021-02-27T07:37:28Z</time>
      </trkpt>
      <trkpt lat="45.16653" lon="5.97079">
        <ele>2475.2</ele>
        <time>2021-02-27T07:37:29Z</time>
      </trkpt>
      <trkpt lat="45.16654" lon="5.97081">
        <ele>2475.2</ele>
        <time>2021-02-27T07:37:31Z</time>
      </trkpt>
      <trkpt lat="45.16656" lon="5.97083">
        <ele>2475.6</ele>
        <time>2021-02-27T07:37:33Z</time>
      </trkpt>
      <trkpt lat="45.1666" lon="5.97088">
        <ele>2475.6</ele>
        <time>2021-02-27T07:37:35Z</time>
      </trkpt>
      <trkpt lat="45.16662" lon="5.9709">
        <ele>2475.6</ele>
        <time>2021-02-27T07:37:36Z</time>
      </trkpt>
      <trkpt lat="45.16663" lon="5.97091">
        <ele>2475.6</ele>
        <time>2021-02-27T07:37:37Z</time>
      </trkpt>
      <trkpt lat="45.16665" lon="5.97093">
        <ele>2475.6</ele>
        <time>2021-02-27T07:37:38Z</time>
      </trkpt>
      <trkpt lat="45.16666" lon="5.97095">
        <ele>2475.6</ele>
        <time>2021-02-27T07:37:39Z</time>
      </trkpt>
      <trkpt lat="45.16668" lon="5.97097">
        <ele>2475.6</ele>
        <time>2021-02-27T07:37:40Z</time>
      </trkpt>
      <trkpt lat="45.16669" lon="5.97098">
        <ele>2475.6</ele>
        <time>2021-02-27T07:37:41Z</time>
      </trkpt>
      <trkpt lat="45.1667" lon="5.971">
        <ele>2475.6</ele>
        <time>2021-02-27T07:37:42Z</time>
      </trkpt>
      <trkpt lat="45.16672" lon="5.97102">
        <ele>2474.4</ele>
        <time>2021-02-27T07:37:43Z</time>
      </trkpt>
      <trkpt lat="45.16674" lon="5.97104">
        <ele>2474.4</ele>
        <time>2021-02-27T07:37:44Z</time>
      </trkpt>
      <trkpt lat="45.16675" lon="5.97105">
        <ele>2474.4</ele>
        <time>2021-02-27T07:37:45Z</time>
      </trkpt>
      <trkpt lat="45.16677" lon="5.97108">
        <ele>2474.4</ele>
        <time>2021-02-27T07:37:47Z</time>
      </trkpt>
      <trkpt lat="45.16678" lon="5.97111">
        <ele>2474.4</ele>
        <time>2021-02-27T07:37:49Z</time>
      </trkpt>
      <trkpt lat="45.1668" lon="5.97114">
        <ele>2474.4</ele>
        <time>2021-02-27T07:37:51Z</time>
      </trkpt>
      <trkpt lat="45.16681" lon="5.97117">
        <ele>2476</ele>
        <time>2021-02-27T07:37:53Z</time>
      </trkpt>
      <trkpt lat="45.16682" lon="5.9712">
        <ele>2476</ele>
        <time>2021-02-27T07:37:55Z</time>
      </trkpt>
      <trkpt lat="45.16682" lon="5.97123">
        <ele>2476</ele>
        <time>2021-02-27T07:37:57Z</time>
      </trkpt>
      <trkpt lat="45.16682" lon="5.97126">
        <ele>2476</ele>
        <time>2021-02-27T07:37:59Z</time>
      </trkpt>
      <trkpt lat="45.16683" lon="5.97129">
        <ele>2476</ele>
        <time>2021-02-27T07:38:01Z</time>
      </trkpt>
      <trkpt lat="45.16683" lon="5.97132">
        <ele>2478.2</ele>
        <time>2021-02-27T07:38:03Z</time>
      </trkpt>
      <trkpt lat="45.16684" lon="5.97135">
        <ele>2478.2</ele>
        <time>2021-02-27T07:38:05Z</time>
      </trkpt>
      <trkpt lat="45.16684" lon="5.97138">
        <ele>2478.2</ele>
        <time>2021-02-27T07:38:07Z</time>
      </trkpt>
      <trkpt lat="45.16685" lon="5.97141">
        <ele>2478.2</ele>
        <time>2021-02-27T07:38:09Z</time>
      </trkpt>
      <trkpt lat="45.16685" lon="5.97144">
        <ele>2478.2</ele>
        <time>2021-02-27T07:38:11Z</time>
      </trkpt>
      <trkpt lat="45.16685" lon="5.97147">
        <ele>2481.4</ele>
        <time>2021-02-27T07:38:13Z</time>
      </trkpt>
      <trkpt lat="45.16686" lon="5.97151">
        <ele>2481.4</ele>
        <time>2021-02-27T07:38:15Z</time>
      </trkpt>
      <trkpt lat="45.16686" lon="5.97154">
        <ele>2481.4</ele>
        <time>2021-02-27T07:38:17Z</time>
      </trkpt>
      <trkpt lat="45.16687" lon="5.97157">
        <ele>2481.4</ele>
        <time>2021-02-27T07:38:19Z</time>
      </trkpt>
      <trkpt lat="45.16687" lon="5.9716">
        <ele>2481.4</ele>
        <time>2021-02-27T07:38:21Z</time>
      </trkpt>
      <trkpt lat="45.16687" lon="5.97163">
        <ele>2483.8</ele>
        <time>2021-02-27T07:38:23Z</time>
      </trkpt>
      <trkpt lat="45.16688" lon="5.97166">
        <ele>2483.8</ele>
        <time>2021-02-27T07:38:25Z</time>
      </trkpt>
      <trkpt lat="45.16689" lon="5.97169">
        <ele>2483.8</ele>
        <time>2021-02-27T07:38:27Z</time>
      </trkpt>
      <trkpt lat="45.1669" lon="5.97172">
        <ele>2483.8</ele>
        <time>2021-02-27T07:38:29Z</time>
      </trkpt>
      <trkpt lat="45.16691" lon="5.97175">
        <ele>2483.8</ele>
        <time>2021-02-27T07:38:31Z</time>
      </trkpt>
      <trkpt lat="45.16692" lon="5.97178">
        <ele>2485.8</ele>
        <time>2021-02-27T07:38:33Z</time>
      </trkpt>
      <trkpt lat="45.16692" lon="5.97181">
        <ele>2485.8</ele>
        <time>2021-02-27T07:38:35Z</time>
      </trkpt>
      <trkpt lat="45.16693" lon="5.97185">
        <ele>2485.8</ele>
        <time>2021-02-27T07:38:37Z</time>
      </trkpt>
      <trkpt lat="45.16694" lon="5.97187">
        <ele>2485.8</ele>
        <time>2021-02-27T07:38:39Z</time>
      </trkpt>
      <trkpt lat="45.16694" lon="5.97191">
        <ele>2485.8</ele>
        <time>2021-02-27T07:38:41Z</time>
      </trkpt>
      <trkpt lat="45.16695" lon="5.97194">
        <ele>2488</ele>
        <time>2021-02-27T07:38:43Z</time>
      </trkpt>
      <trkpt lat="45.16697" lon="5.97198">
        <ele>2488</ele>
        <time>2021-02-27T07:38:44Z</time>
      </trkpt>
      <trkpt lat="45.16697" lon="5.97201">
        <ele>2488</ele>
        <time>2021-02-27T07:38:46Z</time>
      </trkpt>
      <trkpt lat="45.16698" lon="5.97203">
        <ele>2488</ele>
        <time>2021-02-27T07:38:48Z</time>
      </trkpt>
      <trkpt lat="45.16698" lon="5.97205">
        <ele>2488</ele>
        <time>2021-02-27T07:38:50Z</time>
      </trkpt>
      <trkpt lat="45.16698" lon="5.97208">
        <ele>2488</ele>
        <time>2021-02-27T07:38:52Z</time>
      </trkpt>
      <trkpt lat="45.16699" lon="5.9721">
        <ele>2490.4</ele>
        <time>2021-02-27T07:38:53Z</time>
      </trkpt>
      <trkpt lat="45.16699" lon="5.97214">
        <ele>2490.4</ele>
        <time>2021-02-27T07:38:54Z</time>
      </trkpt>
      <trkpt lat="45.16699" lon="5.97217">
        <ele>2490.4</ele>
        <time>2021-02-27T07:38:56Z</time>
      </trkpt>
      <trkpt lat="45.167" lon="5.97219">
        <ele>2490.4</ele>
        <time>2021-02-27T07:38:58Z</time>
      </trkpt>
      <trkpt lat="45.167" lon="5.97221">
        <ele>2490.4</ele>
        <time>2021-02-27T07:39:00Z</time>
      </trkpt>
      <trkpt lat="45.167" lon="5.97223">
        <ele>2490.4</ele>
        <time>2021-02-27T07:39:02Z</time>
      </trkpt>
      <trkpt lat="45.16701" lon="5.97226">
        <ele>2492.4</ele>
        <time>2021-02-27T07:39:03Z</time>
      </trkpt>
      <trkpt lat="45.16701" lon="5.9723">
        <ele>2492.4</ele>
        <time>2021-02-27T07:39:04Z</time>
      </trkpt>
      <trkpt lat="45.16701" lon="5.97232">
        <ele>2492.4</ele>
        <time>2021-02-27T07:39:06Z</time>
      </trkpt>
      <trkpt lat="45.16701" lon="5.97234">
        <ele>2492.4</ele>
        <time>2021-02-27T07:39:08Z</time>
      </trkpt>
      <trkpt lat="45.16701" lon="5.97237">
        <ele>2492.4</ele>
        <time>2021-02-27T07:39:10Z</time>
      </trkpt>
      <trkpt lat="45.16701" lon="5.97239">
        <ele>2492.4</ele>
        <time>2021-02-27T07:39:12Z</time>
      </trkpt>
      <trkpt lat="45.16701" lon="5.97241">
        <ele>2494.6</ele>
        <time>2021-02-27T07:39:13Z</time>
      </trkpt>
      <trkpt lat="45.16701" lon="5.97245">
        <ele>2494.6</ele>
        <time>2021-02-27T07:39:14Z</time>
      </trkpt>
      <trkpt lat="45.16701" lon="5.97248">
        <ele>2494.6</ele>
        <time>2021-02-27T07:39:16Z</time>
      </trkpt>
      <trkpt lat="45.16701" lon="5.9725">
        <ele>2494.6</ele>
        <time>2021-02-27T07:39:18Z</time>
      </trkpt>
      <trkpt lat="45.16701" lon="5.97253">
        <ele>2494.6</ele>
        <time>2021-02-27T07:39:20Z</time>
      </trkpt>
      <trkpt lat="45.16702" lon="5.97255">
        <ele>2494.6</ele>
        <time>2021-02-27T07:39:22Z</time>
      </trkpt>
      <trkpt lat="45.16702" lon="5.97258">
        <ele>2497.4</ele>
        <time>2021-02-27T07:39:23Z</time>
      </trkpt>
      <trkpt lat="45.16702" lon="5.97262">
        <ele>2497.4</ele>
        <time>2021-02-27T07:39:24Z</time>
      </trkpt>
      <trkpt lat="45.16703" lon="5.97264">
        <ele>2497.4</ele>
        <time>2021-02-27T07:39:26Z</time>
      </trkpt>
      <trkpt lat="45.16704" lon="5.97266">
        <ele>2497.4</ele>
        <time>2021-02-27T07:39:28Z</time>
      </trkpt>
      <trkpt lat="45.16705" lon="5.97269">
        <ele>2497.4</ele>
        <time>2021-02-27T07:39:30Z</time>
      </trkpt>
      <trkpt lat="45.16705" lon="5.97271">
        <ele>2497.4</ele>
        <time>2021-02-27T07:39:32Z</time>
      </trkpt>
      <trkpt lat="45.16706" lon="5.97273">
        <ele>2498.6</ele>
        <time>2021-02-27T07:39:33Z</time>
      </trkpt>
      <trkpt lat="45.16708" lon="5.97277">
        <ele>2498.6</ele>
        <time>2021-02-27T07:39:34Z</time>
      </trkpt>
      <trkpt lat="45.16709" lon="5.97279">
        <ele>2498.6</ele>
        <time>2021-02-27T07:39:36Z</time>
      </trkpt>
      <trkpt lat="45.1671" lon="5.97282">
        <ele>2498.6</ele>
        <time>2021-02-27T07:39:38Z</time>
      </trkpt>
      <trkpt lat="45.16711" lon="5.97284">
        <ele>2498.6</ele>
        <time>2021-02-27T07:39:40Z</time>
      </trkpt>
      <trkpt lat="45.16712" lon="5.97286">
        <ele>2498.6</ele>
        <time>2021-02-27T07:39:42Z</time>
      </trkpt>
      <trkpt lat="45.16713" lon="5.97289">
        <ele>2499.6</ele>
        <time>2021-02-27T07:39:43Z</time>
      </trkpt>
      <trkpt lat="45.16714" lon="5.9729">
        <ele>2499.6</ele>
        <time>2021-02-27T07:39:44Z</time>
      </trkpt>
      <trkpt lat="45.16715" lon="5.97293">
        <ele>2499.6</ele>
        <time>2021-02-27T07:39:47Z</time>
      </trkpt>
      <trkpt lat="45.16716" lon="5.97295">
        <ele>2499.6</ele>
        <time>2021-02-27T07:39:49Z</time>
      </trkpt>
      <trkpt lat="45.16717" lon="5.97297">
        <ele>2499.6</ele>
        <time>2021-02-27T07:39:51Z</time>
      </trkpt>
      <trkpt lat="45.16718" lon="5.973">
        <ele>2501.6</ele>
        <time>2021-02-27T07:39:53Z</time>
      </trkpt>
      <trkpt lat="45.16719" lon="5.97303">
        <ele>2501.6</ele>
        <time>2021-02-27T07:39:56Z</time>
      </trkpt>
      <trkpt lat="45.1672" lon="5.97306">
        <ele>2501.6</ele>
        <time>2021-02-27T07:39:58Z</time>
      </trkpt>
      <trkpt lat="45.16721" lon="5.9731">
        <ele>2501.6</ele>
        <time>2021-02-27T07:40:01Z</time>
      </trkpt>
      <trkpt lat="45.16721" lon="5.9731">
        <ele>2504.2</ele>
        <time>2021-02-27T07:40:03Z</time>
      </trkpt>
      <trkpt lat="45.16723" lon="5.97315">
        <ele>2504.2</ele>
        <time>2021-02-27T07:40:04Z</time>
      </trkpt>
      <trkpt lat="45.16723" lon="5.97318">
        <ele>2504.2</ele>
        <time>2021-02-27T07:40:06Z</time>
      </trkpt>
      <trkpt lat="45.16723" lon="5.9732">
        <ele>2504.2</ele>
        <time>2021-02-27T07:40:08Z</time>
      </trkpt>
      <trkpt lat="45.16724" lon="5.97322">
        <ele>2504.2</ele>
        <time>2021-02-27T07:40:10Z</time>
      </trkpt>
      <trkpt lat="45.16724" lon="5.97324">
        <ele>2504.2</ele>
        <time>2021-02-27T07:40:12Z</time>
      </trkpt>
      <trkpt lat="45.16725" lon="5.97326">
        <ele>2506.8</ele>
        <time>2021-02-27T07:40:13Z</time>
      </trkpt>
      <trkpt lat="45.16725" lon="5.97327">
        <ele>2506.8</ele>
        <time>2021-02-27T07:40:14Z</time>
      </trkpt>
      <trkpt lat="45.16725" lon="5.9733">
        <ele>2506.8</ele>
        <time>2021-02-27T07:40:16Z</time>
      </trkpt>
      <trkpt lat="45.16726" lon="5.97333">
        <ele>2506.8</ele>
        <time>2021-02-27T07:40:18Z</time>
      </trkpt>
      <trkpt lat="45.16727" lon="5.97337">
        <ele>2506.8</ele>
        <time>2021-02-27T07:40:21Z</time>
      </trkpt>
      <trkpt lat="45.16727" lon="5.97339">
        <ele>2509.6</ele>
        <time>2021-02-27T07:40:23Z</time>
      </trkpt>
      <trkpt lat="45.16727" lon="5.97344">
        <ele>2509.6</ele>
        <time>2021-02-27T07:40:26Z</time>
      </trkpt>
      <trkpt lat="45.16728" lon="5.97347">
        <ele>2509.6</ele>
        <time>2021-02-27T07:40:29Z</time>
      </trkpt>
      <trkpt lat="45.16728" lon="5.9735">
        <ele>2509.6</ele>
        <time>2021-02-27T07:40:31Z</time>
      </trkpt>
      <trkpt lat="45.16728" lon="5.9735">
        <ele>2512.2</ele>
        <time>2021-02-27T07:40:33Z</time>
      </trkpt>
      <trkpt lat="45.16729" lon="5.97353">
        <ele>2512.2</ele>
        <time>2021-02-27T07:40:34Z</time>
      </trkpt>
      <trkpt lat="45.1673" lon="5.97356">
        <ele>2512.2</ele>
        <time>2021-02-27T07:40:37Z</time>
      </trkpt>
      <trkpt lat="45.16732" lon="5.97359">
        <ele>2512.2</ele>
        <time>2021-02-27T07:40:40Z</time>
      </trkpt>
      <trkpt lat="45.16733" lon="5.9736">
        <ele>2514.6</ele>
        <time>2021-02-27T07:40:43Z</time>
      </trkpt>
      <trkpt lat="45.16735" lon="5.97361">
        <ele>2514.6</ele>
        <time>2021-02-27T07:40:45Z</time>
      </trkpt>
      <trkpt lat="45.16737" lon="5.97362">
        <ele>2514.6</ele>
        <time>2021-02-27T07:40:47Z</time>
      </trkpt>
      <trkpt lat="45.16739" lon="5.97364">
        <ele>2514.6</ele>
        <time>2021-02-27T07:40:50Z</time>
      </trkpt>
      <trkpt lat="45.16741" lon="5.97365">
        <ele>2517.4</ele>
        <time>2021-02-27T07:40:53Z</time>
      </trkpt>
      <trkpt lat="45.16744" lon="5.97366">
        <ele>2517.4</ele>
        <time>2021-02-27T07:40:56Z</time>
      </trkpt>
      <trkpt lat="45.16747" lon="5.97367">
        <ele>2517.4</ele>
        <time>2021-02-27T07:40:59Z</time>
      </trkpt>
      <trkpt lat="45.16749" lon="5.97368">
        <ele>2517.4</ele>
        <time>2021-02-27T07:41:01Z</time>
      </trkpt>
      <trkpt lat="45.1675" lon="5.97369">
        <ele>2520.4</ele>
        <time>2021-02-27T07:41:03Z</time>
      </trkpt>
      <trkpt lat="45.16753" lon="5.97372">
        <ele>2520.4</ele>
        <time>2021-02-27T07:41:06Z</time>
      </trkpt>
      <trkpt lat="45.16754" lon="5.97373">
        <ele>2520.4</ele>
        <time>2021-02-27T07:41:08Z</time>
      </trkpt>
      <trkpt lat="45.16755" lon="5.97374">
        <ele>2520.4</ele>
        <time>2021-02-27T07:41:10Z</time>
      </trkpt>
      <trkpt lat="45.16756" lon="5.97375">
        <ele>2520.4</ele>
        <time>2021-02-27T07:41:12Z</time>
      </trkpt>
      <trkpt lat="45.16757" lon="5.97376">
        <ele>2523.6</ele>
        <time>2021-02-27T07:41:13Z</time>
      </trkpt>
      <trkpt lat="45.16758" lon="5.97379">
        <ele>2523.6</ele>
        <time>2021-02-27T07:41:15Z</time>
      </trkpt>
      <trkpt lat="45.16759" lon="5.97381">
        <ele>2523.6</ele>
        <time>2021-02-27T07:41:18Z</time>
      </trkpt>
      <trkpt lat="45.1676" lon="5.97384">
        <ele>2523.6</ele>
        <time>2021-02-27T07:41:20Z</time>
      </trkpt>
      <trkpt lat="45.16761" lon="5.97388">
        <ele>2526.2</ele>
        <time>2021-02-27T07:41:23Z</time>
      </trkpt>
      <trkpt lat="45.16761" lon="5.97391">
        <ele>2526.2</ele>
        <time>2021-02-27T07:41:25Z</time>
      </trkpt>
      <trkpt lat="45.16763" lon="5.97393">
        <ele>2526.2</ele>
        <time>2021-02-27T07:41:27Z</time>
      </trkpt>
      <trkpt lat="45.16764" lon="5.97396">
        <ele>2526.2</ele>
        <time>2021-02-27T07:41:29Z</time>
      </trkpt>
      <trkpt lat="45.16765" lon="5.97398">
        <ele>2526.2</ele>
        <time>2021-02-27T07:41:31Z</time>
      </trkpt>
      <trkpt lat="45.16765" lon="5.97398">
        <ele>2529.2</ele>
        <time>2021-02-27T07:41:33Z</time>
      </trkpt>
      <trkpt lat="45.16766" lon="5.97401">
        <ele>2529.2</ele>
        <time>2021-02-27T07:41:34Z</time>
      </trkpt>
      <trkpt lat="45.16767" lon="5.97404">
        <ele>2529.2</ele>
        <time>2021-02-27T07:41:36Z</time>
      </trkpt>
      <trkpt lat="45.16769" lon="5.97406">
        <ele>2529.2</ele>
        <time>2021-02-27T07:41:38Z</time>
      </trkpt>
      <trkpt lat="45.1677" lon="5.97408">
        <ele>2529.2</ele>
        <time>2021-02-27T07:41:40Z</time>
      </trkpt>
      <trkpt lat="45.16772" lon="5.9741">
        <ele>2531</ele>
        <time>2021-02-27T07:41:43Z</time>
      </trkpt>
      <trkpt lat="45.16773" lon="5.97415">
        <ele>2531</ele>
        <time>2021-02-27T07:41:47Z</time>
      </trkpt>
      <trkpt lat="45.16773" lon="5.97417">
        <ele>2531</ele>
        <time>2021-02-27T07:41:49Z</time>
      </trkpt>
      <trkpt lat="45.16773" lon="5.97418">
        <ele>2531</ele>
        <time>2021-02-27T07:41:52Z</time>
      </trkpt>
      <trkpt lat="45.16773" lon="5.9742">
        <ele>2533.8</ele>
        <time>2021-02-27T07:41:53Z</time>
      </trkpt>
      <trkpt lat="45.16774" lon="5.97423">
        <ele>2533.8</ele>
        <time>2021-02-27T07:41:55Z</time>
      </trkpt>
      <trkpt lat="45.16776" lon="5.97425">
        <ele>2533.8</ele>
        <time>2021-02-27T07:41:58Z</time>
      </trkpt>
      <trkpt lat="45.16778" lon="5.97427">
        <ele>2533.8</ele>
        <time>2021-02-27T07:42:01Z</time>
      </trkpt>
      <trkpt lat="45.16781" lon="5.9743">
        <ele>2536.4</ele>
        <time>2021-02-27T07:42:03Z</time>
      </trkpt>
      <trkpt lat="45.16784" lon="5.97433">
        <ele>2536.4</ele>
        <time>2021-02-27T07:42:05Z</time>
      </trkpt>
      <trkpt lat="45.16785" lon="5.97435">
        <ele>2536.4</ele>
        <time>2021-02-27T07:42:09Z</time>
      </trkpt>
      <trkpt lat="45.16786" lon="5.97436">
        <ele>2536.4</ele>
        <time>2021-02-27T07:42:10Z</time>
      </trkpt>
      <trkpt lat="45.16788" lon="5.97438">
        <ele>2536.4</ele>
        <time>2021-02-27T07:42:12Z</time>
      </trkpt>
      <trkpt lat="45.16789" lon="5.9744">
        <ele>2538.4</ele>
        <time>2021-02-27T07:42:13Z</time>
      </trkpt>
      <trkpt lat="45.16791" lon="5.97442">
        <ele>2538.4</ele>
        <time>2021-02-27T07:42:14Z</time>
      </trkpt>
      <trkpt lat="45.16791" lon="5.97444">
        <ele>2538.4</ele>
        <time>2021-02-27T07:42:17Z</time>
      </trkpt>
      <trkpt lat="45.16792" lon="5.97446">
        <ele>2538.4</ele>
        <time>2021-02-27T07:42:19Z</time>
      </trkpt>
      <trkpt lat="45.16792" lon="5.97448">
        <ele>2538.4</ele>
        <time>2021-02-27T07:42:22Z</time>
      </trkpt>
      <trkpt lat="45.16793" lon="5.9745">
        <ele>2540.4</ele>
        <time>2021-02-27T07:42:23Z</time>
      </trkpt>
      <trkpt lat="45.16793" lon="5.97454">
        <ele>2540.4</ele>
        <time>2021-02-27T07:42:25Z</time>
      </trkpt>
      <trkpt lat="45.16793" lon="5.97456">
        <ele>2540.4</ele>
        <time>2021-02-27T07:42:27Z</time>
      </trkpt>
      <trkpt lat="45.16793" lon="5.97458">
        <ele>2540.4</ele>
        <time>2021-02-27T07:42:29Z</time>
      </trkpt>
      <trkpt lat="45.16793" lon="5.9746">
        <ele>2540.4</ele>
        <time>2021-02-27T07:42:32Z</time>
      </trkpt>
      <trkpt lat="45.16794" lon="5.97461">
        <ele>2544.2</ele>
        <time>2021-02-27T07:42:33Z</time>
      </trkpt>
      <trkpt lat="45.16794" lon="5.97465">
        <ele>2544.2</ele>
        <time>2021-02-27T07:42:35Z</time>
      </trkpt>
      <trkpt lat="45.16795" lon="5.97466">
        <ele>2544.2</ele>
        <time>2021-02-27T07:42:40Z</time>
      </trkpt>
      <trkpt lat="45.16795" lon="5.97467">
        <ele>2544.2</ele>
        <time>2021-02-27T07:42:42Z</time>
      </trkpt>
      <trkpt lat="45.16796" lon="5.97468">
        <ele>2546.4</ele>
        <time>2021-02-27T07:42:43Z</time>
      </trkpt>
      <trkpt lat="45.16798" lon="5.97468">
        <ele>2546.4</ele>
        <time>2021-02-27T07:42:44Z</time>
      </trkpt>
      <trkpt lat="45.16801" lon="5.97468">
        <ele>2546.4</ele>
        <time>2021-02-27T07:42:47Z</time>
      </trkpt>
      <trkpt lat="45.16803" lon="5.97469">
        <ele>2546.4</ele>
        <time>2021-02-27T07:42:49Z</time>
      </trkpt>
      <trkpt lat="45.16805" lon="5.97469">
        <ele>2546.4</ele>
        <time>2021-02-27T07:42:51Z</time>
      </trkpt>
      <trkpt lat="45.16805" lon="5.97469">
        <ele>2548.2</ele>
        <time>2021-02-27T07:42:53Z</time>
      </trkpt>
      <trkpt lat="45.16806" lon="5.9747">
        <ele>2548.2</ele>
        <time>2021-02-27T07:42:55Z</time>
      </trkpt>
      <trkpt lat="45.16808" lon="5.97472">
        <ele>2548.2</ele>
        <time>2021-02-27T07:42:58Z</time>
      </trkpt>
      <trkpt lat="45.16811" lon="5.97472">
        <ele>2548.2</ele>
        <time>2021-02-27T07:43:01Z</time>
      </trkpt>
      <trkpt lat="45.16811" lon="5.97472">
        <ele>2550.6</ele>
        <time>2021-02-27T07:43:03Z</time>
      </trkpt>
      <trkpt lat="45.16813" lon="5.97476">
        <ele>2550.6</ele>
        <time>2021-02-27T07:43:05Z</time>
      </trkpt>
      <trkpt lat="45.16813" lon="5.97478">
        <ele>2550.6</ele>
        <time>2021-02-27T07:43:07Z</time>
      </trkpt>
      <trkpt lat="45.16813" lon="5.97479">
        <ele>2550.6</ele>
        <time>2021-02-27T07:43:10Z</time>
      </trkpt>
      <trkpt lat="45.16813" lon="5.97481">
        <ele>2550.6</ele>
        <time>2021-02-27T07:43:12Z</time>
      </trkpt>
      <trkpt lat="45.16813" lon="5.97483">
        <ele>2554.6</ele>
        <time>2021-02-27T07:43:13Z</time>
      </trkpt>
      <trkpt lat="45.16811" lon="5.97488">
        <ele>2554.6</ele>
        <time>2021-02-27T07:43:15Z</time>
      </trkpt>
      <trkpt lat="45.16811" lon="5.97489">
        <ele>2554.6</ele>
        <time>2021-02-27T07:43:17Z</time>
      </trkpt>
      <trkpt lat="45.1681" lon="5.97491">
        <ele>2554.6</ele>
        <time>2021-02-27T07:43:20Z</time>
      </trkpt>
      <trkpt lat="45.16809" lon="5.97492">
        <ele>2554.6</ele>
        <time>2021-02-27T07:43:22Z</time>
      </trkpt>
      <trkpt lat="45.16809" lon="5.97494">
        <ele>2556.8</ele>
        <time>2021-02-27T07:43:23Z</time>
      </trkpt>
      <trkpt lat="45.16807" lon="5.97496">
        <ele>2556.8</ele>
        <time>2021-02-27T07:43:25Z</time>
      </trkpt>
      <trkpt lat="45.16806" lon="5.97498">
        <ele>2556.8</ele>
        <time>2021-02-27T07:43:28Z</time>
      </trkpt>
      <trkpt lat="45.16805" lon="5.97501">
        <ele>2556.8</ele>
        <time>2021-02-27T07:43:31Z</time>
      </trkpt>
      <trkpt lat="45.16803" lon="5.97503">
        <ele>2559.2</ele>
        <time>2021-02-27T07:43:33Z</time>
      </trkpt>
      <trkpt lat="45.16801" lon="5.97505">
        <ele>2559.2</ele>
        <time>2021-02-27T07:43:37Z</time>
      </trkpt>
      <trkpt lat="45.16802" lon="5.97509">
        <ele>2559.2</ele>
        <time>2021-02-27T07:43:39Z</time>
      </trkpt>
      <trkpt lat="45.16802" lon="5.97509">
        <ele>2561.4</ele>
        <time>2021-02-27T07:43:43Z</time>
      </trkpt>
      <trkpt lat="45.16803" lon="5.97512">
        <ele>2561.4</ele>
        <time>2021-02-27T07:43:48Z</time>
      </trkpt>
      <trkpt lat="45.16806" lon="5.97512">
        <ele>2561.4</ele>
        <time>2021-02-27T07:43:51Z</time>
      </trkpt>
      <trkpt lat="45.16807" lon="5.97514">
        <ele>2562.6</ele>
        <time>2021-02-27T07:43:53Z</time>
      </trkpt>
      <trkpt lat="45.16811" lon="5.97516">
        <ele>2562.6</ele>
        <time>2021-02-27T07:43:57Z</time>
      </trkpt>
      <trkpt lat="45.16812" lon="5.97517">
        <ele>2562.6</ele>
        <time>2021-02-27T07:44:00Z</time>
      </trkpt>
      <trkpt lat="45.16813" lon="5.97517">
        <ele>2562.6</ele>
        <time>2021-02-27T07:44:02Z</time>
      </trkpt>
      <trkpt lat="45.16814" lon="5.97518">
        <ele>2565</ele>
        <time>2021-02-27T07:44:03Z</time>
      </trkpt>
      <trkpt lat="45.16816" lon="5.9752">
        <ele>2565</ele>
        <time>2021-02-27T07:44:05Z</time>
      </trkpt>
      <trkpt lat="45.16817" lon="5.97521">
        <ele>2565</ele>
        <time>2021-02-27T07:44:07Z</time>
      </trkpt>
      <trkpt lat="45.16818" lon="5.97522">
        <ele>2565</ele>
        <time>2021-02-27T07:44:09Z</time>
      </trkpt>
      <trkpt lat="45.16819" lon="5.97523">
        <ele>2565</ele>
        <time>2021-02-27T07:44:12Z</time>
      </trkpt>
      <trkpt lat="45.1682" lon="5.97523">
        <ele>2567.8</ele>
        <time>2021-02-27T07:44:13Z</time>
      </trkpt>
      <trkpt lat="45.16824" lon="5.97524">
        <ele>2567.8</ele>
        <time>2021-02-27T07:44:14Z</time>
      </trkpt>
      <trkpt lat="45.16825" lon="5.97525">
        <ele>2567.8</ele>
        <time>2021-02-27T07:44:16Z</time>
      </trkpt>
      <trkpt lat="45.16827" lon="5.97526">
        <ele>2567.8</ele>
        <time>2021-02-27T07:44:18Z</time>
      </trkpt>
      <trkpt lat="45.16828" lon="5.97527">
        <ele>2567.8</ele>
        <time>2021-02-27T07:44:20Z</time>
      </trkpt>
      <trkpt lat="45.1683" lon="5.97528">
        <ele>2567.8</ele>
        <time>2021-02-27T07:44:22Z</time>
      </trkpt>
      <trkpt lat="45.16831" lon="5.97529">
        <ele>2571</ele>
        <time>2021-02-27T07:44:23Z</time>
      </trkpt>
      <trkpt lat="45.16832" lon="5.9753">
        <ele>2571</ele>
        <time>2021-02-27T07:44:24Z</time>
      </trkpt>
      <trkpt lat="45.16834" lon="5.97532">
        <ele>2571</ele>
        <time>2021-02-27T07:44:26Z</time>
      </trkpt>
      <trkpt lat="45.16835" lon="5.97534">
        <ele>2571</ele>
        <time>2021-02-27T07:44:28Z</time>
      </trkpt>
      <trkpt lat="45.16834" lon="5.97538">
        <ele>2571</ele>
        <time>2021-02-27T07:44:31Z</time>
      </trkpt>
      <trkpt lat="45.16834" lon="5.97538">
        <ele>2573.8</ele>
        <time>2021-02-27T07:44:33Z</time>
      </trkpt>
      <trkpt lat="45.16833" lon="5.97541">
        <ele>2573.8</ele>
        <time>2021-02-27T07:44:34Z</time>
      </trkpt>
      <trkpt lat="45.16833" lon="5.97544">
        <ele>2573.8</ele>
        <time>2021-02-27T07:44:37Z</time>
      </trkpt>
      <trkpt lat="45.16832" lon="5.97548">
        <ele>2573.8</ele>
        <time>2021-02-27T07:44:40Z</time>
      </trkpt>
      <trkpt lat="45.1683" lon="5.97551">
        <ele>2576.8</ele>
        <time>2021-02-27T07:44:43Z</time>
      </trkpt>
      <trkpt lat="45.16829" lon="5.97553">
        <ele>2576.8</ele>
        <time>2021-02-27T07:44:46Z</time>
      </trkpt>
      <trkpt lat="45.1683" lon="5.97556">
        <ele>2576.8</ele>
        <time>2021-02-27T07:44:49Z</time>
      </trkpt>
      <trkpt lat="45.16829" lon="5.97559">
        <ele>2576.8</ele>
        <time>2021-02-27T07:44:51Z</time>
      </trkpt>
      <trkpt lat="45.16829" lon="5.97559">
        <ele>2579.6</ele>
        <time>2021-02-27T07:44:53Z</time>
      </trkpt>
      <trkpt lat="45.16827" lon="5.97562">
        <ele>2579.6</ele>
        <time>2021-02-27T07:44:54Z</time>
      </trkpt>
      <trkpt lat="45.16824" lon="5.97564">
        <ele>2579.6</ele>
        <time>2021-02-27T07:44:57Z</time>
      </trkpt>
      <trkpt lat="45.16823" lon="5.97565">
        <ele>2579.6</ele>
        <time>2021-02-27T07:45:00Z</time>
      </trkpt>
      <trkpt lat="45.16823" lon="5.97565">
        <ele>2582.2</ele>
        <time>2021-02-27T07:45:03Z</time>
      </trkpt>
      <trkpt lat="45.16824" lon="5.97568">
        <ele>2582.2</ele>
        <time>2021-02-27T07:45:04Z</time>
      </trkpt>
      <trkpt lat="45.16826" lon="5.9757">
        <ele>2582.2</ele>
        <time>2021-02-27T07:45:06Z</time>
      </trkpt>
      <trkpt lat="45.16828" lon="5.97571">
        <ele>2582.2</ele>
        <time>2021-02-27T07:45:08Z</time>
      </trkpt>
      <trkpt lat="45.1683" lon="5.97572">
        <ele>2582.2</ele>
        <time>2021-02-27T07:45:11Z</time>
      </trkpt>
      <trkpt lat="45.16832" lon="5.97573">
        <ele>2584</ele>
        <time>2021-02-27T07:45:13Z</time>
      </trkpt>
      <trkpt lat="45.16834" lon="5.97573">
        <ele>2584</ele>
        <time>2021-02-27T07:45:16Z</time>
      </trkpt>
      <trkpt lat="45.16837" lon="5.97574">
        <ele>2584</ele>
        <time>2021-02-27T07:45:19Z</time>
      </trkpt>
      <trkpt lat="45.16839" lon="5.97575">
        <ele>2584</ele>
        <time>2021-02-27T07:45:21Z</time>
      </trkpt>
      <trkpt lat="45.16839" lon="5.97575">
        <ele>2587</ele>
        <time>2021-02-27T07:45:23Z</time>
      </trkpt>
      <trkpt lat="45.16842" lon="5.97576">
        <ele>2587</ele>
        <time>2021-02-27T07:45:24Z</time>
      </trkpt>
      <trkpt lat="45.16844" lon="5.97578">
        <ele>2587</ele>
        <time>2021-02-27T07:45:27Z</time>
      </trkpt>
      <trkpt lat="45.16844" lon="5.97581">
        <ele>2587</ele>
        <time>2021-02-27T07:45:30Z</time>
      </trkpt>
      <trkpt lat="45.16842" lon="5.97584">
        <ele>2590.2</ele>
        <time>2021-02-27T07:45:33Z</time>
      </trkpt>
      <trkpt lat="45.1684" lon="5.97586">
        <ele>2590.2</ele>
        <time>2021-02-27T07:45:35Z</time>
      </trkpt>
      <trkpt lat="45.16839" lon="5.97588">
        <ele>2590.2</ele>
        <time>2021-02-27T07:45:38Z</time>
      </trkpt>
      <trkpt lat="45.16837" lon="5.97591">
        <ele>2590.2</ele>
        <time>2021-02-27T07:45:41Z</time>
      </trkpt>
      <trkpt lat="45.16837" lon="5.97591">
        <ele>2593.2</ele>
        <time>2021-02-27T07:45:43Z</time>
      </trkpt>
      <trkpt lat="45.16836" lon="5.97594">
        <ele>2593.2</ele>
        <time>2021-02-27T07:45:44Z</time>
      </trkpt>
      <trkpt lat="45.16838" lon="5.97595">
        <ele>2593.2</ele>
        <time>2021-02-27T07:45:49Z</time>
      </trkpt>
      <trkpt lat="45.1684" lon="5.97595">
        <ele>2593.2</ele>
        <time>2021-02-27T07:45:51Z</time>
      </trkpt>
      <trkpt lat="45.16842" lon="5.97596">
        <ele>2596</ele>
        <time>2021-02-27T07:45:53Z</time>
      </trkpt>
      <trkpt lat="45.16844" lon="5.97596">
        <ele>2596</ele>
        <time>2021-02-27T07:45:55Z</time>
      </trkpt>
      <trkpt lat="45.16846" lon="5.97597">
        <ele>2596</ele>
        <time>2021-02-27T07:45:57Z</time>
      </trkpt>
      <trkpt lat="45.1685" lon="5.97597">
        <ele>2596</ele>
        <time>2021-02-27T07:45:59Z</time>
      </trkpt>
      <trkpt lat="45.16852" lon="5.97596">
        <ele>2596</ele>
        <time>2021-02-27T07:46:01Z</time>
      </trkpt>
      <trkpt lat="45.16852" lon="5.97596">
        <ele>2597.6</ele>
        <time>2021-02-27T07:46:03Z</time>
      </trkpt>
      <trkpt lat="45.16855" lon="5.97595">
        <ele>2597.6</ele>
        <time>2021-02-27T07:46:04Z</time>
      </trkpt>
      <trkpt lat="45.16857" lon="5.97596">
        <ele>2597.6</ele>
        <time>2021-02-27T07:46:07Z</time>
      </trkpt>
      <trkpt lat="45.16858" lon="5.97596">
        <ele>2597.6</ele>
        <time>2021-02-27T07:46:09Z</time>
      </trkpt>
      <trkpt lat="45.16859" lon="5.97597">
        <ele>2597.6</ele>
        <time>2021-02-27T07:46:12Z</time>
      </trkpt>
      <trkpt lat="45.16861" lon="5.97598">
        <ele>2599</ele>
        <time>2021-02-27T07:46:13Z</time>
      </trkpt>
      <trkpt lat="45.16864" lon="5.97596">
        <ele>2599</ele>
        <time>2021-02-27T07:46:14Z</time>
      </trkpt>
      <trkpt lat="45.16865" lon="5.97596">
        <ele>2599</ele>
        <time>2021-02-27T07:46:16Z</time>
      </trkpt>
      <trkpt lat="45.16866" lon="5.97595">
        <ele>2599</ele>
        <time>2021-02-27T07:46:19Z</time>
      </trkpt>
      <trkpt lat="45.16867" lon="5.97594">
        <ele>2599</ele>
        <time>2021-02-27T07:46:22Z</time>
      </trkpt>
      <trkpt lat="45.16868" lon="5.97594">
        <ele>2601</ele>
        <time>2021-02-27T07:46:23Z</time>
      </trkpt>
      <trkpt lat="45.16868" lon="5.97599">
        <ele>2601</ele>
        <time>2021-02-27T07:46:28Z</time>
      </trkpt>
      <trkpt lat="45.16867" lon="5.976">
        <ele>2601</ele>
        <time>2021-02-27T07:46:30Z</time>
      </trkpt>
      <trkpt lat="45.16867" lon="5.97601">
        <ele>2601</ele>
        <time>2021-02-27T07:46:32Z</time>
      </trkpt>
      <trkpt lat="45.16866" lon="5.97602">
        <ele>2603.2</ele>
        <time>2021-02-27T07:46:33Z</time>
      </trkpt>
      <trkpt lat="45.16865" lon="5.97607">
        <ele>2603.2</ele>
        <time>2021-02-27T07:46:34Z</time>
      </trkpt>
      <trkpt lat="45.16864" lon="5.97609">
        <ele>2603.2</ele>
        <time>2021-02-27T07:46:36Z</time>
      </trkpt>
      <trkpt lat="45.16863" lon="5.9761">
        <ele>2603.2</ele>
        <time>2021-02-27T07:46:38Z</time>
      </trkpt>
      <trkpt lat="45.16862" lon="5.97612">
        <ele>2603.2</ele>
        <time>2021-02-27T07:46:40Z</time>
      </trkpt>
      <trkpt lat="45.16862" lon="5.97614">
        <ele>2603.2</ele>
        <time>2021-02-27T07:46:42Z</time>
      </trkpt>
      <trkpt lat="45.16861" lon="5.97616">
        <ele>2605.2</ele>
        <time>2021-02-27T07:46:43Z</time>
      </trkpt>
      <trkpt lat="45.1686" lon="5.97617">
        <ele>2605.2</ele>
        <time>2021-02-27T07:46:44Z</time>
      </trkpt>
      <trkpt lat="45.16859" lon="5.9762">
        <ele>2605.2</ele>
        <time>2021-02-27T07:46:46Z</time>
      </trkpt>
      <trkpt lat="45.16858" lon="5.97623">
        <ele>2605.2</ele>
        <time>2021-02-27T07:46:49Z</time>
      </trkpt>
      <trkpt lat="45.16856" lon="5.97626">
        <ele>2605.2</ele>
        <time>2021-02-27T07:46:51Z</time>
      </trkpt>
      <trkpt lat="45.16855" lon="5.97628">
        <ele>2607</ele>
        <time>2021-02-27T07:46:53Z</time>
      </trkpt>
      <trkpt lat="45.16853" lon="5.97632">
        <ele>2607</ele>
        <time>2021-02-27T07:46:55Z</time>
      </trkpt>
      <trkpt lat="45.16852" lon="5.97633">
        <ele>2607</ele>
        <time>2021-02-27T07:46:57Z</time>
      </trkpt>
      <trkpt lat="45.16852" lon="5.97634">
        <ele>2607</ele>
        <time>2021-02-27T07:47:00Z</time>
      </trkpt>
      <trkpt lat="45.16851" lon="5.97635">
        <ele>2607</ele>
        <time>2021-02-27T07:47:02Z</time>
      </trkpt>
      <trkpt lat="45.1685" lon="5.97637">
        <ele>2609.6</ele>
        <time>2021-02-27T07:47:03Z</time>
      </trkpt>
      <trkpt lat="45.16852" lon="5.97637">
        <ele>2609.6</ele>
        <time>2021-02-27T07:47:09Z</time>
      </trkpt>
      <trkpt lat="45.16854" lon="5.97638">
        <ele>2609.6</ele>
        <time>2021-02-27T07:47:11Z</time>
      </trkpt>
      <trkpt lat="45.16856" lon="5.97637">
        <ele>2611</ele>
        <time>2021-02-27T07:47:13Z</time>
      </trkpt>
      <trkpt lat="45.16859" lon="5.97637">
        <ele>2611</ele>
        <time>2021-02-27T07:47:15Z</time>
      </trkpt>
      <trkpt lat="45.16861" lon="5.97636">
        <ele>2611</ele>
        <time>2021-02-27T07:47:18Z</time>
      </trkpt>
      <trkpt lat="45.16863" lon="5.97635">
        <ele>2611</ele>
        <time>2021-02-27T07:47:21Z</time>
      </trkpt>
      <trkpt lat="45.16865" lon="5.97634">
        <ele>2612.2</ele>
        <time>2021-02-27T07:47:23Z</time>
      </trkpt>
      <trkpt lat="45.16869" lon="5.9763">
        <ele>2612.2</ele>
        <time>2021-02-27T07:47:26Z</time>
      </trkpt>
      <trkpt lat="45.16871" lon="5.97629">
        <ele>2612.2</ele>
        <time>2021-02-27T07:47:28Z</time>
      </trkpt>
      <trkpt lat="45.16872" lon="5.97628">
        <ele>2612.2</ele>
        <time>2021-02-27T07:47:30Z</time>
      </trkpt>
      <trkpt lat="45.16873" lon="5.97627">
        <ele>2612.2</ele>
        <time>2021-02-27T07:47:32Z</time>
      </trkpt>
      <trkpt lat="45.16875" lon="5.97626">
        <ele>2614.4</ele>
        <time>2021-02-27T07:47:33Z</time>
      </trkpt>
      <trkpt lat="45.16876" lon="5.97625">
        <ele>2614.4</ele>
        <time>2021-02-27T07:47:34Z</time>
      </trkpt>
      <trkpt lat="45.16878" lon="5.97623">
        <ele>2614.4</ele>
        <time>2021-02-27T07:47:36Z</time>
      </trkpt>
      <trkpt lat="45.1688" lon="5.9762">
        <ele>2614.4</ele>
        <time>2021-02-27T07:47:39Z</time>
      </trkpt>
      <trkpt lat="45.16882" lon="5.97618">
        <ele>2614.4</ele>
        <time>2021-02-27T07:47:41Z</time>
      </trkpt>
      <trkpt lat="45.16884" lon="5.97616">
        <ele>2618.8</ele>
        <time>2021-02-27T07:47:43Z</time>
      </trkpt>
      <trkpt lat="45.16886" lon="5.97615">
        <ele>2618.8</ele>
        <time>2021-02-27T07:47:44Z</time>
      </trkpt>
      <trkpt lat="45.16888" lon="5.97614">
        <ele>2618.8</ele>
        <time>2021-02-27T07:47:46Z</time>
      </trkpt>
      <trkpt lat="45.1689" lon="5.97612">
        <ele>2618.8</ele>
        <time>2021-02-27T07:47:48Z</time>
      </trkpt>
      <trkpt lat="45.16891" lon="5.97609">
        <ele>2618.8</ele>
        <time>2021-02-27T07:47:51Z</time>
      </trkpt>
      <trkpt lat="45.16891" lon="5.97609">
        <ele>2621.4</ele>
        <time>2021-02-27T07:47:53Z</time>
      </trkpt>
      <trkpt lat="45.16894" lon="5.97605">
        <ele>2621.4</ele>
        <time>2021-02-27T07:47:54Z</time>
      </trkpt>
      <trkpt lat="45.16895" lon="5.97603">
        <ele>2621.4</ele>
        <time>2021-02-27T07:47:57Z</time>
      </trkpt>
      <trkpt lat="45.16896" lon="5.97602">
        <ele>2621.4</ele>
        <time>2021-02-27T07:47:59Z</time>
      </trkpt>
      <trkpt lat="45.16897" lon="5.976">
        <ele>2621.4</ele>
        <time>2021-02-27T07:48:02Z</time>
      </trkpt>
      <trkpt lat="45.16898" lon="5.97599">
        <ele>2621</ele>
        <time>2021-02-27T07:48:03Z</time>
      </trkpt>
      <trkpt lat="45.169" lon="5.97597">
        <ele>2621</ele>
        <time>2021-02-27T07:48:05Z</time>
      </trkpt>
      <trkpt lat="45.16901" lon="5.97595">
        <ele>2621</ele>
        <time>2021-02-27T07:48:08Z</time>
      </trkpt>
      <trkpt lat="45.16902" lon="5.97592">
        <ele>2621</ele>
        <time>2021-02-27T07:48:11Z</time>
      </trkpt>
      <trkpt lat="45.16904" lon="5.97591">
        <ele>2622</ele>
        <time>2021-02-27T07:48:13Z</time>
      </trkpt>
      <trkpt lat="45.16905" lon="5.97595">
        <ele>2622</ele>
        <time>2021-02-27T07:48:18Z</time>
      </trkpt>
      <trkpt lat="45.16905" lon="5.97597">
        <ele>2622</ele>
        <time>2021-02-27T07:48:20Z</time>
      </trkpt>
      <trkpt lat="45.16906" lon="5.97598">
        <ele>2622</ele>
        <time>2021-02-27T07:48:22Z</time>
      </trkpt>
      <trkpt lat="45.16906" lon="5.97599">
        <ele>2626.2</ele>
        <time>2021-02-27T07:48:23Z</time>
      </trkpt>
      <trkpt lat="45.16906" lon="5.97605">
        <ele>2626.2</ele>
        <time>2021-02-27T07:48:25Z</time>
      </trkpt>
      <trkpt lat="45.16906" lon="5.97607">
        <ele>2626.2</ele>
        <time>2021-02-27T07:48:28Z</time>
      </trkpt>
      <trkpt lat="45.16906" lon="5.97609">
        <ele>2626.2</ele>
        <time>2021-02-27T07:48:30Z</time>
      </trkpt>
      <trkpt lat="45.16906" lon="5.97611">
        <ele>2626.2</ele>
        <time>2021-02-27T07:48:32Z</time>
      </trkpt>
      <trkpt lat="45.16906" lon="5.97613">
        <ele>2626.4</ele>
        <time>2021-02-27T07:48:33Z</time>
      </trkpt>
      <trkpt lat="45.16907" lon="5.97616">
        <ele>2626.4</ele>
        <time>2021-02-27T07:48:35Z</time>
      </trkpt>
      <trkpt lat="45.16906" lon="5.97619">
        <ele>2626.4</ele>
        <time>2021-02-27T07:48:37Z</time>
      </trkpt>
      <trkpt lat="45.16907" lon="5.97622">
        <ele>2626.4</ele>
        <time>2021-02-27T07:48:39Z</time>
      </trkpt>
      <trkpt lat="45.16906" lon="5.97625">
        <ele>2626.4</ele>
        <time>2021-02-27T07:48:41Z</time>
      </trkpt>
      <trkpt lat="45.16906" lon="5.97625">
        <ele>2629.2</ele>
        <time>2021-02-27T07:48:43Z</time>
      </trkpt>
      <trkpt lat="45.16905" lon="5.9763">
        <ele>2629.2</ele>
        <time>2021-02-27T07:48:44Z</time>
      </trkpt>
      <trkpt lat="45.16905" lon="5.97632">
        <ele>2629.2</ele>
        <time>2021-02-27T07:48:46Z</time>
      </trkpt>
      <trkpt lat="45.16904" lon="5.97634">
        <ele>2629.2</ele>
        <time>2021-02-27T07:48:49Z</time>
      </trkpt>
      <trkpt lat="45.16904" lon="5.97636">
        <ele>2629.2</ele>
        <time>2021-02-27T07:48:52Z</time>
      </trkpt>
      <trkpt lat="45.16903" lon="5.97638">
        <ele>2633</ele>
        <time>2021-02-27T07:48:53Z</time>
      </trkpt>
      <trkpt lat="45.16906" lon="5.97638">
        <ele>2633</ele>
        <time>2021-02-27T07:49:00Z</time>
      </trkpt>
      <trkpt lat="45.16907" lon="5.97638">
        <ele>2633</ele>
        <time>2021-02-27T07:49:02Z</time>
      </trkpt>
      <trkpt lat="45.16908" lon="5.97638">
        <ele>2636.2</ele>
        <time>2021-02-27T07:49:03Z</time>
      </trkpt>
      <trkpt lat="45.1691" lon="5.97638">
        <ele>2636.2</ele>
        <time>2021-02-27T07:49:04Z</time>
      </trkpt>
      <trkpt lat="45.16912" lon="5.97637">
        <ele>2636.2</ele>
        <time>2021-02-27T07:49:06Z</time>
      </trkpt>
      <trkpt lat="45.16914" lon="5.97636">
        <ele>2636.2</ele>
        <time>2021-02-27T07:49:09Z</time>
      </trkpt>
      <trkpt lat="45.16916" lon="5.97635">
        <ele>2636.2</ele>
        <time>2021-02-27T07:49:11Z</time>
      </trkpt>
      <trkpt lat="45.16916" lon="5.97635">
        <ele>2636.8</ele>
        <time>2021-02-27T07:49:13Z</time>
      </trkpt>
      <trkpt lat="45.16918" lon="5.97633">
        <ele>2636.8</ele>
        <time>2021-02-27T07:49:14Z</time>
      </trkpt>
      <trkpt lat="45.1692" lon="5.97632">
        <ele>2636.8</ele>
        <time>2021-02-27T07:49:18Z</time>
      </trkpt>
      <trkpt lat="45.16922" lon="5.9763">
        <ele>2636.8</ele>
        <time>2021-02-27T07:49:21Z</time>
      </trkpt>
      <trkpt lat="45.16922" lon="5.9763">
        <ele>2639</ele>
        <time>2021-02-27T07:49:23Z</time>
      </trkpt>
      <trkpt lat="45.16922" lon="5.97633">
        <ele>2639</ele>
        <time>2021-02-27T07:49:24Z</time>
      </trkpt>
      <trkpt lat="45.16922" lon="5.97636">
        <ele>2639</ele>
        <time>2021-02-27T07:49:27Z</time>
      </trkpt>
      <trkpt lat="45.16923" lon="5.9764">
        <ele>2639</ele>
        <time>2021-02-27T07:49:30Z</time>
      </trkpt>
      <trkpt lat="45.16923" lon="5.97643">
        <ele>2641.8</ele>
        <time>2021-02-27T07:49:33Z</time>
      </trkpt>
      <trkpt lat="45.16924" lon="5.97647">
        <ele>2641.8</ele>
        <time>2021-02-27T07:49:36Z</time>
      </trkpt>
      <trkpt lat="45.16926" lon="5.97645">
        <ele>2641.8</ele>
        <time>2021-02-27T07:49:41Z</time>
      </trkpt>
      <trkpt lat="45.16927" lon="5.97643">
        <ele>2646.2</ele>
        <time>2021-02-27T07:49:43Z</time>
      </trkpt>
      <trkpt lat="45.16928" lon="5.97641">
        <ele>2646.2</ele>
        <time>2021-02-27T07:49:46Z</time>
      </trkpt>
      <trkpt lat="45.16929" lon="5.97639">
        <ele>2646.2</ele>
        <time>2021-02-27T07:49:48Z</time>
      </trkpt>
      <trkpt lat="45.1693" lon="5.97642">
        <ele>2648</ele>
        <time>2021-02-27T07:49:53Z</time>
      </trkpt>
      <trkpt lat="45.1693" lon="5.97645">
        <ele>2648</ele>
        <time>2021-02-27T07:49:56Z</time>
      </trkpt>
      <trkpt lat="45.16931" lon="5.97649">
        <ele>2648</ele>
        <time>2021-02-27T07:49:59Z</time>
      </trkpt>
      <trkpt lat="45.16931" lon="5.97652">
        <ele>2648</ele>
        <time>2021-02-27T07:50:01Z</time>
      </trkpt>
      <trkpt lat="45.16932" lon="5.97655">
        <ele>2650.6</ele>
        <time>2021-02-27T07:50:03Z</time>
      </trkpt>
      <trkpt lat="45.16932" lon="5.97658">
        <ele>2650.6</ele>
        <time>2021-02-27T07:50:06Z</time>
      </trkpt>
      <trkpt lat="45.16932" lon="5.97662">
        <ele>2650.6</ele>
        <time>2021-02-27T07:50:09Z</time>
      </trkpt>
      <trkpt lat="45.16932" lon="5.97665">
        <ele>2650.6</ele>
        <time>2021-02-27T07:50:11Z</time>
      </trkpt>
      <trkpt lat="45.16932" lon="5.97665">
        <ele>2652</ele>
        <time>2021-02-27T07:50:13Z</time>
      </trkpt>
      <trkpt lat="45.16932" lon="5.97669">
        <ele>2652</ele>
        <time>2021-02-27T07:50:14Z</time>
      </trkpt>
      <trkpt lat="45.16932" lon="5.97672">
        <ele>2652</ele>
        <time>2021-02-27T07:50:16Z</time>
      </trkpt>
      <trkpt lat="45.16932" lon="5.97674">
        <ele>2652</ele>
        <time>2021-02-27T07:50:19Z</time>
      </trkpt>
      <trkpt lat="45.16932" lon="5.97674">
        <ele>2654.2</ele>
        <time>2021-02-27T07:50:23Z</time>
      </trkpt>
      <trkpt lat="45.16935" lon="5.97676">
        <ele>2654.2</ele>
        <time>2021-02-27T07:50:24Z</time>
      </trkpt>
      <trkpt lat="45.16935" lon="5.97678">
        <ele>2654.2</ele>
        <time>2021-02-27T07:50:26Z</time>
      </trkpt>
      <trkpt lat="45.16936" lon="5.97679">
        <ele>2654.2</ele>
        <time>2021-02-27T07:50:28Z</time>
      </trkpt>
      <trkpt lat="45.16937" lon="5.97681">
        <ele>2654.2</ele>
        <time>2021-02-27T07:50:30Z</time>
      </trkpt>
      <trkpt lat="45.16937" lon="5.97682">
        <ele>2654.2</ele>
        <time>2021-02-27T07:50:32Z</time>
      </trkpt>
      <trkpt lat="45.16938" lon="5.97684">
        <ele>2657.6</ele>
        <time>2021-02-27T07:50:33Z</time>
      </trkpt>
      <trkpt lat="45.16938" lon="5.9769">
        <ele>2657.6</ele>
        <time>2021-02-27T07:50:34Z</time>
      </trkpt>
      <trkpt lat="45.16938" lon="5.97692">
        <ele>2657.6</ele>
        <time>2021-02-27T07:50:35Z</time>
      </trkpt>
      <trkpt lat="45.16938" lon="5.97694">
        <ele>2657.6</ele>
        <time>2021-02-27T07:50:36Z</time>
      </trkpt>
      <trkpt lat="45.16939" lon="5.97697">
        <ele>2657.6</ele>
        <time>2021-02-27T07:50:37Z</time>
      </trkpt>
      <trkpt lat="45.16939" lon="5.97699">
        <ele>2657.6</ele>
        <time>2021-02-27T07:50:38Z</time>
      </trkpt>
      <trkpt lat="45.16939" lon="5.97701">
        <ele>2657.6</ele>
        <time>2021-02-27T07:50:39Z</time>
      </trkpt>
      <trkpt lat="45.16939" lon="5.97703">
        <ele>2657.6</ele>
        <time>2021-02-27T07:50:41Z</time>
      </trkpt>
      <trkpt lat="45.16939" lon="5.97705">
        <ele>2657</ele>
        <time>2021-02-27T07:50:43Z</time>
      </trkpt>
      <trkpt lat="45.16941" lon="5.9771">
        <ele>2657</ele>
        <time>2021-02-27T07:50:44Z</time>
      </trkpt>
      <trkpt lat="45.16942" lon="5.97712">
        <ele>2652.8</ele>
        <time>2021-02-27T07:50:53Z</time>
      </trkpt>
      <trkpt lat="45.16943" lon="5.97714">
        <ele>2654</ele>
        <time>2021-02-27T07:51:03Z</time>
      </trkpt>
      <trkpt lat="45.16945" lon="5.97716">
        <ele>2654.6</ele>
        <time>2021-02-27T07:51:13Z</time>
      </trkpt>
      <trkpt lat="45.16946" lon="5.97718">
        <ele>2653</ele>
        <time>2021-02-27T07:51:23Z</time>
      </trkpt>
      <trkpt lat="45.16947" lon="5.9772">
        <ele>2653.4</ele>
        <time>2021-02-27T07:51:33Z</time>
      </trkpt>
      <trkpt lat="45.16948" lon="5.97722">
        <ele>2652.6</ele>
        <time>2021-02-27T07:51:43Z</time>
      </trkpt>
      <trkpt lat="45.16949" lon="5.97724">
        <ele>2652.6</ele>
        <time>2021-02-27T07:51:47Z</time>
      </trkpt>
      <trkpt lat="45.1695" lon="5.97726">
        <ele>2652.6</ele>
        <time>2021-02-27T07:51:48Z</time>
      </trkpt>
      <trkpt lat="45.16951" lon="5.97728">
        <ele>2652.6</ele>
        <time>2021-02-27T07:51:49Z</time>
      </trkpt>
      <trkpt lat="45.16952" lon="5.9773">
        <ele>2652.6</ele>
        <time>2021-02-27T07:51:50Z</time>
      </trkpt>
      <trkpt lat="45.16953" lon="5.97732">
        <ele>2652.6</ele>
        <time>2021-02-27T07:51:51Z</time>
      </trkpt>
      <trkpt lat="45.16954" lon="5.97734">
        <ele>2652.6</ele>
        <time>2021-02-27T07:51:52Z</time>
      </trkpt>
      <trkpt lat="45.16955" lon="5.97736">
        <ele>2650.4</ele>
        <time>2021-02-27T07:51:53Z</time>
      </trkpt>
      <trkpt lat="45.16958" lon="5.97745">
        <ele>2650.4</ele>
        <time>2021-02-27T07:51:54Z</time>
      </trkpt>
      <trkpt lat="45.16959" lon="5.97748">
        <ele>2650.4</ele>
        <time>2021-02-27T07:51:55Z</time>
      </trkpt>
      <trkpt lat="45.1696" lon="5.97752">
        <ele>2650.4</ele>
        <time>2021-02-27T07:51:56Z</time>
      </trkpt>
      <trkpt lat="45.16961" lon="5.97755">
        <ele>2650.4</ele>
        <time>2021-02-27T07:51:57Z</time>
      </trkpt>
      <trkpt lat="45.16962" lon="5.97759">
        <ele>2650.4</ele>
        <time>2021-02-27T07:51:58Z</time>
      </trkpt>
      <trkpt lat="45.16963" lon="5.97762">
        <ele>2650.4</ele>
        <time>2021-02-27T07:51:59Z</time>
      </trkpt>
      <trkpt lat="45.16964" lon="5.97766">
        <ele>2650.4</ele>
        <time>2021-02-27T07:52:00Z</time>
      </trkpt>
      <trkpt lat="45.16965" lon="5.97769">
        <ele>2650.4</ele>
        <time>2021-02-27T07:52:01Z</time>
      </trkpt>
      <trkpt lat="45.16965" lon="5.97773">
        <ele>2647.4</ele>
        <time>2021-02-27T07:52:03Z</time>
      </trkpt>
      <trkpt lat="45.16968" lon="5.97778">
        <ele>2647.4</ele>
        <time>2021-02-27T07:52:04Z</time>
      </trkpt>
      <trkpt lat="45.16969" lon="5.97781">
        <ele>2647.4</ele>
        <time>2021-02-27T07:52:05Z</time>
      </trkpt>
      <trkpt lat="45.1697" lon="5.97784">
        <ele>2647.4</ele>
        <time>2021-02-27T07:52:06Z</time>
      </trkpt>
      <trkpt lat="45.16971" lon="5.97787">
        <ele>2647.4</ele>
        <time>2021-02-27T07:52:07Z</time>
      </trkpt>
      <trkpt lat="45.16972" lon="5.9779">
        <ele>2647.4</ele>
        <time>2021-02-27T07:52:08Z</time>
      </trkpt>
      <trkpt lat="45.16973" lon="5.97792">
        <ele>2647.4</ele>
        <time>2021-02-27T07:52:09Z</time>
      </trkpt>
      <trkpt lat="45.16974" lon="5.97795">
        <ele>2647.4</ele>
        <time>2021-02-27T07:52:11Z</time>
      </trkpt>
      <trkpt lat="45.16975" lon="5.97798">
        <ele>2647.4</ele>
        <time>2021-02-27T07:52:12Z</time>
      </trkpt>
      <trkpt lat="45.16976" lon="5.97801">
        <ele>2646.8</ele>
        <time>2021-02-27T07:52:13Z</time>
      </trkpt>
      <trkpt lat="45.16977" lon="5.97808">
        <ele>2646.8</ele>
        <time>2021-02-27T07:52:14Z</time>
      </trkpt>
      <trkpt lat="45.16977" lon="5.97811">
        <ele>2646.8</ele>
        <time>2021-02-27T07:52:15Z</time>
      </trkpt>
      <trkpt lat="45.16977" lon="5.97814">
        <ele>2646.8</ele>
        <time>2021-02-27T07:52:16Z</time>
      </trkpt>
      <trkpt lat="45.16977" lon="5.97818">
        <ele>2646.8</ele>
        <time>2021-02-27T07:52:17Z</time>
      </trkpt>
      <trkpt lat="45.16977" lon="5.97821">
        <ele>2646.8</ele>
        <time>2021-02-27T07:52:18Z</time>
      </trkpt>
      <trkpt lat="45.16977" lon="5.97824">
        <ele>2646.8</ele>
        <time>2021-02-27T07:52:19Z</time>
      </trkpt>
      <trkpt lat="45.16977" lon="5.97828">
        <ele>2646.8</ele>
        <time>2021-02-27T07:52:20Z</time>
      </trkpt>
      <trkpt lat="45.16976" lon="5.97831">
        <ele>2646.8</ele>
        <time>2021-02-27T07:52:21Z</time>
      </trkpt>
      <trkpt lat="45.16976" lon="5.97834">
        <ele>2646.8</ele>
        <time>2021-02-27T07:52:22Z</time>
      </trkpt>
      <trkpt lat="45.16976" lon="5.97838">
        <ele>2644.8</ele>
        <time>2021-02-27T07:52:23Z</time>
      </trkpt>
      <trkpt lat="45.16975" lon="5.97846">
        <ele>2644.8</ele>
        <time>2021-02-27T07:52:24Z</time>
      </trkpt>
      <trkpt lat="45.16975" lon="5.97851">
        <ele>2644.8</ele>
        <time>2021-02-27T07:52:25Z</time>
      </trkpt>
      <trkpt lat="45.16975" lon="5.97856">
        <ele>2644.8</ele>
        <time>2021-02-27T07:52:26Z</time>
      </trkpt>
      <trkpt lat="45.16975" lon="5.97861">
        <ele>2644.8</ele>
        <time>2021-02-27T07:52:27Z</time>
      </trkpt>
      <trkpt lat="45.16975" lon="5.97866">
        <ele>2644.8</ele>
        <time>2021-02-27T07:52:28Z</time>
      </trkpt>
      <trkpt lat="45.16976" lon="5.97871">
        <ele>2644.8</ele>
        <time>2021-02-27T07:52:29Z</time>
      </trkpt>
      <trkpt lat="45.16976" lon="5.97876">
        <ele>2644.8</ele>
        <time>2021-02-27T07:52:30Z</time>
      </trkpt>
      <trkpt lat="45.16976" lon="5.97881">
        <ele>2644.8</ele>
        <time>2021-02-27T07:52:31Z</time>
      </trkpt>
      <trkpt lat="45.16976" lon="5.97886">
        <ele>2644.8</ele>
        <time>2021-02-27T07:52:32Z</time>
      </trkpt>
      <trkpt lat="45.16976" lon="5.97891">
        <ele>2636</ele>
        <time>2021-02-27T07:52:33Z</time>
      </trkpt>
      <trkpt lat="45.16977" lon="5.97906">
        <ele>2636</ele>
        <time>2021-02-27T07:52:34Z</time>
      </trkpt>
      <trkpt lat="45.16977" lon="5.97911">
        <ele>2636</ele>
        <time>2021-02-27T07:52:35Z</time>
      </trkpt>
      <trkpt lat="45.16977" lon="5.97917">
        <ele>2636</ele>
        <time>2021-02-27T07:52:36Z</time>
      </trkpt>
      <trkpt lat="45.16978" lon="5.97923">
        <ele>2636</ele>
        <time>2021-02-27T07:52:37Z</time>
      </trkpt>
      <trkpt lat="45.16978" lon="5.97929">
        <ele>2636</ele>
        <time>2021-02-27T07:52:38Z</time>
      </trkpt>
      <trkpt lat="45.16978" lon="5.97935">
        <ele>2636</ele>
        <time>2021-02-27T07:52:39Z</time>
      </trkpt>
      <trkpt lat="45.16979" lon="5.97941">
        <ele>2636</ele>
        <time>2021-02-27T07:52:40Z</time>
      </trkpt>
      <trkpt lat="45.16979" lon="5.97947">
        <ele>2636</ele>
        <time>2021-02-27T07:52:41Z</time>
      </trkpt>
      <trkpt lat="45.16979" lon="5.97953">
        <ele>2636</ele>
        <time>2021-02-27T07:52:42Z</time>
      </trkpt>
      <trkpt lat="45.1698" lon="5.97959">
        <ele>2620.6</ele>
        <time>2021-02-27T07:52:43Z</time>
      </trkpt>
      <trkpt lat="45.16983" lon="5.97967">
        <ele>2620.6</ele>
        <time>2021-02-27T07:52:44Z</time>
      </trkpt>
      <trkpt lat="45.16985" lon="5.97971">
        <ele>2620.6</ele>
        <time>2021-02-27T07:52:45Z</time>
      </trkpt>
      <trkpt lat="45.16987" lon="5.97974">
        <ele>2620.6</ele>
        <time>2021-02-27T07:52:46Z</time>
      </trkpt>
      <trkpt lat="45.16988" lon="5.97978">
        <ele>2620.6</ele>
        <time>2021-02-27T07:52:47Z</time>
      </trkpt>
      <trkpt lat="45.1699" lon="5.97981">
        <ele>2620.6</ele>
        <time>2021-02-27T07:52:48Z</time>
      </trkpt>
      <trkpt lat="45.16992" lon="5.97985">
        <ele>2620.6</ele>
        <time>2021-02-27T07:52:49Z</time>
      </trkpt>
      <trkpt lat="45.16994" lon="5.97988">
        <ele>2620.6</ele>
        <time>2021-02-27T07:52:50Z</time>
      </trkpt>
      <trkpt lat="45.16995" lon="5.97992">
        <ele>2620.6</ele>
        <time>2021-02-27T07:52:51Z</time>
      </trkpt>
      <trkpt lat="45.16997" lon="5.97995">
        <ele>2620.6</ele>
        <time>2021-02-27T07:52:52Z</time>
      </trkpt>
      <trkpt lat="45.16999" lon="5.97999">
        <ele>2600.4</ele>
        <time>2021-02-27T07:52:53Z</time>
      </trkpt>
      <trkpt lat="45.17002" lon="5.9801">
        <ele>2600.4</ele>
        <time>2021-02-27T07:52:54Z</time>
      </trkpt>
      <trkpt lat="45.17004" lon="5.98015">
        <ele>2600.4</ele>
        <time>2021-02-27T07:52:55Z</time>
      </trkpt>
      <trkpt lat="45.17005" lon="5.98021">
        <ele>2600.4</ele>
        <time>2021-02-27T07:52:56Z</time>
      </trkpt>
      <trkpt lat="45.17006" lon="5.98027">
        <ele>2600.4</ele>
        <time>2021-02-27T07:52:57Z</time>
      </trkpt>
      <trkpt lat="45.17008" lon="5.98033">
        <ele>2600.4</ele>
        <time>2021-02-27T07:52:58Z</time>
      </trkpt>
      <trkpt lat="45.17009" lon="5.98038">
        <ele>2600.4</ele>
        <time>2021-02-27T07:52:59Z</time>
      </trkpt>
      <trkpt lat="45.17011" lon="5.98044">
        <ele>2600.4</ele>
        <time>2021-02-27T07:53:00Z</time>
      </trkpt>
      <trkpt lat="45.17012" lon="5.9805">
        <ele>2600.4</ele>
        <time>2021-02-27T07:53:01Z</time>
      </trkpt>
      <trkpt lat="45.17014" lon="5.98056">
        <ele>2600.4</ele>
        <time>2021-02-27T07:53:02Z</time>
      </trkpt>
      <trkpt lat="45.17015" lon="5.98062">
        <ele>2584.8</ele>
        <time>2021-02-27T07:53:03Z</time>
      </trkpt>
      <trkpt lat="45.17019" lon="5.98076">
        <ele>2584.8</ele>
        <time>2021-02-27T07:53:04Z</time>
      </trkpt>
      <trkpt lat="45.17019" lon="5.98081">
        <ele>2584.8</ele>
        <time>2021-02-27T07:53:05Z</time>
      </trkpt>
      <trkpt lat="45.1702" lon="5.98087">
        <ele>2584.8</ele>
        <time>2021-02-27T07:53:06Z</time>
      </trkpt>
      <trkpt lat="45.1702" lon="5.98093">
        <ele>2584.8</ele>
        <time>2021-02-27T07:53:07Z</time>
      </trkpt>
      <trkpt lat="45.1702" lon="5.98099">
        <ele>2584.8</ele>
        <time>2021-02-27T07:53:08Z</time>
      </trkpt>
      <trkpt lat="45.1702" lon="5.98105">
        <ele>2584.8</ele>
        <time>2021-02-27T07:53:09Z</time>
      </trkpt>
      <trkpt lat="45.17021" lon="5.98111">
        <ele>2584.8</ele>
        <time>2021-02-27T07:53:10Z</time>
      </trkpt>
      <trkpt lat="45.17021" lon="5.98116">
        <ele>2584.8</ele>
        <time>2021-02-27T07:53:11Z</time>
      </trkpt>
      <trkpt lat="45.17021" lon="5.98122">
        <ele>2584.8</ele>
        <time>2021-02-27T07:53:12Z</time>
      </trkpt>
      <trkpt lat="45.17022" lon="5.98128">
        <ele>2557.8</ele>
        <time>2021-02-27T07:53:13Z</time>
      </trkpt>
      <trkpt lat="45.1702" lon="5.9814">
        <ele>2557.8</ele>
        <time>2021-02-27T07:53:14Z</time>
      </trkpt>
      <trkpt lat="45.17021" lon="5.98144">
        <ele>2557.8</ele>
        <time>2021-02-27T07:53:15Z</time>
      </trkpt>
      <trkpt lat="45.17022" lon="5.98148">
        <ele>2557.8</ele>
        <time>2021-02-27T07:53:16Z</time>
      </trkpt>
      <trkpt lat="45.17022" lon="5.98153">
        <ele>2557.8</ele>
        <time>2021-02-27T07:53:17Z</time>
      </trkpt>
      <trkpt lat="45.17023" lon="5.98157">
        <ele>2557.8</ele>
        <time>2021-02-27T07:53:18Z</time>
      </trkpt>
      <trkpt lat="45.17024" lon="5.98161">
        <ele>2557.8</ele>
        <time>2021-02-27T07:53:19Z</time>
      </trkpt>
      <trkpt lat="45.17025" lon="5.98166">
        <ele>2557.8</ele>
        <time>2021-02-27T07:53:20Z</time>
      </trkpt>
      <trkpt lat="45.17026" lon="5.9817">
        <ele>2557.8</ele>
        <time>2021-02-27T07:53:21Z</time>
      </trkpt>
      <trkpt lat="45.17027" lon="5.98174">
        <ele>2557.8</ele>
        <time>2021-02-27T07:53:22Z</time>
      </trkpt>
      <trkpt lat="45.17027" lon="5.98179">
        <ele>2542.2</ele>
        <time>2021-02-27T07:53:23Z</time>
      </trkpt>
      <trkpt lat="45.17024" lon="5.98198">
        <ele>2542.2</ele>
        <time>2021-02-27T07:53:24Z</time>
      </trkpt>
      <trkpt lat="45.17023" lon="5.98207">
        <ele>2542.2</ele>
        <time>2021-02-27T07:53:25Z</time>
      </trkpt>
      <trkpt lat="45.17022" lon="5.98216">
        <ele>2542.2</ele>
        <time>2021-02-27T07:53:26Z</time>
      </trkpt>
      <trkpt lat="45.17022" lon="5.98225">
        <ele>2542.2</ele>
        <time>2021-02-27T07:53:27Z</time>
      </trkpt>
      <trkpt lat="45.17021" lon="5.98234">
        <ele>2542.2</ele>
        <time>2021-02-27T07:53:28Z</time>
      </trkpt>
      <trkpt lat="45.1702" lon="5.98243">
        <ele>2542.2</ele>
        <time>2021-02-27T07:53:29Z</time>
      </trkpt>
      <trkpt lat="45.1702" lon="5.98252">
        <ele>2542.2</ele>
        <time>2021-02-27T07:53:30Z</time>
      </trkpt>
      <trkpt lat="45.17019" lon="5.98261">
        <ele>2542.2</ele>
        <time>2021-02-27T07:53:31Z</time>
      </trkpt>
      <trkpt lat="45.17019" lon="5.9827">
        <ele>2542.2</ele>
        <time>2021-02-27T07:53:32Z</time>
      </trkpt>
      <trkpt lat="45.17018" lon="5.98279">
        <ele>2532.6</ele>
        <time>2021-02-27T07:53:33Z</time>
      </trkpt>
      <trkpt lat="45.17019" lon="5.98289">
        <ele>2532.6</ele>
        <time>2021-02-27T07:53:34Z</time>
      </trkpt>
      <trkpt lat="45.1702" lon="5.9829">
        <ele>2532.6</ele>
        <time>2021-02-27T07:53:35Z</time>
      </trkpt>
      <trkpt lat="45.17022" lon="5.98291">
        <ele>2532.6</ele>
        <time>2021-02-27T07:53:36Z</time>
      </trkpt>
      <trkpt lat="45.17023" lon="5.98292">
        <ele>2532.6</ele>
        <time>2021-02-27T07:53:37Z</time>
      </trkpt>
      <trkpt lat="45.17025" lon="5.98293">
        <ele>2532.6</ele>
        <time>2021-02-27T07:53:38Z</time>
      </trkpt>
      <trkpt lat="45.17026" lon="5.98294">
        <ele>2532.6</ele>
        <time>2021-02-27T07:53:39Z</time>
      </trkpt>
      <trkpt lat="45.17028" lon="5.98295">
        <ele>2532.6</ele>
        <time>2021-02-27T07:53:40Z</time>
      </trkpt>
      <trkpt lat="45.1703" lon="5.98296">
        <ele>2532.6</ele>
        <time>2021-02-27T07:53:41Z</time>
      </trkpt>
      <trkpt lat="45.17031" lon="5.98297">
        <ele>2532.6</ele>
        <time>2021-02-27T07:53:42Z</time>
      </trkpt>
      <trkpt lat="45.17033" lon="5.98298">
        <ele>2525.6</ele>
        <time>2021-02-27T07:53:43Z</time>
      </trkpt>
      <trkpt lat="45.1704" lon="5.98287">
        <ele>2525.6</ele>
        <time>2021-02-27T07:53:44Z</time>
      </trkpt>
      <trkpt lat="45.17044" lon="5.98284">
        <ele>2525.6</ele>
        <time>2021-02-27T07:53:45Z</time>
      </trkpt>
      <trkpt lat="45.17047" lon="5.9828">
        <ele>2525.6</ele>
        <time>2021-02-27T07:53:46Z</time>
      </trkpt>
      <trkpt lat="45.17051" lon="5.98277">
        <ele>2525.6</ele>
        <time>2021-02-27T07:53:47Z</time>
      </trkpt>
      <trkpt lat="45.17055" lon="5.98273">
        <ele>2525.6</ele>
        <time>2021-02-27T07:53:48Z</time>
      </trkpt>
      <trkpt lat="45.17058" lon="5.9827">
        <ele>2525.6</ele>
        <time>2021-02-27T07:53:49Z</time>
      </trkpt>
      <trkpt lat="45.17062" lon="5.98266">
        <ele>2525.6</ele>
        <time>2021-02-27T07:53:50Z</time>
      </trkpt>
      <trkpt lat="45.17065" lon="5.98263">
        <ele>2525.6</ele>
        <time>2021-02-27T07:53:51Z</time>
      </trkpt>
      <trkpt lat="45.17069" lon="5.98259">
        <ele>2525.6</ele>
        <time>2021-02-27T07:53:52Z</time>
      </trkpt>
      <trkpt lat="45.17073" lon="5.98255">
        <ele>2515.8</ele>
        <time>2021-02-27T07:53:53Z</time>
      </trkpt>
      <trkpt lat="45.17078" lon="5.9827">
        <ele>2515.8</ele>
        <time>2021-02-27T07:53:54Z</time>
      </trkpt>
      <trkpt lat="45.17082" lon="5.98276">
        <ele>2515.8</ele>
        <time>2021-02-27T07:53:55Z</time>
      </trkpt>
      <trkpt lat="45.17085" lon="5.98282">
        <ele>2515.8</ele>
        <time>2021-02-27T07:53:56Z</time>
      </trkpt>
      <trkpt lat="45.17088" lon="5.98288">
        <ele>2515.8</ele>
        <time>2021-02-27T07:53:57Z</time>
      </trkpt>
      <trkpt lat="45.17092" lon="5.98295">
        <ele>2515.8</ele>
        <time>2021-02-27T07:53:58Z</time>
      </trkpt>
      <trkpt lat="45.17095" lon="5.98301">
        <ele>2515.8</ele>
        <time>2021-02-27T07:53:59Z</time>
      </trkpt>
      <trkpt lat="45.17098" lon="5.98307">
        <ele>2515.8</ele>
        <time>2021-02-27T07:54:00Z</time>
      </trkpt>
      <trkpt lat="45.17101" lon="5.98313">
        <ele>2515.8</ele>
        <time>2021-02-27T07:54:01Z</time>
      </trkpt>
      <trkpt lat="45.17105" lon="5.9832">
        <ele>2515.8</ele>
        <time>2021-02-27T07:54:02Z</time>
      </trkpt>
      <trkpt lat="45.17108" lon="5.98326">
        <ele>2501.4</ele>
        <time>2021-02-27T07:54:03Z</time>
      </trkpt>
      <trkpt lat="45.17115" lon="5.98345">
        <ele>2501.4</ele>
        <time>2021-02-27T07:54:04Z</time>
      </trkpt>
      <trkpt lat="45.17119" lon="5.98353">
        <ele>2501.4</ele>
        <time>2021-02-27T07:54:05Z</time>
      </trkpt>
      <trkpt lat="45.17122" lon="5.98361">
        <ele>2501.4</ele>
        <time>2021-02-27T07:54:06Z</time>
      </trkpt>
      <trkpt lat="45.17126" lon="5.98369">
        <ele>2501.4</ele>
        <time>2021-02-27T07:54:07Z</time>
      </trkpt>
      <trkpt lat="45.17129" lon="5.98377">
        <ele>2501.4</ele>
        <time>2021-02-27T07:54:08Z</time>
      </trkpt>
      <trkpt lat="45.17133" lon="5.98386">
        <ele>2501.4</ele>
        <time>2021-02-27T07:54:09Z</time>
      </trkpt>
      <trkpt lat="45.17136" lon="5.98394">
        <ele>2501.4</ele>
        <time>2021-02-27T07:54:10Z</time>
      </trkpt>
      <trkpt lat="45.1714" lon="5.98402">
        <ele>2501.4</ele>
        <time>2021-02-27T07:54:11Z</time>
      </trkpt>
      <trkpt lat="45.17143" lon="5.9841">
        <ele>2501.4</ele>
        <time>2021-02-27T07:54:12Z</time>
      </trkpt>
      <trkpt lat="45.17147" lon="5.98418">
        <ele>2491.6</ele>
        <time>2021-02-27T07:54:13Z</time>
      </trkpt>
      <trkpt lat="45.17157" lon="5.98424">
        <ele>2491.6</ele>
        <time>2021-02-27T07:54:14Z</time>
      </trkpt>
      <trkpt lat="45.17162" lon="5.98423">
        <ele>2491.6</ele>
        <time>2021-02-27T07:54:15Z</time>
      </trkpt>
      <trkpt lat="45.17168" lon="5.98422">
        <ele>2491.6</ele>
        <time>2021-02-27T07:54:16Z</time>
      </trkpt>
      <trkpt lat="45.17173" lon="5.98421">
        <ele>2491.6</ele>
        <time>2021-02-27T07:54:17Z</time>
      </trkpt>
      <trkpt lat="45.17178" lon="5.9842">
        <ele>2491.6</ele>
        <time>2021-02-27T07:54:18Z</time>
      </trkpt>
      <trkpt lat="45.17183" lon="5.98419">
        <ele>2491.6</ele>
        <time>2021-02-27T07:54:19Z</time>
      </trkpt>
      <trkpt lat="45.17188" lon="5.98418">
        <ele>2491.6</ele>
        <time>2021-02-27T07:54:20Z</time>
      </trkpt>
      <trkpt lat="45.17193" lon="5.98417">
        <ele>2491.6</ele>
        <time>2021-02-27T07:54:21Z</time>
      </trkpt>
      <trkpt lat="45.17198" lon="5.98416">
        <ele>2491.6</ele>
        <time>2021-02-27T07:54:22Z</time>
      </trkpt>
      <trkpt lat="45.17203" lon="5.98415">
        <ele>2479.4</ele>
        <time>2021-02-27T07:54:23Z</time>
      </trkpt>
      <trkpt lat="45.17212" lon="5.98414">
        <ele>2479.4</ele>
        <time>2021-02-27T07:54:24Z</time>
      </trkpt>
      <trkpt lat="45.17216" lon="5.98408">
        <ele>2479.4</ele>
        <time>2021-02-27T07:54:25Z</time>
      </trkpt>
      <trkpt lat="45.1722" lon="5.98402">
        <ele>2479.4</ele>
        <time>2021-02-27T07:54:26Z</time>
      </trkpt>
      <trkpt lat="45.17224" lon="5.98395">
        <ele>2479.4</ele>
        <time>2021-02-27T07:54:27Z</time>
      </trkpt>
      <trkpt lat="45.17229" lon="5.98389">
        <ele>2479.4</ele>
        <time>2021-02-27T07:54:28Z</time>
      </trkpt>
      <trkpt lat="45.17233" lon="5.98383">
        <ele>2479.4</ele>
        <time>2021-02-27T07:54:29Z</time>
      </trkpt>
      <trkpt lat="45.17237" lon="5.98377">
        <ele>2479.4</ele>
        <time>2021-02-27T07:54:30Z</time>
      </trkpt>
      <trkpt lat="45.17241" lon="5.98371">
        <ele>2479.4</ele>
        <time>2021-02-27T07:54:31Z</time>
      </trkpt>
      <trkpt lat="45.17245" lon="5.98365">
        <ele>2479.4</ele>
        <time>2021-02-27T07:54:32Z</time>
      </trkpt>
      <trkpt lat="45.17249" lon="5.98359">
        <ele>2466.2</ele>
        <time>2021-02-27T07:54:33Z</time>
      </trkpt>
      <trkpt lat="45.17256" lon="5.9836">
        <ele>2466.2</ele>
        <time>2021-02-27T07:54:34Z</time>
      </trkpt>
      <trkpt lat="45.17259" lon="5.98361">
        <ele>2466.2</ele>
        <time>2021-02-27T07:54:35Z</time>
      </trkpt>
      <trkpt lat="45.17262" lon="5.98361">
        <ele>2466.2</ele>
        <time>2021-02-27T07:54:36Z</time>
      </trkpt>
      <trkpt lat="45.17265" lon="5.98361">
        <ele>2466.2</ele>
        <time>2021-02-27T07:54:37Z</time>
      </trkpt>
      <trkpt lat="45.17268" lon="5.98361">
        <ele>2466.2</ele>
        <time>2021-02-27T07:54:38Z</time>
      </trkpt>
      <trkpt lat="45.17271" lon="5.98362">
        <ele>2466.2</ele>
        <time>2021-02-27T07:54:39Z</time>
      </trkpt>
      <trkpt lat="45.17274" lon="5.98362">
        <ele>2466.2</ele>
        <time>2021-02-27T07:54:40Z</time>
      </trkpt>
      <trkpt lat="45.17277" lon="5.98362">
        <ele>2466.2</ele>
        <time>2021-02-27T07:54:41Z</time>
      </trkpt>
      <trkpt lat="45.17279" lon="5.98363">
        <ele>2466.2</ele>
        <time>2021-02-27T07:54:42Z</time>
      </trkpt>
      <trkpt lat="45.17282" lon="5.98363">
        <ele>2457.2</ele>
        <time>2021-02-27T07:54:43Z</time>
      </trkpt>
      <trkpt lat="45.17285" lon="5.98367">
        <ele>2457.2</ele>
        <time>2021-02-27T07:54:44Z</time>
      </trkpt>
      <trkpt lat="45.17285" lon="5.98373">
        <ele>2457.2</ele>
        <time>2021-02-27T07:54:45Z</time>
      </trkpt>
      <trkpt lat="45.17285" lon="5.98378">
        <ele>2457.2</ele>
        <time>2021-02-27T07:54:46Z</time>
      </trkpt>
      <trkpt lat="45.17284" lon="5.98384">
        <ele>2457.2</ele>
        <time>2021-02-27T07:54:47Z</time>
      </trkpt>
      <trkpt lat="45.17284" lon="5.98389">
        <ele>2457.2</ele>
        <time>2021-02-27T07:54:48Z</time>
      </trkpt>
      <trkpt lat="45.17284" lon="5.98395">
        <ele>2457.2</ele>
        <time>2021-02-27T07:54:49Z</time>
      </trkpt>
      <trkpt lat="45.17284" lon="5.98401">
        <ele>2457.2</ele>
        <time>2021-02-27T07:54:50Z</time>
      </trkpt>
      <trkpt lat="45.17284" lon="5.98406">
        <ele>2457.2</ele>
        <time>2021-02-27T07:54:51Z</time>
      </trkpt>
      <trkpt lat="45.17284" lon="5.98412">
        <ele>2457.2</ele>
        <time>2021-02-27T07:54:52Z</time>
      </trkpt>
      <trkpt lat="45.17284" lon="5.98417">
        <ele>2451</ele>
        <time>2021-02-27T07:54:53Z</time>
      </trkpt>
      <trkpt lat="45.17289" lon="5.98426">
        <ele>2451</ele>
        <time>2021-02-27T07:54:54Z</time>
      </trkpt>
      <trkpt lat="45.17295" lon="5.98429">
        <ele>2451</ele>
        <time>2021-02-27T07:54:55Z</time>
      </trkpt>
      <trkpt lat="45.17301" lon="5.98431">
        <ele>2451</ele>
        <time>2021-02-27T07:54:56Z</time>
      </trkpt>
      <trkpt lat="45.17307" lon="5.98434">
        <ele>2451</ele>
        <time>2021-02-27T07:54:57Z</time>
      </trkpt>
      <trkpt lat="45.17313" lon="5.98437">
        <ele>2451</ele>
        <time>2021-02-27T07:54:58Z</time>
      </trkpt>
      <trkpt lat="45.17319" lon="5.98439">
        <ele>2451</ele>
        <time>2021-02-27T07:54:59Z</time>
      </trkpt>
      <trkpt lat="45.17325" lon="5.98442">
        <ele>2451</ele>
        <time>2021-02-27T07:55:00Z</time>
      </trkpt>
      <trkpt lat="45.1733" lon="5.98445">
        <ele>2451</ele>
        <time>2021-02-27T07:55:01Z</time>
      </trkpt>
      <trkpt lat="45.17336" lon="5.98447">
        <ele>2451</ele>
        <time>2021-02-27T07:55:02Z</time>
      </trkpt>
      <trkpt lat="45.17342" lon="5.9845">
        <ele>2438.6</ele>
        <time>2021-02-27T07:55:03Z</time>
      </trkpt>
      <trkpt lat="45.17356" lon="5.98459">
        <ele>2438.6</ele>
        <time>2021-02-27T07:55:04Z</time>
      </trkpt>
      <trkpt lat="45.17361" lon="5.98462">
        <ele>2438.6</ele>
        <time>2021-02-27T07:55:05Z</time>
      </trkpt>
      <trkpt lat="45.17367" lon="5.98465">
        <ele>2438.6</ele>
        <time>2021-02-27T07:55:06Z</time>
      </trkpt>
      <trkpt lat="45.17372" lon="5.98468">
        <ele>2438.6</ele>
        <time>2021-02-27T07:55:07Z</time>
      </trkpt>
      <trkpt lat="45.17377" lon="5.9847">
        <ele>2438.6</ele>
        <time>2021-02-27T07:55:08Z</time>
      </trkpt>
      <trkpt lat="45.17382" lon="5.98473">
        <ele>2438.6</ele>
        <time>2021-02-27T07:55:09Z</time>
      </trkpt>
      <trkpt lat="45.17388" lon="5.98476">
        <ele>2438.6</ele>
        <time>2021-02-27T07:55:10Z</time>
      </trkpt>
      <trkpt lat="45.17393" lon="5.98479">
        <ele>2438.6</ele>
        <time>2021-02-27T07:55:11Z</time>
      </trkpt>
      <trkpt lat="45.17398" lon="5.98482">
        <ele>2438.6</ele>
        <time>2021-02-27T07:55:12Z</time>
      </trkpt>
      <trkpt lat="45.17404" lon="5.98485">
        <ele>2431.4</ele>
        <time>2021-02-27T07:55:13Z</time>
      </trkpt>
      <trkpt lat="45.17414" lon="5.98486">
        <ele>2431.4</ele>
        <time>2021-02-27T07:55:14Z</time>
      </trkpt>
      <trkpt lat="45.17418" lon="5.98484">
        <ele>2431.4</ele>
        <time>2021-02-27T07:55:15Z</time>
      </trkpt>
      <trkpt lat="45.17423" lon="5.98482">
        <ele>2431.4</ele>
        <time>2021-02-27T07:55:16Z</time>
      </trkpt>
      <trkpt lat="45.17427" lon="5.9848">
        <ele>2431.4</ele>
        <time>2021-02-27T07:55:17Z</time>
      </trkpt>
      <trkpt lat="45.17432" lon="5.98478">
        <ele>2431.4</ele>
        <time>2021-02-27T07:55:18Z</time>
      </trkpt>
      <trkpt lat="45.17436" lon="5.98476">
        <ele>2431.4</ele>
        <time>2021-02-27T07:55:19Z</time>
      </trkpt>
      <trkpt lat="45.17441" lon="5.98474">
        <ele>2431.4</ele>
        <time>2021-02-27T07:55:20Z</time>
      </trkpt>
      <trkpt lat="45.17445" lon="5.98472">
        <ele>2431.4</ele>
        <time>2021-02-27T07:55:21Z</time>
      </trkpt>
      <trkpt lat="45.1745" lon="5.9847">
        <ele>2431.4</ele>
        <time>2021-02-27T07:55:22Z</time>
      </trkpt>
      <trkpt lat="45.17454" lon="5.98468">
        <ele>2420.8</ele>
        <time>2021-02-27T07:55:23Z</time>
      </trkpt>
      <trkpt lat="45.17463" lon="5.9846">
        <ele>2420.8</ele>
        <time>2021-02-27T07:55:24Z</time>
      </trkpt>
      <trkpt lat="45.17467" lon="5.98455">
        <ele>2420.8</ele>
        <time>2021-02-27T07:55:25Z</time>
      </trkpt>
      <trkpt lat="45.1747" lon="5.98451">
        <ele>2420.8</ele>
        <time>2021-02-27T07:55:26Z</time>
      </trkpt>
      <trkpt lat="45.17474" lon="5.98447">
        <ele>2420.8</ele>
        <time>2021-02-27T07:55:27Z</time>
      </trkpt>
      <trkpt lat="45.17478" lon="5.98443">
        <ele>2420.8</ele>
        <time>2021-02-27T07:55:28Z</time>
      </trkpt>
      <trkpt lat="45.17481" lon="5.98439">
        <ele>2420.8</ele>
        <time>2021-02-27T07:55:29Z</time>
      </trkpt>
      <trkpt lat="45.17485" lon="5.98434">
        <ele>2420.8</ele>
        <time>2021-02-27T07:55:30Z</time>
      </trkpt>
      <trkpt lat="45.17489" lon="5.9843">
        <ele>2420.8</ele>
        <time>2021-02-27T07:55:31Z</time>
      </trkpt>
      <trkpt lat="45.17492" lon="5.98426">
        <ele>2420.8</ele>
        <time>2021-02-27T07:55:32Z</time>
      </trkpt>
      <trkpt lat="45.17496" lon="5.98422">
        <ele>2414.4</ele>
        <time>2021-02-27T07:55:33Z</time>
      </trkpt>
      <trkpt lat="45.17504" lon="5.98413">
        <ele>2414.4</ele>
        <time>2021-02-27T07:55:34Z</time>
      </trkpt>
      <trkpt lat="45.17508" lon="5.98408">
        <ele>2414.4</ele>
        <time>2021-02-27T07:55:35Z</time>
      </trkpt>
      <trkpt lat="45.17512" lon="5.98403">
        <ele>2414.4</ele>
        <time>2021-02-27T07:55:36Z</time>
      </trkpt>
      <trkpt lat="45.17515" lon="5.98399">
        <ele>2414.4</ele>
        <time>2021-02-27T07:55:37Z</time>
      </trkpt>
      <trkpt lat="45.17519" lon="5.98394">
        <ele>2414.4</ele>
        <time>2021-02-27T07:55:38Z</time>
      </trkpt>
      <trkpt lat="45.17523" lon="5.9839">
        <ele>2414.4</ele>
        <time>2021-02-27T07:55:39Z</time>
      </trkpt>
      <trkpt lat="45.17527" lon="5.98385">
        <ele>2414.4</ele>
        <time>2021-02-27T07:55:40Z</time>
      </trkpt>
      <trkpt lat="45.17531" lon="5.98381">
        <ele>2414.4</ele>
        <time>2021-02-27T07:55:41Z</time>
      </trkpt>
      <trkpt lat="45.17535" lon="5.98376">
        <ele>2414.4</ele>
        <time>2021-02-27T07:55:42Z</time>
      </trkpt>
      <trkpt lat="45.17539" lon="5.98372">
        <ele>2409.8</ele>
        <time>2021-02-27T07:55:43Z</time>
      </trkpt>
      <trkpt lat="45.17546" lon="5.98364">
        <ele>2409.8</ele>
        <time>2021-02-27T07:55:44Z</time>
      </trkpt>
      <trkpt lat="45.17548" lon="5.98362">
        <ele>2409.8</ele>
        <time>2021-02-27T07:55:45Z</time>
      </trkpt>
      <trkpt lat="45.17551" lon="5.98359">
        <ele>2409.8</ele>
        <time>2021-02-27T07:55:46Z</time>
      </trkpt>
      <trkpt lat="45.17553" lon="5.98357">
        <ele>2409.8</ele>
        <time>2021-02-27T07:55:47Z</time>
      </trkpt>
      <trkpt lat="45.17556" lon="5.98354">
        <ele>2409.8</ele>
        <time>2021-02-27T07:55:48Z</time>
      </trkpt>
      <trkpt lat="45.17558" lon="5.98352">
        <ele>2409.8</ele>
        <time>2021-02-27T07:55:49Z</time>
      </trkpt>
      <trkpt lat="45.17561" lon="5.98349">
        <ele>2409.8</ele>
        <time>2021-02-27T07:55:50Z</time>
      </trkpt>
      <trkpt lat="45.17563" lon="5.98347">
        <ele>2409.8</ele>
        <time>2021-02-27T07:55:51Z</time>
      </trkpt>
      <trkpt lat="45.17566" lon="5.98344">
        <ele>2409.8</ele>
        <time>2021-02-27T07:55:52Z</time>
      </trkpt>
      <trkpt lat="45.17568" lon="5.98342">
        <ele>2406.4</ele>
        <time>2021-02-27T07:55:53Z</time>
      </trkpt>
      <trkpt lat="45.17573" lon="5.98342">
        <ele>2406.4</ele>
        <time>2021-02-27T07:55:54Z</time>
      </trkpt>
      <trkpt lat="45.17576" lon="5.98343">
        <ele>2406.4</ele>
        <time>2021-02-27T07:56:00Z</time>
      </trkpt>
      <trkpt lat="45.17579" lon="5.98344">
        <ele>2404.6</ele>
        <time>2021-02-27T07:56:03Z</time>
      </trkpt>
      <trkpt lat="45.17582" lon="5.98346">
        <ele>2404</ele>
        <time>2021-02-27T07:56:13Z</time>
      </trkpt>
      <trkpt lat="45.17586" lon="5.98347">
        <ele>2404</ele>
        <time>2021-02-27T07:56:14Z</time>
      </trkpt>
      <trkpt lat="45.17589" lon="5.98348">
        <ele>2404</ele>
        <time>2021-02-27T07:56:15Z</time>
      </trkpt>
      <trkpt lat="45.17592" lon="5.98349">
        <ele>2404</ele>
        <time>2021-02-27T07:56:16Z</time>
      </trkpt>
      <trkpt lat="45.17595" lon="5.9835">
        <ele>2404</ele>
        <time>2021-02-27T07:56:17Z</time>
      </trkpt>
      <trkpt lat="45.17599" lon="5.98351">
        <ele>2404</ele>
        <time>2021-02-27T07:56:18Z</time>
      </trkpt>
      <trkpt lat="45.17602" lon="5.98352">
        <ele>2404</ele>
        <time>2021-02-27T07:56:19Z</time>
      </trkpt>
      <trkpt lat="45.17605" lon="5.98353">
        <ele>2404</ele>
        <time>2021-02-27T07:56:20Z</time>
      </trkpt>
      <trkpt lat="45.17608" lon="5.98354">
        <ele>2404</ele>
        <time>2021-02-27T07:56:21Z</time>
      </trkpt>
      <trkpt lat="45.17612" lon="5.98355">
        <ele>2404</ele>
        <time>2021-02-27T07:56:22Z</time>
      </trkpt>
      <trkpt lat="45.17615" lon="5.98356">
        <ele>2395.2</ele>
        <time>2021-02-27T07:56:23Z</time>
      </trkpt>
      <trkpt lat="45.17625" lon="5.98355">
        <ele>2395.2</ele>
        <time>2021-02-27T07:56:24Z</time>
      </trkpt>
      <trkpt lat="45.17629" lon="5.98352">
        <ele>2395.2</ele>
        <time>2021-02-27T07:56:25Z</time>
      </trkpt>
      <trkpt lat="45.17633" lon="5.9835">
        <ele>2395.2</ele>
        <time>2021-02-27T07:56:26Z</time>
      </trkpt>
      <trkpt lat="45.17637" lon="5.98347">
        <ele>2395.2</ele>
        <time>2021-02-27T07:56:27Z</time>
      </trkpt>
      <trkpt lat="45.17641" lon="5.98345">
        <ele>2395.2</ele>
        <time>2021-02-27T07:56:28Z</time>
      </trkpt>
      <trkpt lat="45.17646" lon="5.98342">
        <ele>2395.2</ele>
        <time>2021-02-27T07:56:29Z</time>
      </trkpt>
      <trkpt lat="45.1765" lon="5.9834">
        <ele>2395.2</ele>
        <time>2021-02-27T07:56:30Z</time>
      </trkpt>
      <trkpt lat="45.17654" lon="5.98337">
        <ele>2395.2</ele>
        <time>2021-02-27T07:56:31Z</time>
      </trkpt>
      <trkpt lat="45.17658" lon="5.98335">
        <ele>2395.2</ele>
        <time>2021-02-27T07:56:32Z</time>
      </trkpt>
      <trkpt lat="45.17662" lon="5.98332">
        <ele>2386.8</ele>
        <time>2021-02-27T07:56:33Z</time>
      </trkpt>
      <trkpt lat="45.17669" lon="5.9833">
        <ele>2386.8</ele>
        <time>2021-02-27T07:56:34Z</time>
      </trkpt>
      <trkpt lat="45.17673" lon="5.9833">
        <ele>2386.8</ele>
        <time>2021-02-27T07:56:35Z</time>
      </trkpt>
      <trkpt lat="45.17676" lon="5.9833">
        <ele>2386.8</ele>
        <time>2021-02-27T07:56:36Z</time>
      </trkpt>
      <trkpt lat="45.1768" lon="5.9833">
        <ele>2386.8</ele>
        <time>2021-02-27T07:56:37Z</time>
      </trkpt>
      <trkpt lat="45.17683" lon="5.98329">
        <ele>2386.8</ele>
        <time>2021-02-27T07:56:38Z</time>
      </trkpt>
      <trkpt lat="45.17687" lon="5.98329">
        <ele>2386.8</ele>
        <time>2021-02-27T07:56:39Z</time>
      </trkpt>
      <trkpt lat="45.1769" lon="5.98329">
        <ele>2386.8</ele>
        <time>2021-02-27T07:56:40Z</time>
      </trkpt>
      <trkpt lat="45.17694" lon="5.98328">
        <ele>2386.8</ele>
        <time>2021-02-27T07:56:41Z</time>
      </trkpt>
      <trkpt lat="45.17697" lon="5.98328">
        <ele>2386.8</ele>
        <time>2021-02-27T07:56:42Z</time>
      </trkpt>
      <trkpt lat="45.17701" lon="5.98328">
        <ele>2383.6</ele>
        <time>2021-02-27T07:56:43Z</time>
      </trkpt>
      <trkpt lat="45.17707" lon="5.98328">
        <ele>2383.6</ele>
        <time>2021-02-27T07:56:44Z</time>
      </trkpt>
      <trkpt lat="45.1771" lon="5.98328">
        <ele>2383.6</ele>
        <time>2021-02-27T07:56:45Z</time>
      </trkpt>
      <trkpt lat="45.17712" lon="5.98328">
        <ele>2383.6</ele>
        <time>2021-02-27T07:56:46Z</time>
      </trkpt>
      <trkpt lat="45.17715" lon="5.98328">
        <ele>2383.6</ele>
        <time>2021-02-27T07:56:48Z</time>
      </trkpt>
      <trkpt lat="45.17718" lon="5.98327">
        <ele>2383.6</ele>
        <time>2021-02-27T07:56:49Z</time>
      </trkpt>
      <trkpt lat="45.1772" lon="5.98327">
        <ele>2383.6</ele>
        <time>2021-02-27T07:56:50Z</time>
      </trkpt>
      <trkpt lat="45.17723" lon="5.98327">
        <ele>2383.6</ele>
        <time>2021-02-27T07:56:51Z</time>
      </trkpt>
      <trkpt lat="45.17726" lon="5.98327">
        <ele>2383.6</ele>
        <time>2021-02-27T07:56:52Z</time>
      </trkpt>
      <trkpt lat="45.17729" lon="5.98327">
        <ele>2379.2</ele>
        <time>2021-02-27T07:56:53Z</time>
      </trkpt>
      <trkpt lat="45.17735" lon="5.98323">
        <ele>2379.2</ele>
        <time>2021-02-27T07:56:54Z</time>
      </trkpt>
      <trkpt lat="45.17739" lon="5.9832">
        <ele>2379.2</ele>
        <time>2021-02-27T07:56:55Z</time>
      </trkpt>
      <trkpt lat="45.17742" lon="5.98318">
        <ele>2379.2</ele>
        <time>2021-02-27T07:56:56Z</time>
      </trkpt>
      <trkpt lat="45.17745" lon="5.98315">
        <ele>2379.2</ele>
        <time>2021-02-27T07:56:57Z</time>
      </trkpt>
      <trkpt lat="45.17749" lon="5.98312">
        <ele>2379.2</ele>
        <time>2021-02-27T07:56:58Z</time>
      </trkpt>
      <trkpt lat="45.17752" lon="5.98309">
        <ele>2379.2</ele>
        <time>2021-02-27T07:56:59Z</time>
      </trkpt>
      <trkpt lat="45.17756" lon="5.98306">
        <ele>2379.2</ele>
        <time>2021-02-27T07:57:00Z</time>
      </trkpt>
      <trkpt lat="45.17759" lon="5.98303">
        <ele>2379.2</ele>
        <time>2021-02-27T07:57:01Z</time>
      </trkpt>
      <trkpt lat="45.17762" lon="5.983">
        <ele>2379.2</ele>
        <time>2021-02-27T07:57:02Z</time>
      </trkpt>
      <trkpt lat="45.17766" lon="5.98297">
        <ele>2375</ele>
        <time>2021-02-27T07:57:03Z</time>
      </trkpt>
      <trkpt lat="45.17774" lon="5.98288">
        <ele>2375</ele>
        <time>2021-02-27T07:57:04Z</time>
      </trkpt>
      <trkpt lat="45.17779" lon="5.98284">
        <ele>2375</ele>
        <time>2021-02-27T07:57:05Z</time>
      </trkpt>
      <trkpt lat="45.17784" lon="5.9828">
        <ele>2375</ele>
        <time>2021-02-27T07:57:06Z</time>
      </trkpt>
      <trkpt lat="45.17789" lon="5.98275">
        <ele>2375</ele>
        <time>2021-02-27T07:57:07Z</time>
      </trkpt>
      <trkpt lat="45.17794" lon="5.98271">
        <ele>2375</ele>
        <time>2021-02-27T07:57:08Z</time>
      </trkpt>
      <trkpt lat="45.17799" lon="5.98267">
        <ele>2375</ele>
        <time>2021-02-27T07:57:09Z</time>
      </trkpt>
      <trkpt lat="45.17804" lon="5.98263">
        <ele>2375</ele>
        <time>2021-02-27T07:57:10Z</time>
      </trkpt>
      <trkpt lat="45.17808" lon="5.98259">
        <ele>2375</ele>
        <time>2021-02-27T07:57:11Z</time>
      </trkpt>
      <trkpt lat="45.17813" lon="5.98255">
        <ele>2375</ele>
        <time>2021-02-27T07:57:12Z</time>
      </trkpt>
      <trkpt lat="45.17818" lon="5.9825">
        <ele>2368</ele>
        <time>2021-02-27T07:57:13Z</time>
      </trkpt>
      <trkpt lat="45.17829" lon="5.98242">
        <ele>2368</ele>
        <time>2021-02-27T07:57:14Z</time>
      </trkpt>
      <trkpt lat="45.17833" lon="5.98239">
        <ele>2368</ele>
        <time>2021-02-27T07:57:15Z</time>
      </trkpt>
      <trkpt lat="45.17837" lon="5.98235">
        <ele>2368</ele>
        <time>2021-02-27T07:57:16Z</time>
      </trkpt>
      <trkpt lat="45.17841" lon="5.98232">
        <ele>2368</ele>
        <time>2021-02-27T07:57:17Z</time>
      </trkpt>
      <trkpt lat="45.17845" lon="5.98228">
        <ele>2368</ele>
        <time>2021-02-27T07:57:18Z</time>
      </trkpt>
      <trkpt lat="45.17849" lon="5.98225">
        <ele>2368</ele>
        <time>2021-02-27T07:57:19Z</time>
      </trkpt>
      <trkpt lat="45.17853" lon="5.98221">
        <ele>2368</ele>
        <time>2021-02-27T07:57:20Z</time>
      </trkpt>
      <trkpt lat="45.17857" lon="5.98218">
        <ele>2368</ele>
        <time>2021-02-27T07:57:21Z</time>
      </trkpt>
      <trkpt lat="45.17861" lon="5.98214">
        <ele>2368</ele>
        <time>2021-02-27T07:57:22Z</time>
      </trkpt>
      <trkpt lat="45.17865" lon="5.98211">
        <ele>2362.2</ele>
        <time>2021-02-27T07:57:23Z</time>
      </trkpt>
      <trkpt lat="45.17873" lon="5.98204">
        <ele>2362.2</ele>
        <time>2021-02-27T07:57:24Z</time>
      </trkpt>
      <trkpt lat="45.17877" lon="5.98201">
        <ele>2362.2</ele>
        <time>2021-02-27T07:57:25Z</time>
      </trkpt>
      <trkpt lat="45.17881" lon="5.98198">
        <ele>2362.2</ele>
        <time>2021-02-27T07:57:26Z</time>
      </trkpt>
      <trkpt lat="45.17885" lon="5.98194">
        <ele>2362.2</ele>
        <time>2021-02-27T07:57:27Z</time>
      </trkpt>
      <trkpt lat="45.17889" lon="5.98191">
        <ele>2362.2</ele>
        <time>2021-02-27T07:57:28Z</time>
      </trkpt>
      <trkpt lat="45.17892" lon="5.98188">
        <ele>2362.2</ele>
        <time>2021-02-27T07:57:29Z</time>
      </trkpt>
      <trkpt lat="45.17896" lon="5.98184">
        <ele>2362.2</ele>
        <time>2021-02-27T07:57:30Z</time>
      </trkpt>
      <trkpt lat="45.179" lon="5.98181">
        <ele>2362.2</ele>
        <time>2021-02-27T07:57:31Z</time>
      </trkpt>
      <trkpt lat="45.17904" lon="5.98177">
        <ele>2362.2</ele>
        <time>2021-02-27T07:57:32Z</time>
      </trkpt>
      <trkpt lat="45.17908" lon="5.98174">
        <ele>2356.8</ele>
        <time>2021-02-27T07:57:33Z</time>
      </trkpt>
      <trkpt lat="45.17913" lon="5.98166">
        <ele>2356.8</ele>
        <time>2021-02-27T07:57:34Z</time>
      </trkpt>
      <trkpt lat="45.17915" lon="5.98162">
        <ele>2356.8</ele>
        <time>2021-02-27T07:57:35Z</time>
      </trkpt>
      <trkpt lat="45.17917" lon="5.98157">
        <ele>2356.8</ele>
        <time>2021-02-27T07:57:36Z</time>
      </trkpt>
      <trkpt lat="45.17919" lon="5.98153">
        <ele>2356.8</ele>
        <time>2021-02-27T07:57:37Z</time>
      </trkpt>
      <trkpt lat="45.17922" lon="5.98148">
        <ele>2356.8</ele>
        <time>2021-02-27T07:57:38Z</time>
      </trkpt>
      <trkpt lat="45.17924" lon="5.98144">
        <ele>2356.8</ele>
        <time>2021-02-27T07:57:39Z</time>
      </trkpt>
      <trkpt lat="45.17926" lon="5.98139">
        <ele>2356.8</ele>
        <time>2021-02-27T07:57:40Z</time>
      </trkpt>
      <trkpt lat="45.17928" lon="5.98135">
        <ele>2356.8</ele>
        <time>2021-02-27T07:57:41Z</time>
      </trkpt>
      <trkpt lat="45.1793" lon="5.98131">
        <ele>2356.8</ele>
        <time>2021-02-27T07:57:42Z</time>
      </trkpt>
      <trkpt lat="45.17932" lon="5.98126">
        <ele>2350.8</ele>
        <time>2021-02-27T07:57:43Z</time>
      </trkpt>
      <trkpt lat="45.17932" lon="5.98116">
        <ele>2350.8</ele>
        <time>2021-02-27T07:57:44Z</time>
      </trkpt>
      <trkpt lat="45.17932" lon="5.98112">
        <ele>2350.8</ele>
        <time>2021-02-27T07:57:45Z</time>
      </trkpt>
      <trkpt lat="45.17931" lon="5.98108">
        <ele>2350.8</ele>
        <time>2021-02-27T07:57:46Z</time>
      </trkpt>
      <trkpt lat="45.1793" lon="5.98104">
        <ele>2350.8</ele>
        <time>2021-02-27T07:57:47Z</time>
      </trkpt>
      <trkpt lat="45.1793" lon="5.981">
        <ele>2350.8</ele>
        <time>2021-02-27T07:57:48Z</time>
      </trkpt>
      <trkpt lat="45.17929" lon="5.98095">
        <ele>2350.8</ele>
        <time>2021-02-27T07:57:49Z</time>
      </trkpt>
      <trkpt lat="45.17928" lon="5.98091">
        <ele>2350.8</ele>
        <time>2021-02-27T07:57:50Z</time>
      </trkpt>
      <trkpt lat="45.17928" lon="5.98087">
        <ele>2350.8</ele>
        <time>2021-02-27T07:57:51Z</time>
      </trkpt>
      <trkpt lat="45.17927" lon="5.98083">
        <ele>2350.8</ele>
        <time>2021-02-27T07:57:52Z</time>
      </trkpt>
      <trkpt lat="45.17926" lon="5.98079">
        <ele>2344.6</ele>
        <time>2021-02-27T07:57:53Z</time>
      </trkpt>
      <trkpt lat="45.17923" lon="5.98071">
        <ele>2344.6</ele>
        <time>2021-02-27T07:57:54Z</time>
      </trkpt>
      <trkpt lat="45.17922" lon="5.98068">
        <ele>2344.6</ele>
        <time>2021-02-27T07:57:55Z</time>
      </trkpt>
      <trkpt lat="45.1792" lon="5.98064">
        <ele>2344.6</ele>
        <time>2021-02-27T07:57:56Z</time>
      </trkpt>
      <trkpt lat="45.17919" lon="5.98061">
        <ele>2344.6</ele>
        <time>2021-02-27T07:57:57Z</time>
      </trkpt>
      <trkpt lat="45.17918" lon="5.98057">
        <ele>2344.6</ele>
        <time>2021-02-27T07:57:58Z</time>
      </trkpt>
      <trkpt lat="45.17916" lon="5.98053">
        <ele>2344.6</ele>
        <time>2021-02-27T07:57:59Z</time>
      </trkpt>
      <trkpt lat="45.17915" lon="5.9805">
        <ele>2344.6</ele>
        <time>2021-02-27T07:58:00Z</time>
      </trkpt>
      <trkpt lat="45.17913" lon="5.98046">
        <ele>2344.6</ele>
        <time>2021-02-27T07:58:01Z</time>
      </trkpt>
      <trkpt lat="45.17912" lon="5.98043">
        <ele>2344.6</ele>
        <time>2021-02-27T07:58:02Z</time>
      </trkpt>
      <trkpt lat="45.1791" lon="5.98039">
        <ele>2338.6</ele>
        <time>2021-02-27T07:58:03Z</time>
      </trkpt>
      <trkpt lat="45.17909" lon="5.98036">
        <ele>2338.6</ele>
        <time>2021-02-27T07:58:05Z</time>
      </trkpt>
      <trkpt lat="45.17909" lon="5.98033">
        <ele>2338.6</ele>
        <time>2021-02-27T07:58:07Z</time>
      </trkpt>
      <trkpt lat="45.17907" lon="5.98029">
        <ele>2338.6</ele>
        <time>2021-02-27T07:58:09Z</time>
      </trkpt>
      <trkpt lat="45.17906" lon="5.98026">
        <ele>2338.6</ele>
        <time>2021-02-27T07:58:10Z</time>
      </trkpt>
      <trkpt lat="45.17905" lon="5.98024">
        <ele>2338.6</ele>
        <time>2021-02-27T07:58:11Z</time>
      </trkpt>
      <trkpt lat="45.17903" lon="5.98021">
        <ele>2336.8</ele>
        <time>2021-02-27T07:58:13Z</time>
      </trkpt>
      <trkpt lat="45.17902" lon="5.98013">
        <ele>2336.8</ele>
        <time>2021-02-27T07:58:15Z</time>
      </trkpt>
      <trkpt lat="45.17902" lon="5.98009">
        <ele>2336.8</ele>
        <time>2021-02-27T07:58:16Z</time>
      </trkpt>
      <trkpt lat="45.17903" lon="5.98005">
        <ele>2336.8</ele>
        <time>2021-02-27T07:58:17Z</time>
      </trkpt>
      <trkpt lat="45.17903" lon="5.98">
        <ele>2336.8</ele>
        <time>2021-02-27T07:58:18Z</time>
      </trkpt>
      <trkpt lat="45.17903" lon="5.97996">
        <ele>2336.8</ele>
        <time>2021-02-27T07:58:19Z</time>
      </trkpt>
      <trkpt lat="45.17903" lon="5.97992">
        <ele>2336.8</ele>
        <time>2021-02-27T07:58:20Z</time>
      </trkpt>
      <trkpt lat="45.17903" lon="5.97987">
        <ele>2336.8</ele>
        <time>2021-02-27T07:58:21Z</time>
      </trkpt>
      <trkpt lat="45.17903" lon="5.97983">
        <ele>2336.8</ele>
        <time>2021-02-27T07:58:22Z</time>
      </trkpt>
      <trkpt lat="45.17904" lon="5.97979">
        <ele>2335.6</ele>
        <time>2021-02-27T07:58:23Z</time>
      </trkpt>
      <trkpt lat="45.17905" lon="5.97974">
        <ele>2335.6</ele>
        <time>2021-02-27T07:58:24Z</time>
      </trkpt>
      <trkpt lat="45.17905" lon="5.97971">
        <ele>2335.6</ele>
        <time>2021-02-27T07:58:25Z</time>
      </trkpt>
      <trkpt lat="45.17907" lon="5.97967">
        <ele>2335.6</ele>
        <time>2021-02-27T07:58:26Z</time>
      </trkpt>
      <trkpt lat="45.17909" lon="5.97965">
        <ele>2335.6</ele>
        <time>2021-02-27T07:58:27Z</time>
      </trkpt>
      <trkpt lat="45.1791" lon="5.97963">
        <ele>2335.6</ele>
        <time>2021-02-27T07:58:28Z</time>
      </trkpt>
      <trkpt lat="45.1791" lon="5.97963">
        <ele>2336</ele>
        <time>2021-02-27T07:58:33Z</time>
      </trkpt>
      <trkpt lat="45.17912" lon="5.97963">
        <ele>2336</ele>
        <time>2021-02-27T07:58:35Z</time>
      </trkpt>
      <trkpt lat="45.17912" lon="5.97963">
        <ele>2337</ele>
        <time>2021-02-27T07:58:43Z</time>
      </trkpt>
      <trkpt lat="45.17913" lon="5.97964">
        <ele>2337.8</ele>
        <time>2021-02-27T07:58:53Z</time>
      </trkpt>
      <trkpt lat="45.17913" lon="5.97964">
        <ele>2336.8</ele>
        <time>2021-02-27T07:59:03Z</time>
      </trkpt>
      <trkpt lat="45.17913" lon="5.97964">
        <ele>2336.2</ele>
        <time>2021-02-27T07:59:13Z</time>
      </trkpt>
      <trkpt lat="45.17913" lon="5.97964">
        <ele>2337.2</ele>
        <time>2021-02-27T07:59:23Z</time>
      </trkpt>
      <trkpt lat="45.17914" lon="5.97965">
        <ele>2337</ele>
        <time>2021-02-27T07:59:33Z</time>
      </trkpt>
      <trkpt lat="45.17914" lon="5.97965">
        <ele>2336.4</ele>
        <time>2021-02-27T07:59:43Z</time>
      </trkpt>
      <trkpt lat="45.17914" lon="5.97965">
        <ele>2336.8</ele>
        <time>2021-02-27T07:59:53Z</time>
      </trkpt>
      <trkpt lat="45.17914" lon="5.97965">
        <ele>2336.6</ele>
        <time>2021-02-27T08:00:03Z</time>
      </trkpt>
      <trkpt lat="45.17914" lon="5.97966">
        <ele>2338</ele>
        <time>2021-02-27T08:00:13Z</time>
      </trkpt>
      <trkpt lat="45.17915" lon="5.97966">
        <ele>2337.8</ele>
        <time>2021-02-27T08:00:23Z</time>
      </trkpt>
      <trkpt lat="45.17915" lon="5.97966">
        <ele>2337.4</ele>
        <time>2021-02-27T08:00:33Z</time>
      </trkpt>
      <trkpt lat="45.17915" lon="5.97967">
        <ele>2337.4</ele>
        <time>2021-02-27T08:00:37Z</time>
      </trkpt>
      <trkpt lat="45.17915" lon="5.97967">
        <ele>2337.4</ele>
        <time>2021-02-27T08:00:43Z</time>
      </trkpt>
      <trkpt lat="45.17915" lon="5.97967">
        <ele>2337.4</ele>
        <time>2021-02-27T08:00:53Z</time>
      </trkpt>
      <trkpt lat="45.17916" lon="5.97967">
        <ele>2337.8</ele>
        <time>2021-02-27T08:01:03Z</time>
      </trkpt>
      <trkpt lat="45.17916" lon="5.97968">
        <ele>2337.8</ele>
        <time>2021-02-27T08:01:08Z</time>
      </trkpt>
      <trkpt lat="45.17916" lon="5.97968">
        <ele>2337.8</ele>
        <time>2021-02-27T08:01:10Z</time>
      </trkpt>
      <trkpt lat="45.17916" lon="5.97968">
        <ele>2337.8</ele>
        <time>2021-02-27T08:01:12Z</time>
      </trkpt>
      <trkpt lat="45.17917" lon="5.97968">
        <ele>2338.8</ele>
        <time>2021-02-27T08:01:13Z</time>
      </trkpt>
      <trkpt lat="45.17918" lon="5.97975">
        <ele>2338.8</ele>
        <time>2021-02-27T08:01:14Z</time>
      </trkpt>
      <trkpt lat="45.17918" lon="5.97977">
        <ele>2338.8</ele>
        <time>2021-02-27T08:01:16Z</time>
      </trkpt>
      <trkpt lat="45.17919" lon="5.97978">
        <ele>2338.8</ele>
        <time>2021-02-27T08:01:18Z</time>
      </trkpt>
      <trkpt lat="45.17919" lon="5.9798">
        <ele>2338.8</ele>
        <time>2021-02-27T08:01:22Z</time>
      </trkpt>
      <trkpt lat="45.17919" lon="5.97982">
        <ele>2341.6</ele>
        <time>2021-02-27T08:01:23Z</time>
      </trkpt>
      <trkpt lat="45.17922" lon="5.97983">
        <ele>2341.6</ele>
        <time>2021-02-27T08:01:25Z</time>
      </trkpt>
      <trkpt lat="45.17925" lon="5.97983">
        <ele>2341.6</ele>
        <time>2021-02-27T08:01:28Z</time>
      </trkpt>
      <trkpt lat="45.17927" lon="5.97984">
        <ele>2341.6</ele>
        <time>2021-02-27T08:01:31Z</time>
      </trkpt>
      <trkpt lat="45.1793" lon="5.97985">
        <ele>2343.8</ele>
        <time>2021-02-27T08:01:33Z</time>
      </trkpt>
      <trkpt lat="45.17932" lon="5.97987">
        <ele>2343.8</ele>
        <time>2021-02-27T08:01:35Z</time>
      </trkpt>
      <trkpt lat="45.17933" lon="5.97988">
        <ele>2343.8</ele>
        <time>2021-02-27T08:01:37Z</time>
      </trkpt>
      <trkpt lat="45.17934" lon="5.9799">
        <ele>2343.8</ele>
        <time>2021-02-27T08:01:39Z</time>
      </trkpt>
      <trkpt lat="45.17935" lon="5.97991">
        <ele>2343.8</ele>
        <time>2021-02-27T08:01:42Z</time>
      </trkpt>
      <trkpt lat="45.17936" lon="5.97993">
        <ele>2346.4</ele>
        <time>2021-02-27T08:01:43Z</time>
      </trkpt>
      <trkpt lat="45.17935" lon="5.97996">
        <ele>2346.4</ele>
        <time>2021-02-27T08:01:45Z</time>
      </trkpt>
      <trkpt lat="45.17935" lon="5.97998">
        <ele>2346.4</ele>
        <time>2021-02-27T08:01:48Z</time>
      </trkpt>
      <trkpt lat="45.17934" lon="5.98">
        <ele>2346.4</ele>
        <time>2021-02-27T08:01:50Z</time>
      </trkpt>
      <trkpt lat="45.17933" lon="5.98002">
        <ele>2346.4</ele>
        <time>2021-02-27T08:01:52Z</time>
      </trkpt>
      <trkpt lat="45.17933" lon="5.98004">
        <ele>2349.4</ele>
        <time>2021-02-27T08:01:53Z</time>
      </trkpt>
      <trkpt lat="45.17932" lon="5.98008">
        <ele>2349.4</ele>
        <time>2021-02-27T08:01:55Z</time>
      </trkpt>
      <trkpt lat="45.17931" lon="5.98011">
        <ele>2349.4</ele>
        <time>2021-02-27T08:01:58Z</time>
      </trkpt>
      <trkpt lat="45.17931" lon="5.98013">
        <ele>2349.4</ele>
        <time>2021-02-27T08:02:00Z</time>
      </trkpt>
      <trkpt lat="45.1793" lon="5.98017">
        <ele>2351.8</ele>
        <time>2021-02-27T08:02:03Z</time>
      </trkpt>
      <trkpt lat="45.1793" lon="5.9802">
        <ele>2351.8</ele>
        <time>2021-02-27T08:02:05Z</time>
      </trkpt>
      <trkpt lat="45.17931" lon="5.98023">
        <ele>2351.8</ele>
        <time>2021-02-27T08:02:08Z</time>
      </trkpt>
      <trkpt lat="45.17932" lon="5.98026">
        <ele>2351.8</ele>
        <time>2021-02-27T08:02:11Z</time>
      </trkpt>
      <trkpt lat="45.17932" lon="5.98026">
        <ele>2354.4</ele>
        <time>2021-02-27T08:02:13Z</time>
      </trkpt>
      <trkpt lat="45.17934" lon="5.98026">
        <ele>2354.4</ele>
        <time>2021-02-27T08:02:14Z</time>
      </trkpt>
      <trkpt lat="45.17936" lon="5.98026">
        <ele>2354.4</ele>
        <time>2021-02-27T08:02:17Z</time>
      </trkpt>
      <trkpt lat="45.17939" lon="5.98025">
        <ele>2354.4</ele>
        <time>2021-02-27T08:02:21Z</time>
      </trkpt>
      <trkpt lat="45.17939" lon="5.98025">
        <ele>2357</ele>
        <time>2021-02-27T08:02:23Z</time>
      </trkpt>
      <trkpt lat="45.17943" lon="5.98024">
        <ele>2357</ele>
        <time>2021-02-27T08:02:24Z</time>
      </trkpt>
      <trkpt lat="45.17944" lon="5.98024">
        <ele>2357</ele>
        <time>2021-02-27T08:02:26Z</time>
      </trkpt>
      <trkpt lat="45.17946" lon="5.98023">
        <ele>2357</ele>
        <time>2021-02-27T08:02:28Z</time>
      </trkpt>
      <trkpt lat="45.17947" lon="5.98023">
        <ele>2357</ele>
        <time>2021-02-27T08:02:32Z</time>
      </trkpt>
      <trkpt lat="45.17948" lon="5.98023">
        <ele>2359.8</ele>
        <time>2021-02-27T08:02:33Z</time>
      </trkpt>
      <trkpt lat="45.17952" lon="5.98022">
        <ele>2359.8</ele>
        <time>2021-02-27T08:02:34Z</time>
      </trkpt>
      <trkpt lat="45.17953" lon="5.98023">
        <ele>2359.8</ele>
        <time>2021-02-27T08:02:35Z</time>
      </trkpt>
      <trkpt lat="45.17955" lon="5.98024">
        <ele>2359.8</ele>
        <time>2021-02-27T08:02:38Z</time>
      </trkpt>
      <trkpt lat="45.17956" lon="5.98024">
        <ele>2359.8</ele>
        <time>2021-02-27T08:02:40Z</time>
      </trkpt>
      <trkpt lat="45.17957" lon="5.98025">
        <ele>2359.8</ele>
        <time>2021-02-27T08:02:42Z</time>
      </trkpt>
      <trkpt lat="45.17959" lon="5.98025">
        <ele>2362.6</ele>
        <time>2021-02-27T08:02:43Z</time>
      </trkpt>
      <trkpt lat="45.17959" lon="5.98026">
        <ele>2362.6</ele>
        <time>2021-02-27T08:02:44Z</time>
      </trkpt>
      <trkpt lat="45.1796" lon="5.98029">
        <ele>2362.6</ele>
        <time>2021-02-27T08:02:46Z</time>
      </trkpt>
      <trkpt lat="45.17961" lon="5.98033">
        <ele>2362.6</ele>
        <time>2021-02-27T08:02:49Z</time>
      </trkpt>
      <trkpt lat="45.17962" lon="5.98036">
        <ele>2362.6</ele>
        <time>2021-02-27T08:02:51Z</time>
      </trkpt>
      <trkpt lat="45.17962" lon="5.98039">
        <ele>2365.2</ele>
        <time>2021-02-27T08:02:53Z</time>
      </trkpt>
      <trkpt lat="45.17962" lon="5.98045">
        <ele>2365.2</ele>
        <time>2021-02-27T08:02:56Z</time>
      </trkpt>
      <trkpt lat="45.17962" lon="5.98047">
        <ele>2365.2</ele>
        <time>2021-02-27T08:02:58Z</time>
      </trkpt>
      <trkpt lat="45.17962" lon="5.98049">
        <ele>2365.2</ele>
        <time>2021-02-27T08:03:00Z</time>
      </trkpt>
      <trkpt lat="45.17962" lon="5.98051">
        <ele>2365.2</ele>
        <time>2021-02-27T08:03:02Z</time>
      </trkpt>
      <trkpt lat="45.17962" lon="5.98053">
        <ele>2368.4</ele>
        <time>2021-02-27T08:03:03Z</time>
      </trkpt>
      <trkpt lat="45.17963" lon="5.98057">
        <ele>2368.4</ele>
        <time>2021-02-27T08:03:05Z</time>
      </trkpt>
      <trkpt lat="45.17964" lon="5.98058">
        <ele>2368.4</ele>
        <time>2021-02-27T08:03:07Z</time>
      </trkpt>
      <trkpt lat="45.17964" lon="5.98059">
        <ele>2368.4</ele>
        <time>2021-02-27T08:03:09Z</time>
      </trkpt>
      <trkpt lat="45.17965" lon="5.9806">
        <ele>2368.4</ele>
        <time>2021-02-27T08:03:12Z</time>
      </trkpt>
      <trkpt lat="45.17965" lon="5.98062">
        <ele>2370.6</ele>
        <time>2021-02-27T08:03:13Z</time>
      </trkpt>
      <trkpt lat="45.17969" lon="5.98064">
        <ele>2370.6</ele>
        <time>2021-02-27T08:03:16Z</time>
      </trkpt>
      <trkpt lat="45.17971" lon="5.98064">
        <ele>2370.6</ele>
        <time>2021-02-27T08:03:19Z</time>
      </trkpt>
      <trkpt lat="45.17973" lon="5.98065">
        <ele>2374.2</ele>
        <time>2021-02-27T08:03:23Z</time>
      </trkpt>
      <trkpt lat="45.17975" lon="5.98065">
        <ele>2374.2</ele>
        <time>2021-02-27T08:03:26Z</time>
      </trkpt>
      <trkpt lat="45.17976" lon="5.98066">
        <ele>2374.2</ele>
        <time>2021-02-27T08:03:28Z</time>
      </trkpt>
      <trkpt lat="45.17978" lon="5.98066">
        <ele>2374.2</ele>
        <time>2021-02-27T08:03:30Z</time>
      </trkpt>
      <trkpt lat="45.1798" lon="5.98067">
        <ele>2374.2</ele>
        <time>2021-02-27T08:03:32Z</time>
      </trkpt>
      <trkpt lat="45.17981" lon="5.98067">
        <ele>2377.2</ele>
        <time>2021-02-27T08:03:33Z</time>
      </trkpt>
      <trkpt lat="45.17985" lon="5.98066">
        <ele>2377.2</ele>
        <time>2021-02-27T08:03:34Z</time>
      </trkpt>
      <trkpt lat="45.17987" lon="5.98065">
        <ele>2377.2</ele>
        <time>2021-02-27T08:03:36Z</time>
      </trkpt>
      <trkpt lat="45.17989" lon="5.98065">
        <ele>2377.2</ele>
        <time>2021-02-27T08:03:37Z</time>
      </trkpt>
      <trkpt lat="45.17991" lon="5.98064">
        <ele>2377.2</ele>
        <time>2021-02-27T08:03:38Z</time>
      </trkpt>
      <trkpt lat="45.17993" lon="5.98063">
        <ele>2377.2</ele>
        <time>2021-02-27T08:03:40Z</time>
      </trkpt>
      <trkpt lat="45.17995" lon="5.98062">
        <ele>2377.2</ele>
        <time>2021-02-27T08:03:42Z</time>
      </trkpt>
      <trkpt lat="45.17997" lon="5.98061">
        <ele>2378.2</ele>
        <time>2021-02-27T08:03:43Z</time>
      </trkpt>
      <trkpt lat="45.18001" lon="5.98059">
        <ele>2378.2</ele>
        <time>2021-02-27T08:03:44Z</time>
      </trkpt>
      <trkpt lat="45.18003" lon="5.98058">
        <ele>2378.2</ele>
        <time>2021-02-27T08:03:46Z</time>
      </trkpt>
      <trkpt lat="45.18005" lon="5.98057">
        <ele>2378.2</ele>
        <time>2021-02-27T08:03:47Z</time>
      </trkpt>
      <trkpt lat="45.18007" lon="5.98055">
        <ele>2378.2</ele>
        <time>2021-02-27T08:03:49Z</time>
      </trkpt>
      <trkpt lat="45.18009" lon="5.98054">
        <ele>2378.2</ele>
        <time>2021-02-27T08:03:51Z</time>
      </trkpt>
      <trkpt lat="45.18011" lon="5.98053">
        <ele>2378.2</ele>
        <time>2021-02-27T08:03:52Z</time>
      </trkpt>
      <trkpt lat="45.18013" lon="5.98052">
        <ele>2378.4</ele>
        <time>2021-02-27T08:03:53Z</time>
      </trkpt>
      <trkpt lat="45.18016" lon="5.98049">
        <ele>2378.4</ele>
        <time>2021-02-27T08:03:54Z</time>
      </trkpt>
      <trkpt lat="45.18018" lon="5.98049">
        <ele>2378.4</ele>
        <time>2021-02-27T08:03:56Z</time>
      </trkpt>
      <trkpt lat="45.1802" lon="5.98048">
        <ele>2378.4</ele>
        <time>2021-02-27T08:03:58Z</time>
      </trkpt>
      <trkpt lat="45.18022" lon="5.98047">
        <ele>2378.4</ele>
        <time>2021-02-27T08:04:00Z</time>
      </trkpt>
      <trkpt lat="45.18025" lon="5.98046">
        <ele>2378.4</ele>
        <time>2021-02-27T08:04:02Z</time>
      </trkpt>
      <trkpt lat="45.18027" lon="5.98046">
        <ele>2379.2</ele>
        <time>2021-02-27T08:04:03Z</time>
      </trkpt>
      <trkpt lat="45.1803" lon="5.98045">
        <ele>2379.2</ele>
        <time>2021-02-27T08:04:04Z</time>
      </trkpt>
      <trkpt lat="45.18032" lon="5.98045">
        <ele>2379.2</ele>
        <time>2021-02-27T08:04:06Z</time>
      </trkpt>
      <trkpt lat="45.18035" lon="5.98045">
        <ele>2379.2</ele>
        <time>2021-02-27T08:04:08Z</time>
      </trkpt>
      <trkpt lat="45.18037" lon="5.98044">
        <ele>2379.2</ele>
        <time>2021-02-27T08:04:10Z</time>
      </trkpt>
      <trkpt lat="45.18039" lon="5.98044">
        <ele>2379.2</ele>
        <time>2021-02-27T08:04:12Z</time>
      </trkpt>
      <trkpt lat="45.18041" lon="5.98044">
        <ele>2379.6</ele>
        <time>2021-02-27T08:04:13Z</time>
      </trkpt>
      <trkpt lat="45.18045" lon="5.98044">
        <ele>2379.6</ele>
        <time>2021-02-27T08:04:14Z</time>
      </trkpt>
      <trkpt lat="45.18047" lon="5.98045">
        <ele>2379.6</ele>
        <time>2021-02-27T08:04:15Z</time>
      </trkpt>
      <trkpt lat="45.18049" lon="5.98046">
        <ele>2379.6</ele>
        <time>2021-02-27T08:04:17Z</time>
      </trkpt>
      <trkpt lat="45.18051" lon="5.98046">
        <ele>2379.6</ele>
        <time>2021-02-27T08:04:18Z</time>
      </trkpt>
      <trkpt lat="45.18053" lon="5.98047">
        <ele>2379.6</ele>
        <time>2021-02-27T08:04:20Z</time>
      </trkpt>
      <trkpt lat="45.18055" lon="5.98048">
        <ele>2379.6</ele>
        <time>2021-02-27T08:04:22Z</time>
      </trkpt>
      <trkpt lat="45.18057" lon="5.98048">
        <ele>2379.4</ele>
        <time>2021-02-27T08:04:23Z</time>
      </trkpt>
      <trkpt lat="45.18058" lon="5.98049">
        <ele>2379.4</ele>
        <time>2021-02-27T08:04:24Z</time>
      </trkpt>
      <trkpt lat="45.1806" lon="5.98049">
        <ele>2379.4</ele>
        <time>2021-02-27T08:04:26Z</time>
      </trkpt>
      <trkpt lat="45.18063" lon="5.98048">
        <ele>2379.4</ele>
        <time>2021-02-27T08:04:28Z</time>
      </trkpt>
      <trkpt lat="45.18065" lon="5.98047">
        <ele>2379.4</ele>
        <time>2021-02-27T08:04:30Z</time>
      </trkpt>
      <trkpt lat="45.18067" lon="5.98046">
        <ele>2381.2</ele>
        <time>2021-02-27T08:04:33Z</time>
      </trkpt>
      <trkpt lat="45.18069" lon="5.98047">
        <ele>2381.2</ele>
        <time>2021-02-27T08:04:35Z</time>
      </trkpt>
      <trkpt lat="45.18071" lon="5.98048">
        <ele>2381.2</ele>
        <time>2021-02-27T08:04:38Z</time>
      </trkpt>
      <trkpt lat="45.18073" lon="5.98049">
        <ele>2381.2</ele>
        <time>2021-02-27T08:04:41Z</time>
      </trkpt>
      <trkpt lat="45.18077" lon="5.98049">
        <ele>2384</ele>
        <time>2021-02-27T08:04:43Z</time>
      </trkpt>
      <trkpt lat="45.1808" lon="5.98051">
        <ele>2384</ele>
        <time>2021-02-27T08:04:46Z</time>
      </trkpt>
      <trkpt lat="45.18081" lon="5.98052">
        <ele>2384</ele>
        <time>2021-02-27T08:04:48Z</time>
      </trkpt>
      <trkpt lat="45.18083" lon="5.98053">
        <ele>2384</ele>
        <time>2021-02-27T08:04:50Z</time>
      </trkpt>
      <trkpt lat="45.18084" lon="5.98054">
        <ele>2384</ele>
        <time>2021-02-27T08:04:52Z</time>
      </trkpt>
      <trkpt lat="45.18085" lon="5.98055">
        <ele>2387</ele>
        <time>2021-02-27T08:04:53Z</time>
      </trkpt>
      <trkpt lat="45.18086" lon="5.98057">
        <ele>2387</ele>
        <time>2021-02-27T08:04:54Z</time>
      </trkpt>
      <trkpt lat="45.18087" lon="5.98059">
        <ele>2387</ele>
        <time>2021-02-27T08:04:56Z</time>
      </trkpt>
      <trkpt lat="45.18088" lon="5.98063">
        <ele>2387</ele>
        <time>2021-02-27T08:04:58Z</time>
      </trkpt>
      <trkpt lat="45.18089" lon="5.98066">
        <ele>2387</ele>
        <time>2021-02-27T08:05:01Z</time>
      </trkpt>
      <trkpt lat="45.18089" lon="5.98069">
        <ele>2389.8</ele>
        <time>2021-02-27T08:05:03Z</time>
      </trkpt>
      <trkpt lat="45.18089" lon="5.98072">
        <ele>2389.8</ele>
        <time>2021-02-27T08:05:06Z</time>
      </trkpt>
      <trkpt lat="45.1809" lon="5.98075">
        <ele>2389.8</ele>
        <time>2021-02-27T08:05:08Z</time>
      </trkpt>
      <trkpt lat="45.18091" lon="5.98079">
        <ele>2389.8</ele>
        <time>2021-02-27T08:05:10Z</time>
      </trkpt>
      <trkpt lat="45.18093" lon="5.98081">
        <ele>2389.8</ele>
        <time>2021-02-27T08:05:11Z</time>
      </trkpt>
      <trkpt lat="45.18095" lon="5.98085">
        <ele>2392.2</ele>
        <time>2021-02-27T08:05:13Z</time>
      </trkpt>
      <trkpt lat="45.18095" lon="5.9809">
        <ele>2392.2</ele>
        <time>2021-02-27T08:05:16Z</time>
      </trkpt>
      <trkpt lat="45.18094" lon="5.98092">
        <ele>2392.2</ele>
        <time>2021-02-27T08:05:18Z</time>
      </trkpt>
      <trkpt lat="45.18094" lon="5.98094">
        <ele>2392.2</ele>
        <time>2021-02-27T08:05:20Z</time>
      </trkpt>
      <trkpt lat="45.18093" lon="5.98096">
        <ele>2392.2</ele>
        <time>2021-02-27T08:05:22Z</time>
      </trkpt>
      <trkpt lat="45.18093" lon="5.98098">
        <ele>2394.2</ele>
        <time>2021-02-27T08:05:23Z</time>
      </trkpt>
      <trkpt lat="45.18092" lon="5.98101">
        <ele>2394.2</ele>
        <time>2021-02-27T08:05:24Z</time>
      </trkpt>
      <trkpt lat="45.18092" lon="5.98103">
        <ele>2394.2</ele>
        <time>2021-02-27T08:05:26Z</time>
      </trkpt>
      <trkpt lat="45.18092" lon="5.98105">
        <ele>2394.2</ele>
        <time>2021-02-27T08:05:29Z</time>
      </trkpt>
      <trkpt lat="45.18092" lon="5.98107">
        <ele>2396.6</ele>
        <time>2021-02-27T08:05:33Z</time>
      </trkpt>
      <trkpt lat="45.18092" lon="5.98109">
        <ele>2396.6</ele>
        <time>2021-02-27T08:05:36Z</time>
      </trkpt>
      <trkpt lat="45.18092" lon="5.98111">
        <ele>2396.6</ele>
        <time>2021-02-27T08:05:39Z</time>
      </trkpt>
      <trkpt lat="45.18091" lon="5.98113">
        <ele>2396.6</ele>
        <time>2021-02-27T08:05:42Z</time>
      </trkpt>
      <trkpt lat="45.18091" lon="5.98115">
        <ele>2399.8</ele>
        <time>2021-02-27T08:05:43Z</time>
      </trkpt>
      <trkpt lat="45.1809" lon="5.9812">
        <ele>2399.8</ele>
        <time>2021-02-27T08:05:45Z</time>
      </trkpt>
      <trkpt lat="45.1809" lon="5.98122">
        <ele>2399.8</ele>
        <time>2021-02-27T08:05:48Z</time>
      </trkpt>
      <trkpt lat="45.18089" lon="5.98124">
        <ele>2399.8</ele>
        <time>2021-02-27T08:05:50Z</time>
      </trkpt>
      <trkpt lat="45.18088" lon="5.98126">
        <ele>2399.8</ele>
        <time>2021-02-27T08:05:52Z</time>
      </trkpt>
      <trkpt lat="45.18088" lon="5.98127">
        <ele>2403</ele>
        <time>2021-02-27T08:05:53Z</time>
      </trkpt>
      <trkpt lat="45.18087" lon="5.9813">
        <ele>2403</ele>
        <time>2021-02-27T08:05:54Z</time>
      </trkpt>
      <trkpt lat="45.18086" lon="5.98133">
        <ele>2403</ele>
        <time>2021-02-27T08:05:56Z</time>
      </trkpt>
      <trkpt lat="45.18085" lon="5.98136">
        <ele>2403</ele>
        <time>2021-02-27T08:05:58Z</time>
      </trkpt>
      <trkpt lat="45.18084" lon="5.98138">
        <ele>2403</ele>
        <time>2021-02-27T08:06:00Z</time>
      </trkpt>
      <trkpt lat="45.18083" lon="5.98142">
        <ele>2405.4</ele>
        <time>2021-02-27T08:06:03Z</time>
      </trkpt>
      <trkpt lat="45.18082" lon="5.98145">
        <ele>2405.4</ele>
        <time>2021-02-27T08:06:05Z</time>
      </trkpt>
      <trkpt lat="45.18081" lon="5.98147">
        <ele>2405.4</ele>
        <time>2021-02-27T08:06:07Z</time>
      </trkpt>
      <trkpt lat="45.18079" lon="5.98149">
        <ele>2405.4</ele>
        <time>2021-02-27T08:06:09Z</time>
      </trkpt>
      <trkpt lat="45.18078" lon="5.98151">
        <ele>2405.4</ele>
        <time>2021-02-27T08:06:11Z</time>
      </trkpt>
      <trkpt lat="45.18077" lon="5.98154">
        <ele>2408.6</ele>
        <time>2021-02-27T08:06:13Z</time>
      </trkpt>
      <trkpt lat="45.18075" lon="5.98157">
        <ele>2408.6</ele>
        <time>2021-02-27T08:06:16Z</time>
      </trkpt>
      <trkpt lat="45.18074" lon="5.9816">
        <ele>2408.6</ele>
        <time>2021-02-27T08:06:19Z</time>
      </trkpt>
      <trkpt lat="45.18074" lon="5.9816">
        <ele>2411.2</ele>
        <time>2021-02-27T08:06:23Z</time>
      </trkpt>
      <trkpt lat="45.18077" lon="5.9816">
        <ele>2411.2</ele>
        <time>2021-02-27T08:06:28Z</time>
      </trkpt>
      <trkpt lat="45.18079" lon="5.98159">
        <ele>2411.2</ele>
        <time>2021-02-27T08:06:30Z</time>
      </trkpt>
      <trkpt lat="45.18082" lon="5.98157">
        <ele>2412.4</ele>
        <time>2021-02-27T08:06:33Z</time>
      </trkpt>
      <trkpt lat="45.18084" lon="5.98157">
        <ele>2412.4</ele>
        <time>2021-02-27T08:06:35Z</time>
      </trkpt>
      <trkpt lat="45.18086" lon="5.98157">
        <ele>2412.4</ele>
        <time>2021-02-27T08:06:37Z</time>
      </trkpt>
      <trkpt lat="45.18089" lon="5.98156">
        <ele>2412.4</ele>
        <time>2021-02-27T08:06:39Z</time>
      </trkpt>
      <trkpt lat="45.18091" lon="5.98156">
        <ele>2412.4</ele>
        <time>2021-02-27T08:06:41Z</time>
      </trkpt>
      <trkpt lat="45.18093" lon="5.98156">
        <ele>2414.6</ele>
        <time>2021-02-27T08:06:43Z</time>
      </trkpt>
      <trkpt lat="45.18095" lon="5.98156">
        <ele>2414.6</ele>
        <time>2021-02-27T08:06:45Z</time>
      </trkpt>
      <trkpt lat="45.18098" lon="5.98154">
        <ele>2414.6</ele>
        <time>2021-02-27T08:06:47Z</time>
      </trkpt>
      <trkpt lat="45.181" lon="5.98154">
        <ele>2414.6</ele>
        <time>2021-02-27T08:06:49Z</time>
      </trkpt>
      <trkpt lat="45.18102" lon="5.98153">
        <ele>2414.6</ele>
        <time>2021-02-27T08:06:51Z</time>
      </trkpt>
      <trkpt lat="45.18102" lon="5.98153">
        <ele>2417</ele>
        <time>2021-02-27T08:06:53Z</time>
      </trkpt>
      <trkpt lat="45.18104" lon="5.98151">
        <ele>2417</ele>
        <time>2021-02-27T08:06:55Z</time>
      </trkpt>
      <trkpt lat="45.18107" lon="5.98151">
        <ele>2417</ele>
        <time>2021-02-27T08:06:58Z</time>
      </trkpt>
      <trkpt lat="45.18109" lon="5.98152">
        <ele>2417</ele>
        <time>2021-02-27T08:07:00Z</time>
      </trkpt>
      <trkpt lat="45.18112" lon="5.98153">
        <ele>2419.4</ele>
        <time>2021-02-27T08:07:03Z</time>
      </trkpt>
      <trkpt lat="45.18112" lon="5.98156">
        <ele>2419.4</ele>
        <time>2021-02-27T08:07:06Z</time>
      </trkpt>
      <trkpt lat="45.18111" lon="5.9816">
        <ele>2419.4</ele>
        <time>2021-02-27T08:07:09Z</time>
      </trkpt>
      <trkpt lat="45.18109" lon="5.98162">
        <ele>2419.4</ele>
        <time>2021-02-27T08:07:11Z</time>
      </trkpt>
      <trkpt lat="45.18109" lon="5.98165">
        <ele>2422.2</ele>
        <time>2021-02-27T08:07:13Z</time>
      </trkpt>
      <trkpt lat="45.18106" lon="5.98169">
        <ele>2422.2</ele>
        <time>2021-02-27T08:07:15Z</time>
      </trkpt>
      <trkpt lat="45.18105" lon="5.98171">
        <ele>2422.2</ele>
        <time>2021-02-27T08:07:18Z</time>
      </trkpt>
      <trkpt lat="45.18104" lon="5.98173">
        <ele>2422.2</ele>
        <time>2021-02-27T08:07:20Z</time>
      </trkpt>
      <trkpt lat="45.18103" lon="5.98175">
        <ele>2422.2</ele>
        <time>2021-02-27T08:07:22Z</time>
      </trkpt>
      <trkpt lat="45.18102" lon="5.98177">
        <ele>2425</ele>
        <time>2021-02-27T08:07:23Z</time>
      </trkpt>
      <trkpt lat="45.18102" lon="5.98178">
        <ele>2425</ele>
        <time>2021-02-27T08:07:24Z</time>
      </trkpt>
      <trkpt lat="45.18103" lon="5.98179">
        <ele>2425</ele>
        <time>2021-02-27T08:07:31Z</time>
      </trkpt>
      <trkpt lat="45.18106" lon="5.98179">
        <ele>2426.6</ele>
        <time>2021-02-27T08:07:33Z</time>
      </trkpt>
      <trkpt lat="45.18111" lon="5.98178">
        <ele>2426.6</ele>
        <time>2021-02-27T08:07:36Z</time>
      </trkpt>
      <trkpt lat="45.18112" lon="5.98178">
        <ele>2426.6</ele>
        <time>2021-02-27T08:07:38Z</time>
      </trkpt>
      <trkpt lat="45.18114" lon="5.98178">
        <ele>2426.6</ele>
        <time>2021-02-27T08:07:40Z</time>
      </trkpt>
      <trkpt lat="45.18115" lon="5.98178">
        <ele>2426.6</ele>
        <time>2021-02-27T08:07:42Z</time>
      </trkpt>
      <trkpt lat="45.18117" lon="5.98178">
        <ele>2428.8</ele>
        <time>2021-02-27T08:07:43Z</time>
      </trkpt>
      <trkpt lat="45.18118" lon="5.98179">
        <ele>2428.8</ele>
        <time>2021-02-27T08:07:44Z</time>
      </trkpt>
      <trkpt lat="45.18118" lon="5.98179">
        <ele>2428.8</ele>
        <time>2021-02-27T08:07:47Z</time>
      </trkpt>
      <trkpt lat="45.18118" lon="5.9818">
        <ele>2428.8</ele>
        <time>2021-02-27T08:07:50Z</time>
      </trkpt>
      <trkpt lat="45.18118" lon="5.98181">
        <ele>2428.8</ele>
        <time>2021-02-27T08:07:52Z</time>
      </trkpt>
      <trkpt lat="45.18118" lon="5.98182">
        <ele>2430.6</ele>
        <time>2021-02-27T08:07:53Z</time>
      </trkpt>
      <trkpt lat="45.18115" lon="5.98186">
        <ele>2430.6</ele>
        <time>2021-02-27T08:07:54Z</time>
      </trkpt>
      <trkpt lat="45.18114" lon="5.98188">
        <ele>2430.6</ele>
        <time>2021-02-27T08:07:56Z</time>
      </trkpt>
      <trkpt lat="45.18113" lon="5.9819">
        <ele>2430.6</ele>
        <time>2021-02-27T08:07:58Z</time>
      </trkpt>
      <trkpt lat="45.18112" lon="5.98191">
        <ele>2430.6</ele>
        <time>2021-02-27T08:08:00Z</time>
      </trkpt>
      <trkpt lat="45.18111" lon="5.98193">
        <ele>2430.6</ele>
        <time>2021-02-27T08:08:02Z</time>
      </trkpt>
      <trkpt lat="45.1811" lon="5.98195">
        <ele>2433.2</ele>
        <time>2021-02-27T08:08:03Z</time>
      </trkpt>
      <trkpt lat="45.18108" lon="5.98198">
        <ele>2433.2</ele>
        <time>2021-02-27T08:08:04Z</time>
      </trkpt>
      <trkpt lat="45.18107" lon="5.98199">
        <ele>2433.2</ele>
        <time>2021-02-27T08:08:06Z</time>
      </trkpt>
      <trkpt lat="45.18106" lon="5.98201">
        <ele>2433.2</ele>
        <time>2021-02-27T08:08:08Z</time>
      </trkpt>
      <trkpt lat="45.18104" lon="5.98202">
        <ele>2433.2</ele>
        <time>2021-02-27T08:08:10Z</time>
      </trkpt>
      <trkpt lat="45.18103" lon="5.98204">
        <ele>2433.2</ele>
        <time>2021-02-27T08:08:12Z</time>
      </trkpt>
      <trkpt lat="45.18102" lon="5.98206">
        <ele>2435.4</ele>
        <time>2021-02-27T08:08:13Z</time>
      </trkpt>
      <trkpt lat="45.181" lon="5.98209">
        <ele>2435.4</ele>
        <time>2021-02-27T08:08:14Z</time>
      </trkpt>
      <trkpt lat="45.18099" lon="5.9821">
        <ele>2435.4</ele>
        <time>2021-02-27T08:08:16Z</time>
      </trkpt>
      <trkpt lat="45.18098" lon="5.98212">
        <ele>2435.4</ele>
        <time>2021-02-27T08:08:18Z</time>
      </trkpt>
      <trkpt lat="45.18097" lon="5.98214">
        <ele>2435.4</ele>
        <time>2021-02-27T08:08:20Z</time>
      </trkpt>
      <trkpt lat="45.18096" lon="5.98216">
        <ele>2435.4</ele>
        <time>2021-02-27T08:08:22Z</time>
      </trkpt>
      <trkpt lat="45.18095" lon="5.98218">
        <ele>2437.4</ele>
        <time>2021-02-27T08:08:23Z</time>
      </trkpt>
      <trkpt lat="45.18094" lon="5.9822">
        <ele>2437.4</ele>
        <time>2021-02-27T08:08:25Z</time>
      </trkpt>
      <trkpt lat="45.18095" lon="5.9822">
        <ele>2437.4</ele>
        <time>2021-02-27T08:08:32Z</time>
      </trkpt>
      <trkpt lat="45.18096" lon="5.98221">
        <ele>2439</ele>
        <time>2021-02-27T08:08:33Z</time>
      </trkpt>
      <trkpt lat="45.181" lon="5.98221">
        <ele>2439</ele>
        <time>2021-02-27T08:08:35Z</time>
      </trkpt>
      <trkpt lat="45.18101" lon="5.98221">
        <ele>2439</ele>
        <time>2021-02-27T08:08:37Z</time>
      </trkpt>
      <trkpt lat="45.18102" lon="5.98221">
        <ele>2440.6</ele>
        <time>2021-02-27T08:08:43Z</time>
      </trkpt>
      <trkpt lat="45.18103" lon="5.98222">
        <ele>2441</ele>
        <time>2021-02-27T08:08:53Z</time>
      </trkpt>
      <trkpt lat="45.18104" lon="5.98222">
        <ele>2440.8</ele>
        <time>2021-02-27T08:09:03Z</time>
      </trkpt>
      <trkpt lat="45.18105" lon="5.98222">
        <ele>2441.4</ele>
        <time>2021-02-27T08:09:13Z</time>
      </trkpt>
      <trkpt lat="45.18106" lon="5.98222">
        <ele>2441.4</ele>
        <time>2021-02-27T08:09:23Z</time>
      </trkpt>
      <trkpt lat="45.18106" lon="5.98223">
        <ele>2441.8</ele>
        <time>2021-02-27T08:09:33Z</time>
      </trkpt>
      <trkpt lat="45.18107" lon="5.98223">
        <ele>2441.8</ele>
        <time>2021-02-27T08:09:35Z</time>
      </trkpt>
      <trkpt lat="45.18108" lon="5.98223">
        <ele>2441.8</ele>
        <time>2021-02-27T08:09:37Z</time>
      </trkpt>
      <trkpt lat="45.18109" lon="5.98223">
        <ele>2441.8</ele>
        <time>2021-02-27T08:09:39Z</time>
      </trkpt>
      <trkpt lat="45.1811" lon="5.98224">
        <ele>2441.8</ele>
        <time>2021-02-27T08:09:42Z</time>
      </trkpt>
      <trkpt lat="45.18111" lon="5.98224">
        <ele>2443.4</ele>
        <time>2021-02-27T08:09:43Z</time>
      </trkpt>
      <trkpt lat="45.18109" lon="5.98227">
        <ele>2443.4</ele>
        <time>2021-02-27T08:09:44Z</time>
      </trkpt>
      <trkpt lat="45.18108" lon="5.98229">
        <ele>2443.4</ele>
        <time>2021-02-27T08:09:46Z</time>
      </trkpt>
      <trkpt lat="45.18107" lon="5.9823">
        <ele>2443.4</ele>
        <time>2021-02-27T08:09:48Z</time>
      </trkpt>
      <trkpt lat="45.18105" lon="5.98232">
        <ele>2443.4</ele>
        <time>2021-02-27T08:09:50Z</time>
      </trkpt>
      <trkpt lat="45.18104" lon="5.98234">
        <ele>2443.4</ele>
        <time>2021-02-27T08:09:52Z</time>
      </trkpt>
      <trkpt lat="45.18103" lon="5.98235">
        <ele>2446.2</ele>
        <time>2021-02-27T08:09:53Z</time>
      </trkpt>
      <trkpt lat="45.18102" lon="5.98237">
        <ele>2446.2</ele>
        <time>2021-02-27T08:09:55Z</time>
      </trkpt>
      <trkpt lat="45.18103" lon="5.98238">
        <ele>2446.2</ele>
        <time>2021-02-27T08:09:57Z</time>
      </trkpt>
      <trkpt lat="45.18104" lon="5.98239">
        <ele>2447.2</ele>
        <time>2021-02-27T08:10:03Z</time>
      </trkpt>
      <trkpt lat="45.18105" lon="5.9824">
        <ele>2447.2</ele>
        <time>2021-02-27T08:10:06Z</time>
      </trkpt>
      <trkpt lat="45.18106" lon="5.9824">
        <ele>2447.2</ele>
        <time>2021-02-27T08:10:10Z</time>
      </trkpt>
      <trkpt lat="45.18107" lon="5.98241">
        <ele>2449.4</ele>
        <time>2021-02-27T08:10:13Z</time>
      </trkpt>
      <trkpt lat="45.18108" lon="5.98242">
        <ele>2449.4</ele>
        <time>2021-02-27T08:10:16Z</time>
      </trkpt>
      <trkpt lat="45.18109" lon="5.98242">
        <ele>2449.4</ele>
        <time>2021-02-27T08:10:18Z</time>
      </trkpt>
      <trkpt lat="45.1811" lon="5.98243">
        <ele>2449.4</ele>
        <time>2021-02-27T08:10:20Z</time>
      </trkpt>
      <trkpt lat="45.18111" lon="5.98244">
        <ele>2449.4</ele>
        <time>2021-02-27T08:10:22Z</time>
      </trkpt>
      <trkpt lat="45.18112" lon="5.98245">
        <ele>2451.8</ele>
        <time>2021-02-27T08:10:23Z</time>
      </trkpt>
      <trkpt lat="45.1811" lon="5.98249">
        <ele>2451.8</ele>
        <time>2021-02-27T08:10:25Z</time>
      </trkpt>
      <trkpt lat="45.18109" lon="5.9825">
        <ele>2451.8</ele>
        <time>2021-02-27T08:10:27Z</time>
      </trkpt>
      <trkpt lat="45.18108" lon="5.98252">
        <ele>2451.8</ele>
        <time>2021-02-27T08:10:30Z</time>
      </trkpt>
      <trkpt lat="45.18107" lon="5.98253">
        <ele>2451.8</ele>
        <time>2021-02-27T08:10:32Z</time>
      </trkpt>
      <trkpt lat="45.18107" lon="5.98254">
        <ele>2454.8</ele>
        <time>2021-02-27T08:10:33Z</time>
      </trkpt>
      <trkpt lat="45.18105" lon="5.98258">
        <ele>2454.8</ele>
        <time>2021-02-27T08:10:35Z</time>
      </trkpt>
      <trkpt lat="45.18105" lon="5.98259">
        <ele>2454.8</ele>
        <time>2021-02-27T08:10:42Z</time>
      </trkpt>
      <trkpt lat="45.18105" lon="5.9826">
        <ele>2457.2</ele>
        <time>2021-02-27T08:10:43Z</time>
      </trkpt>
      <trkpt lat="45.18108" lon="5.98262">
        <ele>2457.2</ele>
        <time>2021-02-27T08:10:44Z</time>
      </trkpt>
      <trkpt lat="45.1811" lon="5.98262">
        <ele>2457.2</ele>
        <time>2021-02-27T08:10:46Z</time>
      </trkpt>
      <trkpt lat="45.18111" lon="5.98262">
        <ele>2457.2</ele>
        <time>2021-02-27T08:10:49Z</time>
      </trkpt>
      <trkpt lat="45.18112" lon="5.98262">
        <ele>2457.2</ele>
        <time>2021-02-27T08:10:52Z</time>
      </trkpt>
      <trkpt lat="45.18113" lon="5.98262">
        <ele>2459.8</ele>
        <time>2021-02-27T08:10:53Z</time>
      </trkpt>
      <trkpt lat="45.18116" lon="5.98262">
        <ele>2459.8</ele>
        <time>2021-02-27T08:10:54Z</time>
      </trkpt>
      <trkpt lat="45.18118" lon="5.98262">
        <ele>2459.8</ele>
        <time>2021-02-27T08:10:56Z</time>
      </trkpt>
      <trkpt lat="45.1812" lon="5.98262">
        <ele>2459.8</ele>
        <time>2021-02-27T08:10:58Z</time>
      </trkpt>
      <trkpt lat="45.18122" lon="5.98263">
        <ele>2459.8</ele>
        <time>2021-02-27T08:11:00Z</time>
      </trkpt>
      <trkpt lat="45.18125" lon="5.98263">
        <ele>2462.8</ele>
        <time>2021-02-27T08:11:03Z</time>
      </trkpt>
      <trkpt lat="45.18127" lon="5.98263">
        <ele>2462.8</ele>
        <time>2021-02-27T08:11:06Z</time>
      </trkpt>
      <trkpt lat="45.1813" lon="5.98262">
        <ele>2462.8</ele>
        <time>2021-02-27T08:11:09Z</time>
      </trkpt>
      <trkpt lat="45.18132" lon="5.98262">
        <ele>2462.8</ele>
        <time>2021-02-27T08:11:11Z</time>
      </trkpt>
      <trkpt lat="45.18132" lon="5.98262">
        <ele>2466.4</ele>
        <time>2021-02-27T08:11:13Z</time>
      </trkpt>
      <trkpt lat="45.18132" lon="5.98265">
        <ele>2466.4</ele>
        <time>2021-02-27T08:11:14Z</time>
      </trkpt>
      <trkpt lat="45.18133" lon="5.98268">
        <ele>2466.4</ele>
        <time>2021-02-27T08:11:16Z</time>
      </trkpt>
      <trkpt lat="45.18132" lon="5.98271">
        <ele>2466.4</ele>
        <time>2021-02-27T08:11:18Z</time>
      </trkpt>
      <trkpt lat="45.18131" lon="5.98274">
        <ele>2466.4</ele>
        <time>2021-02-27T08:11:21Z</time>
      </trkpt>
      <trkpt lat="45.18131" lon="5.98274">
        <ele>2469</ele>
        <time>2021-02-27T08:11:23Z</time>
      </trkpt>
      <trkpt lat="45.18133" lon="5.98275">
        <ele>2469</ele>
        <time>2021-02-27T08:11:27Z</time>
      </trkpt>
      <trkpt lat="45.18135" lon="5.98275">
        <ele>2469</ele>
        <time>2021-02-27T08:11:29Z</time>
      </trkpt>
      <trkpt lat="45.18137" lon="5.98275">
        <ele>2469</ele>
        <time>2021-02-27T08:11:31Z</time>
      </trkpt>
      <trkpt lat="45.18139" lon="5.98277">
        <ele>2471</ele>
        <time>2021-02-27T08:11:33Z</time>
      </trkpt>
      <trkpt lat="45.18138" lon="5.98281">
        <ele>2471</ele>
        <time>2021-02-27T08:11:36Z</time>
      </trkpt>
      <trkpt lat="45.18137" lon="5.98284">
        <ele>2471</ele>
        <time>2021-02-27T08:11:39Z</time>
      </trkpt>
      <trkpt lat="45.18139" lon="5.98285">
        <ele>2474</ele>
        <time>2021-02-27T08:11:43Z</time>
      </trkpt>
      <trkpt lat="45.1814" lon="5.98288">
        <ele>2474</ele>
        <time>2021-02-27T08:11:47Z</time>
      </trkpt>
      <trkpt lat="45.18141" lon="5.9829">
        <ele>2474</ele>
        <time>2021-02-27T08:11:51Z</time>
      </trkpt>
      <trkpt lat="45.18141" lon="5.9829">
        <ele>2477.4</ele>
        <time>2021-02-27T08:11:53Z</time>
      </trkpt>
      <trkpt lat="45.18145" lon="5.98291">
        <ele>2477.4</ele>
        <time>2021-02-27T08:11:55Z</time>
      </trkpt>
      <trkpt lat="45.18146" lon="5.98292">
        <ele>2477.4</ele>
        <time>2021-02-27T08:11:57Z</time>
      </trkpt>
      <trkpt lat="45.18147" lon="5.98293">
        <ele>2477.4</ele>
        <time>2021-02-27T08:12:00Z</time>
      </trkpt>
      <trkpt lat="45.18148" lon="5.98295">
        <ele>2477.4</ele>
        <time>2021-02-27T08:12:02Z</time>
      </trkpt>
      <trkpt lat="45.18149" lon="5.98296">
        <ele>2480.8</ele>
        <time>2021-02-27T08:12:03Z</time>
      </trkpt>
      <trkpt lat="45.18152" lon="5.98298">
        <ele>2480.8</ele>
        <time>2021-02-27T08:12:06Z</time>
      </trkpt>
      <trkpt lat="45.18153" lon="5.98299">
        <ele>2480.8</ele>
        <time>2021-02-27T08:12:10Z</time>
      </trkpt>
      <trkpt lat="45.18153" lon="5.983">
        <ele>2480.8</ele>
        <time>2021-02-27T08:12:12Z</time>
      </trkpt>
      <trkpt lat="45.18154" lon="5.98301">
        <ele>2481.8</ele>
        <time>2021-02-27T08:12:13Z</time>
      </trkpt>
      <trkpt lat="45.18159" lon="5.98305">
        <ele>2481.8</ele>
        <time>2021-02-27T08:12:15Z</time>
      </trkpt>
      <trkpt lat="45.18161" lon="5.98307">
        <ele>2481.8</ele>
        <time>2021-02-27T08:12:19Z</time>
      </trkpt>
      <trkpt lat="45.18163" lon="5.98309">
        <ele>2481.8</ele>
        <time>2021-02-27T08:12:22Z</time>
      </trkpt>
      <trkpt lat="45.18165" lon="5.98311">
        <ele>2481.8</ele>
        <time>2021-02-27T08:12:23Z</time>
      </trkpt>
      <trkpt lat="45.18172" lon="5.98316">
        <ele>2481.8</ele>
        <time>2021-02-27T08:12:24Z</time>
      </trkpt>
      <trkpt lat="45.18174" lon="5.98317">
        <ele>2481.8</ele>
        <time>2021-02-27T08:12:25Z</time>
      </trkpt>
      <trkpt lat="45.18176" lon="5.98319">
        <ele>2481.8</ele>
        <time>2021-02-27T08:12:26Z</time>
      </trkpt>
      <trkpt lat="45.18179" lon="5.9832">
        <ele>2481.8</ele>
        <time>2021-02-27T08:12:27Z</time>
      </trkpt>
      <trkpt lat="45.18181" lon="5.98322">
        <ele>2481.8</ele>
        <time>2021-02-27T08:12:29Z</time>
      </trkpt>
      <trkpt lat="45.18183" lon="5.98323">
        <ele>2481.8</ele>
        <time>2021-02-27T08:12:32Z</time>
      </trkpt>
      <trkpt lat="45.18185" lon="5.98325">
        <ele>2479.8</ele>
        <time>2021-02-27T08:12:33Z</time>
      </trkpt>
      <trkpt lat="45.18186" lon="5.98326">
        <ele>2479.8</ele>
        <time>2021-02-27T08:12:35Z</time>
      </trkpt>
      <trkpt lat="45.18187" lon="5.98329">
        <ele>2479.8</ele>
        <time>2021-02-27T08:12:37Z</time>
      </trkpt>
      <trkpt lat="45.18189" lon="5.98332">
        <ele>2479.8</ele>
        <time>2021-02-27T08:12:40Z</time>
      </trkpt>
      <trkpt lat="45.1819" lon="5.98333">
        <ele>2482.4</ele>
        <time>2021-02-27T08:12:43Z</time>
      </trkpt>
      <trkpt lat="45.18193" lon="5.98336">
        <ele>2482.4</ele>
        <time>2021-02-27T08:12:46Z</time>
      </trkpt>
      <trkpt lat="45.18194" lon="5.98337">
        <ele>2482.4</ele>
        <time>2021-02-27T08:12:50Z</time>
      </trkpt>
      <trkpt lat="45.18195" lon="5.98338">
        <ele>2482.4</ele>
        <time>2021-02-27T08:12:52Z</time>
      </trkpt>
      <trkpt lat="45.18196" lon="5.98339">
        <ele>2486</ele>
        <time>2021-02-27T08:12:53Z</time>
      </trkpt>
      <trkpt lat="45.18199" lon="5.9834">
        <ele>2486</ele>
        <time>2021-02-27T08:12:54Z</time>
      </trkpt>
      <trkpt lat="45.18201" lon="5.98341">
        <ele>2486</ele>
        <time>2021-02-27T08:12:57Z</time>
      </trkpt>
      <trkpt lat="45.18202" lon="5.98342">
        <ele>2486</ele>
        <time>2021-02-27T08:12:59Z</time>
      </trkpt>
      <trkpt lat="45.18203" lon="5.98342">
        <ele>2486</ele>
        <time>2021-02-27T08:13:02Z</time>
      </trkpt>
      <trkpt lat="45.18205" lon="5.98343">
        <ele>2488.8</ele>
        <time>2021-02-27T08:13:03Z</time>
      </trkpt>
      <trkpt lat="45.18206" lon="5.98345">
        <ele>2488.8</ele>
        <time>2021-02-27T08:13:05Z</time>
      </trkpt>
      <trkpt lat="45.18209" lon="5.98347">
        <ele>2488.8</ele>
        <time>2021-02-27T08:13:08Z</time>
      </trkpt>
      <trkpt lat="45.1821" lon="5.98349">
        <ele>2488.8</ele>
        <time>2021-02-27T08:13:10Z</time>
      </trkpt>
      <trkpt lat="45.18212" lon="5.98351">
        <ele>2491</ele>
        <time>2021-02-27T08:13:13Z</time>
      </trkpt>
      <trkpt lat="45.18214" lon="5.98353">
        <ele>2491</ele>
        <time>2021-02-27T08:13:15Z</time>
      </trkpt>
      <trkpt lat="45.18216" lon="5.98355">
        <ele>2491</ele>
        <time>2021-02-27T08:13:18Z</time>
      </trkpt>
      <trkpt lat="45.18218" lon="5.98357">
        <ele>2491</ele>
        <time>2021-02-27T08:13:20Z</time>
      </trkpt>
      <trkpt lat="45.1822" lon="5.9836">
        <ele>2493.4</ele>
        <time>2021-02-27T08:13:23Z</time>
      </trkpt>
      <trkpt lat="45.18222" lon="5.98362">
        <ele>2493.4</ele>
        <time>2021-02-27T08:13:25Z</time>
      </trkpt>
      <trkpt lat="45.18223" lon="5.98364">
        <ele>2493.4</ele>
        <time>2021-02-27T08:13:27Z</time>
      </trkpt>
      <trkpt lat="45.18226" lon="5.98367">
        <ele>2493.4</ele>
        <time>2021-02-27T08:13:30Z</time>
      </trkpt>
      <trkpt lat="45.18228" lon="5.98369">
        <ele>2495.6</ele>
        <time>2021-02-27T08:13:33Z</time>
      </trkpt>
      <trkpt lat="45.1823" lon="5.98371">
        <ele>2495.6</ele>
        <time>2021-02-27T08:13:35Z</time>
      </trkpt>
      <trkpt lat="45.18231" lon="5.98373">
        <ele>2495.6</ele>
        <time>2021-02-27T08:13:37Z</time>
      </trkpt>
      <trkpt lat="45.18233" lon="5.98376">
        <ele>2495.6</ele>
        <time>2021-02-27T08:13:39Z</time>
      </trkpt>
      <trkpt lat="45.18235" lon="5.98377">
        <ele>2495.6</ele>
        <time>2021-02-27T08:13:41Z</time>
      </trkpt>
      <trkpt lat="45.18237" lon="5.98378">
        <ele>2497.4</ele>
        <time>2021-02-27T08:13:43Z</time>
      </trkpt>
      <trkpt lat="45.18239" lon="5.9838">
        <ele>2497.4</ele>
        <time>2021-02-27T08:13:45Z</time>
      </trkpt>
      <trkpt lat="45.18241" lon="5.9838">
        <ele>2497.4</ele>
        <time>2021-02-27T08:13:47Z</time>
      </trkpt>
      <trkpt lat="45.18243" lon="5.9838">
        <ele>2497.4</ele>
        <time>2021-02-27T08:13:49Z</time>
      </trkpt>
      <trkpt lat="45.18244" lon="5.98382">
        <ele>2497.4</ele>
        <time>2021-02-27T08:13:51Z</time>
      </trkpt>
      <trkpt lat="45.18246" lon="5.98384">
        <ele>2498.4</ele>
        <time>2021-02-27T08:13:53Z</time>
      </trkpt>
      <trkpt lat="45.18246" lon="5.98384">
        <ele>2499</ele>
        <time>2021-02-27T08:14:03Z</time>
      </trkpt>
      <trkpt lat="45.18246" lon="5.98384">
        <ele>2498</ele>
        <time>2021-02-27T08:14:13Z</time>
      </trkpt>
      <trkpt lat="45.18249" lon="5.98387">
        <ele>2498</ele>
        <time>2021-02-27T08:14:19Z</time>
      </trkpt>
      <trkpt lat="45.18252" lon="5.9839">
        <ele>2498</ele>
        <time>2021-02-27T08:14:21Z</time>
      </trkpt>
      <trkpt lat="45.18253" lon="5.98393">
        <ele>2498.8</ele>
        <time>2021-02-27T08:14:23Z</time>
      </trkpt>
      <trkpt lat="45.18255" lon="5.98395">
        <ele>2498.8</ele>
        <time>2021-02-27T08:14:24Z</time>
      </trkpt>
      <trkpt lat="45.18256" lon="5.98398">
        <ele>2498.8</ele>
        <time>2021-02-27T08:14:25Z</time>
      </trkpt>
      <trkpt lat="45.18258" lon="5.98401">
        <ele>2498.8</ele>
        <time>2021-02-27T08:14:27Z</time>
      </trkpt>
      <trkpt lat="45.18259" lon="5.98404">
        <ele>2498.8</ele>
        <time>2021-02-27T08:14:29Z</time>
      </trkpt>
      <trkpt lat="45.1826" lon="5.98408">
        <ele>2499.2</ele>
        <time>2021-02-27T08:14:33Z</time>
      </trkpt>
      <trkpt lat="45.18261" lon="5.98411">
        <ele>2499.2</ele>
        <time>2021-02-27T08:14:35Z</time>
      </trkpt>
      <trkpt lat="45.18262" lon="5.98413">
        <ele>2499.2</ele>
        <time>2021-02-27T08:14:39Z</time>
      </trkpt>
      <trkpt lat="45.18264" lon="5.98416">
        <ele>2499.2</ele>
        <time>2021-02-27T08:14:41Z</time>
      </trkpt>
      <trkpt lat="45.18265" lon="5.98419">
        <ele>2499.4</ele>
        <time>2021-02-27T08:14:43Z</time>
      </trkpt>
      <trkpt lat="45.18269" lon="5.98423">
        <ele>2499.4</ele>
        <time>2021-02-27T08:14:45Z</time>
      </trkpt>
      <trkpt lat="45.1827" lon="5.98425">
        <ele>2499.4</ele>
        <time>2021-02-27T08:14:47Z</time>
      </trkpt>
      <trkpt lat="45.18272" lon="5.98426">
        <ele>2499.4</ele>
        <time>2021-02-27T08:14:49Z</time>
      </trkpt>
      <trkpt lat="45.18273" lon="5.98428">
        <ele>2499.4</ele>
        <time>2021-02-27T08:14:51Z</time>
      </trkpt>
      <trkpt lat="45.18275" lon="5.9843">
        <ele>2499.4</ele>
        <time>2021-02-27T08:14:52Z</time>
      </trkpt>
      <trkpt lat="45.18276" lon="5.98431">
        <ele>2500.6</ele>
        <time>2021-02-27T08:14:53Z</time>
      </trkpt>
      <trkpt lat="45.18279" lon="5.98434">
        <ele>2500.6</ele>
        <time>2021-02-27T08:14:54Z</time>
      </trkpt>
      <trkpt lat="45.1828" lon="5.98436">
        <ele>2500.6</ele>
        <time>2021-02-27T08:14:56Z</time>
      </trkpt>
      <trkpt lat="45.18282" lon="5.98438">
        <ele>2500.6</ele>
        <time>2021-02-27T08:14:58Z</time>
      </trkpt>
      <trkpt lat="45.18283" lon="5.9844">
        <ele>2500.6</ele>
        <time>2021-02-27T08:15:00Z</time>
      </trkpt>
      <trkpt lat="45.18285" lon="5.98442">
        <ele>2500.6</ele>
        <time>2021-02-27T08:15:02Z</time>
      </trkpt>
      <trkpt lat="45.18286" lon="5.98444">
        <ele>2501</ele>
        <time>2021-02-27T08:15:03Z</time>
      </trkpt>
      <trkpt lat="45.18289" lon="5.98447">
        <ele>2501</ele>
        <time>2021-02-27T08:15:04Z</time>
      </trkpt>
      <trkpt lat="45.1829" lon="5.98449">
        <ele>2501</ele>
        <time>2021-02-27T08:15:06Z</time>
      </trkpt>
      <trkpt lat="45.18292" lon="5.98451">
        <ele>2501</ele>
        <time>2021-02-27T08:15:08Z</time>
      </trkpt>
      <trkpt lat="45.18293" lon="5.98453">
        <ele>2501</ele>
        <time>2021-02-27T08:15:10Z</time>
      </trkpt>
      <trkpt lat="45.18295" lon="5.98455">
        <ele>2501</ele>
        <time>2021-02-27T08:15:12Z</time>
      </trkpt>
      <trkpt lat="45.18296" lon="5.98457">
        <ele>2502</ele>
        <time>2021-02-27T08:15:13Z</time>
      </trkpt>
      <trkpt lat="45.18297" lon="5.98458">
        <ele>2502</ele>
        <time>2021-02-27T08:15:14Z</time>
      </trkpt>
      <trkpt lat="45.18299" lon="5.98461">
        <ele>2502</ele>
        <time>2021-02-27T08:15:16Z</time>
      </trkpt>
      <trkpt lat="45.18301" lon="5.98464">
        <ele>2502</ele>
        <time>2021-02-27T08:15:18Z</time>
      </trkpt>
      <trkpt lat="45.18302" lon="5.98466">
        <ele>2502</ele>
        <time>2021-02-27T08:15:20Z</time>
      </trkpt>
      <trkpt lat="45.18304" lon="5.98468">
        <ele>2502</ele>
        <time>2021-02-27T08:15:21Z</time>
      </trkpt>
      <trkpt lat="45.18306" lon="5.9847">
        <ele>2502</ele>
        <time>2021-02-27T08:15:23Z</time>
      </trkpt>
      <trkpt lat="45.18309" lon="5.98473">
        <ele>2502</ele>
        <time>2021-02-27T08:15:25Z</time>
      </trkpt>
      <trkpt lat="45.1831" lon="5.98474">
        <ele>2502</ele>
        <time>2021-02-27T08:15:27Z</time>
      </trkpt>
      <trkpt lat="45.18311" lon="5.98475">
        <ele>2502</ele>
        <time>2021-02-27T08:15:30Z</time>
      </trkpt>
      <trkpt lat="45.18313" lon="5.98476">
        <ele>2502</ele>
        <time>2021-02-27T08:15:32Z</time>
      </trkpt>
      <trkpt lat="45.18314" lon="5.98477">
        <ele>2502</ele>
        <time>2021-02-27T08:15:33Z</time>
      </trkpt>
      <trkpt lat="45.18316" lon="5.98479">
        <ele>2502</ele>
        <time>2021-02-27T08:15:34Z</time>
      </trkpt>
      <trkpt lat="45.18317" lon="5.9848">
        <ele>2502</ele>
        <time>2021-02-27T08:15:36Z</time>
      </trkpt>
      <trkpt lat="45.18319" lon="5.98481">
        <ele>2502</ele>
        <time>2021-02-27T08:15:39Z</time>
      </trkpt>
      <trkpt lat="45.1832" lon="5.98482">
        <ele>2502</ele>
        <time>2021-02-27T08:15:42Z</time>
      </trkpt>
      <trkpt lat="45.18321" lon="5.98483">
        <ele>2501.6</ele>
        <time>2021-02-27T08:15:43Z</time>
      </trkpt>
      <trkpt lat="45.18323" lon="5.98485">
        <ele>2501.6</ele>
        <time>2021-02-27T08:15:44Z</time>
      </trkpt>
      <trkpt lat="45.18325" lon="5.98487">
        <ele>2501.6</ele>
        <time>2021-02-27T08:15:46Z</time>
      </trkpt>
      <trkpt lat="45.18327" lon="5.9849">
        <ele>2501.6</ele>
        <time>2021-02-27T08:15:49Z</time>
      </trkpt>
      <trkpt lat="45.18329" lon="5.98491">
        <ele>2501.6</ele>
        <time>2021-02-27T08:15:51Z</time>
      </trkpt>
      <trkpt lat="45.18332" lon="5.98493">
        <ele>2501</ele>
        <time>2021-02-27T08:15:53Z</time>
      </trkpt>
      <trkpt lat="45.18336" lon="5.98496">
        <ele>2501</ele>
        <time>2021-02-27T08:15:54Z</time>
      </trkpt>
      <trkpt lat="45.18338" lon="5.98498">
        <ele>2501</ele>
        <time>2021-02-27T08:15:55Z</time>
      </trkpt>
      <trkpt lat="45.1834" lon="5.98499">
        <ele>2501</ele>
        <time>2021-02-27T08:15:56Z</time>
      </trkpt>
      <trkpt lat="45.18343" lon="5.98501">
        <ele>2501</ele>
        <time>2021-02-27T08:15:57Z</time>
      </trkpt>
      <trkpt lat="45.18345" lon="5.98502">
        <ele>2501</ele>
        <time>2021-02-27T08:15:58Z</time>
      </trkpt>
      <trkpt lat="45.18347" lon="5.98503">
        <ele>2501</ele>
        <time>2021-02-27T08:15:59Z</time>
      </trkpt>
      <trkpt lat="45.1835" lon="5.98505">
        <ele>2501</ele>
        <time>2021-02-27T08:16:00Z</time>
      </trkpt>
      <trkpt lat="45.18352" lon="5.98506">
        <ele>2501</ele>
        <time>2021-02-27T08:16:02Z</time>
      </trkpt>
      <trkpt lat="45.18354" lon="5.98508">
        <ele>2497.6</ele>
        <time>2021-02-27T08:16:03Z</time>
      </trkpt>
      <trkpt lat="45.18356" lon="5.9851">
        <ele>2497.6</ele>
        <time>2021-02-27T08:16:04Z</time>
      </trkpt>
      <trkpt lat="45.18358" lon="5.98511">
        <ele>2497.6</ele>
        <time>2021-02-27T08:16:06Z</time>
      </trkpt>
      <trkpt lat="45.18359" lon="5.98513">
        <ele>2497.6</ele>
        <time>2021-02-27T08:16:08Z</time>
      </trkpt>
      <trkpt lat="45.1836" lon="5.98514">
        <ele>2497.6</ele>
        <time>2021-02-27T08:16:10Z</time>
      </trkpt>
      <trkpt lat="45.18361" lon="5.98515">
        <ele>2497.6</ele>
        <time>2021-02-27T08:16:12Z</time>
      </trkpt>
      <trkpt lat="45.18363" lon="5.98517">
        <ele>2498.6</ele>
        <time>2021-02-27T08:16:13Z</time>
      </trkpt>
      <trkpt lat="45.18364" lon="5.98518">
        <ele>2498.6</ele>
        <time>2021-02-27T08:16:14Z</time>
      </trkpt>
      <trkpt lat="45.18365" lon="5.9852">
        <ele>2498.6</ele>
        <time>2021-02-27T08:16:16Z</time>
      </trkpt>
      <trkpt lat="45.18366" lon="5.98522">
        <ele>2498.6</ele>
        <time>2021-02-27T08:16:18Z</time>
      </trkpt>
      <trkpt lat="45.18367" lon="5.98525">
        <ele>2498.6</ele>
        <time>2021-02-27T08:16:21Z</time>
      </trkpt>
      <trkpt lat="45.18369" lon="5.98527">
        <ele>2500.2</ele>
        <time>2021-02-27T08:16:23Z</time>
      </trkpt>
      <trkpt lat="45.18371" lon="5.9853">
        <ele>2500.2</ele>
        <time>2021-02-27T08:16:25Z</time>
      </trkpt>
      <trkpt lat="45.18373" lon="5.98532">
        <ele>2500.2</ele>
        <time>2021-02-27T08:16:28Z</time>
      </trkpt>
      <trkpt lat="45.18374" lon="5.98534">
        <ele>2500.2</ele>
        <time>2021-02-27T08:16:30Z</time>
      </trkpt>
      <trkpt lat="45.18374" lon="5.98534">
        <ele>2502.6</ele>
        <time>2021-02-27T08:16:33Z</time>
      </trkpt>
      <trkpt lat="45.18376" lon="5.98537">
        <ele>2502.6</ele>
        <time>2021-02-27T08:16:34Z</time>
      </trkpt>
      <trkpt lat="45.18378" lon="5.98539">
        <ele>2502.6</ele>
        <time>2021-02-27T08:16:36Z</time>
      </trkpt>
      <trkpt lat="45.18379" lon="5.98542">
        <ele>2502.6</ele>
        <time>2021-02-27T08:16:38Z</time>
      </trkpt>
      <trkpt lat="45.18381" lon="5.98544">
        <ele>2502.6</ele>
        <time>2021-02-27T08:16:39Z</time>
      </trkpt>
      <trkpt lat="45.18382" lon="5.98546">
        <ele>2502.6</ele>
        <time>2021-02-27T08:16:41Z</time>
      </trkpt>
      <trkpt lat="45.18385" lon="5.98548">
        <ele>2504.6</ele>
        <time>2021-02-27T08:16:43Z</time>
      </trkpt>
      <trkpt lat="45.18388" lon="5.98552">
        <ele>2504.6</ele>
        <time>2021-02-27T08:16:45Z</time>
      </trkpt>
      <trkpt lat="45.18389" lon="5.98553">
        <ele>2504.6</ele>
        <time>2021-02-27T08:16:47Z</time>
      </trkpt>
      <trkpt lat="45.1839" lon="5.98555">
        <ele>2504.6</ele>
        <time>2021-02-27T08:16:49Z</time>
      </trkpt>
      <trkpt lat="45.18391" lon="5.98557">
        <ele>2504.6</ele>
        <time>2021-02-27T08:16:52Z</time>
      </trkpt>
      <trkpt lat="45.18392" lon="5.98558">
        <ele>2505.6</ele>
        <time>2021-02-27T08:16:53Z</time>
      </trkpt>
      <trkpt lat="45.18393" lon="5.9856">
        <ele>2505.6</ele>
        <time>2021-02-27T08:16:54Z</time>
      </trkpt>
      <trkpt lat="45.18395" lon="5.98562">
        <ele>2505.6</ele>
        <time>2021-02-27T08:16:56Z</time>
      </trkpt>
      <trkpt lat="45.18397" lon="5.98566">
        <ele>2505.6</ele>
        <time>2021-02-27T08:16:59Z</time>
      </trkpt>
      <trkpt lat="45.18399" lon="5.98568">
        <ele>2505.6</ele>
        <time>2021-02-27T08:17:01Z</time>
      </trkpt>
      <trkpt lat="45.18401" lon="5.9857">
        <ele>2507</ele>
        <time>2021-02-27T08:17:03Z</time>
      </trkpt>
      <trkpt lat="45.18405" lon="5.98574">
        <ele>2507</ele>
        <time>2021-02-27T08:17:05Z</time>
      </trkpt>
      <trkpt lat="45.18406" lon="5.98576">
        <ele>2507</ele>
        <time>2021-02-27T08:17:07Z</time>
      </trkpt>
      <trkpt lat="45.18407" lon="5.98578">
        <ele>2507</ele>
        <time>2021-02-27T08:17:09Z</time>
      </trkpt>
      <trkpt lat="45.18409" lon="5.9858">
        <ele>2507</ele>
        <time>2021-02-27T08:17:11Z</time>
      </trkpt>
      <trkpt lat="45.1841" lon="5.98582">
        <ele>2507</ele>
        <time>2021-02-27T08:17:12Z</time>
      </trkpt>
      <trkpt lat="45.18411" lon="5.98584">
        <ele>2507.6</ele>
        <time>2021-02-27T08:17:13Z</time>
      </trkpt>
      <trkpt lat="45.18412" lon="5.98585">
        <ele>2507.6</ele>
        <time>2021-02-27T08:17:14Z</time>
      </trkpt>
      <trkpt lat="45.18414" lon="5.98588">
        <ele>2507.6</ele>
        <time>2021-02-27T08:17:16Z</time>
      </trkpt>
      <trkpt lat="45.18416" lon="5.98589">
        <ele>2507.6</ele>
        <time>2021-02-27T08:17:18Z</time>
      </trkpt>
      <trkpt lat="45.18418" lon="5.98592">
        <ele>2507.6</ele>
        <time>2021-02-27T08:17:21Z</time>
      </trkpt>
      <trkpt lat="45.18421" lon="5.98594">
        <ele>2508.8</ele>
        <time>2021-02-27T08:17:23Z</time>
      </trkpt>
      <trkpt lat="45.18425" lon="5.98599">
        <ele>2508.8</ele>
        <time>2021-02-27T08:17:26Z</time>
      </trkpt>
      <trkpt lat="45.18426" lon="5.986">
        <ele>2508.8</ele>
        <time>2021-02-27T08:17:28Z</time>
      </trkpt>
      <trkpt lat="45.18428" lon="5.98602">
        <ele>2509.6</ele>
        <time>2021-02-27T08:17:33Z</time>
      </trkpt>
      <trkpt lat="45.1843" lon="5.98604">
        <ele>2509.6</ele>
        <time>2021-02-27T08:17:35Z</time>
      </trkpt>
      <trkpt lat="45.18432" lon="5.98605">
        <ele>2509.6</ele>
        <time>2021-02-27T08:17:37Z</time>
      </trkpt>
      <trkpt lat="45.18433" lon="5.98607">
        <ele>2509.6</ele>
        <time>2021-02-27T08:17:39Z</time>
      </trkpt>
      <trkpt lat="45.18435" lon="5.98608">
        <ele>2509.6</ele>
        <time>2021-02-27T08:17:42Z</time>
      </trkpt>
      <trkpt lat="45.18437" lon="5.9861">
        <ele>2511.4</ele>
        <time>2021-02-27T08:17:43Z</time>
      </trkpt>
      <trkpt lat="45.18438" lon="5.98611">
        <ele>2511.4</ele>
        <time>2021-02-27T08:17:44Z</time>
      </trkpt>
      <trkpt lat="45.18441" lon="5.98614">
        <ele>2511.4</ele>
        <time>2021-02-27T08:17:47Z</time>
      </trkpt>
      <trkpt lat="45.18444" lon="5.98615">
        <ele>2511.4</ele>
        <time>2021-02-27T08:17:49Z</time>
      </trkpt>
      <trkpt lat="45.18446" lon="5.98617">
        <ele>2511.4</ele>
        <time>2021-02-27T08:17:51Z</time>
      </trkpt>
      <trkpt lat="45.18446" lon="5.98617">
        <ele>2513.2</ele>
        <time>2021-02-27T08:17:53Z</time>
      </trkpt>
      <trkpt lat="45.18449" lon="5.9862">
        <ele>2513.2</ele>
        <time>2021-02-27T08:17:54Z</time>
      </trkpt>
      <trkpt lat="45.18451" lon="5.98621">
        <ele>2513.2</ele>
        <time>2021-02-27T08:17:56Z</time>
      </trkpt>
      <trkpt lat="45.18453" lon="5.98621">
        <ele>2513.2</ele>
        <time>2021-02-27T08:17:58Z</time>
      </trkpt>
      <trkpt lat="45.18454" lon="5.98622">
        <ele>2513.2</ele>
        <time>2021-02-27T08:18:00Z</time>
      </trkpt>
      <trkpt lat="45.18456" lon="5.98623">
        <ele>2513.2</ele>
        <time>2021-02-27T08:18:02Z</time>
      </trkpt>
      <trkpt lat="45.18458" lon="5.98623">
        <ele>2514.2</ele>
        <time>2021-02-27T08:18:03Z</time>
      </trkpt>
      <trkpt lat="45.18459" lon="5.98624">
        <ele>2514.2</ele>
        <time>2021-02-27T08:18:04Z</time>
      </trkpt>
      <trkpt lat="45.18461" lon="5.98625">
        <ele>2514.2</ele>
        <time>2021-02-27T08:18:06Z</time>
      </trkpt>
      <trkpt lat="45.18463" lon="5.98626">
        <ele>2514.2</ele>
        <time>2021-02-27T08:18:08Z</time>
      </trkpt>
      <trkpt lat="45.18465" lon="5.98628">
        <ele>2514.2</ele>
        <time>2021-02-27T08:18:11Z</time>
      </trkpt>
      <trkpt lat="45.18465" lon="5.98628">
        <ele>2516.2</ele>
        <time>2021-02-27T08:18:13Z</time>
      </trkpt>
      <trkpt lat="45.18467" lon="5.98633">
        <ele>2516.2</ele>
        <time>2021-02-27T08:18:14Z</time>
      </trkpt>
      <trkpt lat="45.18468" lon="5.98634">
        <ele>2516.2</ele>
        <time>2021-02-27T08:18:17Z</time>
      </trkpt>
      <trkpt lat="45.18468" lon="5.98636">
        <ele>2516.2</ele>
        <time>2021-02-27T08:18:20Z</time>
      </trkpt>
      <trkpt lat="45.18469" lon="5.98638">
        <ele>2516.2</ele>
        <time>2021-02-27T08:18:22Z</time>
      </trkpt>
      <trkpt lat="45.18469" lon="5.9864">
        <ele>2519</ele>
        <time>2021-02-27T08:18:23Z</time>
      </trkpt>
      <trkpt lat="45.18471" lon="5.98643">
        <ele>2519</ele>
        <time>2021-02-27T08:18:25Z</time>
      </trkpt>
      <trkpt lat="45.18472" lon="5.98646">
        <ele>2519</ele>
        <time>2021-02-27T08:18:28Z</time>
      </trkpt>
      <trkpt lat="45.18473" lon="5.98649">
        <ele>2519</ele>
        <time>2021-02-27T08:18:31Z</time>
      </trkpt>
      <trkpt lat="45.18473" lon="5.98649">
        <ele>2522.6</ele>
        <time>2021-02-27T08:18:33Z</time>
      </trkpt>
      <trkpt lat="45.18475" lon="5.98654">
        <ele>2522.6</ele>
        <time>2021-02-27T08:18:34Z</time>
      </trkpt>
      <trkpt lat="45.18476" lon="5.98656">
        <ele>2522.6</ele>
        <time>2021-02-27T08:18:37Z</time>
      </trkpt>
      <trkpt lat="45.18476" lon="5.98657">
        <ele>2522.6</ele>
        <time>2021-02-27T08:18:40Z</time>
      </trkpt>
      <trkpt lat="45.18477" lon="5.98659">
        <ele>2522.6</ele>
        <time>2021-02-27T08:18:42Z</time>
      </trkpt>
      <trkpt lat="45.18478" lon="5.98661">
        <ele>2524.6</ele>
        <time>2021-02-27T08:18:43Z</time>
      </trkpt>
      <trkpt lat="45.18478" lon="5.98664">
        <ele>2524.6</ele>
        <time>2021-02-27T08:18:45Z</time>
      </trkpt>
      <trkpt lat="45.18479" lon="5.98667">
        <ele>2524.6</ele>
        <time>2021-02-27T08:18:47Z</time>
      </trkpt>
      <trkpt lat="45.18479" lon="5.9867">
        <ele>2524.6</ele>
        <time>2021-02-27T08:18:49Z</time>
      </trkpt>
      <trkpt lat="45.1848" lon="5.98673">
        <ele>2524.6</ele>
        <time>2021-02-27T08:18:51Z</time>
      </trkpt>
      <trkpt lat="45.1848" lon="5.98673">
        <ele>2527.4</ele>
        <time>2021-02-27T08:18:53Z</time>
      </trkpt>
      <trkpt lat="45.18481" lon="5.98676">
        <ele>2527.4</ele>
        <time>2021-02-27T08:18:54Z</time>
      </trkpt>
      <trkpt lat="45.18481" lon="5.98679">
        <ele>2527.4</ele>
        <time>2021-02-27T08:18:57Z</time>
      </trkpt>
      <trkpt lat="45.18482" lon="5.98682">
        <ele>2527.4</ele>
        <time>2021-02-27T08:18:59Z</time>
      </trkpt>
      <trkpt lat="45.18482" lon="5.98684">
        <ele>2527.4</ele>
        <time>2021-02-27T08:19:01Z</time>
      </trkpt>
      <trkpt lat="45.18482" lon="5.98687">
        <ele>2530</ele>
        <time>2021-02-27T08:19:03Z</time>
      </trkpt>
      <trkpt lat="45.18482" lon="5.9869">
        <ele>2530</ele>
        <time>2021-02-27T08:19:06Z</time>
      </trkpt>
      <trkpt lat="45.18484" lon="5.98692">
        <ele>2530</ele>
        <time>2021-02-27T08:19:10Z</time>
      </trkpt>
      <trkpt lat="45.18485" lon="5.98695">
        <ele>2532.8</ele>
        <time>2021-02-27T08:19:13Z</time>
      </trkpt>
      <trkpt lat="45.18485" lon="5.98699">
        <ele>2532.8</ele>
        <time>2021-02-27T08:19:16Z</time>
      </trkpt>
      <trkpt lat="45.18485" lon="5.98702">
        <ele>2532.8</ele>
        <time>2021-02-27T08:19:19Z</time>
      </trkpt>
      <trkpt lat="45.18485" lon="5.98705">
        <ele>2532.8</ele>
        <time>2021-02-27T08:19:21Z</time>
      </trkpt>
      <trkpt lat="45.18485" lon="5.98705">
        <ele>2535.2</ele>
        <time>2021-02-27T08:19:23Z</time>
      </trkpt>
      <trkpt lat="45.18486" lon="5.9871">
        <ele>2535.2</ele>
        <time>2021-02-27T08:19:24Z</time>
      </trkpt>
      <trkpt lat="45.18487" lon="5.9871">
        <ele>2535.2</ele>
        <time>2021-02-27T08:19:27Z</time>
      </trkpt>
      <trkpt lat="45.18488" lon="5.98711">
        <ele>2535.2</ele>
        <time>2021-02-27T08:19:30Z</time>
      </trkpt>
      <trkpt lat="45.18489" lon="5.98712">
        <ele>2535.2</ele>
        <time>2021-02-27T08:19:32Z</time>
      </trkpt>
      <trkpt lat="45.1849" lon="5.98713">
        <ele>2537</ele>
        <time>2021-02-27T08:19:33Z</time>
      </trkpt>
      <trkpt lat="45.18493" lon="5.98712">
        <ele>2537</ele>
        <time>2021-02-27T08:19:34Z</time>
      </trkpt>
      <trkpt lat="45.18494" lon="5.98711">
        <ele>2537</ele>
        <time>2021-02-27T08:19:37Z</time>
      </trkpt>
      <trkpt lat="45.18496" lon="5.9871">
        <ele>2537</ele>
        <time>2021-02-27T08:19:39Z</time>
      </trkpt>
      <trkpt lat="45.18497" lon="5.98709">
        <ele>2537</ele>
        <time>2021-02-27T08:19:42Z</time>
      </trkpt>
      <trkpt lat="45.18498" lon="5.98707">
        <ele>2538.6</ele>
        <time>2021-02-27T08:19:43Z</time>
      </trkpt>
      <trkpt lat="45.185" lon="5.98705">
        <ele>2538.6</ele>
        <time>2021-02-27T08:19:45Z</time>
      </trkpt>
      <trkpt lat="45.18501" lon="5.98704">
        <ele>2538.6</ele>
        <time>2021-02-27T08:19:51Z</time>
      </trkpt>
      <trkpt lat="45.18502" lon="5.98707">
        <ele>2541.6</ele>
        <time>2021-02-27T08:19:53Z</time>
      </trkpt>
      <trkpt lat="45.18502" lon="5.98709">
        <ele>2541.6</ele>
        <time>2021-02-27T08:19:55Z</time>
      </trkpt>
      <trkpt lat="45.18502" lon="5.98713">
        <ele>2541.6</ele>
        <time>2021-02-27T08:19:57Z</time>
      </trkpt>
      <trkpt lat="45.18503" lon="5.98716">
        <ele>2541.6</ele>
        <time>2021-02-27T08:19:59Z</time>
      </trkpt>
      <trkpt lat="45.18503" lon="5.98718">
        <ele>2541.6</ele>
        <time>2021-02-27T08:20:01Z</time>
      </trkpt>
      <trkpt lat="45.18503" lon="5.98721">
        <ele>2543.2</ele>
        <time>2021-02-27T08:20:03Z</time>
      </trkpt>
      <trkpt lat="45.18502" lon="5.98726">
        <ele>2543.2</ele>
        <time>2021-02-27T08:20:05Z</time>
      </trkpt>
      <trkpt lat="45.18502" lon="5.98727">
        <ele>2543.2</ele>
        <time>2021-02-27T08:20:07Z</time>
      </trkpt>
      <trkpt lat="45.18501" lon="5.98729">
        <ele>2543.2</ele>
        <time>2021-02-27T08:20:09Z</time>
      </trkpt>
      <trkpt lat="45.18501" lon="5.98731">
        <ele>2543.2</ele>
        <time>2021-02-27T08:20:12Z</time>
      </trkpt>
      <trkpt lat="45.18501" lon="5.98732">
        <ele>2546.6</ele>
        <time>2021-02-27T08:20:13Z</time>
      </trkpt>
      <trkpt lat="45.18504" lon="5.98731">
        <ele>2546.6</ele>
        <time>2021-02-27T08:20:18Z</time>
      </trkpt>
      <trkpt lat="45.18505" lon="5.9873">
        <ele>2546.6</ele>
        <time>2021-02-27T08:20:20Z</time>
      </trkpt>
      <trkpt lat="45.18506" lon="5.98729">
        <ele>2546.6</ele>
        <time>2021-02-27T08:20:22Z</time>
      </trkpt>
      <trkpt lat="45.18507" lon="5.98728">
        <ele>2547.6</ele>
        <time>2021-02-27T08:20:23Z</time>
      </trkpt>
      <trkpt lat="45.18509" lon="5.98725">
        <ele>2547.6</ele>
        <time>2021-02-27T08:20:24Z</time>
      </trkpt>
      <trkpt lat="45.1851" lon="5.98723">
        <ele>2547.6</ele>
        <time>2021-02-27T08:20:26Z</time>
      </trkpt>
      <trkpt lat="45.18512" lon="5.9872">
        <ele>2547.6</ele>
        <time>2021-02-27T08:20:28Z</time>
      </trkpt>
      <trkpt lat="45.18513" lon="5.98716">
        <ele>2547.6</ele>
        <time>2021-02-27T08:20:31Z</time>
      </trkpt>
      <trkpt lat="45.18513" lon="5.98716">
        <ele>2549.2</ele>
        <time>2021-02-27T08:20:33Z</time>
      </trkpt>
      <trkpt lat="45.18514" lon="5.98713">
        <ele>2549.2</ele>
        <time>2021-02-27T08:20:34Z</time>
      </trkpt>
      <trkpt lat="45.18515" lon="5.9871">
        <ele>2549.2</ele>
        <time>2021-02-27T08:20:38Z</time>
      </trkpt>
      <trkpt lat="45.18516" lon="5.98711">
        <ele>2549.2</ele>
        <time>2021-02-27T08:20:41Z</time>
      </trkpt>
      <trkpt lat="45.18518" lon="5.98714">
        <ele>2551.4</ele>
        <time>2021-02-27T08:20:43Z</time>
      </trkpt>
      <trkpt lat="45.18518" lon="5.98718">
        <ele>2551.4</ele>
        <time>2021-02-27T08:20:45Z</time>
      </trkpt>
      <trkpt lat="45.18519" lon="5.98721">
        <ele>2551.4</ele>
        <time>2021-02-27T08:20:47Z</time>
      </trkpt>
      <trkpt lat="45.18519" lon="5.98725">
        <ele>2551.4</ele>
        <time>2021-02-27T08:20:49Z</time>
      </trkpt>
      <trkpt lat="45.1852" lon="5.98727">
        <ele>2551.4</ele>
        <time>2021-02-27T08:20:51Z</time>
      </trkpt>
      <trkpt lat="45.1852" lon="5.9873">
        <ele>2554.2</ele>
        <time>2021-02-27T08:20:53Z</time>
      </trkpt>
      <trkpt lat="45.18519" lon="5.98733">
        <ele>2554.2</ele>
        <time>2021-02-27T08:20:55Z</time>
      </trkpt>
      <trkpt lat="45.18519" lon="5.98737">
        <ele>2554.2</ele>
        <time>2021-02-27T08:20:57Z</time>
      </trkpt>
      <trkpt lat="45.18518" lon="5.9874">
        <ele>2554.2</ele>
        <time>2021-02-27T08:20:59Z</time>
      </trkpt>
      <trkpt lat="45.18518" lon="5.98743">
        <ele>2554.2</ele>
        <time>2021-02-27T08:21:01Z</time>
      </trkpt>
      <trkpt lat="45.18517" lon="5.98746">
        <ele>2557.2</ele>
        <time>2021-02-27T08:21:03Z</time>
      </trkpt>
      <trkpt lat="45.18518" lon="5.98748">
        <ele>2557.2</ele>
        <time>2021-02-27T08:21:05Z</time>
      </trkpt>
      <trkpt lat="45.18519" lon="5.98747">
        <ele>2557.2</ele>
        <time>2021-02-27T08:21:09Z</time>
      </trkpt>
      <trkpt lat="45.1852" lon="5.98746">
        <ele>2558.2</ele>
        <time>2021-02-27T08:21:13Z</time>
      </trkpt>
      <trkpt lat="45.18521" lon="5.98745">
        <ele>2558.2</ele>
        <time>2021-02-27T08:21:16Z</time>
      </trkpt>
      <trkpt lat="45.18523" lon="5.98744">
        <ele>2558.2</ele>
        <time>2021-02-27T08:21:18Z</time>
      </trkpt>
      <trkpt lat="45.18524" lon="5.98744">
        <ele>2558.2</ele>
        <time>2021-02-27T08:21:20Z</time>
      </trkpt>
      <trkpt lat="45.18525" lon="5.98743">
        <ele>2558.2</ele>
        <time>2021-02-27T08:21:22Z</time>
      </trkpt>
      <trkpt lat="45.18526" lon="5.98742">
        <ele>2559.2</ele>
        <time>2021-02-27T08:21:23Z</time>
      </trkpt>
      <trkpt lat="45.18528" lon="5.98739">
        <ele>2559.2</ele>
        <time>2021-02-27T08:21:24Z</time>
      </trkpt>
      <trkpt lat="45.18529" lon="5.98737">
        <ele>2559.2</ele>
        <time>2021-02-27T08:21:26Z</time>
      </trkpt>
      <trkpt lat="45.1853" lon="5.98736">
        <ele>2559.2</ele>
        <time>2021-02-27T08:21:28Z</time>
      </trkpt>
      <trkpt lat="45.18531" lon="5.98734">
        <ele>2559.2</ele>
        <time>2021-02-27T08:21:30Z</time>
      </trkpt>
      <trkpt lat="45.18532" lon="5.98732">
        <ele>2559.2</ele>
        <time>2021-02-27T08:21:32Z</time>
      </trkpt>
      <trkpt lat="45.18533" lon="5.98731">
        <ele>2560.8</ele>
        <time>2021-02-27T08:21:33Z</time>
      </trkpt>
      <trkpt lat="45.18533" lon="5.98729">
        <ele>2560.8</ele>
        <time>2021-02-27T08:21:34Z</time>
      </trkpt>
      <trkpt lat="45.18534" lon="5.98726">
        <ele>2560.8</ele>
        <time>2021-02-27T08:21:36Z</time>
      </trkpt>
      <trkpt lat="45.18535" lon="5.98724">
        <ele>2560.8</ele>
        <time>2021-02-27T08:21:38Z</time>
      </trkpt>
      <trkpt lat="45.18535" lon="5.9872">
        <ele>2560.8</ele>
        <time>2021-02-27T08:21:41Z</time>
      </trkpt>
      <trkpt lat="45.18536" lon="5.98717">
        <ele>2563.2</ele>
        <time>2021-02-27T08:21:43Z</time>
      </trkpt>
      <trkpt lat="45.18538" lon="5.98712">
        <ele>2563.2</ele>
        <time>2021-02-27T08:21:46Z</time>
      </trkpt>
      <trkpt lat="45.18539" lon="5.9871">
        <ele>2563.2</ele>
        <time>2021-02-27T08:21:49Z</time>
      </trkpt>
      <trkpt lat="45.18539" lon="5.98708">
        <ele>2563.2</ele>
        <time>2021-02-27T08:21:52Z</time>
      </trkpt>
      <trkpt lat="45.1854" lon="5.98706">
        <ele>2565.2</ele>
        <time>2021-02-27T08:21:53Z</time>
      </trkpt>
      <trkpt lat="45.18541" lon="5.98707">
        <ele>2565.2</ele>
        <time>2021-02-27T08:21:55Z</time>
      </trkpt>
      <trkpt lat="45.18542" lon="5.98708">
        <ele>2565.2</ele>
        <time>2021-02-27T08:21:58Z</time>
      </trkpt>
      <trkpt lat="45.18543" lon="5.9871">
        <ele>2565.2</ele>
        <time>2021-02-27T08:22:00Z</time>
      </trkpt>
      <trkpt lat="45.18543" lon="5.98712">
        <ele>2565.2</ele>
        <time>2021-02-27T08:22:02Z</time>
      </trkpt>
      <trkpt lat="45.18544" lon="5.98714">
        <ele>2568</ele>
        <time>2021-02-27T08:22:03Z</time>
      </trkpt>
      <trkpt lat="45.18545" lon="5.98718">
        <ele>2568</ele>
        <time>2021-02-27T08:22:04Z</time>
      </trkpt>
      <trkpt lat="45.18546" lon="5.98721">
        <ele>2568</ele>
        <time>2021-02-27T08:22:06Z</time>
      </trkpt>
      <trkpt lat="45.18547" lon="5.98723">
        <ele>2568</ele>
        <time>2021-02-27T08:22:08Z</time>
      </trkpt>
      <trkpt lat="45.18548" lon="5.98725">
        <ele>2568</ele>
        <time>2021-02-27T08:22:10Z</time>
      </trkpt>
      <trkpt lat="45.18549" lon="5.98727">
        <ele>2568</ele>
        <time>2021-02-27T08:22:12Z</time>
      </trkpt>
      <trkpt lat="45.1855" lon="5.9873">
        <ele>2570</ele>
        <time>2021-02-27T08:22:13Z</time>
      </trkpt>
      <trkpt lat="45.1855" lon="5.98731">
        <ele>2570</ele>
        <time>2021-02-27T08:22:14Z</time>
      </trkpt>
      <trkpt lat="45.18552" lon="5.98734">
        <ele>2570</ele>
        <time>2021-02-27T08:22:16Z</time>
      </trkpt>
      <trkpt lat="45.18552" lon="5.98737">
        <ele>2570</ele>
        <time>2021-02-27T08:22:18Z</time>
      </trkpt>
      <trkpt lat="45.18553" lon="5.9874">
        <ele>2570</ele>
        <time>2021-02-27T08:22:21Z</time>
      </trkpt>
      <trkpt lat="45.18555" lon="5.98742">
        <ele>2572.4</ele>
        <time>2021-02-27T08:22:23Z</time>
      </trkpt>
      <trkpt lat="45.18555" lon="5.98745">
        <ele>2572.4</ele>
        <time>2021-02-27T08:22:26Z</time>
      </trkpt>
      <trkpt lat="45.18555" lon="5.98748">
        <ele>2572.4</ele>
        <time>2021-02-27T08:22:28Z</time>
      </trkpt>
      <trkpt lat="45.18555" lon="5.98751">
        <ele>2572.4</ele>
        <time>2021-02-27T08:22:30Z</time>
      </trkpt>
      <trkpt lat="45.18555" lon="5.98754">
        <ele>2575</ele>
        <time>2021-02-27T08:22:33Z</time>
      </trkpt>
      <trkpt lat="45.18556" lon="5.98757">
        <ele>2575</ele>
        <time>2021-02-27T08:22:36Z</time>
      </trkpt>
      <trkpt lat="45.18556" lon="5.9876">
        <ele>2575</ele>
        <time>2021-02-27T08:22:38Z</time>
      </trkpt>
      <trkpt lat="45.18556" lon="5.98763">
        <ele>2575</ele>
        <time>2021-02-27T08:22:41Z</time>
      </trkpt>
      <trkpt lat="45.18557" lon="5.98765">
        <ele>2577.2</ele>
        <time>2021-02-27T08:22:43Z</time>
      </trkpt>
      <trkpt lat="45.18558" lon="5.9877">
        <ele>2577.2</ele>
        <time>2021-02-27T08:22:46Z</time>
      </trkpt>
      <trkpt lat="45.18558" lon="5.98772">
        <ele>2577.2</ele>
        <time>2021-02-27T08:22:49Z</time>
      </trkpt>
      <trkpt lat="45.18558" lon="5.98774">
        <ele>2577.2</ele>
        <time>2021-02-27T08:22:52Z</time>
      </trkpt>
      <trkpt lat="45.18558" lon="5.98775">
        <ele>2580.8</ele>
        <time>2021-02-27T08:22:53Z</time>
      </trkpt>
      <trkpt lat="45.18559" lon="5.98779">
        <ele>2580.8</ele>
        <time>2021-02-27T08:22:55Z</time>
      </trkpt>
      <trkpt lat="45.18559" lon="5.98782">
        <ele>2580.8</ele>
        <time>2021-02-27T08:22:58Z</time>
      </trkpt>
      <trkpt lat="45.18558" lon="5.98785">
        <ele>2580.8</ele>
        <time>2021-02-27T08:23:00Z</time>
      </trkpt>
      <trkpt lat="45.18558" lon="5.98788">
        <ele>2583.6</ele>
        <time>2021-02-27T08:23:03Z</time>
      </trkpt>
      <trkpt lat="45.18559" lon="5.9879">
        <ele>2583.6</ele>
        <time>2021-02-27T08:23:06Z</time>
      </trkpt>
      <trkpt lat="45.1856" lon="5.9879">
        <ele>2583.6</ele>
        <time>2021-02-27T08:23:09Z</time>
      </trkpt>
      <trkpt lat="45.18561" lon="5.98789">
        <ele>2585.6</ele>
        <time>2021-02-27T08:23:13Z</time>
      </trkpt>
      <trkpt lat="45.18563" lon="5.98789">
        <ele>2585.6</ele>
        <time>2021-02-27T08:23:18Z</time>
      </trkpt>
      <trkpt lat="45.18564" lon="5.98788">
        <ele>2585.6</ele>
        <time>2021-02-27T08:23:20Z</time>
      </trkpt>
      <trkpt lat="45.18565" lon="5.98788">
        <ele>2586.8</ele>
        <time>2021-02-27T08:23:23Z</time>
      </trkpt>
      <trkpt lat="45.18566" lon="5.98787">
        <ele>2586.8</ele>
        <time>2021-02-27T08:23:26Z</time>
      </trkpt>
      <trkpt lat="45.18568" lon="5.98787">
        <ele>2586.8</ele>
        <time>2021-02-27T08:23:29Z</time>
      </trkpt>
      <trkpt lat="45.18569" lon="5.98786">
        <ele>2586.8</ele>
        <time>2021-02-27T08:23:32Z</time>
      </trkpt>
      <trkpt lat="45.1857" lon="5.98786">
        <ele>2589.8</ele>
        <time>2021-02-27T08:23:33Z</time>
      </trkpt>
      <trkpt lat="45.18569" lon="5.98789">
        <ele>2589.8</ele>
        <time>2021-02-27T08:23:35Z</time>
      </trkpt>
      <trkpt lat="45.18569" lon="5.98792">
        <ele>2589.8</ele>
        <time>2021-02-27T08:23:37Z</time>
      </trkpt>
      <trkpt lat="45.18568" lon="5.98795">
        <ele>2589.8</ele>
        <time>2021-02-27T08:23:40Z</time>
      </trkpt>
      <trkpt lat="45.18568" lon="5.98799">
        <ele>2593</ele>
        <time>2021-02-27T08:23:43Z</time>
      </trkpt>
      <trkpt lat="45.18567" lon="5.98803">
        <ele>2593</ele>
        <time>2021-02-27T08:23:45Z</time>
      </trkpt>
      <trkpt lat="45.18566" lon="5.98805">
        <ele>2593</ele>
        <time>2021-02-27T08:23:47Z</time>
      </trkpt>
      <trkpt lat="45.18566" lon="5.98807">
        <ele>2593</ele>
        <time>2021-02-27T08:23:49Z</time>
      </trkpt>
      <trkpt lat="45.18565" lon="5.98809">
        <ele>2593</ele>
        <time>2021-02-27T08:23:52Z</time>
      </trkpt>
      <trkpt lat="45.18565" lon="5.9881">
        <ele>2596</ele>
        <time>2021-02-27T08:23:53Z</time>
      </trkpt>
      <trkpt lat="45.18563" lon="5.98814">
        <ele>2596</ele>
        <time>2021-02-27T08:23:55Z</time>
      </trkpt>
      <trkpt lat="45.18563" lon="5.98815">
        <ele>2596</ele>
        <time>2021-02-27T08:23:57Z</time>
      </trkpt>
      <trkpt lat="45.18562" lon="5.98817">
        <ele>2596</ele>
        <time>2021-02-27T08:24:00Z</time>
      </trkpt>
      <trkpt lat="45.18562" lon="5.98818">
        <ele>2596</ele>
        <time>2021-02-27T08:24:02Z</time>
      </trkpt>
      <trkpt lat="45.18561" lon="5.9882">
        <ele>2599</ele>
        <time>2021-02-27T08:24:03Z</time>
      </trkpt>
      <trkpt lat="45.1856" lon="5.98821">
        <ele>2599</ele>
        <time>2021-02-27T08:24:05Z</time>
      </trkpt>
      <trkpt lat="45.18558" lon="5.98823">
        <ele>2599</ele>
        <time>2021-02-27T08:24:09Z</time>
      </trkpt>
      <trkpt lat="45.18558" lon="5.98823">
        <ele>2601</ele>
        <time>2021-02-27T08:24:13Z</time>
      </trkpt>
      <trkpt lat="45.1856" lon="5.98824">
        <ele>2601</ele>
        <time>2021-02-27T08:24:16Z</time>
      </trkpt>
      <trkpt lat="45.18562" lon="5.98824">
        <ele>2601</ele>
        <time>2021-02-27T08:24:18Z</time>
      </trkpt>
      <trkpt lat="45.18565" lon="5.98824">
        <ele>2601</ele>
        <time>2021-02-27T08:24:21Z</time>
      </trkpt>
      <trkpt lat="45.18566" lon="5.98824">
        <ele>2602</ele>
        <time>2021-02-27T08:24:23Z</time>
      </trkpt>
      <trkpt lat="45.18571" lon="5.98821">
        <ele>2602</ele>
        <time>2021-02-27T08:24:25Z</time>
      </trkpt>
      <trkpt lat="45.18572" lon="5.9882">
        <ele>2602</ele>
        <time>2021-02-27T08:24:28Z</time>
      </trkpt>
      <trkpt lat="45.18574" lon="5.98819">
        <ele>2602</ele>
        <time>2021-02-27T08:24:30Z</time>
      </trkpt>
      <trkpt lat="45.18575" lon="5.98818">
        <ele>2602</ele>
        <time>2021-02-27T08:24:32Z</time>
      </trkpt>
      <trkpt lat="45.18577" lon="5.98817">
        <ele>2603.8</ele>
        <time>2021-02-27T08:24:33Z</time>
      </trkpt>
      <trkpt lat="45.18578" lon="5.98816">
        <ele>2603.8</ele>
        <time>2021-02-27T08:24:34Z</time>
      </trkpt>
      <trkpt lat="45.1858" lon="5.98815">
        <ele>2603.8</ele>
        <time>2021-02-27T08:24:36Z</time>
      </trkpt>
      <trkpt lat="45.18582" lon="5.98813">
        <ele>2603.8</ele>
        <time>2021-02-27T08:24:38Z</time>
      </trkpt>
      <trkpt lat="45.18584" lon="5.98812">
        <ele>2603.8</ele>
        <time>2021-02-27T08:24:41Z</time>
      </trkpt>
      <trkpt lat="45.18586" lon="5.9881">
        <ele>2605.8</ele>
        <time>2021-02-27T08:24:43Z</time>
      </trkpt>
      <trkpt lat="45.18588" lon="5.98809">
        <ele>2605.8</ele>
        <time>2021-02-27T08:24:45Z</time>
      </trkpt>
      <trkpt lat="45.18589" lon="5.98807">
        <ele>2605.8</ele>
        <time>2021-02-27T08:24:47Z</time>
      </trkpt>
      <trkpt lat="45.18591" lon="5.98804">
        <ele>2605.8</ele>
        <time>2021-02-27T08:24:50Z</time>
      </trkpt>
      <trkpt lat="45.18594" lon="5.98802">
        <ele>2608.8</ele>
        <time>2021-02-27T08:24:53Z</time>
      </trkpt>
      <trkpt lat="45.18596" lon="5.98799">
        <ele>2608.8</ele>
        <time>2021-02-27T08:24:55Z</time>
      </trkpt>
      <trkpt lat="45.18597" lon="5.98797">
        <ele>2608.8</ele>
        <time>2021-02-27T08:24:58Z</time>
      </trkpt>
      <trkpt lat="45.18599" lon="5.98795">
        <ele>2608.8</ele>
        <time>2021-02-27T08:25:00Z</time>
      </trkpt>
      <trkpt lat="45.18601" lon="5.98792">
        <ele>2611</ele>
        <time>2021-02-27T08:25:03Z</time>
      </trkpt>
      <trkpt lat="45.18602" lon="5.9879">
        <ele>2611</ele>
        <time>2021-02-27T08:25:06Z</time>
      </trkpt>
      <trkpt lat="45.18604" lon="5.98788">
        <ele>2611</ele>
        <time>2021-02-27T08:25:09Z</time>
      </trkpt>
      <trkpt lat="45.18606" lon="5.98786">
        <ele>2611</ele>
        <time>2021-02-27T08:25:11Z</time>
      </trkpt>
      <trkpt lat="45.18606" lon="5.98786">
        <ele>2613.2</ele>
        <time>2021-02-27T08:25:13Z</time>
      </trkpt>
      <trkpt lat="45.18609" lon="5.98782">
        <ele>2613.2</ele>
        <time>2021-02-27T08:25:14Z</time>
      </trkpt>
      <trkpt lat="45.1861" lon="5.98781">
        <ele>2613.2</ele>
        <time>2021-02-27T08:25:17Z</time>
      </trkpt>
      <trkpt lat="45.1861" lon="5.9878">
        <ele>2613.2</ele>
        <time>2021-02-27T08:25:19Z</time>
      </trkpt>
      <trkpt lat="45.18611" lon="5.98778">
        <ele>2613.2</ele>
        <time>2021-02-27T08:25:22Z</time>
      </trkpt>
      <trkpt lat="45.18612" lon="5.98777">
        <ele>2615.2</ele>
        <time>2021-02-27T08:25:23Z</time>
      </trkpt>
      <trkpt lat="45.18613" lon="5.98774">
        <ele>2615.2</ele>
        <time>2021-02-27T08:25:25Z</time>
      </trkpt>
      <trkpt lat="45.18614" lon="5.9877">
        <ele>2615.2</ele>
        <time>2021-02-27T08:25:27Z</time>
      </trkpt>
      <trkpt lat="45.18615" lon="5.98767">
        <ele>2615.2</ele>
        <time>2021-02-27T08:25:29Z</time>
      </trkpt>
      <trkpt lat="45.18617" lon="5.98764">
        <ele>2615.2</ele>
        <time>2021-02-27T08:25:31Z</time>
      </trkpt>
      <trkpt lat="45.18618" lon="5.98761">
        <ele>2616.4</ele>
        <time>2021-02-27T08:25:33Z</time>
      </trkpt>
      <trkpt lat="45.18618" lon="5.98758">
        <ele>2616.4</ele>
        <time>2021-02-27T08:25:35Z</time>
      </trkpt>
      <trkpt lat="45.18619" lon="5.98755">
        <ele>2616.4</ele>
        <time>2021-02-27T08:25:37Z</time>
      </trkpt>
      <trkpt lat="45.1862" lon="5.98752">
        <ele>2616.4</ele>
        <time>2021-02-27T08:25:39Z</time>
      </trkpt>
      <trkpt lat="45.18621" lon="5.98749">
        <ele>2616.4</ele>
        <time>2021-02-27T08:25:41Z</time>
      </trkpt>
      <trkpt lat="45.18622" lon="5.98745">
        <ele>2618</ele>
        <time>2021-02-27T08:25:43Z</time>
      </trkpt>
      <trkpt lat="45.18623" lon="5.98742">
        <ele>2618</ele>
        <time>2021-02-27T08:25:45Z</time>
      </trkpt>
      <trkpt lat="45.18623" lon="5.98739">
        <ele>2618</ele>
        <time>2021-02-27T08:25:47Z</time>
      </trkpt>
      <trkpt lat="45.18623" lon="5.98736">
        <ele>2618</ele>
        <time>2021-02-27T08:25:50Z</time>
      </trkpt>
      <trkpt lat="45.18623" lon="5.98736">
        <ele>2618.4</ele>
        <time>2021-02-27T08:25:53Z</time>
      </trkpt>
      <trkpt lat="45.18625" lon="5.98735">
        <ele>2618.4</ele>
        <time>2021-02-27T08:25:58Z</time>
      </trkpt>
      <trkpt lat="45.18625" lon="5.98737">
        <ele>2620.2</ele>
        <time>2021-02-27T08:26:03Z</time>
      </trkpt>
      <trkpt lat="45.18626" lon="5.98738">
        <ele>2620.2</ele>
        <time>2021-02-27T08:26:04Z</time>
      </trkpt>
      <trkpt lat="45.18627" lon="5.9874">
        <ele>2620.2</ele>
        <time>2021-02-27T08:26:07Z</time>
      </trkpt>
      <trkpt lat="45.18627" lon="5.98741">
        <ele>2620.2</ele>
        <time>2021-02-27T08:26:10Z</time>
      </trkpt>
      <trkpt lat="45.18628" lon="5.98743">
        <ele>2620.2</ele>
        <time>2021-02-27T08:26:12Z</time>
      </trkpt>
      <trkpt lat="45.18629" lon="5.98745">
        <ele>2622</ele>
        <time>2021-02-27T08:26:13Z</time>
      </trkpt>
      <trkpt lat="45.18629" lon="5.98746">
        <ele>2622</ele>
        <time>2021-02-27T08:26:15Z</time>
      </trkpt>
      <trkpt lat="45.1863" lon="5.98744">
        <ele>2622</ele>
        <time>2021-02-27T08:26:20Z</time>
      </trkpt>
      <trkpt lat="45.1863" lon="5.98742">
        <ele>2622</ele>
        <time>2021-02-27T08:26:22Z</time>
      </trkpt>
      <trkpt lat="45.1863" lon="5.98741">
        <ele>2624</ele>
        <time>2021-02-27T08:26:23Z</time>
      </trkpt>
      <trkpt lat="45.18631" lon="5.98735">
        <ele>2624</ele>
        <time>2021-02-27T08:26:24Z</time>
      </trkpt>
      <trkpt lat="45.18631" lon="5.98732">
        <ele>2624</ele>
        <time>2021-02-27T08:26:26Z</time>
      </trkpt>
      <trkpt lat="45.18631" lon="5.9873">
        <ele>2624</ele>
        <time>2021-02-27T08:26:28Z</time>
      </trkpt>
      <trkpt lat="45.18631" lon="5.98727">
        <ele>2624</ele>
        <time>2021-02-27T08:26:30Z</time>
      </trkpt>
      <trkpt lat="45.1863" lon="5.98725">
        <ele>2624</ele>
        <time>2021-02-27T08:26:32Z</time>
      </trkpt>
      <trkpt lat="45.1863" lon="5.98722">
        <ele>2625.8</ele>
        <time>2021-02-27T08:26:33Z</time>
      </trkpt>
      <trkpt lat="45.1863" lon="5.9872">
        <ele>2625.8</ele>
        <time>2021-02-27T08:26:34Z</time>
      </trkpt>
      <trkpt lat="45.1863" lon="5.98717">
        <ele>2625.8</ele>
        <time>2021-02-27T08:26:36Z</time>
      </trkpt>
      <trkpt lat="45.1863" lon="5.98714">
        <ele>2625.8</ele>
        <time>2021-02-27T08:26:38Z</time>
      </trkpt>
      <trkpt lat="45.1863" lon="5.98711">
        <ele>2625.8</ele>
        <time>2021-02-27T08:26:40Z</time>
      </trkpt>
      <trkpt lat="45.18631" lon="5.98708">
        <ele>2626.4</ele>
        <time>2021-02-27T08:26:43Z</time>
      </trkpt>
      <trkpt lat="45.18633" lon="5.98703">
        <ele>2626.4</ele>
        <time>2021-02-27T08:26:46Z</time>
      </trkpt>
      <trkpt lat="45.18634" lon="5.98701">
        <ele>2626.4</ele>
        <time>2021-02-27T08:26:48Z</time>
      </trkpt>
      <trkpt lat="45.18635" lon="5.98699">
        <ele>2626.4</ele>
        <time>2021-02-27T08:26:50Z</time>
      </trkpt>
      <trkpt lat="45.18636" lon="5.98696">
        <ele>2626.4</ele>
        <time>2021-02-27T08:26:52Z</time>
      </trkpt>
      <trkpt lat="45.18637" lon="5.98694">
        <ele>2627.4</ele>
        <time>2021-02-27T08:26:53Z</time>
      </trkpt>
      <trkpt lat="45.18639" lon="5.9869">
        <ele>2627.4</ele>
        <time>2021-02-27T08:26:54Z</time>
      </trkpt>
      <trkpt lat="45.1864" lon="5.98689">
        <ele>2627.4</ele>
        <time>2021-02-27T08:26:56Z</time>
      </trkpt>
      <trkpt lat="45.18641" lon="5.98687">
        <ele>2627.4</ele>
        <time>2021-02-27T08:26:58Z</time>
      </trkpt>
      <trkpt lat="45.18642" lon="5.98685">
        <ele>2627.4</ele>
        <time>2021-02-27T08:27:00Z</time>
      </trkpt>
      <trkpt lat="45.18643" lon="5.98683">
        <ele>2627.4</ele>
        <time>2021-02-27T08:27:02Z</time>
      </trkpt>
      <trkpt lat="45.18644" lon="5.98681">
        <ele>2629.2</ele>
        <time>2021-02-27T08:27:03Z</time>
      </trkpt>
      <trkpt lat="45.18645" lon="5.9868">
        <ele>2629.2</ele>
        <time>2021-02-27T08:27:04Z</time>
      </trkpt>
      <trkpt lat="45.18648" lon="5.98679">
        <ele>2629.2</ele>
        <time>2021-02-27T08:27:06Z</time>
      </trkpt>
      <trkpt lat="45.1865" lon="5.98679">
        <ele>2629.2</ele>
        <time>2021-02-27T08:27:08Z</time>
      </trkpt>
      <trkpt lat="45.18652" lon="5.98679">
        <ele>2629.2</ele>
        <time>2021-02-27T08:27:10Z</time>
      </trkpt>
      <trkpt lat="45.18652" lon="5.98679">
        <ele>2630</ele>
        <time>2021-02-27T08:27:13Z</time>
      </trkpt>
      <trkpt lat="45.18656" lon="5.98679">
        <ele>2630</ele>
        <time>2021-02-27T08:27:15Z</time>
      </trkpt>
      <trkpt lat="45.18658" lon="5.98679">
        <ele>2630</ele>
        <time>2021-02-27T08:27:20Z</time>
      </trkpt>
      <trkpt lat="45.1866" lon="5.9868">
        <ele>2630</ele>
        <time>2021-02-27T08:27:21Z</time>
      </trkpt>
      <trkpt lat="45.18662" lon="5.9868">
        <ele>2630</ele>
        <time>2021-02-27T08:27:22Z</time>
      </trkpt>
      <trkpt lat="45.18665" lon="5.9868">
        <ele>2629.2</ele>
        <time>2021-02-27T08:27:23Z</time>
      </trkpt>
      <trkpt lat="45.18669" lon="5.9868">
        <ele>2629.2</ele>
        <time>2021-02-27T08:27:24Z</time>
      </trkpt>
      <trkpt lat="45.18671" lon="5.9868">
        <ele>2629.2</ele>
        <time>2021-02-27T08:27:26Z</time>
      </trkpt>
      <trkpt lat="45.18672" lon="5.9868">
        <ele>2629.2</ele>
        <time>2021-02-27T08:27:28Z</time>
      </trkpt>
      <trkpt lat="45.18674" lon="5.98679">
        <ele>2629.2</ele>
        <time>2021-02-27T08:27:30Z</time>
      </trkpt>
      <trkpt lat="45.18676" lon="5.98679">
        <ele>2629.2</ele>
        <time>2021-02-27T08:27:32Z</time>
      </trkpt>
      <trkpt lat="45.18678" lon="5.98678">
        <ele>2628</ele>
        <time>2021-02-27T08:27:33Z</time>
      </trkpt>
      <trkpt lat="45.18679" lon="5.98678">
        <ele>2628</ele>
        <time>2021-02-27T08:27:34Z</time>
      </trkpt>
      <trkpt lat="45.18681" lon="5.98677">
        <ele>2628</ele>
        <time>2021-02-27T08:27:36Z</time>
      </trkpt>
      <trkpt lat="45.18683" lon="5.98675">
        <ele>2628</ele>
        <time>2021-02-27T08:27:38Z</time>
      </trkpt>
      <trkpt lat="45.18685" lon="5.98674">
        <ele>2628</ele>
        <time>2021-02-27T08:27:39Z</time>
      </trkpt>
      <trkpt lat="45.18686" lon="5.98672">
        <ele>2628</ele>
        <time>2021-02-27T08:27:41Z</time>
      </trkpt>
      <trkpt lat="45.18688" lon="5.98671">
        <ele>2629.2</ele>
        <time>2021-02-27T08:27:43Z</time>
      </trkpt>
      <trkpt lat="45.18691" lon="5.9867">
        <ele>2629.2</ele>
        <time>2021-02-27T08:27:46Z</time>
      </trkpt>
      <trkpt lat="45.18693" lon="5.98669">
        <ele>2629.2</ele>
        <time>2021-02-27T08:27:50Z</time>
      </trkpt>
      <trkpt lat="45.18695" lon="5.98669">
        <ele>2630.2</ele>
        <time>2021-02-27T08:27:53Z</time>
      </trkpt>
      <trkpt lat="45.18697" lon="5.98669">
        <ele>2630.2</ele>
        <time>2021-02-27T08:27:55Z</time>
      </trkpt>
      <trkpt lat="45.18699" lon="5.98667">
        <ele>2630.2</ele>
        <time>2021-02-27T08:27:58Z</time>
      </trkpt>
      <trkpt lat="45.187" lon="5.98666">
        <ele>2630.2</ele>
        <time>2021-02-27T08:28:01Z</time>
      </trkpt>
      <trkpt lat="45.187" lon="5.98666">
        <ele>2631.6</ele>
        <time>2021-02-27T08:28:03Z</time>
      </trkpt>
      <trkpt lat="45.18702" lon="5.98664">
        <ele>2631.6</ele>
        <time>2021-02-27T08:28:04Z</time>
      </trkpt>
      <trkpt lat="45.18705" lon="5.98663">
        <ele>2631.6</ele>
        <time>2021-02-27T08:28:07Z</time>
      </trkpt>
      <trkpt lat="45.18707" lon="5.98662">
        <ele>2631.6</ele>
        <time>2021-02-27T08:28:09Z</time>
      </trkpt>
      <trkpt lat="45.18709" lon="5.98661">
        <ele>2631.6</ele>
        <time>2021-02-27T08:28:10Z</time>
      </trkpt>
      <trkpt lat="45.18711" lon="5.98659">
        <ele>2633</ele>
        <time>2021-02-27T08:28:13Z</time>
      </trkpt>
      <trkpt lat="45.18712" lon="5.98657">
        <ele>2633</ele>
        <time>2021-02-27T08:28:15Z</time>
      </trkpt>
      <trkpt lat="45.18714" lon="5.98656">
        <ele>2633</ele>
        <time>2021-02-27T08:28:17Z</time>
      </trkpt>
      <trkpt lat="45.18716" lon="5.98654">
        <ele>2633</ele>
        <time>2021-02-27T08:28:20Z</time>
      </trkpt>
      <trkpt lat="45.18718" lon="5.98652">
        <ele>2634.8</ele>
        <time>2021-02-27T08:28:23Z</time>
      </trkpt>
      <trkpt lat="45.1872" lon="5.9865">
        <ele>2634.8</ele>
        <time>2021-02-27T08:28:26Z</time>
      </trkpt>
      <trkpt lat="45.18722" lon="5.98648">
        <ele>2634.8</ele>
        <time>2021-02-27T08:28:28Z</time>
      </trkpt>
      <trkpt lat="45.18724" lon="5.98646">
        <ele>2634.8</ele>
        <time>2021-02-27T08:28:31Z</time>
      </trkpt>
      <trkpt lat="45.18724" lon="5.98646">
        <ele>2636.4</ele>
        <time>2021-02-27T08:28:33Z</time>
      </trkpt>
      <trkpt lat="45.18726" lon="5.98644">
        <ele>2636.4</ele>
        <time>2021-02-27T08:28:34Z</time>
      </trkpt>
      <trkpt lat="45.18728" lon="5.98643">
        <ele>2636.4</ele>
        <time>2021-02-27T08:28:37Z</time>
      </trkpt>
      <trkpt lat="45.18729" lon="5.98641">
        <ele>2636.4</ele>
        <time>2021-02-27T08:28:40Z</time>
      </trkpt>
      <trkpt lat="45.1873" lon="5.9864">
        <ele>2636.4</ele>
        <time>2021-02-27T08:28:42Z</time>
      </trkpt>
      <trkpt lat="45.18731" lon="5.98639">
        <ele>2637.4</ele>
        <time>2021-02-27T08:28:43Z</time>
      </trkpt>
      <trkpt lat="45.18733" lon="5.98635">
        <ele>2637.4</ele>
        <time>2021-02-27T08:28:44Z</time>
      </trkpt>
      <trkpt lat="45.18735" lon="5.98634">
        <ele>2637.4</ele>
        <time>2021-02-27T08:28:47Z</time>
      </trkpt>
      <trkpt lat="45.18736" lon="5.98633">
        <ele>2637.4</ele>
        <time>2021-02-27T08:28:49Z</time>
      </trkpt>
      <trkpt lat="45.18737" lon="5.98631">
        <ele>2637.4</ele>
        <time>2021-02-27T08:28:52Z</time>
      </trkpt>
      <trkpt lat="45.18738" lon="5.9863">
        <ele>2638.4</ele>
        <time>2021-02-27T08:28:53Z</time>
      </trkpt>
      <trkpt lat="45.1874" lon="5.98628">
        <ele>2638.4</ele>
        <time>2021-02-27T08:28:55Z</time>
      </trkpt>
      <trkpt lat="45.18741" lon="5.98626">
        <ele>2638.4</ele>
        <time>2021-02-27T08:28:58Z</time>
      </trkpt>
      <trkpt lat="45.18743" lon="5.98624">
        <ele>2638.4</ele>
        <time>2021-02-27T08:29:01Z</time>
      </trkpt>
      <trkpt lat="45.18745" lon="5.98622">
        <ele>2639.6</ele>
        <time>2021-02-27T08:29:03Z</time>
      </trkpt>
      <trkpt lat="45.18747" lon="5.9862">
        <ele>2639.6</ele>
        <time>2021-02-27T08:29:06Z</time>
      </trkpt>
      <trkpt lat="45.18749" lon="5.98618">
        <ele>2639.6</ele>
        <time>2021-02-27T08:29:08Z</time>
      </trkpt>
      <trkpt lat="45.1875" lon="5.98617">
        <ele>2639.6</ele>
        <time>2021-02-27T08:29:10Z</time>
      </trkpt>
      <trkpt lat="45.18752" lon="5.98614">
        <ele>2641</ele>
        <time>2021-02-27T08:29:13Z</time>
      </trkpt>
      <trkpt lat="45.18754" lon="5.98613">
        <ele>2641</ele>
        <time>2021-02-27T08:29:17Z</time>
      </trkpt>
      <trkpt lat="45.18756" lon="5.98612">
        <ele>2642</ele>
        <time>2021-02-27T08:29:23Z</time>
      </trkpt>
      <trkpt lat="45.18758" lon="5.98611">
        <ele>2642</ele>
        <time>2021-02-27T08:29:27Z</time>
      </trkpt>
      <trkpt lat="45.1876" lon="5.98609">
        <ele>2642</ele>
        <time>2021-02-27T08:29:31Z</time>
      </trkpt>
      <trkpt lat="45.18762" lon="5.98606">
        <ele>2643</ele>
        <time>2021-02-27T08:29:33Z</time>
      </trkpt>
      <trkpt lat="45.18764" lon="5.98604">
        <ele>2643</ele>
        <time>2021-02-27T08:29:36Z</time>
      </trkpt>
      <trkpt lat="45.18766" lon="5.98602">
        <ele>2643</ele>
        <time>2021-02-27T08:29:40Z</time>
      </trkpt>
      <trkpt lat="45.18768" lon="5.98599">
        <ele>2644</ele>
        <time>2021-02-27T08:29:43Z</time>
      </trkpt>
      <trkpt lat="45.1877" lon="5.98598">
        <ele>2644</ele>
        <time>2021-02-27T08:29:46Z</time>
      </trkpt>
      <trkpt lat="45.18772" lon="5.98596">
        <ele>2644</ele>
        <time>2021-02-27T08:29:48Z</time>
      </trkpt>
      <trkpt lat="45.18774" lon="5.98593">
        <ele>2644</ele>
        <time>2021-02-27T08:29:51Z</time>
      </trkpt>
      <trkpt lat="45.18776" lon="5.98591">
        <ele>2645.2</ele>
        <time>2021-02-27T08:29:53Z</time>
      </trkpt>
      <trkpt lat="45.18778" lon="5.98589">
        <ele>2645.2</ele>
        <time>2021-02-27T08:29:55Z</time>
      </trkpt>
      <trkpt lat="45.18779" lon="5.98587">
        <ele>2645.2</ele>
        <time>2021-02-27T08:29:57Z</time>
      </trkpt>
      <trkpt lat="45.18781" lon="5.98585">
        <ele>2645.2</ele>
        <time>2021-02-27T08:29:59Z</time>
      </trkpt>
      <trkpt lat="45.18782" lon="5.98583">
        <ele>2645.2</ele>
        <time>2021-02-27T08:30:01Z</time>
      </trkpt>
      <trkpt lat="45.18783" lon="5.9858">
        <ele>2647</ele>
        <time>2021-02-27T08:30:03Z</time>
      </trkpt>
      <trkpt lat="45.18785" lon="5.98577">
        <ele>2647</ele>
        <time>2021-02-27T08:30:05Z</time>
      </trkpt>
      <trkpt lat="45.18786" lon="5.98576">
        <ele>2647</ele>
        <time>2021-02-27T08:30:07Z</time>
      </trkpt>
      <trkpt lat="45.18787" lon="5.98574">
        <ele>2647</ele>
        <time>2021-02-27T08:30:09Z</time>
      </trkpt>
      <trkpt lat="45.18788" lon="5.98573">
        <ele>2647</ele>
        <time>2021-02-27T08:30:12Z</time>
      </trkpt>
      <trkpt lat="45.18789" lon="5.98572">
        <ele>2648.8</ele>
        <time>2021-02-27T08:30:13Z</time>
      </trkpt>
      <trkpt lat="45.18791" lon="5.98568">
        <ele>2648.8</ele>
        <time>2021-02-27T08:30:15Z</time>
      </trkpt>
      <trkpt lat="45.18791" lon="5.98566">
        <ele>2648.8</ele>
        <time>2021-02-27T08:30:18Z</time>
      </trkpt>
      <trkpt lat="45.18792" lon="5.98564">
        <ele>2648.8</ele>
        <time>2021-02-27T08:30:20Z</time>
      </trkpt>
      <trkpt lat="45.18793" lon="5.98562">
        <ele>2648.8</ele>
        <time>2021-02-27T08:30:22Z</time>
      </trkpt>
      <trkpt lat="45.18794" lon="5.9856">
        <ele>2650.8</ele>
        <time>2021-02-27T08:30:23Z</time>
      </trkpt>
      <trkpt lat="45.18796" lon="5.98555">
        <ele>2650.8</ele>
        <time>2021-02-27T08:30:25Z</time>
      </trkpt>
      <trkpt lat="45.18796" lon="5.98553">
        <ele>2650.8</ele>
        <time>2021-02-27T08:30:27Z</time>
      </trkpt>
      <trkpt lat="45.18797" lon="5.98552">
        <ele>2650.8</ele>
        <time>2021-02-27T08:30:30Z</time>
      </trkpt>
      <trkpt lat="45.18798" lon="5.9855">
        <ele>2650.8</ele>
        <time>2021-02-27T08:30:32Z</time>
      </trkpt>
      <trkpt lat="45.18799" lon="5.98548">
        <ele>2652.4</ele>
        <time>2021-02-27T08:30:33Z</time>
      </trkpt>
      <trkpt lat="45.188" lon="5.98546">
        <ele>2652.4</ele>
        <time>2021-02-27T08:30:34Z</time>
      </trkpt>
      <trkpt lat="45.18802" lon="5.98542">
        <ele>2652.4</ele>
        <time>2021-02-27T08:30:37Z</time>
      </trkpt>
      <trkpt lat="45.18802" lon="5.98539">
        <ele>2652.4</ele>
        <time>2021-02-27T08:30:39Z</time>
      </trkpt>
      <trkpt lat="45.18803" lon="5.98536">
        <ele>2652.4</ele>
        <time>2021-02-27T08:30:41Z</time>
      </trkpt>
      <trkpt lat="45.18804" lon="5.98532">
        <ele>2653.8</ele>
        <time>2021-02-27T08:30:43Z</time>
      </trkpt>
      <trkpt lat="45.18805" lon="5.98529">
        <ele>2653.8</ele>
        <time>2021-02-27T08:30:45Z</time>
      </trkpt>
      <trkpt lat="45.18807" lon="5.98524">
        <ele>2653.8</ele>
        <time>2021-02-27T08:30:47Z</time>
      </trkpt>
      <trkpt lat="45.18808" lon="5.98521">
        <ele>2653.8</ele>
        <time>2021-02-27T08:30:49Z</time>
      </trkpt>
      <trkpt lat="45.1881" lon="5.98518">
        <ele>2653.8</ele>
        <time>2021-02-27T08:30:51Z</time>
      </trkpt>
      <trkpt lat="45.1881" lon="5.98518">
        <ele>2655.2</ele>
        <time>2021-02-27T08:30:53Z</time>
      </trkpt>
      <trkpt lat="45.1881" lon="5.98518">
        <ele>2655.4</ele>
        <time>2021-02-27T08:31:03Z</time>
      </trkpt>
      <trkpt lat="45.1881" lon="5.98518">
        <ele>2655</ele>
        <time>2021-02-27T08:31:13Z</time>
      </trkpt>
      <trkpt lat="45.1881" lon="5.98518">
        <ele>2655</ele>
        <time>2021-02-27T08:31:23Z</time>
      </trkpt>
      <trkpt lat="45.1881" lon="5.98518">
        <ele>2656</ele>
        <time>2021-02-27T08:31:33Z</time>
      </trkpt>
      <trkpt lat="45.18812" lon="5.98518">
        <ele>2656</ele>
        <time>2021-02-27T08:31:36Z</time>
      </trkpt>
      <trkpt lat="45.18814" lon="5.98517">
        <ele>2656</ele>
        <time>2021-02-27T08:31:40Z</time>
      </trkpt>
      <trkpt lat="45.18814" lon="5.98517">
        <ele>2655.4</ele>
        <time>2021-02-27T08:31:43Z</time>
      </trkpt>
      <trkpt lat="45.18814" lon="5.98517">
        <ele>2655.8</ele>
        <time>2021-02-27T08:31:53Z</time>
      </trkpt>
      <trkpt lat="45.18814" lon="5.98517">
        <ele>2655.8</ele>
        <time>2021-02-27T08:32:03Z</time>
      </trkpt>
      <trkpt lat="45.18814" lon="5.98517">
        <ele>2654.8</ele>
        <time>2021-02-27T08:32:13Z</time>
      </trkpt>
      <trkpt lat="45.18814" lon="5.98517">
        <ele>2654.6</ele>
        <time>2021-02-27T08:32:23Z</time>
      </trkpt>
      <trkpt lat="45.18814" lon="5.98517">
        <ele>2655</ele>
        <time>2021-02-27T08:32:33Z</time>
      </trkpt>
      <trkpt lat="45.18814" lon="5.98517">
        <ele>2655.6</ele>
        <time>2021-02-27T08:32:43Z</time>
      </trkpt>
      <trkpt lat="45.18814" lon="5.98517">
        <ele>2656</ele>
        <time>2021-02-27T08:32:53Z</time>
      </trkpt>
      <trkpt lat="45.18814" lon="5.98517">
        <ele>2655.2</ele>
        <time>2021-02-27T08:33:03Z</time>
      </trkpt>
      <trkpt lat="45.18814" lon="5.98517">
        <ele>2656.2</ele>
        <time>2021-02-27T08:33:13Z</time>
      </trkpt>
      <trkpt lat="45.18814" lon="5.98517">
        <ele>2653.8</ele>
        <time>2021-02-27T08:33:23Z</time>
      </trkpt>
      <trkpt lat="45.18814" lon="5.98517">
        <ele>2655</ele>
        <time>2021-02-27T08:33:33Z</time>
      </trkpt>
      <trkpt lat="45.18814" lon="5.98517">
        <ele>2655</ele>
        <time>2021-02-27T08:33:43Z</time>
      </trkpt>
      <trkpt lat="45.18814" lon="5.98517">
        <ele>2654.4</ele>
        <time>2021-02-27T08:33:53Z</time>
      </trkpt>
      <trkpt lat="45.18814" lon="5.98517">
        <ele>2654.4</ele>
        <time>2021-02-27T08:34:03Z</time>
      </trkpt>
      <trkpt lat="45.18814" lon="5.98517">
        <ele>2654</ele>
        <time>2021-02-27T08:34:13Z</time>
      </trkpt>
      <trkpt lat="45.18814" lon="5.98517">
        <ele>2655</ele>
        <time>2021-02-27T08:34:23Z</time>
      </trkpt>
      <trkpt lat="45.18816" lon="5.98517">
        <ele>2655</ele>
        <time>2021-02-27T08:34:27Z</time>
      </trkpt>
      <trkpt lat="45.18819" lon="5.98519">
        <ele>2655</ele>
        <time>2021-02-27T08:34:28Z</time>
      </trkpt>
      <trkpt lat="45.18821" lon="5.98519">
        <ele>2655</ele>
        <time>2021-02-27T08:34:29Z</time>
      </trkpt>
      <trkpt lat="45.18824" lon="5.9852">
        <ele>2655</ele>
        <time>2021-02-27T08:34:31Z</time>
      </trkpt>
      <trkpt lat="45.18827" lon="5.98519">
        <ele>2650.2</ele>
        <time>2021-02-27T08:34:33Z</time>
      </trkpt>
      <trkpt lat="45.18831" lon="5.98516">
        <ele>2650.2</ele>
        <time>2021-02-27T08:34:35Z</time>
      </trkpt>
      <trkpt lat="45.18832" lon="5.98514">
        <ele>2650.2</ele>
        <time>2021-02-27T08:34:37Z</time>
      </trkpt>
      <trkpt lat="45.18833" lon="5.98512">
        <ele>2650.2</ele>
        <time>2021-02-27T08:34:39Z</time>
      </trkpt>
      <trkpt lat="45.18834" lon="5.9851">
        <ele>2650.2</ele>
        <time>2021-02-27T08:34:40Z</time>
      </trkpt>
      <trkpt lat="45.18835" lon="5.98509">
        <ele>2650.2</ele>
        <time>2021-02-27T08:34:41Z</time>
      </trkpt>
      <trkpt lat="45.18837" lon="5.98507">
        <ele>2641</ele>
        <time>2021-02-27T08:34:43Z</time>
      </trkpt>
      <trkpt lat="45.1884" lon="5.98505">
        <ele>2641</ele>
        <time>2021-02-27T08:34:45Z</time>
      </trkpt>
      <trkpt lat="45.18842" lon="5.98503">
        <ele>2641</ele>
        <time>2021-02-27T08:34:46Z</time>
      </trkpt>
      <trkpt lat="45.18843" lon="5.98502">
        <ele>2641</ele>
        <time>2021-02-27T08:34:47Z</time>
      </trkpt>
      <trkpt lat="45.18845" lon="5.98501">
        <ele>2641</ele>
        <time>2021-02-27T08:34:49Z</time>
      </trkpt>
      <trkpt lat="45.18846" lon="5.98499">
        <ele>2641</ele>
        <time>2021-02-27T08:34:50Z</time>
      </trkpt>
      <trkpt lat="45.18847" lon="5.98498">
        <ele>2641</ele>
        <time>2021-02-27T08:34:52Z</time>
      </trkpt>
      <trkpt lat="45.18849" lon="5.98497">
        <ele>2629.8</ele>
        <time>2021-02-27T08:34:53Z</time>
      </trkpt>
      <trkpt lat="45.18852" lon="5.98494">
        <ele>2629.8</ele>
        <time>2021-02-27T08:34:54Z</time>
      </trkpt>
      <trkpt lat="45.18854" lon="5.98493">
        <ele>2629.8</ele>
        <time>2021-02-27T08:34:55Z</time>
      </trkpt>
      <trkpt lat="45.18856" lon="5.98493">
        <ele>2629.8</ele>
        <time>2021-02-27T08:34:56Z</time>
      </trkpt>
      <trkpt lat="45.18857" lon="5.98492">
        <ele>2629.8</ele>
        <time>2021-02-27T08:34:58Z</time>
      </trkpt>
      <trkpt lat="45.18859" lon="5.98491">
        <ele>2629.8</ele>
        <time>2021-02-27T08:34:59Z</time>
      </trkpt>
      <trkpt lat="45.18861" lon="5.98491">
        <ele>2629.8</ele>
        <time>2021-02-27T08:35:00Z</time>
      </trkpt>
      <trkpt lat="45.18862" lon="5.9849">
        <ele>2629.8</ele>
        <time>2021-02-27T08:35:01Z</time>
      </trkpt>
      <trkpt lat="45.18864" lon="5.9849">
        <ele>2629.8</ele>
        <time>2021-02-27T08:35:02Z</time>
      </trkpt>
      <trkpt lat="45.18866" lon="5.98489">
        <ele>2614.4</ele>
        <time>2021-02-27T08:35:03Z</time>
      </trkpt>
      <trkpt lat="45.18869" lon="5.98488">
        <ele>2614.4</ele>
        <time>2021-02-27T08:35:04Z</time>
      </trkpt>
      <trkpt lat="45.1887" lon="5.98486">
        <ele>2614.4</ele>
        <time>2021-02-27T08:35:06Z</time>
      </trkpt>
      <trkpt lat="45.18872" lon="5.98485">
        <ele>2614.4</ele>
        <time>2021-02-27T08:35:07Z</time>
      </trkpt>
      <trkpt lat="45.18874" lon="5.98483">
        <ele>2614.4</ele>
        <time>2021-02-27T08:35:08Z</time>
      </trkpt>
      <trkpt lat="45.18875" lon="5.98481">
        <ele>2614.4</ele>
        <time>2021-02-27T08:35:09Z</time>
      </trkpt>
      <trkpt lat="45.18877" lon="5.98479">
        <ele>2614.4</ele>
        <time>2021-02-27T08:35:10Z</time>
      </trkpt>
      <trkpt lat="45.18878" lon="5.98478">
        <ele>2614.4</ele>
        <time>2021-02-27T08:35:11Z</time>
      </trkpt>
      <trkpt lat="45.1888" lon="5.98476">
        <ele>2614.4</ele>
        <time>2021-02-27T08:35:12Z</time>
      </trkpt>
      <trkpt lat="45.18881" lon="5.98474">
        <ele>2599</ele>
        <time>2021-02-27T08:35:13Z</time>
      </trkpt>
      <trkpt lat="45.18885" lon="5.98475">
        <ele>2599</ele>
        <time>2021-02-27T08:35:14Z</time>
      </trkpt>
      <trkpt lat="45.18887" lon="5.98475">
        <ele>2599</ele>
        <time>2021-02-27T08:35:15Z</time>
      </trkpt>
      <trkpt lat="45.18889" lon="5.98475">
        <ele>2599</ele>
        <time>2021-02-27T08:35:16Z</time>
      </trkpt>
      <trkpt lat="45.18891" lon="5.98475">
        <ele>2599</ele>
        <time>2021-02-27T08:35:17Z</time>
      </trkpt>
      <trkpt lat="45.18893" lon="5.98475">
        <ele>2599</ele>
        <time>2021-02-27T08:35:18Z</time>
      </trkpt>
      <trkpt lat="45.18894" lon="5.98474">
        <ele>2599</ele>
        <time>2021-02-27T08:35:19Z</time>
      </trkpt>
      <trkpt lat="45.18896" lon="5.98474">
        <ele>2599</ele>
        <time>2021-02-27T08:35:21Z</time>
      </trkpt>
      <trkpt lat="45.18898" lon="5.98474">
        <ele>2581.8</ele>
        <time>2021-02-27T08:35:23Z</time>
      </trkpt>
      <trkpt lat="45.18904" lon="5.98472">
        <ele>2581.8</ele>
        <time>2021-02-27T08:35:25Z</time>
      </trkpt>
      <trkpt lat="45.18907" lon="5.98471">
        <ele>2581.8</ele>
        <time>2021-02-27T08:35:26Z</time>
      </trkpt>
      <trkpt lat="45.18909" lon="5.98471">
        <ele>2581.8</ele>
        <time>2021-02-27T08:35:27Z</time>
      </trkpt>
      <trkpt lat="45.18912" lon="5.9847">
        <ele>2581.8</ele>
        <time>2021-02-27T08:35:28Z</time>
      </trkpt>
      <trkpt lat="45.18914" lon="5.9847">
        <ele>2581.8</ele>
        <time>2021-02-27T08:35:29Z</time>
      </trkpt>
      <trkpt lat="45.18916" lon="5.98469">
        <ele>2581.8</ele>
        <time>2021-02-27T08:35:30Z</time>
      </trkpt>
      <trkpt lat="45.18919" lon="5.98468">
        <ele>2581.8</ele>
        <time>2021-02-27T08:35:31Z</time>
      </trkpt>
      <trkpt lat="45.18921" lon="5.98468">
        <ele>2581.8</ele>
        <time>2021-02-27T08:35:32Z</time>
      </trkpt>
      <trkpt lat="45.18923" lon="5.98467">
        <ele>2563.4</ele>
        <time>2021-02-27T08:35:33Z</time>
      </trkpt>
      <trkpt lat="45.18928" lon="5.98465">
        <ele>2563.4</ele>
        <time>2021-02-27T08:35:34Z</time>
      </trkpt>
      <trkpt lat="45.1893" lon="5.98464">
        <ele>2563.4</ele>
        <time>2021-02-27T08:35:35Z</time>
      </trkpt>
      <trkpt lat="45.18931" lon="5.98463">
        <ele>2563.4</ele>
        <time>2021-02-27T08:35:36Z</time>
      </trkpt>
      <trkpt lat="45.18933" lon="5.98461">
        <ele>2563.4</ele>
        <time>2021-02-27T08:35:37Z</time>
      </trkpt>
      <trkpt lat="45.18934" lon="5.9846">
        <ele>2563.4</ele>
        <time>2021-02-27T08:35:38Z</time>
      </trkpt>
      <trkpt lat="45.18935" lon="5.98458">
        <ele>2563.4</ele>
        <time>2021-02-27T08:35:39Z</time>
      </trkpt>
      <trkpt lat="45.18937" lon="5.98457">
        <ele>2563.4</ele>
        <time>2021-02-27T08:35:40Z</time>
      </trkpt>
      <trkpt lat="45.18938" lon="5.98456">
        <ele>2563.4</ele>
        <time>2021-02-27T08:35:41Z</time>
      </trkpt>
      <trkpt lat="45.1894" lon="5.98454">
        <ele>2563.4</ele>
        <time>2021-02-27T08:35:42Z</time>
      </trkpt>
      <trkpt lat="45.18941" lon="5.98453">
        <ele>2542</ele>
        <time>2021-02-27T08:35:43Z</time>
      </trkpt>
      <trkpt lat="45.18944" lon="5.98447">
        <ele>2542</ele>
        <time>2021-02-27T08:35:44Z</time>
      </trkpt>
      <trkpt lat="45.18945" lon="5.98445">
        <ele>2542</ele>
        <time>2021-02-27T08:35:45Z</time>
      </trkpt>
      <trkpt lat="45.18947" lon="5.98443">
        <ele>2542</ele>
        <time>2021-02-27T08:35:46Z</time>
      </trkpt>
      <trkpt lat="45.18949" lon="5.98442">
        <ele>2542</ele>
        <time>2021-02-27T08:35:47Z</time>
      </trkpt>
      <trkpt lat="45.1895" lon="5.9844">
        <ele>2542</ele>
        <time>2021-02-27T08:35:48Z</time>
      </trkpt>
      <trkpt lat="45.18952" lon="5.98439">
        <ele>2542</ele>
        <time>2021-02-27T08:35:49Z</time>
      </trkpt>
      <trkpt lat="45.18954" lon="5.98437">
        <ele>2542</ele>
        <time>2021-02-27T08:35:50Z</time>
      </trkpt>
      <trkpt lat="45.18956" lon="5.98435">
        <ele>2542</ele>
        <time>2021-02-27T08:35:51Z</time>
      </trkpt>
      <trkpt lat="45.18957" lon="5.98434">
        <ele>2542</ele>
        <time>2021-02-27T08:35:52Z</time>
      </trkpt>
      <trkpt lat="45.18959" lon="5.98432">
        <ele>2523.2</ele>
        <time>2021-02-27T08:35:53Z</time>
      </trkpt>
      <trkpt lat="45.18962" lon="5.98426">
        <ele>2523.2</ele>
        <time>2021-02-27T08:35:54Z</time>
      </trkpt>
      <trkpt lat="45.18965" lon="5.98424">
        <ele>2523.2</ele>
        <time>2021-02-27T08:35:55Z</time>
      </trkpt>
      <trkpt lat="45.18968" lon="5.98422">
        <ele>2523.2</ele>
        <time>2021-02-27T08:35:56Z</time>
      </trkpt>
      <trkpt lat="45.18971" lon="5.98421">
        <ele>2523.2</ele>
        <time>2021-02-27T08:35:57Z</time>
      </trkpt>
      <trkpt lat="45.18974" lon="5.98419">
        <ele>2523.2</ele>
        <time>2021-02-27T08:35:58Z</time>
      </trkpt>
      <trkpt lat="45.18976" lon="5.98417">
        <ele>2523.2</ele>
        <time>2021-02-27T08:35:59Z</time>
      </trkpt>
      <trkpt lat="45.18979" lon="5.98416">
        <ele>2523.2</ele>
        <time>2021-02-27T08:36:00Z</time>
      </trkpt>
      <trkpt lat="45.18982" lon="5.98414">
        <ele>2523.2</ele>
        <time>2021-02-27T08:36:01Z</time>
      </trkpt>
      <trkpt lat="45.18985" lon="5.98412">
        <ele>2523.2</ele>
        <time>2021-02-27T08:36:02Z</time>
      </trkpt>
      <trkpt lat="45.18988" lon="5.98411">
        <ele>2501.6</ele>
        <time>2021-02-27T08:36:03Z</time>
      </trkpt>
      <trkpt lat="45.18996" lon="5.98409">
        <ele>2501.6</ele>
        <time>2021-02-27T08:36:04Z</time>
      </trkpt>
      <trkpt lat="45.18999" lon="5.98407">
        <ele>2501.6</ele>
        <time>2021-02-27T08:36:05Z</time>
      </trkpt>
      <trkpt lat="45.19003" lon="5.98405">
        <ele>2501.6</ele>
        <time>2021-02-27T08:36:06Z</time>
      </trkpt>
      <trkpt lat="45.19006" lon="5.98404">
        <ele>2501.6</ele>
        <time>2021-02-27T08:36:07Z</time>
      </trkpt>
      <trkpt lat="45.1901" lon="5.98402">
        <ele>2501.6</ele>
        <time>2021-02-27T08:36:08Z</time>
      </trkpt>
      <trkpt lat="45.19014" lon="5.984">
        <ele>2501.6</ele>
        <time>2021-02-27T08:36:09Z</time>
      </trkpt>
      <trkpt lat="45.19017" lon="5.98398">
        <ele>2501.6</ele>
        <time>2021-02-27T08:36:10Z</time>
      </trkpt>
      <trkpt lat="45.19021" lon="5.98396">
        <ele>2501.6</ele>
        <time>2021-02-27T08:36:11Z</time>
      </trkpt>
      <trkpt lat="45.19024" lon="5.98394">
        <ele>2501.6</ele>
        <time>2021-02-27T08:36:12Z</time>
      </trkpt>
      <trkpt lat="45.19028" lon="5.98392">
        <ele>2472.6</ele>
        <time>2021-02-27T08:36:13Z</time>
      </trkpt>
      <trkpt lat="45.19036" lon="5.98392">
        <ele>2472.6</ele>
        <time>2021-02-27T08:36:14Z</time>
      </trkpt>
      <trkpt lat="45.19039" lon="5.9839">
        <ele>2472.6</ele>
        <time>2021-02-27T08:36:15Z</time>
      </trkpt>
      <trkpt lat="45.19041" lon="5.98387">
        <ele>2472.6</ele>
        <time>2021-02-27T08:36:16Z</time>
      </trkpt>
      <trkpt lat="45.19044" lon="5.98385">
        <ele>2472.6</ele>
        <time>2021-02-27T08:36:17Z</time>
      </trkpt>
      <trkpt lat="45.19047" lon="5.98382">
        <ele>2472.6</ele>
        <time>2021-02-27T08:36:18Z</time>
      </trkpt>
      <trkpt lat="45.1905" lon="5.98379">
        <ele>2472.6</ele>
        <time>2021-02-27T08:36:19Z</time>
      </trkpt>
      <trkpt lat="45.19053" lon="5.98377">
        <ele>2472.6</ele>
        <time>2021-02-27T08:36:20Z</time>
      </trkpt>
      <trkpt lat="45.19056" lon="5.98374">
        <ele>2472.6</ele>
        <time>2021-02-27T08:36:21Z</time>
      </trkpt>
      <trkpt lat="45.19058" lon="5.98372">
        <ele>2472.6</ele>
        <time>2021-02-27T08:36:22Z</time>
      </trkpt>
      <trkpt lat="45.19061" lon="5.98369">
        <ele>2441.6</ele>
        <time>2021-02-27T08:36:23Z</time>
      </trkpt>
      <trkpt lat="45.19068" lon="5.98371">
        <ele>2441.6</ele>
        <time>2021-02-27T08:36:24Z</time>
      </trkpt>
      <trkpt lat="45.1907" lon="5.98375">
        <ele>2441.6</ele>
        <time>2021-02-27T08:36:25Z</time>
      </trkpt>
      <trkpt lat="45.19072" lon="5.98379">
        <ele>2441.6</ele>
        <time>2021-02-27T08:36:26Z</time>
      </trkpt>
      <trkpt lat="45.19074" lon="5.98383">
        <ele>2441.6</ele>
        <time>2021-02-27T08:36:27Z</time>
      </trkpt>
      <trkpt lat="45.19076" lon="5.98387">
        <ele>2441.6</ele>
        <time>2021-02-27T08:36:28Z</time>
      </trkpt>
      <trkpt lat="45.19078" lon="5.98392">
        <ele>2441.6</ele>
        <time>2021-02-27T08:36:29Z</time>
      </trkpt>
      <trkpt lat="45.19081" lon="5.98396">
        <ele>2441.6</ele>
        <time>2021-02-27T08:36:30Z</time>
      </trkpt>
      <trkpt lat="45.19083" lon="5.984">
        <ele>2441.6</ele>
        <time>2021-02-27T08:36:31Z</time>
      </trkpt>
      <trkpt lat="45.19085" lon="5.98404">
        <ele>2441.6</ele>
        <time>2021-02-27T08:36:32Z</time>
      </trkpt>
      <trkpt lat="45.19087" lon="5.98408">
        <ele>2420</ele>
        <time>2021-02-27T08:36:33Z</time>
      </trkpt>
      <trkpt lat="45.19092" lon="5.98411">
        <ele>2420</ele>
        <time>2021-02-27T08:36:34Z</time>
      </trkpt>
      <trkpt lat="45.19095" lon="5.98416">
        <ele>2420</ele>
        <time>2021-02-27T08:36:35Z</time>
      </trkpt>
      <trkpt lat="45.19097" lon="5.98422">
        <ele>2420</ele>
        <time>2021-02-27T08:36:36Z</time>
      </trkpt>
      <trkpt lat="45.191" lon="5.98427">
        <ele>2420</ele>
        <time>2021-02-27T08:36:37Z</time>
      </trkpt>
      <trkpt lat="45.19103" lon="5.98433">
        <ele>2420</ele>
        <time>2021-02-27T08:36:38Z</time>
      </trkpt>
      <trkpt lat="45.19105" lon="5.98438">
        <ele>2420</ele>
        <time>2021-02-27T08:36:39Z</time>
      </trkpt>
      <trkpt lat="45.19108" lon="5.98444">
        <ele>2420</ele>
        <time>2021-02-27T08:36:40Z</time>
      </trkpt>
      <trkpt lat="45.19111" lon="5.98449">
        <ele>2420</ele>
        <time>2021-02-27T08:36:41Z</time>
      </trkpt>
      <trkpt lat="45.19113" lon="5.98455">
        <ele>2420</ele>
        <time>2021-02-27T08:36:42Z</time>
      </trkpt>
      <trkpt lat="45.19116" lon="5.9846">
        <ele>2400</ele>
        <time>2021-02-27T08:36:43Z</time>
      </trkpt>
      <trkpt lat="45.19124" lon="5.98472">
        <ele>2400</ele>
        <time>2021-02-27T08:36:44Z</time>
      </trkpt>
      <trkpt lat="45.19128" lon="5.98476">
        <ele>2400</ele>
        <time>2021-02-27T08:36:45Z</time>
      </trkpt>
      <trkpt lat="45.19132" lon="5.98479">
        <ele>2400</ele>
        <time>2021-02-27T08:36:46Z</time>
      </trkpt>
      <trkpt lat="45.19137" lon="5.98483">
        <ele>2400</ele>
        <time>2021-02-27T08:36:47Z</time>
      </trkpt>
      <trkpt lat="45.19141" lon="5.98486">
        <ele>2400</ele>
        <time>2021-02-27T08:36:48Z</time>
      </trkpt>
      <trkpt lat="45.19145" lon="5.9849">
        <ele>2400</ele>
        <time>2021-02-27T08:36:49Z</time>
      </trkpt>
      <trkpt lat="45.19149" lon="5.98493">
        <ele>2400</ele>
        <time>2021-02-27T08:36:50Z</time>
      </trkpt>
      <trkpt lat="45.19154" lon="5.98497">
        <ele>2400</ele>
        <time>2021-02-27T08:36:51Z</time>
      </trkpt>
      <trkpt lat="45.19158" lon="5.985">
        <ele>2400</ele>
        <time>2021-02-27T08:36:52Z</time>
      </trkpt>
      <trkpt lat="45.19162" lon="5.98503">
        <ele>2390</ele>
        <time>2021-02-27T08:36:53Z</time>
      </trkpt>
      <trkpt lat="45.19168" lon="5.98509">
        <ele>2390</ele>
        <time>2021-02-27T08:36:54Z</time>
      </trkpt>
      <trkpt lat="45.1917" lon="5.98512">
        <ele>2390</ele>
        <time>2021-02-27T08:36:55Z</time>
      </trkpt>
      <trkpt lat="45.19172" lon="5.98515">
        <ele>2390</ele>
        <time>2021-02-27T08:36:56Z</time>
      </trkpt>
      <trkpt lat="45.19174" lon="5.98517">
        <ele>2390</ele>
        <time>2021-02-27T08:36:57Z</time>
      </trkpt>
      <trkpt lat="45.19176" lon="5.9852">
        <ele>2390</ele>
        <time>2021-02-27T08:36:58Z</time>
      </trkpt>
      <trkpt lat="45.19178" lon="5.98523">
        <ele>2390</ele>
        <time>2021-02-27T08:36:59Z</time>
      </trkpt>
      <trkpt lat="45.1918" lon="5.98526">
        <ele>2390</ele>
        <time>2021-02-27T08:37:00Z</time>
      </trkpt>
      <trkpt lat="45.19182" lon="5.98528">
        <ele>2390</ele>
        <time>2021-02-27T08:37:01Z</time>
      </trkpt>
      <trkpt lat="45.19185" lon="5.98531">
        <ele>2390</ele>
        <time>2021-02-27T08:37:02Z</time>
      </trkpt>
      <trkpt lat="45.19187" lon="5.98534">
        <ele>2386.8</ele>
        <time>2021-02-27T08:37:03Z</time>
      </trkpt>
      <trkpt lat="45.19192" lon="5.98542">
        <ele>2386.8</ele>
        <time>2021-02-27T08:37:04Z</time>
      </trkpt>
      <trkpt lat="45.19195" lon="5.98546">
        <ele>2386.8</ele>
        <time>2021-02-27T08:37:05Z</time>
      </trkpt>
      <trkpt lat="45.19197" lon="5.9855">
        <ele>2386.8</ele>
        <time>2021-02-27T08:37:06Z</time>
      </trkpt>
      <trkpt lat="45.192" lon="5.98554">
        <ele>2386.8</ele>
        <time>2021-02-27T08:37:07Z</time>
      </trkpt>
      <trkpt lat="45.19203" lon="5.98559">
        <ele>2386.8</ele>
        <time>2021-02-27T08:37:08Z</time>
      </trkpt>
      <trkpt lat="45.19205" lon="5.98563">
        <ele>2386.8</ele>
        <time>2021-02-27T08:37:09Z</time>
      </trkpt>
      <trkpt lat="45.19208" lon="5.98567">
        <ele>2386.8</ele>
        <time>2021-02-27T08:37:10Z</time>
      </trkpt>
      <trkpt lat="45.19211" lon="5.98571">
        <ele>2386.8</ele>
        <time>2021-02-27T08:37:11Z</time>
      </trkpt>
      <trkpt lat="45.19213" lon="5.98576">
        <ele>2386.8</ele>
        <time>2021-02-27T08:37:12Z</time>
      </trkpt>
      <trkpt lat="45.19216" lon="5.9858">
        <ele>2380.8</ele>
        <time>2021-02-27T08:37:13Z</time>
      </trkpt>
      <trkpt lat="45.19223" lon="5.98593">
        <ele>2380.8</ele>
        <time>2021-02-27T08:37:14Z</time>
      </trkpt>
      <trkpt lat="45.19227" lon="5.986">
        <ele>2380.8</ele>
        <time>2021-02-27T08:37:15Z</time>
      </trkpt>
      <trkpt lat="45.19231" lon="5.98607">
        <ele>2380.8</ele>
        <time>2021-02-27T08:37:16Z</time>
      </trkpt>
      <trkpt lat="45.19235" lon="5.98614">
        <ele>2380.8</ele>
        <time>2021-02-27T08:37:17Z</time>
      </trkpt>
      <trkpt lat="45.19239" lon="5.98621">
        <ele>2380.8</ele>
        <time>2021-02-27T08:37:18Z</time>
      </trkpt>
      <trkpt lat="45.19243" lon="5.98628">
        <ele>2380.8</ele>
        <time>2021-02-27T08:37:19Z</time>
      </trkpt>
      <trkpt lat="45.19247" lon="5.98635">
        <ele>2380.8</ele>
        <time>2021-02-27T08:37:20Z</time>
      </trkpt>
      <trkpt lat="45.19251" lon="5.98642">
        <ele>2380.8</ele>
        <time>2021-02-27T08:37:21Z</time>
      </trkpt>
      <trkpt lat="45.19254" lon="5.98649">
        <ele>2380.8</ele>
        <time>2021-02-27T08:37:22Z</time>
      </trkpt>
      <trkpt lat="45.19258" lon="5.98656">
        <ele>2367.8</ele>
        <time>2021-02-27T08:37:23Z</time>
      </trkpt>
      <trkpt lat="45.19269" lon="5.98669">
        <ele>2367.8</ele>
        <time>2021-02-27T08:37:24Z</time>
      </trkpt>
      <trkpt lat="45.19274" lon="5.98675">
        <ele>2367.8</ele>
        <time>2021-02-27T08:37:25Z</time>
      </trkpt>
      <trkpt lat="45.19279" lon="5.9868">
        <ele>2367.8</ele>
        <time>2021-02-27T08:37:26Z</time>
      </trkpt>
      <trkpt lat="45.19284" lon="5.98685">
        <ele>2367.8</ele>
        <time>2021-02-27T08:37:27Z</time>
      </trkpt>
      <trkpt lat="45.1929" lon="5.9869">
        <ele>2367.8</ele>
        <time>2021-02-27T08:37:28Z</time>
      </trkpt>
      <trkpt lat="45.19295" lon="5.98696">
        <ele>2367.8</ele>
        <time>2021-02-27T08:37:29Z</time>
      </trkpt>
      <trkpt lat="45.193" lon="5.98701">
        <ele>2367.8</ele>
        <time>2021-02-27T08:37:30Z</time>
      </trkpt>
      <trkpt lat="45.19305" lon="5.98706">
        <ele>2367.8</ele>
        <time>2021-02-27T08:37:31Z</time>
      </trkpt>
      <trkpt lat="45.19311" lon="5.98711">
        <ele>2367.8</ele>
        <time>2021-02-27T08:37:32Z</time>
      </trkpt>
      <trkpt lat="45.19316" lon="5.98717">
        <ele>2357</ele>
        <time>2021-02-27T08:37:33Z</time>
      </trkpt>
      <trkpt lat="45.19326" lon="5.9872">
        <ele>2357</ele>
        <time>2021-02-27T08:37:34Z</time>
      </trkpt>
      <trkpt lat="45.19329" lon="5.9872">
        <ele>2357</ele>
        <time>2021-02-27T08:37:35Z</time>
      </trkpt>
      <trkpt lat="45.19332" lon="5.9872">
        <ele>2357</ele>
        <time>2021-02-27T08:37:36Z</time>
      </trkpt>
      <trkpt lat="45.19336" lon="5.9872">
        <ele>2357</ele>
        <time>2021-02-27T08:37:37Z</time>
      </trkpt>
      <trkpt lat="45.19339" lon="5.9872">
        <ele>2357</ele>
        <time>2021-02-27T08:37:38Z</time>
      </trkpt>
      <trkpt lat="45.19342" lon="5.9872">
        <ele>2357</ele>
        <time>2021-02-27T08:37:39Z</time>
      </trkpt>
      <trkpt lat="45.19346" lon="5.9872">
        <ele>2357</ele>
        <time>2021-02-27T08:37:40Z</time>
      </trkpt>
      <trkpt lat="45.19349" lon="5.9872">
        <ele>2357</ele>
        <time>2021-02-27T08:37:41Z</time>
      </trkpt>
      <trkpt lat="45.19353" lon="5.9872">
        <ele>2357</ele>
        <time>2021-02-27T08:37:42Z</time>
      </trkpt>
      <trkpt lat="45.19356" lon="5.9872">
        <ele>2353.8</ele>
        <time>2021-02-27T08:37:43Z</time>
      </trkpt>
      <trkpt lat="45.19362" lon="5.9872">
        <ele>2353.8</ele>
        <time>2021-02-27T08:37:44Z</time>
      </trkpt>
      <trkpt lat="45.19365" lon="5.98721">
        <ele>2353.8</ele>
        <time>2021-02-27T08:37:45Z</time>
      </trkpt>
      <trkpt lat="45.19368" lon="5.98722">
        <ele>2353.8</ele>
        <time>2021-02-27T08:37:46Z</time>
      </trkpt>
      <trkpt lat="45.1937" lon="5.98722">
        <ele>2353.8</ele>
        <time>2021-02-27T08:37:47Z</time>
      </trkpt>
      <trkpt lat="45.19373" lon="5.98723">
        <ele>2353.8</ele>
        <time>2021-02-27T08:37:48Z</time>
      </trkpt>
      <trkpt lat="45.19376" lon="5.98723">
        <ele>2353.8</ele>
        <time>2021-02-27T08:37:49Z</time>
      </trkpt>
      <trkpt lat="45.19378" lon="5.98724">
        <ele>2353.8</ele>
        <time>2021-02-27T08:37:50Z</time>
      </trkpt>
      <trkpt lat="45.19381" lon="5.98725">
        <ele>2353.8</ele>
        <time>2021-02-27T08:37:51Z</time>
      </trkpt>
      <trkpt lat="45.19384" lon="5.98725">
        <ele>2349.4</ele>
        <time>2021-02-27T08:37:53Z</time>
      </trkpt>
      <trkpt lat="45.19385" lon="5.98727">
        <ele>2349.4</ele>
        <time>2021-02-27T08:37:54Z</time>
      </trkpt>
      <trkpt lat="45.19386" lon="5.98729">
        <ele>2349.4</ele>
        <time>2021-02-27T08:38:01Z</time>
      </trkpt>
      <trkpt lat="45.19386" lon="5.98729">
        <ele>2349.4</ele>
        <time>2021-02-27T08:38:03Z</time>
      </trkpt>
      <trkpt lat="45.19391" lon="5.98733">
        <ele>2349.4</ele>
        <time>2021-02-27T08:38:06Z</time>
      </trkpt>
      <trkpt lat="45.19394" lon="5.98734">
        <ele>2348</ele>
        <time>2021-02-27T08:38:13Z</time>
      </trkpt>
      <trkpt lat="45.19397" lon="5.98736">
        <ele>2348</ele>
        <time>2021-02-27T08:38:15Z</time>
      </trkpt>
      <trkpt lat="45.194" lon="5.98737">
        <ele>2348</ele>
        <time>2021-02-27T08:38:16Z</time>
      </trkpt>
      <trkpt lat="45.19404" lon="5.98739">
        <ele>2348</ele>
        <time>2021-02-27T08:38:17Z</time>
      </trkpt>
      <trkpt lat="45.19407" lon="5.9874">
        <ele>2348</ele>
        <time>2021-02-27T08:38:18Z</time>
      </trkpt>
      <trkpt lat="45.1941" lon="5.98742">
        <ele>2348</ele>
        <time>2021-02-27T08:38:19Z</time>
      </trkpt>
      <trkpt lat="45.19414" lon="5.98744">
        <ele>2348</ele>
        <time>2021-02-27T08:38:20Z</time>
      </trkpt>
      <trkpt lat="45.19417" lon="5.98745">
        <ele>2348</ele>
        <time>2021-02-27T08:38:21Z</time>
      </trkpt>
      <trkpt lat="45.1942" lon="5.98747">
        <ele>2348</ele>
        <time>2021-02-27T08:38:22Z</time>
      </trkpt>
      <trkpt lat="45.19424" lon="5.98748">
        <ele>2344</ele>
        <time>2021-02-27T08:38:23Z</time>
      </trkpt>
      <trkpt lat="45.19433" lon="5.98751">
        <ele>2344</ele>
        <time>2021-02-27T08:38:24Z</time>
      </trkpt>
      <trkpt lat="45.19438" lon="5.98752">
        <ele>2344</ele>
        <time>2021-02-27T08:38:25Z</time>
      </trkpt>
      <trkpt lat="45.19443" lon="5.98754">
        <ele>2344</ele>
        <time>2021-02-27T08:38:26Z</time>
      </trkpt>
      <trkpt lat="45.19448" lon="5.98755">
        <ele>2344</ele>
        <time>2021-02-27T08:38:27Z</time>
      </trkpt>
      <trkpt lat="45.19453" lon="5.98756">
        <ele>2344</ele>
        <time>2021-02-27T08:38:28Z</time>
      </trkpt>
      <trkpt lat="45.19458" lon="5.98757">
        <ele>2344</ele>
        <time>2021-02-27T08:38:29Z</time>
      </trkpt>
      <trkpt lat="45.19463" lon="5.98759">
        <ele>2344</ele>
        <time>2021-02-27T08:38:30Z</time>
      </trkpt>
      <trkpt lat="45.19468" lon="5.9876">
        <ele>2344</ele>
        <time>2021-02-27T08:38:31Z</time>
      </trkpt>
      <trkpt lat="45.19473" lon="5.98761">
        <ele>2344</ele>
        <time>2021-02-27T08:38:32Z</time>
      </trkpt>
      <trkpt lat="45.19478" lon="5.98762">
        <ele>2338.2</ele>
        <time>2021-02-27T08:38:33Z</time>
      </trkpt>
      <trkpt lat="45.19489" lon="5.98763">
        <ele>2338.2</ele>
        <time>2021-02-27T08:38:34Z</time>
      </trkpt>
      <trkpt lat="45.19494" lon="5.98763">
        <ele>2338.2</ele>
        <time>2021-02-27T08:38:35Z</time>
      </trkpt>
      <trkpt lat="45.19499" lon="5.98763">
        <ele>2338.2</ele>
        <time>2021-02-27T08:38:36Z</time>
      </trkpt>
      <trkpt lat="45.19505" lon="5.98763">
        <ele>2338.2</ele>
        <time>2021-02-27T08:38:37Z</time>
      </trkpt>
      <trkpt lat="45.1951" lon="5.98762">
        <ele>2338.2</ele>
        <time>2021-02-27T08:38:38Z</time>
      </trkpt>
      <trkpt lat="45.19515" lon="5.98762">
        <ele>2338.2</ele>
        <time>2021-02-27T08:38:39Z</time>
      </trkpt>
      <trkpt lat="45.1952" lon="5.98762">
        <ele>2338.2</ele>
        <time>2021-02-27T08:38:40Z</time>
      </trkpt>
      <trkpt lat="45.19525" lon="5.98762">
        <ele>2338.2</ele>
        <time>2021-02-27T08:38:41Z</time>
      </trkpt>
      <trkpt lat="45.19531" lon="5.98761">
        <ele>2338.2</ele>
        <time>2021-02-27T08:38:42Z</time>
      </trkpt>
      <trkpt lat="45.19536" lon="5.98761">
        <ele>2332.2</ele>
        <time>2021-02-27T08:38:43Z</time>
      </trkpt>
      <trkpt lat="45.1954" lon="5.98755">
        <ele>2332.2</ele>
        <time>2021-02-27T08:38:44Z</time>
      </trkpt>
      <trkpt lat="45.19544" lon="5.98754">
        <ele>2332.2</ele>
        <time>2021-02-27T08:38:45Z</time>
      </trkpt>
      <trkpt lat="45.19547" lon="5.98752">
        <ele>2332.2</ele>
        <time>2021-02-27T08:38:46Z</time>
      </trkpt>
      <trkpt lat="45.19551" lon="5.98751">
        <ele>2332.2</ele>
        <time>2021-02-27T08:38:47Z</time>
      </trkpt>
      <trkpt lat="45.19554" lon="5.9875">
        <ele>2332.2</ele>
        <time>2021-02-27T08:38:48Z</time>
      </trkpt>
      <trkpt lat="45.19558" lon="5.98748">
        <ele>2332.2</ele>
        <time>2021-02-27T08:38:49Z</time>
      </trkpt>
      <trkpt lat="45.19561" lon="5.98747">
        <ele>2332.2</ele>
        <time>2021-02-27T08:38:50Z</time>
      </trkpt>
      <trkpt lat="45.19565" lon="5.98746">
        <ele>2332.2</ele>
        <time>2021-02-27T08:38:51Z</time>
      </trkpt>
      <trkpt lat="45.19568" lon="5.98744">
        <ele>2323.2</ele>
        <time>2021-02-27T08:38:53Z</time>
      </trkpt>
      <trkpt lat="45.19569" lon="5.98744">
        <ele>2323.2</ele>
        <time>2021-02-27T08:38:54Z</time>
      </trkpt>
      <trkpt lat="45.19569" lon="5.98744">
        <ele>2322.6</ele>
        <time>2021-02-27T08:39:03Z</time>
      </trkpt>
      <trkpt lat="45.19569" lon="5.98744">
        <ele>2323</ele>
        <time>2021-02-27T08:39:13Z</time>
      </trkpt>
      <trkpt lat="45.19569" lon="5.98744">
        <ele>2321.6</ele>
        <time>2021-02-27T08:39:23Z</time>
      </trkpt>
      <trkpt lat="45.19569" lon="5.98744">
        <ele>2321</ele>
        <time>2021-02-27T08:39:33Z</time>
      </trkpt>
      <trkpt lat="45.19569" lon="5.98744">
        <ele>2322</ele>
        <time>2021-02-27T08:39:43Z</time>
      </trkpt>
      <trkpt lat="45.19569" lon="5.98744">
        <ele>2321.6</ele>
        <time>2021-02-27T08:39:53Z</time>
      </trkpt>
      <trkpt lat="45.19569" lon="5.98744">
        <ele>2321.4</ele>
        <time>2021-02-27T08:40:03Z</time>
      </trkpt>
      <trkpt lat="45.19569" lon="5.98744">
        <ele>2322</ele>
        <time>2021-02-27T08:40:13Z</time>
      </trkpt>
      <trkpt lat="45.19569" lon="5.98744">
        <ele>2323.2</ele>
        <time>2021-02-27T08:40:23Z</time>
      </trkpt>
      <trkpt lat="45.19567" lon="5.98746">
        <ele>2323.2</ele>
        <time>2021-02-27T08:40:27Z</time>
      </trkpt>
      <trkpt lat="45.19569" lon="5.98746">
        <ele>2323.2</ele>
        <time>2021-02-27T08:40:29Z</time>
      </trkpt>
      <trkpt lat="45.19572" lon="5.98746">
        <ele>2323.2</ele>
        <time>2021-02-27T08:40:31Z</time>
      </trkpt>
      <trkpt lat="45.19574" lon="5.98746">
        <ele>2324.8</ele>
        <time>2021-02-27T08:40:33Z</time>
      </trkpt>
      <trkpt lat="45.19576" lon="5.98747">
        <ele>2324.8</ele>
        <time>2021-02-27T08:40:35Z</time>
      </trkpt>
      <trkpt lat="45.19576" lon="5.9875">
        <ele>2324.8</ele>
        <time>2021-02-27T08:40:38Z</time>
      </trkpt>
      <trkpt lat="45.19576" lon="5.98753">
        <ele>2324.8</ele>
        <time>2021-02-27T08:40:41Z</time>
      </trkpt>
      <trkpt lat="45.19576" lon="5.98753">
        <ele>2327.6</ele>
        <time>2021-02-27T08:40:43Z</time>
      </trkpt>
      <trkpt lat="45.19575" lon="5.98758">
        <ele>2327.6</ele>
        <time>2021-02-27T08:40:44Z</time>
      </trkpt>
      <trkpt lat="45.19575" lon="5.98759">
        <ele>2327.6</ele>
        <time>2021-02-27T08:40:48Z</time>
      </trkpt>
      <trkpt lat="45.19575" lon="5.98761">
        <ele>2327.6</ele>
        <time>2021-02-27T08:40:52Z</time>
      </trkpt>
      <trkpt lat="45.19575" lon="5.98762">
        <ele>2330.2</ele>
        <time>2021-02-27T08:40:53Z</time>
      </trkpt>
      <trkpt lat="45.19576" lon="5.98765">
        <ele>2330.2</ele>
        <time>2021-02-27T08:40:55Z</time>
      </trkpt>
      <trkpt lat="45.19578" lon="5.98766">
        <ele>2330.2</ele>
        <time>2021-02-27T08:40:59Z</time>
      </trkpt>
      <trkpt lat="45.19581" lon="5.98765">
        <ele>2332.6</ele>
        <time>2021-02-27T08:41:03Z</time>
      </trkpt>
      <trkpt lat="45.19581" lon="5.98762">
        <ele>2332.6</ele>
        <time>2021-02-27T08:41:05Z</time>
      </trkpt>
      <trkpt lat="45.19583" lon="5.9876">
        <ele>2332.6</ele>
        <time>2021-02-27T08:41:07Z</time>
      </trkpt>
      <trkpt lat="45.19585" lon="5.98758">
        <ele>2332.6</ele>
        <time>2021-02-27T08:41:09Z</time>
      </trkpt>
      <trkpt lat="45.19586" lon="5.98756">
        <ele>2332.6</ele>
        <time>2021-02-27T08:41:11Z</time>
      </trkpt>
      <trkpt lat="45.19586" lon="5.98753">
        <ele>2334.8</ele>
        <time>2021-02-27T08:41:13Z</time>
      </trkpt>
      <trkpt lat="45.19589" lon="5.9875">
        <ele>2334.8</ele>
        <time>2021-02-27T08:41:16Z</time>
      </trkpt>
      <trkpt lat="45.1959" lon="5.98747">
        <ele>2334.8</ele>
        <time>2021-02-27T08:41:19Z</time>
      </trkpt>
      <trkpt lat="45.19592" lon="5.98745">
        <ele>2334.8</ele>
        <time>2021-02-27T08:41:21Z</time>
      </trkpt>
      <trkpt lat="45.19594" lon="5.98743">
        <ele>2337.4</ele>
        <time>2021-02-27T08:41:23Z</time>
      </trkpt>
      <trkpt lat="45.19596" lon="5.98743">
        <ele>2337.4</ele>
        <time>2021-02-27T08:41:25Z</time>
      </trkpt>
      <trkpt lat="45.19598" lon="5.98743">
        <ele>2337.4</ele>
        <time>2021-02-27T08:41:27Z</time>
      </trkpt>
      <trkpt lat="45.19601" lon="5.98743">
        <ele>2337.4</ele>
        <time>2021-02-27T08:41:29Z</time>
      </trkpt>
      <trkpt lat="45.19603" lon="5.98743">
        <ele>2337.4</ele>
        <time>2021-02-27T08:41:31Z</time>
      </trkpt>
      <trkpt lat="45.19605" lon="5.98743">
        <ele>2340</ele>
        <time>2021-02-27T08:41:33Z</time>
      </trkpt>
      <trkpt lat="45.19607" lon="5.98745">
        <ele>2340</ele>
        <time>2021-02-27T08:41:36Z</time>
      </trkpt>
      <trkpt lat="45.19607" lon="5.98748">
        <ele>2340</ele>
        <time>2021-02-27T08:41:38Z</time>
      </trkpt>
      <trkpt lat="45.19607" lon="5.98752">
        <ele>2340</ele>
        <time>2021-02-27T08:41:41Z</time>
      </trkpt>
      <trkpt lat="45.19608" lon="5.98755">
        <ele>2344</ele>
        <time>2021-02-27T08:41:43Z</time>
      </trkpt>
      <trkpt lat="45.19609" lon="5.98758">
        <ele>2344</ele>
        <time>2021-02-27T08:41:45Z</time>
      </trkpt>
      <trkpt lat="45.1961" lon="5.98759">
        <ele>2344</ele>
        <time>2021-02-27T08:41:47Z</time>
      </trkpt>
      <trkpt lat="45.19611" lon="5.98759">
        <ele>2344</ele>
        <time>2021-02-27T08:41:52Z</time>
      </trkpt>
      <trkpt lat="45.19612" lon="5.9876">
        <ele>2346.6</ele>
        <time>2021-02-27T08:41:53Z</time>
      </trkpt>
      <trkpt lat="45.19615" lon="5.98759">
        <ele>2346.6</ele>
        <time>2021-02-27T08:41:54Z</time>
      </trkpt>
      <trkpt lat="45.19616" lon="5.98758">
        <ele>2346.6</ele>
        <time>2021-02-27T08:41:58Z</time>
      </trkpt>
      <trkpt lat="45.19617" lon="5.98758">
        <ele>2346.6</ele>
        <time>2021-02-27T08:42:00Z</time>
      </trkpt>
      <trkpt lat="45.19619" lon="5.98757">
        <ele>2346.6</ele>
        <time>2021-02-27T08:42:02Z</time>
      </trkpt>
      <trkpt lat="45.1962" lon="5.98757">
        <ele>2349.4</ele>
        <time>2021-02-27T08:42:03Z</time>
      </trkpt>
      <trkpt lat="45.19622" lon="5.98755">
        <ele>2349.4</ele>
        <time>2021-02-27T08:42:05Z</time>
      </trkpt>
      <trkpt lat="45.19625" lon="5.98754">
        <ele>2349.4</ele>
        <time>2021-02-27T08:42:08Z</time>
      </trkpt>
      <trkpt lat="45.19626" lon="5.98752">
        <ele>2349.4</ele>
        <time>2021-02-27T08:42:10Z</time>
      </trkpt>
      <trkpt lat="45.19628" lon="5.98749">
        <ele>2351.6</ele>
        <time>2021-02-27T08:42:13Z</time>
      </trkpt>
      <trkpt lat="45.19632" lon="5.98746">
        <ele>2351.6</ele>
        <time>2021-02-27T08:42:15Z</time>
      </trkpt>
      <trkpt lat="45.19633" lon="5.98745">
        <ele>2351.6</ele>
        <time>2021-02-27T08:42:18Z</time>
      </trkpt>
      <trkpt lat="45.19634" lon="5.98744">
        <ele>2351.6</ele>
        <time>2021-02-27T08:42:20Z</time>
      </trkpt>
      <trkpt lat="45.19636" lon="5.98742">
        <ele>2351.6</ele>
        <time>2021-02-27T08:42:22Z</time>
      </trkpt>
      <trkpt lat="45.19637" lon="5.98741">
        <ele>2353.6</ele>
        <time>2021-02-27T08:42:23Z</time>
      </trkpt>
      <trkpt lat="45.19639" lon="5.9874">
        <ele>2353.6</ele>
        <time>2021-02-27T08:42:25Z</time>
      </trkpt>
      <trkpt lat="45.19641" lon="5.98738">
        <ele>2353.6</ele>
        <time>2021-02-27T08:42:27Z</time>
      </trkpt>
      <trkpt lat="45.19642" lon="5.98742">
        <ele>2353.6</ele>
        <time>2021-02-27T08:42:31Z</time>
      </trkpt>
      <trkpt lat="45.19642" lon="5.98744">
        <ele>2357</ele>
        <time>2021-02-27T08:42:33Z</time>
      </trkpt>
      <trkpt lat="45.19643" lon="5.98748">
        <ele>2357</ele>
        <time>2021-02-27T08:42:35Z</time>
      </trkpt>
      <trkpt lat="45.19643" lon="5.98751">
        <ele>2357</ele>
        <time>2021-02-27T08:42:37Z</time>
      </trkpt>
      <trkpt lat="45.19643" lon="5.98755">
        <ele>2357</ele>
        <time>2021-02-27T08:42:39Z</time>
      </trkpt>
      <trkpt lat="45.19644" lon="5.98758">
        <ele>2357</ele>
        <time>2021-02-27T08:42:41Z</time>
      </trkpt>
      <trkpt lat="45.19644" lon="5.9876">
        <ele>2360.2</ele>
        <time>2021-02-27T08:42:43Z</time>
      </trkpt>
      <trkpt lat="45.19644" lon="5.98763">
        <ele>2360.2</ele>
        <time>2021-02-27T08:42:45Z</time>
      </trkpt>
      <trkpt lat="45.19645" lon="5.98766">
        <ele>2360.2</ele>
        <time>2021-02-27T08:42:47Z</time>
      </trkpt>
      <trkpt lat="45.19645" lon="5.98769">
        <ele>2360.2</ele>
        <time>2021-02-27T08:42:49Z</time>
      </trkpt>
      <trkpt lat="45.19646" lon="5.98768">
        <ele>2363.2</ele>
        <time>2021-02-27T08:42:53Z</time>
      </trkpt>
      <trkpt lat="45.19649" lon="5.98766">
        <ele>2363.2</ele>
        <time>2021-02-27T08:42:55Z</time>
      </trkpt>
      <trkpt lat="45.19651" lon="5.98764">
        <ele>2363.2</ele>
        <time>2021-02-27T08:42:57Z</time>
      </trkpt>
      <trkpt lat="45.19652" lon="5.98763">
        <ele>2363.2</ele>
        <time>2021-02-27T08:42:59Z</time>
      </trkpt>
      <trkpt lat="45.19653" lon="5.98762">
        <ele>2363.2</ele>
        <time>2021-02-27T08:43:02Z</time>
      </trkpt>
      <trkpt lat="45.19654" lon="5.98761">
        <ele>2366</ele>
        <time>2021-02-27T08:43:03Z</time>
      </trkpt>
      <trkpt lat="45.19657" lon="5.98759">
        <ele>2366</ele>
        <time>2021-02-27T08:43:05Z</time>
      </trkpt>
      <trkpt lat="45.19657" lon="5.98758">
        <ele>2366</ele>
        <time>2021-02-27T08:43:08Z</time>
      </trkpt>
      <trkpt lat="45.19658" lon="5.98756">
        <ele>2366</ele>
        <time>2021-02-27T08:43:10Z</time>
      </trkpt>
      <trkpt lat="45.19659" lon="5.98755">
        <ele>2366</ele>
        <time>2021-02-27T08:43:12Z</time>
      </trkpt>
      <trkpt lat="45.1966" lon="5.98753">
        <ele>2369.6</ele>
        <time>2021-02-27T08:43:13Z</time>
      </trkpt>
      <trkpt lat="45.19662" lon="5.98754">
        <ele>2369.6</ele>
        <time>2021-02-27T08:43:15Z</time>
      </trkpt>
      <trkpt lat="45.19662" lon="5.98757">
        <ele>2369.6</ele>
        <time>2021-02-27T08:43:17Z</time>
      </trkpt>
      <trkpt lat="45.19664" lon="5.98759">
        <ele>2369.6</ele>
        <time>2021-02-27T08:43:19Z</time>
      </trkpt>
      <trkpt lat="45.19664" lon="5.98762">
        <ele>2369.6</ele>
        <time>2021-02-27T08:43:21Z</time>
      </trkpt>
      <trkpt lat="45.19664" lon="5.98762">
        <ele>2374.2</ele>
        <time>2021-02-27T08:43:23Z</time>
      </trkpt>
      <trkpt lat="45.19666" lon="5.98768">
        <ele>2374.2</ele>
        <time>2021-02-27T08:43:24Z</time>
      </trkpt>
      <trkpt lat="45.19666" lon="5.9877">
        <ele>2374.2</ele>
        <time>2021-02-27T08:43:26Z</time>
      </trkpt>
      <trkpt lat="45.19666" lon="5.98772">
        <ele>2374.2</ele>
        <time>2021-02-27T08:43:28Z</time>
      </trkpt>
      <trkpt lat="45.19667" lon="5.98774">
        <ele>2374.2</ele>
        <time>2021-02-27T08:43:30Z</time>
      </trkpt>
      <trkpt lat="45.19667" lon="5.98776">
        <ele>2374.2</ele>
        <time>2021-02-27T08:43:32Z</time>
      </trkpt>
      <trkpt lat="45.19668" lon="5.98778">
        <ele>2377.2</ele>
        <time>2021-02-27T08:43:33Z</time>
      </trkpt>
      <trkpt lat="45.19668" lon="5.9878">
        <ele>2377.2</ele>
        <time>2021-02-27T08:43:34Z</time>
      </trkpt>
      <trkpt lat="45.19669" lon="5.9878">
        <ele>2377.2</ele>
        <time>2021-02-27T08:43:41Z</time>
      </trkpt>
      <trkpt lat="45.19669" lon="5.9878">
        <ele>2377.8</ele>
        <time>2021-02-27T08:43:43Z</time>
      </trkpt>
      <trkpt lat="45.19672" lon="5.98778">
        <ele>2377.8</ele>
        <time>2021-02-27T08:43:46Z</time>
      </trkpt>
      <trkpt lat="45.19673" lon="5.98776">
        <ele>2377.8</ele>
        <time>2021-02-27T08:43:49Z</time>
      </trkpt>
      <trkpt lat="45.19675" lon="5.98774">
        <ele>2377.8</ele>
        <time>2021-02-27T08:43:51Z</time>
      </trkpt>
      <trkpt lat="45.19675" lon="5.98774">
        <ele>2379.8</ele>
        <time>2021-02-27T08:43:53Z</time>
      </trkpt>
      <trkpt lat="45.19677" lon="5.98772">
        <ele>2379.8</ele>
        <time>2021-02-27T08:43:54Z</time>
      </trkpt>
      <trkpt lat="45.19678" lon="5.98769">
        <ele>2379.8</ele>
        <time>2021-02-27T08:43:56Z</time>
      </trkpt>
      <trkpt lat="45.19679" lon="5.98767">
        <ele>2379.8</ele>
        <time>2021-02-27T08:43:58Z</time>
      </trkpt>
      <trkpt lat="45.19681" lon="5.98766">
        <ele>2379.8</ele>
        <time>2021-02-27T08:44:01Z</time>
      </trkpt>
      <trkpt lat="45.19681" lon="5.98766">
        <ele>2382.6</ele>
        <time>2021-02-27T08:44:03Z</time>
      </trkpt>
      <trkpt lat="45.19682" lon="5.98771">
        <ele>2382.6</ele>
        <time>2021-02-27T08:44:04Z</time>
      </trkpt>
      <trkpt lat="45.19682" lon="5.98773">
        <ele>2382.6</ele>
        <time>2021-02-27T08:44:06Z</time>
      </trkpt>
      <trkpt lat="45.19683" lon="5.98775">
        <ele>2382.6</ele>
        <time>2021-02-27T08:44:08Z</time>
      </trkpt>
      <trkpt lat="45.19683" lon="5.98777">
        <ele>2382.6</ele>
        <time>2021-02-27T08:44:10Z</time>
      </trkpt>
      <trkpt lat="45.19683" lon="5.9878">
        <ele>2382.6</ele>
        <time>2021-02-27T08:44:12Z</time>
      </trkpt>
      <trkpt lat="45.19683" lon="5.98782">
        <ele>2385.8</ele>
        <time>2021-02-27T08:44:13Z</time>
      </trkpt>
      <trkpt lat="45.19684" lon="5.98784">
        <ele>2385.8</ele>
        <time>2021-02-27T08:44:14Z</time>
      </trkpt>
      <trkpt lat="45.19685" lon="5.98783">
        <ele>2385.8</ele>
        <time>2021-02-27T08:44:20Z</time>
      </trkpt>
      <trkpt lat="45.19688" lon="5.9878">
        <ele>2388.4</ele>
        <time>2021-02-27T08:44:23Z</time>
      </trkpt>
      <trkpt lat="45.19689" lon="5.98778">
        <ele>2388.4</ele>
        <time>2021-02-27T08:44:25Z</time>
      </trkpt>
      <trkpt lat="45.1969" lon="5.98775">
        <ele>2388.4</ele>
        <time>2021-02-27T08:44:27Z</time>
      </trkpt>
      <trkpt lat="45.19691" lon="5.98773">
        <ele>2388.4</ele>
        <time>2021-02-27T08:44:29Z</time>
      </trkpt>
      <trkpt lat="45.19692" lon="5.9877">
        <ele>2388.4</ele>
        <time>2021-02-27T08:44:31Z</time>
      </trkpt>
      <trkpt lat="45.19692" lon="5.9877">
        <ele>2390</ele>
        <time>2021-02-27T08:44:33Z</time>
      </trkpt>
      <trkpt lat="45.19694" lon="5.9877">
        <ele>2390</ele>
        <time>2021-02-27T08:44:35Z</time>
      </trkpt>
      <trkpt lat="45.19696" lon="5.98773">
        <ele>2390</ele>
        <time>2021-02-27T08:44:37Z</time>
      </trkpt>
      <trkpt lat="45.19697" lon="5.98775">
        <ele>2390</ele>
        <time>2021-02-27T08:44:39Z</time>
      </trkpt>
      <trkpt lat="45.19698" lon="5.98778">
        <ele>2390</ele>
        <time>2021-02-27T08:44:41Z</time>
      </trkpt>
      <trkpt lat="45.19699" lon="5.9878">
        <ele>2394.6</ele>
        <time>2021-02-27T08:44:43Z</time>
      </trkpt>
      <trkpt lat="45.197" lon="5.98785">
        <ele>2394.6</ele>
        <time>2021-02-27T08:44:45Z</time>
      </trkpt>
      <trkpt lat="45.197" lon="5.98786">
        <ele>2394.6</ele>
        <time>2021-02-27T08:44:47Z</time>
      </trkpt>
      <trkpt lat="45.19701" lon="5.98788">
        <ele>2394.6</ele>
        <time>2021-02-27T08:44:49Z</time>
      </trkpt>
      <trkpt lat="45.19701" lon="5.9879">
        <ele>2394.6</ele>
        <time>2021-02-27T08:44:52Z</time>
      </trkpt>
      <trkpt lat="45.19702" lon="5.98792">
        <ele>2397.4</ele>
        <time>2021-02-27T08:44:53Z</time>
      </trkpt>
      <trkpt lat="45.19705" lon="5.98789">
        <ele>2397.4</ele>
        <time>2021-02-27T08:44:56Z</time>
      </trkpt>
      <trkpt lat="45.19706" lon="5.98788">
        <ele>2397.4</ele>
        <time>2021-02-27T08:44:59Z</time>
      </trkpt>
      <trkpt lat="45.19707" lon="5.98787">
        <ele>2397.4</ele>
        <time>2021-02-27T08:45:02Z</time>
      </trkpt>
      <trkpt lat="45.19708" lon="5.98786">
        <ele>2399.4</ele>
        <time>2021-02-27T08:45:03Z</time>
      </trkpt>
      <trkpt lat="45.19709" lon="5.98784">
        <ele>2399.4</ele>
        <time>2021-02-27T08:45:04Z</time>
      </trkpt>
      <trkpt lat="45.1971" lon="5.98782">
        <ele>2399.4</ele>
        <time>2021-02-27T08:45:07Z</time>
      </trkpt>
      <trkpt lat="45.19711" lon="5.98779">
        <ele>2399.4</ele>
        <time>2021-02-27T08:45:10Z</time>
      </trkpt>
      <trkpt lat="45.19711" lon="5.98779">
        <ele>2402.6</ele>
        <time>2021-02-27T08:45:13Z</time>
      </trkpt>
      <trkpt lat="45.19713" lon="5.9878">
        <ele>2402.6</ele>
        <time>2021-02-27T08:45:14Z</time>
      </trkpt>
      <trkpt lat="45.19714" lon="5.98783">
        <ele>2402.6</ele>
        <time>2021-02-27T08:45:16Z</time>
      </trkpt>
      <trkpt lat="45.19715" lon="5.98785">
        <ele>2402.6</ele>
        <time>2021-02-27T08:45:18Z</time>
      </trkpt>
      <trkpt lat="45.19716" lon="5.98788">
        <ele>2402.6</ele>
        <time>2021-02-27T08:45:21Z</time>
      </trkpt>
      <trkpt lat="45.19716" lon="5.98788">
        <ele>2406.4</ele>
        <time>2021-02-27T08:45:23Z</time>
      </trkpt>
      <trkpt lat="45.19718" lon="5.98792">
        <ele>2406.4</ele>
        <time>2021-02-27T08:45:24Z</time>
      </trkpt>
      <trkpt lat="45.19719" lon="5.98793">
        <ele>2406.4</ele>
        <time>2021-02-27T08:45:27Z</time>
      </trkpt>
      <trkpt lat="45.1972" lon="5.98795">
        <ele>2406.4</ele>
        <time>2021-02-27T08:45:30Z</time>
      </trkpt>
      <trkpt lat="45.19721" lon="5.98797">
        <ele>2406.4</ele>
        <time>2021-02-27T08:45:32Z</time>
      </trkpt>
      <trkpt lat="45.19721" lon="5.98798">
        <ele>2408.8</ele>
        <time>2021-02-27T08:45:33Z</time>
      </trkpt>
      <trkpt lat="45.19725" lon="5.98803">
        <ele>2408.8</ele>
        <time>2021-02-27T08:45:34Z</time>
      </trkpt>
      <trkpt lat="45.19726" lon="5.98805">
        <ele>2408.8</ele>
        <time>2021-02-27T08:45:36Z</time>
      </trkpt>
      <trkpt lat="45.19727" lon="5.98807">
        <ele>2408.8</ele>
        <time>2021-02-27T08:45:37Z</time>
      </trkpt>
      <trkpt lat="45.19728" lon="5.98809">
        <ele>2408.8</ele>
        <time>2021-02-27T08:45:38Z</time>
      </trkpt>
      <trkpt lat="45.19729" lon="5.98811">
        <ele>2408.8</ele>
        <time>2021-02-27T08:45:39Z</time>
      </trkpt>
      <trkpt lat="45.1973" lon="5.98814">
        <ele>2408.8</ele>
        <time>2021-02-27T08:45:40Z</time>
      </trkpt>
      <trkpt lat="45.19731" lon="5.98816">
        <ele>2408.8</ele>
        <time>2021-02-27T08:45:41Z</time>
      </trkpt>
      <trkpt lat="45.19732" lon="5.98818">
        <ele>2408.8</ele>
        <time>2021-02-27T08:45:42Z</time>
      </trkpt>
      <trkpt lat="45.19733" lon="5.9882">
        <ele>2407</ele>
        <time>2021-02-27T08:45:43Z</time>
      </trkpt>
      <trkpt lat="45.19735" lon="5.98826">
        <ele>2407</ele>
        <time>2021-02-27T08:45:44Z</time>
      </trkpt>
      <trkpt lat="45.19735" lon="5.98828">
        <ele>2407</ele>
        <time>2021-02-27T08:45:45Z</time>
      </trkpt>
      <trkpt lat="45.19736" lon="5.98831">
        <ele>2407</ele>
        <time>2021-02-27T08:45:47Z</time>
      </trkpt>
      <trkpt lat="45.19736" lon="5.98834">
        <ele>2407</ele>
        <time>2021-02-27T08:45:48Z</time>
      </trkpt>
      <trkpt lat="45.19737" lon="5.98837">
        <ele>2407</ele>
        <time>2021-02-27T08:45:49Z</time>
      </trkpt>
      <trkpt lat="45.19737" lon="5.9884">
        <ele>2407</ele>
        <time>2021-02-27T08:45:50Z</time>
      </trkpt>
      <trkpt lat="45.19738" lon="5.98843">
        <ele>2407</ele>
        <time>2021-02-27T08:45:52Z</time>
      </trkpt>
      <trkpt lat="45.19738" lon="5.98845">
        <ele>2404.8</ele>
        <time>2021-02-27T08:45:53Z</time>
      </trkpt>
      <trkpt lat="45.19739" lon="5.98851">
        <ele>2404.8</ele>
        <time>2021-02-27T08:45:54Z</time>
      </trkpt>
      <trkpt lat="45.19739" lon="5.98854">
        <ele>2404.8</ele>
        <time>2021-02-27T08:45:55Z</time>
      </trkpt>
      <trkpt lat="45.1974" lon="5.98856">
        <ele>2404.8</ele>
        <time>2021-02-27T08:45:56Z</time>
      </trkpt>
      <trkpt lat="45.1974" lon="5.98859">
        <ele>2404.8</ele>
        <time>2021-02-27T08:45:57Z</time>
      </trkpt>
      <trkpt lat="45.19741" lon="5.98862">
        <ele>2404.8</ele>
        <time>2021-02-27T08:45:58Z</time>
      </trkpt>
      <trkpt lat="45.19742" lon="5.98864">
        <ele>2404.8</ele>
        <time>2021-02-27T08:45:59Z</time>
      </trkpt>
      <trkpt lat="45.19742" lon="5.98867">
        <ele>2404.8</ele>
        <time>2021-02-27T08:46:00Z</time>
      </trkpt>
      <trkpt lat="45.19743" lon="5.9887">
        <ele>2404.8</ele>
        <time>2021-02-27T08:46:01Z</time>
      </trkpt>
      <trkpt lat="45.19743" lon="5.98872">
        <ele>2404.8</ele>
        <time>2021-02-27T08:46:02Z</time>
      </trkpt>
      <trkpt lat="45.19744" lon="5.98875">
        <ele>2401.8</ele>
        <time>2021-02-27T08:46:03Z</time>
      </trkpt>
      <trkpt lat="45.19745" lon="5.9888">
        <ele>2401.8</ele>
        <time>2021-02-27T08:46:04Z</time>
      </trkpt>
      <trkpt lat="45.19746" lon="5.98883">
        <ele>2401.8</ele>
        <time>2021-02-27T08:46:06Z</time>
      </trkpt>
      <trkpt lat="45.19747" lon="5.98885">
        <ele>2401.8</ele>
        <time>2021-02-27T08:46:08Z</time>
      </trkpt>
      <trkpt lat="45.19747" lon="5.98888">
        <ele>2401.8</ele>
        <time>2021-02-27T08:46:10Z</time>
      </trkpt>
      <trkpt lat="45.19748" lon="5.9889">
        <ele>2401.8</ele>
        <time>2021-02-27T08:46:12Z</time>
      </trkpt>
      <trkpt lat="45.19749" lon="5.98893">
        <ele>2402</ele>
        <time>2021-02-27T08:46:13Z</time>
      </trkpt>
      <trkpt lat="45.19749" lon="5.98897">
        <ele>2402</ele>
        <time>2021-02-27T08:46:14Z</time>
      </trkpt>
      <trkpt lat="45.19749" lon="5.98899">
        <ele>2402</ele>
        <time>2021-02-27T08:46:16Z</time>
      </trkpt>
      <trkpt lat="45.1975" lon="5.98901">
        <ele>2401.6</ele>
        <time>2021-02-27T08:46:23Z</time>
      </trkpt>
      <trkpt lat="45.1975" lon="5.98903">
        <ele>2401.6</ele>
        <time>2021-02-27T08:46:31Z</time>
      </trkpt>
      <trkpt lat="45.1975" lon="5.98905">
        <ele>2401.4</ele>
        <time>2021-02-27T08:46:33Z</time>
      </trkpt>
      <trkpt lat="45.19751" lon="5.98907">
        <ele>2400.4</ele>
        <time>2021-02-27T08:46:43Z</time>
      </trkpt>
      <trkpt lat="45.19751" lon="5.98909">
        <ele>2400.6</ele>
        <time>2021-02-27T08:46:53Z</time>
      </trkpt>
      <trkpt lat="45.19751" lon="5.98911">
        <ele>2401.6</ele>
        <time>2021-02-27T08:47:03Z</time>
      </trkpt>
      <trkpt lat="45.19752" lon="5.98913">
        <ele>2401.6</ele>
        <time>2021-02-27T08:47:10Z</time>
      </trkpt>
      <trkpt lat="45.19752" lon="5.98915">
        <ele>2401.6</ele>
        <time>2021-02-27T08:47:11Z</time>
      </trkpt>
      <trkpt lat="45.19752" lon="5.98917">
        <ele>2401.6</ele>
        <time>2021-02-27T08:47:12Z</time>
      </trkpt>
      <trkpt lat="45.19753" lon="5.98919">
        <ele>2400.2</ele>
        <time>2021-02-27T08:47:13Z</time>
      </trkpt>
      <trkpt lat="45.19752" lon="5.98931">
        <ele>2400.2</ele>
        <time>2021-02-27T08:47:14Z</time>
      </trkpt>
      <trkpt lat="45.19753" lon="5.98937">
        <ele>2400.2</ele>
        <time>2021-02-27T08:47:15Z</time>
      </trkpt>
      <trkpt lat="45.19753" lon="5.98943">
        <ele>2400.2</ele>
        <time>2021-02-27T08:47:16Z</time>
      </trkpt>
      <trkpt lat="45.19753" lon="5.98949">
        <ele>2400.2</ele>
        <time>2021-02-27T08:47:17Z</time>
      </trkpt>
      <trkpt lat="45.19754" lon="5.98955">
        <ele>2400.2</ele>
        <time>2021-02-27T08:47:18Z</time>
      </trkpt>
      <trkpt lat="45.19754" lon="5.98961">
        <ele>2400.2</ele>
        <time>2021-02-27T08:47:19Z</time>
      </trkpt>
      <trkpt lat="45.19754" lon="5.98967">
        <ele>2400.2</ele>
        <time>2021-02-27T08:47:20Z</time>
      </trkpt>
      <trkpt lat="45.19755" lon="5.98973">
        <ele>2400.2</ele>
        <time>2021-02-27T08:47:21Z</time>
      </trkpt>
      <trkpt lat="45.19755" lon="5.9898">
        <ele>2400.2</ele>
        <time>2021-02-27T08:47:22Z</time>
      </trkpt>
      <trkpt lat="45.19755" lon="5.98986">
        <ele>2396.8</ele>
        <time>2021-02-27T08:47:23Z</time>
      </trkpt>
      <trkpt lat="45.19757" lon="5.98998">
        <ele>2396.8</ele>
        <time>2021-02-27T08:47:24Z</time>
      </trkpt>
      <trkpt lat="45.19758" lon="5.99005">
        <ele>2396.8</ele>
        <time>2021-02-27T08:47:25Z</time>
      </trkpt>
      <trkpt lat="45.1976" lon="5.99012">
        <ele>2396.8</ele>
        <time>2021-02-27T08:47:26Z</time>
      </trkpt>
      <trkpt lat="45.19761" lon="5.99019">
        <ele>2396.8</ele>
        <time>2021-02-27T08:47:27Z</time>
      </trkpt>
      <trkpt lat="45.19762" lon="5.99026">
        <ele>2396.8</ele>
        <time>2021-02-27T08:47:28Z</time>
      </trkpt>
      <trkpt lat="45.19764" lon="5.99033">
        <ele>2396.8</ele>
        <time>2021-02-27T08:47:29Z</time>
      </trkpt>
      <trkpt lat="45.19765" lon="5.99041">
        <ele>2396.8</ele>
        <time>2021-02-27T08:47:30Z</time>
      </trkpt>
      <trkpt lat="45.19766" lon="5.99048">
        <ele>2396.8</ele>
        <time>2021-02-27T08:47:31Z</time>
      </trkpt>
      <trkpt lat="45.19768" lon="5.99055">
        <ele>2396.8</ele>
        <time>2021-02-27T08:47:32Z</time>
      </trkpt>
      <trkpt lat="45.19769" lon="5.99062">
        <ele>2390.6</ele>
        <time>2021-02-27T08:47:33Z</time>
      </trkpt>
      <trkpt lat="45.19775" lon="5.99073">
        <ele>2390.6</ele>
        <time>2021-02-27T08:47:34Z</time>
      </trkpt>
      <trkpt lat="45.19778" lon="5.99076">
        <ele>2390.6</ele>
        <time>2021-02-27T08:47:35Z</time>
      </trkpt>
      <trkpt lat="45.1978" lon="5.9908">
        <ele>2390.6</ele>
        <time>2021-02-27T08:47:36Z</time>
      </trkpt>
      <trkpt lat="45.19783" lon="5.99083">
        <ele>2390.6</ele>
        <time>2021-02-27T08:47:37Z</time>
      </trkpt>
      <trkpt lat="45.19785" lon="5.99086">
        <ele>2390.6</ele>
        <time>2021-02-27T08:47:38Z</time>
      </trkpt>
      <trkpt lat="45.19787" lon="5.99089">
        <ele>2390.6</ele>
        <time>2021-02-27T08:47:39Z</time>
      </trkpt>
      <trkpt lat="45.1979" lon="5.99093">
        <ele>2390.6</ele>
        <time>2021-02-27T08:47:40Z</time>
      </trkpt>
      <trkpt lat="45.19792" lon="5.99096">
        <ele>2390.6</ele>
        <time>2021-02-27T08:47:41Z</time>
      </trkpt>
      <trkpt lat="45.19795" lon="5.99099">
        <ele>2390.6</ele>
        <time>2021-02-27T08:47:42Z</time>
      </trkpt>
      <trkpt lat="45.19797" lon="5.99103">
        <ele>2387.8</ele>
        <time>2021-02-27T08:47:43Z</time>
      </trkpt>
      <trkpt lat="45.19801" lon="5.99112">
        <ele>2387.8</ele>
        <time>2021-02-27T08:47:44Z</time>
      </trkpt>
      <trkpt lat="45.19803" lon="5.99116">
        <ele>2387.8</ele>
        <time>2021-02-27T08:47:45Z</time>
      </trkpt>
      <trkpt lat="45.19805" lon="5.9912">
        <ele>2387.8</ele>
        <time>2021-02-27T08:47:46Z</time>
      </trkpt>
      <trkpt lat="45.19806" lon="5.99124">
        <ele>2387.8</ele>
        <time>2021-02-27T08:47:47Z</time>
      </trkpt>
      <trkpt lat="45.19808" lon="5.99128">
        <ele>2387.8</ele>
        <time>2021-02-27T08:47:48Z</time>
      </trkpt>
      <trkpt lat="45.1981" lon="5.99132">
        <ele>2387.8</ele>
        <time>2021-02-27T08:47:49Z</time>
      </trkpt>
      <trkpt lat="45.19811" lon="5.99136">
        <ele>2387.8</ele>
        <time>2021-02-27T08:47:50Z</time>
      </trkpt>
      <trkpt lat="45.19813" lon="5.9914">
        <ele>2387.8</ele>
        <time>2021-02-27T08:47:51Z</time>
      </trkpt>
      <trkpt lat="45.19814" lon="5.99144">
        <ele>2387.8</ele>
        <time>2021-02-27T08:47:52Z</time>
      </trkpt>
      <trkpt lat="45.19816" lon="5.99148">
        <ele>2386.4</ele>
        <time>2021-02-27T08:47:53Z</time>
      </trkpt>
      <trkpt lat="45.19818" lon="5.99159">
        <ele>2386.4</ele>
        <time>2021-02-27T08:47:54Z</time>
      </trkpt>
      <trkpt lat="45.19818" lon="5.99165">
        <ele>2386.4</ele>
        <time>2021-02-27T08:47:55Z</time>
      </trkpt>
      <trkpt lat="45.19819" lon="5.99171">
        <ele>2386.4</ele>
        <time>2021-02-27T08:47:56Z</time>
      </trkpt>
      <trkpt lat="45.1982" lon="5.99177">
        <ele>2386.4</ele>
        <time>2021-02-27T08:47:57Z</time>
      </trkpt>
      <trkpt lat="45.1982" lon="5.99183">
        <ele>2386.4</ele>
        <time>2021-02-27T08:47:58Z</time>
      </trkpt>
      <trkpt lat="45.19821" lon="5.99189">
        <ele>2386.4</ele>
        <time>2021-02-27T08:47:59Z</time>
      </trkpt>
      <trkpt lat="45.19821" lon="5.99195">
        <ele>2386.4</ele>
        <time>2021-02-27T08:48:00Z</time>
      </trkpt>
      <trkpt lat="45.19822" lon="5.99201">
        <ele>2386.4</ele>
        <time>2021-02-27T08:48:01Z</time>
      </trkpt>
      <trkpt lat="45.19822" lon="5.99206">
        <ele>2386.4</ele>
        <time>2021-02-27T08:48:02Z</time>
      </trkpt>
      <trkpt lat="45.19823" lon="5.99212">
        <ele>2384</ele>
        <time>2021-02-27T08:48:03Z</time>
      </trkpt>
      <trkpt lat="45.19822" lon="5.99227">
        <ele>2384</ele>
        <time>2021-02-27T08:48:04Z</time>
      </trkpt>
      <trkpt lat="45.19822" lon="5.99234">
        <ele>2384</ele>
        <time>2021-02-27T08:48:05Z</time>
      </trkpt>
      <trkpt lat="45.19821" lon="5.99241">
        <ele>2384</ele>
        <time>2021-02-27T08:48:06Z</time>
      </trkpt>
      <trkpt lat="45.19821" lon="5.99249">
        <ele>2384</ele>
        <time>2021-02-27T08:48:07Z</time>
      </trkpt>
      <trkpt lat="45.1982" lon="5.99256">
        <ele>2384</ele>
        <time>2021-02-27T08:48:08Z</time>
      </trkpt>
      <trkpt lat="45.19819" lon="5.99263">
        <ele>2384</ele>
        <time>2021-02-27T08:48:09Z</time>
      </trkpt>
      <trkpt lat="45.19819" lon="5.9927">
        <ele>2384</ele>
        <time>2021-02-27T08:48:10Z</time>
      </trkpt>
      <trkpt lat="45.19818" lon="5.99277">
        <ele>2384</ele>
        <time>2021-02-27T08:48:11Z</time>
      </trkpt>
      <trkpt lat="45.19818" lon="5.99285">
        <ele>2384</ele>
        <time>2021-02-27T08:48:12Z</time>
      </trkpt>
      <trkpt lat="45.19817" lon="5.99292">
        <ele>2376.2</ele>
        <time>2021-02-27T08:48:13Z</time>
      </trkpt>
      <trkpt lat="45.19813" lon="5.99308">
        <ele>2376.2</ele>
        <time>2021-02-27T08:48:14Z</time>
      </trkpt>
      <trkpt lat="45.19811" lon="5.99314">
        <ele>2376.2</ele>
        <time>2021-02-27T08:48:15Z</time>
      </trkpt>
      <trkpt lat="45.19809" lon="5.99321">
        <ele>2376.2</ele>
        <time>2021-02-27T08:48:16Z</time>
      </trkpt>
      <trkpt lat="45.19807" lon="5.99328">
        <ele>2376.2</ele>
        <time>2021-02-27T08:48:17Z</time>
      </trkpt>
      <trkpt lat="45.19804" lon="5.99334">
        <ele>2376.2</ele>
        <time>2021-02-27T08:48:18Z</time>
      </trkpt>
      <trkpt lat="45.19802" lon="5.99341">
        <ele>2376.2</ele>
        <time>2021-02-27T08:48:19Z</time>
      </trkpt>
      <trkpt lat="45.198" lon="5.99348">
        <ele>2376.2</ele>
        <time>2021-02-27T08:48:20Z</time>
      </trkpt>
      <trkpt lat="45.19797" lon="5.99354">
        <ele>2376.2</ele>
        <time>2021-02-27T08:48:21Z</time>
      </trkpt>
      <trkpt lat="45.19795" lon="5.99361">
        <ele>2376.2</ele>
        <time>2021-02-27T08:48:22Z</time>
      </trkpt>
      <trkpt lat="45.19793" lon="5.99367">
        <ele>2366.8</ele>
        <time>2021-02-27T08:48:23Z</time>
      </trkpt>
      <trkpt lat="45.19792" lon="5.99382">
        <ele>2366.8</ele>
        <time>2021-02-27T08:48:24Z</time>
      </trkpt>
      <trkpt lat="45.19793" lon="5.99388">
        <ele>2366.8</ele>
        <time>2021-02-27T08:48:25Z</time>
      </trkpt>
      <trkpt lat="45.19795" lon="5.99395">
        <ele>2366.8</ele>
        <time>2021-02-27T08:48:26Z</time>
      </trkpt>
      <trkpt lat="45.19796" lon="5.99401">
        <ele>2366.8</ele>
        <time>2021-02-27T08:48:27Z</time>
      </trkpt>
      <trkpt lat="45.19797" lon="5.99408">
        <ele>2366.8</ele>
        <time>2021-02-27T08:48:28Z</time>
      </trkpt>
      <trkpt lat="45.19799" lon="5.99414">
        <ele>2366.8</ele>
        <time>2021-02-27T08:48:29Z</time>
      </trkpt>
      <trkpt lat="45.198" lon="5.99421">
        <ele>2366.8</ele>
        <time>2021-02-27T08:48:30Z</time>
      </trkpt>
      <trkpt lat="45.19802" lon="5.99428">
        <ele>2366.8</ele>
        <time>2021-02-27T08:48:31Z</time>
      </trkpt>
      <trkpt lat="45.19803" lon="5.99434">
        <ele>2366.8</ele>
        <time>2021-02-27T08:48:32Z</time>
      </trkpt>
      <trkpt lat="45.19804" lon="5.99441">
        <ele>2357.8</ele>
        <time>2021-02-27T08:48:33Z</time>
      </trkpt>
      <trkpt lat="45.19812" lon="5.99451">
        <ele>2357.8</ele>
        <time>2021-02-27T08:48:34Z</time>
      </trkpt>
      <trkpt lat="45.19817" lon="5.99454">
        <ele>2357.8</ele>
        <time>2021-02-27T08:48:35Z</time>
      </trkpt>
      <trkpt lat="45.19822" lon="5.99458">
        <ele>2357.8</ele>
        <time>2021-02-27T08:48:36Z</time>
      </trkpt>
      <trkpt lat="45.19826" lon="5.99461">
        <ele>2357.8</ele>
        <time>2021-02-27T08:48:37Z</time>
      </trkpt>
      <trkpt lat="45.19831" lon="5.99465">
        <ele>2357.8</ele>
        <time>2021-02-27T08:48:38Z</time>
      </trkpt>
      <trkpt lat="45.19836" lon="5.99468">
        <ele>2357.8</ele>
        <time>2021-02-27T08:48:39Z</time>
      </trkpt>
      <trkpt lat="45.19841" lon="5.99472">
        <ele>2357.8</ele>
        <time>2021-02-27T08:48:40Z</time>
      </trkpt>
      <trkpt lat="45.19845" lon="5.99476">
        <ele>2357.8</ele>
        <time>2021-02-27T08:48:41Z</time>
      </trkpt>
      <trkpt lat="45.1985" lon="5.99479">
        <ele>2357.8</ele>
        <time>2021-02-27T08:48:42Z</time>
      </trkpt>
      <trkpt lat="45.19855" lon="5.99483">
        <ele>2347.6</ele>
        <time>2021-02-27T08:48:43Z</time>
      </trkpt>
      <trkpt lat="45.19864" lon="5.99482">
        <ele>2347.6</ele>
        <time>2021-02-27T08:48:44Z</time>
      </trkpt>
      <trkpt lat="45.19867" lon="5.99481">
        <ele>2347.6</ele>
        <time>2021-02-27T08:48:45Z</time>
      </trkpt>
      <trkpt lat="45.19871" lon="5.99481">
        <ele>2347.6</ele>
        <time>2021-02-27T08:48:46Z</time>
      </trkpt>
      <trkpt lat="45.19875" lon="5.9948">
        <ele>2347.6</ele>
        <time>2021-02-27T08:48:47Z</time>
      </trkpt>
      <trkpt lat="45.19878" lon="5.99479">
        <ele>2347.6</ele>
        <time>2021-02-27T08:48:48Z</time>
      </trkpt>
      <trkpt lat="45.19882" lon="5.99479">
        <ele>2347.6</ele>
        <time>2021-02-27T08:48:49Z</time>
      </trkpt>
      <trkpt lat="45.19885" lon="5.99478">
        <ele>2347.6</ele>
        <time>2021-02-27T08:48:50Z</time>
      </trkpt>
      <trkpt lat="45.19889" lon="5.99477">
        <ele>2347.6</ele>
        <time>2021-02-27T08:48:51Z</time>
      </trkpt>
      <trkpt lat="45.19892" lon="5.99477">
        <ele>2347.6</ele>
        <time>2021-02-27T08:48:52Z</time>
      </trkpt>
      <trkpt lat="45.19896" lon="5.99476">
        <ele>2344.6</ele>
        <time>2021-02-27T08:48:53Z</time>
      </trkpt>
      <trkpt lat="45.19901" lon="5.99476">
        <ele>2344.6</ele>
        <time>2021-02-27T08:48:54Z</time>
      </trkpt>
      <trkpt lat="45.19903" lon="5.99476">
        <ele>2344.6</ele>
        <time>2021-02-27T08:48:55Z</time>
      </trkpt>
      <trkpt lat="45.19906" lon="5.99477">
        <ele>2344.6</ele>
        <time>2021-02-27T08:48:57Z</time>
      </trkpt>
      <trkpt lat="45.19906" lon="5.99477">
        <ele>2343</ele>
        <time>2021-02-27T08:49:03Z</time>
      </trkpt>
      <trkpt lat="45.19906" lon="5.99477">
        <ele>2344.2</ele>
        <time>2021-02-27T08:49:13Z</time>
      </trkpt>
      <trkpt lat="45.19906" lon="5.99478">
        <ele>2344.2</ele>
        <time>2021-02-27T08:49:23Z</time>
      </trkpt>
      <trkpt lat="45.19906" lon="5.99478">
        <ele>2343.4</ele>
        <time>2021-02-27T08:49:33Z</time>
      </trkpt>
      <trkpt lat="45.19905" lon="5.99478">
        <ele>2342.4</ele>
        <time>2021-02-27T08:49:43Z</time>
      </trkpt>
      <trkpt lat="45.19905" lon="5.99479">
        <ele>2343.8</ele>
        <time>2021-02-27T08:49:53Z</time>
      </trkpt>
      <trkpt lat="45.19905" lon="5.99479">
        <ele>2344.2</ele>
        <time>2021-02-27T08:50:03Z</time>
      </trkpt>
      <trkpt lat="45.19905" lon="5.99479">
        <ele>2342.8</ele>
        <time>2021-02-27T08:50:13Z</time>
      </trkpt>
      <trkpt lat="45.19905" lon="5.9948">
        <ele>2343.2</ele>
        <time>2021-02-27T08:50:23Z</time>
      </trkpt>
      <trkpt lat="45.19905" lon="5.9948">
        <ele>2343</ele>
        <time>2021-02-27T08:50:33Z</time>
      </trkpt>
      <trkpt lat="45.19905" lon="5.99481">
        <ele>2343.8</ele>
        <time>2021-02-27T08:50:43Z</time>
      </trkpt>
      <trkpt lat="45.19905" lon="5.99481">
        <ele>2343.4</ele>
        <time>2021-02-27T08:50:53Z</time>
      </trkpt>
      <trkpt lat="45.19905" lon="5.99481">
        <ele>2343.4</ele>
        <time>2021-02-27T08:51:00Z</time>
      </trkpt>
      <trkpt lat="45.19904" lon="5.99482">
        <ele>2343.4</ele>
        <time>2021-02-27T08:51:02Z</time>
      </trkpt>
      <trkpt lat="45.19904" lon="5.99482">
        <ele>2343.6</ele>
        <time>2021-02-27T08:51:03Z</time>
      </trkpt>
      <trkpt lat="45.19908" lon="5.99485">
        <ele>2343.6</ele>
        <time>2021-02-27T08:51:04Z</time>
      </trkpt>
      <trkpt lat="45.1991" lon="5.99486">
        <ele>2343.6</ele>
        <time>2021-02-27T08:51:06Z</time>
      </trkpt>
      <trkpt lat="45.19912" lon="5.99487">
        <ele>2343.6</ele>
        <time>2021-02-27T08:51:08Z</time>
      </trkpt>
      <trkpt lat="45.19914" lon="5.99488">
        <ele>2343.6</ele>
        <time>2021-02-27T08:51:10Z</time>
      </trkpt>
      <trkpt lat="45.19916" lon="5.99488">
        <ele>2343.6</ele>
        <time>2021-02-27T08:51:12Z</time>
      </trkpt>
      <trkpt lat="45.19918" lon="5.99489">
        <ele>2345.2</ele>
        <time>2021-02-27T08:51:13Z</time>
      </trkpt>
      <trkpt lat="45.1992" lon="5.9949">
        <ele>2345.2</ele>
        <time>2021-02-27T08:51:14Z</time>
      </trkpt>
      <trkpt lat="45.19922" lon="5.99491">
        <ele>2345.2</ele>
        <time>2021-02-27T08:51:16Z</time>
      </trkpt>
      <trkpt lat="45.19923" lon="5.99491">
        <ele>2345.2</ele>
        <time>2021-02-27T08:51:18Z</time>
      </trkpt>
      <trkpt lat="45.19925" lon="5.99492">
        <ele>2345.2</ele>
        <time>2021-02-27T08:51:20Z</time>
      </trkpt>
      <trkpt lat="45.19926" lon="5.99492">
        <ele>2345.2</ele>
        <time>2021-02-27T08:51:22Z</time>
      </trkpt>
      <trkpt lat="45.19928" lon="5.99493">
        <ele>2348</ele>
        <time>2021-02-27T08:51:23Z</time>
      </trkpt>
      <trkpt lat="45.19929" lon="5.99494">
        <ele>2348</ele>
        <time>2021-02-27T08:51:24Z</time>
      </trkpt>
      <trkpt lat="45.1993" lon="5.99496">
        <ele>2348</ele>
        <time>2021-02-27T08:51:27Z</time>
      </trkpt>
      <trkpt lat="45.19931" lon="5.99497">
        <ele>2348</ele>
        <time>2021-02-27T08:51:30Z</time>
      </trkpt>
      <trkpt lat="45.19932" lon="5.99498">
        <ele>2348</ele>
        <time>2021-02-27T08:51:32Z</time>
      </trkpt>
      <trkpt lat="45.19933" lon="5.995">
        <ele>2350</ele>
        <time>2021-02-27T08:51:33Z</time>
      </trkpt>
      <trkpt lat="45.19935" lon="5.99503">
        <ele>2350</ele>
        <time>2021-02-27T08:51:34Z</time>
      </trkpt>
      <trkpt lat="45.19936" lon="5.99504">
        <ele>2350</ele>
        <time>2021-02-27T08:51:37Z</time>
      </trkpt>
      <trkpt lat="45.19936" lon="5.99506">
        <ele>2350</ele>
        <time>2021-02-27T08:51:39Z</time>
      </trkpt>
      <trkpt lat="45.19937" lon="5.99507">
        <ele>2350</ele>
        <time>2021-02-27T08:51:42Z</time>
      </trkpt>
      <trkpt lat="45.19938" lon="5.99509">
        <ele>2352.2</ele>
        <time>2021-02-27T08:51:43Z</time>
      </trkpt>
      <trkpt lat="45.19937" lon="5.99513">
        <ele>2352.2</ele>
        <time>2021-02-27T08:51:45Z</time>
      </trkpt>
      <trkpt lat="45.19936" lon="5.99515">
        <ele>2352.2</ele>
        <time>2021-02-27T08:51:48Z</time>
      </trkpt>
      <trkpt lat="45.19936" lon="5.99516">
        <ele>2352.2</ele>
        <time>2021-02-27T08:51:52Z</time>
      </trkpt>
      <trkpt lat="45.19936" lon="5.99518">
        <ele>2355.4</ele>
        <time>2021-02-27T08:51:53Z</time>
      </trkpt>
      <trkpt lat="45.19936" lon="5.99521">
        <ele>2355.4</ele>
        <time>2021-02-27T08:51:55Z</time>
      </trkpt>
      <trkpt lat="45.19936" lon="5.99524">
        <ele>2355.4</ele>
        <time>2021-02-27T08:51:57Z</time>
      </trkpt>
      <trkpt lat="45.19937" lon="5.99527">
        <ele>2355.4</ele>
        <time>2021-02-27T08:52:00Z</time>
      </trkpt>
      <trkpt lat="45.19938" lon="5.99529">
        <ele>2357.2</ele>
        <time>2021-02-27T08:52:03Z</time>
      </trkpt>
      <trkpt lat="45.1994" lon="5.9953">
        <ele>2357.2</ele>
        <time>2021-02-27T08:52:06Z</time>
      </trkpt>
      <trkpt lat="45.19941" lon="5.99532">
        <ele>2357.2</ele>
        <time>2021-02-27T08:52:09Z</time>
      </trkpt>
      <trkpt lat="45.19941" lon="5.99534">
        <ele>2357.2</ele>
        <time>2021-02-27T08:52:11Z</time>
      </trkpt>
      <trkpt lat="45.19941" lon="5.99534">
        <ele>2360</ele>
        <time>2021-02-27T08:52:13Z</time>
      </trkpt>
      <trkpt lat="45.19943" lon="5.99537">
        <ele>2360</ele>
        <time>2021-02-27T08:52:14Z</time>
      </trkpt>
      <trkpt lat="45.19945" lon="5.99538">
        <ele>2360</ele>
        <time>2021-02-27T08:52:17Z</time>
      </trkpt>
      <trkpt lat="45.19948" lon="5.99537">
        <ele>2360</ele>
        <time>2021-02-27T08:52:20Z</time>
      </trkpt>
      <trkpt lat="45.1995" lon="5.99538">
        <ele>2361.8</ele>
        <time>2021-02-27T08:52:23Z</time>
      </trkpt>
      <trkpt lat="45.19951" lon="5.99541">
        <ele>2361.8</ele>
        <time>2021-02-27T08:52:26Z</time>
      </trkpt>
      <trkpt lat="45.19953" lon="5.99544">
        <ele>2361.8</ele>
        <time>2021-02-27T08:52:29Z</time>
      </trkpt>
      <trkpt lat="45.19954" lon="5.99547">
        <ele>2366</ele>
        <time>2021-02-27T08:52:33Z</time>
      </trkpt>
      <trkpt lat="45.19957" lon="5.99549">
        <ele>2366</ele>
        <time>2021-02-27T08:52:35Z</time>
      </trkpt>
      <trkpt lat="45.19958" lon="5.9955">
        <ele>2366</ele>
        <time>2021-02-27T08:52:38Z</time>
      </trkpt>
      <trkpt lat="45.19959" lon="5.99551">
        <ele>2366</ele>
        <time>2021-02-27T08:52:42Z</time>
      </trkpt>
      <trkpt lat="45.1996" lon="5.99552">
        <ele>2369</ele>
        <time>2021-02-27T08:52:43Z</time>
      </trkpt>
      <trkpt lat="45.19961" lon="5.99555">
        <ele>2369</ele>
        <time>2021-02-27T08:52:45Z</time>
      </trkpt>
      <trkpt lat="45.19962" lon="5.99557">
        <ele>2369</ele>
        <time>2021-02-27T08:52:47Z</time>
      </trkpt>
      <trkpt lat="45.19963" lon="5.9956">
        <ele>2369</ele>
        <time>2021-02-27T08:52:50Z</time>
      </trkpt>
      <trkpt lat="45.19964" lon="5.99563">
        <ele>2372.2</ele>
        <time>2021-02-27T08:52:53Z</time>
      </trkpt>
      <trkpt lat="45.19965" lon="5.99565">
        <ele>2372.2</ele>
        <time>2021-02-27T08:52:55Z</time>
      </trkpt>
      <trkpt lat="45.19967" lon="5.99568">
        <ele>2372.2</ele>
        <time>2021-02-27T08:52:58Z</time>
      </trkpt>
      <trkpt lat="45.19969" lon="5.9957">
        <ele>2372.2</ele>
        <time>2021-02-27T08:53:01Z</time>
      </trkpt>
      <trkpt lat="45.19969" lon="5.9957">
        <ele>2374.2</ele>
        <time>2021-02-27T08:53:03Z</time>
      </trkpt>
      <trkpt lat="45.19973" lon="5.99573">
        <ele>2374.2</ele>
        <time>2021-02-27T08:53:04Z</time>
      </trkpt>
      <trkpt lat="45.19973" lon="5.99575">
        <ele>2374.2</ele>
        <time>2021-02-27T08:53:07Z</time>
      </trkpt>
      <trkpt lat="45.19974" lon="5.99576">
        <ele>2374.2</ele>
        <time>2021-02-27T08:53:10Z</time>
      </trkpt>
      <trkpt lat="45.19975" lon="5.99578">
        <ele>2374.2</ele>
        <time>2021-02-27T08:53:12Z</time>
      </trkpt>
      <trkpt lat="45.19976" lon="5.99579">
        <ele>2376</ele>
        <time>2021-02-27T08:53:13Z</time>
      </trkpt>
      <trkpt lat="45.19979" lon="5.99582">
        <ele>2376</ele>
        <time>2021-02-27T08:53:14Z</time>
      </trkpt>
      <trkpt lat="45.1998" lon="5.99584">
        <ele>2376</ele>
        <time>2021-02-27T08:53:17Z</time>
      </trkpt>
      <trkpt lat="45.19981" lon="5.99586">
        <ele>2376</ele>
        <time>2021-02-27T08:53:20Z</time>
      </trkpt>
      <trkpt lat="45.19981" lon="5.99587">
        <ele>2376</ele>
        <time>2021-02-27T08:53:22Z</time>
      </trkpt>
      <trkpt lat="45.19982" lon="5.99589">
        <ele>2378</ele>
        <time>2021-02-27T08:53:23Z</time>
      </trkpt>
      <trkpt lat="45.19984" lon="5.99591">
        <ele>2378</ele>
        <time>2021-02-27T08:53:24Z</time>
      </trkpt>
      <trkpt lat="45.19985" lon="5.99593">
        <ele>2378</ele>
        <time>2021-02-27T08:53:26Z</time>
      </trkpt>
      <trkpt lat="45.19987" lon="5.99594">
        <ele>2378</ele>
        <time>2021-02-27T08:53:28Z</time>
      </trkpt>
      <trkpt lat="45.19988" lon="5.99597">
        <ele>2378</ele>
        <time>2021-02-27T08:53:31Z</time>
      </trkpt>
      <trkpt lat="45.19988" lon="5.99597">
        <ele>2381</ele>
        <time>2021-02-27T08:53:33Z</time>
      </trkpt>
      <trkpt lat="45.1999" lon="5.996">
        <ele>2381</ele>
        <time>2021-02-27T08:53:34Z</time>
      </trkpt>
      <trkpt lat="45.19992" lon="5.99601">
        <ele>2381</ele>
        <time>2021-02-27T08:53:36Z</time>
      </trkpt>
      <trkpt lat="45.19993" lon="5.99603">
        <ele>2381</ele>
        <time>2021-02-27T08:53:38Z</time>
      </trkpt>
      <trkpt lat="45.19995" lon="5.99606">
        <ele>2381</ele>
        <time>2021-02-27T08:53:41Z</time>
      </trkpt>
      <trkpt lat="45.19995" lon="5.99606">
        <ele>2383</ele>
        <time>2021-02-27T08:53:43Z</time>
      </trkpt>
      <trkpt lat="45.19997" lon="5.99609">
        <ele>2383</ele>
        <time>2021-02-27T08:53:44Z</time>
      </trkpt>
      <trkpt lat="45.19997" lon="5.99612">
        <ele>2383</ele>
        <time>2021-02-27T08:53:46Z</time>
      </trkpt>
      <trkpt lat="45.19997" lon="5.99615">
        <ele>2383</ele>
        <time>2021-02-27T08:53:48Z</time>
      </trkpt>
      <trkpt lat="45.19997" lon="5.99618">
        <ele>2383</ele>
        <time>2021-02-27T08:53:50Z</time>
      </trkpt>
      <trkpt lat="45.19998" lon="5.99621">
        <ele>2385.6</ele>
        <time>2021-02-27T08:53:53Z</time>
      </trkpt>
      <trkpt lat="45.19997" lon="5.99626">
        <ele>2385.6</ele>
        <time>2021-02-27T08:53:55Z</time>
      </trkpt>
      <trkpt lat="45.19996" lon="5.99628">
        <ele>2385.6</ele>
        <time>2021-02-27T08:53:57Z</time>
      </trkpt>
      <trkpt lat="45.19996" lon="5.9963">
        <ele>2385.6</ele>
        <time>2021-02-27T08:54:00Z</time>
      </trkpt>
      <trkpt lat="45.19995" lon="5.99632">
        <ele>2385.6</ele>
        <time>2021-02-27T08:54:02Z</time>
      </trkpt>
      <trkpt lat="45.19995" lon="5.99634">
        <ele>2388.6</ele>
        <time>2021-02-27T08:54:03Z</time>
      </trkpt>
      <trkpt lat="45.19994" lon="5.99635">
        <ele>2388.6</ele>
        <time>2021-02-27T08:54:04Z</time>
      </trkpt>
      <trkpt lat="45.19993" lon="5.99637">
        <ele>2388.6</ele>
        <time>2021-02-27T08:54:06Z</time>
      </trkpt>
      <trkpt lat="45.19992" lon="5.99639">
        <ele>2388.6</ele>
        <time>2021-02-27T08:54:08Z</time>
      </trkpt>
      <trkpt lat="45.19991" lon="5.99642">
        <ele>2388.6</ele>
        <time>2021-02-27T08:54:11Z</time>
      </trkpt>
      <trkpt lat="45.19991" lon="5.99642">
        <ele>2391.2</ele>
        <time>2021-02-27T08:54:13Z</time>
      </trkpt>
      <trkpt lat="45.19991" lon="5.99645">
        <ele>2391.2</ele>
        <time>2021-02-27T08:54:14Z</time>
      </trkpt>
      <trkpt lat="45.19992" lon="5.99645">
        <ele>2391.2</ele>
        <time>2021-02-27T08:54:19Z</time>
      </trkpt>
      <trkpt lat="45.19993" lon="5.99646">
        <ele>2391.2</ele>
        <time>2021-02-27T08:54:22Z</time>
      </trkpt>
      <trkpt lat="45.19994" lon="5.99646">
        <ele>2392</ele>
        <time>2021-02-27T08:54:23Z</time>
      </trkpt>
      <trkpt lat="45.19997" lon="5.99645">
        <ele>2392</ele>
        <time>2021-02-27T08:54:25Z</time>
      </trkpt>
      <trkpt lat="45.19999" lon="5.99645">
        <ele>2392</ele>
        <time>2021-02-27T08:54:28Z</time>
      </trkpt>
      <trkpt lat="45.2" lon="5.99645">
        <ele>2392</ele>
        <time>2021-02-27T08:54:30Z</time>
      </trkpt>
      <trkpt lat="45.20001" lon="5.99645">
        <ele>2392</ele>
        <time>2021-02-27T08:54:32Z</time>
      </trkpt>
      <trkpt lat="45.20002" lon="5.99644">
        <ele>2394.6</ele>
        <time>2021-02-27T08:54:33Z</time>
      </trkpt>
      <trkpt lat="45.20004" lon="5.99644">
        <ele>2394.6</ele>
        <time>2021-02-27T08:54:34Z</time>
      </trkpt>
      <trkpt lat="45.20006" lon="5.99644">
        <ele>2394.6</ele>
        <time>2021-02-27T08:54:36Z</time>
      </trkpt>
      <trkpt lat="45.20008" lon="5.99643">
        <ele>2394.6</ele>
        <time>2021-02-27T08:54:38Z</time>
      </trkpt>
      <trkpt lat="45.2001" lon="5.99642">
        <ele>2394.6</ele>
        <time>2021-02-27T08:54:41Z</time>
      </trkpt>
      <trkpt lat="45.2001" lon="5.99642">
        <ele>2397.6</ele>
        <time>2021-02-27T08:54:43Z</time>
      </trkpt>
      <trkpt lat="45.20012" lon="5.99641">
        <ele>2397.6</ele>
        <time>2021-02-27T08:54:44Z</time>
      </trkpt>
      <trkpt lat="45.20015" lon="5.99639">
        <ele>2397.6</ele>
        <time>2021-02-27T08:54:47Z</time>
      </trkpt>
      <trkpt lat="45.20016" lon="5.99637">
        <ele>2397.6</ele>
        <time>2021-02-27T08:54:50Z</time>
      </trkpt>
      <trkpt lat="45.20016" lon="5.99637">
        <ele>2400.8</ele>
        <time>2021-02-27T08:54:53Z</time>
      </trkpt>
      <trkpt lat="45.20018" lon="5.99639">
        <ele>2400.8</ele>
        <time>2021-02-27T08:54:54Z</time>
      </trkpt>
      <trkpt lat="45.20017" lon="5.99642">
        <ele>2400.8</ele>
        <time>2021-02-27T08:54:57Z</time>
      </trkpt>
      <trkpt lat="45.20018" lon="5.99646">
        <ele>2400.8</ele>
        <time>2021-02-27T08:55:00Z</time>
      </trkpt>
      <trkpt lat="45.20018" lon="5.99649">
        <ele>2403.4</ele>
        <time>2021-02-27T08:55:03Z</time>
      </trkpt>
      <trkpt lat="45.20018" lon="5.99652">
        <ele>2403.4</ele>
        <time>2021-02-27T08:55:06Z</time>
      </trkpt>
      <trkpt lat="45.20018" lon="5.99655">
        <ele>2403.4</ele>
        <time>2021-02-27T08:55:08Z</time>
      </trkpt>
      <trkpt lat="45.20017" lon="5.99658">
        <ele>2403.4</ele>
        <time>2021-02-27T08:55:11Z</time>
      </trkpt>
      <trkpt lat="45.20017" lon="5.99658">
        <ele>2405.8</ele>
        <time>2021-02-27T08:55:13Z</time>
      </trkpt>
      <trkpt lat="45.20018" lon="5.99662">
        <ele>2405.8</ele>
        <time>2021-02-27T08:55:14Z</time>
      </trkpt>
      <trkpt lat="45.20019" lon="5.99661">
        <ele>2405.8</ele>
        <time>2021-02-27T08:55:20Z</time>
      </trkpt>
      <trkpt lat="45.20021" lon="5.99661">
        <ele>2405.8</ele>
        <time>2021-02-27T08:55:22Z</time>
      </trkpt>
      <trkpt lat="45.20022" lon="5.99661">
        <ele>2408.4</ele>
        <time>2021-02-27T08:55:23Z</time>
      </trkpt>
      <trkpt lat="45.20025" lon="5.9966">
        <ele>2408.4</ele>
        <time>2021-02-27T08:55:25Z</time>
      </trkpt>
      <trkpt lat="45.20027" lon="5.99661">
        <ele>2408.4</ele>
        <time>2021-02-27T08:55:28Z</time>
      </trkpt>
      <trkpt lat="45.20026" lon="5.99663">
        <ele>2408.4</ele>
        <time>2021-02-27T08:55:30Z</time>
      </trkpt>
      <trkpt lat="45.20026" lon="5.99667">
        <ele>2410.4</ele>
        <time>2021-02-27T08:55:33Z</time>
      </trkpt>
      <trkpt lat="45.20028" lon="5.9967">
        <ele>2410.4</ele>
        <time>2021-02-27T08:55:36Z</time>
      </trkpt>
      <trkpt lat="45.20029" lon="5.99671">
        <ele>2410.4</ele>
        <time>2021-02-27T08:55:39Z</time>
      </trkpt>
      <trkpt lat="45.20029" lon="5.99671">
        <ele>2410.4</ele>
        <time>2021-02-27T08:55:42Z</time>
      </trkpt>
      <trkpt lat="45.2003" lon="5.99672">
        <ele>2413.4</ele>
        <time>2021-02-27T08:55:43Z</time>
      </trkpt>
      <trkpt lat="45.20032" lon="5.99676">
        <ele>2413.4</ele>
        <time>2021-02-27T08:55:45Z</time>
      </trkpt>
      <trkpt lat="45.20033" lon="5.99678">
        <ele>2413.4</ele>
        <time>2021-02-27T08:55:48Z</time>
      </trkpt>
      <trkpt lat="45.20033" lon="5.99679">
        <ele>2413.4</ele>
        <time>2021-02-27T08:55:50Z</time>
      </trkpt>
      <trkpt lat="45.20034" lon="5.99681">
        <ele>2413.4</ele>
        <time>2021-02-27T08:55:52Z</time>
      </trkpt>
      <trkpt lat="45.20035" lon="5.99682">
        <ele>2416.6</ele>
        <time>2021-02-27T08:55:53Z</time>
      </trkpt>
      <trkpt lat="45.20037" lon="5.99686">
        <ele>2416.6</ele>
        <time>2021-02-27T08:55:54Z</time>
      </trkpt>
      <trkpt lat="45.20038" lon="5.99688">
        <ele>2416.6</ele>
        <time>2021-02-27T08:55:56Z</time>
      </trkpt>
      <trkpt lat="45.20039" lon="5.9969">
        <ele>2416.6</ele>
        <time>2021-02-27T08:55:58Z</time>
      </trkpt>
      <trkpt lat="45.2004" lon="5.99691">
        <ele>2416.6</ele>
        <time>2021-02-27T08:56:00Z</time>
      </trkpt>
      <trkpt lat="45.20042" lon="5.99693">
        <ele>2416.6</ele>
        <time>2021-02-27T08:56:02Z</time>
      </trkpt>
      <trkpt lat="45.20043" lon="5.99695">
        <ele>2417.8</ele>
        <time>2021-02-27T08:56:03Z</time>
      </trkpt>
      <trkpt lat="45.20044" lon="5.99696">
        <ele>2417.8</ele>
        <time>2021-02-27T08:56:04Z</time>
      </trkpt>
      <trkpt lat="45.20045" lon="5.99699">
        <ele>2417.8</ele>
        <time>2021-02-27T08:56:06Z</time>
      </trkpt>
      <trkpt lat="45.20047" lon="5.99703">
        <ele>2417.8</ele>
        <time>2021-02-27T08:56:09Z</time>
      </trkpt>
      <trkpt lat="45.20048" lon="5.99705">
        <ele>2417.8</ele>
        <time>2021-02-27T08:56:11Z</time>
      </trkpt>
      <trkpt lat="45.20049" lon="5.99707">
        <ele>2419.2</ele>
        <time>2021-02-27T08:56:13Z</time>
      </trkpt>
      <trkpt lat="45.20051" lon="5.9971">
        <ele>2419.2</ele>
        <time>2021-02-27T08:56:15Z</time>
      </trkpt>
      <trkpt lat="45.20053" lon="5.99712">
        <ele>2419.2</ele>
        <time>2021-02-27T08:56:17Z</time>
      </trkpt>
      <trkpt lat="45.20055" lon="5.99714">
        <ele>2419.2</ele>
        <time>2021-02-27T08:56:19Z</time>
      </trkpt>
      <trkpt lat="45.20057" lon="5.99716">
        <ele>2419.2</ele>
        <time>2021-02-27T08:56:21Z</time>
      </trkpt>
      <trkpt lat="45.2006" lon="5.99718">
        <ele>2421.2</ele>
        <time>2021-02-27T08:56:23Z</time>
      </trkpt>
      <trkpt lat="45.20061" lon="5.99719">
        <ele>2421.2</ele>
        <time>2021-02-27T08:56:25Z</time>
      </trkpt>
      <trkpt lat="45.20063" lon="5.99722">
        <ele>2421.2</ele>
        <time>2021-02-27T08:56:28Z</time>
      </trkpt>
      <trkpt lat="45.20065" lon="5.99725">
        <ele>2421.2</ele>
        <time>2021-02-27T08:56:31Z</time>
      </trkpt>
      <trkpt lat="45.20065" lon="5.99725">
        <ele>2425</ele>
        <time>2021-02-27T08:56:33Z</time>
      </trkpt>
      <trkpt lat="45.20066" lon="5.99728">
        <ele>2425</ele>
        <time>2021-02-27T08:56:34Z</time>
      </trkpt>
      <trkpt lat="45.20067" lon="5.9973">
        <ele>2425</ele>
        <time>2021-02-27T08:56:36Z</time>
      </trkpt>
      <trkpt lat="45.20069" lon="5.99732">
        <ele>2425</ele>
        <time>2021-02-27T08:56:38Z</time>
      </trkpt>
      <trkpt lat="45.20071" lon="5.99733">
        <ele>2425</ele>
        <time>2021-02-27T08:56:40Z</time>
      </trkpt>
      <trkpt lat="45.20073" lon="5.99736">
        <ele>2426.2</ele>
        <time>2021-02-27T08:56:43Z</time>
      </trkpt>
      <trkpt lat="45.20072" lon="5.99739">
        <ele>2426.2</ele>
        <time>2021-02-27T08:56:45Z</time>
      </trkpt>
      <trkpt lat="45.20075" lon="5.99741">
        <ele>2426.2</ele>
        <time>2021-02-27T08:56:48Z</time>
      </trkpt>
      <trkpt lat="45.20077" lon="5.99743">
        <ele>2426.2</ele>
        <time>2021-02-27T08:56:50Z</time>
      </trkpt>
      <trkpt lat="45.20078" lon="5.99746">
        <ele>2428.6</ele>
        <time>2021-02-27T08:56:53Z</time>
      </trkpt>
      <trkpt lat="45.20079" lon="5.9975">
        <ele>2428.6</ele>
        <time>2021-02-27T08:56:57Z</time>
      </trkpt>
      <trkpt lat="45.2008" lon="5.99752">
        <ele>2428.6</ele>
        <time>2021-02-27T08:56:59Z</time>
      </trkpt>
      <trkpt lat="45.2008" lon="5.99753">
        <ele>2428.6</ele>
        <time>2021-02-27T08:57:02Z</time>
      </trkpt>
      <trkpt lat="45.20081" lon="5.99754">
        <ele>2431.2</ele>
        <time>2021-02-27T08:57:03Z</time>
      </trkpt>
      <trkpt lat="45.20083" lon="5.99758">
        <ele>2431.2</ele>
        <time>2021-02-27T08:57:05Z</time>
      </trkpt>
      <trkpt lat="45.20084" lon="5.99759">
        <ele>2431.2</ele>
        <time>2021-02-27T08:57:07Z</time>
      </trkpt>
      <trkpt lat="45.20085" lon="5.9976">
        <ele>2431.2</ele>
        <time>2021-02-27T08:57:09Z</time>
      </trkpt>
      <trkpt lat="45.20086" lon="5.99762">
        <ele>2431.2</ele>
        <time>2021-02-27T08:57:12Z</time>
      </trkpt>
      <trkpt lat="45.20087" lon="5.99763">
        <ele>2433.6</ele>
        <time>2021-02-27T08:57:13Z</time>
      </trkpt>
      <trkpt lat="45.20089" lon="5.99766">
        <ele>2433.6</ele>
        <time>2021-02-27T08:57:14Z</time>
      </trkpt>
      <trkpt lat="45.2009" lon="5.99768">
        <ele>2433.6</ele>
        <time>2021-02-27T08:57:16Z</time>
      </trkpt>
      <trkpt lat="45.2009" lon="5.9977">
        <ele>2433.6</ele>
        <time>2021-02-27T08:57:19Z</time>
      </trkpt>
      <trkpt lat="45.20091" lon="5.99772">
        <ele>2433.6</ele>
        <time>2021-02-27T08:57:22Z</time>
      </trkpt>
      <trkpt lat="45.20092" lon="5.99774">
        <ele>2435.6</ele>
        <time>2021-02-27T08:57:23Z</time>
      </trkpt>
      <trkpt lat="45.20093" lon="5.99776">
        <ele>2435.6</ele>
        <time>2021-02-27T08:57:24Z</time>
      </trkpt>
      <trkpt lat="45.20095" lon="5.99779">
        <ele>2435.6</ele>
        <time>2021-02-27T08:57:27Z</time>
      </trkpt>
      <trkpt lat="45.20096" lon="5.99782">
        <ele>2435.6</ele>
        <time>2021-02-27T08:57:29Z</time>
      </trkpt>
      <trkpt lat="45.20097" lon="5.99784">
        <ele>2435.6</ele>
        <time>2021-02-27T08:57:31Z</time>
      </trkpt>
      <trkpt lat="45.20099" lon="5.99786">
        <ele>2438.6</ele>
        <time>2021-02-27T08:57:33Z</time>
      </trkpt>
      <trkpt lat="45.20101" lon="5.99789">
        <ele>2438.6</ele>
        <time>2021-02-27T08:57:35Z</time>
      </trkpt>
      <trkpt lat="45.20101" lon="5.99791">
        <ele>2438.6</ele>
        <time>2021-02-27T08:57:38Z</time>
      </trkpt>
      <trkpt lat="45.20102" lon="5.99792">
        <ele>2438.6</ele>
        <time>2021-02-27T08:57:42Z</time>
      </trkpt>
      <trkpt lat="45.20102" lon="5.99794">
        <ele>2440.2</ele>
        <time>2021-02-27T08:57:43Z</time>
      </trkpt>
      <trkpt lat="45.20104" lon="5.99797">
        <ele>2440.2</ele>
        <time>2021-02-27T08:57:45Z</time>
      </trkpt>
      <trkpt lat="45.20105" lon="5.998">
        <ele>2440.2</ele>
        <time>2021-02-27T08:57:48Z</time>
      </trkpt>
      <trkpt lat="45.20105" lon="5.99802">
        <ele>2440.2</ele>
        <time>2021-02-27T08:57:51Z</time>
      </trkpt>
      <trkpt lat="45.20107" lon="5.99804">
        <ele>2444.4</ele>
        <time>2021-02-27T08:57:53Z</time>
      </trkpt>
      <trkpt lat="45.20108" lon="5.99806">
        <ele>2444.4</ele>
        <time>2021-02-27T08:57:56Z</time>
      </trkpt>
      <trkpt lat="45.20109" lon="5.99809">
        <ele>2444.4</ele>
        <time>2021-02-27T08:57:59Z</time>
      </trkpt>
      <trkpt lat="45.2011" lon="5.99811">
        <ele>2444.4</ele>
        <time>2021-02-27T08:58:01Z</time>
      </trkpt>
      <trkpt lat="45.2011" lon="5.99811">
        <ele>2447.4</ele>
        <time>2021-02-27T08:58:03Z</time>
      </trkpt>
      <trkpt lat="45.20111" lon="5.99816">
        <ele>2447.4</ele>
        <time>2021-02-27T08:58:04Z</time>
      </trkpt>
      <trkpt lat="45.20111" lon="5.99818">
        <ele>2447.4</ele>
        <time>2021-02-27T08:58:07Z</time>
      </trkpt>
      <trkpt lat="45.20112" lon="5.9982">
        <ele>2447.4</ele>
        <time>2021-02-27T08:58:10Z</time>
      </trkpt>
      <trkpt lat="45.20113" lon="5.99821">
        <ele>2447.4</ele>
        <time>2021-02-27T08:58:12Z</time>
      </trkpt>
      <trkpt lat="45.20113" lon="5.99823">
        <ele>2450.2</ele>
        <time>2021-02-27T08:58:13Z</time>
      </trkpt>
      <trkpt lat="45.20114" lon="5.99826">
        <ele>2450.2</ele>
        <time>2021-02-27T08:58:14Z</time>
      </trkpt>
      <trkpt lat="45.20115" lon="5.99829">
        <ele>2450.2</ele>
        <time>2021-02-27T08:58:17Z</time>
      </trkpt>
      <trkpt lat="45.20115" lon="5.99832">
        <ele>2450.2</ele>
        <time>2021-02-27T08:58:19Z</time>
      </trkpt>
      <trkpt lat="45.20115" lon="5.99835">
        <ele>2450.2</ele>
        <time>2021-02-27T08:58:21Z</time>
      </trkpt>
      <trkpt lat="45.20117" lon="5.99837">
        <ele>2452.4</ele>
        <time>2021-02-27T08:58:23Z</time>
      </trkpt>
      <trkpt lat="45.20118" lon="5.99839">
        <ele>2452.4</ele>
        <time>2021-02-27T08:58:25Z</time>
      </trkpt>
      <trkpt lat="45.2012" lon="5.99842">
        <ele>2452.4</ele>
        <time>2021-02-27T08:58:28Z</time>
      </trkpt>
      <trkpt lat="45.20121" lon="5.99845">
        <ele>2452.4</ele>
        <time>2021-02-27T08:58:31Z</time>
      </trkpt>
      <trkpt lat="45.20121" lon="5.99845">
        <ele>2455</ele>
        <time>2021-02-27T08:58:33Z</time>
      </trkpt>
      <trkpt lat="45.20122" lon="5.9985">
        <ele>2455</ele>
        <time>2021-02-27T08:58:34Z</time>
      </trkpt>
      <trkpt lat="45.20123" lon="5.99852">
        <ele>2455</ele>
        <time>2021-02-27T08:58:37Z</time>
      </trkpt>
      <trkpt lat="45.20123" lon="5.99854">
        <ele>2455</ele>
        <time>2021-02-27T08:58:39Z</time>
      </trkpt>
      <trkpt lat="45.20123" lon="5.99856">
        <ele>2455</ele>
        <time>2021-02-27T08:58:42Z</time>
      </trkpt>
      <trkpt lat="45.20123" lon="5.99858">
        <ele>2457.6</ele>
        <time>2021-02-27T08:58:43Z</time>
      </trkpt>
      <trkpt lat="45.20123" lon="5.99861">
        <ele>2457.6</ele>
        <time>2021-02-27T08:58:44Z</time>
      </trkpt>
      <trkpt lat="45.20124" lon="5.99864">
        <ele>2457.6</ele>
        <time>2021-02-27T08:58:46Z</time>
      </trkpt>
      <trkpt lat="45.20125" lon="5.99868">
        <ele>2457.6</ele>
        <time>2021-02-27T08:58:48Z</time>
      </trkpt>
      <trkpt lat="45.20125" lon="5.99871">
        <ele>2457.6</ele>
        <time>2021-02-27T08:58:51Z</time>
      </trkpt>
      <trkpt lat="45.20125" lon="5.99871">
        <ele>2459.6</ele>
        <time>2021-02-27T08:58:53Z</time>
      </trkpt>
      <trkpt lat="45.20126" lon="5.99874">
        <ele>2459.6</ele>
        <time>2021-02-27T08:58:54Z</time>
      </trkpt>
      <trkpt lat="45.20129" lon="5.99876">
        <ele>2459.6</ele>
        <time>2021-02-27T08:58:56Z</time>
      </trkpt>
      <trkpt lat="45.2013" lon="5.99879">
        <ele>2459.6</ele>
        <time>2021-02-27T08:58:59Z</time>
      </trkpt>
      <trkpt lat="45.20131" lon="5.99882">
        <ele>2459.6</ele>
        <time>2021-02-27T08:59:01Z</time>
      </trkpt>
      <trkpt lat="45.20131" lon="5.99882">
        <ele>2462.2</ele>
        <time>2021-02-27T08:59:03Z</time>
      </trkpt>
      <trkpt lat="45.20131" lon="5.99887">
        <ele>2462.2</ele>
        <time>2021-02-27T08:59:04Z</time>
      </trkpt>
      <trkpt lat="45.20131" lon="5.99889">
        <ele>2462.2</ele>
        <time>2021-02-27T08:59:06Z</time>
      </trkpt>
      <trkpt lat="45.20131" lon="5.9989">
        <ele>2462.2</ele>
        <time>2021-02-27T08:59:08Z</time>
      </trkpt>
      <trkpt lat="45.20132" lon="5.99892">
        <ele>2462.2</ele>
        <time>2021-02-27T08:59:10Z</time>
      </trkpt>
      <trkpt lat="45.20132" lon="5.99894">
        <ele>2462.2</ele>
        <time>2021-02-27T08:59:12Z</time>
      </trkpt>
      <trkpt lat="45.20132" lon="5.99896">
        <ele>2465.2</ele>
        <time>2021-02-27T08:59:13Z</time>
      </trkpt>
      <trkpt lat="45.20132" lon="5.99899">
        <ele>2465.2</ele>
        <time>2021-02-27T08:59:14Z</time>
      </trkpt>
      <trkpt lat="45.20133" lon="5.99903">
        <ele>2465.2</ele>
        <time>2021-02-27T08:59:17Z</time>
      </trkpt>
      <trkpt lat="45.20134" lon="5.99906">
        <ele>2465.2</ele>
        <time>2021-02-27T08:59:20Z</time>
      </trkpt>
      <trkpt lat="45.20135" lon="5.99909">
        <ele>2467.4</ele>
        <time>2021-02-27T08:59:23Z</time>
      </trkpt>
      <trkpt lat="45.20135" lon="5.99914">
        <ele>2467.4</ele>
        <time>2021-02-27T08:59:26Z</time>
      </trkpt>
      <trkpt lat="45.20135" lon="5.99915">
        <ele>2467.4</ele>
        <time>2021-02-27T08:59:29Z</time>
      </trkpt>
      <trkpt lat="45.20135" lon="5.99916">
        <ele>2467.4</ele>
        <time>2021-02-27T08:59:32Z</time>
      </trkpt>
      <trkpt lat="45.20135" lon="5.99918">
        <ele>2470.4</ele>
        <time>2021-02-27T08:59:33Z</time>
      </trkpt>
      <trkpt lat="45.20135" lon="5.99922">
        <ele>2470.4</ele>
        <time>2021-02-27T08:59:34Z</time>
      </trkpt>
      <trkpt lat="45.20135" lon="5.99923">
        <ele>2470.4</ele>
        <time>2021-02-27T08:59:36Z</time>
      </trkpt>
      <trkpt lat="45.20136" lon="5.99925">
        <ele>2470.4</ele>
        <time>2021-02-27T08:59:39Z</time>
      </trkpt>
      <trkpt lat="45.20136" lon="5.99927">
        <ele>2473.4</ele>
        <time>2021-02-27T08:59:43Z</time>
      </trkpt>
      <trkpt lat="45.20136" lon="5.99928">
        <ele>2473.4</ele>
        <time>2021-02-27T08:59:47Z</time>
      </trkpt>
      <trkpt lat="45.20137" lon="5.9993">
        <ele>2473.4</ele>
        <time>2021-02-27T08:59:52Z</time>
      </trkpt>
      <trkpt lat="45.20137" lon="5.99932">
        <ele>2477.6</ele>
        <time>2021-02-27T08:59:53Z</time>
      </trkpt>
      <trkpt lat="45.2014" lon="5.99935">
        <ele>2477.6</ele>
        <time>2021-02-27T08:59:56Z</time>
      </trkpt>
      <trkpt lat="45.20141" lon="5.99936">
        <ele>2477.6</ele>
        <time>2021-02-27T08:59:58Z</time>
      </trkpt>
      <trkpt lat="45.20142" lon="5.99938">
        <ele>2477.6</ele>
        <time>2021-02-27T09:00:00Z</time>
      </trkpt>
      <trkpt lat="45.20142" lon="5.99939">
        <ele>2477.6</ele>
        <time>2021-02-27T09:00:02Z</time>
      </trkpt>
      <trkpt lat="45.20143" lon="5.99941">
        <ele>2480.2</ele>
        <time>2021-02-27T09:00:03Z</time>
      </trkpt>
      <trkpt lat="45.20144" lon="5.99944">
        <ele>2480.2</ele>
        <time>2021-02-27T09:00:11Z</time>
      </trkpt>
      <trkpt lat="45.20146" lon="5.99947">
        <ele>2480</ele>
        <time>2021-02-27T09:00:13Z</time>
      </trkpt>
      <trkpt lat="45.20147" lon="5.9995">
        <ele>2480</ele>
        <time>2021-02-27T09:00:15Z</time>
      </trkpt>
      <trkpt lat="45.20149" lon="5.99953">
        <ele>2480</ele>
        <time>2021-02-27T09:00:17Z</time>
      </trkpt>
      <trkpt lat="45.20151" lon="5.99955">
        <ele>2480</ele>
        <time>2021-02-27T09:00:19Z</time>
      </trkpt>
      <trkpt lat="45.20152" lon="5.99958">
        <ele>2480</ele>
        <time>2021-02-27T09:00:21Z</time>
      </trkpt>
      <trkpt lat="45.20151" lon="5.99963">
        <ele>2480.4</ele>
        <time>2021-02-27T09:00:23Z</time>
      </trkpt>
      <trkpt lat="45.20151" lon="5.99966">
        <ele>2480.4</ele>
        <time>2021-02-27T09:00:24Z</time>
      </trkpt>
      <trkpt lat="45.2015" lon="5.9997">
        <ele>2480.4</ele>
        <time>2021-02-27T09:00:25Z</time>
      </trkpt>
      <trkpt lat="45.20148" lon="5.99972">
        <ele>2480.4</ele>
        <time>2021-02-27T09:00:26Z</time>
      </trkpt>
      <trkpt lat="45.20147" lon="5.99973">
        <ele>2480.4</ele>
        <time>2021-02-27T09:00:27Z</time>
      </trkpt>
      <trkpt lat="45.20147" lon="5.99973">
        <ele>2474</ele>
        <time>2021-02-27T09:00:33Z</time>
      </trkpt>
      <trkpt lat="45.20147" lon="5.99973">
        <ele>2471.4</ele>
        <time>2021-02-27T09:00:43Z</time>
      </trkpt>
      <trkpt lat="45.20147" lon="5.99973">
        <ele>2475.8</ele>
        <time>2021-02-27T09:00:53Z</time>
      </trkpt>
      <trkpt lat="45.20147" lon="5.99973">
        <ele>2475.4</ele>
        <time>2021-02-27T09:01:03Z</time>
      </trkpt>
      <trkpt lat="45.20147" lon="5.99973">
        <ele>2475.2</ele>
        <time>2021-02-27T09:01:13Z</time>
      </trkpt>
      <trkpt lat="45.20147" lon="5.99973">
        <ele>2473.2</ele>
        <time>2021-02-27T09:01:23Z</time>
      </trkpt>
      <trkpt lat="45.20147" lon="5.99973">
        <ele>2475</ele>
        <time>2021-02-27T09:01:33Z</time>
      </trkpt>
      <trkpt lat="45.20147" lon="5.99973">
        <ele>2475.2</ele>
        <time>2021-02-27T09:01:43Z</time>
      </trkpt>
      <trkpt lat="45.20147" lon="5.99973">
        <ele>2474.4</ele>
        <time>2021-02-27T09:01:53Z</time>
      </trkpt>
      <trkpt lat="45.20141" lon="5.99976">
        <ele>2474.4</ele>
        <time>2021-02-27T09:01:57Z</time>
      </trkpt>
      <trkpt lat="45.20143" lon="5.99977">
        <ele>2474.4</ele>
        <time>2021-02-27T09:02:00Z</time>
      </trkpt>
      <trkpt lat="45.20145" lon="5.99978">
        <ele>2474.2</ele>
        <time>2021-02-27T09:02:03Z</time>
      </trkpt>
      <trkpt lat="45.20145" lon="5.99979">
        <ele>2475.2</ele>
        <time>2021-02-27T09:02:13Z</time>
      </trkpt>
      <trkpt lat="45.20146" lon="5.99979">
        <ele>2475</ele>
        <time>2021-02-27T09:02:23Z</time>
      </trkpt>
      <trkpt lat="45.20146" lon="5.9998">
        <ele>2474.8</ele>
        <time>2021-02-27T09:02:33Z</time>
      </trkpt>
      <trkpt lat="45.20147" lon="5.99981">
        <ele>2475.2</ele>
        <time>2021-02-27T09:02:43Z</time>
      </trkpt>
      <trkpt lat="45.20147" lon="5.99981">
        <ele>2474.6</ele>
        <time>2021-02-27T09:02:53Z</time>
      </trkpt>
      <trkpt lat="45.20148" lon="5.99982">
        <ele>2474.8</ele>
        <time>2021-02-27T09:03:03Z</time>
      </trkpt>
      <trkpt lat="45.20148" lon="5.99982">
        <ele>2474.8</ele>
        <time>2021-02-27T09:03:08Z</time>
      </trkpt>
      <trkpt lat="45.20149" lon="5.99983">
        <ele>2474.8</ele>
        <time>2021-02-27T09:03:10Z</time>
      </trkpt>
      <trkpt lat="45.20149" lon="5.99984">
        <ele>2474.8</ele>
        <time>2021-02-27T09:03:12Z</time>
      </trkpt>
      <trkpt lat="45.2015" lon="5.99984">
        <ele>2472.2</ele>
        <time>2021-02-27T09:03:13Z</time>
      </trkpt>
      <trkpt lat="45.20151" lon="5.99989">
        <ele>2472.2</ele>
        <time>2021-02-27T09:03:16Z</time>
      </trkpt>
      <trkpt lat="45.20151" lon="5.99993">
        <ele>2472.2</ele>
        <time>2021-02-27T09:03:19Z</time>
      </trkpt>
      <trkpt lat="45.20151" lon="5.99996">
        <ele>2472.2</ele>
        <time>2021-02-27T09:03:20Z</time>
      </trkpt>
      <trkpt lat="45.2015" lon="5.99999">
        <ele>2472.2</ele>
        <time>2021-02-27T09:03:21Z</time>
      </trkpt>
      <trkpt lat="45.2015" lon="6.00003">
        <ele>2472.2</ele>
        <time>2021-02-27T09:03:22Z</time>
      </trkpt>
      <trkpt lat="45.2015" lon="6.00006">
        <ele>2470.6</ele>
        <time>2021-02-27T09:03:23Z</time>
      </trkpt>
      <trkpt lat="45.20151" lon="6.00015">
        <ele>2470.6</ele>
        <time>2021-02-27T09:03:24Z</time>
      </trkpt>
      <trkpt lat="45.20151" lon="6.00019">
        <ele>2470.6</ele>
        <time>2021-02-27T09:03:25Z</time>
      </trkpt>
      <trkpt lat="45.20152" lon="6.00023">
        <ele>2470.6</ele>
        <time>2021-02-27T09:03:26Z</time>
      </trkpt>
      <trkpt lat="45.20152" lon="6.00027">
        <ele>2470.6</ele>
        <time>2021-02-27T09:03:27Z</time>
      </trkpt>
      <trkpt lat="45.20153" lon="6.00031">
        <ele>2470.6</ele>
        <time>2021-02-27T09:03:28Z</time>
      </trkpt>
      <trkpt lat="45.20154" lon="6.00035">
        <ele>2470.6</ele>
        <time>2021-02-27T09:03:29Z</time>
      </trkpt>
      <trkpt lat="45.20154" lon="6.00038">
        <ele>2470.6</ele>
        <time>2021-02-27T09:03:30Z</time>
      </trkpt>
      <trkpt lat="45.20155" lon="6.00042">
        <ele>2470.6</ele>
        <time>2021-02-27T09:03:31Z</time>
      </trkpt>
      <trkpt lat="45.20155" lon="6.00046">
        <ele>2470.6</ele>
        <time>2021-02-27T09:03:32Z</time>
      </trkpt>
      <trkpt lat="45.20156" lon="6.0005">
        <ele>2455.4</ele>
        <time>2021-02-27T09:03:33Z</time>
      </trkpt>
      <trkpt lat="45.20157" lon="6.00054">
        <ele>2455.4</ele>
        <time>2021-02-27T09:03:34Z</time>
      </trkpt>
      <trkpt lat="45.20156" lon="6.00059">
        <ele>2455.4</ele>
        <time>2021-02-27T09:03:35Z</time>
      </trkpt>
      <trkpt lat="45.20155" lon="6.00063">
        <ele>2455.4</ele>
        <time>2021-02-27T09:03:36Z</time>
      </trkpt>
      <trkpt lat="45.20156" lon="6.00066">
        <ele>2455.4</ele>
        <time>2021-02-27T09:03:37Z</time>
      </trkpt>
      <trkpt lat="45.20158" lon="6.00068">
        <ele>2455.4</ele>
        <time>2021-02-27T09:03:38Z</time>
      </trkpt>
      <trkpt lat="45.20159" lon="6.00071">
        <ele>2455.4</ele>
        <time>2021-02-27T09:03:39Z</time>
      </trkpt>
      <trkpt lat="45.20159" lon="6.00071">
        <ele>2441</ele>
        <time>2021-02-27T09:03:43Z</time>
      </trkpt>
      <trkpt lat="45.20159" lon="6.00077">
        <ele>2441</ele>
        <time>2021-02-27T09:03:47Z</time>
      </trkpt>
      <trkpt lat="45.20158" lon="6.0008">
        <ele>2441</ele>
        <time>2021-02-27T09:03:49Z</time>
      </trkpt>
      <trkpt lat="45.20156" lon="6.00084">
        <ele>2441</ele>
        <time>2021-02-27T09:03:50Z</time>
      </trkpt>
      <trkpt lat="45.20155" lon="6.00087">
        <ele>2441</ele>
        <time>2021-02-27T09:03:51Z</time>
      </trkpt>
      <trkpt lat="45.20154" lon="6.00091">
        <ele>2441</ele>
        <time>2021-02-27T09:03:52Z</time>
      </trkpt>
      <trkpt lat="45.20153" lon="6.00094">
        <ele>2437.4</ele>
        <time>2021-02-27T09:03:53Z</time>
      </trkpt>
      <trkpt lat="45.20159" lon="6.00099">
        <ele>2437.4</ele>
        <time>2021-02-27T09:03:54Z</time>
      </trkpt>
      <trkpt lat="45.20165" lon="6.001">
        <ele>2437.4</ele>
        <time>2021-02-27T09:03:55Z</time>
      </trkpt>
      <trkpt lat="45.2017" lon="6.00101">
        <ele>2437.4</ele>
        <time>2021-02-27T09:03:56Z</time>
      </trkpt>
      <trkpt lat="45.20175" lon="6.00102">
        <ele>2437.4</ele>
        <time>2021-02-27T09:03:57Z</time>
      </trkpt>
      <trkpt lat="45.20181" lon="6.00103">
        <ele>2437.4</ele>
        <time>2021-02-27T09:03:58Z</time>
      </trkpt>
      <trkpt lat="45.20186" lon="6.00104">
        <ele>2437.4</ele>
        <time>2021-02-27T09:03:59Z</time>
      </trkpt>
      <trkpt lat="45.20191" lon="6.00105">
        <ele>2437.4</ele>
        <time>2021-02-27T09:04:00Z</time>
      </trkpt>
      <trkpt lat="45.20197" lon="6.00106">
        <ele>2437.4</ele>
        <time>2021-02-27T09:04:01Z</time>
      </trkpt>
      <trkpt lat="45.20202" lon="6.00107">
        <ele>2437.4</ele>
        <time>2021-02-27T09:04:02Z</time>
      </trkpt>
      <trkpt lat="45.20207" lon="6.00108">
        <ele>2425.4</ele>
        <time>2021-02-27T09:04:03Z</time>
      </trkpt>
      <trkpt lat="45.20218" lon="6.00107">
        <ele>2425.4</ele>
        <time>2021-02-27T09:04:04Z</time>
      </trkpt>
      <trkpt lat="45.20223" lon="6.00106">
        <ele>2425.4</ele>
        <time>2021-02-27T09:04:05Z</time>
      </trkpt>
      <trkpt lat="45.20228" lon="6.00106">
        <ele>2425.4</ele>
        <time>2021-02-27T09:04:06Z</time>
      </trkpt>
      <trkpt lat="45.20233" lon="6.00105">
        <ele>2425.4</ele>
        <time>2021-02-27T09:04:07Z</time>
      </trkpt>
      <trkpt lat="45.20239" lon="6.00104">
        <ele>2425.4</ele>
        <time>2021-02-27T09:04:08Z</time>
      </trkpt>
      <trkpt lat="45.20244" lon="6.00103">
        <ele>2425.4</ele>
        <time>2021-02-27T09:04:09Z</time>
      </trkpt>
      <trkpt lat="45.20249" lon="6.00103">
        <ele>2425.4</ele>
        <time>2021-02-27T09:04:10Z</time>
      </trkpt>
      <trkpt lat="45.20254" lon="6.00102">
        <ele>2425.4</ele>
        <time>2021-02-27T09:04:11Z</time>
      </trkpt>
      <trkpt lat="45.2026" lon="6.00101">
        <ele>2425.4</ele>
        <time>2021-02-27T09:04:12Z</time>
      </trkpt>
      <trkpt lat="45.20265" lon="6.00101">
        <ele>2415.8</ele>
        <time>2021-02-27T09:04:13Z</time>
      </trkpt>
      <trkpt lat="45.20278" lon="6.00098">
        <ele>2415.8</ele>
        <time>2021-02-27T09:04:14Z</time>
      </trkpt>
      <trkpt lat="45.20284" lon="6.00095">
        <ele>2415.8</ele>
        <time>2021-02-27T09:04:15Z</time>
      </trkpt>
      <trkpt lat="45.20289" lon="6.00093">
        <ele>2415.8</ele>
        <time>2021-02-27T09:04:16Z</time>
      </trkpt>
      <trkpt lat="45.20295" lon="6.00091">
        <ele>2415.8</ele>
        <time>2021-02-27T09:04:17Z</time>
      </trkpt>
      <trkpt lat="45.20301" lon="6.00089">
        <ele>2415.8</ele>
        <time>2021-02-27T09:04:18Z</time>
      </trkpt>
      <trkpt lat="45.20307" lon="6.00087">
        <ele>2415.8</ele>
        <time>2021-02-27T09:04:19Z</time>
      </trkpt>
      <trkpt lat="45.20313" lon="6.00084">
        <ele>2415.8</ele>
        <time>2021-02-27T09:04:20Z</time>
      </trkpt>
      <trkpt lat="45.20319" lon="6.00082">
        <ele>2415.8</ele>
        <time>2021-02-27T09:04:21Z</time>
      </trkpt>
      <trkpt lat="45.20325" lon="6.0008">
        <ele>2415.8</ele>
        <time>2021-02-27T09:04:22Z</time>
      </trkpt>
      <trkpt lat="45.20331" lon="6.00078">
        <ele>2406.8</ele>
        <time>2021-02-27T09:04:23Z</time>
      </trkpt>
      <trkpt lat="45.20333" lon="6.00078">
        <ele>2406.8</ele>
        <time>2021-02-27T09:04:24Z</time>
      </trkpt>
      <trkpt lat="45.20332" lon="6.0008">
        <ele>2406.8</ele>
        <time>2021-02-27T09:04:25Z</time>
      </trkpt>
      <trkpt lat="45.20331" lon="6.00082">
        <ele>2404.8</ele>
        <time>2021-02-27T09:04:33Z</time>
      </trkpt>
      <trkpt lat="45.2033" lon="6.00084">
        <ele>2404.8</ele>
        <time>2021-02-27T09:04:40Z</time>
      </trkpt>
      <trkpt lat="45.20328" lon="6.00086">
        <ele>2404.8</ele>
        <time>2021-02-27T09:04:41Z</time>
      </trkpt>
      <trkpt lat="45.20327" lon="6.00088">
        <ele>2404.8</ele>
        <time>2021-02-27T09:04:42Z</time>
      </trkpt>
      <trkpt lat="45.20326" lon="6.0009">
        <ele>2402.2</ele>
        <time>2021-02-27T09:04:43Z</time>
      </trkpt>
      <trkpt lat="45.20323" lon="6.00095">
        <ele>2402.2</ele>
        <time>2021-02-27T09:04:44Z</time>
      </trkpt>
      <trkpt lat="45.20325" lon="6.00097">
        <ele>2402.2</ele>
        <time>2021-02-27T09:04:45Z</time>
      </trkpt>
      <trkpt lat="45.20326" lon="6.001">
        <ele>2402.2</ele>
        <time>2021-02-27T09:04:46Z</time>
      </trkpt>
      <trkpt lat="45.20328" lon="6.00102">
        <ele>2402.2</ele>
        <time>2021-02-27T09:04:47Z</time>
      </trkpt>
      <trkpt lat="45.2033" lon="6.00104">
        <ele>2402.2</ele>
        <time>2021-02-27T09:04:48Z</time>
      </trkpt>
      <trkpt lat="45.20331" lon="6.00106">
        <ele>2402.2</ele>
        <time>2021-02-27T09:04:49Z</time>
      </trkpt>
      <trkpt lat="45.20333" lon="6.00108">
        <ele>2402.2</ele>
        <time>2021-02-27T09:04:50Z</time>
      </trkpt>
      <trkpt lat="45.20334" lon="6.0011">
        <ele>2402.2</ele>
        <time>2021-02-27T09:04:51Z</time>
      </trkpt>
      <trkpt lat="45.20336" lon="6.00112">
        <ele>2402.2</ele>
        <time>2021-02-27T09:04:52Z</time>
      </trkpt>
      <trkpt lat="45.20338" lon="6.00115">
        <ele>2394.8</ele>
        <time>2021-02-27T09:04:53Z</time>
      </trkpt>
      <trkpt lat="45.20335" lon="6.00127">
        <ele>2394.8</ele>
        <time>2021-02-27T09:04:54Z</time>
      </trkpt>
      <trkpt lat="45.20335" lon="6.00132">
        <ele>2394.8</ele>
        <time>2021-02-27T09:04:55Z</time>
      </trkpt>
      <trkpt lat="45.20335" lon="6.00137">
        <ele>2394.8</ele>
        <time>2021-02-27T09:04:56Z</time>
      </trkpt>
      <trkpt lat="45.20335" lon="6.00143">
        <ele>2394.8</ele>
        <time>2021-02-27T09:04:57Z</time>
      </trkpt>
      <trkpt lat="45.20335" lon="6.00148">
        <ele>2394.8</ele>
        <time>2021-02-27T09:04:58Z</time>
      </trkpt>
      <trkpt lat="45.20335" lon="6.00153">
        <ele>2394.8</ele>
        <time>2021-02-27T09:04:59Z</time>
      </trkpt>
      <trkpt lat="45.20335" lon="6.00158">
        <ele>2394.8</ele>
        <time>2021-02-27T09:05:00Z</time>
      </trkpt>
      <trkpt lat="45.20335" lon="6.00163">
        <ele>2394.8</ele>
        <time>2021-02-27T09:05:01Z</time>
      </trkpt>
      <trkpt lat="45.20335" lon="6.00168">
        <ele>2394.8</ele>
        <time>2021-02-27T09:05:02Z</time>
      </trkpt>
      <trkpt lat="45.20335" lon="6.00174">
        <ele>2384.2</ele>
        <time>2021-02-27T09:05:03Z</time>
      </trkpt>
      <trkpt lat="45.20345" lon="6.00167">
        <ele>2384.2</ele>
        <time>2021-02-27T09:05:04Z</time>
      </trkpt>
      <trkpt lat="45.2035" lon="6.00164">
        <ele>2384.2</ele>
        <time>2021-02-27T09:05:05Z</time>
      </trkpt>
      <trkpt lat="45.20354" lon="6.00161">
        <ele>2384.2</ele>
        <time>2021-02-27T09:05:06Z</time>
      </trkpt>
      <trkpt lat="45.20359" lon="6.00158">
        <ele>2384.2</ele>
        <time>2021-02-27T09:05:07Z</time>
      </trkpt>
      <trkpt lat="45.20363" lon="6.00155">
        <ele>2384.2</ele>
        <time>2021-02-27T09:05:08Z</time>
      </trkpt>
      <trkpt lat="45.20367" lon="6.00152">
        <ele>2384.2</ele>
        <time>2021-02-27T09:05:09Z</time>
      </trkpt>
      <trkpt lat="45.20372" lon="6.00149">
        <ele>2384.2</ele>
        <time>2021-02-27T09:05:10Z</time>
      </trkpt>
      <trkpt lat="45.20376" lon="6.00146">
        <ele>2384.2</ele>
        <time>2021-02-27T09:05:11Z</time>
      </trkpt>
      <trkpt lat="45.2038" lon="6.00143">
        <ele>2384.2</ele>
        <time>2021-02-27T09:05:12Z</time>
      </trkpt>
      <trkpt lat="45.20385" lon="6.0014">
        <ele>2377.4</ele>
        <time>2021-02-27T09:05:13Z</time>
      </trkpt>
      <trkpt lat="45.20396" lon="6.00137">
        <ele>2377.4</ele>
        <time>2021-02-27T09:05:14Z</time>
      </trkpt>
      <trkpt lat="45.20402" lon="6.00136">
        <ele>2377.4</ele>
        <time>2021-02-27T09:05:15Z</time>
      </trkpt>
      <trkpt lat="45.20408" lon="6.00136">
        <ele>2377.4</ele>
        <time>2021-02-27T09:05:16Z</time>
      </trkpt>
      <trkpt lat="45.20414" lon="6.00135">
        <ele>2377.4</ele>
        <time>2021-02-27T09:05:17Z</time>
      </trkpt>
      <trkpt lat="45.2042" lon="6.00134">
        <ele>2377.4</ele>
        <time>2021-02-27T09:05:18Z</time>
      </trkpt>
      <trkpt lat="45.20426" lon="6.00134">
        <ele>2377.4</ele>
        <time>2021-02-27T09:05:19Z</time>
      </trkpt>
      <trkpt lat="45.20432" lon="6.00133">
        <ele>2377.4</ele>
        <time>2021-02-27T09:05:20Z</time>
      </trkpt>
      <trkpt lat="45.20438" lon="6.00132">
        <ele>2377.4</ele>
        <time>2021-02-27T09:05:21Z</time>
      </trkpt>
      <trkpt lat="45.20444" lon="6.00132">
        <ele>2377.4</ele>
        <time>2021-02-27T09:05:22Z</time>
      </trkpt>
      <trkpt lat="45.2045" lon="6.00131">
        <ele>2368.2</ele>
        <time>2021-02-27T09:05:23Z</time>
      </trkpt>
      <trkpt lat="45.20458" lon="6.00132">
        <ele>2368.2</ele>
        <time>2021-02-27T09:05:24Z</time>
      </trkpt>
      <trkpt lat="45.2046" lon="6.00134">
        <ele>2368.2</ele>
        <time>2021-02-27T09:05:25Z</time>
      </trkpt>
      <trkpt lat="45.20462" lon="6.00135">
        <ele>2368.2</ele>
        <time>2021-02-27T09:05:26Z</time>
      </trkpt>
      <trkpt lat="45.20464" lon="6.00137">
        <ele>2368.2</ele>
        <time>2021-02-27T09:05:27Z</time>
      </trkpt>
      <trkpt lat="45.20466" lon="6.00139">
        <ele>2368.2</ele>
        <time>2021-02-27T09:05:28Z</time>
      </trkpt>
      <trkpt lat="45.20469" lon="6.0014">
        <ele>2368.2</ele>
        <time>2021-02-27T09:05:29Z</time>
      </trkpt>
      <trkpt lat="45.20471" lon="6.00142">
        <ele>2368.2</ele>
        <time>2021-02-27T09:05:30Z</time>
      </trkpt>
      <trkpt lat="45.20473" lon="6.00144">
        <ele>2368.2</ele>
        <time>2021-02-27T09:05:31Z</time>
      </trkpt>
      <trkpt lat="45.20475" lon="6.00145">
        <ele>2368.2</ele>
        <time>2021-02-27T09:05:32Z</time>
      </trkpt>
      <trkpt lat="45.20477" lon="6.00147">
        <ele>2358.8</ele>
        <time>2021-02-27T09:05:33Z</time>
      </trkpt>
      <trkpt lat="45.20481" lon="6.00153">
        <ele>2358.8</ele>
        <time>2021-02-27T09:05:34Z</time>
      </trkpt>
      <trkpt lat="45.20483" lon="6.00155">
        <ele>2358.8</ele>
        <time>2021-02-27T09:05:35Z</time>
      </trkpt>
      <trkpt lat="45.20485" lon="6.00158">
        <ele>2358.8</ele>
        <time>2021-02-27T09:05:36Z</time>
      </trkpt>
      <trkpt lat="45.20487" lon="6.0016">
        <ele>2358.8</ele>
        <time>2021-02-27T09:05:37Z</time>
      </trkpt>
      <trkpt lat="45.2049" lon="6.00163">
        <ele>2358.8</ele>
        <time>2021-02-27T09:05:38Z</time>
      </trkpt>
      <trkpt lat="45.20492" lon="6.00165">
        <ele>2358.8</ele>
        <time>2021-02-27T09:05:39Z</time>
      </trkpt>
      <trkpt lat="45.20494" lon="6.00168">
        <ele>2358.8</ele>
        <time>2021-02-27T09:05:40Z</time>
      </trkpt>
      <trkpt lat="45.20496" lon="6.0017">
        <ele>2358.8</ele>
        <time>2021-02-27T09:05:41Z</time>
      </trkpt>
      <trkpt lat="45.20499" lon="6.00173">
        <ele>2358.8</ele>
        <time>2021-02-27T09:05:42Z</time>
      </trkpt>
      <trkpt lat="45.20501" lon="6.00176">
        <ele>2344.8</ele>
        <time>2021-02-27T09:05:43Z</time>
      </trkpt>
      <trkpt lat="45.2051" lon="6.00184">
        <ele>2344.8</ele>
        <time>2021-02-27T09:05:44Z</time>
      </trkpt>
      <trkpt lat="45.20514" lon="6.00188">
        <ele>2344.8</ele>
        <time>2021-02-27T09:05:45Z</time>
      </trkpt>
      <trkpt lat="45.20517" lon="6.00192">
        <ele>2344.8</ele>
        <time>2021-02-27T09:05:46Z</time>
      </trkpt>
      <trkpt lat="45.20521" lon="6.00196">
        <ele>2344.8</ele>
        <time>2021-02-27T09:05:47Z</time>
      </trkpt>
      <trkpt lat="45.20525" lon="6.002">
        <ele>2344.8</ele>
        <time>2021-02-27T09:05:48Z</time>
      </trkpt>
      <trkpt lat="45.20529" lon="6.00205">
        <ele>2344.8</ele>
        <time>2021-02-27T09:05:49Z</time>
      </trkpt>
      <trkpt lat="45.20532" lon="6.00209">
        <ele>2344.8</ele>
        <time>2021-02-27T09:05:50Z</time>
      </trkpt>
      <trkpt lat="45.20536" lon="6.00213">
        <ele>2344.8</ele>
        <time>2021-02-27T09:05:51Z</time>
      </trkpt>
      <trkpt lat="45.2054" lon="6.00217">
        <ele>2344.8</ele>
        <time>2021-02-27T09:05:52Z</time>
      </trkpt>
      <trkpt lat="45.20544" lon="6.00221">
        <ele>2338.2</ele>
        <time>2021-02-27T09:05:53Z</time>
      </trkpt>
      <trkpt lat="45.20546" lon="6.00225">
        <ele>2338.2</ele>
        <time>2021-02-27T09:05:54Z</time>
      </trkpt>
      <trkpt lat="45.20546" lon="6.00227">
        <ele>2338.2</ele>
        <time>2021-02-27T09:05:55Z</time>
      </trkpt>
      <trkpt lat="45.20546" lon="6.00229">
        <ele>2338.2</ele>
        <time>2021-02-27T09:05:56Z</time>
      </trkpt>
      <trkpt lat="45.20546" lon="6.00231">
        <ele>2338.2</ele>
        <time>2021-02-27T09:05:57Z</time>
      </trkpt>
      <trkpt lat="45.20546" lon="6.00234">
        <ele>2338.2</ele>
        <time>2021-02-27T09:05:58Z</time>
      </trkpt>
      <trkpt lat="45.20546" lon="6.00236">
        <ele>2338.2</ele>
        <time>2021-02-27T09:06:00Z</time>
      </trkpt>
      <trkpt lat="45.20546" lon="6.00238">
        <ele>2338.2</ele>
        <time>2021-02-27T09:06:01Z</time>
      </trkpt>
      <trkpt lat="45.20546" lon="6.0024">
        <ele>2338.2</ele>
        <time>2021-02-27T09:06:02Z</time>
      </trkpt>
      <trkpt lat="45.20546" lon="6.00243">
        <ele>2330.4</ele>
        <time>2021-02-27T09:06:03Z</time>
      </trkpt>
      <trkpt lat="45.20545" lon="6.00248">
        <ele>2330.4</ele>
        <time>2021-02-27T09:06:04Z</time>
      </trkpt>
      <trkpt lat="45.20546" lon="6.00251">
        <ele>2330.4</ele>
        <time>2021-02-27T09:06:06Z</time>
      </trkpt>
      <trkpt lat="45.20546" lon="6.00253">
        <ele>2330.4</ele>
        <time>2021-02-27T09:06:07Z</time>
      </trkpt>
      <trkpt lat="45.20547" lon="6.00256">
        <ele>2330.4</ele>
        <time>2021-02-27T09:06:08Z</time>
      </trkpt>
      <trkpt lat="45.20548" lon="6.00259">
        <ele>2330.4</ele>
        <time>2021-02-27T09:06:09Z</time>
      </trkpt>
      <trkpt lat="45.20549" lon="6.00262">
        <ele>2330.4</ele>
        <time>2021-02-27T09:06:10Z</time>
      </trkpt>
      <trkpt lat="45.20549" lon="6.00264">
        <ele>2330.4</ele>
        <time>2021-02-27T09:06:11Z</time>
      </trkpt>
      <trkpt lat="45.2055" lon="6.00267">
        <ele>2330.4</ele>
        <time>2021-02-27T09:06:12Z</time>
      </trkpt>
      <trkpt lat="45.20551" lon="6.0027">
        <ele>2317.8</ele>
        <time>2021-02-27T09:06:13Z</time>
      </trkpt>
      <trkpt lat="45.20554" lon="6.0028">
        <ele>2317.8</ele>
        <time>2021-02-27T09:06:14Z</time>
      </trkpt>
      <trkpt lat="45.20555" lon="6.00287">
        <ele>2317.8</ele>
        <time>2021-02-27T09:06:15Z</time>
      </trkpt>
      <trkpt lat="45.20557" lon="6.00294">
        <ele>2317.8</ele>
        <time>2021-02-27T09:06:16Z</time>
      </trkpt>
      <trkpt lat="45.20559" lon="6.00301">
        <ele>2317.8</ele>
        <time>2021-02-27T09:06:17Z</time>
      </trkpt>
      <trkpt lat="45.20561" lon="6.00308">
        <ele>2317.8</ele>
        <time>2021-02-27T09:06:18Z</time>
      </trkpt>
      <trkpt lat="45.20563" lon="6.00316">
        <ele>2317.8</ele>
        <time>2021-02-27T09:06:19Z</time>
      </trkpt>
      <trkpt lat="45.20565" lon="6.00323">
        <ele>2317.8</ele>
        <time>2021-02-27T09:06:20Z</time>
      </trkpt>
      <trkpt lat="45.20567" lon="6.0033">
        <ele>2317.8</ele>
        <time>2021-02-27T09:06:21Z</time>
      </trkpt>
      <trkpt lat="45.20568" lon="6.00337">
        <ele>2317.8</ele>
        <time>2021-02-27T09:06:22Z</time>
      </trkpt>
      <trkpt lat="45.2057" lon="6.00344">
        <ele>2300.4</ele>
        <time>2021-02-27T09:06:23Z</time>
      </trkpt>
      <trkpt lat="45.20572" lon="6.0036">
        <ele>2300.4</ele>
        <time>2021-02-27T09:06:24Z</time>
      </trkpt>
      <trkpt lat="45.20573" lon="6.00368">
        <ele>2300.4</ele>
        <time>2021-02-27T09:06:25Z</time>
      </trkpt>
      <trkpt lat="45.20573" lon="6.00376">
        <ele>2300.4</ele>
        <time>2021-02-27T09:06:26Z</time>
      </trkpt>
      <trkpt lat="45.20574" lon="6.00384">
        <ele>2300.4</ele>
        <time>2021-02-27T09:06:27Z</time>
      </trkpt>
      <trkpt lat="45.20575" lon="6.00392">
        <ele>2300.4</ele>
        <time>2021-02-27T09:06:28Z</time>
      </trkpt>
      <trkpt lat="45.20575" lon="6.004">
        <ele>2300.4</ele>
        <time>2021-02-27T09:06:29Z</time>
      </trkpt>
      <trkpt lat="45.20576" lon="6.00408">
        <ele>2300.4</ele>
        <time>2021-02-27T09:06:30Z</time>
      </trkpt>
      <trkpt lat="45.20577" lon="6.00416">
        <ele>2300.4</ele>
        <time>2021-02-27T09:06:31Z</time>
      </trkpt>
      <trkpt lat="45.20577" lon="6.00424">
        <ele>2300.4</ele>
        <time>2021-02-27T09:06:32Z</time>
      </trkpt>
      <trkpt lat="45.20578" lon="6.00432">
        <ele>2296.6</ele>
        <time>2021-02-27T09:06:33Z</time>
      </trkpt>
      <trkpt lat="45.20576" lon="6.00451">
        <ele>2296.6</ele>
        <time>2021-02-27T09:06:34Z</time>
      </trkpt>
      <trkpt lat="45.20574" lon="6.0046">
        <ele>2296.6</ele>
        <time>2021-02-27T09:06:35Z</time>
      </trkpt>
      <trkpt lat="45.20572" lon="6.00468">
        <ele>2296.6</ele>
        <time>2021-02-27T09:06:36Z</time>
      </trkpt>
      <trkpt lat="45.2057" lon="6.00476">
        <ele>2296.6</ele>
        <time>2021-02-27T09:06:37Z</time>
      </trkpt>
      <trkpt lat="45.20568" lon="6.00484">
        <ele>2296.6</ele>
        <time>2021-02-27T09:06:38Z</time>
      </trkpt>
      <trkpt lat="45.20566" lon="6.00492">
        <ele>2296.6</ele>
        <time>2021-02-27T09:06:39Z</time>
      </trkpt>
      <trkpt lat="45.20564" lon="6.005">
        <ele>2296.6</ele>
        <time>2021-02-27T09:06:40Z</time>
      </trkpt>
      <trkpt lat="45.20562" lon="6.00509">
        <ele>2296.6</ele>
        <time>2021-02-27T09:06:41Z</time>
      </trkpt>
      <trkpt lat="45.2056" lon="6.00517">
        <ele>2296.6</ele>
        <time>2021-02-27T09:06:42Z</time>
      </trkpt>
      <trkpt lat="45.20558" lon="6.00525">
        <ele>2292.2</ele>
        <time>2021-02-27T09:06:43Z</time>
      </trkpt>
      <trkpt lat="45.20551" lon="6.0054">
        <ele>2292.2</ele>
        <time>2021-02-27T09:06:44Z</time>
      </trkpt>
      <trkpt lat="45.20547" lon="6.00546">
        <ele>2292.2</ele>
        <time>2021-02-27T09:06:45Z</time>
      </trkpt>
      <trkpt lat="45.20543" lon="6.00552">
        <ele>2292.2</ele>
        <time>2021-02-27T09:06:46Z</time>
      </trkpt>
      <trkpt lat="45.2054" lon="6.00559">
        <ele>2292.2</ele>
        <time>2021-02-27T09:06:47Z</time>
      </trkpt>
      <trkpt lat="45.20536" lon="6.00565">
        <ele>2292.2</ele>
        <time>2021-02-27T09:06:48Z</time>
      </trkpt>
      <trkpt lat="45.20532" lon="6.00571">
        <ele>2292.2</ele>
        <time>2021-02-27T09:06:49Z</time>
      </trkpt>
      <trkpt lat="45.20529" lon="6.00578">
        <ele>2292.2</ele>
        <time>2021-02-27T09:06:50Z</time>
      </trkpt>
      <trkpt lat="45.20525" lon="6.00584">
        <ele>2292.2</ele>
        <time>2021-02-27T09:06:51Z</time>
      </trkpt>
      <trkpt lat="45.20521" lon="6.0059">
        <ele>2292.2</ele>
        <time>2021-02-27T09:06:52Z</time>
      </trkpt>
      <trkpt lat="45.20518" lon="6.00597">
        <ele>2284.8</ele>
        <time>2021-02-27T09:06:53Z</time>
      </trkpt>
      <trkpt lat="45.20511" lon="6.00607">
        <ele>2284.8</ele>
        <time>2021-02-27T09:06:54Z</time>
      </trkpt>
      <trkpt lat="45.20508" lon="6.00612">
        <ele>2284.8</ele>
        <time>2021-02-27T09:06:55Z</time>
      </trkpt>
      <trkpt lat="45.20506" lon="6.00617">
        <ele>2284.8</ele>
        <time>2021-02-27T09:06:56Z</time>
      </trkpt>
      <trkpt lat="45.20504" lon="6.00622">
        <ele>2284.8</ele>
        <time>2021-02-27T09:06:57Z</time>
      </trkpt>
      <trkpt lat="45.20501" lon="6.00627">
        <ele>2284.8</ele>
        <time>2021-02-27T09:06:58Z</time>
      </trkpt>
      <trkpt lat="45.20499" lon="6.00632">
        <ele>2284.8</ele>
        <time>2021-02-27T09:06:59Z</time>
      </trkpt>
      <trkpt lat="45.20496" lon="6.00637">
        <ele>2284.8</ele>
        <time>2021-02-27T09:07:00Z</time>
      </trkpt>
      <trkpt lat="45.20494" lon="6.00642">
        <ele>2284.8</ele>
        <time>2021-02-27T09:07:01Z</time>
      </trkpt>
      <trkpt lat="45.20491" lon="6.00647">
        <ele>2284.8</ele>
        <time>2021-02-27T09:07:02Z</time>
      </trkpt>
      <trkpt lat="45.20489" lon="6.00652">
        <ele>2283.2</ele>
        <time>2021-02-27T09:07:03Z</time>
      </trkpt>
      <trkpt lat="45.20487" lon="6.00667">
        <ele>2283.2</ele>
        <time>2021-02-27T09:07:04Z</time>
      </trkpt>
      <trkpt lat="45.20485" lon="6.00673">
        <ele>2283.2</ele>
        <time>2021-02-27T09:07:05Z</time>
      </trkpt>
      <trkpt lat="45.20484" lon="6.00679">
        <ele>2283.2</ele>
        <time>2021-02-27T09:07:06Z</time>
      </trkpt>
      <trkpt lat="45.20483" lon="6.00685">
        <ele>2283.2</ele>
        <time>2021-02-27T09:07:07Z</time>
      </trkpt>
      <trkpt lat="45.20481" lon="6.00691">
        <ele>2283.2</ele>
        <time>2021-02-27T09:07:08Z</time>
      </trkpt>
      <trkpt lat="45.2048" lon="6.00697">
        <ele>2283.2</ele>
        <time>2021-02-27T09:07:09Z</time>
      </trkpt>
      <trkpt lat="45.20479" lon="6.00703">
        <ele>2283.2</ele>
        <time>2021-02-27T09:07:10Z</time>
      </trkpt>
      <trkpt lat="45.20477" lon="6.00709">
        <ele>2283.2</ele>
        <time>2021-02-27T09:07:11Z</time>
      </trkpt>
      <trkpt lat="45.20476" lon="6.00715">
        <ele>2283.2</ele>
        <time>2021-02-27T09:07:12Z</time>
      </trkpt>
      <trkpt lat="45.20475" lon="6.00721">
        <ele>2271.2</ele>
        <time>2021-02-27T09:07:13Z</time>
      </trkpt>
      <trkpt lat="45.20468" lon="6.00732">
        <ele>2271.2</ele>
        <time>2021-02-27T09:07:14Z</time>
      </trkpt>
      <trkpt lat="45.20466" lon="6.00738">
        <ele>2271.2</ele>
        <time>2021-02-27T09:07:15Z</time>
      </trkpt>
      <trkpt lat="45.20464" lon="6.00743">
        <ele>2271.2</ele>
        <time>2021-02-27T09:07:16Z</time>
      </trkpt>
      <trkpt lat="45.20461" lon="6.00749">
        <ele>2271.2</ele>
        <time>2021-02-27T09:07:17Z</time>
      </trkpt>
      <trkpt lat="45.20459" lon="6.00755">
        <ele>2271.2</ele>
        <time>2021-02-27T09:07:18Z</time>
      </trkpt>
      <trkpt lat="45.20457" lon="6.0076">
        <ele>2271.2</ele>
        <time>2021-02-27T09:07:19Z</time>
      </trkpt>
      <trkpt lat="45.20454" lon="6.00766">
        <ele>2271.2</ele>
        <time>2021-02-27T09:07:20Z</time>
      </trkpt>
      <trkpt lat="45.20452" lon="6.00772">
        <ele>2271.2</ele>
        <time>2021-02-27T09:07:21Z</time>
      </trkpt>
      <trkpt lat="45.2045" lon="6.00778">
        <ele>2271.2</ele>
        <time>2021-02-27T09:07:22Z</time>
      </trkpt>
      <trkpt lat="45.20447" lon="6.00783">
        <ele>2243.4</ele>
        <time>2021-02-27T09:07:23Z</time>
      </trkpt>
      <trkpt lat="45.20442" lon="6.00789">
        <ele>2243.4</ele>
        <time>2021-02-27T09:07:24Z</time>
      </trkpt>
      <trkpt lat="45.20441" lon="6.00792">
        <ele>2243.4</ele>
        <time>2021-02-27T09:07:25Z</time>
      </trkpt>
      <trkpt lat="45.20439" lon="6.00796">
        <ele>2243.4</ele>
        <time>2021-02-27T09:07:26Z</time>
      </trkpt>
      <trkpt lat="45.20438" lon="6.008">
        <ele>2243.4</ele>
        <time>2021-02-27T09:07:27Z</time>
      </trkpt>
      <trkpt lat="45.20437" lon="6.00803">
        <ele>2243.4</ele>
        <time>2021-02-27T09:07:28Z</time>
      </trkpt>
      <trkpt lat="45.20436" lon="6.00807">
        <ele>2243.4</ele>
        <time>2021-02-27T09:07:29Z</time>
      </trkpt>
      <trkpt lat="45.20435" lon="6.00811">
        <ele>2243.4</ele>
        <time>2021-02-27T09:07:30Z</time>
      </trkpt>
      <trkpt lat="45.20434" lon="6.00815">
        <ele>2243.4</ele>
        <time>2021-02-27T09:07:31Z</time>
      </trkpt>
      <trkpt lat="45.20432" lon="6.00818">
        <ele>2219.6</ele>
        <time>2021-02-27T09:07:33Z</time>
      </trkpt>
      <trkpt lat="45.20434" lon="6.00819">
        <ele>2219.6</ele>
        <time>2021-02-27T09:07:38Z</time>
      </trkpt>
      <trkpt lat="45.20434" lon="6.00822">
        <ele>2219.6</ele>
        <time>2021-02-27T09:07:41Z</time>
      </trkpt>
      <trkpt lat="45.20434" lon="6.00824">
        <ele>2219.6</ele>
        <time>2021-02-27T09:07:42Z</time>
      </trkpt>
      <trkpt lat="45.20434" lon="6.00827">
        <ele>2215.2</ele>
        <time>2021-02-27T09:07:43Z</time>
      </trkpt>
      <trkpt lat="45.20435" lon="6.00837">
        <ele>2215.2</ele>
        <time>2021-02-27T09:07:44Z</time>
      </trkpt>
      <trkpt lat="45.20435" lon="6.00843">
        <ele>2215.2</ele>
        <time>2021-02-27T09:07:45Z</time>
      </trkpt>
      <trkpt lat="45.20435" lon="6.00849">
        <ele>2215.2</ele>
        <time>2021-02-27T09:07:46Z</time>
      </trkpt>
      <trkpt lat="45.20435" lon="6.00854">
        <ele>2215.2</ele>
        <time>2021-02-27T09:07:47Z</time>
      </trkpt>
      <trkpt lat="45.20435" lon="6.0086">
        <ele>2215.2</ele>
        <time>2021-02-27T09:07:48Z</time>
      </trkpt>
      <trkpt lat="45.20434" lon="6.00866">
        <ele>2215.2</ele>
        <time>2021-02-27T09:07:49Z</time>
      </trkpt>
      <trkpt lat="45.20434" lon="6.00872">
        <ele>2215.2</ele>
        <time>2021-02-27T09:07:50Z</time>
      </trkpt>
      <trkpt lat="45.20434" lon="6.00877">
        <ele>2215.2</ele>
        <time>2021-02-27T09:07:51Z</time>
      </trkpt>
      <trkpt lat="45.20434" lon="6.00883">
        <ele>2215.2</ele>
        <time>2021-02-27T09:07:52Z</time>
      </trkpt>
      <trkpt lat="45.20434" lon="6.00889">
        <ele>2201.4</ele>
        <time>2021-02-27T09:07:53Z</time>
      </trkpt>
      <trkpt lat="45.20439" lon="6.00905">
        <ele>2201.4</ele>
        <time>2021-02-27T09:07:54Z</time>
      </trkpt>
      <trkpt lat="45.20442" lon="6.00912">
        <ele>2201.4</ele>
        <time>2021-02-27T09:07:55Z</time>
      </trkpt>
      <trkpt lat="45.20444" lon="6.00918">
        <ele>2201.4</ele>
        <time>2021-02-27T09:07:56Z</time>
      </trkpt>
      <trkpt lat="45.20447" lon="6.00925">
        <ele>2201.4</ele>
        <time>2021-02-27T09:07:57Z</time>
      </trkpt>
      <trkpt lat="45.20449" lon="6.00932">
        <ele>2201.4</ele>
        <time>2021-02-27T09:07:58Z</time>
      </trkpt>
      <trkpt lat="45.20451" lon="6.00938">
        <ele>2201.4</ele>
        <time>2021-02-27T09:07:59Z</time>
      </trkpt>
      <trkpt lat="45.20454" lon="6.00945">
        <ele>2201.4</ele>
        <time>2021-02-27T09:08:00Z</time>
      </trkpt>
      <trkpt lat="45.20456" lon="6.00952">
        <ele>2201.4</ele>
        <time>2021-02-27T09:08:01Z</time>
      </trkpt>
      <trkpt lat="45.20459" lon="6.00958">
        <ele>2201.4</ele>
        <time>2021-02-27T09:08:02Z</time>
      </trkpt>
      <trkpt lat="45.20461" lon="6.00965">
        <ele>2191.6</ele>
        <time>2021-02-27T09:08:03Z</time>
      </trkpt>
      <trkpt lat="45.20465" lon="6.00979">
        <ele>2191.6</ele>
        <time>2021-02-27T09:08:04Z</time>
      </trkpt>
      <trkpt lat="45.20467" lon="6.00987">
        <ele>2191.6</ele>
        <time>2021-02-27T09:08:05Z</time>
      </trkpt>
      <trkpt lat="45.20468" lon="6.00995">
        <ele>2191.6</ele>
        <time>2021-02-27T09:08:06Z</time>
      </trkpt>
      <trkpt lat="45.2047" lon="6.01002">
        <ele>2191.6</ele>
        <time>2021-02-27T09:08:07Z</time>
      </trkpt>
      <trkpt lat="45.20471" lon="6.0101">
        <ele>2191.6</ele>
        <time>2021-02-27T09:08:08Z</time>
      </trkpt>
      <trkpt lat="45.20473" lon="6.01018">
        <ele>2191.6</ele>
        <time>2021-02-27T09:08:09Z</time>
      </trkpt>
      <trkpt lat="45.20474" lon="6.01025">
        <ele>2191.6</ele>
        <time>2021-02-27T09:08:10Z</time>
      </trkpt>
      <trkpt lat="45.20476" lon="6.01033">
        <ele>2191.6</ele>
        <time>2021-02-27T09:08:11Z</time>
      </trkpt>
      <trkpt lat="45.20477" lon="6.01041">
        <ele>2191.6</ele>
        <time>2021-02-27T09:08:12Z</time>
      </trkpt>
      <trkpt lat="45.20479" lon="6.01049">
        <ele>2181.2</ele>
        <time>2021-02-27T09:08:13Z</time>
      </trkpt>
      <trkpt lat="45.20477" lon="6.01071">
        <ele>2181.2</ele>
        <time>2021-02-27T09:08:14Z</time>
      </trkpt>
      <trkpt lat="45.20476" lon="6.0108">
        <ele>2181.2</ele>
        <time>2021-02-27T09:08:15Z</time>
      </trkpt>
      <trkpt lat="45.20475" lon="6.01088">
        <ele>2181.2</ele>
        <time>2021-02-27T09:08:16Z</time>
      </trkpt>
      <trkpt lat="45.20474" lon="6.01096">
        <ele>2181.2</ele>
        <time>2021-02-27T09:08:17Z</time>
      </trkpt>
      <trkpt lat="45.20473" lon="6.01105">
        <ele>2181.2</ele>
        <time>2021-02-27T09:08:18Z</time>
      </trkpt>
      <trkpt lat="45.20472" lon="6.01113">
        <ele>2181.2</ele>
        <time>2021-02-27T09:08:19Z</time>
      </trkpt>
      <trkpt lat="45.20471" lon="6.01122">
        <ele>2181.2</ele>
        <time>2021-02-27T09:08:20Z</time>
      </trkpt>
      <trkpt lat="45.2047" lon="6.0113">
        <ele>2181.2</ele>
        <time>2021-02-27T09:08:21Z</time>
      </trkpt>
      <trkpt lat="45.20469" lon="6.01139">
        <ele>2181.2</ele>
        <time>2021-02-27T09:08:22Z</time>
      </trkpt>
      <trkpt lat="45.20468" lon="6.01147">
        <ele>2168.6</ele>
        <time>2021-02-27T09:08:23Z</time>
      </trkpt>
      <trkpt lat="45.20471" lon="6.01158">
        <ele>2168.6</ele>
        <time>2021-02-27T09:08:24Z</time>
      </trkpt>
      <trkpt lat="45.20472" lon="6.01162">
        <ele>2168.6</ele>
        <time>2021-02-27T09:08:25Z</time>
      </trkpt>
      <trkpt lat="45.20474" lon="6.01165">
        <ele>2168.6</ele>
        <time>2021-02-27T09:08:26Z</time>
      </trkpt>
      <trkpt lat="45.20475" lon="6.01168">
        <ele>2168.6</ele>
        <time>2021-02-27T09:08:27Z</time>
      </trkpt>
      <trkpt lat="45.20477" lon="6.01172">
        <ele>2168.6</ele>
        <time>2021-02-27T09:08:28Z</time>
      </trkpt>
      <trkpt lat="45.20479" lon="6.01175">
        <ele>2168.6</ele>
        <time>2021-02-27T09:08:29Z</time>
      </trkpt>
      <trkpt lat="45.2048" lon="6.01179">
        <ele>2168.6</ele>
        <time>2021-02-27T09:08:30Z</time>
      </trkpt>
      <trkpt lat="45.20482" lon="6.01182">
        <ele>2168.6</ele>
        <time>2021-02-27T09:08:31Z</time>
      </trkpt>
      <trkpt lat="45.20483" lon="6.01186">
        <ele>2168.6</ele>
        <time>2021-02-27T09:08:32Z</time>
      </trkpt>
      <trkpt lat="45.20485" lon="6.01189">
        <ele>2160.4</ele>
        <time>2021-02-27T09:08:33Z</time>
      </trkpt>
      <trkpt lat="45.20484" lon="6.01197">
        <ele>2160.4</ele>
        <time>2021-02-27T09:08:34Z</time>
      </trkpt>
      <trkpt lat="45.20486" lon="6.01202">
        <ele>2160.4</ele>
        <time>2021-02-27T09:08:35Z</time>
      </trkpt>
      <trkpt lat="45.20489" lon="6.01207">
        <ele>2160.4</ele>
        <time>2021-02-27T09:08:36Z</time>
      </trkpt>
      <trkpt lat="45.20491" lon="6.01213">
        <ele>2160.4</ele>
        <time>2021-02-27T09:08:37Z</time>
      </trkpt>
      <trkpt lat="45.20494" lon="6.01218">
        <ele>2160.4</ele>
        <time>2021-02-27T09:08:38Z</time>
      </trkpt>
      <trkpt lat="45.20496" lon="6.01223">
        <ele>2160.4</ele>
        <time>2021-02-27T09:08:39Z</time>
      </trkpt>
      <trkpt lat="45.20498" lon="6.01228">
        <ele>2160.4</ele>
        <time>2021-02-27T09:08:40Z</time>
      </trkpt>
      <trkpt lat="45.20501" lon="6.01233">
        <ele>2160.4</ele>
        <time>2021-02-27T09:08:41Z</time>
      </trkpt>
      <trkpt lat="45.20503" lon="6.01239">
        <ele>2160.4</ele>
        <time>2021-02-27T09:08:42Z</time>
      </trkpt>
      <trkpt lat="45.20506" lon="6.01244">
        <ele>2146</ele>
        <time>2021-02-27T09:08:43Z</time>
      </trkpt>
      <trkpt lat="45.2051" lon="6.01255">
        <ele>2146</ele>
        <time>2021-02-27T09:08:44Z</time>
      </trkpt>
      <trkpt lat="45.20512" lon="6.01259">
        <ele>2146</ele>
        <time>2021-02-27T09:08:45Z</time>
      </trkpt>
      <trkpt lat="45.20513" lon="6.01263">
        <ele>2146</ele>
        <time>2021-02-27T09:08:46Z</time>
      </trkpt>
      <trkpt lat="45.20514" lon="6.01267">
        <ele>2146</ele>
        <time>2021-02-27T09:08:47Z</time>
      </trkpt>
      <trkpt lat="45.20516" lon="6.01271">
        <ele>2146</ele>
        <time>2021-02-27T09:08:48Z</time>
      </trkpt>
      <trkpt lat="45.20517" lon="6.01276">
        <ele>2146</ele>
        <time>2021-02-27T09:08:49Z</time>
      </trkpt>
      <trkpt lat="45.20518" lon="6.0128">
        <ele>2146</ele>
        <time>2021-02-27T09:08:50Z</time>
      </trkpt>
      <trkpt lat="45.20519" lon="6.01284">
        <ele>2146</ele>
        <time>2021-02-27T09:08:51Z</time>
      </trkpt>
      <trkpt lat="45.20521" lon="6.01288">
        <ele>2146</ele>
        <time>2021-02-27T09:08:52Z</time>
      </trkpt>
      <trkpt lat="45.20522" lon="6.01292">
        <ele>2141.4</ele>
        <time>2021-02-27T09:08:53Z</time>
      </trkpt>
      <trkpt lat="45.20523" lon="6.01295">
        <ele>2141.4</ele>
        <time>2021-02-27T09:08:54Z</time>
      </trkpt>
      <trkpt lat="45.20524" lon="6.01299">
        <ele>2141.4</ele>
        <time>2021-02-27T09:08:55Z</time>
      </trkpt>
      <trkpt lat="45.20525" lon="6.01304">
        <ele>2141.4</ele>
        <time>2021-02-27T09:08:56Z</time>
      </trkpt>
      <trkpt lat="45.20526" lon="6.01308">
        <ele>2141.4</ele>
        <time>2021-02-27T09:08:57Z</time>
      </trkpt>
      <trkpt lat="45.20527" lon="6.01311">
        <ele>2141.4</ele>
        <time>2021-02-27T09:08:58Z</time>
      </trkpt>
      <trkpt lat="45.20527" lon="6.01311">
        <ele>2139.4</ele>
        <time>2021-02-27T09:09:03Z</time>
      </trkpt>
      <trkpt lat="45.20526" lon="6.01315">
        <ele>2138.8</ele>
        <time>2021-02-27T09:09:13Z</time>
      </trkpt>
      <trkpt lat="45.20526" lon="6.01317">
        <ele>2138.8</ele>
        <time>2021-02-27T09:09:15Z</time>
      </trkpt>
      <trkpt lat="45.20526" lon="6.01318">
        <ele>2138.8</ele>
        <time>2021-02-27T09:09:17Z</time>
      </trkpt>
      <trkpt lat="45.20526" lon="6.0132">
        <ele>2138.8</ele>
        <time>2021-02-27T09:09:22Z</time>
      </trkpt>
      <trkpt lat="45.20526" lon="6.01322">
        <ele>2135.8</ele>
        <time>2021-02-27T09:09:23Z</time>
      </trkpt>
      <trkpt lat="45.20531" lon="6.01321">
        <ele>2135.8</ele>
        <time>2021-02-27T09:09:24Z</time>
      </trkpt>
      <trkpt lat="45.20532" lon="6.01322">
        <ele>2135.8</ele>
        <time>2021-02-27T09:09:26Z</time>
      </trkpt>
      <trkpt lat="45.20533" lon="6.01322">
        <ele>2135.8</ele>
        <time>2021-02-27T09:09:30Z</time>
      </trkpt>
      <trkpt lat="45.20535" lon="6.01323">
        <ele>2135.8</ele>
        <time>2021-02-27T09:09:32Z</time>
      </trkpt>
      <trkpt lat="45.20536" lon="6.01324">
        <ele>2128.2</ele>
        <time>2021-02-27T09:09:33Z</time>
      </trkpt>
      <trkpt lat="45.20539" lon="6.01324">
        <ele>2128.2</ele>
        <time>2021-02-27T09:09:36Z</time>
      </trkpt>
      <trkpt lat="45.2054" lon="6.01325">
        <ele>2128.2</ele>
        <time>2021-02-27T09:09:37Z</time>
      </trkpt>
      <trkpt lat="45.20541" lon="6.01326">
        <ele>2128.2</ele>
        <time>2021-02-27T09:09:38Z</time>
      </trkpt>
      <trkpt lat="45.20542" lon="6.01326">
        <ele>2125</ele>
        <time>2021-02-27T09:09:43Z</time>
      </trkpt>
      <trkpt lat="45.20543" lon="6.01327">
        <ele>2125</ele>
        <time>2021-02-27T09:09:45Z</time>
      </trkpt>
      <trkpt lat="45.20544" lon="6.01328">
        <ele>2125</ele>
        <time>2021-02-27T09:09:47Z</time>
      </trkpt>
      <trkpt lat="45.20545" lon="6.01328">
        <ele>2125</ele>
        <time>2021-02-27T09:09:49Z</time>
      </trkpt>
      <trkpt lat="45.20546" lon="6.01329">
        <ele>2125</ele>
        <time>2021-02-27T09:09:52Z</time>
      </trkpt>
      <trkpt lat="45.20547" lon="6.0133">
        <ele>2119.6</ele>
        <time>2021-02-27T09:09:53Z</time>
      </trkpt>
      <trkpt lat="45.20546" lon="6.01334">
        <ele>2119.6</ele>
        <time>2021-02-27T09:09:54Z</time>
      </trkpt>
      <trkpt lat="45.20546" lon="6.01335">
        <ele>2119.6</ele>
        <time>2021-02-27T09:09:55Z</time>
      </trkpt>
      <trkpt lat="45.20547" lon="6.01336">
        <ele>2119.6</ele>
        <time>2021-02-27T09:09:56Z</time>
      </trkpt>
      <trkpt lat="45.20547" lon="6.01338">
        <ele>2119.6</ele>
        <time>2021-02-27T09:09:58Z</time>
      </trkpt>
      <trkpt lat="45.20547" lon="6.01339">
        <ele>2119.6</ele>
        <time>2021-02-27T09:10:01Z</time>
      </trkpt>
      <trkpt lat="45.20547" lon="6.0134">
        <ele>2119.6</ele>
        <time>2021-02-27T09:10:02Z</time>
      </trkpt>
      <trkpt lat="45.20547" lon="6.01341">
        <ele>2114</ele>
        <time>2021-02-27T09:10:03Z</time>
      </trkpt>
      <trkpt lat="45.20552" lon="6.01343">
        <ele>2114</ele>
        <time>2021-02-27T09:10:05Z</time>
      </trkpt>
      <trkpt lat="45.20554" lon="6.01344">
        <ele>2113</ele>
        <time>2021-02-27T09:10:13Z</time>
      </trkpt>
      <trkpt lat="45.20556" lon="6.01345">
        <ele>2112.8</ele>
        <time>2021-02-27T09:10:23Z</time>
      </trkpt>
      <trkpt lat="45.20559" lon="6.01347">
        <ele>2112.8</ele>
        <time>2021-02-27T09:10:33Z</time>
      </trkpt>
      <trkpt lat="45.20561" lon="6.01348">
        <ele>2112.2</ele>
        <time>2021-02-27T09:10:43Z</time>
      </trkpt>
      <trkpt lat="45.20563" lon="6.01349">
        <ele>2112.2</ele>
        <time>2021-02-27T09:10:48Z</time>
      </trkpt>
      <trkpt lat="45.20565" lon="6.0135">
        <ele>2112.2</ele>
        <time>2021-02-27T09:10:49Z</time>
      </trkpt>
      <trkpt lat="45.20567" lon="6.01351">
        <ele>2112.2</ele>
        <time>2021-02-27T09:10:50Z</time>
      </trkpt>
      <trkpt lat="45.20569" lon="6.01353">
        <ele>2112.2</ele>
        <time>2021-02-27T09:10:51Z</time>
      </trkpt>
      <trkpt lat="45.20571" lon="6.01354">
        <ele>2112.2</ele>
        <time>2021-02-27T09:10:52Z</time>
      </trkpt>
      <trkpt lat="45.20574" lon="6.01355">
        <ele>2106.4</ele>
        <time>2021-02-27T09:10:53Z</time>
      </trkpt>
      <trkpt lat="45.20584" lon="6.01362">
        <ele>2106.4</ele>
        <time>2021-02-27T09:10:54Z</time>
      </trkpt>
      <trkpt lat="45.20589" lon="6.01365">
        <ele>2106.4</ele>
        <time>2021-02-27T09:10:55Z</time>
      </trkpt>
      <trkpt lat="45.20594" lon="6.01368">
        <ele>2106.4</ele>
        <time>2021-02-27T09:10:56Z</time>
      </trkpt>
      <trkpt lat="45.20599" lon="6.01372">
        <ele>2106.4</ele>
        <time>2021-02-27T09:10:57Z</time>
      </trkpt>
      <trkpt lat="45.20603" lon="6.01375">
        <ele>2106.4</ele>
        <time>2021-02-27T09:10:58Z</time>
      </trkpt>
      <trkpt lat="45.20608" lon="6.01379">
        <ele>2106.4</ele>
        <time>2021-02-27T09:10:59Z</time>
      </trkpt>
      <trkpt lat="45.20613" lon="6.01382">
        <ele>2106.4</ele>
        <time>2021-02-27T09:11:00Z</time>
      </trkpt>
      <trkpt lat="45.20618" lon="6.01386">
        <ele>2106.4</ele>
        <time>2021-02-27T09:11:01Z</time>
      </trkpt>
      <trkpt lat="45.20622" lon="6.01389">
        <ele>2106.4</ele>
        <time>2021-02-27T09:11:02Z</time>
      </trkpt>
      <trkpt lat="45.20627" lon="6.01393">
        <ele>2096.6</ele>
        <time>2021-02-27T09:11:03Z</time>
      </trkpt>
      <trkpt lat="45.20635" lon="6.01402">
        <ele>2096.6</ele>
        <time>2021-02-27T09:11:04Z</time>
      </trkpt>
      <trkpt lat="45.20639" lon="6.01406">
        <ele>2096.6</ele>
        <time>2021-02-27T09:11:05Z</time>
      </trkpt>
      <trkpt lat="45.20643" lon="6.01411">
        <ele>2096.6</ele>
        <time>2021-02-27T09:11:06Z</time>
      </trkpt>
      <trkpt lat="45.20648" lon="6.01415">
        <ele>2096.6</ele>
        <time>2021-02-27T09:11:07Z</time>
      </trkpt>
      <trkpt lat="45.20652" lon="6.01419">
        <ele>2096.6</ele>
        <time>2021-02-27T09:11:08Z</time>
      </trkpt>
      <trkpt lat="45.20656" lon="6.01423">
        <ele>2096.6</ele>
        <time>2021-02-27T09:11:09Z</time>
      </trkpt>
      <trkpt lat="45.2066" lon="6.01427">
        <ele>2096.6</ele>
        <time>2021-02-27T09:11:10Z</time>
      </trkpt>
      <trkpt lat="45.20664" lon="6.01432">
        <ele>2096.6</ele>
        <time>2021-02-27T09:11:11Z</time>
      </trkpt>
      <trkpt lat="45.20669" lon="6.01436">
        <ele>2096.6</ele>
        <time>2021-02-27T09:11:12Z</time>
      </trkpt>
      <trkpt lat="45.20673" lon="6.0144">
        <ele>2090.6</ele>
        <time>2021-02-27T09:11:13Z</time>
      </trkpt>
      <trkpt lat="45.20681" lon="6.01447">
        <ele>2090.6</ele>
        <time>2021-02-27T09:11:14Z</time>
      </trkpt>
      <trkpt lat="45.20685" lon="6.01449">
        <ele>2090.6</ele>
        <time>2021-02-27T09:11:15Z</time>
      </trkpt>
      <trkpt lat="45.20689" lon="6.01452">
        <ele>2090.6</ele>
        <time>2021-02-27T09:11:16Z</time>
      </trkpt>
      <trkpt lat="45.20692" lon="6.01454">
        <ele>2090.6</ele>
        <time>2021-02-27T09:11:17Z</time>
      </trkpt>
      <trkpt lat="45.20696" lon="6.01457">
        <ele>2090.6</ele>
        <time>2021-02-27T09:11:18Z</time>
      </trkpt>
      <trkpt lat="45.207" lon="6.01459">
        <ele>2090.6</ele>
        <time>2021-02-27T09:11:19Z</time>
      </trkpt>
      <trkpt lat="45.20704" lon="6.01462">
        <ele>2090.6</ele>
        <time>2021-02-27T09:11:20Z</time>
      </trkpt>
      <trkpt lat="45.20707" lon="6.01464">
        <ele>2090.6</ele>
        <time>2021-02-27T09:11:21Z</time>
      </trkpt>
      <trkpt lat="45.20711" lon="6.01466">
        <ele>2090.6</ele>
        <time>2021-02-27T09:11:22Z</time>
      </trkpt>
      <trkpt lat="45.20715" lon="6.01469">
        <ele>2087</ele>
        <time>2021-02-27T09:11:23Z</time>
      </trkpt>
      <trkpt lat="45.20716" lon="6.0147">
        <ele>2087</ele>
        <time>2021-02-27T09:11:25Z</time>
      </trkpt>
      <trkpt lat="45.20716" lon="6.0147">
        <ele>2087.6</ele>
        <time>2021-02-27T09:11:33Z</time>
      </trkpt>
      <trkpt lat="45.20716" lon="6.0147">
        <ele>2087.8</ele>
        <time>2021-02-27T09:11:43Z</time>
      </trkpt>
      <trkpt lat="45.20716" lon="6.0147">
        <ele>2086.6</ele>
        <time>2021-02-27T09:11:53Z</time>
      </trkpt>
      <trkpt lat="45.20716" lon="6.0147">
        <ele>2087</ele>
        <time>2021-02-27T09:12:03Z</time>
      </trkpt>
      <trkpt lat="45.20716" lon="6.0147">
        <ele>2087.4</ele>
        <time>2021-02-27T09:12:13Z</time>
      </trkpt>
      <trkpt lat="45.20716" lon="6.0147">
        <ele>2086.8</ele>
        <time>2021-02-27T09:12:23Z</time>
      </trkpt>
      <trkpt lat="45.20716" lon="6.0147">
        <ele>2087</ele>
        <time>2021-02-27T09:12:33Z</time>
      </trkpt>
      <trkpt lat="45.20716" lon="6.0147">
        <ele>2087</ele>
        <time>2021-02-27T09:12:43Z</time>
      </trkpt>
      <trkpt lat="45.20716" lon="6.0147">
        <ele>2087.6</ele>
        <time>2021-02-27T09:12:53Z</time>
      </trkpt>
      <trkpt lat="45.20716" lon="6.0147">
        <ele>2088.4</ele>
        <time>2021-02-27T09:13:03Z</time>
      </trkpt>
      <trkpt lat="45.20716" lon="6.0147">
        <ele>2088.4</ele>
        <time>2021-02-27T09:13:13Z</time>
      </trkpt>
      <trkpt lat="45.20716" lon="6.0147">
        <ele>2088.6</ele>
        <time>2021-02-27T09:13:23Z</time>
      </trkpt>
      <trkpt lat="45.20716" lon="6.0147">
        <ele>2088.2</ele>
        <time>2021-02-27T09:13:33Z</time>
      </trkpt>
      <trkpt lat="45.20716" lon="6.0147">
        <ele>2088</ele>
        <time>2021-02-27T09:13:43Z</time>
      </trkpt>
      <trkpt lat="45.20716" lon="6.0147">
        <ele>2087.6</ele>
        <time>2021-02-27T09:13:53Z</time>
      </trkpt>
      <trkpt lat="45.20716" lon="6.0147">
        <ele>2088.4</ele>
        <time>2021-02-27T09:14:03Z</time>
      </trkpt>
      <trkpt lat="45.20718" lon="6.01471">
        <ele>2088.4</ele>
        <time>2021-02-27T09:21:30Z</time>
      </trkpt>
      <trkpt lat="45.20719" lon="6.01473">
        <ele>2088.4</ele>
        <time>2021-02-27T09:21:32Z</time>
      </trkpt>
      <trkpt lat="45.20721" lon="6.01477">
        <ele>2088.4</ele>
        <time>2021-02-27T09:21:34Z</time>
      </trkpt>
      <trkpt lat="45.20723" lon="6.01479">
        <ele>2088.4</ele>
        <time>2021-02-27T09:21:37Z</time>
      </trkpt>
      <trkpt lat="45.20725" lon="6.01481">
        <ele>2091.6</ele>
        <time>2021-02-27T09:21:39Z</time>
      </trkpt>
      <trkpt lat="45.20727" lon="6.01484">
        <ele>2091.6</ele>
        <time>2021-02-27T09:21:42Z</time>
      </trkpt>
      <trkpt lat="45.20727" lon="6.01485">
        <ele>2091.6</ele>
        <time>2021-02-27T09:21:45Z</time>
      </trkpt>
      <trkpt lat="45.20728" lon="6.01486">
        <ele>2091.6</ele>
        <time>2021-02-27T09:21:48Z</time>
      </trkpt>
      <trkpt lat="45.20729" lon="6.01487">
        <ele>2094</ele>
        <time>2021-02-27T09:21:49Z</time>
      </trkpt>
      <trkpt lat="45.20731" lon="6.0149">
        <ele>2094</ele>
        <time>2021-02-27T09:21:50Z</time>
      </trkpt>
      <trkpt lat="45.20732" lon="6.01492">
        <ele>2094</ele>
        <time>2021-02-27T09:21:52Z</time>
      </trkpt>
      <trkpt lat="45.20733" lon="6.01493">
        <ele>2094</ele>
        <time>2021-02-27T09:21:55Z</time>
      </trkpt>
      <trkpt lat="45.20734" lon="6.01495">
        <ele>2094</ele>
        <time>2021-02-27T09:21:58Z</time>
      </trkpt>
      <trkpt lat="45.20735" lon="6.01496">
        <ele>2096</ele>
        <time>2021-02-27T09:21:59Z</time>
      </trkpt>
      <trkpt lat="45.20736" lon="6.01499">
        <ele>2096</ele>
        <time>2021-02-27T09:22:01Z</time>
      </trkpt>
      <trkpt lat="45.20738" lon="6.01501">
        <ele>2096</ele>
        <time>2021-02-27T09:22:04Z</time>
      </trkpt>
      <trkpt lat="45.20738" lon="6.01501">
        <ele>2096.6</ele>
        <time>2021-02-27T09:22:09Z</time>
      </trkpt>
      <trkpt lat="45.2074" lon="6.01501">
        <ele>2096.6</ele>
        <time>2021-02-27T09:22:12Z</time>
      </trkpt>
      <trkpt lat="45.20741" lon="6.01503">
        <ele>2096.6</ele>
        <time>2021-02-27T09:22:16Z</time>
      </trkpt>
      <trkpt lat="45.20741" lon="6.01503">
        <ele>2098</ele>
        <time>2021-02-27T09:22:19Z</time>
      </trkpt>
      <trkpt lat="45.20741" lon="6.01503">
        <ele>2099.2</ele>
        <time>2021-02-27T09:22:29Z</time>
      </trkpt>
      <trkpt lat="45.20742" lon="6.01506">
        <ele>2099.2</ele>
        <time>2021-02-27T09:22:31Z</time>
      </trkpt>
      <trkpt lat="45.20743" lon="6.01509">
        <ele>2099.2</ele>
        <time>2021-02-27T09:22:33Z</time>
      </trkpt>
      <trkpt lat="45.20744" lon="6.01512">
        <ele>2099.2</ele>
        <time>2021-02-27T09:22:35Z</time>
      </trkpt>
      <trkpt lat="45.20745" lon="6.01516">
        <ele>2099.2</ele>
        <time>2021-02-27T09:22:37Z</time>
      </trkpt>
      <trkpt lat="45.20745" lon="6.01518">
        <ele>2102</ele>
        <time>2021-02-27T09:22:39Z</time>
      </trkpt>
      <trkpt lat="45.20746" lon="6.01521">
        <ele>2102</ele>
        <time>2021-02-27T09:22:42Z</time>
      </trkpt>
      <trkpt lat="45.20748" lon="6.01524">
        <ele>2102</ele>
        <time>2021-02-27T09:22:45Z</time>
      </trkpt>
      <trkpt lat="45.20749" lon="6.01528">
        <ele>2104.2</ele>
        <time>2021-02-27T09:22:49Z</time>
      </trkpt>
      <trkpt lat="45.2075" lon="6.0153">
        <ele>2104.2</ele>
        <time>2021-02-27T09:22:51Z</time>
      </trkpt>
      <trkpt lat="45.20752" lon="6.01533">
        <ele>2104.2</ele>
        <time>2021-02-27T09:22:53Z</time>
      </trkpt>
      <trkpt lat="45.20754" lon="6.01535">
        <ele>2104.2</ele>
        <time>2021-02-27T09:22:55Z</time>
      </trkpt>
      <trkpt lat="45.20756" lon="6.01537">
        <ele>2104.2</ele>
        <time>2021-02-27T09:22:57Z</time>
      </trkpt>
      <trkpt lat="45.20758" lon="6.01539">
        <ele>2106.2</ele>
        <time>2021-02-27T09:22:59Z</time>
      </trkpt>
      <trkpt lat="45.2076" lon="6.01541">
        <ele>2106.2</ele>
        <time>2021-02-27T09:23:01Z</time>
      </trkpt>
      <trkpt lat="45.20762" lon="6.01543">
        <ele>2106.2</ele>
        <time>2021-02-27T09:23:03Z</time>
      </trkpt>
      <trkpt lat="45.20763" lon="6.01545">
        <ele>2106.2</ele>
        <time>2021-02-27T09:23:05Z</time>
      </trkpt>
      <trkpt lat="45.20764" lon="6.01548">
        <ele>2106.2</ele>
        <time>2021-02-27T09:23:07Z</time>
      </trkpt>
      <trkpt lat="45.20764" lon="6.01551">
        <ele>2108.2</ele>
        <time>2021-02-27T09:23:09Z</time>
      </trkpt>
      <trkpt lat="45.20765" lon="6.01556">
        <ele>2108.2</ele>
        <time>2021-02-27T09:23:12Z</time>
      </trkpt>
      <trkpt lat="45.20767" lon="6.01559">
        <ele>2108.2</ele>
        <time>2021-02-27T09:23:14Z</time>
      </trkpt>
      <trkpt lat="45.20768" lon="6.01561">
        <ele>2108.2</ele>
        <time>2021-02-27T09:23:16Z</time>
      </trkpt>
      <trkpt lat="45.20769" lon="6.01564">
        <ele>2110.2</ele>
        <time>2021-02-27T09:23:19Z</time>
      </trkpt>
      <trkpt lat="45.20771" lon="6.01568">
        <ele>2110.2</ele>
        <time>2021-02-27T09:23:21Z</time>
      </trkpt>
      <trkpt lat="45.20772" lon="6.01569">
        <ele>2110.2</ele>
        <time>2021-02-27T09:23:24Z</time>
      </trkpt>
      <trkpt lat="45.20772" lon="6.01571">
        <ele>2110.2</ele>
        <time>2021-02-27T09:23:26Z</time>
      </trkpt>
      <trkpt lat="45.20773" lon="6.01573">
        <ele>2110.2</ele>
        <time>2021-02-27T09:23:28Z</time>
      </trkpt>
      <trkpt lat="45.20774" lon="6.01574">
        <ele>2112.6</ele>
        <time>2021-02-27T09:23:29Z</time>
      </trkpt>
      <trkpt lat="45.20775" lon="6.01577">
        <ele>2112.6</ele>
        <time>2021-02-27T09:23:33Z</time>
      </trkpt>
      <trkpt lat="45.20776" lon="6.01581">
        <ele>2112.6</ele>
        <time>2021-02-27T09:23:35Z</time>
      </trkpt>
      <trkpt lat="45.20777" lon="6.01583">
        <ele>2112.6</ele>
        <time>2021-02-27T09:23:37Z</time>
      </trkpt>
      <trkpt lat="45.20778" lon="6.01586">
        <ele>2114.4</ele>
        <time>2021-02-27T09:23:39Z</time>
      </trkpt>
      <trkpt lat="45.20779" lon="6.01592">
        <ele>2114.4</ele>
        <time>2021-02-27T09:23:41Z</time>
      </trkpt>
      <trkpt lat="45.20779" lon="6.01594">
        <ele>2114.4</ele>
        <time>2021-02-27T09:23:44Z</time>
      </trkpt>
      <trkpt lat="45.20779" lon="6.01596">
        <ele>2114.4</ele>
        <time>2021-02-27T09:23:46Z</time>
      </trkpt>
      <trkpt lat="45.2078" lon="6.01598">
        <ele>2114.4</ele>
        <time>2021-02-27T09:23:48Z</time>
      </trkpt>
      <trkpt lat="45.2078" lon="6.016">
        <ele>2116.2</ele>
        <time>2021-02-27T09:23:49Z</time>
      </trkpt>
      <trkpt lat="45.20781" lon="6.01603">
        <ele>2116.2</ele>
        <time>2021-02-27T09:23:50Z</time>
      </trkpt>
      <trkpt lat="45.20782" lon="6.01606">
        <ele>2116.2</ele>
        <time>2021-02-27T09:23:52Z</time>
      </trkpt>
      <trkpt lat="45.20783" lon="6.01608">
        <ele>2116.2</ele>
        <time>2021-02-27T09:23:54Z</time>
      </trkpt>
      <trkpt lat="45.20784" lon="6.0161">
        <ele>2116.2</ele>
        <time>2021-02-27T09:23:56Z</time>
      </trkpt>
      <trkpt lat="45.20785" lon="6.01612">
        <ele>2116.2</ele>
        <time>2021-02-27T09:23:58Z</time>
      </trkpt>
      <trkpt lat="45.20786" lon="6.01615">
        <ele>2118</ele>
        <time>2021-02-27T09:23:59Z</time>
      </trkpt>
      <trkpt lat="45.20786" lon="6.01619">
        <ele>2118</ele>
        <time>2021-02-27T09:24:00Z</time>
      </trkpt>
      <trkpt lat="45.20786" lon="6.01621">
        <ele>2118</ele>
        <time>2021-02-27T09:24:02Z</time>
      </trkpt>
      <trkpt lat="45.20786" lon="6.01623">
        <ele>2118</ele>
        <time>2021-02-27T09:24:04Z</time>
      </trkpt>
      <trkpt lat="45.20786" lon="6.01625">
        <ele>2118</ele>
        <time>2021-02-27T09:24:06Z</time>
      </trkpt>
      <trkpt lat="45.20786" lon="6.01627">
        <ele>2118</ele>
        <time>2021-02-27T09:24:08Z</time>
      </trkpt>
      <trkpt lat="45.20786" lon="6.01629">
        <ele>2119.2</ele>
        <time>2021-02-27T09:24:09Z</time>
      </trkpt>
      <trkpt lat="45.20785" lon="6.01632">
        <ele>2119.2</ele>
        <time>2021-02-27T09:24:11Z</time>
      </trkpt>
      <trkpt lat="45.20785" lon="6.01635">
        <ele>2119.2</ele>
        <time>2021-02-27T09:24:13Z</time>
      </trkpt>
      <trkpt lat="45.20784" lon="6.01638">
        <ele>2119.2</ele>
        <time>2021-02-27T09:24:15Z</time>
      </trkpt>
      <trkpt lat="45.20784" lon="6.01641">
        <ele>2119.2</ele>
        <time>2021-02-27T09:24:17Z</time>
      </trkpt>
      <trkpt lat="45.20784" lon="6.01644">
        <ele>2121</ele>
        <time>2021-02-27T09:24:19Z</time>
      </trkpt>
      <trkpt lat="45.20784" lon="6.01647">
        <ele>2121</ele>
        <time>2021-02-27T09:24:21Z</time>
      </trkpt>
      <trkpt lat="45.20784" lon="6.0165">
        <ele>2121</ele>
        <time>2021-02-27T09:24:23Z</time>
      </trkpt>
      <trkpt lat="45.20784" lon="6.01652">
        <ele>2121</ele>
        <time>2021-02-27T09:24:25Z</time>
      </trkpt>
      <trkpt lat="45.20784" lon="6.01655">
        <ele>2121</ele>
        <time>2021-02-27T09:24:27Z</time>
      </trkpt>
      <trkpt lat="45.20784" lon="6.01658">
        <ele>2123</ele>
        <time>2021-02-27T09:24:29Z</time>
      </trkpt>
      <trkpt lat="45.20784" lon="6.01661">
        <ele>2123</ele>
        <time>2021-02-27T09:24:32Z</time>
      </trkpt>
      <trkpt lat="45.20784" lon="6.01664">
        <ele>2123</ele>
        <time>2021-02-27T09:24:34Z</time>
      </trkpt>
      <trkpt lat="45.20784" lon="6.01668">
        <ele>2123</ele>
        <time>2021-02-27T09:24:37Z</time>
      </trkpt>
      <trkpt lat="45.20785" lon="6.01671">
        <ele>2125.6</ele>
        <time>2021-02-27T09:24:39Z</time>
      </trkpt>
      <trkpt lat="45.20786" lon="6.01674">
        <ele>2125.6</ele>
        <time>2021-02-27T09:24:41Z</time>
      </trkpt>
      <trkpt lat="45.20787" lon="6.01677">
        <ele>2125.6</ele>
        <time>2021-02-27T09:24:44Z</time>
      </trkpt>
      <trkpt lat="45.20789" lon="6.01679">
        <ele>2125.6</ele>
        <time>2021-02-27T09:24:47Z</time>
      </trkpt>
      <trkpt lat="45.20789" lon="6.01679">
        <ele>2128.2</ele>
        <time>2021-02-27T09:24:49Z</time>
      </trkpt>
      <trkpt lat="45.2079" lon="6.01682">
        <ele>2128.2</ele>
        <time>2021-02-27T09:24:50Z</time>
      </trkpt>
      <trkpt lat="45.20792" lon="6.01682">
        <ele>2128.2</ele>
        <time>2021-02-27T09:24:53Z</time>
      </trkpt>
      <trkpt lat="45.20794" lon="6.01681">
        <ele>2128.2</ele>
        <time>2021-02-27T09:24:56Z</time>
      </trkpt>
      <trkpt lat="45.20796" lon="6.01679">
        <ele>2131.4</ele>
        <time>2021-02-27T09:24:59Z</time>
      </trkpt>
      <trkpt lat="45.20798" lon="6.01678">
        <ele>2131.4</ele>
        <time>2021-02-27T09:25:02Z</time>
      </trkpt>
      <trkpt lat="45.20801" lon="6.01677">
        <ele>2131.4</ele>
        <time>2021-02-27T09:25:06Z</time>
      </trkpt>
      <trkpt lat="45.20803" lon="6.01676">
        <ele>2133.2</ele>
        <time>2021-02-27T09:25:09Z</time>
      </trkpt>
      <trkpt lat="45.20805" lon="6.01676">
        <ele>2133.2</ele>
        <time>2021-02-27T09:25:12Z</time>
      </trkpt>
      <trkpt lat="45.20807" lon="6.01676">
        <ele>2133.2</ele>
        <time>2021-02-27T09:25:15Z</time>
      </trkpt>
      <trkpt lat="45.20809" lon="6.01676">
        <ele>2133.2</ele>
        <time>2021-02-27T09:25:17Z</time>
      </trkpt>
      <trkpt lat="45.20809" lon="6.01676">
        <ele>2135.6</ele>
        <time>2021-02-27T09:25:19Z</time>
      </trkpt>
      <trkpt lat="45.20813" lon="6.01674">
        <ele>2135.6</ele>
        <time>2021-02-27T09:25:20Z</time>
      </trkpt>
      <trkpt lat="45.20814" lon="6.01673">
        <ele>2135.6</ele>
        <time>2021-02-27T09:25:23Z</time>
      </trkpt>
      <trkpt lat="45.20816" lon="6.01672">
        <ele>2135.6</ele>
        <time>2021-02-27T09:25:26Z</time>
      </trkpt>
      <trkpt lat="45.20817" lon="6.01671">
        <ele>2135.6</ele>
        <time>2021-02-27T09:25:28Z</time>
      </trkpt>
      <trkpt lat="45.20818" lon="6.0167">
        <ele>2137.4</ele>
        <time>2021-02-27T09:25:29Z</time>
      </trkpt>
      <trkpt lat="45.20821" lon="6.01667">
        <ele>2137.4</ele>
        <time>2021-02-27T09:25:30Z</time>
      </trkpt>
      <trkpt lat="45.20822" lon="6.01666">
        <ele>2137.4</ele>
        <time>2021-02-27T09:25:32Z</time>
      </trkpt>
      <trkpt lat="45.20823" lon="6.01665">
        <ele>2137.4</ele>
        <time>2021-02-27T09:25:35Z</time>
      </trkpt>
      <trkpt lat="45.20824" lon="6.01664">
        <ele>2137.4</ele>
        <time>2021-02-27T09:25:38Z</time>
      </trkpt>
      <trkpt lat="45.20826" lon="6.01662">
        <ele>2139.6</ele>
        <time>2021-02-27T09:25:39Z</time>
      </trkpt>
      <trkpt lat="45.20828" lon="6.01662">
        <ele>2139.6</ele>
        <time>2021-02-27T09:25:41Z</time>
      </trkpt>
      <trkpt lat="45.2083" lon="6.01661">
        <ele>2139.6</ele>
        <time>2021-02-27T09:25:44Z</time>
      </trkpt>
      <trkpt lat="45.20832" lon="6.01662">
        <ele>2139.6</ele>
        <time>2021-02-27T09:25:47Z</time>
      </trkpt>
      <trkpt lat="45.20833" lon="6.01665">
        <ele>2142.8</ele>
        <time>2021-02-27T09:25:49Z</time>
      </trkpt>
      <trkpt lat="45.20833" lon="6.0167">
        <ele>2142.8</ele>
        <time>2021-02-27T09:25:51Z</time>
      </trkpt>
      <trkpt lat="45.20833" lon="6.01672">
        <ele>2142.8</ele>
        <time>2021-02-27T09:25:53Z</time>
      </trkpt>
      <trkpt lat="45.20834" lon="6.01674">
        <ele>2142.8</ele>
        <time>2021-02-27T09:25:56Z</time>
      </trkpt>
      <trkpt lat="45.20834" lon="6.01677">
        <ele>2142.8</ele>
        <time>2021-02-27T09:25:58Z</time>
      </trkpt>
      <trkpt lat="45.20834" lon="6.01679">
        <ele>2146.4</ele>
        <time>2021-02-27T09:25:59Z</time>
      </trkpt>
      <trkpt lat="45.20834" lon="6.0168">
        <ele>2146.4</ele>
        <time>2021-02-27T09:26:00Z</time>
      </trkpt>
      <trkpt lat="45.20835" lon="6.01683">
        <ele>2146.4</ele>
        <time>2021-02-27T09:26:02Z</time>
      </trkpt>
      <trkpt lat="45.20836" lon="6.01686">
        <ele>2146.4</ele>
        <time>2021-02-27T09:26:04Z</time>
      </trkpt>
      <trkpt lat="45.20837" lon="6.01689">
        <ele>2146.4</ele>
        <time>2021-02-27T09:26:07Z</time>
      </trkpt>
      <trkpt lat="45.20838" lon="6.01691">
        <ele>2149</ele>
        <time>2021-02-27T09:26:09Z</time>
      </trkpt>
      <trkpt lat="45.20842" lon="6.01694">
        <ele>2149</ele>
        <time>2021-02-27T09:26:12Z</time>
      </trkpt>
      <trkpt lat="45.20843" lon="6.01694">
        <ele>2149</ele>
        <time>2021-02-27T09:26:14Z</time>
      </trkpt>
      <trkpt lat="45.20844" lon="6.01694">
        <ele>2149</ele>
        <time>2021-02-27T09:26:16Z</time>
      </trkpt>
      <trkpt lat="45.20845" lon="6.01695">
        <ele>2149</ele>
        <time>2021-02-27T09:26:18Z</time>
      </trkpt>
      <trkpt lat="45.20846" lon="6.01695">
        <ele>2151</ele>
        <time>2021-02-27T09:26:19Z</time>
      </trkpt>
      <trkpt lat="45.20848" lon="6.01696">
        <ele>2151</ele>
        <time>2021-02-27T09:26:21Z</time>
      </trkpt>
      <trkpt lat="45.2085" lon="6.01699">
        <ele>2151</ele>
        <time>2021-02-27T09:26:24Z</time>
      </trkpt>
      <trkpt lat="45.2085" lon="6.01699">
        <ele>2153.8</ele>
        <time>2021-02-27T09:26:29Z</time>
      </trkpt>
      <trkpt lat="45.20851" lon="6.017">
        <ele>2153.8</ele>
        <time>2021-02-27T09:26:30Z</time>
      </trkpt>
      <trkpt lat="45.20853" lon="6.01703">
        <ele>2153.8</ele>
        <time>2021-02-27T09:26:33Z</time>
      </trkpt>
      <trkpt lat="45.20855" lon="6.01705">
        <ele>2153.8</ele>
        <time>2021-02-27T09:26:35Z</time>
      </trkpt>
      <trkpt lat="45.20855" lon="6.01708">
        <ele>2153.8</ele>
        <time>2021-02-27T09:26:37Z</time>
      </trkpt>
      <trkpt lat="45.20856" lon="6.01711">
        <ele>2154</ele>
        <time>2021-02-27T09:26:39Z</time>
      </trkpt>
      <trkpt lat="45.20858" lon="6.01713">
        <ele>2154</ele>
        <time>2021-02-27T09:26:41Z</time>
      </trkpt>
      <trkpt lat="45.20858" lon="6.01716">
        <ele>2154</ele>
        <time>2021-02-27T09:26:43Z</time>
      </trkpt>
      <trkpt lat="45.2086" lon="6.01719">
        <ele>2154</ele>
        <time>2021-02-27T09:26:45Z</time>
      </trkpt>
      <trkpt lat="45.20861" lon="6.01721">
        <ele>2154</ele>
        <time>2021-02-27T09:26:47Z</time>
      </trkpt>
      <trkpt lat="45.20862" lon="6.01724">
        <ele>2155.2</ele>
        <time>2021-02-27T09:26:49Z</time>
      </trkpt>
      <trkpt lat="45.20864" lon="6.01726">
        <ele>2155.2</ele>
        <time>2021-02-27T09:26:51Z</time>
      </trkpt>
      <trkpt lat="45.20865" lon="6.01729">
        <ele>2155.2</ele>
        <time>2021-02-27T09:26:53Z</time>
      </trkpt>
      <trkpt lat="45.20866" lon="6.01731">
        <ele>2155.2</ele>
        <time>2021-02-27T09:26:55Z</time>
      </trkpt>
      <trkpt lat="45.20869" lon="6.01733">
        <ele>2155.2</ele>
        <time>2021-02-27T09:26:57Z</time>
      </trkpt>
      <trkpt lat="45.20872" lon="6.01734">
        <ele>2156</ele>
        <time>2021-02-27T09:26:59Z</time>
      </trkpt>
      <trkpt lat="45.20876" lon="6.01734">
        <ele>2156</ele>
        <time>2021-02-27T09:27:01Z</time>
      </trkpt>
      <trkpt lat="45.20878" lon="6.01734">
        <ele>2156</ele>
        <time>2021-02-27T09:27:04Z</time>
      </trkpt>
      <trkpt lat="45.2088" lon="6.01733">
        <ele>2156</ele>
        <time>2021-02-27T09:27:06Z</time>
      </trkpt>
      <trkpt lat="45.20881" lon="6.01733">
        <ele>2156</ele>
        <time>2021-02-27T09:27:08Z</time>
      </trkpt>
      <trkpt lat="45.20883" lon="6.01732">
        <ele>2157.4</ele>
        <time>2021-02-27T09:27:09Z</time>
      </trkpt>
      <trkpt lat="45.20885" lon="6.01732">
        <ele>2157.4</ele>
        <time>2021-02-27T09:27:10Z</time>
      </trkpt>
      <trkpt lat="45.20887" lon="6.01732">
        <ele>2157.4</ele>
        <time>2021-02-27T09:27:13Z</time>
      </trkpt>
      <trkpt lat="45.20889" lon="6.01733">
        <ele>2157.4</ele>
        <time>2021-02-27T09:27:15Z</time>
      </trkpt>
      <trkpt lat="45.20891" lon="6.01735">
        <ele>2157.4</ele>
        <time>2021-02-27T09:27:17Z</time>
      </trkpt>
      <trkpt lat="45.20893" lon="6.01737">
        <ele>2160.8</ele>
        <time>2021-02-27T09:27:19Z</time>
      </trkpt>
      <trkpt lat="45.20895" lon="6.01739">
        <ele>2160.8</ele>
        <time>2021-02-27T09:27:21Z</time>
      </trkpt>
      <trkpt lat="45.20897" lon="6.0174">
        <ele>2160.8</ele>
        <time>2021-02-27T09:27:23Z</time>
      </trkpt>
      <trkpt lat="45.20899" lon="6.01742">
        <ele>2160.8</ele>
        <time>2021-02-27T09:27:26Z</time>
      </trkpt>
      <trkpt lat="45.20901" lon="6.01743">
        <ele>2163.4</ele>
        <time>2021-02-27T09:27:29Z</time>
      </trkpt>
      <trkpt lat="45.20902" lon="6.01745">
        <ele>2163.4</ele>
        <time>2021-02-27T09:27:32Z</time>
      </trkpt>
      <trkpt lat="45.20905" lon="6.01747">
        <ele>2163.4</ele>
        <time>2021-02-27T09:27:35Z</time>
      </trkpt>
      <trkpt lat="45.20907" lon="6.01748">
        <ele>2165.8</ele>
        <time>2021-02-27T09:27:39Z</time>
      </trkpt>
      <trkpt lat="45.20911" lon="6.0175">
        <ele>2165.8</ele>
        <time>2021-02-27T09:27:42Z</time>
      </trkpt>
      <trkpt lat="45.20912" lon="6.0175">
        <ele>2165.8</ele>
        <time>2021-02-27T09:27:44Z</time>
      </trkpt>
      <trkpt lat="45.20913" lon="6.0175">
        <ele>2165.8</ele>
        <time>2021-02-27T09:27:46Z</time>
      </trkpt>
      <trkpt lat="45.20915" lon="6.01751">
        <ele>2165.8</ele>
        <time>2021-02-27T09:27:48Z</time>
      </trkpt>
      <trkpt lat="45.20916" lon="6.01751">
        <ele>2168.8</ele>
        <time>2021-02-27T09:27:49Z</time>
      </trkpt>
      <trkpt lat="45.20918" lon="6.01751">
        <ele>2168.8</ele>
        <time>2021-02-27T09:27:51Z</time>
      </trkpt>
      <trkpt lat="45.20921" lon="6.0175">
        <ele>2168.8</ele>
        <time>2021-02-27T09:27:54Z</time>
      </trkpt>
      <trkpt lat="45.20923" lon="6.0175">
        <ele>2168.8</ele>
        <time>2021-02-27T09:27:56Z</time>
      </trkpt>
      <trkpt lat="45.20925" lon="6.01749">
        <ele>2171.4</ele>
        <time>2021-02-27T09:27:59Z</time>
      </trkpt>
      <trkpt lat="45.20929" lon="6.01746">
        <ele>2171.4</ele>
        <time>2021-02-27T09:28:02Z</time>
      </trkpt>
      <trkpt lat="45.2093" lon="6.01745">
        <ele>2171.4</ele>
        <time>2021-02-27T09:28:04Z</time>
      </trkpt>
      <trkpt lat="45.20931" lon="6.01743">
        <ele>2171.4</ele>
        <time>2021-02-27T09:28:06Z</time>
      </trkpt>
      <trkpt lat="45.20932" lon="6.01742">
        <ele>2171.4</ele>
        <time>2021-02-27T09:28:08Z</time>
      </trkpt>
      <trkpt lat="45.20933" lon="6.01741">
        <ele>2174.4</ele>
        <time>2021-02-27T09:28:09Z</time>
      </trkpt>
      <trkpt lat="45.20934" lon="6.0174">
        <ele>2174.4</ele>
        <time>2021-02-27T09:28:10Z</time>
      </trkpt>
      <trkpt lat="45.20936" lon="6.01739">
        <ele>2174.4</ele>
        <time>2021-02-27T09:28:12Z</time>
      </trkpt>
      <trkpt lat="45.20936" lon="6.01739">
        <ele>2175.8</ele>
        <time>2021-02-27T09:28:19Z</time>
      </trkpt>
      <trkpt lat="45.20937" lon="6.01737">
        <ele>2175.8</ele>
        <time>2021-02-27T09:28:20Z</time>
      </trkpt>
      <trkpt lat="45.20939" lon="6.01735">
        <ele>2175.8</ele>
        <time>2021-02-27T09:28:22Z</time>
      </trkpt>
      <trkpt lat="45.20941" lon="6.01733">
        <ele>2175.8</ele>
        <time>2021-02-27T09:28:24Z</time>
      </trkpt>
      <trkpt lat="45.20942" lon="6.01731">
        <ele>2175.8</ele>
        <time>2021-02-27T09:28:26Z</time>
      </trkpt>
      <trkpt lat="45.20943" lon="6.01728">
        <ele>2174.4</ele>
        <time>2021-02-27T09:28:29Z</time>
      </trkpt>
      <trkpt lat="45.20947" lon="6.01725">
        <ele>2174.4</ele>
        <time>2021-02-27T09:28:30Z</time>
      </trkpt>
      <trkpt lat="45.20948" lon="6.01723">
        <ele>2174.4</ele>
        <time>2021-02-27T09:28:31Z</time>
      </trkpt>
      <trkpt lat="45.2095" lon="6.01721">
        <ele>2174.4</ele>
        <time>2021-02-27T09:28:33Z</time>
      </trkpt>
      <trkpt lat="45.20952" lon="6.0172">
        <ele>2172.8</ele>
        <time>2021-02-27T09:28:39Z</time>
      </trkpt>
      <trkpt lat="45.20953" lon="6.01718">
        <ele>2172.8</ele>
        <time>2021-02-27T09:28:40Z</time>
      </trkpt>
      <trkpt lat="45.20955" lon="6.01717">
        <ele>2172.8</ele>
        <time>2021-02-27T09:28:42Z</time>
      </trkpt>
      <trkpt lat="45.20957" lon="6.01715">
        <ele>2172.8</ele>
        <time>2021-02-27T09:28:44Z</time>
      </trkpt>
      <trkpt lat="45.20958" lon="6.01713">
        <ele>2172.8</ele>
        <time>2021-02-27T09:28:45Z</time>
      </trkpt>
      <trkpt lat="45.2096" lon="6.01712">
        <ele>2172.8</ele>
        <time>2021-02-27T09:28:46Z</time>
      </trkpt>
      <trkpt lat="45.20961" lon="6.0171">
        <ele>2172.8</ele>
        <time>2021-02-27T09:28:47Z</time>
      </trkpt>
      <trkpt lat="45.20963" lon="6.01709">
        <ele>2172.8</ele>
        <time>2021-02-27T09:28:48Z</time>
      </trkpt>
      <trkpt lat="45.20965" lon="6.01707">
        <ele>2170.6</ele>
        <time>2021-02-27T09:28:49Z</time>
      </trkpt>
      <trkpt lat="45.20969" lon="6.01702">
        <ele>2170.6</ele>
        <time>2021-02-27T09:28:50Z</time>
      </trkpt>
      <trkpt lat="45.20972" lon="6.017">
        <ele>2170.6</ele>
        <time>2021-02-27T09:28:51Z</time>
      </trkpt>
      <trkpt lat="45.20974" lon="6.01697">
        <ele>2170.6</ele>
        <time>2021-02-27T09:28:53Z</time>
      </trkpt>
      <trkpt lat="45.20977" lon="6.01695">
        <ele>2170.6</ele>
        <time>2021-02-27T09:28:55Z</time>
      </trkpt>
      <trkpt lat="45.2098" lon="6.01693">
        <ele>2170.6</ele>
        <time>2021-02-27T09:28:56Z</time>
      </trkpt>
      <trkpt lat="45.20982" lon="6.0169">
        <ele>2170.6</ele>
        <time>2021-02-27T09:28:57Z</time>
      </trkpt>
      <trkpt lat="45.20985" lon="6.01688">
        <ele>2170.6</ele>
        <time>2021-02-27T09:28:58Z</time>
      </trkpt>
      <trkpt lat="45.20987" lon="6.01685">
        <ele>2165.2</ele>
        <time>2021-02-27T09:28:59Z</time>
      </trkpt>
      <trkpt lat="45.2099" lon="6.01682">
        <ele>2165.2</ele>
        <time>2021-02-27T09:29:01Z</time>
      </trkpt>
      <trkpt lat="45.20992" lon="6.0168">
        <ele>2165.2</ele>
        <time>2021-02-27T09:29:03Z</time>
      </trkpt>
      <trkpt lat="45.20995" lon="6.01678">
        <ele>2165.2</ele>
        <time>2021-02-27T09:29:05Z</time>
      </trkpt>
      <trkpt lat="45.20997" lon="6.01676">
        <ele>2165.2</ele>
        <time>2021-02-27T09:29:07Z</time>
      </trkpt>
      <trkpt lat="45.20999" lon="6.01674">
        <ele>2166</ele>
        <time>2021-02-27T09:29:09Z</time>
      </trkpt>
      <trkpt lat="45.21002" lon="6.01673">
        <ele>2166</ele>
        <time>2021-02-27T09:29:11Z</time>
      </trkpt>
      <trkpt lat="45.21004" lon="6.01671">
        <ele>2166</ele>
        <time>2021-02-27T09:29:13Z</time>
      </trkpt>
      <trkpt lat="45.21006" lon="6.0167">
        <ele>2166</ele>
        <time>2021-02-27T09:29:15Z</time>
      </trkpt>
      <trkpt lat="45.21009" lon="6.01668">
        <ele>2166</ele>
        <time>2021-02-27T09:29:17Z</time>
      </trkpt>
      <trkpt lat="45.21011" lon="6.01667">
        <ele>2168.4</ele>
        <time>2021-02-27T09:29:19Z</time>
      </trkpt>
      <trkpt lat="45.21013" lon="6.01667">
        <ele>2168.4</ele>
        <time>2021-02-27T09:29:22Z</time>
      </trkpt>
      <trkpt lat="45.21016" lon="6.01666">
        <ele>2168.4</ele>
        <time>2021-02-27T09:29:24Z</time>
      </trkpt>
      <trkpt lat="45.21018" lon="6.01667">
        <ele>2168.4</ele>
        <time>2021-02-27T09:29:26Z</time>
      </trkpt>
      <trkpt lat="45.21021" lon="6.01668">
        <ele>2170.4</ele>
        <time>2021-02-27T09:29:29Z</time>
      </trkpt>
      <trkpt lat="45.21023" lon="6.0167">
        <ele>2170.4</ele>
        <time>2021-02-27T09:29:31Z</time>
      </trkpt>
      <trkpt lat="45.21026" lon="6.01671">
        <ele>2170.4</ele>
        <time>2021-02-27T09:29:33Z</time>
      </trkpt>
      <trkpt lat="45.21029" lon="6.01673">
        <ele>2170.4</ele>
        <time>2021-02-27T09:29:35Z</time>
      </trkpt>
      <trkpt lat="45.21031" lon="6.01674">
        <ele>2170.4</ele>
        <time>2021-02-27T09:29:37Z</time>
      </trkpt>
      <trkpt lat="45.21033" lon="6.01676">
        <ele>2173</ele>
        <time>2021-02-27T09:29:39Z</time>
      </trkpt>
      <trkpt lat="45.21035" lon="6.01678">
        <ele>2173</ele>
        <time>2021-02-27T09:29:41Z</time>
      </trkpt>
      <trkpt lat="45.21036" lon="6.0168">
        <ele>2173</ele>
        <time>2021-02-27T09:29:43Z</time>
      </trkpt>
      <trkpt lat="45.21038" lon="6.01681">
        <ele>2173</ele>
        <time>2021-02-27T09:29:45Z</time>
      </trkpt>
      <trkpt lat="45.2104" lon="6.01682">
        <ele>2173</ele>
        <time>2021-02-27T09:29:47Z</time>
      </trkpt>
      <trkpt lat="45.21042" lon="6.01682">
        <ele>2175</ele>
        <time>2021-02-27T09:29:49Z</time>
      </trkpt>
      <trkpt lat="45.21047" lon="6.01682">
        <ele>2175</ele>
        <time>2021-02-27T09:29:51Z</time>
      </trkpt>
      <trkpt lat="45.21049" lon="6.01682">
        <ele>2175</ele>
        <time>2021-02-27T09:29:54Z</time>
      </trkpt>
      <trkpt lat="45.2105" lon="6.01682">
        <ele>2175</ele>
        <time>2021-02-27T09:29:56Z</time>
      </trkpt>
      <trkpt lat="45.21052" lon="6.01682">
        <ele>2175</ele>
        <time>2021-02-27T09:29:58Z</time>
      </trkpt>
      <trkpt lat="45.21053" lon="6.01682">
        <ele>2177.2</ele>
        <time>2021-02-27T09:29:59Z</time>
      </trkpt>
      <trkpt lat="45.21054" lon="6.01682">
        <ele>2177.2</ele>
        <time>2021-02-27T09:30:00Z</time>
      </trkpt>
      <trkpt lat="45.21056" lon="6.01681">
        <ele>2177.2</ele>
        <time>2021-02-27T09:30:02Z</time>
      </trkpt>
      <trkpt lat="45.21059" lon="6.01681">
        <ele>2177.2</ele>
        <time>2021-02-27T09:30:04Z</time>
      </trkpt>
      <trkpt lat="45.21061" lon="6.01681">
        <ele>2177.2</ele>
        <time>2021-02-27T09:30:07Z</time>
      </trkpt>
      <trkpt lat="45.21062" lon="6.01683">
        <ele>2179.2</ele>
        <time>2021-02-27T09:30:09Z</time>
      </trkpt>
      <trkpt lat="45.21064" lon="6.01686">
        <ele>2179.2</ele>
        <time>2021-02-27T09:30:12Z</time>
      </trkpt>
      <trkpt lat="45.21066" lon="6.01688">
        <ele>2179.2</ele>
        <time>2021-02-27T09:30:14Z</time>
      </trkpt>
      <trkpt lat="45.21068" lon="6.0169">
        <ele>2179.2</ele>
        <time>2021-02-27T09:30:17Z</time>
      </trkpt>
      <trkpt lat="45.21071" lon="6.01692">
        <ele>2182.2</ele>
        <time>2021-02-27T09:30:19Z</time>
      </trkpt>
      <trkpt lat="45.21076" lon="6.01694">
        <ele>2182.2</ele>
        <time>2021-02-27T09:30:21Z</time>
      </trkpt>
      <trkpt lat="45.21078" lon="6.01695">
        <ele>2182.2</ele>
        <time>2021-02-27T09:30:23Z</time>
      </trkpt>
      <trkpt lat="45.21081" lon="6.01696">
        <ele>2182.2</ele>
        <time>2021-02-27T09:30:25Z</time>
      </trkpt>
      <trkpt lat="45.21084" lon="6.01697">
        <ele>2182.2</ele>
        <time>2021-02-27T09:30:27Z</time>
      </trkpt>
      <trkpt lat="45.21086" lon="6.01698">
        <ele>2184.4</ele>
        <time>2021-02-27T09:30:29Z</time>
      </trkpt>
      <trkpt lat="45.2109" lon="6.01699">
        <ele>2184.4</ele>
        <time>2021-02-27T09:30:30Z</time>
      </trkpt>
      <trkpt lat="45.21092" lon="6.01699">
        <ele>2184.4</ele>
        <time>2021-02-27T09:30:31Z</time>
      </trkpt>
      <trkpt lat="45.21094" lon="6.01699">
        <ele>2184.4</ele>
        <time>2021-02-27T09:30:33Z</time>
      </trkpt>
      <trkpt lat="45.21096" lon="6.01699">
        <ele>2184.4</ele>
        <time>2021-02-27T09:30:35Z</time>
      </trkpt>
      <trkpt lat="45.21098" lon="6.01699">
        <ele>2184.4</ele>
        <time>2021-02-27T09:30:36Z</time>
      </trkpt>
      <trkpt lat="45.211" lon="6.017">
        <ele>2184.4</ele>
        <time>2021-02-27T09:30:37Z</time>
      </trkpt>
      <trkpt lat="45.21102" lon="6.017">
        <ele>2184.4</ele>
        <time>2021-02-27T09:30:38Z</time>
      </trkpt>
      <trkpt lat="45.21103" lon="6.017">
        <ele>2183.4</ele>
        <time>2021-02-27T09:30:39Z</time>
      </trkpt>
      <trkpt lat="45.21105" lon="6.017">
        <ele>2183.4</ele>
        <time>2021-02-27T09:30:40Z</time>
      </trkpt>
      <trkpt lat="45.21108" lon="6.01699">
        <ele>2183.4</ele>
        <time>2021-02-27T09:30:42Z</time>
      </trkpt>
      <trkpt lat="45.2111" lon="6.01699">
        <ele>2183.4</ele>
        <time>2021-02-27T09:30:43Z</time>
      </trkpt>
      <trkpt lat="45.21113" lon="6.01699">
        <ele>2183.4</ele>
        <time>2021-02-27T09:30:45Z</time>
      </trkpt>
      <trkpt lat="45.21117" lon="6.01699">
        <ele>2183.4</ele>
        <time>2021-02-27T09:30:47Z</time>
      </trkpt>
      <trkpt lat="45.2112" lon="6.01698">
        <ele>2181.2</ele>
        <time>2021-02-27T09:30:49Z</time>
      </trkpt>
      <trkpt lat="45.21128" lon="6.01697">
        <ele>2181.2</ele>
        <time>2021-02-27T09:30:51Z</time>
      </trkpt>
      <trkpt lat="45.21133" lon="6.01697">
        <ele>2181.2</ele>
        <time>2021-02-27T09:30:52Z</time>
      </trkpt>
      <trkpt lat="45.21138" lon="6.01697">
        <ele>2181.2</ele>
        <time>2021-02-27T09:30:53Z</time>
      </trkpt>
      <trkpt lat="45.21143" lon="6.01697">
        <ele>2181.2</ele>
        <time>2021-02-27T09:30:54Z</time>
      </trkpt>
      <trkpt lat="45.21148" lon="6.01697">
        <ele>2181.2</ele>
        <time>2021-02-27T09:30:55Z</time>
      </trkpt>
      <trkpt lat="45.21153" lon="6.01697">
        <ele>2181.2</ele>
        <time>2021-02-27T09:30:56Z</time>
      </trkpt>
      <trkpt lat="45.21158" lon="6.01697">
        <ele>2181.2</ele>
        <time>2021-02-27T09:30:57Z</time>
      </trkpt>
      <trkpt lat="45.21164" lon="6.01697">
        <ele>2181.2</ele>
        <time>2021-02-27T09:30:58Z</time>
      </trkpt>
      <trkpt lat="45.21169" lon="6.01697">
        <ele>2173.4</ele>
        <time>2021-02-27T09:30:59Z</time>
      </trkpt>
      <trkpt lat="45.21177" lon="6.01697">
        <ele>2173.4</ele>
        <time>2021-02-27T09:31:00Z</time>
      </trkpt>
      <trkpt lat="45.21181" lon="6.01697">
        <ele>2173.4</ele>
        <time>2021-02-27T09:31:01Z</time>
      </trkpt>
      <trkpt lat="45.21185" lon="6.01697">
        <ele>2173.4</ele>
        <time>2021-02-27T09:31:02Z</time>
      </trkpt>
      <trkpt lat="45.21188" lon="6.01697">
        <ele>2173.4</ele>
        <time>2021-02-27T09:31:03Z</time>
      </trkpt>
      <trkpt lat="45.21192" lon="6.01697">
        <ele>2173.4</ele>
        <time>2021-02-27T09:31:04Z</time>
      </trkpt>
      <trkpt lat="45.21196" lon="6.01697">
        <ele>2173.4</ele>
        <time>2021-02-27T09:31:05Z</time>
      </trkpt>
      <trkpt lat="45.212" lon="6.01697">
        <ele>2173.4</ele>
        <time>2021-02-27T09:31:06Z</time>
      </trkpt>
      <trkpt lat="45.21203" lon="6.01697">
        <ele>2173.4</ele>
        <time>2021-02-27T09:31:07Z</time>
      </trkpt>
      <trkpt lat="45.21207" lon="6.01697">
        <ele>2173.4</ele>
        <time>2021-02-27T09:31:08Z</time>
      </trkpt>
      <trkpt lat="45.21211" lon="6.01697">
        <ele>2163.2</ele>
        <time>2021-02-27T09:31:09Z</time>
      </trkpt>
      <trkpt lat="45.21215" lon="6.01697">
        <ele>2163.2</ele>
        <time>2021-02-27T09:31:10Z</time>
      </trkpt>
      <trkpt lat="45.21217" lon="6.01697">
        <ele>2163.2</ele>
        <time>2021-02-27T09:31:12Z</time>
      </trkpt>
      <trkpt lat="45.21219" lon="6.01697">
        <ele>2163.2</ele>
        <time>2021-02-27T09:31:14Z</time>
      </trkpt>
      <trkpt lat="45.21221" lon="6.01697">
        <ele>2163.2</ele>
        <time>2021-02-27T09:31:16Z</time>
      </trkpt>
      <trkpt lat="45.21223" lon="6.01696">
        <ele>2163.2</ele>
        <time>2021-02-27T09:31:17Z</time>
      </trkpt>
      <trkpt lat="45.21225" lon="6.01696">
        <ele>2163.2</ele>
        <time>2021-02-27T09:31:18Z</time>
      </trkpt>
      <trkpt lat="45.21227" lon="6.01696">
        <ele>2162.4</ele>
        <time>2021-02-27T09:31:19Z</time>
      </trkpt>
      <trkpt lat="45.21232" lon="6.01696">
        <ele>2162.4</ele>
        <time>2021-02-27T09:31:20Z</time>
      </trkpt>
      <trkpt lat="45.21235" lon="6.01696">
        <ele>2162.4</ele>
        <time>2021-02-27T09:31:21Z</time>
      </trkpt>
      <trkpt lat="45.21238" lon="6.01696">
        <ele>2162.4</ele>
        <time>2021-02-27T09:31:22Z</time>
      </trkpt>
      <trkpt lat="45.21241" lon="6.01696">
        <ele>2162.4</ele>
        <time>2021-02-27T09:31:23Z</time>
      </trkpt>
      <trkpt lat="45.21245" lon="6.01697">
        <ele>2162.4</ele>
        <time>2021-02-27T09:31:24Z</time>
      </trkpt>
      <trkpt lat="45.21248" lon="6.01697">
        <ele>2162.4</ele>
        <time>2021-02-27T09:31:25Z</time>
      </trkpt>
      <trkpt lat="45.21251" lon="6.01697">
        <ele>2162.4</ele>
        <time>2021-02-27T09:31:26Z</time>
      </trkpt>
      <trkpt lat="45.21254" lon="6.01697">
        <ele>2162.4</ele>
        <time>2021-02-27T09:31:27Z</time>
      </trkpt>
      <trkpt lat="45.21257" lon="6.01697">
        <ele>2162.4</ele>
        <time>2021-02-27T09:31:28Z</time>
      </trkpt>
      <trkpt lat="45.21261" lon="6.01697">
        <ele>2158.6</ele>
        <time>2021-02-27T09:31:29Z</time>
      </trkpt>
      <trkpt lat="45.21264" lon="6.01701">
        <ele>2158.6</ele>
        <time>2021-02-27T09:31:30Z</time>
      </trkpt>
      <trkpt lat="45.21266" lon="6.01703">
        <ele>2158.6</ele>
        <time>2021-02-27T09:31:31Z</time>
      </trkpt>
      <trkpt lat="45.21267" lon="6.01705">
        <ele>2158.6</ele>
        <time>2021-02-27T09:31:32Z</time>
      </trkpt>
      <trkpt lat="45.21269" lon="6.01706">
        <ele>2158.6</ele>
        <time>2021-02-27T09:31:34Z</time>
      </trkpt>
      <trkpt lat="45.2127" lon="6.01708">
        <ele>2158.6</ele>
        <time>2021-02-27T09:31:35Z</time>
      </trkpt>
      <trkpt lat="45.21272" lon="6.0171">
        <ele>2158.6</ele>
        <time>2021-02-27T09:31:36Z</time>
      </trkpt>
      <trkpt lat="45.21273" lon="6.01712">
        <ele>2158.6</ele>
        <time>2021-02-27T09:31:37Z</time>
      </trkpt>
      <trkpt lat="45.21275" lon="6.01713">
        <ele>2158.6</ele>
        <time>2021-02-27T09:31:38Z</time>
      </trkpt>
      <trkpt lat="45.21276" lon="6.01715">
        <ele>2157.2</ele>
        <time>2021-02-27T09:31:39Z</time>
      </trkpt>
      <trkpt lat="45.21278" lon="6.0172">
        <ele>2157.2</ele>
        <time>2021-02-27T09:31:40Z</time>
      </trkpt>
      <trkpt lat="45.2128" lon="6.01722">
        <ele>2157.2</ele>
        <time>2021-02-27T09:31:41Z</time>
      </trkpt>
      <trkpt lat="45.21281" lon="6.01724">
        <ele>2157.2</ele>
        <time>2021-02-27T09:31:42Z</time>
      </trkpt>
      <trkpt lat="45.21282" lon="6.01726">
        <ele>2157.2</ele>
        <time>2021-02-27T09:31:43Z</time>
      </trkpt>
      <trkpt lat="45.21284" lon="6.01728">
        <ele>2157.2</ele>
        <time>2021-02-27T09:31:44Z</time>
      </trkpt>
      <trkpt lat="45.21285" lon="6.0173">
        <ele>2157.2</ele>
        <time>2021-02-27T09:31:45Z</time>
      </trkpt>
      <trkpt lat="45.21286" lon="6.01732">
        <ele>2157.2</ele>
        <time>2021-02-27T09:31:46Z</time>
      </trkpt>
      <trkpt lat="45.21288" lon="6.01734">
        <ele>2157.2</ele>
        <time>2021-02-27T09:31:47Z</time>
      </trkpt>
      <trkpt lat="45.21289" lon="6.01736">
        <ele>2157.2</ele>
        <time>2021-02-27T09:31:48Z</time>
      </trkpt>
      <trkpt lat="45.2129" lon="6.01738">
        <ele>2155.8</ele>
        <time>2021-02-27T09:31:49Z</time>
      </trkpt>
      <trkpt lat="45.21292" lon="6.01743">
        <ele>2155.8</ele>
        <time>2021-02-27T09:31:50Z</time>
      </trkpt>
      <trkpt lat="45.21293" lon="6.01746">
        <ele>2155.8</ele>
        <time>2021-02-27T09:31:51Z</time>
      </trkpt>
      <trkpt lat="45.21294" lon="6.01748">
        <ele>2155.8</ele>
        <time>2021-02-27T09:31:52Z</time>
      </trkpt>
      <trkpt lat="45.21295" lon="6.01751">
        <ele>2155.8</ele>
        <time>2021-02-27T09:31:53Z</time>
      </trkpt>
      <trkpt lat="45.21296" lon="6.01753">
        <ele>2155.8</ele>
        <time>2021-02-27T09:31:54Z</time>
      </trkpt>
      <trkpt lat="45.21297" lon="6.01755">
        <ele>2155.8</ele>
        <time>2021-02-27T09:31:55Z</time>
      </trkpt>
      <trkpt lat="45.21298" lon="6.01758">
        <ele>2155.8</ele>
        <time>2021-02-27T09:31:56Z</time>
      </trkpt>
      <trkpt lat="45.21299" lon="6.0176">
        <ele>2155.8</ele>
        <time>2021-02-27T09:31:57Z</time>
      </trkpt>
      <trkpt lat="45.213" lon="6.01762">
        <ele>2153</ele>
        <time>2021-02-27T09:31:59Z</time>
      </trkpt>
      <trkpt lat="45.21301" lon="6.01769">
        <ele>2153</ele>
        <time>2021-02-27T09:32:01Z</time>
      </trkpt>
      <trkpt lat="45.21301" lon="6.01772">
        <ele>2153</ele>
        <time>2021-02-27T09:32:03Z</time>
      </trkpt>
      <trkpt lat="45.21302" lon="6.01775">
        <ele>2153</ele>
        <time>2021-02-27T09:32:05Z</time>
      </trkpt>
      <trkpt lat="45.21302" lon="6.01779">
        <ele>2153</ele>
        <time>2021-02-27T09:32:06Z</time>
      </trkpt>
      <trkpt lat="45.21302" lon="6.01782">
        <ele>2153</ele>
        <time>2021-02-27T09:32:07Z</time>
      </trkpt>
      <trkpt lat="45.21303" lon="6.01785">
        <ele>2152.2</ele>
        <time>2021-02-27T09:32:09Z</time>
      </trkpt>
      <trkpt lat="45.21303" lon="6.01789">
        <ele>2152.2</ele>
        <time>2021-02-27T09:32:11Z</time>
      </trkpt>
      <trkpt lat="45.21303" lon="6.01792">
        <ele>2152.2</ele>
        <time>2021-02-27T09:32:13Z</time>
      </trkpt>
      <trkpt lat="45.21302" lon="6.01795">
        <ele>2152.2</ele>
        <time>2021-02-27T09:32:15Z</time>
      </trkpt>
      <trkpt lat="45.21302" lon="6.01798">
        <ele>2152.2</ele>
        <time>2021-02-27T09:32:17Z</time>
      </trkpt>
      <trkpt lat="45.21301" lon="6.01802">
        <ele>2152.4</ele>
        <time>2021-02-27T09:32:19Z</time>
      </trkpt>
      <trkpt lat="45.21302" lon="6.01805">
        <ele>2152.4</ele>
        <time>2021-02-27T09:32:21Z</time>
      </trkpt>
      <trkpt lat="45.21302" lon="6.01809">
        <ele>2152.4</ele>
        <time>2021-02-27T09:32:23Z</time>
      </trkpt>
      <trkpt lat="45.21302" lon="6.01813">
        <ele>2152.4</ele>
        <time>2021-02-27T09:32:25Z</time>
      </trkpt>
      <trkpt lat="45.21302" lon="6.01817">
        <ele>2152.4</ele>
        <time>2021-02-27T09:32:27Z</time>
      </trkpt>
      <trkpt lat="45.21303" lon="6.01821">
        <ele>2152.8</ele>
        <time>2021-02-27T09:32:29Z</time>
      </trkpt>
      <trkpt lat="45.21304" lon="6.01825">
        <ele>2152.8</ele>
        <time>2021-02-27T09:32:31Z</time>
      </trkpt>
      <trkpt lat="45.21304" lon="6.01829">
        <ele>2152.8</ele>
        <time>2021-02-27T09:32:33Z</time>
      </trkpt>
      <trkpt lat="45.21304" lon="6.01833">
        <ele>2152.8</ele>
        <time>2021-02-27T09:32:35Z</time>
      </trkpt>
      <trkpt lat="45.21305" lon="6.01837">
        <ele>2152.8</ele>
        <time>2021-02-27T09:32:37Z</time>
      </trkpt>
      <trkpt lat="45.21306" lon="6.01841">
        <ele>2154.6</ele>
        <time>2021-02-27T09:32:39Z</time>
      </trkpt>
      <trkpt lat="45.21306" lon="6.01844">
        <ele>2154.6</ele>
        <time>2021-02-27T09:32:41Z</time>
      </trkpt>
      <trkpt lat="45.21306" lon="6.01848">
        <ele>2154.6</ele>
        <time>2021-02-27T09:32:43Z</time>
      </trkpt>
      <trkpt lat="45.21306" lon="6.01852">
        <ele>2154.6</ele>
        <time>2021-02-27T09:32:45Z</time>
      </trkpt>
      <trkpt lat="45.21306" lon="6.01856">
        <ele>2154.6</ele>
        <time>2021-02-27T09:32:47Z</time>
      </trkpt>
      <trkpt lat="45.21306" lon="6.0186">
        <ele>2156.6</ele>
        <time>2021-02-27T09:32:49Z</time>
      </trkpt>
      <trkpt lat="45.21306" lon="6.01863">
        <ele>2156.6</ele>
        <time>2021-02-27T09:32:51Z</time>
      </trkpt>
      <trkpt lat="45.21306" lon="6.01867">
        <ele>2156.6</ele>
        <time>2021-02-27T09:32:53Z</time>
      </trkpt>
      <trkpt lat="45.21306" lon="6.0187">
        <ele>2156.6</ele>
        <time>2021-02-27T09:32:55Z</time>
      </trkpt>
      <trkpt lat="45.21306" lon="6.01873">
        <ele>2156.6</ele>
        <time>2021-02-27T09:32:57Z</time>
      </trkpt>
      <trkpt lat="45.21306" lon="6.01877">
        <ele>2158.8</ele>
        <time>2021-02-27T09:32:59Z</time>
      </trkpt>
      <trkpt lat="45.21307" lon="6.01882">
        <ele>2158.8</ele>
        <time>2021-02-27T09:33:01Z</time>
      </trkpt>
      <trkpt lat="45.21307" lon="6.01884">
        <ele>2158.8</ele>
        <time>2021-02-27T09:33:03Z</time>
      </trkpt>
      <trkpt lat="45.21307" lon="6.01886">
        <ele>2158.8</ele>
        <time>2021-02-27T09:33:06Z</time>
      </trkpt>
      <trkpt lat="45.21307" lon="6.01888">
        <ele>2158.8</ele>
        <time>2021-02-27T09:33:08Z</time>
      </trkpt>
      <trkpt lat="45.21308" lon="6.0189">
        <ele>2160.4</ele>
        <time>2021-02-27T09:33:09Z</time>
      </trkpt>
      <trkpt lat="45.21308" lon="6.01892">
        <ele>2160.4</ele>
        <time>2021-02-27T09:33:11Z</time>
      </trkpt>
      <trkpt lat="45.21309" lon="6.01896">
        <ele>2160.4</ele>
        <time>2021-02-27T09:33:14Z</time>
      </trkpt>
      <trkpt lat="45.2131" lon="6.01898">
        <ele>2160.4</ele>
        <time>2021-02-27T09:33:16Z</time>
      </trkpt>
      <trkpt lat="45.2131" lon="6.01898">
        <ele>2164</ele>
        <time>2021-02-27T09:33:19Z</time>
      </trkpt>
      <trkpt lat="45.21312" lon="6.01901">
        <ele>2164</ele>
        <time>2021-02-27T09:33:20Z</time>
      </trkpt>
      <trkpt lat="45.21313" lon="6.01901">
        <ele>2164</ele>
        <time>2021-02-27T09:33:28Z</time>
      </trkpt>
      <trkpt lat="45.21314" lon="6.01902">
        <ele>2165.6</ele>
        <time>2021-02-27T09:33:29Z</time>
      </trkpt>
      <trkpt lat="45.21315" lon="6.01904">
        <ele>2165.6</ele>
        <time>2021-02-27T09:33:31Z</time>
      </trkpt>
      <trkpt lat="45.21316" lon="6.01906">
        <ele>2165.6</ele>
        <time>2021-02-27T09:33:33Z</time>
      </trkpt>
      <trkpt lat="45.21317" lon="6.01909">
        <ele>2165.6</ele>
        <time>2021-02-27T09:33:35Z</time>
      </trkpt>
      <trkpt lat="45.21318" lon="6.01911">
        <ele>2165.6</ele>
        <time>2021-02-27T09:33:37Z</time>
      </trkpt>
      <trkpt lat="45.21318" lon="6.01911">
        <ele>2167.8</ele>
        <time>2021-02-27T09:33:39Z</time>
      </trkpt>
      <trkpt lat="45.21319" lon="6.01914">
        <ele>2167.8</ele>
        <time>2021-02-27T09:33:40Z</time>
      </trkpt>
      <trkpt lat="45.2132" lon="6.01911">
        <ele>2167.8</ele>
        <time>2021-02-27T09:33:44Z</time>
      </trkpt>
      <trkpt lat="45.21321" lon="6.01908">
        <ele>2167.8</ele>
        <time>2021-02-27T09:33:47Z</time>
      </trkpt>
      <trkpt lat="45.21322" lon="6.01905">
        <ele>2169.2</ele>
        <time>2021-02-27T09:33:49Z</time>
      </trkpt>
      <trkpt lat="45.21325" lon="6.01899">
        <ele>2169.2</ele>
        <time>2021-02-27T09:33:52Z</time>
      </trkpt>
      <trkpt lat="45.21325" lon="6.01897">
        <ele>2169.2</ele>
        <time>2021-02-27T09:33:54Z</time>
      </trkpt>
      <trkpt lat="45.21326" lon="6.01895">
        <ele>2169.2</ele>
        <time>2021-02-27T09:33:56Z</time>
      </trkpt>
      <trkpt lat="45.21327" lon="6.01893">
        <ele>2169.2</ele>
        <time>2021-02-27T09:33:58Z</time>
      </trkpt>
      <trkpt lat="45.21327" lon="6.01891">
        <ele>2172</ele>
        <time>2021-02-27T09:33:59Z</time>
      </trkpt>
      <trkpt lat="45.21328" lon="6.0189">
        <ele>2172</ele>
        <time>2021-02-27T09:34:00Z</time>
      </trkpt>
      <trkpt lat="45.21328" lon="6.01893">
        <ele>2172</ele>
        <time>2021-02-27T09:34:05Z</time>
      </trkpt>
      <trkpt lat="45.21329" lon="6.01896">
        <ele>2172</ele>
        <time>2021-02-27T09:34:07Z</time>
      </trkpt>
      <trkpt lat="45.2133" lon="6.01898">
        <ele>2175.2</ele>
        <time>2021-02-27T09:34:09Z</time>
      </trkpt>
      <trkpt lat="45.2133" lon="6.01903">
        <ele>2175.2</ele>
        <time>2021-02-27T09:34:11Z</time>
      </trkpt>
      <trkpt lat="45.2133" lon="6.01905">
        <ele>2175.2</ele>
        <time>2021-02-27T09:34:14Z</time>
      </trkpt>
      <trkpt lat="45.2133" lon="6.01906">
        <ele>2175.2</ele>
        <time>2021-02-27T09:34:16Z</time>
      </trkpt>
      <trkpt lat="45.21331" lon="6.01908">
        <ele>2175.2</ele>
        <time>2021-02-27T09:34:18Z</time>
      </trkpt>
      <trkpt lat="45.21331" lon="6.0191">
        <ele>2178.2</ele>
        <time>2021-02-27T09:34:19Z</time>
      </trkpt>
      <trkpt lat="45.21333" lon="6.01914">
        <ele>2178.2</ele>
        <time>2021-02-27T09:34:20Z</time>
      </trkpt>
      <trkpt lat="45.21333" lon="6.01917">
        <ele>2178.2</ele>
        <time>2021-02-27T09:34:22Z</time>
      </trkpt>
      <trkpt lat="45.21334" lon="6.01919">
        <ele>2178.2</ele>
        <time>2021-02-27T09:34:24Z</time>
      </trkpt>
      <trkpt lat="45.21335" lon="6.01921">
        <ele>2178.2</ele>
        <time>2021-02-27T09:34:26Z</time>
      </trkpt>
      <trkpt lat="45.21336" lon="6.01923">
        <ele>2178.2</ele>
        <time>2021-02-27T09:34:28Z</time>
      </trkpt>
      <trkpt lat="45.21336" lon="6.01925">
        <ele>2180.8</ele>
        <time>2021-02-27T09:34:29Z</time>
      </trkpt>
      <trkpt lat="45.21338" lon="6.01929">
        <ele>2180.8</ele>
        <time>2021-02-27T09:34:30Z</time>
      </trkpt>
      <trkpt lat="45.21339" lon="6.01931">
        <ele>2180.8</ele>
        <time>2021-02-27T09:34:32Z</time>
      </trkpt>
      <trkpt lat="45.2134" lon="6.01934">
        <ele>2180.8</ele>
        <time>2021-02-27T09:34:33Z</time>
      </trkpt>
      <trkpt lat="45.21341" lon="6.01936">
        <ele>2180.8</ele>
        <time>2021-02-27T09:34:35Z</time>
      </trkpt>
      <trkpt lat="45.21342" lon="6.01938">
        <ele>2180.8</ele>
        <time>2021-02-27T09:34:37Z</time>
      </trkpt>
      <trkpt lat="45.21343" lon="6.01941">
        <ele>2180.8</ele>
        <time>2021-02-27T09:34:38Z</time>
      </trkpt>
      <trkpt lat="45.21344" lon="6.01943">
        <ele>2181.6</ele>
        <time>2021-02-27T09:34:39Z</time>
      </trkpt>
      <trkpt lat="45.21348" lon="6.01949">
        <ele>2181.6</ele>
        <time>2021-02-27T09:34:41Z</time>
      </trkpt>
      <trkpt lat="45.21349" lon="6.01952">
        <ele>2181.6</ele>
        <time>2021-02-27T09:34:43Z</time>
      </trkpt>
      <trkpt lat="45.21351" lon="6.01954">
        <ele>2181.6</ele>
        <time>2021-02-27T09:34:45Z</time>
      </trkpt>
      <trkpt lat="45.21353" lon="6.01957">
        <ele>2181.6</ele>
        <time>2021-02-27T09:34:46Z</time>
      </trkpt>
      <trkpt lat="45.21354" lon="6.0196">
        <ele>2181.6</ele>
        <time>2021-02-27T09:34:47Z</time>
      </trkpt>
      <trkpt lat="45.21356" lon="6.01962">
        <ele>2181.2</ele>
        <time>2021-02-27T09:34:49Z</time>
      </trkpt>
      <trkpt lat="45.21358" lon="6.01964">
        <ele>2181.2</ele>
        <time>2021-02-27T09:34:51Z</time>
      </trkpt>
      <trkpt lat="45.2136" lon="6.01966">
        <ele>2181.2</ele>
        <time>2021-02-27T09:34:53Z</time>
      </trkpt>
      <trkpt lat="45.21362" lon="6.01968">
        <ele>2181.2</ele>
        <time>2021-02-27T09:34:55Z</time>
      </trkpt>
      <trkpt lat="45.21363" lon="6.0197">
        <ele>2181.2</ele>
        <time>2021-02-27T09:34:57Z</time>
      </trkpt>
      <trkpt lat="45.21363" lon="6.0197">
        <ele>2183</ele>
        <time>2021-02-27T09:34:59Z</time>
      </trkpt>
      <trkpt lat="45.21365" lon="6.01975">
        <ele>2183</ele>
        <time>2021-02-27T09:35:00Z</time>
      </trkpt>
      <trkpt lat="45.21365" lon="6.01978">
        <ele>2183</ele>
        <time>2021-02-27T09:35:02Z</time>
      </trkpt>
      <trkpt lat="45.21365" lon="6.0198">
        <ele>2183</ele>
        <time>2021-02-27T09:35:04Z</time>
      </trkpt>
      <trkpt lat="45.21365" lon="6.01982">
        <ele>2183</ele>
        <time>2021-02-27T09:35:06Z</time>
      </trkpt>
      <trkpt lat="45.21366" lon="6.01984">
        <ele>2183</ele>
        <time>2021-02-27T09:35:08Z</time>
      </trkpt>
      <trkpt lat="45.21366" lon="6.01986">
        <ele>2183.2</ele>
        <time>2021-02-27T09:35:09Z</time>
      </trkpt>
      <trkpt lat="45.21366" lon="6.01988">
        <ele>2183.2</ele>
        <time>2021-02-27T09:35:10Z</time>
      </trkpt>
      <trkpt lat="45.21367" lon="6.01991">
        <ele>2183.2</ele>
        <time>2021-02-27T09:35:13Z</time>
      </trkpt>
      <trkpt lat="45.21369" lon="6.01994">
        <ele>2183.2</ele>
        <time>2021-02-27T09:35:15Z</time>
      </trkpt>
      <trkpt lat="45.21371" lon="6.01998">
        <ele>2183.2</ele>
        <time>2021-02-27T09:35:17Z</time>
      </trkpt>
      <trkpt lat="45.21372" lon="6.02001">
        <ele>2184.8</ele>
        <time>2021-02-27T09:35:19Z</time>
      </trkpt>
      <trkpt lat="45.21372" lon="6.02009">
        <ele>2184.8</ele>
        <time>2021-02-27T09:35:21Z</time>
      </trkpt>
      <trkpt lat="45.21373" lon="6.02012">
        <ele>2184.8</ele>
        <time>2021-02-27T09:35:23Z</time>
      </trkpt>
      <trkpt lat="45.21373" lon="6.02016">
        <ele>2184.8</ele>
        <time>2021-02-27T09:35:25Z</time>
      </trkpt>
      <trkpt lat="45.21373" lon="6.0202">
        <ele>2184.8</ele>
        <time>2021-02-27T09:35:26Z</time>
      </trkpt>
      <trkpt lat="45.21373" lon="6.02024">
        <ele>2184.8</ele>
        <time>2021-02-27T09:35:27Z</time>
      </trkpt>
      <trkpt lat="45.21374" lon="6.02027">
        <ele>2184.8</ele>
        <time>2021-02-27T09:35:28Z</time>
      </trkpt>
      <trkpt lat="45.21374" lon="6.02031">
        <ele>2184</ele>
        <time>2021-02-27T09:35:29Z</time>
      </trkpt>
      <trkpt lat="45.21375" lon="6.02038">
        <ele>2184</ele>
        <time>2021-02-27T09:35:30Z</time>
      </trkpt>
      <trkpt lat="45.21376" lon="6.02043">
        <ele>2184</ele>
        <time>2021-02-27T09:35:32Z</time>
      </trkpt>
      <trkpt lat="45.21377" lon="6.02048">
        <ele>2184</ele>
        <time>2021-02-27T09:35:34Z</time>
      </trkpt>
      <trkpt lat="45.21377" lon="6.02052">
        <ele>2184</ele>
        <time>2021-02-27T09:35:35Z</time>
      </trkpt>
      <trkpt lat="45.21378" lon="6.02057">
        <ele>2184</ele>
        <time>2021-02-27T09:35:36Z</time>
      </trkpt>
      <trkpt lat="45.21379" lon="6.02061">
        <ele>2184</ele>
        <time>2021-02-27T09:35:37Z</time>
      </trkpt>
      <trkpt lat="45.2138" lon="6.02066">
        <ele>2184</ele>
        <time>2021-02-27T09:35:38Z</time>
      </trkpt>
      <trkpt lat="45.2138" lon="6.02071">
        <ele>2181.2</ele>
        <time>2021-02-27T09:35:39Z</time>
      </trkpt>
      <trkpt lat="45.21381" lon="6.02082">
        <ele>2181.2</ele>
        <time>2021-02-27T09:35:40Z</time>
      </trkpt>
      <trkpt lat="45.21382" lon="6.02086">
        <ele>2181.2</ele>
        <time>2021-02-27T09:35:41Z</time>
      </trkpt>
      <trkpt lat="45.21382" lon="6.02091">
        <ele>2181.2</ele>
        <time>2021-02-27T09:35:42Z</time>
      </trkpt>
      <trkpt lat="45.21383" lon="6.02095">
        <ele>2181.2</ele>
        <time>2021-02-27T09:35:43Z</time>
      </trkpt>
      <trkpt lat="45.21383" lon="6.02099">
        <ele>2181.2</ele>
        <time>2021-02-27T09:35:44Z</time>
      </trkpt>
      <trkpt lat="45.21383" lon="6.02104">
        <ele>2181.2</ele>
        <time>2021-02-27T09:35:45Z</time>
      </trkpt>
      <trkpt lat="45.21384" lon="6.02108">
        <ele>2181.2</ele>
        <time>2021-02-27T09:35:46Z</time>
      </trkpt>
      <trkpt lat="45.21384" lon="6.02112">
        <ele>2181.2</ele>
        <time>2021-02-27T09:35:47Z</time>
      </trkpt>
      <trkpt lat="45.21384" lon="6.02117">
        <ele>2181.2</ele>
        <time>2021-02-27T09:35:48Z</time>
      </trkpt>
      <trkpt lat="45.21385" lon="6.02121">
        <ele>2174.2</ele>
        <time>2021-02-27T09:35:49Z</time>
      </trkpt>
      <trkpt lat="45.21386" lon="6.02129">
        <ele>2174.2</ele>
        <time>2021-02-27T09:35:50Z</time>
      </trkpt>
      <trkpt lat="45.21387" lon="6.02134">
        <ele>2174.2</ele>
        <time>2021-02-27T09:35:51Z</time>
      </trkpt>
      <trkpt lat="45.21387" lon="6.02138">
        <ele>2174.2</ele>
        <time>2021-02-27T09:35:52Z</time>
      </trkpt>
      <trkpt lat="45.21388" lon="6.02143">
        <ele>2174.2</ele>
        <time>2021-02-27T09:35:53Z</time>
      </trkpt>
      <trkpt lat="45.21388" lon="6.02147">
        <ele>2174.2</ele>
        <time>2021-02-27T09:35:54Z</time>
      </trkpt>
      <trkpt lat="45.21389" lon="6.02152">
        <ele>2174.2</ele>
        <time>2021-02-27T09:35:55Z</time>
      </trkpt>
      <trkpt lat="45.21389" lon="6.02156">
        <ele>2174.2</ele>
        <time>2021-02-27T09:35:56Z</time>
      </trkpt>
      <trkpt lat="45.2139" lon="6.0216">
        <ele>2174.2</ele>
        <time>2021-02-27T09:35:57Z</time>
      </trkpt>
      <trkpt lat="45.21391" lon="6.02165">
        <ele>2174.2</ele>
        <time>2021-02-27T09:35:58Z</time>
      </trkpt>
      <trkpt lat="45.21391" lon="6.02169">
        <ele>2169</ele>
        <time>2021-02-27T09:35:59Z</time>
      </trkpt>
      <trkpt lat="45.21391" lon="6.02176">
        <ele>2169</ele>
        <time>2021-02-27T09:36:00Z</time>
      </trkpt>
      <trkpt lat="45.21391" lon="6.02179">
        <ele>2169</ele>
        <time>2021-02-27T09:36:01Z</time>
      </trkpt>
      <trkpt lat="45.21392" lon="6.02182">
        <ele>2169</ele>
        <time>2021-02-27T09:36:02Z</time>
      </trkpt>
      <trkpt lat="45.21392" lon="6.02184">
        <ele>2169</ele>
        <time>2021-02-27T09:36:03Z</time>
      </trkpt>
      <trkpt lat="45.21392" lon="6.02187">
        <ele>2169</ele>
        <time>2021-02-27T09:36:04Z</time>
      </trkpt>
      <trkpt lat="45.21392" lon="6.0219">
        <ele>2169</ele>
        <time>2021-02-27T09:36:05Z</time>
      </trkpt>
      <trkpt lat="45.21392" lon="6.02193">
        <ele>2169</ele>
        <time>2021-02-27T09:36:06Z</time>
      </trkpt>
      <trkpt lat="45.21393" lon="6.02196">
        <ele>2169</ele>
        <time>2021-02-27T09:36:07Z</time>
      </trkpt>
      <trkpt lat="45.21393" lon="6.02199">
        <ele>2169</ele>
        <time>2021-02-27T09:36:08Z</time>
      </trkpt>
      <trkpt lat="45.21393" lon="6.02202">
        <ele>2167.4</ele>
        <time>2021-02-27T09:36:09Z</time>
      </trkpt>
      <trkpt lat="45.21394" lon="6.02208">
        <ele>2167.4</ele>
        <time>2021-02-27T09:36:10Z</time>
      </trkpt>
      <trkpt lat="45.21394" lon="6.02212">
        <ele>2167.4</ele>
        <time>2021-02-27T09:36:11Z</time>
      </trkpt>
      <trkpt lat="45.21395" lon="6.02215">
        <ele>2167.4</ele>
        <time>2021-02-27T09:36:12Z</time>
      </trkpt>
      <trkpt lat="45.21395" lon="6.02218">
        <ele>2167.4</ele>
        <time>2021-02-27T09:36:13Z</time>
      </trkpt>
      <trkpt lat="45.21395" lon="6.02221">
        <ele>2167.4</ele>
        <time>2021-02-27T09:36:14Z</time>
      </trkpt>
      <trkpt lat="45.21395" lon="6.02224">
        <ele>2167.4</ele>
        <time>2021-02-27T09:36:15Z</time>
      </trkpt>
      <trkpt lat="45.21396" lon="6.02227">
        <ele>2167.4</ele>
        <time>2021-02-27T09:36:16Z</time>
      </trkpt>
      <trkpt lat="45.21396" lon="6.0223">
        <ele>2167.4</ele>
        <time>2021-02-27T09:36:17Z</time>
      </trkpt>
      <trkpt lat="45.21396" lon="6.02233">
        <ele>2167.4</ele>
        <time>2021-02-27T09:36:18Z</time>
      </trkpt>
      <trkpt lat="45.21397" lon="6.02236">
        <ele>2165.6</ele>
        <time>2021-02-27T09:36:19Z</time>
      </trkpt>
      <trkpt lat="45.21397" lon="6.02241">
        <ele>2165.6</ele>
        <time>2021-02-27T09:36:20Z</time>
      </trkpt>
      <trkpt lat="45.21397" lon="6.02244">
        <ele>2165.6</ele>
        <time>2021-02-27T09:36:21Z</time>
      </trkpt>
      <trkpt lat="45.21397" lon="6.0225">
        <ele>2165.6</ele>
        <time>2021-02-27T09:36:23Z</time>
      </trkpt>
      <trkpt lat="45.21398" lon="6.02252">
        <ele>2165.6</ele>
        <time>2021-02-27T09:36:24Z</time>
      </trkpt>
      <trkpt lat="45.214" lon="6.02255">
        <ele>2165.6</ele>
        <time>2021-02-27T09:36:26Z</time>
      </trkpt>
      <trkpt lat="45.214" lon="6.02255">
        <ele>2164.2</ele>
        <time>2021-02-27T09:36:29Z</time>
      </trkpt>
      <trkpt lat="45.21402" lon="6.02256">
        <ele>2164.2</ele>
        <time>2021-02-27T09:36:38Z</time>
      </trkpt>
      <trkpt lat="45.21402" lon="6.02256">
        <ele>2163</ele>
        <time>2021-02-27T09:36:39Z</time>
      </trkpt>
      <trkpt lat="45.21403" lon="6.02258">
        <ele>2164.6</ele>
        <time>2021-02-27T09:36:49Z</time>
      </trkpt>
      <trkpt lat="45.21405" lon="6.0226">
        <ele>2164.2</ele>
        <time>2021-02-27T09:36:59Z</time>
      </trkpt>
      <trkpt lat="45.21407" lon="6.02262">
        <ele>2164.8</ele>
        <time>2021-02-27T09:37:09Z</time>
      </trkpt>
      <trkpt lat="45.21408" lon="6.02264">
        <ele>2163.2</ele>
        <time>2021-02-27T09:37:19Z</time>
      </trkpt>
      <trkpt lat="45.2141" lon="6.02266">
        <ele>2163.4</ele>
        <time>2021-02-27T09:37:29Z</time>
      </trkpt>
      <trkpt lat="45.21412" lon="6.02268">
        <ele>2163.4</ele>
        <time>2021-02-27T09:37:31Z</time>
      </trkpt>
      <trkpt lat="45.21414" lon="6.0227">
        <ele>2163.4</ele>
        <time>2021-02-27T09:37:32Z</time>
      </trkpt>
      <trkpt lat="45.21415" lon="6.02272">
        <ele>2163.4</ele>
        <time>2021-02-27T09:37:33Z</time>
      </trkpt>
      <trkpt lat="45.21417" lon="6.02274">
        <ele>2163.4</ele>
        <time>2021-02-27T09:37:34Z</time>
      </trkpt>
      <trkpt lat="45.21419" lon="6.02276">
        <ele>2163.4</ele>
        <time>2021-02-27T09:37:35Z</time>
      </trkpt>
      <trkpt lat="45.2142" lon="6.02278">
        <ele>2163.4</ele>
        <time>2021-02-27T09:37:36Z</time>
      </trkpt>
      <trkpt lat="45.21422" lon="6.0228">
        <ele>2163.4</ele>
        <time>2021-02-27T09:37:37Z</time>
      </trkpt>
      <trkpt lat="45.21424" lon="6.02282">
        <ele>2163.4</ele>
        <time>2021-02-27T09:37:38Z</time>
      </trkpt>
      <trkpt lat="45.21425" lon="6.02284">
        <ele>2162.4</ele>
        <time>2021-02-27T09:37:39Z</time>
      </trkpt>
      <trkpt lat="45.21432" lon="6.02292">
        <ele>2162.4</ele>
        <time>2021-02-27T09:37:40Z</time>
      </trkpt>
      <trkpt lat="45.21434" lon="6.02297">
        <ele>2162.4</ele>
        <time>2021-02-27T09:37:41Z</time>
      </trkpt>
      <trkpt lat="45.21437" lon="6.02301">
        <ele>2162.4</ele>
        <time>2021-02-27T09:37:42Z</time>
      </trkpt>
      <trkpt lat="45.21439" lon="6.02306">
        <ele>2162.4</ele>
        <time>2021-02-27T09:37:43Z</time>
      </trkpt>
      <trkpt lat="45.21442" lon="6.0231">
        <ele>2162.4</ele>
        <time>2021-02-27T09:37:44Z</time>
      </trkpt>
      <trkpt lat="45.21444" lon="6.02314">
        <ele>2162.4</ele>
        <time>2021-02-27T09:37:45Z</time>
      </trkpt>
      <trkpt lat="45.21447" lon="6.02319">
        <ele>2162.4</ele>
        <time>2021-02-27T09:37:46Z</time>
      </trkpt>
      <trkpt lat="45.21449" lon="6.02323">
        <ele>2162.4</ele>
        <time>2021-02-27T09:37:47Z</time>
      </trkpt>
      <trkpt lat="45.21452" lon="6.02328">
        <ele>2162.4</ele>
        <time>2021-02-27T09:37:48Z</time>
      </trkpt>
      <trkpt lat="45.21454" lon="6.02332">
        <ele>2157.4</ele>
        <time>2021-02-27T09:37:49Z</time>
      </trkpt>
      <trkpt lat="45.21463" lon="6.02348">
        <ele>2157.4</ele>
        <time>2021-02-27T09:37:50Z</time>
      </trkpt>
      <trkpt lat="45.21465" lon="6.02354">
        <ele>2157.4</ele>
        <time>2021-02-27T09:37:51Z</time>
      </trkpt>
      <trkpt lat="45.21466" lon="6.0236">
        <ele>2157.4</ele>
        <time>2021-02-27T09:37:52Z</time>
      </trkpt>
      <trkpt lat="45.21468" lon="6.02366">
        <ele>2157.4</ele>
        <time>2021-02-27T09:37:53Z</time>
      </trkpt>
      <trkpt lat="45.2147" lon="6.02372">
        <ele>2157.4</ele>
        <time>2021-02-27T09:37:54Z</time>
      </trkpt>
      <trkpt lat="45.21471" lon="6.02378">
        <ele>2157.4</ele>
        <time>2021-02-27T09:37:55Z</time>
      </trkpt>
      <trkpt lat="45.21473" lon="6.02384">
        <ele>2157.4</ele>
        <time>2021-02-27T09:37:56Z</time>
      </trkpt>
      <trkpt lat="45.21475" lon="6.0239">
        <ele>2157.4</ele>
        <time>2021-02-27T09:37:57Z</time>
      </trkpt>
      <trkpt lat="45.21476" lon="6.02396">
        <ele>2157.4</ele>
        <time>2021-02-27T09:37:58Z</time>
      </trkpt>
      <trkpt lat="45.21478" lon="6.02402">
        <ele>2143</ele>
        <time>2021-02-27T09:37:59Z</time>
      </trkpt>
      <trkpt lat="45.21478" lon="6.02412">
        <ele>2143</ele>
        <time>2021-02-27T09:38:00Z</time>
      </trkpt>
      <trkpt lat="45.21476" lon="6.02416">
        <ele>2143</ele>
        <time>2021-02-27T09:38:01Z</time>
      </trkpt>
      <trkpt lat="45.21475" lon="6.02421">
        <ele>2143</ele>
        <time>2021-02-27T09:38:02Z</time>
      </trkpt>
      <trkpt lat="45.21473" lon="6.02426">
        <ele>2143</ele>
        <time>2021-02-27T09:38:03Z</time>
      </trkpt>
      <trkpt lat="45.21472" lon="6.0243">
        <ele>2143</ele>
        <time>2021-02-27T09:38:04Z</time>
      </trkpt>
      <trkpt lat="45.2147" lon="6.02435">
        <ele>2143</ele>
        <time>2021-02-27T09:38:05Z</time>
      </trkpt>
      <trkpt lat="45.21469" lon="6.0244">
        <ele>2143</ele>
        <time>2021-02-27T09:38:06Z</time>
      </trkpt>
      <trkpt lat="45.21467" lon="6.02444">
        <ele>2143</ele>
        <time>2021-02-27T09:38:07Z</time>
      </trkpt>
      <trkpt lat="45.21466" lon="6.02449">
        <ele>2143</ele>
        <time>2021-02-27T09:38:08Z</time>
      </trkpt>
      <trkpt lat="45.21464" lon="6.02454">
        <ele>2125.4</ele>
        <time>2021-02-27T09:38:09Z</time>
      </trkpt>
      <trkpt lat="45.21461" lon="6.02461">
        <ele>2125.4</ele>
        <time>2021-02-27T09:38:10Z</time>
      </trkpt>
      <trkpt lat="45.21461" lon="6.02466">
        <ele>2125.4</ele>
        <time>2021-02-27T09:38:11Z</time>
      </trkpt>
      <trkpt lat="45.2146" lon="6.0247">
        <ele>2125.4</ele>
        <time>2021-02-27T09:38:12Z</time>
      </trkpt>
      <trkpt lat="45.2146" lon="6.02475">
        <ele>2125.4</ele>
        <time>2021-02-27T09:38:13Z</time>
      </trkpt>
      <trkpt lat="45.2146" lon="6.0248">
        <ele>2125.4</ele>
        <time>2021-02-27T09:38:14Z</time>
      </trkpt>
      <trkpt lat="45.2146" lon="6.02484">
        <ele>2125.4</ele>
        <time>2021-02-27T09:38:15Z</time>
      </trkpt>
      <trkpt lat="45.2146" lon="6.02489">
        <ele>2125.4</ele>
        <time>2021-02-27T09:38:16Z</time>
      </trkpt>
      <trkpt lat="45.2146" lon="6.02493">
        <ele>2125.4</ele>
        <time>2021-02-27T09:38:17Z</time>
      </trkpt>
      <trkpt lat="45.2146" lon="6.02498">
        <ele>2125.4</ele>
        <time>2021-02-27T09:38:18Z</time>
      </trkpt>
      <trkpt lat="45.2146" lon="6.02503">
        <ele>2110.8</ele>
        <time>2021-02-27T09:38:19Z</time>
      </trkpt>
      <trkpt lat="45.21465" lon="6.0252">
        <ele>2110.8</ele>
        <time>2021-02-27T09:38:20Z</time>
      </trkpt>
      <trkpt lat="45.21467" lon="6.02527">
        <ele>2110.8</ele>
        <time>2021-02-27T09:38:21Z</time>
      </trkpt>
      <trkpt lat="45.21469" lon="6.02534">
        <ele>2110.8</ele>
        <time>2021-02-27T09:38:22Z</time>
      </trkpt>
      <trkpt lat="45.21471" lon="6.02541">
        <ele>2110.8</ele>
        <time>2021-02-27T09:38:23Z</time>
      </trkpt>
      <trkpt lat="45.21473" lon="6.02548">
        <ele>2110.8</ele>
        <time>2021-02-27T09:38:24Z</time>
      </trkpt>
      <trkpt lat="45.21476" lon="6.02556">
        <ele>2110.8</ele>
        <time>2021-02-27T09:38:25Z</time>
      </trkpt>
      <trkpt lat="45.21478" lon="6.02563">
        <ele>2110.8</ele>
        <time>2021-02-27T09:38:26Z</time>
      </trkpt>
      <trkpt lat="45.2148" lon="6.0257">
        <ele>2110.8</ele>
        <time>2021-02-27T09:38:27Z</time>
      </trkpt>
      <trkpt lat="45.21482" lon="6.02577">
        <ele>2110.8</ele>
        <time>2021-02-27T09:38:28Z</time>
      </trkpt>
      <trkpt lat="45.21484" lon="6.02584">
        <ele>2098.6</ele>
        <time>2021-02-27T09:38:29Z</time>
      </trkpt>
      <trkpt lat="45.21493" lon="6.02598">
        <ele>2098.6</ele>
        <time>2021-02-27T09:38:30Z</time>
      </trkpt>
      <trkpt lat="45.21497" lon="6.02604">
        <ele>2098.6</ele>
        <time>2021-02-27T09:38:31Z</time>
      </trkpt>
      <trkpt lat="45.21501" lon="6.02609">
        <ele>2098.6</ele>
        <time>2021-02-27T09:38:32Z</time>
      </trkpt>
      <trkpt lat="45.21505" lon="6.02614">
        <ele>2098.6</ele>
        <time>2021-02-27T09:38:33Z</time>
      </trkpt>
      <trkpt lat="45.21509" lon="6.0262">
        <ele>2098.6</ele>
        <time>2021-02-27T09:38:34Z</time>
      </trkpt>
      <trkpt lat="45.21513" lon="6.02625">
        <ele>2098.6</ele>
        <time>2021-02-27T09:38:35Z</time>
      </trkpt>
      <trkpt lat="45.21517" lon="6.0263">
        <ele>2098.6</ele>
        <time>2021-02-27T09:38:36Z</time>
      </trkpt>
      <trkpt lat="45.21521" lon="6.02636">
        <ele>2098.6</ele>
        <time>2021-02-27T09:38:37Z</time>
      </trkpt>
      <trkpt lat="45.21525" lon="6.02641">
        <ele>2098.6</ele>
        <time>2021-02-27T09:38:38Z</time>
      </trkpt>
      <trkpt lat="45.21529" lon="6.02646">
        <ele>2089.8</ele>
        <time>2021-02-27T09:38:39Z</time>
      </trkpt>
      <trkpt lat="45.21534" lon="6.02655">
        <ele>2089.8</ele>
        <time>2021-02-27T09:38:40Z</time>
      </trkpt>
      <trkpt lat="45.21535" lon="6.02659">
        <ele>2089.8</ele>
        <time>2021-02-27T09:38:41Z</time>
      </trkpt>
      <trkpt lat="45.21536" lon="6.02663">
        <ele>2089.8</ele>
        <time>2021-02-27T09:38:42Z</time>
      </trkpt>
      <trkpt lat="45.21537" lon="6.02667">
        <ele>2089.8</ele>
        <time>2021-02-27T09:38:43Z</time>
      </trkpt>
      <trkpt lat="45.21538" lon="6.0267">
        <ele>2089.8</ele>
        <time>2021-02-27T09:38:44Z</time>
      </trkpt>
      <trkpt lat="45.21539" lon="6.02674">
        <ele>2089.8</ele>
        <time>2021-02-27T09:38:45Z</time>
      </trkpt>
      <trkpt lat="45.2154" lon="6.02678">
        <ele>2089.8</ele>
        <time>2021-02-27T09:38:46Z</time>
      </trkpt>
      <trkpt lat="45.21541" lon="6.02681">
        <ele>2089.8</ele>
        <time>2021-02-27T09:38:47Z</time>
      </trkpt>
      <trkpt lat="45.21542" lon="6.02685">
        <ele>2089.8</ele>
        <time>2021-02-27T09:38:48Z</time>
      </trkpt>
      <trkpt lat="45.21543" lon="6.02689">
        <ele>2079.6</ele>
        <time>2021-02-27T09:38:49Z</time>
      </trkpt>
      <trkpt lat="45.21551" lon="6.02693">
        <ele>2079.6</ele>
        <time>2021-02-27T09:38:50Z</time>
      </trkpt>
      <trkpt lat="45.21554" lon="6.02696">
        <ele>2079.6</ele>
        <time>2021-02-27T09:38:51Z</time>
      </trkpt>
      <trkpt lat="45.21557" lon="6.02699">
        <ele>2079.6</ele>
        <time>2021-02-27T09:38:52Z</time>
      </trkpt>
      <trkpt lat="45.21559" lon="6.02702">
        <ele>2079.6</ele>
        <time>2021-02-27T09:38:53Z</time>
      </trkpt>
      <trkpt lat="45.21562" lon="6.02705">
        <ele>2079.6</ele>
        <time>2021-02-27T09:38:54Z</time>
      </trkpt>
      <trkpt lat="45.21565" lon="6.02709">
        <ele>2079.6</ele>
        <time>2021-02-27T09:38:55Z</time>
      </trkpt>
      <trkpt lat="45.21568" lon="6.02712">
        <ele>2079.6</ele>
        <time>2021-02-27T09:38:56Z</time>
      </trkpt>
      <trkpt lat="45.2157" lon="6.02715">
        <ele>2079.6</ele>
        <time>2021-02-27T09:38:57Z</time>
      </trkpt>
      <trkpt lat="45.21573" lon="6.02718">
        <ele>2079.6</ele>
        <time>2021-02-27T09:38:58Z</time>
      </trkpt>
      <trkpt lat="45.21576" lon="6.02721">
        <ele>2071.6</ele>
        <time>2021-02-27T09:38:59Z</time>
      </trkpt>
      <trkpt lat="45.21581" lon="6.02728">
        <ele>2071.6</ele>
        <time>2021-02-27T09:39:00Z</time>
      </trkpt>
      <trkpt lat="45.21584" lon="6.02731">
        <ele>2071.6</ele>
        <time>2021-02-27T09:39:01Z</time>
      </trkpt>
      <trkpt lat="45.21588" lon="6.02734">
        <ele>2071.6</ele>
        <time>2021-02-27T09:39:02Z</time>
      </trkpt>
      <trkpt lat="45.21591" lon="6.02737">
        <ele>2071.6</ele>
        <time>2021-02-27T09:39:03Z</time>
      </trkpt>
      <trkpt lat="45.21594" lon="6.0274">
        <ele>2071.6</ele>
        <time>2021-02-27T09:39:04Z</time>
      </trkpt>
      <trkpt lat="45.21597" lon="6.02743">
        <ele>2071.6</ele>
        <time>2021-02-27T09:39:05Z</time>
      </trkpt>
      <trkpt lat="45.21601" lon="6.02746">
        <ele>2071.6</ele>
        <time>2021-02-27T09:39:06Z</time>
      </trkpt>
      <trkpt lat="45.21604" lon="6.02749">
        <ele>2071.6</ele>
        <time>2021-02-27T09:39:07Z</time>
      </trkpt>
      <trkpt lat="45.21607" lon="6.02752">
        <ele>2071.6</ele>
        <time>2021-02-27T09:39:08Z</time>
      </trkpt>
      <trkpt lat="45.2161" lon="6.02755">
        <ele>2060.6</ele>
        <time>2021-02-27T09:39:09Z</time>
      </trkpt>
      <trkpt lat="45.21611" lon="6.02761">
        <ele>2060.6</ele>
        <time>2021-02-27T09:39:10Z</time>
      </trkpt>
      <trkpt lat="45.21612" lon="6.02764">
        <ele>2060.6</ele>
        <time>2021-02-27T09:39:11Z</time>
      </trkpt>
      <trkpt lat="45.21613" lon="6.02767">
        <ele>2060.6</ele>
        <time>2021-02-27T09:39:12Z</time>
      </trkpt>
      <trkpt lat="45.21614" lon="6.02771">
        <ele>2060.6</ele>
        <time>2021-02-27T09:39:13Z</time>
      </trkpt>
      <trkpt lat="45.21615" lon="6.02774">
        <ele>2060.6</ele>
        <time>2021-02-27T09:39:14Z</time>
      </trkpt>
      <trkpt lat="45.21616" lon="6.02777">
        <ele>2060.6</ele>
        <time>2021-02-27T09:39:15Z</time>
      </trkpt>
      <trkpt lat="45.21617" lon="6.0278">
        <ele>2060.6</ele>
        <time>2021-02-27T09:39:16Z</time>
      </trkpt>
      <trkpt lat="45.21618" lon="6.02784">
        <ele>2060.6</ele>
        <time>2021-02-27T09:39:17Z</time>
      </trkpt>
      <trkpt lat="45.21619" lon="6.02787">
        <ele>2060.6</ele>
        <time>2021-02-27T09:39:18Z</time>
      </trkpt>
      <trkpt lat="45.2162" lon="6.0279">
        <ele>2044.6</ele>
        <time>2021-02-27T09:39:19Z</time>
      </trkpt>
      <trkpt lat="45.21626" lon="6.02797">
        <ele>2044.6</ele>
        <time>2021-02-27T09:39:20Z</time>
      </trkpt>
      <trkpt lat="45.21629" lon="6.028">
        <ele>2044.6</ele>
        <time>2021-02-27T09:39:21Z</time>
      </trkpt>
      <trkpt lat="45.21632" lon="6.02803">
        <ele>2044.6</ele>
        <time>2021-02-27T09:39:22Z</time>
      </trkpt>
      <trkpt lat="45.21635" lon="6.02806">
        <ele>2044.6</ele>
        <time>2021-02-27T09:39:23Z</time>
      </trkpt>
      <trkpt lat="45.21638" lon="6.02809">
        <ele>2044.6</ele>
        <time>2021-02-27T09:39:24Z</time>
      </trkpt>
      <trkpt lat="45.21641" lon="6.02812">
        <ele>2044.6</ele>
        <time>2021-02-27T09:39:25Z</time>
      </trkpt>
      <trkpt lat="45.21644" lon="6.02815">
        <ele>2044.6</ele>
        <time>2021-02-27T09:39:26Z</time>
      </trkpt>
      <trkpt lat="45.21647" lon="6.02818">
        <ele>2044.6</ele>
        <time>2021-02-27T09:39:28Z</time>
      </trkpt>
      <trkpt lat="45.2165" lon="6.02821">
        <ele>2036.2</ele>
        <time>2021-02-27T09:39:29Z</time>
      </trkpt>
      <trkpt lat="45.21652" lon="6.02824">
        <ele>2036.2</ele>
        <time>2021-02-27T09:39:32Z</time>
      </trkpt>
      <trkpt lat="45.21652" lon="6.02826">
        <ele>2036.2</ele>
        <time>2021-02-27T09:39:33Z</time>
      </trkpt>
      <trkpt lat="45.21653" lon="6.02829">
        <ele>2036.2</ele>
        <time>2021-02-27T09:39:34Z</time>
      </trkpt>
      <trkpt lat="45.21653" lon="6.02832">
        <ele>2036.2</ele>
        <time>2021-02-27T09:39:35Z</time>
      </trkpt>
      <trkpt lat="45.21654" lon="6.02834">
        <ele>2036.2</ele>
        <time>2021-02-27T09:39:36Z</time>
      </trkpt>
      <trkpt lat="45.21654" lon="6.02837">
        <ele>2036.2</ele>
        <time>2021-02-27T09:39:37Z</time>
      </trkpt>
      <trkpt lat="45.21654" lon="6.02839">
        <ele>2029.6</ele>
        <time>2021-02-27T09:39:39Z</time>
      </trkpt>
      <trkpt lat="45.2166" lon="6.02842">
        <ele>2029.6</ele>
        <time>2021-02-27T09:39:40Z</time>
      </trkpt>
      <trkpt lat="45.21663" lon="6.02844">
        <ele>2029.6</ele>
        <time>2021-02-27T09:39:41Z</time>
      </trkpt>
      <trkpt lat="45.21665" lon="6.02847">
        <ele>2029.6</ele>
        <time>2021-02-27T09:39:42Z</time>
      </trkpt>
      <trkpt lat="45.21668" lon="6.02849">
        <ele>2029.6</ele>
        <time>2021-02-27T09:39:43Z</time>
      </trkpt>
      <trkpt lat="45.21671" lon="6.02851">
        <ele>2029.6</ele>
        <time>2021-02-27T09:39:44Z</time>
      </trkpt>
      <trkpt lat="45.21673" lon="6.02853">
        <ele>2029.6</ele>
        <time>2021-02-27T09:39:45Z</time>
      </trkpt>
      <trkpt lat="45.21676" lon="6.02856">
        <ele>2029.6</ele>
        <time>2021-02-27T09:39:46Z</time>
      </trkpt>
      <trkpt lat="45.21679" lon="6.02858">
        <ele>2029.6</ele>
        <time>2021-02-27T09:39:47Z</time>
      </trkpt>
      <trkpt lat="45.21681" lon="6.0286">
        <ele>2029.6</ele>
        <time>2021-02-27T09:39:48Z</time>
      </trkpt>
      <trkpt lat="45.21684" lon="6.02862">
        <ele>2019.4</ele>
        <time>2021-02-27T09:39:49Z</time>
      </trkpt>
      <trkpt lat="45.21686" lon="6.02867">
        <ele>2019.4</ele>
        <time>2021-02-27T09:39:50Z</time>
      </trkpt>
      <trkpt lat="45.21688" lon="6.0287">
        <ele>2019.4</ele>
        <time>2021-02-27T09:39:51Z</time>
      </trkpt>
      <trkpt lat="45.2169" lon="6.02873">
        <ele>2019.4</ele>
        <time>2021-02-27T09:39:52Z</time>
      </trkpt>
      <trkpt lat="45.21693" lon="6.02876">
        <ele>2019.4</ele>
        <time>2021-02-27T09:39:53Z</time>
      </trkpt>
      <trkpt lat="45.21695" lon="6.0288">
        <ele>2019.4</ele>
        <time>2021-02-27T09:39:54Z</time>
      </trkpt>
      <trkpt lat="45.21697" lon="6.02883">
        <ele>2019.4</ele>
        <time>2021-02-27T09:39:55Z</time>
      </trkpt>
      <trkpt lat="45.21699" lon="6.02886">
        <ele>2019.4</ele>
        <time>2021-02-27T09:39:56Z</time>
      </trkpt>
      <trkpt lat="45.21702" lon="6.02889">
        <ele>2019.4</ele>
        <time>2021-02-27T09:39:58Z</time>
      </trkpt>
      <trkpt lat="45.21704" lon="6.02892">
        <ele>2012</ele>
        <time>2021-02-27T09:39:59Z</time>
      </trkpt>
      <trkpt lat="45.2171" lon="6.02897">
        <ele>2012</ele>
        <time>2021-02-27T09:40:00Z</time>
      </trkpt>
      <trkpt lat="45.21713" lon="6.029">
        <ele>2012</ele>
        <time>2021-02-27T09:40:01Z</time>
      </trkpt>
      <trkpt lat="45.21717" lon="6.02902">
        <ele>2012</ele>
        <time>2021-02-27T09:40:02Z</time>
      </trkpt>
      <trkpt lat="45.2172" lon="6.02904">
        <ele>2012</ele>
        <time>2021-02-27T09:40:03Z</time>
      </trkpt>
      <trkpt lat="45.21723" lon="6.02907">
        <ele>2012</ele>
        <time>2021-02-27T09:40:04Z</time>
      </trkpt>
      <trkpt lat="45.21726" lon="6.02909">
        <ele>2012</ele>
        <time>2021-02-27T09:40:05Z</time>
      </trkpt>
      <trkpt lat="45.21729" lon="6.02912">
        <ele>2012</ele>
        <time>2021-02-27T09:40:06Z</time>
      </trkpt>
      <trkpt lat="45.21732" lon="6.02914">
        <ele>2012</ele>
        <time>2021-02-27T09:40:07Z</time>
      </trkpt>
      <trkpt lat="45.21735" lon="6.02917">
        <ele>2012</ele>
        <time>2021-02-27T09:40:08Z</time>
      </trkpt>
      <trkpt lat="45.21738" lon="6.02919">
        <ele>1997.4</ele>
        <time>2021-02-27T09:40:09Z</time>
      </trkpt>
      <trkpt lat="45.21745" lon="6.02931">
        <ele>1997.4</ele>
        <time>2021-02-27T09:40:10Z</time>
      </trkpt>
      <trkpt lat="45.21748" lon="6.02938">
        <ele>1997.4</ele>
        <time>2021-02-27T09:40:11Z</time>
      </trkpt>
      <trkpt lat="45.2175" lon="6.02945">
        <ele>1997.4</ele>
        <time>2021-02-27T09:40:12Z</time>
      </trkpt>
      <trkpt lat="45.21752" lon="6.02952">
        <ele>1997.4</ele>
        <time>2021-02-27T09:40:13Z</time>
      </trkpt>
      <trkpt lat="45.21755" lon="6.02959">
        <ele>1997.4</ele>
        <time>2021-02-27T09:40:14Z</time>
      </trkpt>
      <trkpt lat="45.21757" lon="6.02966">
        <ele>1997.4</ele>
        <time>2021-02-27T09:40:15Z</time>
      </trkpt>
      <trkpt lat="45.21759" lon="6.02973">
        <ele>1997.4</ele>
        <time>2021-02-27T09:40:16Z</time>
      </trkpt>
      <trkpt lat="45.21762" lon="6.0298">
        <ele>1997.4</ele>
        <time>2021-02-27T09:40:17Z</time>
      </trkpt>
      <trkpt lat="45.21764" lon="6.02987">
        <ele>1997.4</ele>
        <time>2021-02-27T09:40:18Z</time>
      </trkpt>
      <trkpt lat="45.21766" lon="6.02994">
        <ele>1988.4</ele>
        <time>2021-02-27T09:40:19Z</time>
      </trkpt>
      <trkpt lat="45.21767" lon="6.03006">
        <ele>1988.4</ele>
        <time>2021-02-27T09:40:20Z</time>
      </trkpt>
      <trkpt lat="45.21767" lon="6.03011">
        <ele>1988.4</ele>
        <time>2021-02-27T09:40:21Z</time>
      </trkpt>
      <trkpt lat="45.21767" lon="6.03015">
        <ele>1988.4</ele>
        <time>2021-02-27T09:40:22Z</time>
      </trkpt>
      <trkpt lat="45.21766" lon="6.0302">
        <ele>1988.4</ele>
        <time>2021-02-27T09:40:23Z</time>
      </trkpt>
      <trkpt lat="45.21766" lon="6.03025">
        <ele>1988.4</ele>
        <time>2021-02-27T09:40:24Z</time>
      </trkpt>
      <trkpt lat="45.21766" lon="6.03029">
        <ele>1988.4</ele>
        <time>2021-02-27T09:40:25Z</time>
      </trkpt>
      <trkpt lat="45.21766" lon="6.03034">
        <ele>1988.4</ele>
        <time>2021-02-27T09:40:26Z</time>
      </trkpt>
      <trkpt lat="45.21766" lon="6.03038">
        <ele>1988.4</ele>
        <time>2021-02-27T09:40:27Z</time>
      </trkpt>
      <trkpt lat="45.21765" lon="6.03043">
        <ele>1988.4</ele>
        <time>2021-02-27T09:40:28Z</time>
      </trkpt>
      <trkpt lat="45.21765" lon="6.03048">
        <ele>1984.8</ele>
        <time>2021-02-27T09:40:29Z</time>
      </trkpt>
      <trkpt lat="45.21765" lon="6.03052">
        <ele>1984.8</ele>
        <time>2021-02-27T09:40:30Z</time>
      </trkpt>
      <trkpt lat="45.21765" lon="6.03055">
        <ele>1984.8</ele>
        <time>2021-02-27T09:40:31Z</time>
      </trkpt>
      <trkpt lat="45.21766" lon="6.0306">
        <ele>1984.8</ele>
        <time>2021-02-27T09:40:33Z</time>
      </trkpt>
      <trkpt lat="45.21766" lon="6.03062">
        <ele>1984.8</ele>
        <time>2021-02-27T09:40:35Z</time>
      </trkpt>
      <trkpt lat="45.21766" lon="6.03062">
        <ele>1984.2</ele>
        <time>2021-02-27T09:40:39Z</time>
      </trkpt>
      <trkpt lat="45.21767" lon="6.03063">
        <ele>1983.6</ele>
        <time>2021-02-27T09:40:49Z</time>
      </trkpt>
      <trkpt lat="45.21767" lon="6.03065">
        <ele>1984</ele>
        <time>2021-02-27T09:40:59Z</time>
      </trkpt>
      <trkpt lat="45.21767" lon="6.03066">
        <ele>1983.4</ele>
        <time>2021-02-27T09:41:09Z</time>
      </trkpt>
      <trkpt lat="45.21767" lon="6.03067">
        <ele>1984</ele>
        <time>2021-02-27T09:41:19Z</time>
      </trkpt>
      <trkpt lat="45.21767" lon="6.03068">
        <ele>1984.2</ele>
        <time>2021-02-27T09:41:29Z</time>
      </trkpt>
      <trkpt lat="45.21768" lon="6.03069">
        <ele>1984</ele>
        <time>2021-02-27T09:41:39Z</time>
      </trkpt>
      <trkpt lat="45.21768" lon="6.0307">
        <ele>1983.6</ele>
        <time>2021-02-27T09:41:49Z</time>
      </trkpt>
      <trkpt lat="45.21768" lon="6.03071">
        <ele>1983.8</ele>
        <time>2021-02-27T09:41:59Z</time>
      </trkpt>
      <trkpt lat="45.21768" lon="6.03072">
        <ele>1983.6</ele>
        <time>2021-02-27T09:42:09Z</time>
      </trkpt>
      <trkpt lat="45.21768" lon="6.03073">
        <ele>1983.8</ele>
        <time>2021-02-27T09:42:19Z</time>
      </trkpt>
      <trkpt lat="45.21768" lon="6.03074">
        <ele>1984</ele>
        <time>2021-02-27T09:42:29Z</time>
      </trkpt>
      <trkpt lat="45.21769" lon="6.03075">
        <ele>1984</ele>
        <time>2021-02-27T09:42:32Z</time>
      </trkpt>
      <trkpt lat="45.21769" lon="6.03076">
        <ele>1984</ele>
        <time>2021-02-27T09:42:34Z</time>
      </trkpt>
      <trkpt lat="45.21769" lon="6.03077">
        <ele>1984</ele>
        <time>2021-02-27T09:42:36Z</time>
      </trkpt>
      <trkpt lat="45.21769" lon="6.03078">
        <ele>1984</ele>
        <time>2021-02-27T09:42:38Z</time>
      </trkpt>
      <trkpt lat="45.21769" lon="6.03079">
        <ele>1984.8</ele>
        <time>2021-02-27T09:42:39Z</time>
      </trkpt>
      <trkpt lat="45.2177" lon="6.03083">
        <ele>1984.8</ele>
        <time>2021-02-27T09:42:40Z</time>
      </trkpt>
      <trkpt lat="45.2177" lon="6.03085">
        <ele>1984.8</ele>
        <time>2021-02-27T09:42:42Z</time>
      </trkpt>
      <trkpt lat="45.2177" lon="6.03087">
        <ele>1984.8</ele>
        <time>2021-02-27T09:42:44Z</time>
      </trkpt>
      <trkpt lat="45.21771" lon="6.03089">
        <ele>1984.8</ele>
        <time>2021-02-27T09:42:46Z</time>
      </trkpt>
      <trkpt lat="45.21771" lon="6.03092">
        <ele>1984.8</ele>
        <time>2021-02-27T09:42:48Z</time>
      </trkpt>
      <trkpt lat="45.21772" lon="6.03094">
        <ele>1986.6</ele>
        <time>2021-02-27T09:42:49Z</time>
      </trkpt>
      <trkpt lat="45.21772" lon="6.03098">
        <ele>1986.6</ele>
        <time>2021-02-27T09:42:50Z</time>
      </trkpt>
      <trkpt lat="45.21772" lon="6.031">
        <ele>1986.6</ele>
        <time>2021-02-27T09:42:52Z</time>
      </trkpt>
      <trkpt lat="45.21772" lon="6.03102">
        <ele>1986.6</ele>
        <time>2021-02-27T09:42:54Z</time>
      </trkpt>
      <trkpt lat="45.21772" lon="6.03105">
        <ele>1986.6</ele>
        <time>2021-02-27T09:42:56Z</time>
      </trkpt>
      <trkpt lat="45.21773" lon="6.03107">
        <ele>1986.6</ele>
        <time>2021-02-27T09:42:58Z</time>
      </trkpt>
      <trkpt lat="45.21773" lon="6.03109">
        <ele>1989.2</ele>
        <time>2021-02-27T09:42:59Z</time>
      </trkpt>
      <trkpt lat="45.21773" lon="6.03112">
        <ele>1989.2</ele>
        <time>2021-02-27T09:43:00Z</time>
      </trkpt>
      <trkpt lat="45.21773" lon="6.03114">
        <ele>1989.2</ele>
        <time>2021-02-27T09:43:02Z</time>
      </trkpt>
      <trkpt lat="45.21773" lon="6.03116">
        <ele>1989.2</ele>
        <time>2021-02-27T09:43:04Z</time>
      </trkpt>
      <trkpt lat="45.21773" lon="6.03118">
        <ele>1989.2</ele>
        <time>2021-02-27T09:43:06Z</time>
      </trkpt>
      <trkpt lat="45.21773" lon="6.0312">
        <ele>1989.2</ele>
        <time>2021-02-27T09:43:08Z</time>
      </trkpt>
      <trkpt lat="45.21773" lon="6.03122">
        <ele>1991.2</ele>
        <time>2021-02-27T09:43:09Z</time>
      </trkpt>
      <trkpt lat="45.21772" lon="6.03127">
        <ele>1991.2</ele>
        <time>2021-02-27T09:43:10Z</time>
      </trkpt>
      <trkpt lat="45.21772" lon="6.03129">
        <ele>1991.2</ele>
        <time>2021-02-27T09:43:13Z</time>
      </trkpt>
      <trkpt lat="45.21772" lon="6.0313">
        <ele>1991.2</ele>
        <time>2021-02-27T09:43:15Z</time>
      </trkpt>
      <trkpt lat="45.21772" lon="6.03132">
        <ele>1991.2</ele>
        <time>2021-02-27T09:43:18Z</time>
      </trkpt>
      <trkpt lat="45.21771" lon="6.03134">
        <ele>1993</ele>
        <time>2021-02-27T09:43:19Z</time>
      </trkpt>
      <trkpt lat="45.21771" lon="6.03137">
        <ele>1993</ele>
        <time>2021-02-27T09:43:21Z</time>
      </trkpt>
      <trkpt lat="45.21772" lon="6.03139">
        <ele>1993</ele>
        <time>2021-02-27T09:43:23Z</time>
      </trkpt>
      <trkpt lat="45.21773" lon="6.03141">
        <ele>1993</ele>
        <time>2021-02-27T09:43:26Z</time>
      </trkpt>
      <trkpt lat="45.21774" lon="6.03145">
        <ele>1995.8</ele>
        <time>2021-02-27T09:43:29Z</time>
      </trkpt>
      <trkpt lat="45.21776" lon="6.03151">
        <ele>1995.8</ele>
        <time>2021-02-27T09:43:31Z</time>
      </trkpt>
      <trkpt lat="45.21776" lon="6.03153">
        <ele>1995.8</ele>
        <time>2021-02-27T09:43:34Z</time>
      </trkpt>
      <trkpt lat="45.21777" lon="6.03156">
        <ele>1995.8</ele>
        <time>2021-02-27T09:43:36Z</time>
      </trkpt>
      <trkpt lat="45.21778" lon="6.03158">
        <ele>1995.8</ele>
        <time>2021-02-27T09:43:38Z</time>
      </trkpt>
      <trkpt lat="45.21779" lon="6.03161">
        <ele>1999.4</ele>
        <time>2021-02-27T09:43:39Z</time>
      </trkpt>
      <trkpt lat="45.2178" lon="6.03165">
        <ele>1999.4</ele>
        <time>2021-02-27T09:43:40Z</time>
      </trkpt>
      <trkpt lat="45.21781" lon="6.03168">
        <ele>1999.4</ele>
        <time>2021-02-27T09:43:42Z</time>
      </trkpt>
      <trkpt lat="45.21782" lon="6.0317">
        <ele>1999.4</ele>
        <time>2021-02-27T09:43:44Z</time>
      </trkpt>
      <trkpt lat="45.21782" lon="6.03173">
        <ele>1999.4</ele>
        <time>2021-02-27T09:43:46Z</time>
      </trkpt>
      <trkpt lat="45.21783" lon="6.03175">
        <ele>1999.4</ele>
        <time>2021-02-27T09:43:48Z</time>
      </trkpt>
      <trkpt lat="45.21784" lon="6.03178">
        <ele>2000.8</ele>
        <time>2021-02-27T09:43:49Z</time>
      </trkpt>
      <trkpt lat="45.21786" lon="6.03183">
        <ele>2000.8</ele>
        <time>2021-02-27T09:43:50Z</time>
      </trkpt>
      <trkpt lat="45.21786" lon="6.03186">
        <ele>2000.8</ele>
        <time>2021-02-27T09:43:52Z</time>
      </trkpt>
      <trkpt lat="45.21787" lon="6.03189">
        <ele>2000.8</ele>
        <time>2021-02-27T09:43:54Z</time>
      </trkpt>
      <trkpt lat="45.21788" lon="6.03192">
        <ele>2000.8</ele>
        <time>2021-02-27T09:43:56Z</time>
      </trkpt>
      <trkpt lat="45.21789" lon="6.03195">
        <ele>2000.8</ele>
        <time>2021-02-27T09:43:58Z</time>
      </trkpt>
      <trkpt lat="45.2179" lon="6.03198">
        <ele>2001.4</ele>
        <time>2021-02-27T09:43:59Z</time>
      </trkpt>
      <trkpt lat="45.21791" lon="6.03203">
        <ele>2001.4</ele>
        <time>2021-02-27T09:44:00Z</time>
      </trkpt>
      <trkpt lat="45.21791" lon="6.03205">
        <ele>2001.4</ele>
        <time>2021-02-27T09:44:02Z</time>
      </trkpt>
      <trkpt lat="45.21792" lon="6.03208">
        <ele>2001.4</ele>
        <time>2021-02-27T09:44:04Z</time>
      </trkpt>
      <trkpt lat="45.21792" lon="6.03211">
        <ele>2001.4</ele>
        <time>2021-02-27T09:44:06Z</time>
      </trkpt>
      <trkpt lat="45.21792" lon="6.03213">
        <ele>2001.4</ele>
        <time>2021-02-27T09:44:08Z</time>
      </trkpt>
      <trkpt lat="45.21793" lon="6.03216">
        <ele>2002.2</ele>
        <time>2021-02-27T09:44:09Z</time>
      </trkpt>
      <trkpt lat="45.21794" lon="6.03221">
        <ele>2002.2</ele>
        <time>2021-02-27T09:44:10Z</time>
      </trkpt>
      <trkpt lat="45.21794" lon="6.03223">
        <ele>2002.2</ele>
        <time>2021-02-27T09:44:12Z</time>
      </trkpt>
      <trkpt lat="45.21795" lon="6.03226">
        <ele>2002.2</ele>
        <time>2021-02-27T09:44:14Z</time>
      </trkpt>
      <trkpt lat="45.21796" lon="6.03228">
        <ele>2002.2</ele>
        <time>2021-02-27T09:44:16Z</time>
      </trkpt>
      <trkpt lat="45.21796" lon="6.03231">
        <ele>2002.2</ele>
        <time>2021-02-27T09:44:18Z</time>
      </trkpt>
      <trkpt lat="45.21797" lon="6.03234">
        <ele>2004.2</ele>
        <time>2021-02-27T09:44:19Z</time>
      </trkpt>
      <trkpt lat="45.21797" lon="6.03237">
        <ele>2004.2</ele>
        <time>2021-02-27T09:44:20Z</time>
      </trkpt>
      <trkpt lat="45.21798" lon="6.0324">
        <ele>2004.2</ele>
        <time>2021-02-27T09:44:22Z</time>
      </trkpt>
      <trkpt lat="45.21798" lon="6.03242">
        <ele>2004.2</ele>
        <time>2021-02-27T09:44:24Z</time>
      </trkpt>
      <trkpt lat="45.21799" lon="6.03244">
        <ele>2004.2</ele>
        <time>2021-02-27T09:44:26Z</time>
      </trkpt>
      <trkpt lat="45.21799" lon="6.03246">
        <ele>2004.2</ele>
        <time>2021-02-27T09:44:28Z</time>
      </trkpt>
      <trkpt lat="45.218" lon="6.03249">
        <ele>2005.8</ele>
        <time>2021-02-27T09:44:29Z</time>
      </trkpt>
      <trkpt lat="45.218" lon="6.03252">
        <ele>2005.8</ele>
        <time>2021-02-27T09:44:30Z</time>
      </trkpt>
      <trkpt lat="45.21801" lon="6.03254">
        <ele>2005.8</ele>
        <time>2021-02-27T09:44:35Z</time>
      </trkpt>
      <trkpt lat="45.21801" lon="6.03256">
        <ele>2005.8</ele>
        <time>2021-02-27T09:44:38Z</time>
      </trkpt>
      <trkpt lat="45.21801" lon="6.03257">
        <ele>2007.8</ele>
        <time>2021-02-27T09:44:39Z</time>
      </trkpt>
      <trkpt lat="45.21803" lon="6.03262">
        <ele>2007.8</ele>
        <time>2021-02-27T09:44:40Z</time>
      </trkpt>
      <trkpt lat="45.21804" lon="6.03264">
        <ele>2007.8</ele>
        <time>2021-02-27T09:44:43Z</time>
      </trkpt>
      <trkpt lat="45.21804" lon="6.03266">
        <ele>2007.8</ele>
        <time>2021-02-27T09:44:45Z</time>
      </trkpt>
      <trkpt lat="45.21805" lon="6.03268">
        <ele>2007.8</ele>
        <time>2021-02-27T09:44:48Z</time>
      </trkpt>
      <trkpt lat="45.21805" lon="6.0327">
        <ele>2010</ele>
        <time>2021-02-27T09:44:49Z</time>
      </trkpt>
      <trkpt lat="45.21806" lon="6.03274">
        <ele>2010</ele>
        <time>2021-02-27T09:44:51Z</time>
      </trkpt>
      <trkpt lat="45.21807" lon="6.03276">
        <ele>2010</ele>
        <time>2021-02-27T09:44:54Z</time>
      </trkpt>
      <trkpt lat="45.21809" lon="6.03279">
        <ele>2010</ele>
        <time>2021-02-27T09:44:57Z</time>
      </trkpt>
      <trkpt lat="45.21809" lon="6.03279">
        <ele>2011.4</ele>
        <time>2021-02-27T09:44:59Z</time>
      </trkpt>
      <trkpt lat="45.21811" lon="6.03282">
        <ele>2011.4</ele>
        <time>2021-02-27T09:45:03Z</time>
      </trkpt>
      <trkpt lat="45.21811" lon="6.03284">
        <ele>2011.4</ele>
        <time>2021-02-27T09:45:05Z</time>
      </trkpt>
      <trkpt lat="45.21812" lon="6.03285">
        <ele>2011.4</ele>
        <time>2021-02-27T09:45:08Z</time>
      </trkpt>
      <trkpt lat="45.21813" lon="6.03287">
        <ele>2012.6</ele>
        <time>2021-02-27T09:45:09Z</time>
      </trkpt>
      <trkpt lat="45.21813" lon="6.03289">
        <ele>2012.6</ele>
        <time>2021-02-27T09:45:11Z</time>
      </trkpt>
      <trkpt lat="45.21815" lon="6.03292">
        <ele>2012.6</ele>
        <time>2021-02-27T09:45:14Z</time>
      </trkpt>
      <trkpt lat="45.21817" lon="6.03293">
        <ele>2012.6</ele>
        <time>2021-02-27T09:45:15Z</time>
      </trkpt>
      <trkpt lat="45.21819" lon="6.03295">
        <ele>2012.6</ele>
        <time>2021-02-27T09:45:17Z</time>
      </trkpt>
      <trkpt lat="45.21821" lon="6.03298">
        <ele>2013.6</ele>
        <time>2021-02-27T09:45:19Z</time>
      </trkpt>
      <trkpt lat="45.21824" lon="6.03303">
        <ele>2013.6</ele>
        <time>2021-02-27T09:45:20Z</time>
      </trkpt>
      <trkpt lat="45.21825" lon="6.03305">
        <ele>2013.6</ele>
        <time>2021-02-27T09:45:22Z</time>
      </trkpt>
      <trkpt lat="45.21827" lon="6.03308">
        <ele>2013.6</ele>
        <time>2021-02-27T09:45:23Z</time>
      </trkpt>
      <trkpt lat="45.21828" lon="6.03311">
        <ele>2013.6</ele>
        <time>2021-02-27T09:45:24Z</time>
      </trkpt>
      <trkpt lat="45.2183" lon="6.03313">
        <ele>2013.6</ele>
        <time>2021-02-27T09:45:25Z</time>
      </trkpt>
      <trkpt lat="45.21831" lon="6.03316">
        <ele>2013.6</ele>
        <time>2021-02-27T09:45:27Z</time>
      </trkpt>
      <trkpt lat="45.21832" lon="6.03318">
        <ele>2013.6</ele>
        <time>2021-02-27T09:45:28Z</time>
      </trkpt>
      <trkpt lat="45.21834" lon="6.03321">
        <ele>2011.8</ele>
        <time>2021-02-27T09:45:29Z</time>
      </trkpt>
      <trkpt lat="45.21835" lon="6.03323">
        <ele>2011.8</ele>
        <time>2021-02-27T09:45:30Z</time>
      </trkpt>
      <trkpt lat="45.21837" lon="6.03325">
        <ele>2011.8</ele>
        <time>2021-02-27T09:45:32Z</time>
      </trkpt>
      <trkpt lat="45.21838" lon="6.03323">
        <ele>2011.8</ele>
        <time>2021-02-27T09:45:37Z</time>
      </trkpt>
      <trkpt lat="45.2184" lon="6.0332">
        <ele>2010.6</ele>
        <time>2021-02-27T09:45:39Z</time>
      </trkpt>
      <trkpt lat="45.21843" lon="6.03315">
        <ele>2010.6</ele>
        <time>2021-02-27T09:45:40Z</time>
      </trkpt>
      <trkpt lat="45.21844" lon="6.03313">
        <ele>2010.6</ele>
        <time>2021-02-27T09:45:41Z</time>
      </trkpt>
      <trkpt lat="45.21846" lon="6.03311">
        <ele>2010.6</ele>
        <time>2021-02-27T09:45:42Z</time>
      </trkpt>
      <trkpt lat="45.21847" lon="6.03308">
        <ele>2010.6</ele>
        <time>2021-02-27T09:45:43Z</time>
      </trkpt>
      <trkpt lat="45.21848" lon="6.03306">
        <ele>2010.6</ele>
        <time>2021-02-27T09:45:44Z</time>
      </trkpt>
      <trkpt lat="45.21849" lon="6.03303">
        <ele>2010.6</ele>
        <time>2021-02-27T09:45:46Z</time>
      </trkpt>
      <trkpt lat="45.2185" lon="6.03301">
        <ele>2010.6</ele>
        <time>2021-02-27T09:45:48Z</time>
      </trkpt>
      <trkpt lat="45.21851" lon="6.03298">
        <ele>2008.8</ele>
        <time>2021-02-27T09:45:49Z</time>
      </trkpt>
      <trkpt lat="45.21853" lon="6.03294">
        <ele>2008.8</ele>
        <time>2021-02-27T09:45:50Z</time>
      </trkpt>
      <trkpt lat="45.21854" lon="6.03292">
        <ele>2008.8</ele>
        <time>2021-02-27T09:45:52Z</time>
      </trkpt>
      <trkpt lat="45.21854" lon="6.0329">
        <ele>2008.8</ele>
        <time>2021-02-27T09:45:54Z</time>
      </trkpt>
      <trkpt lat="45.21855" lon="6.03288">
        <ele>2008.8</ele>
        <time>2021-02-27T09:45:56Z</time>
      </trkpt>
      <trkpt lat="45.21856" lon="6.03286">
        <ele>2008.8</ele>
        <time>2021-02-27T09:45:58Z</time>
      </trkpt>
      <trkpt lat="45.21857" lon="6.03284">
        <ele>2010.8</ele>
        <time>2021-02-27T09:45:59Z</time>
      </trkpt>
      <trkpt lat="45.21858" lon="6.03283">
        <ele>2010.8</ele>
        <time>2021-02-27T09:46:00Z</time>
      </trkpt>
      <trkpt lat="45.21861" lon="6.0328">
        <ele>2010.8</ele>
        <time>2021-02-27T09:46:03Z</time>
      </trkpt>
      <trkpt lat="45.21862" lon="6.03278">
        <ele>2010.8</ele>
        <time>2021-02-27T09:46:05Z</time>
      </trkpt>
      <trkpt lat="45.21864" lon="6.03276">
        <ele>2010.8</ele>
        <time>2021-02-27T09:46:07Z</time>
      </trkpt>
      <trkpt lat="45.21866" lon="6.03273">
        <ele>2014.8</ele>
        <time>2021-02-27T09:46:09Z</time>
      </trkpt>
      <trkpt lat="45.21867" lon="6.0327">
        <ele>2014.8</ele>
        <time>2021-02-27T09:46:11Z</time>
      </trkpt>
      <trkpt lat="45.21868" lon="6.03267">
        <ele>2014.8</ele>
        <time>2021-02-27T09:46:13Z</time>
      </trkpt>
      <trkpt lat="45.21868" lon="6.03265">
        <ele>2014.8</ele>
        <time>2021-02-27T09:46:15Z</time>
      </trkpt>
      <trkpt lat="45.21868" lon="6.03261">
        <ele>2014.8</ele>
        <time>2021-02-27T09:46:17Z</time>
      </trkpt>
      <trkpt lat="45.21869" lon="6.03258">
        <ele>2016.6</ele>
        <time>2021-02-27T09:46:19Z</time>
      </trkpt>
      <trkpt lat="45.21869" lon="6.03254">
        <ele>2016.6</ele>
        <time>2021-02-27T09:46:21Z</time>
      </trkpt>
      <trkpt lat="45.2187" lon="6.0325">
        <ele>2016.6</ele>
        <time>2021-02-27T09:46:23Z</time>
      </trkpt>
      <trkpt lat="45.2187" lon="6.03246">
        <ele>2016.6</ele>
        <time>2021-02-27T09:46:25Z</time>
      </trkpt>
      <trkpt lat="45.2187" lon="6.03243">
        <ele>2016.6</ele>
        <time>2021-02-27T09:46:27Z</time>
      </trkpt>
      <trkpt lat="45.2187" lon="6.03239">
        <ele>2018</ele>
        <time>2021-02-27T09:46:29Z</time>
      </trkpt>
      <trkpt lat="45.2187" lon="6.03234">
        <ele>2018</ele>
        <time>2021-02-27T09:46:31Z</time>
      </trkpt>
      <trkpt lat="45.21869" lon="6.03231">
        <ele>2018</ele>
        <time>2021-02-27T09:46:34Z</time>
      </trkpt>
      <trkpt lat="45.21869" lon="6.03229">
        <ele>2018</ele>
        <time>2021-02-27T09:46:36Z</time>
      </trkpt>
      <trkpt lat="45.21868" lon="6.03227">
        <ele>2018</ele>
        <time>2021-02-27T09:46:38Z</time>
      </trkpt>
      <trkpt lat="45.21867" lon="6.03225">
        <ele>2020.2</ele>
        <time>2021-02-27T09:46:39Z</time>
      </trkpt>
      <trkpt lat="45.21867" lon="6.03224">
        <ele>2020.2</ele>
        <time>2021-02-27T09:46:40Z</time>
      </trkpt>
      <trkpt lat="45.21867" lon="6.03221">
        <ele>2020.2</ele>
        <time>2021-02-27T09:46:42Z</time>
      </trkpt>
      <trkpt lat="45.21866" lon="6.03219">
        <ele>2020.2</ele>
        <time>2021-02-27T09:46:44Z</time>
      </trkpt>
      <trkpt lat="45.21867" lon="6.03215">
        <ele>2020.2</ele>
        <time>2021-02-27T09:46:47Z</time>
      </trkpt>
      <trkpt lat="45.21867" lon="6.03212">
        <ele>2023</ele>
        <time>2021-02-27T09:46:49Z</time>
      </trkpt>
      <trkpt lat="45.21866" lon="6.03208">
        <ele>2023</ele>
        <time>2021-02-27T09:46:51Z</time>
      </trkpt>
      <trkpt lat="45.21867" lon="6.03207">
        <ele>2023</ele>
        <time>2021-02-27T09:46:55Z</time>
      </trkpt>
      <trkpt lat="45.21867" lon="6.03205">
        <ele>2023</ele>
        <time>2021-02-27T09:46:58Z</time>
      </trkpt>
      <trkpt lat="45.21867" lon="6.03204">
        <ele>2026.2</ele>
        <time>2021-02-27T09:46:59Z</time>
      </trkpt>
      <trkpt lat="45.21868" lon="6.03201">
        <ele>2026.2</ele>
        <time>2021-02-27T09:47:02Z</time>
      </trkpt>
      <trkpt lat="45.21868" lon="6.03198">
        <ele>2026.2</ele>
        <time>2021-02-27T09:47:05Z</time>
      </trkpt>
      <trkpt lat="45.21869" lon="6.03196">
        <ele>2026.2</ele>
        <time>2021-02-27T09:47:07Z</time>
      </trkpt>
      <trkpt lat="45.21869" lon="6.03196">
        <ele>2028.4</ele>
        <time>2021-02-27T09:47:09Z</time>
      </trkpt>
      <trkpt lat="45.2187" lon="6.03193">
        <ele>2028.4</ele>
        <time>2021-02-27T09:47:10Z</time>
      </trkpt>
      <trkpt lat="45.21872" lon="6.03191">
        <ele>2028.4</ele>
        <time>2021-02-27T09:47:13Z</time>
      </trkpt>
      <trkpt lat="45.21874" lon="6.03192">
        <ele>2028.4</ele>
        <time>2021-02-27T09:47:15Z</time>
      </trkpt>
      <trkpt lat="45.21876" lon="6.03193">
        <ele>2028.4</ele>
        <time>2021-02-27T09:47:17Z</time>
      </trkpt>
      <trkpt lat="45.21876" lon="6.03193">
        <ele>2031.2</ele>
        <time>2021-02-27T09:47:19Z</time>
      </trkpt>
      <trkpt lat="45.21879" lon="6.03197">
        <ele>2031.2</ele>
        <time>2021-02-27T09:47:20Z</time>
      </trkpt>
      <trkpt lat="45.2188" lon="6.03199">
        <ele>2031.2</ele>
        <time>2021-02-27T09:47:22Z</time>
      </trkpt>
      <trkpt lat="45.21881" lon="6.03201">
        <ele>2031.2</ele>
        <time>2021-02-27T09:47:24Z</time>
      </trkpt>
      <trkpt lat="45.21883" lon="6.03202">
        <ele>2031.2</ele>
        <time>2021-02-27T09:47:26Z</time>
      </trkpt>
      <trkpt lat="45.21884" lon="6.03204">
        <ele>2031.2</ele>
        <time>2021-02-27T09:47:28Z</time>
      </trkpt>
      <trkpt lat="45.21885" lon="6.03205">
        <ele>2032.6</ele>
        <time>2021-02-27T09:47:29Z</time>
      </trkpt>
      <trkpt lat="45.21887" lon="6.03209">
        <ele>2032.6</ele>
        <time>2021-02-27T09:47:30Z</time>
      </trkpt>
      <trkpt lat="45.21888" lon="6.03212">
        <ele>2032.6</ele>
        <time>2021-02-27T09:47:33Z</time>
      </trkpt>
      <trkpt lat="45.2189" lon="6.03214">
        <ele>2032.6</ele>
        <time>2021-02-27T09:47:35Z</time>
      </trkpt>
      <trkpt lat="45.21891" lon="6.03217">
        <ele>2032.6</ele>
        <time>2021-02-27T09:47:37Z</time>
      </trkpt>
      <trkpt lat="45.21892" lon="6.0322">
        <ele>2032.6</ele>
        <time>2021-02-27T09:47:38Z</time>
      </trkpt>
      <trkpt lat="45.21894" lon="6.03222">
        <ele>2034.2</ele>
        <time>2021-02-27T09:47:39Z</time>
      </trkpt>
      <trkpt lat="45.21895" lon="6.03224">
        <ele>2034.2</ele>
        <time>2021-02-27T09:47:40Z</time>
      </trkpt>
      <trkpt lat="45.21896" lon="6.03227">
        <ele>2034.2</ele>
        <time>2021-02-27T09:47:41Z</time>
      </trkpt>
      <trkpt lat="45.21897" lon="6.0323">
        <ele>2034.2</ele>
        <time>2021-02-27T09:47:43Z</time>
      </trkpt>
      <trkpt lat="45.21898" lon="6.03233">
        <ele>2034.2</ele>
        <time>2021-02-27T09:47:45Z</time>
      </trkpt>
      <trkpt lat="45.219" lon="6.03236">
        <ele>2034.2</ele>
        <time>2021-02-27T09:47:47Z</time>
      </trkpt>
      <trkpt lat="45.21901" lon="6.03239">
        <ele>2034.6</ele>
        <time>2021-02-27T09:47:49Z</time>
      </trkpt>
      <trkpt lat="45.21902" lon="6.03242">
        <ele>2034.6</ele>
        <time>2021-02-27T09:47:51Z</time>
      </trkpt>
      <trkpt lat="45.21903" lon="6.03245">
        <ele>2034.6</ele>
        <time>2021-02-27T09:47:53Z</time>
      </trkpt>
      <trkpt lat="45.21904" lon="6.03248">
        <ele>2034.6</ele>
        <time>2021-02-27T09:47:55Z</time>
      </trkpt>
      <trkpt lat="45.21905" lon="6.03251">
        <ele>2034.6</ele>
        <time>2021-02-27T09:47:57Z</time>
      </trkpt>
      <trkpt lat="45.21906" lon="6.03253">
        <ele>2036.2</ele>
        <time>2021-02-27T09:47:59Z</time>
      </trkpt>
      <trkpt lat="45.21907" lon="6.03255">
        <ele>2036.2</ele>
        <time>2021-02-27T09:48:01Z</time>
      </trkpt>
      <trkpt lat="45.21909" lon="6.03258">
        <ele>2036.2</ele>
        <time>2021-02-27T09:48:03Z</time>
      </trkpt>
      <trkpt lat="45.21911" lon="6.0326">
        <ele>2036.2</ele>
        <time>2021-02-27T09:48:05Z</time>
      </trkpt>
      <trkpt lat="45.21913" lon="6.03261">
        <ele>2036.2</ele>
        <time>2021-02-27T09:48:07Z</time>
      </trkpt>
      <trkpt lat="45.21915" lon="6.03262">
        <ele>2039.2</ele>
        <time>2021-02-27T09:48:09Z</time>
      </trkpt>
      <trkpt lat="45.21917" lon="6.03262">
        <ele>2039.2</ele>
        <time>2021-02-27T09:48:11Z</time>
      </trkpt>
      <trkpt lat="45.2192" lon="6.03263">
        <ele>2039.2</ele>
        <time>2021-02-27T09:48:14Z</time>
      </trkpt>
      <trkpt lat="45.21922" lon="6.03264">
        <ele>2039.2</ele>
        <time>2021-02-27T09:48:17Z</time>
      </trkpt>
      <trkpt lat="45.21924" lon="6.03264">
        <ele>2041.4</ele>
        <time>2021-02-27T09:48:19Z</time>
      </trkpt>
      <trkpt lat="45.21926" lon="6.03265">
        <ele>2041.4</ele>
        <time>2021-02-27T09:48:21Z</time>
      </trkpt>
      <trkpt lat="45.21928" lon="6.03265">
        <ele>2041.4</ele>
        <time>2021-02-27T09:48:23Z</time>
      </trkpt>
      <trkpt lat="45.2193" lon="6.03265">
        <ele>2041.4</ele>
        <time>2021-02-27T09:48:25Z</time>
      </trkpt>
      <trkpt lat="45.21933" lon="6.03266">
        <ele>2041.4</ele>
        <time>2021-02-27T09:48:27Z</time>
      </trkpt>
      <trkpt lat="45.21935" lon="6.03266">
        <ele>2044.4</ele>
        <time>2021-02-27T09:48:29Z</time>
      </trkpt>
      <trkpt lat="45.21938" lon="6.03267">
        <ele>2044.4</ele>
        <time>2021-02-27T09:48:31Z</time>
      </trkpt>
      <trkpt lat="45.21939" lon="6.03267">
        <ele>2044.4</ele>
        <time>2021-02-27T09:48:34Z</time>
      </trkpt>
      <trkpt lat="45.21941" lon="6.03267">
        <ele>2045.4</ele>
        <time>2021-02-27T09:48:39Z</time>
      </trkpt>
      <trkpt lat="45.21942" lon="6.03267">
        <ele>2045.8</ele>
        <time>2021-02-27T09:48:49Z</time>
      </trkpt>
      <trkpt lat="45.21943" lon="6.03267">
        <ele>2045.4</ele>
        <time>2021-02-27T09:48:59Z</time>
      </trkpt>
      <trkpt lat="45.21944" lon="6.03267">
        <ele>2045.6</ele>
        <time>2021-02-27T09:49:09Z</time>
      </trkpt>
      <trkpt lat="45.21945" lon="6.03268">
        <ele>2045.8</ele>
        <time>2021-02-27T09:49:19Z</time>
      </trkpt>
      <trkpt lat="45.21946" lon="6.03268">
        <ele>2046.8</ele>
        <time>2021-02-27T09:49:29Z</time>
      </trkpt>
      <trkpt lat="45.21947" lon="6.03268">
        <ele>2045.8</ele>
        <time>2021-02-27T09:49:39Z</time>
      </trkpt>
      <trkpt lat="45.21948" lon="6.03268">
        <ele>2047.2</ele>
        <time>2021-02-27T09:49:49Z</time>
      </trkpt>
      <trkpt lat="45.21949" lon="6.03268">
        <ele>2048.2</ele>
        <time>2021-02-27T09:49:59Z</time>
      </trkpt>
      <trkpt lat="45.2195" lon="6.03268">
        <ele>2048.2</ele>
        <time>2021-02-27T09:50:06Z</time>
      </trkpt>
      <trkpt lat="45.21951" lon="6.03268">
        <ele>2048.2</ele>
        <time>2021-02-27T09:50:07Z</time>
      </trkpt>
      <trkpt lat="45.21952" lon="6.03269">
        <ele>2048.2</ele>
        <time>2021-02-27T09:50:08Z</time>
      </trkpt>
      <trkpt lat="45.21953" lon="6.03269">
        <ele>2047.4</ele>
        <time>2021-02-27T09:50:09Z</time>
      </trkpt>
      <trkpt lat="45.21963" lon="6.03274">
        <ele>2047.4</ele>
        <time>2021-02-27T09:50:10Z</time>
      </trkpt>
      <trkpt lat="45.21967" lon="6.03278">
        <ele>2047.4</ele>
        <time>2021-02-27T09:50:11Z</time>
      </trkpt>
      <trkpt lat="45.21972" lon="6.03281">
        <ele>2047.4</ele>
        <time>2021-02-27T09:50:12Z</time>
      </trkpt>
      <trkpt lat="45.21976" lon="6.03284">
        <ele>2047.4</ele>
        <time>2021-02-27T09:50:13Z</time>
      </trkpt>
      <trkpt lat="45.2198" lon="6.03287">
        <ele>2047.4</ele>
        <time>2021-02-27T09:50:14Z</time>
      </trkpt>
      <trkpt lat="45.21985" lon="6.03291">
        <ele>2047.4</ele>
        <time>2021-02-27T09:50:15Z</time>
      </trkpt>
      <trkpt lat="45.21989" lon="6.03294">
        <ele>2047.4</ele>
        <time>2021-02-27T09:50:16Z</time>
      </trkpt>
      <trkpt lat="45.21994" lon="6.03297">
        <ele>2047.4</ele>
        <time>2021-02-27T09:50:17Z</time>
      </trkpt>
      <trkpt lat="45.21998" lon="6.033">
        <ele>2047.4</ele>
        <time>2021-02-27T09:50:18Z</time>
      </trkpt>
      <trkpt lat="45.22002" lon="6.03303">
        <ele>2041</ele>
        <time>2021-02-27T09:50:19Z</time>
      </trkpt>
      <trkpt lat="45.22003" lon="6.03307">
        <ele>2041</ele>
        <time>2021-02-27T09:50:20Z</time>
      </trkpt>
      <trkpt lat="45.22003" lon="6.0331">
        <ele>2041</ele>
        <time>2021-02-27T09:50:22Z</time>
      </trkpt>
      <trkpt lat="45.22002" lon="6.03312">
        <ele>2041</ele>
        <time>2021-02-27T09:50:23Z</time>
      </trkpt>
      <trkpt lat="45.22001" lon="6.03314">
        <ele>2041</ele>
        <time>2021-02-27T09:50:25Z</time>
      </trkpt>
      <trkpt lat="45.22" lon="6.03316">
        <ele>2041</ele>
        <time>2021-02-27T09:50:26Z</time>
      </trkpt>
      <trkpt lat="45.21999" lon="6.03319">
        <ele>2041</ele>
        <time>2021-02-27T09:50:27Z</time>
      </trkpt>
      <trkpt lat="45.21998" lon="6.03321">
        <ele>2041</ele>
        <time>2021-02-27T09:50:28Z</time>
      </trkpt>
      <trkpt lat="45.21998" lon="6.03323">
        <ele>2036</ele>
        <time>2021-02-27T09:50:29Z</time>
      </trkpt>
      <trkpt lat="45.21996" lon="6.03333">
        <ele>2036</ele>
        <time>2021-02-27T09:50:30Z</time>
      </trkpt>
      <trkpt lat="45.21997" lon="6.03334">
        <ele>2036</ele>
        <time>2021-02-27T09:50:31Z</time>
      </trkpt>
      <trkpt lat="45.21998" lon="6.03336">
        <ele>2036</ele>
        <time>2021-02-27T09:50:32Z</time>
      </trkpt>
      <trkpt lat="45.21999" lon="6.03338">
        <ele>2036</ele>
        <time>2021-02-27T09:50:33Z</time>
      </trkpt>
      <trkpt lat="45.22" lon="6.0334">
        <ele>2036</ele>
        <time>2021-02-27T09:50:34Z</time>
      </trkpt>
      <trkpt lat="45.22001" lon="6.03341">
        <ele>2036</ele>
        <time>2021-02-27T09:50:35Z</time>
      </trkpt>
      <trkpt lat="45.22002" lon="6.03343">
        <ele>2036</ele>
        <time>2021-02-27T09:50:37Z</time>
      </trkpt>
      <trkpt lat="45.22003" lon="6.03345">
        <ele>2036</ele>
        <time>2021-02-27T09:50:38Z</time>
      </trkpt>
      <trkpt lat="45.22004" lon="6.03347">
        <ele>2023.6</ele>
        <time>2021-02-27T09:50:39Z</time>
      </trkpt>
      <trkpt lat="45.22014" lon="6.03343">
        <ele>2023.6</ele>
        <time>2021-02-27T09:50:40Z</time>
      </trkpt>
      <trkpt lat="45.2202" lon="6.03343">
        <ele>2023.6</ele>
        <time>2021-02-27T09:50:41Z</time>
      </trkpt>
      <trkpt lat="45.22025" lon="6.03343">
        <ele>2023.6</ele>
        <time>2021-02-27T09:50:42Z</time>
      </trkpt>
      <trkpt lat="45.22031" lon="6.03343">
        <ele>2023.6</ele>
        <time>2021-02-27T09:50:43Z</time>
      </trkpt>
      <trkpt lat="45.22036" lon="6.03343">
        <ele>2023.6</ele>
        <time>2021-02-27T09:50:44Z</time>
      </trkpt>
      <trkpt lat="45.22041" lon="6.03343">
        <ele>2023.6</ele>
        <time>2021-02-27T09:50:45Z</time>
      </trkpt>
      <trkpt lat="45.22047" lon="6.03343">
        <ele>2023.6</ele>
        <time>2021-02-27T09:50:46Z</time>
      </trkpt>
      <trkpt lat="45.22052" lon="6.03343">
        <ele>2023.6</ele>
        <time>2021-02-27T09:50:47Z</time>
      </trkpt>
      <trkpt lat="45.22058" lon="6.03343">
        <ele>2023.6</ele>
        <time>2021-02-27T09:50:48Z</time>
      </trkpt>
      <trkpt lat="45.22063" lon="6.03343">
        <ele>2012</ele>
        <time>2021-02-27T09:50:49Z</time>
      </trkpt>
      <trkpt lat="45.22072" lon="6.0335">
        <ele>2012</ele>
        <time>2021-02-27T09:50:50Z</time>
      </trkpt>
      <trkpt lat="45.22077" lon="6.03354">
        <ele>2012</ele>
        <time>2021-02-27T09:50:51Z</time>
      </trkpt>
      <trkpt lat="45.22081" lon="6.03358">
        <ele>2012</ele>
        <time>2021-02-27T09:50:52Z</time>
      </trkpt>
      <trkpt lat="45.22085" lon="6.03361">
        <ele>2012</ele>
        <time>2021-02-27T09:50:53Z</time>
      </trkpt>
      <trkpt lat="45.22089" lon="6.03365">
        <ele>2012</ele>
        <time>2021-02-27T09:50:54Z</time>
      </trkpt>
      <trkpt lat="45.22093" lon="6.03369">
        <ele>2012</ele>
        <time>2021-02-27T09:50:55Z</time>
      </trkpt>
      <trkpt lat="45.22097" lon="6.03373">
        <ele>2012</ele>
        <time>2021-02-27T09:50:56Z</time>
      </trkpt>
      <trkpt lat="45.22101" lon="6.03376">
        <ele>2012</ele>
        <time>2021-02-27T09:50:57Z</time>
      </trkpt>
      <trkpt lat="45.22105" lon="6.0338">
        <ele>2012</ele>
        <time>2021-02-27T09:50:58Z</time>
      </trkpt>
      <trkpt lat="45.2211" lon="6.03384">
        <ele>2004.8</ele>
        <time>2021-02-27T09:50:59Z</time>
      </trkpt>
      <trkpt lat="45.22116" lon="6.03395">
        <ele>2004.8</ele>
        <time>2021-02-27T09:51:00Z</time>
      </trkpt>
      <trkpt lat="45.22118" lon="6.034">
        <ele>2004.8</ele>
        <time>2021-02-27T09:51:01Z</time>
      </trkpt>
      <trkpt lat="45.22121" lon="6.03405">
        <ele>2004.8</ele>
        <time>2021-02-27T09:51:02Z</time>
      </trkpt>
      <trkpt lat="45.22124" lon="6.0341">
        <ele>2004.8</ele>
        <time>2021-02-27T09:51:03Z</time>
      </trkpt>
      <trkpt lat="45.22126" lon="6.03415">
        <ele>2004.8</ele>
        <time>2021-02-27T09:51:04Z</time>
      </trkpt>
      <trkpt lat="45.22129" lon="6.03419">
        <ele>2004.8</ele>
        <time>2021-02-27T09:51:05Z</time>
      </trkpt>
      <trkpt lat="45.22132" lon="6.03424">
        <ele>2004.8</ele>
        <time>2021-02-27T09:51:06Z</time>
      </trkpt>
      <trkpt lat="45.22134" lon="6.03429">
        <ele>2004.8</ele>
        <time>2021-02-27T09:51:07Z</time>
      </trkpt>
      <trkpt lat="45.22137" lon="6.03434">
        <ele>2004.8</ele>
        <time>2021-02-27T09:51:08Z</time>
      </trkpt>
      <trkpt lat="45.2214" lon="6.03439">
        <ele>1987.2</ele>
        <time>2021-02-27T09:51:09Z</time>
      </trkpt>
      <trkpt lat="45.22146" lon="6.03446">
        <ele>1987.2</ele>
        <time>2021-02-27T09:51:10Z</time>
      </trkpt>
      <trkpt lat="45.22149" lon="6.03448">
        <ele>1987.2</ele>
        <time>2021-02-27T09:51:11Z</time>
      </trkpt>
      <trkpt lat="45.22153" lon="6.03451">
        <ele>1987.2</ele>
        <time>2021-02-27T09:51:12Z</time>
      </trkpt>
      <trkpt lat="45.22156" lon="6.03453">
        <ele>1987.2</ele>
        <time>2021-02-27T09:51:13Z</time>
      </trkpt>
      <trkpt lat="45.22159" lon="6.03456">
        <ele>1987.2</ele>
        <time>2021-02-27T09:51:14Z</time>
      </trkpt>
      <trkpt lat="45.22162" lon="6.03458">
        <ele>1987.2</ele>
        <time>2021-02-27T09:51:15Z</time>
      </trkpt>
      <trkpt lat="45.22166" lon="6.0346">
        <ele>1987.2</ele>
        <time>2021-02-27T09:51:16Z</time>
      </trkpt>
      <trkpt lat="45.22169" lon="6.03463">
        <ele>1987.2</ele>
        <time>2021-02-27T09:51:17Z</time>
      </trkpt>
      <trkpt lat="45.22172" lon="6.03465">
        <ele>1987.2</ele>
        <time>2021-02-27T09:51:18Z</time>
      </trkpt>
      <trkpt lat="45.22176" lon="6.03468">
        <ele>1974.8</ele>
        <time>2021-02-27T09:51:19Z</time>
      </trkpt>
      <trkpt lat="45.22181" lon="6.03474">
        <ele>1974.8</ele>
        <time>2021-02-27T09:51:20Z</time>
      </trkpt>
      <trkpt lat="45.22185" lon="6.03478">
        <ele>1974.8</ele>
        <time>2021-02-27T09:51:21Z</time>
      </trkpt>
      <trkpt lat="45.22188" lon="6.03482">
        <ele>1974.8</ele>
        <time>2021-02-27T09:51:22Z</time>
      </trkpt>
      <trkpt lat="45.22191" lon="6.03486">
        <ele>1974.8</ele>
        <time>2021-02-27T09:51:23Z</time>
      </trkpt>
      <trkpt lat="45.22194" lon="6.0349">
        <ele>1974.8</ele>
        <time>2021-02-27T09:51:24Z</time>
      </trkpt>
      <trkpt lat="45.22198" lon="6.03494">
        <ele>1974.8</ele>
        <time>2021-02-27T09:51:25Z</time>
      </trkpt>
      <trkpt lat="45.22201" lon="6.03498">
        <ele>1974.8</ele>
        <time>2021-02-27T09:51:26Z</time>
      </trkpt>
      <trkpt lat="45.22204" lon="6.03502">
        <ele>1974.8</ele>
        <time>2021-02-27T09:51:27Z</time>
      </trkpt>
      <trkpt lat="45.22207" lon="6.03506">
        <ele>1974.8</ele>
        <time>2021-02-27T09:51:28Z</time>
      </trkpt>
      <trkpt lat="45.2221" lon="6.0351">
        <ele>1961.2</ele>
        <time>2021-02-27T09:51:29Z</time>
      </trkpt>
      <trkpt lat="45.22216" lon="6.03516">
        <ele>1961.2</ele>
        <time>2021-02-27T09:51:30Z</time>
      </trkpt>
      <trkpt lat="45.22219" lon="6.03519">
        <ele>1961.2</ele>
        <time>2021-02-27T09:51:31Z</time>
      </trkpt>
      <trkpt lat="45.22221" lon="6.03522">
        <ele>1961.2</ele>
        <time>2021-02-27T09:51:32Z</time>
      </trkpt>
      <trkpt lat="45.22224" lon="6.03525">
        <ele>1961.2</ele>
        <time>2021-02-27T09:51:33Z</time>
      </trkpt>
      <trkpt lat="45.22227" lon="6.03528">
        <ele>1961.2</ele>
        <time>2021-02-27T09:51:34Z</time>
      </trkpt>
      <trkpt lat="45.2223" lon="6.03531">
        <ele>1961.2</ele>
        <time>2021-02-27T09:51:35Z</time>
      </trkpt>
      <trkpt lat="45.22233" lon="6.03534">
        <ele>1961.2</ele>
        <time>2021-02-27T09:51:36Z</time>
      </trkpt>
      <trkpt lat="45.22235" lon="6.03537">
        <ele>1961.2</ele>
        <time>2021-02-27T09:51:37Z</time>
      </trkpt>
      <trkpt lat="45.22238" lon="6.0354">
        <ele>1949.2</ele>
        <time>2021-02-27T09:51:39Z</time>
      </trkpt>
      <trkpt lat="45.22239" lon="6.0354">
        <ele>1947</ele>
        <time>2021-02-27T09:51:49Z</time>
      </trkpt>
      <trkpt lat="45.22239" lon="6.0354">
        <ele>1946.8</ele>
        <time>2021-02-27T09:51:59Z</time>
      </trkpt>
      <trkpt lat="45.2224" lon="6.0354">
        <ele>1946.8</ele>
        <time>2021-02-27T09:52:09Z</time>
      </trkpt>
      <trkpt lat="45.2224" lon="6.0354">
        <ele>1947.4</ele>
        <time>2021-02-27T09:52:19Z</time>
      </trkpt>
      <trkpt lat="45.22241" lon="6.0354">
        <ele>1947.6</ele>
        <time>2021-02-27T09:52:29Z</time>
      </trkpt>
      <trkpt lat="45.22241" lon="6.0354">
        <ele>1947.6</ele>
        <time>2021-02-27T09:52:39Z</time>
      </trkpt>
      <trkpt lat="45.22242" lon="6.0354">
        <ele>1948.4</ele>
        <time>2021-02-27T09:52:49Z</time>
      </trkpt>
      <trkpt lat="45.22242" lon="6.0354">
        <ele>1947.8</ele>
        <time>2021-02-27T09:52:59Z</time>
      </trkpt>
      <trkpt lat="45.22243" lon="6.0354">
        <ele>1947.6</ele>
        <time>2021-02-27T09:53:09Z</time>
      </trkpt>
      <trkpt lat="45.22243" lon="6.0354">
        <ele>1948.2</ele>
        <time>2021-02-27T09:53:19Z</time>
      </trkpt>
      <trkpt lat="45.22244" lon="6.0354">
        <ele>1948</ele>
        <time>2021-02-27T09:53:29Z</time>
      </trkpt>
      <trkpt lat="45.22244" lon="6.0354">
        <ele>1949</ele>
        <time>2021-02-27T09:53:39Z</time>
      </trkpt>
      <trkpt lat="45.22244" lon="6.0354">
        <ele>1949</ele>
        <time>2021-02-27T09:53:47Z</time>
      </trkpt>
      <trkpt lat="45.22245" lon="6.0354">
        <ele>1949</ele>
        <time>2021-02-27T09:53:48Z</time>
      </trkpt>
      <trkpt lat="45.22245" lon="6.0354">
        <ele>1950.4</ele>
        <time>2021-02-27T09:53:49Z</time>
      </trkpt>
      <trkpt lat="45.2225" lon="6.0354">
        <ele>1950.4</ele>
        <time>2021-02-27T09:53:50Z</time>
      </trkpt>
      <trkpt lat="45.22252" lon="6.0354">
        <ele>1950.4</ele>
        <time>2021-02-27T09:53:52Z</time>
      </trkpt>
      <trkpt lat="45.22254" lon="6.0354">
        <ele>1950.4</ele>
        <time>2021-02-27T09:53:53Z</time>
      </trkpt>
      <trkpt lat="45.22256" lon="6.0354">
        <ele>1950.4</ele>
        <time>2021-02-27T09:53:54Z</time>
      </trkpt>
      <trkpt lat="45.22258" lon="6.0354">
        <ele>1950.4</ele>
        <time>2021-02-27T09:53:56Z</time>
      </trkpt>
      <trkpt lat="45.2226" lon="6.0354">
        <ele>1950.4</ele>
        <time>2021-02-27T09:53:58Z</time>
      </trkpt>
      <trkpt lat="45.22262" lon="6.0354">
        <ele>1951.8</ele>
        <time>2021-02-27T09:53:59Z</time>
      </trkpt>
      <trkpt lat="45.22265" lon="6.0354">
        <ele>1951.8</ele>
        <time>2021-02-27T09:54:00Z</time>
      </trkpt>
      <trkpt lat="45.22267" lon="6.0354">
        <ele>1951.8</ele>
        <time>2021-02-27T09:54:02Z</time>
      </trkpt>
      <trkpt lat="45.22269" lon="6.0354">
        <ele>1951.8</ele>
        <time>2021-02-27T09:54:04Z</time>
      </trkpt>
      <trkpt lat="45.22271" lon="6.0354">
        <ele>1951.8</ele>
        <time>2021-02-27T09:54:06Z</time>
      </trkpt>
      <trkpt lat="45.22272" lon="6.0354">
        <ele>1951.8</ele>
        <time>2021-02-27T09:54:08Z</time>
      </trkpt>
      <trkpt lat="45.22274" lon="6.0354">
        <ele>1953.2</ele>
        <time>2021-02-27T09:54:09Z</time>
      </trkpt>
      <trkpt lat="45.22275" lon="6.0354">
        <ele>1953.2</ele>
        <time>2021-02-27T09:54:10Z</time>
      </trkpt>
      <trkpt lat="45.22277" lon="6.0354">
        <ele>1953.2</ele>
        <time>2021-02-27T09:54:13Z</time>
      </trkpt>
      <trkpt lat="45.2228" lon="6.03541">
        <ele>1953.2</ele>
        <time>2021-02-27T09:54:15Z</time>
      </trkpt>
      <trkpt lat="45.22283" lon="6.0354">
        <ele>1953.2</ele>
        <time>2021-02-27T09:54:17Z</time>
      </trkpt>
      <trkpt lat="45.22285" lon="6.0354">
        <ele>1953.6</ele>
        <time>2021-02-27T09:54:19Z</time>
      </trkpt>
      <trkpt lat="45.22289" lon="6.0354">
        <ele>1953.6</ele>
        <time>2021-02-27T09:54:21Z</time>
      </trkpt>
      <trkpt lat="45.22292" lon="6.03539">
        <ele>1953.6</ele>
        <time>2021-02-27T09:54:23Z</time>
      </trkpt>
      <trkpt lat="45.22294" lon="6.03541">
        <ele>1953.6</ele>
        <time>2021-02-27T09:54:25Z</time>
      </trkpt>
      <trkpt lat="45.22297" lon="6.0354">
        <ele>1953.6</ele>
        <time>2021-02-27T09:54:27Z</time>
      </trkpt>
      <trkpt lat="45.223" lon="6.03541">
        <ele>1955.4</ele>
        <time>2021-02-27T09:54:29Z</time>
      </trkpt>
      <trkpt lat="45.22303" lon="6.0354">
        <ele>1955.4</ele>
        <time>2021-02-27T09:54:31Z</time>
      </trkpt>
      <trkpt lat="45.22307" lon="6.0354">
        <ele>1955.4</ele>
        <time>2021-02-27T09:54:33Z</time>
      </trkpt>
      <trkpt lat="45.22309" lon="6.0354">
        <ele>1955.4</ele>
        <time>2021-02-27T09:54:35Z</time>
      </trkpt>
      <trkpt lat="45.2231" lon="6.03541">
        <ele>1955.4</ele>
        <time>2021-02-27T09:54:37Z</time>
      </trkpt>
      <trkpt lat="45.22312" lon="6.03542">
        <ele>1955.6</ele>
        <time>2021-02-27T09:54:39Z</time>
      </trkpt>
      <trkpt lat="45.22317" lon="6.03542">
        <ele>1955.6</ele>
        <time>2021-02-27T09:54:41Z</time>
      </trkpt>
      <trkpt lat="45.22319" lon="6.03542">
        <ele>1955.6</ele>
        <time>2021-02-27T09:54:43Z</time>
      </trkpt>
      <trkpt lat="45.22321" lon="6.03542">
        <ele>1955.6</ele>
        <time>2021-02-27T09:54:45Z</time>
      </trkpt>
      <trkpt lat="45.22323" lon="6.03543">
        <ele>1955.6</ele>
        <time>2021-02-27T09:54:46Z</time>
      </trkpt>
      <trkpt lat="45.22325" lon="6.03543">
        <ele>1955.6</ele>
        <time>2021-02-27T09:54:48Z</time>
      </trkpt>
      <trkpt lat="45.22327" lon="6.03543">
        <ele>1957.2</ele>
        <time>2021-02-27T09:54:49Z</time>
      </trkpt>
      <trkpt lat="45.22328" lon="6.03543">
        <ele>1957.2</ele>
        <time>2021-02-27T09:54:50Z</time>
      </trkpt>
      <trkpt lat="45.2233" lon="6.03544">
        <ele>1957.2</ele>
        <time>2021-02-27T09:54:51Z</time>
      </trkpt>
      <trkpt lat="45.22333" lon="6.03544">
        <ele>1957.2</ele>
        <time>2021-02-27T09:54:53Z</time>
      </trkpt>
      <trkpt lat="45.22335" lon="6.03545">
        <ele>1957.2</ele>
        <time>2021-02-27T09:54:55Z</time>
      </trkpt>
      <trkpt lat="45.22337" lon="6.03547">
        <ele>1957.2</ele>
        <time>2021-02-27T09:54:57Z</time>
      </trkpt>
      <trkpt lat="45.22339" lon="6.03548">
        <ele>1958.4</ele>
        <time>2021-02-27T09:54:59Z</time>
      </trkpt>
      <trkpt lat="45.22342" lon="6.03549">
        <ele>1958.4</ele>
        <time>2021-02-27T09:55:01Z</time>
      </trkpt>
      <trkpt lat="45.22343" lon="6.0355">
        <ele>1958.4</ele>
        <time>2021-02-27T09:55:03Z</time>
      </trkpt>
      <trkpt lat="45.22345" lon="6.03552">
        <ele>1958.4</ele>
        <time>2021-02-27T09:55:05Z</time>
      </trkpt>
      <trkpt lat="45.22347" lon="6.03554">
        <ele>1958.4</ele>
        <time>2021-02-27T09:55:07Z</time>
      </trkpt>
      <trkpt lat="45.22349" lon="6.03556">
        <ele>1961</ele>
        <time>2021-02-27T09:55:09Z</time>
      </trkpt>
      <trkpt lat="45.22351" lon="6.03558">
        <ele>1961</ele>
        <time>2021-02-27T09:55:11Z</time>
      </trkpt>
      <trkpt lat="45.22354" lon="6.03558">
        <ele>1961</ele>
        <time>2021-02-27T09:55:13Z</time>
      </trkpt>
      <trkpt lat="45.22356" lon="6.0356">
        <ele>1961</ele>
        <time>2021-02-27T09:55:15Z</time>
      </trkpt>
      <trkpt lat="45.22359" lon="6.03561">
        <ele>1961</ele>
        <time>2021-02-27T09:55:17Z</time>
      </trkpt>
      <trkpt lat="45.22361" lon="6.03563">
        <ele>1964.8</ele>
        <time>2021-02-27T09:55:19Z</time>
      </trkpt>
      <trkpt lat="45.22364" lon="6.03563">
        <ele>1964.8</ele>
        <time>2021-02-27T09:55:21Z</time>
      </trkpt>
      <trkpt lat="45.22366" lon="6.03565">
        <ele>1964.8</ele>
        <time>2021-02-27T09:55:23Z</time>
      </trkpt>
      <trkpt lat="45.22368" lon="6.03566">
        <ele>1964.8</ele>
        <time>2021-02-27T09:55:25Z</time>
      </trkpt>
      <trkpt lat="45.2237" lon="6.03568">
        <ele>1964.8</ele>
        <time>2021-02-27T09:55:27Z</time>
      </trkpt>
      <trkpt lat="45.22372" lon="6.0357">
        <ele>1965.2</ele>
        <time>2021-02-27T09:55:29Z</time>
      </trkpt>
      <trkpt lat="45.22374" lon="6.0357">
        <ele>1965.2</ele>
        <time>2021-02-27T09:55:31Z</time>
      </trkpt>
      <trkpt lat="45.22376" lon="6.03572">
        <ele>1965.2</ele>
        <time>2021-02-27T09:55:33Z</time>
      </trkpt>
      <trkpt lat="45.22378" lon="6.03574">
        <ele>1965.2</ele>
        <time>2021-02-27T09:55:35Z</time>
      </trkpt>
      <trkpt lat="45.2238" lon="6.03574">
        <ele>1965.2</ele>
        <time>2021-02-27T09:55:37Z</time>
      </trkpt>
      <trkpt lat="45.22382" lon="6.03574">
        <ele>1966.8</ele>
        <time>2021-02-27T09:55:39Z</time>
      </trkpt>
      <trkpt lat="45.22386" lon="6.03576">
        <ele>1966.8</ele>
        <time>2021-02-27T09:55:41Z</time>
      </trkpt>
      <trkpt lat="45.22388" lon="6.03577">
        <ele>1966.8</ele>
        <time>2021-02-27T09:55:43Z</time>
      </trkpt>
      <trkpt lat="45.22389" lon="6.03578">
        <ele>1966.8</ele>
        <time>2021-02-27T09:55:46Z</time>
      </trkpt>
      <trkpt lat="45.22391" lon="6.03579">
        <ele>1966.8</ele>
        <time>2021-02-27T09:55:48Z</time>
      </trkpt>
      <trkpt lat="45.22392" lon="6.0358">
        <ele>1968.6</ele>
        <time>2021-02-27T09:55:49Z</time>
      </trkpt>
      <trkpt lat="45.22395" lon="6.03581">
        <ele>1968.6</ele>
        <time>2021-02-27T09:55:50Z</time>
      </trkpt>
      <trkpt lat="45.22397" lon="6.03582">
        <ele>1968.6</ele>
        <time>2021-02-27T09:55:52Z</time>
      </trkpt>
      <trkpt lat="45.22398" lon="6.03582">
        <ele>1968.6</ele>
        <time>2021-02-27T09:55:54Z</time>
      </trkpt>
      <trkpt lat="45.224" lon="6.03583">
        <ele>1968.6</ele>
        <time>2021-02-27T09:55:56Z</time>
      </trkpt>
      <trkpt lat="45.22402" lon="6.03584">
        <ele>1968.6</ele>
        <time>2021-02-27T09:55:58Z</time>
      </trkpt>
      <trkpt lat="45.22403" lon="6.03584">
        <ele>1970.6</ele>
        <time>2021-02-27T09:55:59Z</time>
      </trkpt>
      <trkpt lat="45.22406" lon="6.03586">
        <ele>1970.6</ele>
        <time>2021-02-27T09:56:00Z</time>
      </trkpt>
      <trkpt lat="45.22408" lon="6.03587">
        <ele>1970.6</ele>
        <time>2021-02-27T09:56:02Z</time>
      </trkpt>
      <trkpt lat="45.22409" lon="6.03588">
        <ele>1970.6</ele>
        <time>2021-02-27T09:56:04Z</time>
      </trkpt>
      <trkpt lat="45.22411" lon="6.03589">
        <ele>1970.6</ele>
        <time>2021-02-27T09:56:06Z</time>
      </trkpt>
      <trkpt lat="45.22413" lon="6.0359">
        <ele>1970.6</ele>
        <time>2021-02-27T09:56:08Z</time>
      </trkpt>
      <trkpt lat="45.22414" lon="6.0359">
        <ele>1971.2</ele>
        <time>2021-02-27T09:56:09Z</time>
      </trkpt>
      <trkpt lat="45.22416" lon="6.03592">
        <ele>1971.2</ele>
        <time>2021-02-27T09:56:10Z</time>
      </trkpt>
      <trkpt lat="45.22418" lon="6.03593">
        <ele>1971.2</ele>
        <time>2021-02-27T09:56:12Z</time>
      </trkpt>
      <trkpt lat="45.22419" lon="6.03594">
        <ele>1971.2</ele>
        <time>2021-02-27T09:56:14Z</time>
      </trkpt>
      <trkpt lat="45.22421" lon="6.03595">
        <ele>1971.2</ele>
        <time>2021-02-27T09:56:16Z</time>
      </trkpt>
      <trkpt lat="45.22422" lon="6.03596">
        <ele>1971.2</ele>
        <time>2021-02-27T09:56:18Z</time>
      </trkpt>
      <trkpt lat="45.22423" lon="6.03597">
        <ele>1972.8</ele>
        <time>2021-02-27T09:56:19Z</time>
      </trkpt>
      <trkpt lat="45.22424" lon="6.03597">
        <ele>1972.8</ele>
        <time>2021-02-27T09:56:20Z</time>
      </trkpt>
      <trkpt lat="45.22426" lon="6.03599">
        <ele>1972.8</ele>
        <time>2021-02-27T09:56:23Z</time>
      </trkpt>
      <trkpt lat="45.22428" lon="6.03602">
        <ele>1972.8</ele>
        <time>2021-02-27T09:56:25Z</time>
      </trkpt>
      <trkpt lat="45.2243" lon="6.03603">
        <ele>1972.8</ele>
        <time>2021-02-27T09:56:27Z</time>
      </trkpt>
      <trkpt lat="45.22431" lon="6.03605">
        <ele>1974.8</ele>
        <time>2021-02-27T09:56:29Z</time>
      </trkpt>
      <trkpt lat="45.22432" lon="6.03607">
        <ele>1974.8</ele>
        <time>2021-02-27T09:56:31Z</time>
      </trkpt>
      <trkpt lat="45.22434" lon="6.03608">
        <ele>1974.8</ele>
        <time>2021-02-27T09:56:33Z</time>
      </trkpt>
      <trkpt lat="45.22435" lon="6.03611">
        <ele>1974.8</ele>
        <time>2021-02-27T09:56:35Z</time>
      </trkpt>
      <trkpt lat="45.22436" lon="6.03614">
        <ele>1974.8</ele>
        <time>2021-02-27T09:56:37Z</time>
      </trkpt>
      <trkpt lat="45.22438" lon="6.03615">
        <ele>1977.6</ele>
        <time>2021-02-27T09:56:39Z</time>
      </trkpt>
      <trkpt lat="45.22441" lon="6.03617">
        <ele>1977.6</ele>
        <time>2021-02-27T09:56:42Z</time>
      </trkpt>
      <trkpt lat="45.22443" lon="6.03619">
        <ele>1977.6</ele>
        <time>2021-02-27T09:56:44Z</time>
      </trkpt>
      <trkpt lat="45.22444" lon="6.0362">
        <ele>1977.6</ele>
        <time>2021-02-27T09:56:46Z</time>
      </trkpt>
      <trkpt lat="45.22445" lon="6.03621">
        <ele>1977.6</ele>
        <time>2021-02-27T09:56:48Z</time>
      </trkpt>
      <trkpt lat="45.22446" lon="6.03622">
        <ele>1979.8</ele>
        <time>2021-02-27T09:56:49Z</time>
      </trkpt>
      <trkpt lat="45.22447" lon="6.03625">
        <ele>1979.8</ele>
        <time>2021-02-27T09:56:52Z</time>
      </trkpt>
      <trkpt lat="45.22448" lon="6.03626">
        <ele>1979.8</ele>
        <time>2021-02-27T09:56:54Z</time>
      </trkpt>
      <trkpt lat="45.22449" lon="6.03627">
        <ele>1979.8</ele>
        <time>2021-02-27T09:56:56Z</time>
      </trkpt>
      <trkpt lat="45.2245" lon="6.03629">
        <ele>1979.8</ele>
        <time>2021-02-27T09:56:58Z</time>
      </trkpt>
      <trkpt lat="45.22451" lon="6.0363">
        <ele>1981.8</ele>
        <time>2021-02-27T09:56:59Z</time>
      </trkpt>
      <trkpt lat="45.22454" lon="6.03633">
        <ele>1981.8</ele>
        <time>2021-02-27T09:57:00Z</time>
      </trkpt>
      <trkpt lat="45.22455" lon="6.03634">
        <ele>1981.8</ele>
        <time>2021-02-27T09:57:02Z</time>
      </trkpt>
      <trkpt lat="45.22457" lon="6.03635">
        <ele>1981.8</ele>
        <time>2021-02-27T09:57:04Z</time>
      </trkpt>
      <trkpt lat="45.22458" lon="6.03636">
        <ele>1981.8</ele>
        <time>2021-02-27T09:57:06Z</time>
      </trkpt>
      <trkpt lat="45.2246" lon="6.03637">
        <ele>1981.8</ele>
        <time>2021-02-27T09:57:08Z</time>
      </trkpt>
      <trkpt lat="45.22461" lon="6.03638">
        <ele>1983.6</ele>
        <time>2021-02-27T09:57:09Z</time>
      </trkpt>
      <trkpt lat="45.22463" lon="6.0364">
        <ele>1983.6</ele>
        <time>2021-02-27T09:57:10Z</time>
      </trkpt>
      <trkpt lat="45.22465" lon="6.03642">
        <ele>1983.6</ele>
        <time>2021-02-27T09:57:12Z</time>
      </trkpt>
      <trkpt lat="45.22466" lon="6.03643">
        <ele>1983.6</ele>
        <time>2021-02-27T09:57:13Z</time>
      </trkpt>
      <trkpt lat="45.22467" lon="6.03644">
        <ele>1983.6</ele>
        <time>2021-02-27T09:57:15Z</time>
      </trkpt>
      <trkpt lat="45.22469" lon="6.03646">
        <ele>1983.6</ele>
        <time>2021-02-27T09:57:18Z</time>
      </trkpt>
      <trkpt lat="45.2247" lon="6.03647">
        <ele>1986</ele>
        <time>2021-02-27T09:57:19Z</time>
      </trkpt>
      <trkpt lat="45.22472" lon="6.03649">
        <ele>1986</ele>
        <time>2021-02-27T09:57:20Z</time>
      </trkpt>
      <trkpt lat="45.22474" lon="6.03651">
        <ele>1986</ele>
        <time>2021-02-27T09:57:22Z</time>
      </trkpt>
      <trkpt lat="45.22475" lon="6.03652">
        <ele>1986</ele>
        <time>2021-02-27T09:57:24Z</time>
      </trkpt>
      <trkpt lat="45.22476" lon="6.03654">
        <ele>1986</ele>
        <time>2021-02-27T09:57:26Z</time>
      </trkpt>
      <trkpt lat="45.22478" lon="6.03655">
        <ele>1986</ele>
        <time>2021-02-27T09:57:28Z</time>
      </trkpt>
      <trkpt lat="45.22479" lon="6.03656">
        <ele>1988.6</ele>
        <time>2021-02-27T09:57:29Z</time>
      </trkpt>
      <trkpt lat="45.22481" lon="6.03659">
        <ele>1988.6</ele>
        <time>2021-02-27T09:57:30Z</time>
      </trkpt>
      <trkpt lat="45.22483" lon="6.03661">
        <ele>1988.6</ele>
        <time>2021-02-27T09:57:32Z</time>
      </trkpt>
      <trkpt lat="45.22484" lon="6.03662">
        <ele>1988.6</ele>
        <time>2021-02-27T09:57:34Z</time>
      </trkpt>
      <trkpt lat="45.22486" lon="6.03664">
        <ele>1988.6</ele>
        <time>2021-02-27T09:57:36Z</time>
      </trkpt>
      <trkpt lat="45.22487" lon="6.03665">
        <ele>1988.6</ele>
        <time>2021-02-27T09:57:38Z</time>
      </trkpt>
      <trkpt lat="45.22489" lon="6.03667">
        <ele>1990.4</ele>
        <time>2021-02-27T09:57:39Z</time>
      </trkpt>
      <trkpt lat="45.22489" lon="6.03668">
        <ele>1990.4</ele>
        <time>2021-02-27T09:57:40Z</time>
      </trkpt>
      <trkpt lat="45.22491" lon="6.03671">
        <ele>1990.4</ele>
        <time>2021-02-27T09:57:42Z</time>
      </trkpt>
      <trkpt lat="45.22494" lon="6.03673">
        <ele>1990.4</ele>
        <time>2021-02-27T09:57:45Z</time>
      </trkpt>
      <trkpt lat="45.22496" lon="6.03674">
        <ele>1990.4</ele>
        <time>2021-02-27T09:57:47Z</time>
      </trkpt>
      <trkpt lat="45.22498" lon="6.03676">
        <ele>1995.4</ele>
        <time>2021-02-27T09:57:49Z</time>
      </trkpt>
      <trkpt lat="45.225" lon="6.03677">
        <ele>1995.4</ele>
        <time>2021-02-27T09:57:52Z</time>
      </trkpt>
      <trkpt lat="45.22501" lon="6.03679">
        <ele>1995.4</ele>
        <time>2021-02-27T09:57:56Z</time>
      </trkpt>
      <trkpt lat="45.22504" lon="6.0368">
        <ele>1996.4</ele>
        <time>2021-02-27T09:57:59Z</time>
      </trkpt>
      <trkpt lat="45.22506" lon="6.03681">
        <ele>1996.4</ele>
        <time>2021-02-27T09:58:01Z</time>
      </trkpt>
      <trkpt lat="45.22508" lon="6.03682">
        <ele>1996.4</ele>
        <time>2021-02-27T09:58:04Z</time>
      </trkpt>
      <trkpt lat="45.2251" lon="6.03684">
        <ele>1996.4</ele>
        <time>2021-02-27T09:58:07Z</time>
      </trkpt>
      <trkpt lat="45.2251" lon="6.03684">
        <ele>1997.4</ele>
        <time>2021-02-27T09:58:09Z</time>
      </trkpt>
      <trkpt lat="45.22512" lon="6.03685">
        <ele>1997.4</ele>
        <time>2021-02-27T09:58:10Z</time>
      </trkpt>
      <trkpt lat="45.22514" lon="6.03685">
        <ele>1997.4</ele>
        <time>2021-02-27T09:58:13Z</time>
      </trkpt>
      <trkpt lat="45.22517" lon="6.03686">
        <ele>1997.4</ele>
        <time>2021-02-27T09:58:16Z</time>
      </trkpt>
      <trkpt lat="45.22519" lon="6.03687">
        <ele>2000.4</ele>
        <time>2021-02-27T09:58:19Z</time>
      </trkpt>
      <trkpt lat="45.22523" lon="6.0369">
        <ele>2000.4</ele>
        <time>2021-02-27T09:58:22Z</time>
      </trkpt>
      <trkpt lat="45.22524" lon="6.03691">
        <ele>2000.4</ele>
        <time>2021-02-27T09:58:24Z</time>
      </trkpt>
      <trkpt lat="45.22525" lon="6.03691">
        <ele>2000.4</ele>
        <time>2021-02-27T09:58:26Z</time>
      </trkpt>
      <trkpt lat="45.22527" lon="6.03692">
        <ele>2000.4</ele>
        <time>2021-02-27T09:58:28Z</time>
      </trkpt>
      <trkpt lat="45.22528" lon="6.03693">
        <ele>2002</ele>
        <time>2021-02-27T09:58:29Z</time>
      </trkpt>
      <trkpt lat="45.22531" lon="6.03695">
        <ele>2002</ele>
        <time>2021-02-27T09:58:30Z</time>
      </trkpt>
      <trkpt lat="45.22532" lon="6.03696">
        <ele>2002</ele>
        <time>2021-02-27T09:58:32Z</time>
      </trkpt>
      <trkpt lat="45.22534" lon="6.03697">
        <ele>2002</ele>
        <time>2021-02-27T09:58:34Z</time>
      </trkpt>
      <trkpt lat="45.22535" lon="6.03698">
        <ele>2002</ele>
        <time>2021-02-27T09:58:36Z</time>
      </trkpt>
      <trkpt lat="45.22537" lon="6.03699">
        <ele>2002</ele>
        <time>2021-02-27T09:58:38Z</time>
      </trkpt>
      <trkpt lat="45.22538" lon="6.037">
        <ele>2002</ele>
        <time>2021-02-27T09:58:39Z</time>
      </trkpt>
      <trkpt lat="45.2254" lon="6.03701">
        <ele>2002</ele>
        <time>2021-02-27T09:58:41Z</time>
      </trkpt>
      <trkpt lat="45.22542" lon="6.03702">
        <ele>2002</ele>
        <time>2021-02-27T09:58:43Z</time>
      </trkpt>
      <trkpt lat="45.22544" lon="6.03703">
        <ele>2002</ele>
        <time>2021-02-27T09:58:45Z</time>
      </trkpt>
      <trkpt lat="45.22546" lon="6.03704">
        <ele>2002</ele>
        <time>2021-02-27T09:58:47Z</time>
      </trkpt>
      <trkpt lat="45.22548" lon="6.03705">
        <ele>2003.2</ele>
        <time>2021-02-27T09:58:49Z</time>
      </trkpt>
      <trkpt lat="45.2255" lon="6.03706">
        <ele>2003.2</ele>
        <time>2021-02-27T09:58:51Z</time>
      </trkpt>
      <trkpt lat="45.22553" lon="6.03707">
        <ele>2003.2</ele>
        <time>2021-02-27T09:58:53Z</time>
      </trkpt>
      <trkpt lat="45.22554" lon="6.03709">
        <ele>2003.2</ele>
        <time>2021-02-27T09:58:55Z</time>
      </trkpt>
      <trkpt lat="45.22557" lon="6.0371">
        <ele>2003.2</ele>
        <time>2021-02-27T09:58:57Z</time>
      </trkpt>
      <trkpt lat="45.22559" lon="6.03711">
        <ele>2004.6</ele>
        <time>2021-02-27T09:58:59Z</time>
      </trkpt>
      <trkpt lat="45.22562" lon="6.03712">
        <ele>2004.6</ele>
        <time>2021-02-27T09:59:01Z</time>
      </trkpt>
      <trkpt lat="45.22565" lon="6.03713">
        <ele>2004.6</ele>
        <time>2021-02-27T09:59:03Z</time>
      </trkpt>
      <trkpt lat="45.22568" lon="6.03714">
        <ele>2004.6</ele>
        <time>2021-02-27T09:59:05Z</time>
      </trkpt>
      <trkpt lat="45.22571" lon="6.03716">
        <ele>2004.6</ele>
        <time>2021-02-27T09:59:07Z</time>
      </trkpt>
      <trkpt lat="45.22573" lon="6.03717">
        <ele>2005</ele>
        <time>2021-02-27T09:59:09Z</time>
      </trkpt>
      <trkpt lat="45.22575" lon="6.03718">
        <ele>2005</ele>
        <time>2021-02-27T09:59:11Z</time>
      </trkpt>
      <trkpt lat="45.22577" lon="6.03719">
        <ele>2005</ele>
        <time>2021-02-27T09:59:13Z</time>
      </trkpt>
      <trkpt lat="45.2258" lon="6.03721">
        <ele>2005</ele>
        <time>2021-02-27T09:59:15Z</time>
      </trkpt>
      <trkpt lat="45.22581" lon="6.03722">
        <ele>2005</ele>
        <time>2021-02-27T09:59:17Z</time>
      </trkpt>
      <trkpt lat="45.22584" lon="6.03724">
        <ele>2006.6</ele>
        <time>2021-02-27T09:59:19Z</time>
      </trkpt>
      <trkpt lat="45.22587" lon="6.03725">
        <ele>2006.6</ele>
        <time>2021-02-27T09:59:21Z</time>
      </trkpt>
      <trkpt lat="45.22589" lon="6.03727">
        <ele>2006.6</ele>
        <time>2021-02-27T09:59:23Z</time>
      </trkpt>
      <trkpt lat="45.2259" lon="6.03729">
        <ele>2006.6</ele>
        <time>2021-02-27T09:59:25Z</time>
      </trkpt>
      <trkpt lat="45.22592" lon="6.0373">
        <ele>2006.6</ele>
        <time>2021-02-27T09:59:27Z</time>
      </trkpt>
      <trkpt lat="45.22594" lon="6.03732">
        <ele>2008.4</ele>
        <time>2021-02-27T09:59:29Z</time>
      </trkpt>
      <trkpt lat="45.22596" lon="6.03733">
        <ele>2008.4</ele>
        <time>2021-02-27T09:59:31Z</time>
      </trkpt>
      <trkpt lat="45.22599" lon="6.03735">
        <ele>2008.4</ele>
        <time>2021-02-27T09:59:33Z</time>
      </trkpt>
      <trkpt lat="45.22601" lon="6.03736">
        <ele>2008.4</ele>
        <time>2021-02-27T09:59:35Z</time>
      </trkpt>
      <trkpt lat="45.22604" lon="6.03738">
        <ele>2008.4</ele>
        <time>2021-02-27T09:59:37Z</time>
      </trkpt>
      <trkpt lat="45.22607" lon="6.03738">
        <ele>2009.2</ele>
        <time>2021-02-27T09:59:39Z</time>
      </trkpt>
      <trkpt lat="45.22609" lon="6.0374">
        <ele>2009.2</ele>
        <time>2021-02-27T09:59:41Z</time>
      </trkpt>
      <trkpt lat="45.22611" lon="6.03743">
        <ele>2009.2</ele>
        <time>2021-02-27T09:59:43Z</time>
      </trkpt>
      <trkpt lat="45.22611" lon="6.03746">
        <ele>2009.2</ele>
        <time>2021-02-27T09:59:45Z</time>
      </trkpt>
      <trkpt lat="45.22612" lon="6.03749">
        <ele>2009.2</ele>
        <time>2021-02-27T09:59:47Z</time>
      </trkpt>
      <trkpt lat="45.22613" lon="6.03752">
        <ele>2010.6</ele>
        <time>2021-02-27T09:59:49Z</time>
      </trkpt>
      <trkpt lat="45.22613" lon="6.03756">
        <ele>2010.6</ele>
        <time>2021-02-27T09:59:51Z</time>
      </trkpt>
      <trkpt lat="45.22614" lon="6.0376">
        <ele>2010.6</ele>
        <time>2021-02-27T09:59:53Z</time>
      </trkpt>
      <trkpt lat="45.22614" lon="6.03764">
        <ele>2010.6</ele>
        <time>2021-02-27T09:59:55Z</time>
      </trkpt>
      <trkpt lat="45.22615" lon="6.03767">
        <ele>2010.6</ele>
        <time>2021-02-27T09:59:57Z</time>
      </trkpt>
      <trkpt lat="45.22615" lon="6.03771">
        <ele>2010.2</ele>
        <time>2021-02-27T09:59:59Z</time>
      </trkpt>
      <trkpt lat="45.22616" lon="6.03774">
        <ele>2010.2</ele>
        <time>2021-02-27T10:00:01Z</time>
      </trkpt>
      <trkpt lat="45.22616" lon="6.03778">
        <ele>2010.2</ele>
        <time>2021-02-27T10:00:03Z</time>
      </trkpt>
      <trkpt lat="45.22617" lon="6.03781">
        <ele>2010.2</ele>
        <time>2021-02-27T10:00:05Z</time>
      </trkpt>
      <trkpt lat="45.22618" lon="6.03786">
        <ele>2010.2</ele>
        <time>2021-02-27T10:00:07Z</time>
      </trkpt>
      <trkpt lat="45.22619" lon="6.03789">
        <ele>2009.8</ele>
        <time>2021-02-27T10:00:09Z</time>
      </trkpt>
      <trkpt lat="45.22619" lon="6.03792">
        <ele>2009.8</ele>
        <time>2021-02-27T10:00:11Z</time>
      </trkpt>
      <trkpt lat="45.2262" lon="6.03795">
        <ele>2009.8</ele>
        <time>2021-02-27T10:00:13Z</time>
      </trkpt>
      <trkpt lat="45.22621" lon="6.03798">
        <ele>2009.8</ele>
        <time>2021-02-27T10:00:15Z</time>
      </trkpt>
      <trkpt lat="45.22623" lon="6.03801">
        <ele>2009.8</ele>
        <time>2021-02-27T10:00:17Z</time>
      </trkpt>
      <trkpt lat="45.22625" lon="6.03803">
        <ele>2009.4</ele>
        <time>2021-02-27T10:00:19Z</time>
      </trkpt>
      <trkpt lat="45.22627" lon="6.03805">
        <ele>2009.4</ele>
        <time>2021-02-27T10:00:21Z</time>
      </trkpt>
      <trkpt lat="45.22629" lon="6.03806">
        <ele>2009.4</ele>
        <time>2021-02-27T10:00:23Z</time>
      </trkpt>
      <trkpt lat="45.22631" lon="6.03809">
        <ele>2009.4</ele>
        <time>2021-02-27T10:00:25Z</time>
      </trkpt>
      <trkpt lat="45.22633" lon="6.03812">
        <ele>2009.4</ele>
        <time>2021-02-27T10:00:27Z</time>
      </trkpt>
      <trkpt lat="45.22634" lon="6.03814">
        <ele>2011.2</ele>
        <time>2021-02-27T10:00:29Z</time>
      </trkpt>
      <trkpt lat="45.22636" lon="6.03817">
        <ele>2011.2</ele>
        <time>2021-02-27T10:00:31Z</time>
      </trkpt>
      <trkpt lat="45.22637" lon="6.03819">
        <ele>2011.2</ele>
        <time>2021-02-27T10:00:33Z</time>
      </trkpt>
      <trkpt lat="45.22639" lon="6.03822">
        <ele>2011.2</ele>
        <time>2021-02-27T10:00:35Z</time>
      </trkpt>
      <trkpt lat="45.22641" lon="6.03824">
        <ele>2011.2</ele>
        <time>2021-02-27T10:00:37Z</time>
      </trkpt>
      <trkpt lat="45.22643" lon="6.03827">
        <ele>2013.6</ele>
        <time>2021-02-27T10:00:39Z</time>
      </trkpt>
      <trkpt lat="45.22645" lon="6.0383">
        <ele>2013.6</ele>
        <time>2021-02-27T10:00:41Z</time>
      </trkpt>
      <trkpt lat="45.22647" lon="6.03832">
        <ele>2013.6</ele>
        <time>2021-02-27T10:00:43Z</time>
      </trkpt>
      <trkpt lat="45.22649" lon="6.03835">
        <ele>2013.6</ele>
        <time>2021-02-27T10:00:45Z</time>
      </trkpt>
      <trkpt lat="45.22651" lon="6.03837">
        <ele>2013.6</ele>
        <time>2021-02-27T10:00:47Z</time>
      </trkpt>
      <trkpt lat="45.22652" lon="6.03839">
        <ele>2016.2</ele>
        <time>2021-02-27T10:00:49Z</time>
      </trkpt>
      <trkpt lat="45.22654" lon="6.03841">
        <ele>2016.2</ele>
        <time>2021-02-27T10:00:51Z</time>
      </trkpt>
      <trkpt lat="45.22655" lon="6.03843">
        <ele>2016.2</ele>
        <time>2021-02-27T10:00:53Z</time>
      </trkpt>
      <trkpt lat="45.22657" lon="6.03846">
        <ele>2016.2</ele>
        <time>2021-02-27T10:00:55Z</time>
      </trkpt>
      <trkpt lat="45.22659" lon="6.03847">
        <ele>2016.2</ele>
        <time>2021-02-27T10:00:57Z</time>
      </trkpt>
      <trkpt lat="45.22661" lon="6.03849">
        <ele>2017.8</ele>
        <time>2021-02-27T10:00:59Z</time>
      </trkpt>
      <trkpt lat="45.22663" lon="6.03851">
        <ele>2017.8</ele>
        <time>2021-02-27T10:01:01Z</time>
      </trkpt>
      <trkpt lat="45.22665" lon="6.03853">
        <ele>2017.8</ele>
        <time>2021-02-27T10:01:03Z</time>
      </trkpt>
      <trkpt lat="45.22667" lon="6.03855">
        <ele>2017.8</ele>
        <time>2021-02-27T10:01:05Z</time>
      </trkpt>
      <trkpt lat="45.22669" lon="6.03857">
        <ele>2017.8</ele>
        <time>2021-02-27T10:01:07Z</time>
      </trkpt>
      <trkpt lat="45.2267" lon="6.03859">
        <ele>2020.6</ele>
        <time>2021-02-27T10:01:09Z</time>
      </trkpt>
      <trkpt lat="45.22674" lon="6.03863">
        <ele>2020.6</ele>
        <time>2021-02-27T10:01:11Z</time>
      </trkpt>
      <trkpt lat="45.22675" lon="6.03864">
        <ele>2020.6</ele>
        <time>2021-02-27T10:01:13Z</time>
      </trkpt>
      <trkpt lat="45.22677" lon="6.03866">
        <ele>2020.6</ele>
        <time>2021-02-27T10:01:16Z</time>
      </trkpt>
      <trkpt lat="45.22678" lon="6.03867">
        <ele>2020.6</ele>
        <time>2021-02-27T10:01:18Z</time>
      </trkpt>
      <trkpt lat="45.2268" lon="6.03869">
        <ele>2021.6</ele>
        <time>2021-02-27T10:01:19Z</time>
      </trkpt>
      <trkpt lat="45.22681" lon="6.03869">
        <ele>2021.6</ele>
        <time>2021-02-27T10:01:20Z</time>
      </trkpt>
      <trkpt lat="45.22683" lon="6.03871">
        <ele>2021.6</ele>
        <time>2021-02-27T10:01:23Z</time>
      </trkpt>
      <trkpt lat="45.22684" lon="6.03873">
        <ele>2021.6</ele>
        <time>2021-02-27T10:01:25Z</time>
      </trkpt>
      <trkpt lat="45.22686" lon="6.03875">
        <ele>2021.6</ele>
        <time>2021-02-27T10:01:27Z</time>
      </trkpt>
      <trkpt lat="45.22688" lon="6.03876">
        <ele>2024.2</ele>
        <time>2021-02-27T10:01:29Z</time>
      </trkpt>
      <trkpt lat="45.22692" lon="6.03879">
        <ele>2024.2</ele>
        <time>2021-02-27T10:01:32Z</time>
      </trkpt>
      <trkpt lat="45.22693" lon="6.0388">
        <ele>2024.2</ele>
        <time>2021-02-27T10:01:34Z</time>
      </trkpt>
      <trkpt lat="45.22694" lon="6.03882">
        <ele>2024.2</ele>
        <time>2021-02-27T10:01:36Z</time>
      </trkpt>
      <trkpt lat="45.22695" lon="6.03883">
        <ele>2024.2</ele>
        <time>2021-02-27T10:01:38Z</time>
      </trkpt>
      <trkpt lat="45.22696" lon="6.03885">
        <ele>2026.2</ele>
        <time>2021-02-27T10:01:39Z</time>
      </trkpt>
      <trkpt lat="45.22698" lon="6.03888">
        <ele>2026.2</ele>
        <time>2021-02-27T10:01:40Z</time>
      </trkpt>
      <trkpt lat="45.22699" lon="6.0389">
        <ele>2026.2</ele>
        <time>2021-02-27T10:01:42Z</time>
      </trkpt>
      <trkpt lat="45.227" lon="6.03892">
        <ele>2026.2</ele>
        <time>2021-02-27T10:01:44Z</time>
      </trkpt>
      <trkpt lat="45.227" lon="6.03893">
        <ele>2026.2</ele>
        <time>2021-02-27T10:01:46Z</time>
      </trkpt>
      <trkpt lat="45.22701" lon="6.03895">
        <ele>2026.2</ele>
        <time>2021-02-27T10:01:48Z</time>
      </trkpt>
      <trkpt lat="45.22702" lon="6.03897">
        <ele>2028.8</ele>
        <time>2021-02-27T10:01:49Z</time>
      </trkpt>
      <trkpt lat="45.22703" lon="6.039">
        <ele>2028.8</ele>
        <time>2021-02-27T10:01:50Z</time>
      </trkpt>
      <trkpt lat="45.22703" lon="6.03902">
        <ele>2028.8</ele>
        <time>2021-02-27T10:01:52Z</time>
      </trkpt>
      <trkpt lat="45.22704" lon="6.03904">
        <ele>2028.8</ele>
        <time>2021-02-27T10:01:54Z</time>
      </trkpt>
      <trkpt lat="45.22704" lon="6.03906">
        <ele>2028.8</ele>
        <time>2021-02-27T10:01:56Z</time>
      </trkpt>
      <trkpt lat="45.22704" lon="6.03908">
        <ele>2028.8</ele>
        <time>2021-02-27T10:01:58Z</time>
      </trkpt>
      <trkpt lat="45.22704" lon="6.03911">
        <ele>2031.2</ele>
        <time>2021-02-27T10:01:59Z</time>
      </trkpt>
      <trkpt lat="45.22704" lon="6.03912">
        <ele>2031.2</ele>
        <time>2021-02-27T10:02:01Z</time>
      </trkpt>
      <trkpt lat="45.22704" lon="6.03916">
        <ele>2031.2</ele>
        <time>2021-02-27T10:02:04Z</time>
      </trkpt>
      <trkpt lat="45.22704" lon="6.03919">
        <ele>2031.2</ele>
        <time>2021-02-27T10:02:07Z</time>
      </trkpt>
      <trkpt lat="45.22705" lon="6.03922">
        <ele>2033.2</ele>
        <time>2021-02-27T10:02:09Z</time>
      </trkpt>
      <trkpt lat="45.22707" lon="6.03925">
        <ele>2033.2</ele>
        <time>2021-02-27T10:02:11Z</time>
      </trkpt>
      <trkpt lat="45.22708" lon="6.03927">
        <ele>2033.2</ele>
        <time>2021-02-27T10:02:14Z</time>
      </trkpt>
      <trkpt lat="45.22708" lon="6.03928">
        <ele>2033.2</ele>
        <time>2021-02-27T10:02:18Z</time>
      </trkpt>
      <trkpt lat="45.22709" lon="6.03929">
        <ele>2034.8</ele>
        <time>2021-02-27T10:02:19Z</time>
      </trkpt>
      <trkpt lat="45.22711" lon="6.03933">
        <ele>2034.8</ele>
        <time>2021-02-27T10:02:20Z</time>
      </trkpt>
      <trkpt lat="45.22712" lon="6.03935">
        <ele>2034.8</ele>
        <time>2021-02-27T10:02:22Z</time>
      </trkpt>
      <trkpt lat="45.22713" lon="6.03937">
        <ele>2034.8</ele>
        <time>2021-02-27T10:02:24Z</time>
      </trkpt>
      <trkpt lat="45.22714" lon="6.03939">
        <ele>2034.8</ele>
        <time>2021-02-27T10:02:26Z</time>
      </trkpt>
      <trkpt lat="45.22715" lon="6.03941">
        <ele>2034.8</ele>
        <time>2021-02-27T10:02:28Z</time>
      </trkpt>
      <trkpt lat="45.22716" lon="6.03943">
        <ele>2035.8</ele>
        <time>2021-02-27T10:02:29Z</time>
      </trkpt>
      <trkpt lat="45.22717" lon="6.03944">
        <ele>2035.8</ele>
        <time>2021-02-27T10:02:30Z</time>
      </trkpt>
      <trkpt lat="45.22718" lon="6.03946">
        <ele>2035.8</ele>
        <time>2021-02-27T10:02:32Z</time>
      </trkpt>
      <trkpt lat="45.2272" lon="6.0395">
        <ele>2035.8</ele>
        <time>2021-02-27T10:02:35Z</time>
      </trkpt>
      <trkpt lat="45.22721" lon="6.03953">
        <ele>2035.8</ele>
        <time>2021-02-27T10:02:37Z</time>
      </trkpt>
      <trkpt lat="45.22722" lon="6.03956">
        <ele>2038</ele>
        <time>2021-02-27T10:02:39Z</time>
      </trkpt>
      <trkpt lat="45.22723" lon="6.03958">
        <ele>2038</ele>
        <time>2021-02-27T10:02:41Z</time>
      </trkpt>
      <trkpt lat="45.22724" lon="6.03961">
        <ele>2038</ele>
        <time>2021-02-27T10:02:44Z</time>
      </trkpt>
      <trkpt lat="45.22725" lon="6.03963">
        <ele>2038</ele>
        <time>2021-02-27T10:02:46Z</time>
      </trkpt>
      <trkpt lat="45.22727" lon="6.03965">
        <ele>2041.2</ele>
        <time>2021-02-27T10:02:49Z</time>
      </trkpt>
      <trkpt lat="45.2273" lon="6.03968">
        <ele>2041.2</ele>
        <time>2021-02-27T10:02:51Z</time>
      </trkpt>
      <trkpt lat="45.22731" lon="6.03969">
        <ele>2041.2</ele>
        <time>2021-02-27T10:02:54Z</time>
      </trkpt>
      <trkpt lat="45.22732" lon="6.0397">
        <ele>2041.2</ele>
        <time>2021-02-27T10:02:56Z</time>
      </trkpt>
      <trkpt lat="45.22734" lon="6.03971">
        <ele>2041.2</ele>
        <time>2021-02-27T10:02:58Z</time>
      </trkpt>
      <trkpt lat="45.22735" lon="6.03972">
        <ele>2044.2</ele>
        <time>2021-02-27T10:02:59Z</time>
      </trkpt>
      <trkpt lat="45.22735" lon="6.03973">
        <ele>2044.2</ele>
        <time>2021-02-27T10:03:00Z</time>
      </trkpt>
      <trkpt lat="45.22737" lon="6.03976">
        <ele>2044.2</ele>
        <time>2021-02-27T10:03:02Z</time>
      </trkpt>
      <trkpt lat="45.22739" lon="6.03978">
        <ele>2044.2</ele>
        <time>2021-02-27T10:03:05Z</time>
      </trkpt>
      <trkpt lat="45.2274" lon="6.03981">
        <ele>2044.2</ele>
        <time>2021-02-27T10:03:07Z</time>
      </trkpt>
      <trkpt lat="45.22741" lon="6.03982">
        <ele>2046.4</ele>
        <time>2021-02-27T10:03:09Z</time>
      </trkpt>
      <trkpt lat="45.22743" lon="6.03984">
        <ele>2046.4</ele>
        <time>2021-02-27T10:03:11Z</time>
      </trkpt>
      <trkpt lat="45.22745" lon="6.03987">
        <ele>2046.4</ele>
        <time>2021-02-27T10:03:14Z</time>
      </trkpt>
      <trkpt lat="45.22746" lon="6.03988">
        <ele>2046.4</ele>
        <time>2021-02-27T10:03:16Z</time>
      </trkpt>
      <trkpt lat="45.22748" lon="6.03989">
        <ele>2049.2</ele>
        <time>2021-02-27T10:03:19Z</time>
      </trkpt>
      <trkpt lat="45.2275" lon="6.03991">
        <ele>2049.2</ele>
        <time>2021-02-27T10:03:21Z</time>
      </trkpt>
      <trkpt lat="45.22751" lon="6.03993">
        <ele>2049.2</ele>
        <time>2021-02-27T10:03:23Z</time>
      </trkpt>
      <trkpt lat="45.22753" lon="6.03996">
        <ele>2049.2</ele>
        <time>2021-02-27T10:03:25Z</time>
      </trkpt>
      <trkpt lat="45.22754" lon="6.03998">
        <ele>2049.2</ele>
        <time>2021-02-27T10:03:27Z</time>
      </trkpt>
      <trkpt lat="45.22756" lon="6.04001">
        <ele>2052.6</ele>
        <time>2021-02-27T10:03:29Z</time>
      </trkpt>
      <trkpt lat="45.22757" lon="6.04003">
        <ele>2052.6</ele>
        <time>2021-02-27T10:03:31Z</time>
      </trkpt>
      <trkpt lat="45.22758" lon="6.04006">
        <ele>2052.6</ele>
        <time>2021-02-27T10:03:33Z</time>
      </trkpt>
      <trkpt lat="45.2276" lon="6.04009">
        <ele>2052.6</ele>
        <time>2021-02-27T10:03:35Z</time>
      </trkpt>
      <trkpt lat="45.22761" lon="6.04011">
        <ele>2052.6</ele>
        <time>2021-02-27T10:03:37Z</time>
      </trkpt>
      <trkpt lat="45.22761" lon="6.04011">
        <ele>2055.8</ele>
        <time>2021-02-27T10:03:39Z</time>
      </trkpt>
      <trkpt lat="45.22765" lon="6.04013">
        <ele>2055.8</ele>
        <time>2021-02-27T10:03:40Z</time>
      </trkpt>
      <trkpt lat="45.22766" lon="6.04014">
        <ele>2055.8</ele>
        <time>2021-02-27T10:03:42Z</time>
      </trkpt>
      <trkpt lat="45.22768" lon="6.04014">
        <ele>2055.8</ele>
        <time>2021-02-27T10:03:45Z</time>
      </trkpt>
      <trkpt lat="45.22769" lon="6.04015">
        <ele>2055.8</ele>
        <time>2021-02-27T10:03:48Z</time>
      </trkpt>
      <trkpt lat="45.22771" lon="6.04015">
        <ele>2058.6</ele>
        <time>2021-02-27T10:03:49Z</time>
      </trkpt>
      <trkpt lat="45.22773" lon="6.04015">
        <ele>2058.6</ele>
        <time>2021-02-27T10:03:51Z</time>
      </trkpt>
      <trkpt lat="45.22776" lon="6.04016">
        <ele>2058.6</ele>
        <time>2021-02-27T10:03:53Z</time>
      </trkpt>
      <trkpt lat="45.22778" lon="6.04017">
        <ele>2058.6</ele>
        <time>2021-02-27T10:03:55Z</time>
      </trkpt>
      <trkpt lat="45.2278" lon="6.04019">
        <ele>2058.6</ele>
        <time>2021-02-27T10:03:57Z</time>
      </trkpt>
      <trkpt lat="45.22782" lon="6.04019">
        <ele>2061.6</ele>
        <time>2021-02-27T10:03:59Z</time>
      </trkpt>
      <trkpt lat="45.22785" lon="6.0402">
        <ele>2061.6</ele>
        <time>2021-02-27T10:04:01Z</time>
      </trkpt>
      <trkpt lat="45.22787" lon="6.04022">
        <ele>2061.6</ele>
        <time>2021-02-27T10:04:03Z</time>
      </trkpt>
      <trkpt lat="45.22789" lon="6.04023">
        <ele>2061.6</ele>
        <time>2021-02-27T10:04:05Z</time>
      </trkpt>
      <trkpt lat="45.22791" lon="6.04024">
        <ele>2061.6</ele>
        <time>2021-02-27T10:04:07Z</time>
      </trkpt>
      <trkpt lat="45.22793" lon="6.04025">
        <ele>2063.8</ele>
        <time>2021-02-27T10:04:09Z</time>
      </trkpt>
      <trkpt lat="45.22796" lon="6.04027">
        <ele>2063.8</ele>
        <time>2021-02-27T10:04:12Z</time>
      </trkpt>
      <trkpt lat="45.22797" lon="6.04028">
        <ele>2063.8</ele>
        <time>2021-02-27T10:04:14Z</time>
      </trkpt>
      <trkpt lat="45.228" lon="6.04029">
        <ele>2063.8</ele>
        <time>2021-02-27T10:04:17Z</time>
      </trkpt>
      <trkpt lat="45.22802" lon="6.0403">
        <ele>2066.2</ele>
        <time>2021-02-27T10:04:19Z</time>
      </trkpt>
      <trkpt lat="45.22804" lon="6.0403">
        <ele>2066.2</ele>
        <time>2021-02-27T10:04:21Z</time>
      </trkpt>
      <trkpt lat="45.22806" lon="6.04031">
        <ele>2066.2</ele>
        <time>2021-02-27T10:04:23Z</time>
      </trkpt>
      <trkpt lat="45.22807" lon="6.04033">
        <ele>2066.2</ele>
        <time>2021-02-27T10:04:25Z</time>
      </trkpt>
      <trkpt lat="45.2281" lon="6.04034">
        <ele>2066.2</ele>
        <time>2021-02-27T10:04:27Z</time>
      </trkpt>
      <trkpt lat="45.22812" lon="6.04035">
        <ele>2069.4</ele>
        <time>2021-02-27T10:04:29Z</time>
      </trkpt>
      <trkpt lat="45.22815" lon="6.04038">
        <ele>2069.4</ele>
        <time>2021-02-27T10:04:31Z</time>
      </trkpt>
      <trkpt lat="45.22817" lon="6.0404">
        <ele>2069.4</ele>
        <time>2021-02-27T10:04:33Z</time>
      </trkpt>
      <trkpt lat="45.22818" lon="6.04041">
        <ele>2069.4</ele>
        <time>2021-02-27T10:04:35Z</time>
      </trkpt>
      <trkpt lat="45.22819" lon="6.04043">
        <ele>2069.4</ele>
        <time>2021-02-27T10:04:38Z</time>
      </trkpt>
      <trkpt lat="45.2282" lon="6.04044">
        <ele>2071.4</ele>
        <time>2021-02-27T10:04:39Z</time>
      </trkpt>
      <trkpt lat="45.22821" lon="6.04046">
        <ele>2071.4</ele>
        <time>2021-02-27T10:04:40Z</time>
      </trkpt>
      <trkpt lat="45.22823" lon="6.04048">
        <ele>2071.4</ele>
        <time>2021-02-27T10:04:42Z</time>
      </trkpt>
      <trkpt lat="45.22824" lon="6.04051">
        <ele>2071.4</ele>
        <time>2021-02-27T10:04:45Z</time>
      </trkpt>
      <trkpt lat="45.22824" lon="6.04054">
        <ele>2071.4</ele>
        <time>2021-02-27T10:04:47Z</time>
      </trkpt>
      <trkpt lat="45.22825" lon="6.04057">
        <ele>2074.2</ele>
        <time>2021-02-27T10:04:49Z</time>
      </trkpt>
      <trkpt lat="45.22826" lon="6.04062">
        <ele>2074.2</ele>
        <time>2021-02-27T10:04:51Z</time>
      </trkpt>
      <trkpt lat="45.22827" lon="6.04064">
        <ele>2074.2</ele>
        <time>2021-02-27T10:04:54Z</time>
      </trkpt>
      <trkpt lat="45.22828" lon="6.04066">
        <ele>2074.2</ele>
        <time>2021-02-27T10:04:56Z</time>
      </trkpt>
      <trkpt lat="45.22829" lon="6.04068">
        <ele>2074.2</ele>
        <time>2021-02-27T10:04:58Z</time>
      </trkpt>
      <trkpt lat="45.22829" lon="6.0407">
        <ele>2076.4</ele>
        <time>2021-02-27T10:04:59Z</time>
      </trkpt>
      <trkpt lat="45.22831" lon="6.04073">
        <ele>2076.4</ele>
        <time>2021-02-27T10:05:00Z</time>
      </trkpt>
      <trkpt lat="45.22832" lon="6.04074">
        <ele>2076.4</ele>
        <time>2021-02-27T10:05:02Z</time>
      </trkpt>
      <trkpt lat="45.22834" lon="6.04076">
        <ele>2076.4</ele>
        <time>2021-02-27T10:05:04Z</time>
      </trkpt>
      <trkpt lat="45.22835" lon="6.04078">
        <ele>2076.4</ele>
        <time>2021-02-27T10:05:06Z</time>
      </trkpt>
      <trkpt lat="45.22836" lon="6.04079">
        <ele>2076.4</ele>
        <time>2021-02-27T10:05:08Z</time>
      </trkpt>
      <trkpt lat="45.22837" lon="6.04081">
        <ele>2078.8</ele>
        <time>2021-02-27T10:05:09Z</time>
      </trkpt>
      <trkpt lat="45.22841" lon="6.04083">
        <ele>2078.8</ele>
        <time>2021-02-27T10:05:11Z</time>
      </trkpt>
      <trkpt lat="45.22842" lon="6.04084">
        <ele>2078.8</ele>
        <time>2021-02-27T10:05:13Z</time>
      </trkpt>
      <trkpt lat="45.22844" lon="6.04085">
        <ele>2078.8</ele>
        <time>2021-02-27T10:05:15Z</time>
      </trkpt>
      <trkpt lat="45.22845" lon="6.04086">
        <ele>2078.8</ele>
        <time>2021-02-27T10:05:18Z</time>
      </trkpt>
      <trkpt lat="45.22847" lon="6.04087">
        <ele>2081.2</ele>
        <time>2021-02-27T10:05:19Z</time>
      </trkpt>
      <trkpt lat="45.22849" lon="6.04088">
        <ele>2081.2</ele>
        <time>2021-02-27T10:05:20Z</time>
      </trkpt>
      <trkpt lat="45.22851" lon="6.04089">
        <ele>2081.2</ele>
        <time>2021-02-27T10:05:22Z</time>
      </trkpt>
      <trkpt lat="45.22852" lon="6.0409">
        <ele>2081.2</ele>
        <time>2021-02-27T10:05:24Z</time>
      </trkpt>
      <trkpt lat="45.22854" lon="6.04092">
        <ele>2081.2</ele>
        <time>2021-02-27T10:05:26Z</time>
      </trkpt>
      <trkpt lat="45.22855" lon="6.04093">
        <ele>2081.2</ele>
        <time>2021-02-27T10:05:28Z</time>
      </trkpt>
      <trkpt lat="45.22856" lon="6.04094">
        <ele>2084.2</ele>
        <time>2021-02-27T10:05:29Z</time>
      </trkpt>
      <trkpt lat="45.22857" lon="6.04095">
        <ele>2084.2</ele>
        <time>2021-02-27T10:05:30Z</time>
      </trkpt>
      <trkpt lat="45.22859" lon="6.04096">
        <ele>2084.2</ele>
        <time>2021-02-27T10:05:32Z</time>
      </trkpt>
      <trkpt lat="45.22861" lon="6.04098">
        <ele>2084.2</ele>
        <time>2021-02-27T10:05:34Z</time>
      </trkpt>
      <trkpt lat="45.22862" lon="6.04101">
        <ele>2084.2</ele>
        <time>2021-02-27T10:05:37Z</time>
      </trkpt>
      <trkpt lat="45.22862" lon="6.04101">
        <ele>2087.2</ele>
        <time>2021-02-27T10:05:39Z</time>
      </trkpt>
      <trkpt lat="45.22865" lon="6.04103">
        <ele>2087.2</ele>
        <time>2021-02-27T10:05:40Z</time>
      </trkpt>
      <trkpt lat="45.22867" lon="6.04105">
        <ele>2087.2</ele>
        <time>2021-02-27T10:05:42Z</time>
      </trkpt>
      <trkpt lat="45.22869" lon="6.04107">
        <ele>2087.2</ele>
        <time>2021-02-27T10:05:45Z</time>
      </trkpt>
      <trkpt lat="45.22871" lon="6.04109">
        <ele>2087.2</ele>
        <time>2021-02-27T10:05:47Z</time>
      </trkpt>
      <trkpt lat="45.22873" lon="6.0411">
        <ele>2089.4</ele>
        <time>2021-02-27T10:05:49Z</time>
      </trkpt>
      <trkpt lat="45.22875" lon="6.04111">
        <ele>2089.4</ele>
        <time>2021-02-27T10:05:51Z</time>
      </trkpt>
      <trkpt lat="45.22878" lon="6.04111">
        <ele>2089.4</ele>
        <time>2021-02-27T10:05:53Z</time>
      </trkpt>
      <trkpt lat="45.2288" lon="6.04113">
        <ele>2089.4</ele>
        <time>2021-02-27T10:05:55Z</time>
      </trkpt>
      <trkpt lat="45.22882" lon="6.04113">
        <ele>2089.4</ele>
        <time>2021-02-27T10:05:57Z</time>
      </trkpt>
      <trkpt lat="45.22882" lon="6.04113">
        <ele>2092</ele>
        <time>2021-02-27T10:05:59Z</time>
      </trkpt>
      <trkpt lat="45.22885" lon="6.04114">
        <ele>2092</ele>
        <time>2021-02-27T10:06:00Z</time>
      </trkpt>
      <trkpt lat="45.22887" lon="6.04114">
        <ele>2092</ele>
        <time>2021-02-27T10:06:02Z</time>
      </trkpt>
      <trkpt lat="45.2289" lon="6.04114">
        <ele>2092</ele>
        <time>2021-02-27T10:06:04Z</time>
      </trkpt>
      <trkpt lat="45.22892" lon="6.04114">
        <ele>2092</ele>
        <time>2021-02-27T10:06:06Z</time>
      </trkpt>
      <trkpt lat="45.22895" lon="6.04115">
        <ele>2095</ele>
        <time>2021-02-27T10:06:09Z</time>
      </trkpt>
      <trkpt lat="45.22898" lon="6.04116">
        <ele>2095</ele>
        <time>2021-02-27T10:06:11Z</time>
      </trkpt>
      <trkpt lat="45.229" lon="6.04116">
        <ele>2095</ele>
        <time>2021-02-27T10:06:13Z</time>
      </trkpt>
      <trkpt lat="45.22901" lon="6.04117">
        <ele>2095</ele>
        <time>2021-02-27T10:06:15Z</time>
      </trkpt>
      <trkpt lat="45.22903" lon="6.04117">
        <ele>2095</ele>
        <time>2021-02-27T10:06:18Z</time>
      </trkpt>
      <trkpt lat="45.22904" lon="6.04118">
        <ele>2097.4</ele>
        <time>2021-02-27T10:06:19Z</time>
      </trkpt>
      <trkpt lat="45.22907" lon="6.04119">
        <ele>2097.4</ele>
        <time>2021-02-27T10:06:20Z</time>
      </trkpt>
      <trkpt lat="45.22909" lon="6.04119">
        <ele>2097.4</ele>
        <time>2021-02-27T10:06:22Z</time>
      </trkpt>
      <trkpt lat="45.22911" lon="6.04119">
        <ele>2097.4</ele>
        <time>2021-02-27T10:06:24Z</time>
      </trkpt>
      <trkpt lat="45.22913" lon="6.0412">
        <ele>2097.4</ele>
        <time>2021-02-27T10:06:26Z</time>
      </trkpt>
      <trkpt lat="45.22914" lon="6.0412">
        <ele>2097.4</ele>
        <time>2021-02-27T10:06:28Z</time>
      </trkpt>
      <trkpt lat="45.22916" lon="6.0412">
        <ele>2099.8</ele>
        <time>2021-02-27T10:06:29Z</time>
      </trkpt>
      <trkpt lat="45.22919" lon="6.04121">
        <ele>2099.8</ele>
        <time>2021-02-27T10:06:30Z</time>
      </trkpt>
      <trkpt lat="45.22921" lon="6.04122">
        <ele>2099.8</ele>
        <time>2021-02-27T10:06:33Z</time>
      </trkpt>
      <trkpt lat="45.22922" lon="6.04123">
        <ele>2099.8</ele>
        <time>2021-02-27T10:06:36Z</time>
      </trkpt>
      <trkpt lat="45.22924" lon="6.04123">
        <ele>2099.8</ele>
        <time>2021-02-27T10:06:38Z</time>
      </trkpt>
      <trkpt lat="45.22925" lon="6.04124">
        <ele>2102</ele>
        <time>2021-02-27T10:06:39Z</time>
      </trkpt>
      <trkpt lat="45.22927" lon="6.04124">
        <ele>2102</ele>
        <time>2021-02-27T10:06:40Z</time>
      </trkpt>
      <trkpt lat="45.2293" lon="6.04124">
        <ele>2102</ele>
        <time>2021-02-27T10:06:42Z</time>
      </trkpt>
      <trkpt lat="45.22933" lon="6.04124">
        <ele>2102</ele>
        <time>2021-02-27T10:06:44Z</time>
      </trkpt>
      <trkpt lat="45.22935" lon="6.04123">
        <ele>2102</ele>
        <time>2021-02-27T10:06:47Z</time>
      </trkpt>
      <trkpt lat="45.22937" lon="6.04123">
        <ele>2105</ele>
        <time>2021-02-27T10:06:49Z</time>
      </trkpt>
      <trkpt lat="45.22939" lon="6.04122">
        <ele>2105</ele>
        <time>2021-02-27T10:06:52Z</time>
      </trkpt>
      <trkpt lat="45.22941" lon="6.04122">
        <ele>2105</ele>
        <time>2021-02-27T10:06:54Z</time>
      </trkpt>
      <trkpt lat="45.22944" lon="6.04122">
        <ele>2105</ele>
        <time>2021-02-27T10:06:57Z</time>
      </trkpt>
      <trkpt lat="45.22946" lon="6.04122">
        <ele>2107.8</ele>
        <time>2021-02-27T10:06:59Z</time>
      </trkpt>
      <trkpt lat="45.22949" lon="6.04122">
        <ele>2107.8</ele>
        <time>2021-02-27T10:07:02Z</time>
      </trkpt>
      <trkpt lat="45.2295" lon="6.04123">
        <ele>2107.8</ele>
        <time>2021-02-27T10:07:04Z</time>
      </trkpt>
      <trkpt lat="45.22953" lon="6.04124">
        <ele>2107.8</ele>
        <time>2021-02-27T10:07:07Z</time>
      </trkpt>
      <trkpt lat="45.22956" lon="6.04125">
        <ele>2110.6</ele>
        <time>2021-02-27T10:07:09Z</time>
      </trkpt>
      <trkpt lat="45.2296" lon="6.04126">
        <ele>2110.6</ele>
        <time>2021-02-27T10:07:12Z</time>
      </trkpt>
      <trkpt lat="45.22961" lon="6.04127">
        <ele>2110.6</ele>
        <time>2021-02-27T10:07:14Z</time>
      </trkpt>
      <trkpt lat="45.22963" lon="6.04127">
        <ele>2110.6</ele>
        <time>2021-02-27T10:07:16Z</time>
      </trkpt>
      <trkpt lat="45.22964" lon="6.04127">
        <ele>2110.6</ele>
        <time>2021-02-27T10:07:18Z</time>
      </trkpt>
      <trkpt lat="45.22965" lon="6.04128">
        <ele>2113</ele>
        <time>2021-02-27T10:07:19Z</time>
      </trkpt>
      <trkpt lat="45.22966" lon="6.04128">
        <ele>2113</ele>
        <time>2021-02-27T10:07:20Z</time>
      </trkpt>
      <trkpt lat="45.22969" lon="6.04128">
        <ele>2113</ele>
        <time>2021-02-27T10:07:22Z</time>
      </trkpt>
      <trkpt lat="45.22971" lon="6.04128">
        <ele>2113</ele>
        <time>2021-02-27T10:07:24Z</time>
      </trkpt>
      <trkpt lat="45.22974" lon="6.04127">
        <ele>2113</ele>
        <time>2021-02-27T10:07:27Z</time>
      </trkpt>
      <trkpt lat="45.22977" lon="6.04127">
        <ele>2115.6</ele>
        <time>2021-02-27T10:07:29Z</time>
      </trkpt>
      <trkpt lat="45.22981" lon="6.04127">
        <ele>2115.6</ele>
        <time>2021-02-27T10:07:31Z</time>
      </trkpt>
      <trkpt lat="45.22983" lon="6.04127">
        <ele>2115.6</ele>
        <time>2021-02-27T10:07:33Z</time>
      </trkpt>
      <trkpt lat="45.22984" lon="6.04127">
        <ele>2115.6</ele>
        <time>2021-02-27T10:07:36Z</time>
      </trkpt>
      <trkpt lat="45.22986" lon="6.04127">
        <ele>2115.6</ele>
        <time>2021-02-27T10:07:38Z</time>
      </trkpt>
      <trkpt lat="45.22988" lon="6.04127">
        <ele>2117.8</ele>
        <time>2021-02-27T10:07:39Z</time>
      </trkpt>
      <trkpt lat="45.22991" lon="6.04127">
        <ele>2117.8</ele>
        <time>2021-02-27T10:07:40Z</time>
      </trkpt>
      <trkpt lat="45.22992" lon="6.04127">
        <ele>2117.8</ele>
        <time>2021-02-27T10:07:42Z</time>
      </trkpt>
      <trkpt lat="45.22994" lon="6.04127">
        <ele>2117.8</ele>
        <time>2021-02-27T10:07:44Z</time>
      </trkpt>
      <trkpt lat="45.22996" lon="6.04127">
        <ele>2117.8</ele>
        <time>2021-02-27T10:07:46Z</time>
      </trkpt>
      <trkpt lat="45.22997" lon="6.04127">
        <ele>2117.8</ele>
        <time>2021-02-27T10:07:48Z</time>
      </trkpt>
      <trkpt lat="45.22999" lon="6.04127">
        <ele>2120.6</ele>
        <time>2021-02-27T10:07:49Z</time>
      </trkpt>
      <trkpt lat="45.23001" lon="6.0413">
        <ele>2120.6</ele>
        <time>2021-02-27T10:07:50Z</time>
      </trkpt>
      <trkpt lat="45.23002" lon="6.04132">
        <ele>2120.6</ele>
        <time>2021-02-27T10:07:53Z</time>
      </trkpt>
      <trkpt lat="45.23003" lon="6.04134">
        <ele>2120.6</ele>
        <time>2021-02-27T10:07:55Z</time>
      </trkpt>
      <trkpt lat="45.23004" lon="6.04136">
        <ele>2120.6</ele>
        <time>2021-02-27T10:07:58Z</time>
      </trkpt>
      <trkpt lat="45.23005" lon="6.04138">
        <ele>2123.6</ele>
        <time>2021-02-27T10:07:59Z</time>
      </trkpt>
      <trkpt lat="45.23006" lon="6.04139">
        <ele>2123.6</ele>
        <time>2021-02-27T10:08:00Z</time>
      </trkpt>
      <trkpt lat="45.23008" lon="6.04142">
        <ele>2123.6</ele>
        <time>2021-02-27T10:08:03Z</time>
      </trkpt>
      <trkpt lat="45.2301" lon="6.04144">
        <ele>2123.6</ele>
        <time>2021-02-27T10:08:05Z</time>
      </trkpt>
      <trkpt lat="45.23012" lon="6.04145">
        <ele>2123.6</ele>
        <time>2021-02-27T10:08:07Z</time>
      </trkpt>
      <trkpt lat="45.23014" lon="6.04147">
        <ele>2126.6</ele>
        <time>2021-02-27T10:08:09Z</time>
      </trkpt>
      <trkpt lat="45.23017" lon="6.0415">
        <ele>2126.6</ele>
        <time>2021-02-27T10:08:11Z</time>
      </trkpt>
      <trkpt lat="45.23018" lon="6.04151">
        <ele>2126.6</ele>
        <time>2021-02-27T10:08:14Z</time>
      </trkpt>
      <trkpt lat="45.23019" lon="6.04153">
        <ele>2126.6</ele>
        <time>2021-02-27T10:08:16Z</time>
      </trkpt>
      <trkpt lat="45.2302" lon="6.04154">
        <ele>2126.6</ele>
        <time>2021-02-27T10:08:18Z</time>
      </trkpt>
      <trkpt lat="45.23022" lon="6.04155">
        <ele>2130.8</ele>
        <time>2021-02-27T10:08:19Z</time>
      </trkpt>
      <trkpt lat="45.23023" lon="6.04158">
        <ele>2130.8</ele>
        <time>2021-02-27T10:08:20Z</time>
      </trkpt>
      <trkpt lat="45.23024" lon="6.04159">
        <ele>2130.8</ele>
        <time>2021-02-27T10:08:23Z</time>
      </trkpt>
      <trkpt lat="45.23025" lon="6.04161">
        <ele>2130.8</ele>
        <time>2021-02-27T10:08:25Z</time>
      </trkpt>
      <trkpt lat="45.23026" lon="6.04162">
        <ele>2130.8</ele>
        <time>2021-02-27T10:08:28Z</time>
      </trkpt>
      <trkpt lat="45.23028" lon="6.04164">
        <ele>2134.4</ele>
        <time>2021-02-27T10:08:29Z</time>
      </trkpt>
      <trkpt lat="45.23028" lon="6.04167">
        <ele>2134.4</ele>
        <time>2021-02-27T10:08:31Z</time>
      </trkpt>
      <trkpt lat="45.2303" lon="6.04169">
        <ele>2134.4</ele>
        <time>2021-02-27T10:08:34Z</time>
      </trkpt>
      <trkpt lat="45.23032" lon="6.0417">
        <ele>2134.4</ele>
        <time>2021-02-27T10:08:36Z</time>
      </trkpt>
      <trkpt lat="45.23033" lon="6.04172">
        <ele>2135.6</ele>
        <time>2021-02-27T10:08:39Z</time>
      </trkpt>
      <trkpt lat="45.23035" lon="6.04173">
        <ele>2135.6</ele>
        <time>2021-02-27T10:08:41Z</time>
      </trkpt>
      <trkpt lat="45.23037" lon="6.04175">
        <ele>2135.6</ele>
        <time>2021-02-27T10:08:44Z</time>
      </trkpt>
      <trkpt lat="45.23039" lon="6.04177">
        <ele>2135.6</ele>
        <time>2021-02-27T10:08:47Z</time>
      </trkpt>
      <trkpt lat="45.23041" lon="6.04179">
        <ele>2137.4</ele>
        <time>2021-02-27T10:08:49Z</time>
      </trkpt>
      <trkpt lat="45.23043" lon="6.0418">
        <ele>2137.4</ele>
        <time>2021-02-27T10:08:51Z</time>
      </trkpt>
      <trkpt lat="45.23045" lon="6.04183">
        <ele>2137.4</ele>
        <time>2021-02-27T10:08:54Z</time>
      </trkpt>
      <trkpt lat="45.23046" lon="6.04186">
        <ele>2137.4</ele>
        <time>2021-02-27T10:08:57Z</time>
      </trkpt>
      <trkpt lat="45.23048" lon="6.04187">
        <ele>2140.4</ele>
        <time>2021-02-27T10:08:59Z</time>
      </trkpt>
      <trkpt lat="45.2305" lon="6.04189">
        <ele>2140.4</ele>
        <time>2021-02-27T10:09:02Z</time>
      </trkpt>
      <trkpt lat="45.23051" lon="6.0419">
        <ele>2140.4</ele>
        <time>2021-02-27T10:09:04Z</time>
      </trkpt>
      <trkpt lat="45.23052" lon="6.04193">
        <ele>2140.4</ele>
        <time>2021-02-27T10:09:07Z</time>
      </trkpt>
      <trkpt lat="45.23052" lon="6.04193">
        <ele>2142.8</ele>
        <time>2021-02-27T10:09:09Z</time>
      </trkpt>
      <trkpt lat="45.23053" lon="6.04197">
        <ele>2142.8</ele>
        <time>2021-02-27T10:09:10Z</time>
      </trkpt>
      <trkpt lat="45.23054" lon="6.04198">
        <ele>2142.8</ele>
        <time>2021-02-27T10:09:14Z</time>
      </trkpt>
      <trkpt lat="45.23055" lon="6.04199">
        <ele>2142.8</ele>
        <time>2021-02-27T10:09:18Z</time>
      </trkpt>
      <trkpt lat="45.23055" lon="6.04201">
        <ele>2145</ele>
        <time>2021-02-27T10:09:19Z</time>
      </trkpt>
      <trkpt lat="45.23059" lon="6.04202">
        <ele>2145</ele>
        <time>2021-02-27T10:09:21Z</time>
      </trkpt>
      <trkpt lat="45.23061" lon="6.04202">
        <ele>2145</ele>
        <time>2021-02-27T10:09:23Z</time>
      </trkpt>
      <trkpt lat="45.23062" lon="6.04202">
        <ele>2145</ele>
        <time>2021-02-27T10:09:25Z</time>
      </trkpt>
      <trkpt lat="45.23064" lon="6.04203">
        <ele>2145</ele>
        <time>2021-02-27T10:09:28Z</time>
      </trkpt>
      <trkpt lat="45.23065" lon="6.04203">
        <ele>2148.6</ele>
        <time>2021-02-27T10:09:29Z</time>
      </trkpt>
      <trkpt lat="45.23069" lon="6.04204">
        <ele>2148.6</ele>
        <time>2021-02-27T10:09:31Z</time>
      </trkpt>
      <trkpt lat="45.2307" lon="6.04205">
        <ele>2148.6</ele>
        <time>2021-02-27T10:09:33Z</time>
      </trkpt>
      <trkpt lat="45.23072" lon="6.04206">
        <ele>2148.6</ele>
        <time>2021-02-27T10:09:36Z</time>
      </trkpt>
      <trkpt lat="45.23073" lon="6.04207">
        <ele>2148.6</ele>
        <time>2021-02-27T10:09:38Z</time>
      </trkpt>
      <trkpt lat="45.23074" lon="6.04208">
        <ele>2151.4</ele>
        <time>2021-02-27T10:09:39Z</time>
      </trkpt>
      <trkpt lat="45.23076" lon="6.0421">
        <ele>2151.4</ele>
        <time>2021-02-27T10:09:41Z</time>
      </trkpt>
      <trkpt lat="45.23078" lon="6.04212">
        <ele>2151.4</ele>
        <time>2021-02-27T10:09:43Z</time>
      </trkpt>
      <trkpt lat="45.2308" lon="6.04213">
        <ele>2151.4</ele>
        <time>2021-02-27T10:09:45Z</time>
      </trkpt>
      <trkpt lat="45.23082" lon="6.04215">
        <ele>2151.4</ele>
        <time>2021-02-27T10:09:47Z</time>
      </trkpt>
      <trkpt lat="45.23082" lon="6.04215">
        <ele>2153</ele>
        <time>2021-02-27T10:09:49Z</time>
      </trkpt>
      <trkpt lat="45.23085" lon="6.04215">
        <ele>2153</ele>
        <time>2021-02-27T10:09:50Z</time>
      </trkpt>
      <trkpt lat="45.23087" lon="6.04215">
        <ele>2153</ele>
        <time>2021-02-27T10:09:52Z</time>
      </trkpt>
      <trkpt lat="45.23088" lon="6.04216">
        <ele>2153</ele>
        <time>2021-02-27T10:09:55Z</time>
      </trkpt>
      <trkpt lat="45.23089" lon="6.04216">
        <ele>2153</ele>
        <time>2021-02-27T10:09:58Z</time>
      </trkpt>
      <trkpt lat="45.23091" lon="6.04216">
        <ele>2155</ele>
        <time>2021-02-27T10:09:59Z</time>
      </trkpt>
      <trkpt lat="45.23093" lon="6.04217">
        <ele>2155</ele>
        <time>2021-02-27T10:10:00Z</time>
      </trkpt>
      <trkpt lat="45.23095" lon="6.04218">
        <ele>2155</ele>
        <time>2021-02-27T10:10:03Z</time>
      </trkpt>
      <trkpt lat="45.23097" lon="6.04219">
        <ele>2155</ele>
        <time>2021-02-27T10:10:06Z</time>
      </trkpt>
      <trkpt lat="45.231" lon="6.04219">
        <ele>2159</ele>
        <time>2021-02-27T10:10:09Z</time>
      </trkpt>
      <trkpt lat="45.23104" lon="6.04221">
        <ele>2159</ele>
        <time>2021-02-27T10:10:11Z</time>
      </trkpt>
      <trkpt lat="45.23106" lon="6.04221">
        <ele>2159</ele>
        <time>2021-02-27T10:10:13Z</time>
      </trkpt>
      <trkpt lat="45.23107" lon="6.04222">
        <ele>2159</ele>
        <time>2021-02-27T10:10:15Z</time>
      </trkpt>
      <trkpt lat="45.23108" lon="6.04223">
        <ele>2159</ele>
        <time>2021-02-27T10:10:18Z</time>
      </trkpt>
      <trkpt lat="45.2311" lon="6.04223">
        <ele>2160.4</ele>
        <time>2021-02-27T10:10:19Z</time>
      </trkpt>
      <trkpt lat="45.23112" lon="6.04225">
        <ele>2160.4</ele>
        <time>2021-02-27T10:10:21Z</time>
      </trkpt>
      <trkpt lat="45.23113" lon="6.04226">
        <ele>2160.4</ele>
        <time>2021-02-27T10:10:24Z</time>
      </trkpt>
      <trkpt lat="45.23115" lon="6.04226">
        <ele>2160.4</ele>
        <time>2021-02-27T10:10:26Z</time>
      </trkpt>
      <trkpt lat="45.23116" lon="6.04227">
        <ele>2160.4</ele>
        <time>2021-02-27T10:10:28Z</time>
      </trkpt>
      <trkpt lat="45.23117" lon="6.04227">
        <ele>2162.8</ele>
        <time>2021-02-27T10:10:29Z</time>
      </trkpt>
      <trkpt lat="45.23119" lon="6.04228">
        <ele>2162.8</ele>
        <time>2021-02-27T10:10:31Z</time>
      </trkpt>
      <trkpt lat="45.23121" lon="6.04229">
        <ele>2162.8</ele>
        <time>2021-02-27T10:10:33Z</time>
      </trkpt>
      <trkpt lat="45.23123" lon="6.04231">
        <ele>2162.8</ele>
        <time>2021-02-27T10:10:36Z</time>
      </trkpt>
      <trkpt lat="45.23124" lon="6.04235">
        <ele>2165.4</ele>
        <time>2021-02-27T10:10:39Z</time>
      </trkpt>
      <trkpt lat="45.23122" lon="6.0424">
        <ele>2165.4</ele>
        <time>2021-02-27T10:10:42Z</time>
      </trkpt>
      <trkpt lat="45.23121" lon="6.04241">
        <ele>2165.4</ele>
        <time>2021-02-27T10:10:44Z</time>
      </trkpt>
      <trkpt lat="45.2312" lon="6.04243">
        <ele>2165.4</ele>
        <time>2021-02-27T10:10:46Z</time>
      </trkpt>
      <trkpt lat="45.23119" lon="6.04244">
        <ele>2165.4</ele>
        <time>2021-02-27T10:10:48Z</time>
      </trkpt>
      <trkpt lat="45.23118" lon="6.04246">
        <ele>2169.4</ele>
        <time>2021-02-27T10:10:49Z</time>
      </trkpt>
      <trkpt lat="45.23117" lon="6.04247">
        <ele>2169.4</ele>
        <time>2021-02-27T10:10:51Z</time>
      </trkpt>
      <trkpt lat="45.23115" lon="6.04249">
        <ele>2169.4</ele>
        <time>2021-02-27T10:10:53Z</time>
      </trkpt>
      <trkpt lat="45.23112" lon="6.04251">
        <ele>2169.4</ele>
        <time>2021-02-27T10:10:56Z</time>
      </trkpt>
      <trkpt lat="45.2311" lon="6.04253">
        <ele>2170.6</ele>
        <time>2021-02-27T10:10:59Z</time>
      </trkpt>
      <trkpt lat="45.23106" lon="6.04256">
        <ele>2170.6</ele>
        <time>2021-02-27T10:11:01Z</time>
      </trkpt>
      <trkpt lat="45.23105" lon="6.04257">
        <ele>2170.6</ele>
        <time>2021-02-27T10:11:03Z</time>
      </trkpt>
      <trkpt lat="45.23104" lon="6.04258">
        <ele>2170.6</ele>
        <time>2021-02-27T10:11:05Z</time>
      </trkpt>
      <trkpt lat="45.23102" lon="6.04259">
        <ele>2170.6</ele>
        <time>2021-02-27T10:11:08Z</time>
      </trkpt>
      <trkpt lat="45.23101" lon="6.04261">
        <ele>2173.4</ele>
        <time>2021-02-27T10:11:09Z</time>
      </trkpt>
      <trkpt lat="45.231" lon="6.04262">
        <ele>2173.4</ele>
        <time>2021-02-27T10:11:10Z</time>
      </trkpt>
      <trkpt lat="45.23098" lon="6.04264">
        <ele>2173.4</ele>
        <time>2021-02-27T10:11:13Z</time>
      </trkpt>
      <trkpt lat="45.23096" lon="6.04267">
        <ele>2173.4</ele>
        <time>2021-02-27T10:11:16Z</time>
      </trkpt>
      <trkpt lat="45.23096" lon="6.04267">
        <ele>2176.6</ele>
        <time>2021-02-27T10:11:19Z</time>
      </trkpt>
      <trkpt lat="45.23097" lon="6.04269">
        <ele>2176.6</ele>
        <time>2021-02-27T10:11:21Z</time>
      </trkpt>
      <trkpt lat="45.231" lon="6.0427">
        <ele>2176.6</ele>
        <time>2021-02-27T10:11:23Z</time>
      </trkpt>
      <trkpt lat="45.23101" lon="6.04271">
        <ele>2176.6</ele>
        <time>2021-02-27T10:11:25Z</time>
      </trkpt>
      <trkpt lat="45.23103" lon="6.04271">
        <ele>2176.6</ele>
        <time>2021-02-27T10:11:27Z</time>
      </trkpt>
      <trkpt lat="45.23106" lon="6.04272">
        <ele>2178.6</ele>
        <time>2021-02-27T10:11:29Z</time>
      </trkpt>
      <trkpt lat="45.23109" lon="6.04274">
        <ele>2178.6</ele>
        <time>2021-02-27T10:11:32Z</time>
      </trkpt>
      <trkpt lat="45.23111" lon="6.04275">
        <ele>2178.6</ele>
        <time>2021-02-27T10:11:34Z</time>
      </trkpt>
      <trkpt lat="45.23112" lon="6.04275">
        <ele>2178.6</ele>
        <time>2021-02-27T10:11:36Z</time>
      </trkpt>
      <trkpt lat="45.23114" lon="6.04276">
        <ele>2178.6</ele>
        <time>2021-02-27T10:11:38Z</time>
      </trkpt>
      <trkpt lat="45.23115" lon="6.04277">
        <ele>2181.4</ele>
        <time>2021-02-27T10:11:39Z</time>
      </trkpt>
      <trkpt lat="45.23118" lon="6.04279">
        <ele>2181.4</ele>
        <time>2021-02-27T10:11:41Z</time>
      </trkpt>
      <trkpt lat="45.23119" lon="6.0428">
        <ele>2181.4</ele>
        <time>2021-02-27T10:11:44Z</time>
      </trkpt>
      <trkpt lat="45.2312" lon="6.04281">
        <ele>2181.4</ele>
        <time>2021-02-27T10:11:46Z</time>
      </trkpt>
      <trkpt lat="45.23121" lon="6.04282">
        <ele>2181.4</ele>
        <time>2021-02-27T10:11:48Z</time>
      </trkpt>
      <trkpt lat="45.23123" lon="6.04283">
        <ele>2183</ele>
        <time>2021-02-27T10:11:49Z</time>
      </trkpt>
      <trkpt lat="45.23125" lon="6.04285">
        <ele>2183</ele>
        <time>2021-02-27T10:11:52Z</time>
      </trkpt>
      <trkpt lat="45.23127" lon="6.04286">
        <ele>2183</ele>
        <time>2021-02-27T10:11:54Z</time>
      </trkpt>
      <trkpt lat="45.2313" lon="6.04287">
        <ele>2183</ele>
        <time>2021-02-27T10:11:57Z</time>
      </trkpt>
      <trkpt lat="45.23132" lon="6.04289">
        <ele>2185.2</ele>
        <time>2021-02-27T10:11:59Z</time>
      </trkpt>
      <trkpt lat="45.23134" lon="6.0429">
        <ele>2185.2</ele>
        <time>2021-02-27T10:12:02Z</time>
      </trkpt>
      <trkpt lat="45.23136" lon="6.04289">
        <ele>2185.2</ele>
        <time>2021-02-27T10:12:05Z</time>
      </trkpt>
      <trkpt lat="45.23138" lon="6.04289">
        <ele>2188.4</ele>
        <time>2021-02-27T10:12:09Z</time>
      </trkpt>
      <trkpt lat="45.23141" lon="6.04288">
        <ele>2188.4</ele>
        <time>2021-02-27T10:12:13Z</time>
      </trkpt>
      <trkpt lat="45.23141" lon="6.04286">
        <ele>2188.4</ele>
        <time>2021-02-27T10:12:17Z</time>
      </trkpt>
      <trkpt lat="45.23141" lon="6.04286">
        <ele>2191.4</ele>
        <time>2021-02-27T10:12:19Z</time>
      </trkpt>
      <trkpt lat="45.23144" lon="6.04287">
        <ele>2191.4</ele>
        <time>2021-02-27T10:12:20Z</time>
      </trkpt>
      <trkpt lat="45.23146" lon="6.04288">
        <ele>2191.4</ele>
        <time>2021-02-27T10:12:22Z</time>
      </trkpt>
      <trkpt lat="45.23148" lon="6.0429">
        <ele>2191.4</ele>
        <time>2021-02-27T10:12:27Z</time>
      </trkpt>
      <trkpt lat="45.23148" lon="6.04293">
        <ele>2194</ele>
        <time>2021-02-27T10:12:29Z</time>
      </trkpt>
      <trkpt lat="45.23147" lon="6.04296">
        <ele>2194</ele>
        <time>2021-02-27T10:12:32Z</time>
      </trkpt>
      <trkpt lat="45.23146" lon="6.04298">
        <ele>2194</ele>
        <time>2021-02-27T10:12:34Z</time>
      </trkpt>
      <trkpt lat="45.23144" lon="6.043">
        <ele>2194</ele>
        <time>2021-02-27T10:12:37Z</time>
      </trkpt>
      <trkpt lat="45.23144" lon="6.04303">
        <ele>2196.4</ele>
        <time>2021-02-27T10:12:39Z</time>
      </trkpt>
      <trkpt lat="45.23142" lon="6.04308">
        <ele>2196.4</ele>
        <time>2021-02-27T10:12:41Z</time>
      </trkpt>
      <trkpt lat="45.23141" lon="6.04309">
        <ele>2196.4</ele>
        <time>2021-02-27T10:12:44Z</time>
      </trkpt>
      <trkpt lat="45.23139" lon="6.0431">
        <ele>2196.4</ele>
        <time>2021-02-27T10:12:46Z</time>
      </trkpt>
      <trkpt lat="45.23138" lon="6.04311">
        <ele>2196.4</ele>
        <time>2021-02-27T10:12:48Z</time>
      </trkpt>
      <trkpt lat="45.23137" lon="6.04313">
        <ele>2198.6</ele>
        <time>2021-02-27T10:12:49Z</time>
      </trkpt>
      <trkpt lat="45.23136" lon="6.04313">
        <ele>2198.6</ele>
        <time>2021-02-27T10:12:50Z</time>
      </trkpt>
      <trkpt lat="45.23134" lon="6.04316">
        <ele>2198.6</ele>
        <time>2021-02-27T10:12:53Z</time>
      </trkpt>
      <trkpt lat="45.23133" lon="6.04318">
        <ele>2198.6</ele>
        <time>2021-02-27T10:12:56Z</time>
      </trkpt>
      <trkpt lat="45.23131" lon="6.04321">
        <ele>2201</ele>
        <time>2021-02-27T10:12:59Z</time>
      </trkpt>
      <trkpt lat="45.23129" lon="6.04323">
        <ele>2201</ele>
        <time>2021-02-27T10:13:01Z</time>
      </trkpt>
      <trkpt lat="45.23128" lon="6.04326">
        <ele>2201</ele>
        <time>2021-02-27T10:13:04Z</time>
      </trkpt>
      <trkpt lat="45.23126" lon="6.04329">
        <ele>2201</ele>
        <time>2021-02-27T10:13:07Z</time>
      </trkpt>
      <trkpt lat="45.23124" lon="6.0433">
        <ele>2202.6</ele>
        <time>2021-02-27T10:13:09Z</time>
      </trkpt>
      <trkpt lat="45.23123" lon="6.04332">
        <ele>2202.6</ele>
        <time>2021-02-27T10:13:11Z</time>
      </trkpt>
      <trkpt lat="45.23121" lon="6.04333">
        <ele>2202.6</ele>
        <time>2021-02-27T10:13:14Z</time>
      </trkpt>
      <trkpt lat="45.23118" lon="6.04335">
        <ele>2202.6</ele>
        <time>2021-02-27T10:13:17Z</time>
      </trkpt>
      <trkpt lat="45.23116" lon="6.04337">
        <ele>2204.6</ele>
        <time>2021-02-27T10:13:19Z</time>
      </trkpt>
      <trkpt lat="45.23114" lon="6.04339">
        <ele>2204.6</ele>
        <time>2021-02-27T10:13:22Z</time>
      </trkpt>
      <trkpt lat="45.23112" lon="6.04341">
        <ele>2204.6</ele>
        <time>2021-02-27T10:13:25Z</time>
      </trkpt>
      <trkpt lat="45.2311" lon="6.04342">
        <ele>2204.6</ele>
        <time>2021-02-27T10:13:27Z</time>
      </trkpt>
      <trkpt lat="45.23108" lon="6.04344">
        <ele>2207.2</ele>
        <time>2021-02-27T10:13:29Z</time>
      </trkpt>
      <trkpt lat="45.23106" lon="6.04346">
        <ele>2207.2</ele>
        <time>2021-02-27T10:13:31Z</time>
      </trkpt>
      <trkpt lat="45.23104" lon="6.04348">
        <ele>2207.2</ele>
        <time>2021-02-27T10:13:33Z</time>
      </trkpt>
      <trkpt lat="45.23102" lon="6.0435">
        <ele>2207.2</ele>
        <time>2021-02-27T10:13:36Z</time>
      </trkpt>
      <trkpt lat="45.231" lon="6.04353">
        <ele>2210</ele>
        <time>2021-02-27T10:13:39Z</time>
      </trkpt>
      <trkpt lat="45.23101" lon="6.04355">
        <ele>2210</ele>
        <time>2021-02-27T10:13:48Z</time>
      </trkpt>
      <trkpt lat="45.23101" lon="6.04355">
        <ele>2211.4</ele>
        <time>2021-02-27T10:13:49Z</time>
      </trkpt>
      <trkpt lat="45.23105" lon="6.04355">
        <ele>2211.4</ele>
        <time>2021-02-27T10:13:51Z</time>
      </trkpt>
      <trkpt lat="45.23106" lon="6.04356">
        <ele>2211.4</ele>
        <time>2021-02-27T10:13:53Z</time>
      </trkpt>
      <trkpt lat="45.23107" lon="6.04356">
        <ele>2211.4</ele>
        <time>2021-02-27T10:13:56Z</time>
      </trkpt>
      <trkpt lat="45.23108" lon="6.04356">
        <ele>2211.4</ele>
        <time>2021-02-27T10:13:58Z</time>
      </trkpt>
      <trkpt lat="45.23109" lon="6.04356">
        <ele>2213.2</ele>
        <time>2021-02-27T10:13:59Z</time>
      </trkpt>
      <trkpt lat="45.23111" lon="6.04357">
        <ele>2213.2</ele>
        <time>2021-02-27T10:14:00Z</time>
      </trkpt>
      <trkpt lat="45.23113" lon="6.04359">
        <ele>2213.2</ele>
        <time>2021-02-27T10:14:02Z</time>
      </trkpt>
      <trkpt lat="45.23115" lon="6.0436">
        <ele>2213.2</ele>
        <time>2021-02-27T10:14:04Z</time>
      </trkpt>
      <trkpt lat="45.23117" lon="6.0436">
        <ele>2213.2</ele>
        <time>2021-02-27T10:14:06Z</time>
      </trkpt>
      <trkpt lat="45.23119" lon="6.0436">
        <ele>2215.8</ele>
        <time>2021-02-27T10:14:09Z</time>
      </trkpt>
      <trkpt lat="45.23123" lon="6.04361">
        <ele>2215.8</ele>
        <time>2021-02-27T10:14:12Z</time>
      </trkpt>
      <trkpt lat="45.23124" lon="6.04362">
        <ele>2215.8</ele>
        <time>2021-02-27T10:14:15Z</time>
      </trkpt>
      <trkpt lat="45.23125" lon="6.04363">
        <ele>2215.8</ele>
        <time>2021-02-27T10:14:18Z</time>
      </trkpt>
      <trkpt lat="45.23126" lon="6.04363">
        <ele>2218.8</ele>
        <time>2021-02-27T10:14:19Z</time>
      </trkpt>
      <trkpt lat="45.23122" lon="6.04368">
        <ele>2218.8</ele>
        <time>2021-02-27T10:14:22Z</time>
      </trkpt>
      <trkpt lat="45.2312" lon="6.04369">
        <ele>2221.2</ele>
        <time>2021-02-27T10:14:29Z</time>
      </trkpt>
      <trkpt lat="45.23119" lon="6.0437">
        <ele>2221.2</ele>
        <time>2021-02-27T10:14:31Z</time>
      </trkpt>
      <trkpt lat="45.23117" lon="6.04371">
        <ele>2221.2</ele>
        <time>2021-02-27T10:14:33Z</time>
      </trkpt>
      <trkpt lat="45.23115" lon="6.04373">
        <ele>2221.2</ele>
        <time>2021-02-27T10:14:35Z</time>
      </trkpt>
      <trkpt lat="45.23114" lon="6.04374">
        <ele>2221.2</ele>
        <time>2021-02-27T10:14:36Z</time>
      </trkpt>
      <trkpt lat="45.23112" lon="6.04375">
        <ele>2221.2</ele>
        <time>2021-02-27T10:14:38Z</time>
      </trkpt>
      <trkpt lat="45.2311" lon="6.04377">
        <ele>2223</ele>
        <time>2021-02-27T10:14:39Z</time>
      </trkpt>
      <trkpt lat="45.23109" lon="6.04378">
        <ele>2223</ele>
        <time>2021-02-27T10:14:40Z</time>
      </trkpt>
      <trkpt lat="45.23109" lon="6.04379">
        <ele>2223</ele>
        <time>2021-02-27T10:14:43Z</time>
      </trkpt>
      <trkpt lat="45.23109" lon="6.0438">
        <ele>2223</ele>
        <time>2021-02-27T10:14:48Z</time>
      </trkpt>
      <trkpt lat="45.23109" lon="6.04381">
        <ele>2224.6</ele>
        <time>2021-02-27T10:14:49Z</time>
      </trkpt>
      <trkpt lat="45.23113" lon="6.04383">
        <ele>2224.6</ele>
        <time>2021-02-27T10:14:51Z</time>
      </trkpt>
      <trkpt lat="45.23114" lon="6.04384">
        <ele>2224.6</ele>
        <time>2021-02-27T10:14:53Z</time>
      </trkpt>
      <trkpt lat="45.23116" lon="6.04384">
        <ele>2224.6</ele>
        <time>2021-02-27T10:14:56Z</time>
      </trkpt>
      <trkpt lat="45.23117" lon="6.04385">
        <ele>2224.6</ele>
        <time>2021-02-27T10:14:58Z</time>
      </trkpt>
      <trkpt lat="45.23118" lon="6.04385">
        <ele>2226.6</ele>
        <time>2021-02-27T10:14:59Z</time>
      </trkpt>
      <trkpt lat="45.2312" lon="6.04385">
        <ele>2226.6</ele>
        <time>2021-02-27T10:15:01Z</time>
      </trkpt>
      <trkpt lat="45.23122" lon="6.04386">
        <ele>2226.6</ele>
        <time>2021-02-27T10:15:03Z</time>
      </trkpt>
      <trkpt lat="45.23124" lon="6.04387">
        <ele>2226.6</ele>
        <time>2021-02-27T10:15:05Z</time>
      </trkpt>
      <trkpt lat="45.23125" lon="6.04388">
        <ele>2226.6</ele>
        <time>2021-02-27T10:15:07Z</time>
      </trkpt>
      <trkpt lat="45.23125" lon="6.04388">
        <ele>2229.4</ele>
        <time>2021-02-27T10:15:09Z</time>
      </trkpt>
      <trkpt lat="45.23128" lon="6.04391">
        <ele>2229.4</ele>
        <time>2021-02-27T10:15:10Z</time>
      </trkpt>
      <trkpt lat="45.23128" lon="6.04392">
        <ele>2229.4</ele>
        <time>2021-02-27T10:15:12Z</time>
      </trkpt>
      <trkpt lat="45.23129" lon="6.04392">
        <ele>2229.4</ele>
        <time>2021-02-27T10:15:14Z</time>
      </trkpt>
      <trkpt lat="45.23129" lon="6.04393">
        <ele>2229.4</ele>
        <time>2021-02-27T10:15:18Z</time>
      </trkpt>
      <trkpt lat="45.2313" lon="6.04394">
        <ele>2233.2</ele>
        <time>2021-02-27T10:15:19Z</time>
      </trkpt>
      <trkpt lat="45.23127" lon="6.04399">
        <ele>2233.2</ele>
        <time>2021-02-27T10:15:20Z</time>
      </trkpt>
      <trkpt lat="45.23125" lon="6.044">
        <ele>2233.2</ele>
        <time>2021-02-27T10:15:23Z</time>
      </trkpt>
      <trkpt lat="45.23124" lon="6.04401">
        <ele>2233.2</ele>
        <time>2021-02-27T10:15:25Z</time>
      </trkpt>
      <trkpt lat="45.23122" lon="6.04402">
        <ele>2233.2</ele>
        <time>2021-02-27T10:15:28Z</time>
      </trkpt>
      <trkpt lat="45.23121" lon="6.04403">
        <ele>2235.8</ele>
        <time>2021-02-27T10:15:29Z</time>
      </trkpt>
      <trkpt lat="45.2312" lon="6.04404">
        <ele>2235.8</ele>
        <time>2021-02-27T10:15:30Z</time>
      </trkpt>
      <trkpt lat="45.23118" lon="6.04405">
        <ele>2235.8</ele>
        <time>2021-02-27T10:15:32Z</time>
      </trkpt>
      <trkpt lat="45.23116" lon="6.04406">
        <ele>2235.8</ele>
        <time>2021-02-27T10:15:34Z</time>
      </trkpt>
      <trkpt lat="45.23114" lon="6.04408">
        <ele>2235.8</ele>
        <time>2021-02-27T10:15:36Z</time>
      </trkpt>
      <trkpt lat="45.23113" lon="6.04411">
        <ele>2238.6</ele>
        <time>2021-02-27T10:15:39Z</time>
      </trkpt>
      <trkpt lat="45.2311" lon="6.04414">
        <ele>2238.6</ele>
        <time>2021-02-27T10:15:41Z</time>
      </trkpt>
      <trkpt lat="45.23108" lon="6.04416">
        <ele>2238.6</ele>
        <time>2021-02-27T10:15:43Z</time>
      </trkpt>
      <trkpt lat="45.23107" lon="6.04418">
        <ele>2238.6</ele>
        <time>2021-02-27T10:15:45Z</time>
      </trkpt>
      <trkpt lat="45.23106" lon="6.0442">
        <ele>2238.6</ele>
        <time>2021-02-27T10:15:48Z</time>
      </trkpt>
      <trkpt lat="45.23105" lon="6.04421">
        <ele>2241</ele>
        <time>2021-02-27T10:15:49Z</time>
      </trkpt>
      <trkpt lat="45.23105" lon="6.04423">
        <ele>2241</ele>
        <time>2021-02-27T10:15:50Z</time>
      </trkpt>
      <trkpt lat="45.23106" lon="6.04423">
        <ele>2241</ele>
        <time>2021-02-27T10:15:52Z</time>
      </trkpt>
      <trkpt lat="45.23107" lon="6.04424">
        <ele>2241</ele>
        <time>2021-02-27T10:15:54Z</time>
      </trkpt>
      <trkpt lat="45.23108" lon="6.04424">
        <ele>2243.6</ele>
        <time>2021-02-27T10:15:59Z</time>
      </trkpt>
      <trkpt lat="45.23109" lon="6.04424">
        <ele>2243.6</ele>
        <time>2021-02-27T10:16:00Z</time>
      </trkpt>
      <trkpt lat="45.2311" lon="6.04425">
        <ele>2243.6</ele>
        <time>2021-02-27T10:16:02Z</time>
      </trkpt>
      <trkpt lat="45.23111" lon="6.04425">
        <ele>2243.6</ele>
        <time>2021-02-27T10:16:04Z</time>
      </trkpt>
      <trkpt lat="45.23112" lon="6.04426">
        <ele>2243.6</ele>
        <time>2021-02-27T10:16:06Z</time>
      </trkpt>
      <trkpt lat="45.23113" lon="6.04426">
        <ele>2243.6</ele>
        <time>2021-02-27T10:16:08Z</time>
      </trkpt>
      <trkpt lat="45.23114" lon="6.04426">
        <ele>2245.4</ele>
        <time>2021-02-27T10:16:09Z</time>
      </trkpt>
      <trkpt lat="45.23117" lon="6.04426">
        <ele>2245.4</ele>
        <time>2021-02-27T10:16:10Z</time>
      </trkpt>
      <trkpt lat="45.23119" lon="6.04426">
        <ele>2245.4</ele>
        <time>2021-02-27T10:16:13Z</time>
      </trkpt>
      <trkpt lat="45.2312" lon="6.04426">
        <ele>2245.4</ele>
        <time>2021-02-27T10:16:16Z</time>
      </trkpt>
      <trkpt lat="45.23122" lon="6.04426">
        <ele>2245.4</ele>
        <time>2021-02-27T10:16:18Z</time>
      </trkpt>
      <trkpt lat="45.23123" lon="6.04426">
        <ele>2246.8</ele>
        <time>2021-02-27T10:16:19Z</time>
      </trkpt>
      <trkpt lat="45.23125" lon="6.04427">
        <ele>2246.8</ele>
        <time>2021-02-27T10:16:21Z</time>
      </trkpt>
      <trkpt lat="45.23127" lon="6.04427">
        <ele>2246.8</ele>
        <time>2021-02-27T10:16:23Z</time>
      </trkpt>
      <trkpt lat="45.2313" lon="6.04429">
        <ele>2246.8</ele>
        <time>2021-02-27T10:16:25Z</time>
      </trkpt>
      <trkpt lat="45.23132" lon="6.04429">
        <ele>2249.2</ele>
        <time>2021-02-27T10:16:29Z</time>
      </trkpt>
      <trkpt lat="45.23134" lon="6.04429">
        <ele>2249.2</ele>
        <time>2021-02-27T10:16:31Z</time>
      </trkpt>
      <trkpt lat="45.23136" lon="6.04429">
        <ele>2249.2</ele>
        <time>2021-02-27T10:16:35Z</time>
      </trkpt>
      <trkpt lat="45.23137" lon="6.04427">
        <ele>2249.2</ele>
        <time>2021-02-27T10:16:37Z</time>
      </trkpt>
      <trkpt lat="45.23139" lon="6.04427">
        <ele>2251.4</ele>
        <time>2021-02-27T10:16:39Z</time>
      </trkpt>
      <trkpt lat="45.2314" lon="6.04429">
        <ele>2251.4</ele>
        <time>2021-02-27T10:16:41Z</time>
      </trkpt>
      <trkpt lat="45.23139" lon="6.04431">
        <ele>2251.4</ele>
        <time>2021-02-27T10:16:44Z</time>
      </trkpt>
      <trkpt lat="45.23138" lon="6.04432">
        <ele>2251.4</ele>
        <time>2021-02-27T10:16:46Z</time>
      </trkpt>
      <trkpt lat="45.23137" lon="6.04434">
        <ele>2251.4</ele>
        <time>2021-02-27T10:16:48Z</time>
      </trkpt>
      <trkpt lat="45.23136" lon="6.04435">
        <ele>2254.6</ele>
        <time>2021-02-27T10:16:49Z</time>
      </trkpt>
      <trkpt lat="45.23135" lon="6.04436">
        <ele>2254.6</ele>
        <time>2021-02-27T10:16:50Z</time>
      </trkpt>
      <trkpt lat="45.23133" lon="6.04439">
        <ele>2254.6</ele>
        <time>2021-02-27T10:16:53Z</time>
      </trkpt>
      <trkpt lat="45.23132" lon="6.04441">
        <ele>2254.6</ele>
        <time>2021-02-27T10:16:55Z</time>
      </trkpt>
      <trkpt lat="45.2313" lon="6.04443">
        <ele>2254.6</ele>
        <time>2021-02-27T10:16:57Z</time>
      </trkpt>
      <trkpt lat="45.2313" lon="6.04443">
        <ele>2257.2</ele>
        <time>2021-02-27T10:16:59Z</time>
      </trkpt>
      <trkpt lat="45.23128" lon="6.04444">
        <ele>2257.2</ele>
        <time>2021-02-27T10:17:00Z</time>
      </trkpt>
      <trkpt lat="45.23126" lon="6.04446">
        <ele>2257.2</ele>
        <time>2021-02-27T10:17:02Z</time>
      </trkpt>
      <trkpt lat="45.23124" lon="6.04447">
        <ele>2257.2</ele>
        <time>2021-02-27T10:17:04Z</time>
      </trkpt>
      <trkpt lat="45.23122" lon="6.0445">
        <ele>2257.2</ele>
        <time>2021-02-27T10:17:06Z</time>
      </trkpt>
      <trkpt lat="45.2312" lon="6.04453">
        <ele>2260.2</ele>
        <time>2021-02-27T10:17:09Z</time>
      </trkpt>
      <trkpt lat="45.23119" lon="6.04455">
        <ele>2260.2</ele>
        <time>2021-02-27T10:17:12Z</time>
      </trkpt>
      <trkpt lat="45.23119" lon="6.04455">
        <ele>2260.2</ele>
        <time>2021-02-27T10:17:14Z</time>
      </trkpt>
      <trkpt lat="45.2312" lon="6.04456">
        <ele>2262.8</ele>
        <time>2021-02-27T10:17:19Z</time>
      </trkpt>
      <trkpt lat="45.23121" lon="6.04456">
        <ele>2262.8</ele>
        <time>2021-02-27T10:17:20Z</time>
      </trkpt>
      <trkpt lat="45.23122" lon="6.04457">
        <ele>2262.8</ele>
        <time>2021-02-27T10:17:22Z</time>
      </trkpt>
      <trkpt lat="45.23123" lon="6.04457">
        <ele>2262.8</ele>
        <time>2021-02-27T10:17:25Z</time>
      </trkpt>
      <trkpt lat="45.23123" lon="6.04457">
        <ele>2262.8</ele>
        <time>2021-02-27T10:17:28Z</time>
      </trkpt>
      <trkpt lat="45.23124" lon="6.04458">
        <ele>2262.8</ele>
        <time>2021-02-27T10:17:29Z</time>
      </trkpt>
      <trkpt lat="45.23127" lon="6.0446">
        <ele>2262.8</ele>
        <time>2021-02-27T10:17:30Z</time>
      </trkpt>
      <trkpt lat="45.23128" lon="6.0446">
        <ele>2262.8</ele>
        <time>2021-02-27T10:17:32Z</time>
      </trkpt>
      <trkpt lat="45.23128" lon="6.04461">
        <ele>2262.8</ele>
        <time>2021-02-27T10:17:35Z</time>
      </trkpt>
      <trkpt lat="45.23129" lon="6.04461">
        <ele>2262.8</ele>
        <time>2021-02-27T10:17:38Z</time>
      </trkpt>
      <trkpt lat="45.23129" lon="6.04462">
        <ele>2266</ele>
        <time>2021-02-27T10:17:39Z</time>
      </trkpt>
      <trkpt lat="45.23126" lon="6.04465">
        <ele>2266</ele>
        <time>2021-02-27T10:17:41Z</time>
      </trkpt>
      <trkpt lat="45.23125" lon="6.04466">
        <ele>2266</ele>
        <time>2021-02-27T10:17:43Z</time>
      </trkpt>
      <trkpt lat="45.23124" lon="6.04467">
        <ele>2266</ele>
        <time>2021-02-27T10:17:45Z</time>
      </trkpt>
      <trkpt lat="45.23124" lon="6.04469">
        <ele>2266</ele>
        <time>2021-02-27T10:17:48Z</time>
      </trkpt>
      <trkpt lat="45.23123" lon="6.0447">
        <ele>2269</ele>
        <time>2021-02-27T10:17:49Z</time>
      </trkpt>
      <trkpt lat="45.23121" lon="6.04472">
        <ele>2269</ele>
        <time>2021-02-27T10:17:50Z</time>
      </trkpt>
      <trkpt lat="45.23119" lon="6.04474">
        <ele>2269</ele>
        <time>2021-02-27T10:17:53Z</time>
      </trkpt>
      <trkpt lat="45.23117" lon="6.04475">
        <ele>2269</ele>
        <time>2021-02-27T10:17:56Z</time>
      </trkpt>
      <trkpt lat="45.23117" lon="6.04475">
        <ele>2271.8</ele>
        <time>2021-02-27T10:17:59Z</time>
      </trkpt>
      <trkpt lat="45.2312" lon="6.04477">
        <ele>2271.8</ele>
        <time>2021-02-27T10:18:04Z</time>
      </trkpt>
      <trkpt lat="45.23121" lon="6.04477">
        <ele>2271.8</ele>
        <time>2021-02-27T10:18:06Z</time>
      </trkpt>
      <trkpt lat="45.23122" lon="6.04476">
        <ele>2271.8</ele>
        <time>2021-02-27T10:18:08Z</time>
      </trkpt>
      <trkpt lat="45.23123" lon="6.04476">
        <ele>2273.4</ele>
        <time>2021-02-27T10:18:09Z</time>
      </trkpt>
      <trkpt lat="45.23126" lon="6.04477">
        <ele>2273.4</ele>
        <time>2021-02-27T10:18:10Z</time>
      </trkpt>
      <trkpt lat="45.23128" lon="6.04477">
        <ele>2273.4</ele>
        <time>2021-02-27T10:18:12Z</time>
      </trkpt>
      <trkpt lat="45.2313" lon="6.04476">
        <ele>2273.4</ele>
        <time>2021-02-27T10:18:15Z</time>
      </trkpt>
      <trkpt lat="45.23128" lon="6.04478">
        <ele>2275.4</ele>
        <time>2021-02-27T10:18:19Z</time>
      </trkpt>
      <trkpt lat="45.23126" lon="6.04481">
        <ele>2275.4</ele>
        <time>2021-02-27T10:18:21Z</time>
      </trkpt>
      <trkpt lat="45.23125" lon="6.04483">
        <ele>2275.4</ele>
        <time>2021-02-27T10:18:23Z</time>
      </trkpt>
      <trkpt lat="45.23123" lon="6.04485">
        <ele>2275.4</ele>
        <time>2021-02-27T10:18:26Z</time>
      </trkpt>
      <trkpt lat="45.23122" lon="6.04488">
        <ele>2277.6</ele>
        <time>2021-02-27T10:18:29Z</time>
      </trkpt>
      <trkpt lat="45.23121" lon="6.04491">
        <ele>2277.6</ele>
        <time>2021-02-27T10:18:32Z</time>
      </trkpt>
      <trkpt lat="45.23123" lon="6.04491">
        <ele>2277.6</ele>
        <time>2021-02-27T10:18:37Z</time>
      </trkpt>
      <trkpt lat="45.23125" lon="6.04491">
        <ele>2279</ele>
        <time>2021-02-27T10:18:39Z</time>
      </trkpt>
      <trkpt lat="45.23127" lon="6.04492">
        <ele>2279</ele>
        <time>2021-02-27T10:18:41Z</time>
      </trkpt>
      <trkpt lat="45.23129" lon="6.04492">
        <ele>2279</ele>
        <time>2021-02-27T10:18:43Z</time>
      </trkpt>
      <trkpt lat="45.23131" lon="6.04492">
        <ele>2279</ele>
        <time>2021-02-27T10:18:46Z</time>
      </trkpt>
      <trkpt lat="45.23133" lon="6.04492">
        <ele>2281</ele>
        <time>2021-02-27T10:18:49Z</time>
      </trkpt>
      <trkpt lat="45.23133" lon="6.04495">
        <ele>2281</ele>
        <time>2021-02-27T10:18:57Z</time>
      </trkpt>
      <trkpt lat="45.23133" lon="6.04495">
        <ele>2285</ele>
        <time>2021-02-27T10:18:59Z</time>
      </trkpt>
      <trkpt lat="45.23131" lon="6.04498">
        <ele>2285</ele>
        <time>2021-02-27T10:19:00Z</time>
      </trkpt>
      <trkpt lat="45.23129" lon="6.04501">
        <ele>2285</ele>
        <time>2021-02-27T10:19:03Z</time>
      </trkpt>
      <trkpt lat="45.23128" lon="6.04502">
        <ele>2285</ele>
        <time>2021-02-27T10:19:06Z</time>
      </trkpt>
      <trkpt lat="45.23128" lon="6.04502">
        <ele>2288</ele>
        <time>2021-02-27T10:19:09Z</time>
      </trkpt>
      <trkpt lat="45.23131" lon="6.04502">
        <ele>2288</ele>
        <time>2021-02-27T10:19:10Z</time>
      </trkpt>
      <trkpt lat="45.23133" lon="6.04502">
        <ele>2288</ele>
        <time>2021-02-27T10:19:13Z</time>
      </trkpt>
      <trkpt lat="45.23134" lon="6.04502">
        <ele>2288</ele>
        <time>2021-02-27T10:19:15Z</time>
      </trkpt>
      <trkpt lat="45.23135" lon="6.04501">
        <ele>2288</ele>
        <time>2021-02-27T10:19:18Z</time>
      </trkpt>
      <trkpt lat="45.23137" lon="6.04501">
        <ele>2288.6</ele>
        <time>2021-02-27T10:19:19Z</time>
      </trkpt>
      <trkpt lat="45.23139" lon="6.04502">
        <ele>2288.6</ele>
        <time>2021-02-27T10:19:21Z</time>
      </trkpt>
      <trkpt lat="45.2314" lon="6.04503">
        <ele>2288.6</ele>
        <time>2021-02-27T10:19:24Z</time>
      </trkpt>
      <trkpt lat="45.2314" lon="6.04503">
        <ele>2288.6</ele>
        <time>2021-02-27T10:19:28Z</time>
      </trkpt>
      <trkpt lat="45.23141" lon="6.04504">
        <ele>2291.4</ele>
        <time>2021-02-27T10:19:29Z</time>
      </trkpt>
      <trkpt lat="45.2314" lon="6.04506">
        <ele>2291.4</ele>
        <time>2021-02-27T10:19:30Z</time>
      </trkpt>
      <trkpt lat="45.23138" lon="6.04509">
        <ele>2291.4</ele>
        <time>2021-02-27T10:19:33Z</time>
      </trkpt>
      <trkpt lat="45.23137" lon="6.04512">
        <ele>2291.4</ele>
        <time>2021-02-27T10:19:36Z</time>
      </trkpt>
      <trkpt lat="45.23135" lon="6.04514">
        <ele>2294.4</ele>
        <time>2021-02-27T10:19:39Z</time>
      </trkpt>
      <trkpt lat="45.23138" lon="6.04513">
        <ele>2294.4</ele>
        <time>2021-02-27T10:19:43Z</time>
      </trkpt>
      <trkpt lat="45.23139" lon="6.04513">
        <ele>2294.4</ele>
        <time>2021-02-27T10:19:45Z</time>
      </trkpt>
      <trkpt lat="45.2314" lon="6.04513">
        <ele>2294.4</ele>
        <time>2021-02-27T10:19:48Z</time>
      </trkpt>
      <trkpt lat="45.23141" lon="6.04513">
        <ele>2296.2</ele>
        <time>2021-02-27T10:19:49Z</time>
      </trkpt>
      <trkpt lat="45.23143" lon="6.04513">
        <ele>2296.2</ele>
        <time>2021-02-27T10:19:51Z</time>
      </trkpt>
      <trkpt lat="45.23145" lon="6.04513">
        <ele>2296.2</ele>
        <time>2021-02-27T10:19:53Z</time>
      </trkpt>
      <trkpt lat="45.23147" lon="6.04514">
        <ele>2296.2</ele>
        <time>2021-02-27T10:19:56Z</time>
      </trkpt>
      <trkpt lat="45.23147" lon="6.04517">
        <ele>2298.8</ele>
        <time>2021-02-27T10:19:59Z</time>
      </trkpt>
      <trkpt lat="45.23146" lon="6.0452">
        <ele>2298.8</ele>
        <time>2021-02-27T10:20:02Z</time>
      </trkpt>
      <trkpt lat="45.23147" lon="6.0452">
        <ele>2298.8</ele>
        <time>2021-02-27T10:20:04Z</time>
      </trkpt>
      <trkpt lat="45.23148" lon="6.0452">
        <ele>2301.8</ele>
        <time>2021-02-27T10:20:09Z</time>
      </trkpt>
      <trkpt lat="45.2315" lon="6.0452">
        <ele>2301.8</ele>
        <time>2021-02-27T10:20:12Z</time>
      </trkpt>
      <trkpt lat="45.23151" lon="6.0452">
        <ele>2301.8</ele>
        <time>2021-02-27T10:20:14Z</time>
      </trkpt>
      <trkpt lat="45.23152" lon="6.0452">
        <ele>2301.8</ele>
        <time>2021-02-27T10:20:16Z</time>
      </trkpt>
      <trkpt lat="45.23153" lon="6.0452">
        <ele>2301.8</ele>
        <time>2021-02-27T10:20:18Z</time>
      </trkpt>
      <trkpt lat="45.23154" lon="6.0452">
        <ele>2303</ele>
        <time>2021-02-27T10:20:19Z</time>
      </trkpt>
      <trkpt lat="45.23157" lon="6.04517">
        <ele>2303</ele>
        <time>2021-02-27T10:20:21Z</time>
      </trkpt>
      <trkpt lat="45.23158" lon="6.04516">
        <ele>2303</ele>
        <time>2021-02-27T10:20:23Z</time>
      </trkpt>
      <trkpt lat="45.2316" lon="6.04515">
        <ele>2303</ele>
        <time>2021-02-27T10:20:25Z</time>
      </trkpt>
      <trkpt lat="45.23161" lon="6.04514">
        <ele>2303</ele>
        <time>2021-02-27T10:20:28Z</time>
      </trkpt>
      <trkpt lat="45.23162" lon="6.04513">
        <ele>2304.8</ele>
        <time>2021-02-27T10:20:29Z</time>
      </trkpt>
      <trkpt lat="45.23163" lon="6.04517">
        <ele>2304.8</ele>
        <time>2021-02-27T10:20:32Z</time>
      </trkpt>
      <trkpt lat="45.23163" lon="6.04518">
        <ele>2304.8</ele>
        <time>2021-02-27T10:20:34Z</time>
      </trkpt>
      <trkpt lat="45.23162" lon="6.0452">
        <ele>2304.8</ele>
        <time>2021-02-27T10:20:36Z</time>
      </trkpt>
      <trkpt lat="45.23162" lon="6.04522">
        <ele>2304.8</ele>
        <time>2021-02-27T10:20:38Z</time>
      </trkpt>
      <trkpt lat="45.23162" lon="6.04523">
        <ele>2307.2</ele>
        <time>2021-02-27T10:20:39Z</time>
      </trkpt>
      <trkpt lat="45.23161" lon="6.04527">
        <ele>2307.2</ele>
        <time>2021-02-27T10:20:41Z</time>
      </trkpt>
      <trkpt lat="45.2316" lon="6.0453">
        <ele>2307.2</ele>
        <time>2021-02-27T10:20:44Z</time>
      </trkpt>
      <trkpt lat="45.23159" lon="6.04532">
        <ele>2307.2</ele>
        <time>2021-02-27T10:20:46Z</time>
      </trkpt>
      <trkpt lat="45.23158" lon="6.04535">
        <ele>2310.2</ele>
        <time>2021-02-27T10:20:49Z</time>
      </trkpt>
      <trkpt lat="45.23158" lon="6.04537">
        <ele>2310.2</ele>
        <time>2021-02-27T10:20:51Z</time>
      </trkpt>
      <trkpt lat="45.2316" lon="6.04537">
        <ele>2310.2</ele>
        <time>2021-02-27T10:20:53Z</time>
      </trkpt>
      <trkpt lat="45.23161" lon="6.04537">
        <ele>2311.8</ele>
        <time>2021-02-27T10:20:59Z</time>
      </trkpt>
      <trkpt lat="45.23162" lon="6.04537">
        <ele>2311.8</ele>
        <time>2021-02-27T10:21:00Z</time>
      </trkpt>
      <trkpt lat="45.23163" lon="6.04537">
        <ele>2311.8</ele>
        <time>2021-02-27T10:21:02Z</time>
      </trkpt>
      <trkpt lat="45.23164" lon="6.04537">
        <ele>2311.8</ele>
        <time>2021-02-27T10:21:04Z</time>
      </trkpt>
      <trkpt lat="45.23165" lon="6.04537">
        <ele>2311.8</ele>
        <time>2021-02-27T10:21:06Z</time>
      </trkpt>
      <trkpt lat="45.23166" lon="6.04537">
        <ele>2311.8</ele>
        <time>2021-02-27T10:21:08Z</time>
      </trkpt>
      <trkpt lat="45.23167" lon="6.04537">
        <ele>2314</ele>
        <time>2021-02-27T10:21:09Z</time>
      </trkpt>
      <trkpt lat="45.23168" lon="6.04536">
        <ele>2314</ele>
        <time>2021-02-27T10:21:10Z</time>
      </trkpt>
      <trkpt lat="45.23171" lon="6.04534">
        <ele>2314</ele>
        <time>2021-02-27T10:21:13Z</time>
      </trkpt>
      <trkpt lat="45.23173" lon="6.04532">
        <ele>2314</ele>
        <time>2021-02-27T10:21:16Z</time>
      </trkpt>
      <trkpt lat="45.23175" lon="6.04531">
        <ele>2316.2</ele>
        <time>2021-02-27T10:21:19Z</time>
      </trkpt>
      <trkpt lat="45.23177" lon="6.04531">
        <ele>2316.2</ele>
        <time>2021-02-27T10:21:28Z</time>
      </trkpt>
      <trkpt lat="45.23177" lon="6.04531">
        <ele>2318</ele>
        <time>2021-02-27T10:21:29Z</time>
      </trkpt>
      <trkpt lat="45.23176" lon="6.04536">
        <ele>2318</ele>
        <time>2021-02-27T10:21:32Z</time>
      </trkpt>
      <trkpt lat="45.23175" lon="6.04537">
        <ele>2318</ele>
        <time>2021-02-27T10:21:34Z</time>
      </trkpt>
      <trkpt lat="45.23175" lon="6.04539">
        <ele>2318</ele>
        <time>2021-02-27T10:21:36Z</time>
      </trkpt>
      <trkpt lat="45.23174" lon="6.0454">
        <ele>2318</ele>
        <time>2021-02-27T10:21:38Z</time>
      </trkpt>
      <trkpt lat="45.23174" lon="6.04542">
        <ele>2320.6</ele>
        <time>2021-02-27T10:21:39Z</time>
      </trkpt>
      <trkpt lat="45.23173" lon="6.04544">
        <ele>2320.6</ele>
        <time>2021-02-27T10:21:41Z</time>
      </trkpt>
      <trkpt lat="45.23174" lon="6.04543">
        <ele>2320.6</ele>
        <time>2021-02-27T10:21:48Z</time>
      </trkpt>
      <trkpt lat="45.23174" lon="6.04542">
        <ele>2322.2</ele>
        <time>2021-02-27T10:21:49Z</time>
      </trkpt>
      <trkpt lat="45.23176" lon="6.0454">
        <ele>2322.2</ele>
        <time>2021-02-27T10:21:50Z</time>
      </trkpt>
      <trkpt lat="45.23178" lon="6.04538">
        <ele>2322.2</ele>
        <time>2021-02-27T10:21:52Z</time>
      </trkpt>
      <trkpt lat="45.2318" lon="6.04536">
        <ele>2322.2</ele>
        <time>2021-02-27T10:21:54Z</time>
      </trkpt>
      <trkpt lat="45.23182" lon="6.04533">
        <ele>2322.2</ele>
        <time>2021-02-27T10:21:57Z</time>
      </trkpt>
      <trkpt lat="45.23184" lon="6.04531">
        <ele>2324.2</ele>
        <time>2021-02-27T10:21:59Z</time>
      </trkpt>
      <trkpt lat="45.23186" lon="6.04529">
        <ele>2324.2</ele>
        <time>2021-02-27T10:22:04Z</time>
      </trkpt>
      <trkpt lat="45.23186" lon="6.0453">
        <ele>2324.2</ele>
        <time>2021-02-27T10:22:08Z</time>
      </trkpt>
      <trkpt lat="45.23187" lon="6.04531">
        <ele>2326.6</ele>
        <time>2021-02-27T10:22:09Z</time>
      </trkpt>
      <trkpt lat="45.23186" lon="6.04535">
        <ele>2326.6</ele>
        <time>2021-02-27T10:22:10Z</time>
      </trkpt>
      <trkpt lat="45.23185" lon="6.04537">
        <ele>2326.6</ele>
        <time>2021-02-27T10:22:12Z</time>
      </trkpt>
      <trkpt lat="45.23185" lon="6.04539">
        <ele>2326.6</ele>
        <time>2021-02-27T10:22:14Z</time>
      </trkpt>
      <trkpt lat="45.23184" lon="6.0454">
        <ele>2326.6</ele>
        <time>2021-02-27T10:22:16Z</time>
      </trkpt>
      <trkpt lat="45.23184" lon="6.04542">
        <ele>2326.6</ele>
        <time>2021-02-27T10:22:18Z</time>
      </trkpt>
      <trkpt lat="45.23183" lon="6.04544">
        <ele>2330.2</ele>
        <time>2021-02-27T10:22:19Z</time>
      </trkpt>
      <trkpt lat="45.23183" lon="6.04547">
        <ele>2330.2</ele>
        <time>2021-02-27T10:22:20Z</time>
      </trkpt>
      <trkpt lat="45.23181" lon="6.04549">
        <ele>2330.2</ele>
        <time>2021-02-27T10:22:22Z</time>
      </trkpt>
      <trkpt lat="45.23181" lon="6.04552">
        <ele>2330.2</ele>
        <time>2021-02-27T10:22:25Z</time>
      </trkpt>
      <trkpt lat="45.2318" lon="6.04555">
        <ele>2330.2</ele>
        <time>2021-02-27T10:22:27Z</time>
      </trkpt>
      <trkpt lat="45.2318" lon="6.04555">
        <ele>2332.8</ele>
        <time>2021-02-27T10:22:29Z</time>
      </trkpt>
      <trkpt lat="45.23178" lon="6.0456">
        <ele>2332.8</ele>
        <time>2021-02-27T10:22:30Z</time>
      </trkpt>
      <trkpt lat="45.23178" lon="6.04562">
        <ele>2332.8</ele>
        <time>2021-02-27T10:22:32Z</time>
      </trkpt>
      <trkpt lat="45.23177" lon="6.04564">
        <ele>2332.8</ele>
        <time>2021-02-27T10:22:35Z</time>
      </trkpt>
      <trkpt lat="45.23176" lon="6.04566">
        <ele>2332.8</ele>
        <time>2021-02-27T10:22:38Z</time>
      </trkpt>
      <trkpt lat="45.23176" lon="6.04567">
        <ele>2334.2</ele>
        <time>2021-02-27T10:22:39Z</time>
      </trkpt>
      <trkpt lat="45.23174" lon="6.04572">
        <ele>2334.2</ele>
        <time>2021-02-27T10:22:40Z</time>
      </trkpt>
      <trkpt lat="45.23173" lon="6.04574">
        <ele>2334.2</ele>
        <time>2021-02-27T10:22:42Z</time>
      </trkpt>
      <trkpt lat="45.23173" lon="6.04576">
        <ele>2334.2</ele>
        <time>2021-02-27T10:22:44Z</time>
      </trkpt>
      <trkpt lat="45.23172" lon="6.04578">
        <ele>2334.2</ele>
        <time>2021-02-27T10:22:46Z</time>
      </trkpt>
      <trkpt lat="45.23171" lon="6.0458">
        <ele>2334.2</ele>
        <time>2021-02-27T10:22:48Z</time>
      </trkpt>
      <trkpt lat="45.23171" lon="6.04582">
        <ele>2337.2</ele>
        <time>2021-02-27T10:22:49Z</time>
      </trkpt>
      <trkpt lat="45.2317" lon="6.04584">
        <ele>2337.2</ele>
        <time>2021-02-27T10:22:51Z</time>
      </trkpt>
      <trkpt lat="45.2317" lon="6.04587">
        <ele>2337.2</ele>
        <time>2021-02-27T10:22:53Z</time>
      </trkpt>
      <trkpt lat="45.23169" lon="6.04591">
        <ele>2337.2</ele>
        <time>2021-02-27T10:22:56Z</time>
      </trkpt>
      <trkpt lat="45.23169" lon="6.04594">
        <ele>2339.2</ele>
        <time>2021-02-27T10:22:59Z</time>
      </trkpt>
      <trkpt lat="45.23169" lon="6.04598">
        <ele>2339.2</ele>
        <time>2021-02-27T10:23:02Z</time>
      </trkpt>
      <trkpt lat="45.23169" lon="6.04602">
        <ele>2339.2</ele>
        <time>2021-02-27T10:23:05Z</time>
      </trkpt>
      <trkpt lat="45.2317" lon="6.04605">
        <ele>2339.2</ele>
        <time>2021-02-27T10:23:07Z</time>
      </trkpt>
      <trkpt lat="45.2317" lon="6.04608">
        <ele>2341.8</ele>
        <time>2021-02-27T10:23:09Z</time>
      </trkpt>
      <trkpt lat="45.23171" lon="6.04611">
        <ele>2341.8</ele>
        <time>2021-02-27T10:23:12Z</time>
      </trkpt>
      <trkpt lat="45.23169" lon="6.04613">
        <ele>2341.8</ele>
        <time>2021-02-27T10:23:15Z</time>
      </trkpt>
      <trkpt lat="45.23168" lon="6.04615">
        <ele>2344.2</ele>
        <time>2021-02-27T10:23:19Z</time>
      </trkpt>
      <trkpt lat="45.23166" lon="6.04617">
        <ele>2344.2</ele>
        <time>2021-02-27T10:23:22Z</time>
      </trkpt>
      <trkpt lat="45.23165" lon="6.04619">
        <ele>2344.2</ele>
        <time>2021-02-27T10:23:25Z</time>
      </trkpt>
      <trkpt lat="45.23165" lon="6.04619">
        <ele>2346</ele>
        <time>2021-02-27T10:23:29Z</time>
      </trkpt>
      <trkpt lat="45.23167" lon="6.0462">
        <ele>2346</ele>
        <time>2021-02-27T10:23:30Z</time>
      </trkpt>
      <trkpt lat="45.23169" lon="6.0462">
        <ele>2346</ele>
        <time>2021-02-27T10:23:32Z</time>
      </trkpt>
      <trkpt lat="45.23173" lon="6.0462">
        <ele>2346</ele>
        <time>2021-02-27T10:23:35Z</time>
      </trkpt>
      <trkpt lat="45.23175" lon="6.0462">
        <ele>2346</ele>
        <time>2021-02-27T10:23:37Z</time>
      </trkpt>
      <trkpt lat="45.23175" lon="6.0462">
        <ele>2347</ele>
        <time>2021-02-27T10:23:39Z</time>
      </trkpt>
      <trkpt lat="45.23178" lon="6.04619">
        <ele>2347</ele>
        <time>2021-02-27T10:23:40Z</time>
      </trkpt>
      <trkpt lat="45.2318" lon="6.04619">
        <ele>2347</ele>
        <time>2021-02-27T10:23:42Z</time>
      </trkpt>
      <trkpt lat="45.23181" lon="6.0462">
        <ele>2347</ele>
        <time>2021-02-27T10:23:45Z</time>
      </trkpt>
      <trkpt lat="45.23182" lon="6.0462">
        <ele>2350.6</ele>
        <time>2021-02-27T10:23:49Z</time>
      </trkpt>
      <trkpt lat="45.23183" lon="6.04621">
        <ele>2350.6</ele>
        <time>2021-02-27T10:23:52Z</time>
      </trkpt>
      <trkpt lat="45.23184" lon="6.04621">
        <ele>2350.6</ele>
        <time>2021-02-27T10:23:55Z</time>
      </trkpt>
      <trkpt lat="45.23186" lon="6.04622">
        <ele>2350.6</ele>
        <time>2021-02-27T10:23:58Z</time>
      </trkpt>
      <trkpt lat="45.23187" lon="6.04622">
        <ele>2353.4</ele>
        <time>2021-02-27T10:23:59Z</time>
      </trkpt>
      <trkpt lat="45.23188" lon="6.04625">
        <ele>2353.4</ele>
        <time>2021-02-27T10:24:01Z</time>
      </trkpt>
      <trkpt lat="45.23191" lon="6.04627">
        <ele>2353.4</ele>
        <time>2021-02-27T10:24:04Z</time>
      </trkpt>
      <trkpt lat="45.23192" lon="6.04629">
        <ele>2353.4</ele>
        <time>2021-02-27T10:24:07Z</time>
      </trkpt>
      <trkpt lat="45.23194" lon="6.04631">
        <ele>2355.8</ele>
        <time>2021-02-27T10:24:09Z</time>
      </trkpt>
      <trkpt lat="45.23198" lon="6.04635">
        <ele>2355.8</ele>
        <time>2021-02-27T10:24:12Z</time>
      </trkpt>
      <trkpt lat="45.23199" lon="6.04635">
        <ele>2355.8</ele>
        <time>2021-02-27T10:24:14Z</time>
      </trkpt>
      <trkpt lat="45.232" lon="6.04636">
        <ele>2355.8</ele>
        <time>2021-02-27T10:24:16Z</time>
      </trkpt>
      <trkpt lat="45.23201" lon="6.04637">
        <ele>2355.8</ele>
        <time>2021-02-27T10:24:18Z</time>
      </trkpt>
      <trkpt lat="45.23202" lon="6.04638">
        <ele>2358.2</ele>
        <time>2021-02-27T10:24:19Z</time>
      </trkpt>
      <trkpt lat="45.23204" lon="6.04639">
        <ele>2358.2</ele>
        <time>2021-02-27T10:24:21Z</time>
      </trkpt>
      <trkpt lat="45.23206" lon="6.04639">
        <ele>2358.2</ele>
        <time>2021-02-27T10:24:24Z</time>
      </trkpt>
      <trkpt lat="45.23208" lon="6.04641">
        <ele>2358.2</ele>
        <time>2021-02-27T10:24:27Z</time>
      </trkpt>
      <trkpt lat="45.23208" lon="6.04641">
        <ele>2360.8</ele>
        <time>2021-02-27T10:24:29Z</time>
      </trkpt>
      <trkpt lat="45.2321" lon="6.04645">
        <ele>2360.8</ele>
        <time>2021-02-27T10:24:30Z</time>
      </trkpt>
      <trkpt lat="45.23211" lon="6.04646">
        <ele>2360.8</ele>
        <time>2021-02-27T10:24:33Z</time>
      </trkpt>
      <trkpt lat="45.23212" lon="6.04647">
        <ele>2360.8</ele>
        <time>2021-02-27T10:24:36Z</time>
      </trkpt>
      <trkpt lat="45.23213" lon="6.04649">
        <ele>2360.8</ele>
        <time>2021-02-27T10:24:38Z</time>
      </trkpt>
      <trkpt lat="45.23214" lon="6.0465">
        <ele>2364.2</ele>
        <time>2021-02-27T10:24:39Z</time>
      </trkpt>
      <trkpt lat="45.23216" lon="6.04652">
        <ele>2364.2</ele>
        <time>2021-02-27T10:24:42Z</time>
      </trkpt>
      <trkpt lat="45.23217" lon="6.04655">
        <ele>2364.2</ele>
        <time>2021-02-27T10:24:46Z</time>
      </trkpt>
      <trkpt lat="45.23217" lon="6.04655">
        <ele>2366.6</ele>
        <time>2021-02-27T10:24:49Z</time>
      </trkpt>
      <trkpt lat="45.23219" lon="6.04657">
        <ele>2366.6</ele>
        <time>2021-02-27T10:24:50Z</time>
      </trkpt>
      <trkpt lat="45.23221" lon="6.04659">
        <ele>2366.6</ele>
        <time>2021-02-27T10:24:53Z</time>
      </trkpt>
      <trkpt lat="45.23223" lon="6.04661">
        <ele>2366.6</ele>
        <time>2021-02-27T10:24:57Z</time>
      </trkpt>
      <trkpt lat="45.23223" lon="6.04661">
        <ele>2369.4</ele>
        <time>2021-02-27T10:24:59Z</time>
      </trkpt>
      <trkpt lat="45.23227" lon="6.04664">
        <ele>2369.4</ele>
        <time>2021-02-27T10:25:00Z</time>
      </trkpt>
      <trkpt lat="45.23228" lon="6.04666">
        <ele>2369.4</ele>
        <time>2021-02-27T10:25:03Z</time>
      </trkpt>
      <trkpt lat="45.23228" lon="6.04668">
        <ele>2369.4</ele>
        <time>2021-02-27T10:25:06Z</time>
      </trkpt>
      <trkpt lat="45.23229" lon="6.0467">
        <ele>2369.4</ele>
        <time>2021-02-27T10:25:08Z</time>
      </trkpt>
      <trkpt lat="45.2323" lon="6.04672">
        <ele>2373.4</ele>
        <time>2021-02-27T10:25:09Z</time>
      </trkpt>
      <trkpt lat="45.23229" lon="6.04675">
        <ele>2373.4</ele>
        <time>2021-02-27T10:25:11Z</time>
      </trkpt>
      <trkpt lat="45.23229" lon="6.04678">
        <ele>2373.4</ele>
        <time>2021-02-27T10:25:14Z</time>
      </trkpt>
      <trkpt lat="45.23229" lon="6.04681">
        <ele>2373.4</ele>
        <time>2021-02-27T10:25:17Z</time>
      </trkpt>
      <trkpt lat="45.23229" lon="6.04681">
        <ele>2376</ele>
        <time>2021-02-27T10:25:19Z</time>
      </trkpt>
      <trkpt lat="45.23229" lon="6.04684">
        <ele>2376</ele>
        <time>2021-02-27T10:25:20Z</time>
      </trkpt>
      <trkpt lat="45.2323" lon="6.04686">
        <ele>2376</ele>
        <time>2021-02-27T10:25:23Z</time>
      </trkpt>
      <trkpt lat="45.23233" lon="6.04688">
        <ele>2376</ele>
        <time>2021-02-27T10:25:27Z</time>
      </trkpt>
      <trkpt lat="45.23233" lon="6.04688">
        <ele>2378.4</ele>
        <time>2021-02-27T10:25:29Z</time>
      </trkpt>
      <trkpt lat="45.23236" lon="6.04691">
        <ele>2378.4</ele>
        <time>2021-02-27T10:25:30Z</time>
      </trkpt>
      <trkpt lat="45.23236" lon="6.04692">
        <ele>2378.4</ele>
        <time>2021-02-27T10:25:33Z</time>
      </trkpt>
      <trkpt lat="45.23237" lon="6.04693">
        <ele>2378.4</ele>
        <time>2021-02-27T10:25:35Z</time>
      </trkpt>
      <trkpt lat="45.23238" lon="6.04695">
        <ele>2378.4</ele>
        <time>2021-02-27T10:25:38Z</time>
      </trkpt>
      <trkpt lat="45.23238" lon="6.04696">
        <ele>2380.8</ele>
        <time>2021-02-27T10:25:39Z</time>
      </trkpt>
      <trkpt lat="45.23238" lon="6.04699">
        <ele>2380.8</ele>
        <time>2021-02-27T10:25:41Z</time>
      </trkpt>
      <trkpt lat="45.23239" lon="6.04702">
        <ele>2380.8</ele>
        <time>2021-02-27T10:25:44Z</time>
      </trkpt>
      <trkpt lat="45.23239" lon="6.04705">
        <ele>2380.8</ele>
        <time>2021-02-27T10:25:47Z</time>
      </trkpt>
      <trkpt lat="45.23239" lon="6.04705">
        <ele>2384.4</ele>
        <time>2021-02-27T10:25:49Z</time>
      </trkpt>
      <trkpt lat="45.2324" lon="6.04708">
        <ele>2384.4</ele>
        <time>2021-02-27T10:25:50Z</time>
      </trkpt>
      <trkpt lat="45.23241" lon="6.0471">
        <ele>2384.4</ele>
        <time>2021-02-27T10:25:54Z</time>
      </trkpt>
      <trkpt lat="45.23243" lon="6.04712">
        <ele>2384.4</ele>
        <time>2021-02-27T10:25:57Z</time>
      </trkpt>
      <trkpt lat="45.23243" lon="6.04712">
        <ele>2386.2</ele>
        <time>2021-02-27T10:25:59Z</time>
      </trkpt>
      <trkpt lat="45.23244" lon="6.04714">
        <ele>2386.2</ele>
        <time>2021-02-27T10:26:00Z</time>
      </trkpt>
      <trkpt lat="45.23246" lon="6.04715">
        <ele>2386.2</ele>
        <time>2021-02-27T10:26:03Z</time>
      </trkpt>
      <trkpt lat="45.23248" lon="6.04716">
        <ele>2386.2</ele>
        <time>2021-02-27T10:26:07Z</time>
      </trkpt>
      <trkpt lat="45.23248" lon="6.04716">
        <ele>2389.4</ele>
        <time>2021-02-27T10:26:09Z</time>
      </trkpt>
      <trkpt lat="45.23249" lon="6.04721">
        <ele>2389.4</ele>
        <time>2021-02-27T10:26:10Z</time>
      </trkpt>
      <trkpt lat="45.23249" lon="6.04723">
        <ele>2389.4</ele>
        <time>2021-02-27T10:26:13Z</time>
      </trkpt>
      <trkpt lat="45.2325" lon="6.04725">
        <ele>2389.4</ele>
        <time>2021-02-27T10:26:15Z</time>
      </trkpt>
      <trkpt lat="45.2325" lon="6.04726">
        <ele>2389.4</ele>
        <time>2021-02-27T10:26:18Z</time>
      </trkpt>
      <trkpt lat="45.2325" lon="6.04728">
        <ele>2392</ele>
        <time>2021-02-27T10:26:19Z</time>
      </trkpt>
      <trkpt lat="45.23251" lon="6.04732">
        <ele>2392</ele>
        <time>2021-02-27T10:26:21Z</time>
      </trkpt>
      <trkpt lat="45.23251" lon="6.04733">
        <ele>2392</ele>
        <time>2021-02-27T10:26:24Z</time>
      </trkpt>
      <trkpt lat="45.23252" lon="6.04735">
        <ele>2392</ele>
        <time>2021-02-27T10:26:28Z</time>
      </trkpt>
      <trkpt lat="45.23253" lon="6.04736">
        <ele>2394.2</ele>
        <time>2021-02-27T10:26:29Z</time>
      </trkpt>
      <trkpt lat="45.23254" lon="6.04738">
        <ele>2394.2</ele>
        <time>2021-02-27T10:26:31Z</time>
      </trkpt>
      <trkpt lat="45.23256" lon="6.04739">
        <ele>2394.2</ele>
        <time>2021-02-27T10:26:34Z</time>
      </trkpt>
      <trkpt lat="45.23258" lon="6.04739">
        <ele>2394.2</ele>
        <time>2021-02-27T10:26:37Z</time>
      </trkpt>
      <trkpt lat="45.23258" lon="6.04739">
        <ele>2397.2</ele>
        <time>2021-02-27T10:26:39Z</time>
      </trkpt>
      <trkpt lat="45.2326" lon="6.04739">
        <ele>2397.2</ele>
        <time>2021-02-27T10:26:40Z</time>
      </trkpt>
      <trkpt lat="45.23262" lon="6.0474">
        <ele>2397.2</ele>
        <time>2021-02-27T10:26:43Z</time>
      </trkpt>
      <trkpt lat="45.23264" lon="6.0474">
        <ele>2397.2</ele>
        <time>2021-02-27T10:26:45Z</time>
      </trkpt>
      <trkpt lat="45.23266" lon="6.0474">
        <ele>2397.2</ele>
        <time>2021-02-27T10:26:47Z</time>
      </trkpt>
      <trkpt lat="45.23266" lon="6.0474">
        <ele>2399.2</ele>
        <time>2021-02-27T10:26:49Z</time>
      </trkpt>
      <trkpt lat="45.23268" lon="6.0474">
        <ele>2399.2</ele>
        <time>2021-02-27T10:26:50Z</time>
      </trkpt>
      <trkpt lat="45.2327" lon="6.04739">
        <ele>2399.2</ele>
        <time>2021-02-27T10:26:54Z</time>
      </trkpt>
      <trkpt lat="45.23271" lon="6.04743">
        <ele>2399.2</ele>
        <time>2021-02-27T10:26:57Z</time>
      </trkpt>
      <trkpt lat="45.23271" lon="6.04743">
        <ele>2402</ele>
        <time>2021-02-27T10:26:59Z</time>
      </trkpt>
      <trkpt lat="45.23271" lon="6.04748">
        <ele>2402</ele>
        <time>2021-02-27T10:27:00Z</time>
      </trkpt>
      <trkpt lat="45.2327" lon="6.0475">
        <ele>2402</ele>
        <time>2021-02-27T10:27:02Z</time>
      </trkpt>
      <trkpt lat="45.2327" lon="6.04752">
        <ele>2402</ele>
        <time>2021-02-27T10:27:05Z</time>
      </trkpt>
      <trkpt lat="45.2327" lon="6.04753">
        <ele>2402</ele>
        <time>2021-02-27T10:27:08Z</time>
      </trkpt>
      <trkpt lat="45.2327" lon="6.04755">
        <ele>2405</ele>
        <time>2021-02-27T10:27:09Z</time>
      </trkpt>
      <trkpt lat="45.2327" lon="6.04759">
        <ele>2405</ele>
        <time>2021-02-27T10:27:11Z</time>
      </trkpt>
      <trkpt lat="45.23269" lon="6.04762">
        <ele>2405</ele>
        <time>2021-02-27T10:27:14Z</time>
      </trkpt>
      <trkpt lat="45.23269" lon="6.04764">
        <ele>2405</ele>
        <time>2021-02-27T10:27:16Z</time>
      </trkpt>
      <trkpt lat="45.23269" lon="6.04767">
        <ele>2408.4</ele>
        <time>2021-02-27T10:27:19Z</time>
      </trkpt>
      <trkpt lat="45.23269" lon="6.04772">
        <ele>2408.4</ele>
        <time>2021-02-27T10:27:22Z</time>
      </trkpt>
      <trkpt lat="45.23269" lon="6.04773">
        <ele>2408.4</ele>
        <time>2021-02-27T10:27:25Z</time>
      </trkpt>
      <trkpt lat="45.23269" lon="6.04775">
        <ele>2408.4</ele>
        <time>2021-02-27T10:27:28Z</time>
      </trkpt>
      <trkpt lat="45.23269" lon="6.04776">
        <ele>2410.4</ele>
        <time>2021-02-27T10:27:29Z</time>
      </trkpt>
      <trkpt lat="45.23269" lon="6.04779">
        <ele>2410.4</ele>
        <time>2021-02-27T10:27:31Z</time>
      </trkpt>
      <trkpt lat="45.23268" lon="6.04783">
        <ele>2410.4</ele>
        <time>2021-02-27T10:27:34Z</time>
      </trkpt>
      <trkpt lat="45.23268" lon="6.04785">
        <ele>2410.4</ele>
        <time>2021-02-27T10:27:37Z</time>
      </trkpt>
      <trkpt lat="45.23268" lon="6.04785">
        <ele>2412.8</ele>
        <time>2021-02-27T10:27:39Z</time>
      </trkpt>
      <trkpt lat="45.23269" lon="6.04789">
        <ele>2412.8</ele>
        <time>2021-02-27T10:27:41Z</time>
      </trkpt>
      <trkpt lat="45.2327" lon="6.0479">
        <ele>2412.8</ele>
        <time>2021-02-27T10:27:45Z</time>
      </trkpt>
      <trkpt lat="45.23271" lon="6.04791">
        <ele>2412.8</ele>
        <time>2021-02-27T10:27:48Z</time>
      </trkpt>
      <trkpt lat="45.23272" lon="6.04792">
        <ele>2414.6</ele>
        <time>2021-02-27T10:27:49Z</time>
      </trkpt>
      <trkpt lat="45.23274" lon="6.04796">
        <ele>2414.6</ele>
        <time>2021-02-27T10:27:52Z</time>
      </trkpt>
      <trkpt lat="45.23274" lon="6.04797">
        <ele>2414.6</ele>
        <time>2021-02-27T10:27:55Z</time>
      </trkpt>
      <trkpt lat="45.23275" lon="6.04799">
        <ele>2414.6</ele>
        <time>2021-02-27T10:27:58Z</time>
      </trkpt>
      <trkpt lat="45.23276" lon="6.048">
        <ele>2417.6</ele>
        <time>2021-02-27T10:27:59Z</time>
      </trkpt>
      <trkpt lat="45.23277" lon="6.04804">
        <ele>2417.6</ele>
        <time>2021-02-27T10:28:02Z</time>
      </trkpt>
      <trkpt lat="45.23278" lon="6.04806">
        <ele>2417.6</ele>
        <time>2021-02-27T10:28:05Z</time>
      </trkpt>
      <trkpt lat="45.23278" lon="6.04807">
        <ele>2417.6</ele>
        <time>2021-02-27T10:28:08Z</time>
      </trkpt>
      <trkpt lat="45.23279" lon="6.04808">
        <ele>2419.8</ele>
        <time>2021-02-27T10:28:09Z</time>
      </trkpt>
      <trkpt lat="45.2328" lon="6.04811">
        <ele>2419.8</ele>
        <time>2021-02-27T10:28:11Z</time>
      </trkpt>
      <trkpt lat="45.23281" lon="6.04814">
        <ele>2419.8</ele>
        <time>2021-02-27T10:28:14Z</time>
      </trkpt>
      <trkpt lat="45.23282" lon="6.04817">
        <ele>2419.8</ele>
        <time>2021-02-27T10:28:17Z</time>
      </trkpt>
      <trkpt lat="45.23282" lon="6.04819">
        <ele>2422.2</ele>
        <time>2021-02-27T10:28:19Z</time>
      </trkpt>
      <trkpt lat="45.23281" lon="6.04824">
        <ele>2422.2</ele>
        <time>2021-02-27T10:28:22Z</time>
      </trkpt>
      <trkpt lat="45.23281" lon="6.04826">
        <ele>2422.2</ele>
        <time>2021-02-27T10:28:25Z</time>
      </trkpt>
      <trkpt lat="45.2328" lon="6.04827">
        <ele>2422.2</ele>
        <time>2021-02-27T10:28:28Z</time>
      </trkpt>
      <trkpt lat="45.2328" lon="6.04829">
        <ele>2425.6</ele>
        <time>2021-02-27T10:28:29Z</time>
      </trkpt>
      <trkpt lat="45.23278" lon="6.04832">
        <ele>2425.6</ele>
        <time>2021-02-27T10:28:31Z</time>
      </trkpt>
      <trkpt lat="45.23277" lon="6.04834">
        <ele>2425.6</ele>
        <time>2021-02-27T10:28:34Z</time>
      </trkpt>
      <trkpt lat="45.23276" lon="6.04837">
        <ele>2425.6</ele>
        <time>2021-02-27T10:28:37Z</time>
      </trkpt>
      <trkpt lat="45.23276" lon="6.04837">
        <ele>2428.6</ele>
        <time>2021-02-27T10:28:39Z</time>
      </trkpt>
      <trkpt lat="45.23274" lon="6.0484">
        <ele>2428.6</ele>
        <time>2021-02-27T10:28:40Z</time>
      </trkpt>
      <trkpt lat="45.23273" lon="6.04843">
        <ele>2428.6</ele>
        <time>2021-02-27T10:28:44Z</time>
      </trkpt>
      <trkpt lat="45.23272" lon="6.04845">
        <ele>2428.6</ele>
        <time>2021-02-27T10:28:47Z</time>
      </trkpt>
      <trkpt lat="45.23272" lon="6.04845">
        <ele>2431.6</ele>
        <time>2021-02-27T10:28:49Z</time>
      </trkpt>
      <trkpt lat="45.2327" lon="6.04848">
        <ele>2431.6</ele>
        <time>2021-02-27T10:28:50Z</time>
      </trkpt>
      <trkpt lat="45.23269" lon="6.04851">
        <ele>2431.6</ele>
        <time>2021-02-27T10:28:53Z</time>
      </trkpt>
      <trkpt lat="45.23269" lon="6.04853">
        <ele>2431.6</ele>
        <time>2021-02-27T10:28:56Z</time>
      </trkpt>
      <trkpt lat="45.23269" lon="6.04853">
        <ele>2433.8</ele>
        <time>2021-02-27T10:28:59Z</time>
      </trkpt>
      <trkpt lat="45.23269" lon="6.04853">
        <ele>2435</ele>
        <time>2021-02-27T10:29:09Z</time>
      </trkpt>
      <trkpt lat="45.23269" lon="6.04853">
        <ele>2435.2</ele>
        <time>2021-02-27T10:29:19Z</time>
      </trkpt>
      <trkpt lat="45.23269" lon="6.04853">
        <ele>2434</ele>
        <time>2021-02-27T10:29:29Z</time>
      </trkpt>
      <trkpt lat="45.23269" lon="6.04853">
        <ele>2437</ele>
        <time>2021-02-27T10:29:39Z</time>
      </trkpt>
      <trkpt lat="45.23269" lon="6.04853">
        <ele>2435.2</ele>
        <time>2021-02-27T10:29:49Z</time>
      </trkpt>
      <trkpt lat="45.23269" lon="6.04853">
        <ele>2437.8</ele>
        <time>2021-02-27T10:29:59Z</time>
      </trkpt>
      <trkpt lat="45.23269" lon="6.04853">
        <ele>2437.6</ele>
        <time>2021-02-27T10:30:09Z</time>
      </trkpt>
      <trkpt lat="45.23268" lon="6.04858">
        <ele>2437.6</ele>
        <time>2021-02-27T10:30:18Z</time>
      </trkpt>
      <trkpt lat="45.23268" lon="6.04863">
        <ele>2437.6</ele>
        <time>2021-02-27T10:30:19Z</time>
      </trkpt>
      <trkpt lat="45.23267" lon="6.04874">
        <ele>2437.6</ele>
        <time>2021-02-27T10:30:20Z</time>
      </trkpt>
      <trkpt lat="45.23266" lon="6.04879">
        <ele>2437.6</ele>
        <time>2021-02-27T10:30:21Z</time>
      </trkpt>
      <trkpt lat="45.23266" lon="6.04884">
        <ele>2437.6</ele>
        <time>2021-02-27T10:30:22Z</time>
      </trkpt>
      <trkpt lat="45.23265" lon="6.0489">
        <ele>2437.6</ele>
        <time>2021-02-27T10:30:23Z</time>
      </trkpt>
      <trkpt lat="45.23265" lon="6.04895">
        <ele>2437.6</ele>
        <time>2021-02-27T10:30:24Z</time>
      </trkpt>
      <trkpt lat="45.23264" lon="6.049">
        <ele>2437.6</ele>
        <time>2021-02-27T10:30:25Z</time>
      </trkpt>
      <trkpt lat="45.23264" lon="6.04906">
        <ele>2437.6</ele>
        <time>2021-02-27T10:30:26Z</time>
      </trkpt>
      <trkpt lat="45.23263" lon="6.04911">
        <ele>2437.6</ele>
        <time>2021-02-27T10:30:27Z</time>
      </trkpt>
      <trkpt lat="45.23263" lon="6.04916">
        <ele>2437.6</ele>
        <time>2021-02-27T10:30:28Z</time>
      </trkpt>
      <trkpt lat="45.23262" lon="6.04921">
        <ele>2433.6</ele>
        <time>2021-02-27T10:30:29Z</time>
      </trkpt>
      <trkpt lat="45.23261" lon="6.04932">
        <ele>2433.6</ele>
        <time>2021-02-27T10:30:30Z</time>
      </trkpt>
      <trkpt lat="45.23259" lon="6.04938">
        <ele>2433.6</ele>
        <time>2021-02-27T10:30:31Z</time>
      </trkpt>
      <trkpt lat="45.23258" lon="6.04944">
        <ele>2433.6</ele>
        <time>2021-02-27T10:30:32Z</time>
      </trkpt>
      <trkpt lat="45.23256" lon="6.0495">
        <ele>2433.6</ele>
        <time>2021-02-27T10:30:33Z</time>
      </trkpt>
      <trkpt lat="45.23255" lon="6.04956">
        <ele>2433.6</ele>
        <time>2021-02-27T10:30:34Z</time>
      </trkpt>
      <trkpt lat="45.23254" lon="6.04962">
        <ele>2433.6</ele>
        <time>2021-02-27T10:30:35Z</time>
      </trkpt>
      <trkpt lat="45.23252" lon="6.04968">
        <ele>2433.6</ele>
        <time>2021-02-27T10:30:36Z</time>
      </trkpt>
      <trkpt lat="45.23251" lon="6.04974">
        <ele>2433.6</ele>
        <time>2021-02-27T10:30:37Z</time>
      </trkpt>
      <trkpt lat="45.2325" lon="6.04981">
        <ele>2433.6</ele>
        <time>2021-02-27T10:30:38Z</time>
      </trkpt>
      <trkpt lat="45.23248" lon="6.04987">
        <ele>2430</ele>
        <time>2021-02-27T10:30:39Z</time>
      </trkpt>
      <trkpt lat="45.23245" lon="6.04993">
        <ele>2430</ele>
        <time>2021-02-27T10:30:40Z</time>
      </trkpt>
      <trkpt lat="45.23243" lon="6.04995">
        <ele>2430</ele>
        <time>2021-02-27T10:30:41Z</time>
      </trkpt>
      <trkpt lat="45.23242" lon="6.04997">
        <ele>2430</ele>
        <time>2021-02-27T10:30:42Z</time>
      </trkpt>
      <trkpt lat="45.2324" lon="6.04998">
        <ele>2430</ele>
        <time>2021-02-27T10:30:43Z</time>
      </trkpt>
      <trkpt lat="45.23238" lon="6.05">
        <ele>2430</ele>
        <time>2021-02-27T10:30:44Z</time>
      </trkpt>
      <trkpt lat="45.23237" lon="6.05002">
        <ele>2430</ele>
        <time>2021-02-27T10:30:45Z</time>
      </trkpt>
      <trkpt lat="45.23235" lon="6.05004">
        <ele>2430</ele>
        <time>2021-02-27T10:30:46Z</time>
      </trkpt>
      <trkpt lat="45.23234" lon="6.05006">
        <ele>2430</ele>
        <time>2021-02-27T10:30:47Z</time>
      </trkpt>
      <trkpt lat="45.23232" lon="6.05008">
        <ele>2430</ele>
        <time>2021-02-27T10:30:48Z</time>
      </trkpt>
      <trkpt lat="45.2323" lon="6.0501">
        <ele>2426.6</ele>
        <time>2021-02-27T10:30:49Z</time>
      </trkpt>
      <trkpt lat="45.23228" lon="6.05011">
        <ele>2426.6</ele>
        <time>2021-02-27T10:30:50Z</time>
      </trkpt>
      <trkpt lat="45.23227" lon="6.05016">
        <ele>2426.6</ele>
        <time>2021-02-27T10:30:51Z</time>
      </trkpt>
      <trkpt lat="45.23226" lon="6.05021">
        <ele>2426.6</ele>
        <time>2021-02-27T10:30:52Z</time>
      </trkpt>
      <trkpt lat="45.23226" lon="6.05025">
        <ele>2426.6</ele>
        <time>2021-02-27T10:30:53Z</time>
      </trkpt>
      <trkpt lat="45.23225" lon="6.0503">
        <ele>2426.6</ele>
        <time>2021-02-27T10:30:54Z</time>
      </trkpt>
      <trkpt lat="45.23224" lon="6.05035">
        <ele>2426.6</ele>
        <time>2021-02-27T10:30:55Z</time>
      </trkpt>
      <trkpt lat="45.23223" lon="6.0504">
        <ele>2426.6</ele>
        <time>2021-02-27T10:30:56Z</time>
      </trkpt>
      <trkpt lat="45.23223" lon="6.05044">
        <ele>2426.6</ele>
        <time>2021-02-27T10:30:57Z</time>
      </trkpt>
      <trkpt lat="45.23222" lon="6.05049">
        <ele>2426.6</ele>
        <time>2021-02-27T10:30:58Z</time>
      </trkpt>
      <trkpt lat="45.23221" lon="6.05054">
        <ele>2413.8</ele>
        <time>2021-02-27T10:30:59Z</time>
      </trkpt>
      <trkpt lat="45.2322" lon="6.05068">
        <ele>2413.8</ele>
        <time>2021-02-27T10:31:00Z</time>
      </trkpt>
      <trkpt lat="45.23219" lon="6.05075">
        <ele>2413.8</ele>
        <time>2021-02-27T10:31:01Z</time>
      </trkpt>
      <trkpt lat="45.23218" lon="6.05082">
        <ele>2413.8</ele>
        <time>2021-02-27T10:31:02Z</time>
      </trkpt>
      <trkpt lat="45.23217" lon="6.05088">
        <ele>2413.8</ele>
        <time>2021-02-27T10:31:03Z</time>
      </trkpt>
      <trkpt lat="45.23216" lon="6.05095">
        <ele>2413.8</ele>
        <time>2021-02-27T10:31:04Z</time>
      </trkpt>
      <trkpt lat="45.23214" lon="6.05101">
        <ele>2413.8</ele>
        <time>2021-02-27T10:31:05Z</time>
      </trkpt>
      <trkpt lat="45.23213" lon="6.05108">
        <ele>2413.8</ele>
        <time>2021-02-27T10:31:06Z</time>
      </trkpt>
      <trkpt lat="45.23212" lon="6.05115">
        <ele>2413.8</ele>
        <time>2021-02-27T10:31:07Z</time>
      </trkpt>
      <trkpt lat="45.23211" lon="6.05121">
        <ele>2413.8</ele>
        <time>2021-02-27T10:31:08Z</time>
      </trkpt>
      <trkpt lat="45.2321" lon="6.05128">
        <ele>2403.4</ele>
        <time>2021-02-27T10:31:09Z</time>
      </trkpt>
      <trkpt lat="45.23207" lon="6.05137">
        <ele>2403.4</ele>
        <time>2021-02-27T10:31:10Z</time>
      </trkpt>
      <trkpt lat="45.23206" lon="6.0514">
        <ele>2403.4</ele>
        <time>2021-02-27T10:31:11Z</time>
      </trkpt>
      <trkpt lat="45.23205" lon="6.05142">
        <ele>2403.4</ele>
        <time>2021-02-27T10:31:12Z</time>
      </trkpt>
      <trkpt lat="45.23204" lon="6.05145">
        <ele>2403.4</ele>
        <time>2021-02-27T10:31:13Z</time>
      </trkpt>
      <trkpt lat="45.23203" lon="6.05148">
        <ele>2403.4</ele>
        <time>2021-02-27T10:31:14Z</time>
      </trkpt>
      <trkpt lat="45.23201" lon="6.05151">
        <ele>2403.4</ele>
        <time>2021-02-27T10:31:15Z</time>
      </trkpt>
      <trkpt lat="45.232" lon="6.05154">
        <ele>2403.4</ele>
        <time>2021-02-27T10:31:17Z</time>
      </trkpt>
      <trkpt lat="45.23199" lon="6.05157">
        <ele>2403.4</ele>
        <time>2021-02-27T10:31:18Z</time>
      </trkpt>
      <trkpt lat="45.23198" lon="6.0516">
        <ele>2391.4</ele>
        <time>2021-02-27T10:31:19Z</time>
      </trkpt>
      <trkpt lat="45.23196" lon="6.0517">
        <ele>2391.4</ele>
        <time>2021-02-27T10:31:20Z</time>
      </trkpt>
      <trkpt lat="45.23195" lon="6.05176">
        <ele>2391.4</ele>
        <time>2021-02-27T10:31:21Z</time>
      </trkpt>
      <trkpt lat="45.23194" lon="6.05181">
        <ele>2391.4</ele>
        <time>2021-02-27T10:31:22Z</time>
      </trkpt>
      <trkpt lat="45.23193" lon="6.05186">
        <ele>2391.4</ele>
        <time>2021-02-27T10:31:23Z</time>
      </trkpt>
      <trkpt lat="45.23192" lon="6.05192">
        <ele>2391.4</ele>
        <time>2021-02-27T10:31:24Z</time>
      </trkpt>
      <trkpt lat="45.23191" lon="6.05197">
        <ele>2391.4</ele>
        <time>2021-02-27T10:31:25Z</time>
      </trkpt>
      <trkpt lat="45.2319" lon="6.05202">
        <ele>2391.4</ele>
        <time>2021-02-27T10:31:26Z</time>
      </trkpt>
      <trkpt lat="45.23189" lon="6.05207">
        <ele>2391.4</ele>
        <time>2021-02-27T10:31:27Z</time>
      </trkpt>
      <trkpt lat="45.23188" lon="6.05213">
        <ele>2391.4</ele>
        <time>2021-02-27T10:31:28Z</time>
      </trkpt>
      <trkpt lat="45.23186" lon="6.05218">
        <ele>2382.4</ele>
        <time>2021-02-27T10:31:29Z</time>
      </trkpt>
      <trkpt lat="45.23184" lon="6.05229">
        <ele>2382.4</ele>
        <time>2021-02-27T10:31:30Z</time>
      </trkpt>
      <trkpt lat="45.23183" lon="6.05235">
        <ele>2382.4</ele>
        <time>2021-02-27T10:31:31Z</time>
      </trkpt>
      <trkpt lat="45.23182" lon="6.05242">
        <ele>2382.4</ele>
        <time>2021-02-27T10:31:32Z</time>
      </trkpt>
      <trkpt lat="45.23181" lon="6.05248">
        <ele>2382.4</ele>
        <time>2021-02-27T10:31:33Z</time>
      </trkpt>
      <trkpt lat="45.23179" lon="6.05255">
        <ele>2382.4</ele>
        <time>2021-02-27T10:31:34Z</time>
      </trkpt>
      <trkpt lat="45.23178" lon="6.05261">
        <ele>2382.4</ele>
        <time>2021-02-27T10:31:35Z</time>
      </trkpt>
      <trkpt lat="45.23177" lon="6.05268">
        <ele>2382.4</ele>
        <time>2021-02-27T10:31:36Z</time>
      </trkpt>
      <trkpt lat="45.23176" lon="6.05274">
        <ele>2382.4</ele>
        <time>2021-02-27T10:31:37Z</time>
      </trkpt>
      <trkpt lat="45.23175" lon="6.05281">
        <ele>2382.4</ele>
        <time>2021-02-27T10:31:38Z</time>
      </trkpt>
      <trkpt lat="45.23173" lon="6.05287">
        <ele>2376.2</ele>
        <time>2021-02-27T10:31:39Z</time>
      </trkpt>
      <trkpt lat="45.23171" lon="6.05297">
        <ele>2376.2</ele>
        <time>2021-02-27T10:31:40Z</time>
      </trkpt>
      <trkpt lat="45.23169" lon="6.05301">
        <ele>2376.2</ele>
        <time>2021-02-27T10:31:41Z</time>
      </trkpt>
      <trkpt lat="45.23168" lon="6.05305">
        <ele>2376.2</ele>
        <time>2021-02-27T10:31:42Z</time>
      </trkpt>
      <trkpt lat="45.23167" lon="6.05309">
        <ele>2376.2</ele>
        <time>2021-02-27T10:31:43Z</time>
      </trkpt>
      <trkpt lat="45.23166" lon="6.05314">
        <ele>2376.2</ele>
        <time>2021-02-27T10:31:44Z</time>
      </trkpt>
      <trkpt lat="45.23164" lon="6.05318">
        <ele>2376.2</ele>
        <time>2021-02-27T10:31:45Z</time>
      </trkpt>
      <trkpt lat="45.23163" lon="6.05322">
        <ele>2376.2</ele>
        <time>2021-02-27T10:31:46Z</time>
      </trkpt>
      <trkpt lat="45.23162" lon="6.05326">
        <ele>2376.2</ele>
        <time>2021-02-27T10:31:47Z</time>
      </trkpt>
      <trkpt lat="45.23161" lon="6.0533">
        <ele>2376.2</ele>
        <time>2021-02-27T10:31:48Z</time>
      </trkpt>
      <trkpt lat="45.23159" lon="6.05334">
        <ele>2374</ele>
        <time>2021-02-27T10:31:49Z</time>
      </trkpt>
      <trkpt lat="45.23157" lon="6.05338">
        <ele>2374</ele>
        <time>2021-02-27T10:31:50Z</time>
      </trkpt>
      <trkpt lat="45.23156" lon="6.05341">
        <ele>2374</ele>
        <time>2021-02-27T10:31:51Z</time>
      </trkpt>
      <trkpt lat="45.23155" lon="6.05344">
        <ele>2374</ele>
        <time>2021-02-27T10:31:52Z</time>
      </trkpt>
      <trkpt lat="45.23154" lon="6.05346">
        <ele>2374</ele>
        <time>2021-02-27T10:31:54Z</time>
      </trkpt>
      <trkpt lat="45.23154" lon="6.05346">
        <ele>2374.8</ele>
        <time>2021-02-27T10:31:59Z</time>
      </trkpt>
      <trkpt lat="45.23154" lon="6.05346">
        <ele>2375.6</ele>
        <time>2021-02-27T10:32:09Z</time>
      </trkpt>
      <trkpt lat="45.23154" lon="6.05346">
        <ele>2374.4</ele>
        <time>2021-02-27T10:32:19Z</time>
      </trkpt>
      <trkpt lat="45.23154" lon="6.05346">
        <ele>2373.2</ele>
        <time>2021-02-27T10:32:29Z</time>
      </trkpt>
      <trkpt lat="45.23154" lon="6.05346">
        <ele>2372.6</ele>
        <time>2021-02-27T10:32:39Z</time>
      </trkpt>
      <trkpt lat="45.23154" lon="6.05346">
        <ele>2373</ele>
        <time>2021-02-27T10:32:49Z</time>
      </trkpt>
      <trkpt lat="45.23154" lon="6.05346">
        <ele>2372.2</ele>
        <time>2021-02-27T10:32:59Z</time>
      </trkpt>
      <trkpt lat="45.23154" lon="6.05346">
        <ele>2371.4</ele>
        <time>2021-02-27T10:33:09Z</time>
      </trkpt>
      <trkpt lat="45.23154" lon="6.05346">
        <ele>2371</ele>
        <time>2021-02-27T10:33:19Z</time>
      </trkpt>
      <trkpt lat="45.23154" lon="6.05346">
        <ele>2372.2</ele>
        <time>2021-02-27T10:33:29Z</time>
      </trkpt>
      <trkpt lat="45.23154" lon="6.0535">
        <ele>2372.2</ele>
        <time>2021-02-27T10:33:31Z</time>
      </trkpt>
      <trkpt lat="45.23153" lon="6.05355">
        <ele>2372.2</ele>
        <time>2021-02-27T10:33:33Z</time>
      </trkpt>
      <trkpt lat="45.23152" lon="6.0536">
        <ele>2372.2</ele>
        <time>2021-02-27T10:33:35Z</time>
      </trkpt>
      <trkpt lat="45.23151" lon="6.05364">
        <ele>2372.2</ele>
        <time>2021-02-27T10:33:37Z</time>
      </trkpt>
      <trkpt lat="45.23149" lon="6.05369">
        <ele>2374</ele>
        <time>2021-02-27T10:33:39Z</time>
      </trkpt>
      <trkpt lat="45.23149" lon="6.05373">
        <ele>2374</ele>
        <time>2021-02-27T10:33:41Z</time>
      </trkpt>
      <trkpt lat="45.23149" lon="6.05376">
        <ele>2374</ele>
        <time>2021-02-27T10:33:43Z</time>
      </trkpt>
      <trkpt lat="45.23147" lon="6.05378">
        <ele>2374</ele>
        <time>2021-02-27T10:33:45Z</time>
      </trkpt>
      <trkpt lat="45.23146" lon="6.05382">
        <ele>2374</ele>
        <time>2021-02-27T10:33:47Z</time>
      </trkpt>
      <trkpt lat="45.23146" lon="6.05385">
        <ele>2375.6</ele>
        <time>2021-02-27T10:33:49Z</time>
      </trkpt>
      <trkpt lat="45.23145" lon="6.05388">
        <ele>2375.6</ele>
        <time>2021-02-27T10:33:51Z</time>
      </trkpt>
      <trkpt lat="45.23144" lon="6.05391">
        <ele>2375.6</ele>
        <time>2021-02-27T10:33:53Z</time>
      </trkpt>
      <trkpt lat="45.23143" lon="6.05393">
        <ele>2375.6</ele>
        <time>2021-02-27T10:33:55Z</time>
      </trkpt>
      <trkpt lat="45.23143" lon="6.05396">
        <ele>2375.6</ele>
        <time>2021-02-27T10:33:57Z</time>
      </trkpt>
      <trkpt lat="45.23142" lon="6.05399">
        <ele>2377.4</ele>
        <time>2021-02-27T10:33:59Z</time>
      </trkpt>
      <trkpt lat="45.23141" lon="6.05402">
        <ele>2377.4</ele>
        <time>2021-02-27T10:34:01Z</time>
      </trkpt>
      <trkpt lat="45.2314" lon="6.05406">
        <ele>2377.4</ele>
        <time>2021-02-27T10:34:04Z</time>
      </trkpt>
      <trkpt lat="45.2314" lon="6.05408">
        <ele>2377.4</ele>
        <time>2021-02-27T10:34:06Z</time>
      </trkpt>
      <trkpt lat="45.23139" lon="6.05412">
        <ele>2379.6</ele>
        <time>2021-02-27T10:34:09Z</time>
      </trkpt>
      <trkpt lat="45.23138" lon="6.05417">
        <ele>2379.6</ele>
        <time>2021-02-27T10:34:11Z</time>
      </trkpt>
      <trkpt lat="45.23138" lon="6.05419">
        <ele>2379.6</ele>
        <time>2021-02-27T10:34:14Z</time>
      </trkpt>
      <trkpt lat="45.23137" lon="6.05421">
        <ele>2379.6</ele>
        <time>2021-02-27T10:34:16Z</time>
      </trkpt>
      <trkpt lat="45.23136" lon="6.05423">
        <ele>2379.6</ele>
        <time>2021-02-27T10:34:18Z</time>
      </trkpt>
      <trkpt lat="45.23136" lon="6.05425">
        <ele>2381.8</ele>
        <time>2021-02-27T10:34:19Z</time>
      </trkpt>
      <trkpt lat="45.23135" lon="6.05426">
        <ele>2381.8</ele>
        <time>2021-02-27T10:34:20Z</time>
      </trkpt>
      <trkpt lat="45.23134" lon="6.05429">
        <ele>2381.8</ele>
        <time>2021-02-27T10:34:22Z</time>
      </trkpt>
      <trkpt lat="45.23134" lon="6.05432">
        <ele>2381.8</ele>
        <time>2021-02-27T10:34:24Z</time>
      </trkpt>
      <trkpt lat="45.23133" lon="6.05436">
        <ele>2381.8</ele>
        <time>2021-02-27T10:34:26Z</time>
      </trkpt>
      <trkpt lat="45.23132" lon="6.0544">
        <ele>2381.6</ele>
        <time>2021-02-27T10:34:29Z</time>
      </trkpt>
      <trkpt lat="45.23131" lon="6.05443">
        <ele>2381.6</ele>
        <time>2021-02-27T10:34:32Z</time>
      </trkpt>
      <trkpt lat="45.23129" lon="6.05445">
        <ele>2381.6</ele>
        <time>2021-02-27T10:34:34Z</time>
      </trkpt>
      <trkpt lat="45.23127" lon="6.05447">
        <ele>2381.6</ele>
        <time>2021-02-27T10:34:37Z</time>
      </trkpt>
      <trkpt lat="45.23127" lon="6.05447">
        <ele>2384.8</ele>
        <time>2021-02-27T10:34:39Z</time>
      </trkpt>
      <trkpt lat="45.23126" lon="6.05451">
        <ele>2384.8</ele>
        <time>2021-02-27T10:34:40Z</time>
      </trkpt>
      <trkpt lat="45.23127" lon="6.05451">
        <ele>2384.8</ele>
        <time>2021-02-27T10:34:45Z</time>
      </trkpt>
      <trkpt lat="45.23128" lon="6.05452">
        <ele>2384.8</ele>
        <time>2021-02-27T10:34:48Z</time>
      </trkpt>
      <trkpt lat="45.23129" lon="6.05453">
        <ele>2388.2</ele>
        <time>2021-02-27T10:34:49Z</time>
      </trkpt>
      <trkpt lat="45.23131" lon="6.05453">
        <ele>2388.2</ele>
        <time>2021-02-27T10:34:51Z</time>
      </trkpt>
      <trkpt lat="45.23133" lon="6.05453">
        <ele>2388.2</ele>
        <time>2021-02-27T10:34:54Z</time>
      </trkpt>
      <trkpt lat="45.23133" lon="6.05456">
        <ele>2388.2</ele>
        <time>2021-02-27T10:34:57Z</time>
      </trkpt>
      <trkpt lat="45.23133" lon="6.05459">
        <ele>2391.8</ele>
        <time>2021-02-27T10:34:59Z</time>
      </trkpt>
      <trkpt lat="45.23132" lon="6.05462">
        <ele>2391.8</ele>
        <time>2021-02-27T10:35:01Z</time>
      </trkpt>
      <trkpt lat="45.23131" lon="6.05465">
        <ele>2391.8</ele>
        <time>2021-02-27T10:35:03Z</time>
      </trkpt>
      <trkpt lat="45.2313" lon="6.05468">
        <ele>2391.8</ele>
        <time>2021-02-27T10:35:05Z</time>
      </trkpt>
      <trkpt lat="45.23129" lon="6.05471">
        <ele>2391.8</ele>
        <time>2021-02-27T10:35:07Z</time>
      </trkpt>
      <trkpt lat="45.23128" lon="6.05474">
        <ele>2393.8</ele>
        <time>2021-02-27T10:35:09Z</time>
      </trkpt>
      <trkpt lat="45.23126" lon="6.05476">
        <ele>2393.8</ele>
        <time>2021-02-27T10:35:12Z</time>
      </trkpt>
      <trkpt lat="45.23125" lon="6.05479">
        <ele>2393.8</ele>
        <time>2021-02-27T10:35:15Z</time>
      </trkpt>
      <trkpt lat="45.23124" lon="6.05481">
        <ele>2393.8</ele>
        <time>2021-02-27T10:35:17Z</time>
      </trkpt>
      <trkpt lat="45.23124" lon="6.05481">
        <ele>2396.6</ele>
        <time>2021-02-27T10:35:19Z</time>
      </trkpt>
      <trkpt lat="45.23122" lon="6.05483">
        <ele>2396.6</ele>
        <time>2021-02-27T10:35:20Z</time>
      </trkpt>
      <trkpt lat="45.23121" lon="6.05486">
        <ele>2396.6</ele>
        <time>2021-02-27T10:35:23Z</time>
      </trkpt>
      <trkpt lat="45.23119" lon="6.05488">
        <ele>2396.6</ele>
        <time>2021-02-27T10:35:25Z</time>
      </trkpt>
      <trkpt lat="45.23117" lon="6.0549">
        <ele>2396.6</ele>
        <time>2021-02-27T10:35:27Z</time>
      </trkpt>
      <trkpt lat="45.23116" lon="6.05492">
        <ele>2399</ele>
        <time>2021-02-27T10:35:29Z</time>
      </trkpt>
      <trkpt lat="45.23114" lon="6.05494">
        <ele>2399</ele>
        <time>2021-02-27T10:35:31Z</time>
      </trkpt>
      <trkpt lat="45.23113" lon="6.05496">
        <ele>2399</ele>
        <time>2021-02-27T10:35:34Z</time>
      </trkpt>
      <trkpt lat="45.23111" lon="6.05498">
        <ele>2399</ele>
        <time>2021-02-27T10:35:37Z</time>
      </trkpt>
      <trkpt lat="45.2311" lon="6.055">
        <ele>2402</ele>
        <time>2021-02-27T10:35:39Z</time>
      </trkpt>
      <trkpt lat="45.23109" lon="6.05504">
        <ele>2402</ele>
        <time>2021-02-27T10:35:42Z</time>
      </trkpt>
      <trkpt lat="45.23109" lon="6.05507">
        <ele>2402</ele>
        <time>2021-02-27T10:35:45Z</time>
      </trkpt>
      <trkpt lat="45.2311" lon="6.05509">
        <ele>2402</ele>
        <time>2021-02-27T10:35:47Z</time>
      </trkpt>
      <trkpt lat="45.2311" lon="6.05509">
        <ele>2405.6</ele>
        <time>2021-02-27T10:35:49Z</time>
      </trkpt>
      <trkpt lat="45.23111" lon="6.05511">
        <ele>2405.6</ele>
        <time>2021-02-27T10:35:50Z</time>
      </trkpt>
      <trkpt lat="45.23113" lon="6.05514">
        <ele>2405.6</ele>
        <time>2021-02-27T10:35:54Z</time>
      </trkpt>
      <trkpt lat="45.23114" lon="6.05517">
        <ele>2405.6</ele>
        <time>2021-02-27T10:35:57Z</time>
      </trkpt>
      <trkpt lat="45.23114" lon="6.05517">
        <ele>2407.6</ele>
        <time>2021-02-27T10:35:59Z</time>
      </trkpt>
      <trkpt lat="45.23116" lon="6.0552">
        <ele>2407.6</ele>
        <time>2021-02-27T10:36:00Z</time>
      </trkpt>
      <trkpt lat="45.23115" lon="6.05521">
        <ele>2407.6</ele>
        <time>2021-02-27T10:36:02Z</time>
      </trkpt>
      <trkpt lat="45.23115" lon="6.05523">
        <ele>2407.6</ele>
        <time>2021-02-27T10:36:04Z</time>
      </trkpt>
      <trkpt lat="45.23114" lon="6.05525">
        <ele>2407.6</ele>
        <time>2021-02-27T10:36:06Z</time>
      </trkpt>
      <trkpt lat="45.23113" lon="6.05526">
        <ele>2407.6</ele>
        <time>2021-02-27T10:36:08Z</time>
      </trkpt>
      <trkpt lat="45.23112" lon="6.05528">
        <ele>2410.8</ele>
        <time>2021-02-27T10:36:09Z</time>
      </trkpt>
      <trkpt lat="45.2311" lon="6.0553">
        <ele>2410.8</ele>
        <time>2021-02-27T10:36:10Z</time>
      </trkpt>
      <trkpt lat="45.23109" lon="6.05532">
        <ele>2410.8</ele>
        <time>2021-02-27T10:36:12Z</time>
      </trkpt>
      <trkpt lat="45.23108" lon="6.05534">
        <ele>2410.8</ele>
        <time>2021-02-27T10:36:14Z</time>
      </trkpt>
      <trkpt lat="45.23107" lon="6.05535">
        <ele>2410.8</ele>
        <time>2021-02-27T10:36:16Z</time>
      </trkpt>
      <trkpt lat="45.23105" lon="6.05537">
        <ele>2410.8</ele>
        <time>2021-02-27T10:36:18Z</time>
      </trkpt>
      <trkpt lat="45.23104" lon="6.05538">
        <ele>2414</ele>
        <time>2021-02-27T10:36:19Z</time>
      </trkpt>
      <trkpt lat="45.23103" lon="6.05541">
        <ele>2414</ele>
        <time>2021-02-27T10:36:20Z</time>
      </trkpt>
      <trkpt lat="45.23103" lon="6.05543">
        <ele>2414</ele>
        <time>2021-02-27T10:36:22Z</time>
      </trkpt>
      <trkpt lat="45.23102" lon="6.05545">
        <ele>2414</ele>
        <time>2021-02-27T10:36:25Z</time>
      </trkpt>
      <trkpt lat="45.23102" lon="6.05547">
        <ele>2414</ele>
        <time>2021-02-27T10:36:28Z</time>
      </trkpt>
      <trkpt lat="45.23101" lon="6.05548">
        <ele>2416</ele>
        <time>2021-02-27T10:36:29Z</time>
      </trkpt>
      <trkpt lat="45.23101" lon="6.05553">
        <ele>2416</ele>
        <time>2021-02-27T10:36:30Z</time>
      </trkpt>
      <trkpt lat="45.23101" lon="6.05555">
        <ele>2416</ele>
        <time>2021-02-27T10:36:32Z</time>
      </trkpt>
      <trkpt lat="45.23101" lon="6.05557">
        <ele>2416</ele>
        <time>2021-02-27T10:36:35Z</time>
      </trkpt>
      <trkpt lat="45.23101" lon="6.05559">
        <ele>2416</ele>
        <time>2021-02-27T10:36:38Z</time>
      </trkpt>
      <trkpt lat="45.23101" lon="6.0556">
        <ele>2421.2</ele>
        <time>2021-02-27T10:36:39Z</time>
      </trkpt>
      <trkpt lat="45.23101" lon="6.05565">
        <ele>2421.2</ele>
        <time>2021-02-27T10:36:40Z</time>
      </trkpt>
      <trkpt lat="45.23101" lon="6.05568">
        <ele>2421.2</ele>
        <time>2021-02-27T10:36:43Z</time>
      </trkpt>
      <trkpt lat="45.23101" lon="6.0557">
        <ele>2421.2</ele>
        <time>2021-02-27T10:36:46Z</time>
      </trkpt>
      <trkpt lat="45.23101" lon="6.05572">
        <ele>2421.2</ele>
        <time>2021-02-27T10:36:48Z</time>
      </trkpt>
      <trkpt lat="45.23101" lon="6.05574">
        <ele>2423.6</ele>
        <time>2021-02-27T10:36:49Z</time>
      </trkpt>
      <trkpt lat="45.23102" lon="6.05579">
        <ele>2423.6</ele>
        <time>2021-02-27T10:36:50Z</time>
      </trkpt>
      <trkpt lat="45.23102" lon="6.05581">
        <ele>2423.6</ele>
        <time>2021-02-27T10:36:52Z</time>
      </trkpt>
      <trkpt lat="45.23102" lon="6.05583">
        <ele>2423.6</ele>
        <time>2021-02-27T10:36:54Z</time>
      </trkpt>
      <trkpt lat="45.23103" lon="6.05585">
        <ele>2423.6</ele>
        <time>2021-02-27T10:36:56Z</time>
      </trkpt>
      <trkpt lat="45.23103" lon="6.05587">
        <ele>2423.6</ele>
        <time>2021-02-27T10:36:58Z</time>
      </trkpt>
      <trkpt lat="45.23103" lon="6.05589">
        <ele>2425.8</ele>
        <time>2021-02-27T10:36:59Z</time>
      </trkpt>
      <trkpt lat="45.23102" lon="6.05594">
        <ele>2425.8</ele>
        <time>2021-02-27T10:37:00Z</time>
      </trkpt>
      <trkpt lat="45.23102" lon="6.05596">
        <ele>2425.8</ele>
        <time>2021-02-27T10:37:02Z</time>
      </trkpt>
      <trkpt lat="45.23102" lon="6.05598">
        <ele>2425.8</ele>
        <time>2021-02-27T10:37:04Z</time>
      </trkpt>
      <trkpt lat="45.23102" lon="6.056">
        <ele>2425.8</ele>
        <time>2021-02-27T10:37:06Z</time>
      </trkpt>
      <trkpt lat="45.23101" lon="6.05602">
        <ele>2425.8</ele>
        <time>2021-02-27T10:37:08Z</time>
      </trkpt>
      <trkpt lat="45.23101" lon="6.05604">
        <ele>2429</ele>
        <time>2021-02-27T10:37:09Z</time>
      </trkpt>
      <trkpt lat="45.23101" lon="6.05608">
        <ele>2429</ele>
        <time>2021-02-27T10:37:10Z</time>
      </trkpt>
      <trkpt lat="45.23101" lon="6.0561">
        <ele>2429</ele>
        <time>2021-02-27T10:37:12Z</time>
      </trkpt>
      <trkpt lat="45.23101" lon="6.05613">
        <ele>2429</ele>
        <time>2021-02-27T10:37:14Z</time>
      </trkpt>
      <trkpt lat="45.23101" lon="6.05615">
        <ele>2429</ele>
        <time>2021-02-27T10:37:16Z</time>
      </trkpt>
      <trkpt lat="45.23101" lon="6.05617">
        <ele>2429</ele>
        <time>2021-02-27T10:37:18Z</time>
      </trkpt>
      <trkpt lat="45.231" lon="6.0562">
        <ele>2431.6</ele>
        <time>2021-02-27T10:37:19Z</time>
      </trkpt>
      <trkpt lat="45.23101" lon="6.05622">
        <ele>2431.6</ele>
        <time>2021-02-27T10:37:21Z</time>
      </trkpt>
      <trkpt lat="45.23101" lon="6.05625">
        <ele>2431.6</ele>
        <time>2021-02-27T10:37:23Z</time>
      </trkpt>
      <trkpt lat="45.23101" lon="6.05628">
        <ele>2431.6</ele>
        <time>2021-02-27T10:37:25Z</time>
      </trkpt>
      <trkpt lat="45.23101" lon="6.05631">
        <ele>2431.6</ele>
        <time>2021-02-27T10:37:27Z</time>
      </trkpt>
      <trkpt lat="45.23101" lon="6.05634">
        <ele>2434</ele>
        <time>2021-02-27T10:37:29Z</time>
      </trkpt>
      <trkpt lat="45.23101" lon="6.05637">
        <ele>2434</ele>
        <time>2021-02-27T10:37:31Z</time>
      </trkpt>
      <trkpt lat="45.23101" lon="6.05639">
        <ele>2434</ele>
        <time>2021-02-27T10:37:33Z</time>
      </trkpt>
      <trkpt lat="45.23101" lon="6.05643">
        <ele>2434</ele>
        <time>2021-02-27T10:37:36Z</time>
      </trkpt>
      <trkpt lat="45.23101" lon="6.05647">
        <ele>2435.4</ele>
        <time>2021-02-27T10:37:39Z</time>
      </trkpt>
      <trkpt lat="45.231" lon="6.05649">
        <ele>2435.4</ele>
        <time>2021-02-27T10:37:41Z</time>
      </trkpt>
      <trkpt lat="45.231" lon="6.05652">
        <ele>2435.4</ele>
        <time>2021-02-27T10:37:43Z</time>
      </trkpt>
      <trkpt lat="45.23101" lon="6.05655">
        <ele>2435.4</ele>
        <time>2021-02-27T10:37:45Z</time>
      </trkpt>
      <trkpt lat="45.23101" lon="6.05659">
        <ele>2435.4</ele>
        <time>2021-02-27T10:37:47Z</time>
      </trkpt>
      <trkpt lat="45.23101" lon="6.05662">
        <ele>2437</ele>
        <time>2021-02-27T10:37:49Z</time>
      </trkpt>
      <trkpt lat="45.23102" lon="6.05668">
        <ele>2437</ele>
        <time>2021-02-27T10:37:51Z</time>
      </trkpt>
      <trkpt lat="45.23102" lon="6.0567">
        <ele>2437</ele>
        <time>2021-02-27T10:37:54Z</time>
      </trkpt>
      <trkpt lat="45.23103" lon="6.05672">
        <ele>2437</ele>
        <time>2021-02-27T10:37:56Z</time>
      </trkpt>
      <trkpt lat="45.23103" lon="6.05674">
        <ele>2437</ele>
        <time>2021-02-27T10:37:58Z</time>
      </trkpt>
      <trkpt lat="45.23104" lon="6.05676">
        <ele>2440</ele>
        <time>2021-02-27T10:37:59Z</time>
      </trkpt>
      <trkpt lat="45.23105" lon="6.0568">
        <ele>2440</ele>
        <time>2021-02-27T10:38:01Z</time>
      </trkpt>
      <trkpt lat="45.23106" lon="6.05681">
        <ele>2440</ele>
        <time>2021-02-27T10:38:04Z</time>
      </trkpt>
      <trkpt lat="45.23106" lon="6.05682">
        <ele>2440</ele>
        <time>2021-02-27T10:38:08Z</time>
      </trkpt>
      <trkpt lat="45.23107" lon="6.05683">
        <ele>2445.4</ele>
        <time>2021-02-27T10:38:09Z</time>
      </trkpt>
      <trkpt lat="45.23106" lon="6.05688">
        <ele>2445.4</ele>
        <time>2021-02-27T10:38:11Z</time>
      </trkpt>
      <trkpt lat="45.23105" lon="6.0569">
        <ele>2445.4</ele>
        <time>2021-02-27T10:38:13Z</time>
      </trkpt>
      <trkpt lat="45.23104" lon="6.05691">
        <ele>2445.4</ele>
        <time>2021-02-27T10:38:16Z</time>
      </trkpt>
      <trkpt lat="45.23104" lon="6.05693">
        <ele>2445.4</ele>
        <time>2021-02-27T10:38:18Z</time>
      </trkpt>
      <trkpt lat="45.23103" lon="6.05694">
        <ele>2448.6</ele>
        <time>2021-02-27T10:38:19Z</time>
      </trkpt>
      <trkpt lat="45.23101" lon="6.05699">
        <ele>2448.6</ele>
        <time>2021-02-27T10:38:20Z</time>
      </trkpt>
      <trkpt lat="45.231" lon="6.05701">
        <ele>2448.6</ele>
        <time>2021-02-27T10:38:23Z</time>
      </trkpt>
      <trkpt lat="45.231" lon="6.05703">
        <ele>2448.6</ele>
        <time>2021-02-27T10:38:26Z</time>
      </trkpt>
      <trkpt lat="45.23099" lon="6.05704">
        <ele>2448.6</ele>
        <time>2021-02-27T10:38:28Z</time>
      </trkpt>
      <trkpt lat="45.23098" lon="6.05706">
        <ele>2450.6</ele>
        <time>2021-02-27T10:38:29Z</time>
      </trkpt>
      <trkpt lat="45.23097" lon="6.0571">
        <ele>2450.6</ele>
        <time>2021-02-27T10:38:31Z</time>
      </trkpt>
      <trkpt lat="45.23096" lon="6.05713">
        <ele>2450.6</ele>
        <time>2021-02-27T10:38:34Z</time>
      </trkpt>
      <trkpt lat="45.23097" lon="6.05716">
        <ele>2451.4</ele>
        <time>2021-02-27T10:38:39Z</time>
      </trkpt>
      <trkpt lat="45.23099" lon="6.05716">
        <ele>2451.4</ele>
        <time>2021-02-27T10:38:41Z</time>
      </trkpt>
      <trkpt lat="45.23101" lon="6.05717">
        <ele>2451.4</ele>
        <time>2021-02-27T10:38:44Z</time>
      </trkpt>
      <trkpt lat="45.23103" lon="6.05718">
        <ele>2451.4</ele>
        <time>2021-02-27T10:38:47Z</time>
      </trkpt>
      <trkpt lat="45.23103" lon="6.05718">
        <ele>2453.8</ele>
        <time>2021-02-27T10:38:49Z</time>
      </trkpt>
      <trkpt lat="45.23105" lon="6.05719">
        <ele>2453.8</ele>
        <time>2021-02-27T10:38:50Z</time>
      </trkpt>
      <trkpt lat="45.23107" lon="6.0572">
        <ele>2453.8</ele>
        <time>2021-02-27T10:38:53Z</time>
      </trkpt>
      <trkpt lat="45.23109" lon="6.05721">
        <ele>2453.8</ele>
        <time>2021-02-27T10:38:55Z</time>
      </trkpt>
      <trkpt lat="45.23111" lon="6.05722">
        <ele>2453.8</ele>
        <time>2021-02-27T10:38:57Z</time>
      </trkpt>
      <trkpt lat="45.23111" lon="6.05722">
        <ele>2458</ele>
        <time>2021-02-27T10:38:59Z</time>
      </trkpt>
      <trkpt lat="45.2311" lon="6.05727">
        <ele>2458</ele>
        <time>2021-02-27T10:39:00Z</time>
      </trkpt>
      <trkpt lat="45.23109" lon="6.05728">
        <ele>2458</ele>
        <time>2021-02-27T10:39:02Z</time>
      </trkpt>
      <trkpt lat="45.23108" lon="6.0573">
        <ele>2458</ele>
        <time>2021-02-27T10:39:04Z</time>
      </trkpt>
      <trkpt lat="45.23107" lon="6.05732">
        <ele>2458</ele>
        <time>2021-02-27T10:39:06Z</time>
      </trkpt>
      <trkpt lat="45.23106" lon="6.05734">
        <ele>2458</ele>
        <time>2021-02-27T10:39:08Z</time>
      </trkpt>
      <trkpt lat="45.23105" lon="6.05736">
        <ele>2457</ele>
        <time>2021-02-27T10:39:09Z</time>
      </trkpt>
      <trkpt lat="45.23105" lon="6.05737">
        <ele>2457</ele>
        <time>2021-02-27T10:39:10Z</time>
      </trkpt>
      <trkpt lat="45.23104" lon="6.0574">
        <ele>2457</ele>
        <time>2021-02-27T10:39:12Z</time>
      </trkpt>
      <trkpt lat="45.23102" lon="6.05742">
        <ele>2457</ele>
        <time>2021-02-27T10:39:14Z</time>
      </trkpt>
      <trkpt lat="45.23101" lon="6.05744">
        <ele>2457</ele>
        <time>2021-02-27T10:39:16Z</time>
      </trkpt>
      <trkpt lat="45.23099" lon="6.05746">
        <ele>2459.8</ele>
        <time>2021-02-27T10:39:19Z</time>
      </trkpt>
      <trkpt lat="45.23096" lon="6.05748">
        <ele>2459.8</ele>
        <time>2021-02-27T10:39:21Z</time>
      </trkpt>
      <trkpt lat="45.23094" lon="6.05748">
        <ele>2459.8</ele>
        <time>2021-02-27T10:39:23Z</time>
      </trkpt>
      <trkpt lat="45.23093" lon="6.05749">
        <ele>2459.8</ele>
        <time>2021-02-27T10:39:25Z</time>
      </trkpt>
      <trkpt lat="45.23091" lon="6.05749">
        <ele>2459.8</ele>
        <time>2021-02-27T10:39:28Z</time>
      </trkpt>
      <trkpt lat="45.2309" lon="6.0575">
        <ele>2463.2</ele>
        <time>2021-02-27T10:39:29Z</time>
      </trkpt>
      <trkpt lat="45.23088" lon="6.0575">
        <ele>2463.2</ele>
        <time>2021-02-27T10:39:31Z</time>
      </trkpt>
      <trkpt lat="45.23086" lon="6.0575">
        <ele>2463.2</ele>
        <time>2021-02-27T10:39:33Z</time>
      </trkpt>
      <trkpt lat="45.23084" lon="6.0575">
        <ele>2463.2</ele>
        <time>2021-02-27T10:39:36Z</time>
      </trkpt>
      <trkpt lat="45.23084" lon="6.0575">
        <ele>2466.6</ele>
        <time>2021-02-27T10:39:39Z</time>
      </trkpt>
      <trkpt lat="45.23085" lon="6.05753">
        <ele>2466.6</ele>
        <time>2021-02-27T10:39:40Z</time>
      </trkpt>
      <trkpt lat="45.23086" lon="6.05756">
        <ele>2466.6</ele>
        <time>2021-02-27T10:39:43Z</time>
      </trkpt>
      <trkpt lat="45.23087" lon="6.0576">
        <ele>2466.6</ele>
        <time>2021-02-27T10:39:47Z</time>
      </trkpt>
      <trkpt lat="45.23087" lon="6.0576">
        <ele>2469.8</ele>
        <time>2021-02-27T10:39:49Z</time>
      </trkpt>
      <trkpt lat="45.23088" lon="6.05763">
        <ele>2469.8</ele>
        <time>2021-02-27T10:39:50Z</time>
      </trkpt>
      <trkpt lat="45.23088" lon="6.05766">
        <ele>2469.8</ele>
        <time>2021-02-27T10:39:53Z</time>
      </trkpt>
      <trkpt lat="45.23089" lon="6.05768">
        <ele>2469.8</ele>
        <time>2021-02-27T10:39:55Z</time>
      </trkpt>
      <trkpt lat="45.23092" lon="6.05771">
        <ele>2469.8</ele>
        <time>2021-02-27T10:39:57Z</time>
      </trkpt>
      <trkpt lat="45.23093" lon="6.05773">
        <ele>2471.4</ele>
        <time>2021-02-27T10:39:59Z</time>
      </trkpt>
      <trkpt lat="45.23095" lon="6.05775">
        <ele>2471.4</ele>
        <time>2021-02-27T10:40:01Z</time>
      </trkpt>
      <trkpt lat="45.23097" lon="6.05777">
        <ele>2471.4</ele>
        <time>2021-02-27T10:40:04Z</time>
      </trkpt>
      <trkpt lat="45.231" lon="6.05779">
        <ele>2471.4</ele>
        <time>2021-02-27T10:40:06Z</time>
      </trkpt>
      <trkpt lat="45.23102" lon="6.0578">
        <ele>2473.8</ele>
        <time>2021-02-27T10:40:09Z</time>
      </trkpt>
      <trkpt lat="45.23104" lon="6.05783">
        <ele>2473.8</ele>
        <time>2021-02-27T10:40:12Z</time>
      </trkpt>
      <trkpt lat="45.23103" lon="6.05784">
        <ele>2473.8</ele>
        <time>2021-02-27T10:40:16Z</time>
      </trkpt>
      <trkpt lat="45.23103" lon="6.05785">
        <ele>2473.8</ele>
        <time>2021-02-27T10:40:18Z</time>
      </trkpt>
      <trkpt lat="45.23102" lon="6.05786">
        <ele>2476.4</ele>
        <time>2021-02-27T10:40:19Z</time>
      </trkpt>
      <trkpt lat="45.23099" lon="6.05788">
        <ele>2476.4</ele>
        <time>2021-02-27T10:40:20Z</time>
      </trkpt>
      <trkpt lat="45.23096" lon="6.0579">
        <ele>2476.4</ele>
        <time>2021-02-27T10:40:22Z</time>
      </trkpt>
      <trkpt lat="45.23094" lon="6.05792">
        <ele>2476.4</ele>
        <time>2021-02-27T10:40:24Z</time>
      </trkpt>
      <trkpt lat="45.23092" lon="6.05793">
        <ele>2476.4</ele>
        <time>2021-02-27T10:40:26Z</time>
      </trkpt>
      <trkpt lat="45.23089" lon="6.05794">
        <ele>2477.4</ele>
        <time>2021-02-27T10:40:29Z</time>
      </trkpt>
      <trkpt lat="45.23087" lon="6.05795">
        <ele>2477.4</ele>
        <time>2021-02-27T10:40:31Z</time>
      </trkpt>
      <trkpt lat="45.23085" lon="6.05795">
        <ele>2477.4</ele>
        <time>2021-02-27T10:40:33Z</time>
      </trkpt>
      <trkpt lat="45.23083" lon="6.05796">
        <ele>2477.4</ele>
        <time>2021-02-27T10:40:35Z</time>
      </trkpt>
      <trkpt lat="45.23081" lon="6.05796">
        <ele>2477.4</ele>
        <time>2021-02-27T10:40:37Z</time>
      </trkpt>
      <trkpt lat="45.23078" lon="6.05796">
        <ele>2480.2</ele>
        <time>2021-02-27T10:40:39Z</time>
      </trkpt>
      <trkpt lat="45.23077" lon="6.05796">
        <ele>2480.2</ele>
        <time>2021-02-27T10:40:42Z</time>
      </trkpt>
      <trkpt lat="45.23077" lon="6.058">
        <ele>2480.2</ele>
        <time>2021-02-27T10:40:46Z</time>
      </trkpt>
      <trkpt lat="45.23078" lon="6.05803">
        <ele>2482.4</ele>
        <time>2021-02-27T10:40:49Z</time>
      </trkpt>
      <trkpt lat="45.23081" lon="6.05807">
        <ele>2482.4</ele>
        <time>2021-02-27T10:40:51Z</time>
      </trkpt>
      <trkpt lat="45.23081" lon="6.05809">
        <ele>2482.4</ele>
        <time>2021-02-27T10:40:54Z</time>
      </trkpt>
      <trkpt lat="45.23082" lon="6.0581">
        <ele>2482.4</ele>
        <time>2021-02-27T10:40:56Z</time>
      </trkpt>
      <trkpt lat="45.23083" lon="6.05812">
        <ele>2482.4</ele>
        <time>2021-02-27T10:40:58Z</time>
      </trkpt>
      <trkpt lat="45.23084" lon="6.05814">
        <ele>2485.8</ele>
        <time>2021-02-27T10:40:59Z</time>
      </trkpt>
      <trkpt lat="45.23084" lon="6.05816">
        <ele>2485.8</ele>
        <time>2021-02-27T10:41:01Z</time>
      </trkpt>
      <trkpt lat="45.23085" lon="6.05818">
        <ele>2485.8</ele>
        <time>2021-02-27T10:41:04Z</time>
      </trkpt>
      <trkpt lat="45.23087" lon="6.05822">
        <ele>2488.2</ele>
        <time>2021-02-27T10:41:09Z</time>
      </trkpt>
      <trkpt lat="45.2309" lon="6.05825">
        <ele>2488.2</ele>
        <time>2021-02-27T10:41:13Z</time>
      </trkpt>
      <trkpt lat="45.23091" lon="6.05827">
        <ele>2488.2</ele>
        <time>2021-02-27T10:41:14Z</time>
      </trkpt>
      <trkpt lat="45.23093" lon="6.0583">
        <ele>2488.2</ele>
        <time>2021-02-27T10:41:16Z</time>
      </trkpt>
      <trkpt lat="45.23093" lon="6.05833">
        <ele>2491.6</ele>
        <time>2021-02-27T10:41:19Z</time>
      </trkpt>
      <trkpt lat="45.2309" lon="6.05836">
        <ele>2491.6</ele>
        <time>2021-02-27T10:41:21Z</time>
      </trkpt>
      <trkpt lat="45.23088" lon="6.05837">
        <ele>2491.6</ele>
        <time>2021-02-27T10:41:23Z</time>
      </trkpt>
      <trkpt lat="45.23086" lon="6.05839">
        <ele>2491.6</ele>
        <time>2021-02-27T10:41:25Z</time>
      </trkpt>
      <trkpt lat="45.23085" lon="6.0584">
        <ele>2491.6</ele>
        <time>2021-02-27T10:41:28Z</time>
      </trkpt>
      <trkpt lat="45.23083" lon="6.05841">
        <ele>2494.6</ele>
        <time>2021-02-27T10:41:29Z</time>
      </trkpt>
      <trkpt lat="45.23082" lon="6.05842">
        <ele>2494.6</ele>
        <time>2021-02-27T10:41:30Z</time>
      </trkpt>
      <trkpt lat="45.2308" lon="6.05844">
        <ele>2494.6</ele>
        <time>2021-02-27T10:41:32Z</time>
      </trkpt>
      <trkpt lat="45.23078" lon="6.05845">
        <ele>2494.6</ele>
        <time>2021-02-27T10:41:35Z</time>
      </trkpt>
      <trkpt lat="45.23076" lon="6.05847">
        <ele>2494.6</ele>
        <time>2021-02-27T10:41:37Z</time>
      </trkpt>
      <trkpt lat="45.23074" lon="6.05848">
        <ele>2496.6</ele>
        <time>2021-02-27T10:41:39Z</time>
      </trkpt>
      <trkpt lat="45.23071" lon="6.05849">
        <ele>2496.6</ele>
        <time>2021-02-27T10:41:41Z</time>
      </trkpt>
      <trkpt lat="45.2307" lon="6.0585">
        <ele>2496.6</ele>
        <time>2021-02-27T10:41:43Z</time>
      </trkpt>
      <trkpt lat="45.23069" lon="6.05851">
        <ele>2496.6</ele>
        <time>2021-02-27T10:41:48Z</time>
      </trkpt>
      <trkpt lat="45.23068" lon="6.05851">
        <ele>2498.6</ele>
        <time>2021-02-27T10:41:49Z</time>
      </trkpt>
      <trkpt lat="45.2307" lon="6.05857">
        <ele>2498.6</ele>
        <time>2021-02-27T10:41:51Z</time>
      </trkpt>
      <trkpt lat="45.23071" lon="6.05858">
        <ele>2498.6</ele>
        <time>2021-02-27T10:41:54Z</time>
      </trkpt>
      <trkpt lat="45.23071" lon="6.0586">
        <ele>2498.6</ele>
        <time>2021-02-27T10:41:56Z</time>
      </trkpt>
      <trkpt lat="45.23072" lon="6.05861">
        <ele>2498.6</ele>
        <time>2021-02-27T10:41:58Z</time>
      </trkpt>
      <trkpt lat="45.23073" lon="6.05863">
        <ele>2500</ele>
        <time>2021-02-27T10:41:59Z</time>
      </trkpt>
      <trkpt lat="45.23075" lon="6.05866">
        <ele>2500</ele>
        <time>2021-02-27T10:42:01Z</time>
      </trkpt>
      <trkpt lat="45.23075" lon="6.05869">
        <ele>2500</ele>
        <time>2021-02-27T10:42:04Z</time>
      </trkpt>
      <trkpt lat="45.23076" lon="6.05872">
        <ele>2500</ele>
        <time>2021-02-27T10:42:07Z</time>
      </trkpt>
      <trkpt lat="45.23076" lon="6.05872">
        <ele>2502.6</ele>
        <time>2021-02-27T10:42:09Z</time>
      </trkpt>
      <trkpt lat="45.23076" lon="6.05875">
        <ele>2502.6</ele>
        <time>2021-02-27T10:42:10Z</time>
      </trkpt>
      <trkpt lat="45.23076" lon="6.05879">
        <ele>2502.6</ele>
        <time>2021-02-27T10:42:13Z</time>
      </trkpt>
      <trkpt lat="45.23077" lon="6.05881">
        <ele>2502.6</ele>
        <time>2021-02-27T10:42:15Z</time>
      </trkpt>
      <trkpt lat="45.23078" lon="6.05884">
        <ele>2502.6</ele>
        <time>2021-02-27T10:42:17Z</time>
      </trkpt>
      <trkpt lat="45.23078" lon="6.05884">
        <ele>2505.6</ele>
        <time>2021-02-27T10:42:19Z</time>
      </trkpt>
      <trkpt lat="45.23078" lon="6.05887">
        <ele>2505.6</ele>
        <time>2021-02-27T10:42:20Z</time>
      </trkpt>
      <trkpt lat="45.2308" lon="6.05889">
        <ele>2505.6</ele>
        <time>2021-02-27T10:42:25Z</time>
      </trkpt>
      <trkpt lat="45.23081" lon="6.05892">
        <ele>2505.6</ele>
        <time>2021-02-27T10:42:27Z</time>
      </trkpt>
      <trkpt lat="45.23081" lon="6.05892">
        <ele>2510.2</ele>
        <time>2021-02-27T10:42:29Z</time>
      </trkpt>
      <trkpt lat="45.23081" lon="6.05897">
        <ele>2510.2</ele>
        <time>2021-02-27T10:42:30Z</time>
      </trkpt>
      <trkpt lat="45.2308" lon="6.05898">
        <ele>2510.2</ele>
        <time>2021-02-27T10:42:32Z</time>
      </trkpt>
      <trkpt lat="45.23078" lon="6.05899">
        <ele>2515.4</ele>
        <time>2021-02-27T10:42:39Z</time>
      </trkpt>
      <trkpt lat="45.23077" lon="6.05901">
        <ele>2515.4</ele>
        <time>2021-02-27T10:42:41Z</time>
      </trkpt>
      <trkpt lat="45.23076" lon="6.05902">
        <ele>2515.4</ele>
        <time>2021-02-27T10:42:44Z</time>
      </trkpt>
      <trkpt lat="45.23075" lon="6.05903">
        <ele>2515.4</ele>
        <time>2021-02-27T10:42:48Z</time>
      </trkpt>
      <trkpt lat="45.23074" lon="6.05904">
        <ele>2514.2</ele>
        <time>2021-02-27T10:42:49Z</time>
      </trkpt>
      <trkpt lat="45.23072" lon="6.05904">
        <ele>2514.2</ele>
        <time>2021-02-27T10:42:50Z</time>
      </trkpt>
      <trkpt lat="45.23069" lon="6.05905">
        <ele>2514.2</ele>
        <time>2021-02-27T10:42:52Z</time>
      </trkpt>
      <trkpt lat="45.23066" lon="6.05905">
        <ele>2514.2</ele>
        <time>2021-02-27T10:42:54Z</time>
      </trkpt>
      <trkpt lat="45.23064" lon="6.05904">
        <ele>2514.2</ele>
        <time>2021-02-27T10:42:57Z</time>
      </trkpt>
      <trkpt lat="45.23061" lon="6.05904">
        <ele>2514.8</ele>
        <time>2021-02-27T10:42:59Z</time>
      </trkpt>
      <trkpt lat="45.23058" lon="6.05903">
        <ele>2514.8</ele>
        <time>2021-02-27T10:43:01Z</time>
      </trkpt>
      <trkpt lat="45.23056" lon="6.05902">
        <ele>2514.8</ele>
        <time>2021-02-27T10:43:03Z</time>
      </trkpt>
      <trkpt lat="45.23054" lon="6.05902">
        <ele>2514.8</ele>
        <time>2021-02-27T10:43:06Z</time>
      </trkpt>
      <trkpt lat="45.23053" lon="6.05901">
        <ele>2514.8</ele>
        <time>2021-02-27T10:43:08Z</time>
      </trkpt>
      <trkpt lat="45.23051" lon="6.059">
        <ele>2514.8</ele>
        <time>2021-02-27T10:43:09Z</time>
      </trkpt>
      <trkpt lat="45.2305" lon="6.05901">
        <ele>2514.8</ele>
        <time>2021-02-27T10:43:10Z</time>
      </trkpt>
      <trkpt lat="45.2305" lon="6.05903">
        <ele>2514.8</ele>
        <time>2021-02-27T10:43:16Z</time>
      </trkpt>
      <trkpt lat="45.23051" lon="6.05904">
        <ele>2514.8</ele>
        <time>2021-02-27T10:43:18Z</time>
      </trkpt>
      <trkpt lat="45.23051" lon="6.05906">
        <ele>2517</ele>
        <time>2021-02-27T10:43:19Z</time>
      </trkpt>
      <trkpt lat="45.23052" lon="6.05908">
        <ele>2517</ele>
        <time>2021-02-27T10:43:20Z</time>
      </trkpt>
      <trkpt lat="45.23053" lon="6.05909">
        <ele>2517</ele>
        <time>2021-02-27T10:43:21Z</time>
      </trkpt>
      <trkpt lat="45.23054" lon="6.05911">
        <ele>2517</ele>
        <time>2021-02-27T10:43:23Z</time>
      </trkpt>
      <trkpt lat="45.23055" lon="6.05915">
        <ele>2517</ele>
        <time>2021-02-27T10:43:26Z</time>
      </trkpt>
      <trkpt lat="45.23056" lon="6.05918">
        <ele>2521.2</ele>
        <time>2021-02-27T10:43:29Z</time>
      </trkpt>
      <trkpt lat="45.23057" lon="6.0592">
        <ele>2521.2</ele>
        <time>2021-02-27T10:43:32Z</time>
      </trkpt>
      <trkpt lat="45.23058" lon="6.05923">
        <ele>2521.2</ele>
        <time>2021-02-27T10:43:34Z</time>
      </trkpt>
      <trkpt lat="45.2306" lon="6.05925">
        <ele>2521.2</ele>
        <time>2021-02-27T10:43:36Z</time>
      </trkpt>
      <trkpt lat="45.23061" lon="6.05927">
        <ele>2524.8</ele>
        <time>2021-02-27T10:43:39Z</time>
      </trkpt>
      <trkpt lat="45.23062" lon="6.05928">
        <ele>2524.8</ele>
        <time>2021-02-27T10:43:44Z</time>
      </trkpt>
      <trkpt lat="45.23061" lon="6.05929">
        <ele>2524.8</ele>
        <time>2021-02-27T10:43:46Z</time>
      </trkpt>
      <trkpt lat="45.2306" lon="6.0593">
        <ele>2524.8</ele>
        <time>2021-02-27T10:43:48Z</time>
      </trkpt>
      <trkpt lat="45.23059" lon="6.0593">
        <ele>2528.6</ele>
        <time>2021-02-27T10:43:49Z</time>
      </trkpt>
      <trkpt lat="45.23057" lon="6.05931">
        <ele>2528.6</ele>
        <time>2021-02-27T10:43:51Z</time>
      </trkpt>
      <trkpt lat="45.23054" lon="6.05932">
        <ele>2528.6</ele>
        <time>2021-02-27T10:43:54Z</time>
      </trkpt>
      <trkpt lat="45.23052" lon="6.05931">
        <ele>2528.6</ele>
        <time>2021-02-27T10:43:57Z</time>
      </trkpt>
      <trkpt lat="45.23052" lon="6.05931">
        <ele>2530.6</ele>
        <time>2021-02-27T10:43:59Z</time>
      </trkpt>
      <trkpt lat="45.23048" lon="6.0593">
        <ele>2530.6</ele>
        <time>2021-02-27T10:44:00Z</time>
      </trkpt>
      <trkpt lat="45.23047" lon="6.0593">
        <ele>2530.6</ele>
        <time>2021-02-27T10:44:02Z</time>
      </trkpt>
      <trkpt lat="45.23046" lon="6.05929">
        <ele>2530.6</ele>
        <time>2021-02-27T10:44:04Z</time>
      </trkpt>
      <trkpt lat="45.23044" lon="6.05929">
        <ele>2530.6</ele>
        <time>2021-02-27T10:44:06Z</time>
      </trkpt>
      <trkpt lat="45.23043" lon="6.05928">
        <ele>2530.6</ele>
        <time>2021-02-27T10:44:08Z</time>
      </trkpt>
      <trkpt lat="45.23042" lon="6.05928">
        <ele>2532.2</ele>
        <time>2021-02-27T10:44:09Z</time>
      </trkpt>
      <trkpt lat="45.2304" lon="6.05927">
        <ele>2532.2</ele>
        <time>2021-02-27T10:44:14Z</time>
      </trkpt>
      <trkpt lat="45.2304" lon="6.05927">
        <ele>2535.2</ele>
        <time>2021-02-27T10:44:19Z</time>
      </trkpt>
      <trkpt lat="45.23041" lon="6.05929">
        <ele>2535.2</ele>
        <time>2021-02-27T10:44:20Z</time>
      </trkpt>
      <trkpt lat="45.23042" lon="6.05933">
        <ele>2535.2</ele>
        <time>2021-02-27T10:44:24Z</time>
      </trkpt>
      <trkpt lat="45.23043" lon="6.05936">
        <ele>2535.2</ele>
        <time>2021-02-27T10:44:27Z</time>
      </trkpt>
      <trkpt lat="45.23043" lon="6.05936">
        <ele>2536.2</ele>
        <time>2021-02-27T10:44:29Z</time>
      </trkpt>
      <trkpt lat="45.23045" lon="6.05939">
        <ele>2536.2</ele>
        <time>2021-02-27T10:44:30Z</time>
      </trkpt>
      <trkpt lat="45.23046" lon="6.05941">
        <ele>2536.2</ele>
        <time>2021-02-27T10:44:34Z</time>
      </trkpt>
      <trkpt lat="45.23048" lon="6.05942">
        <ele>2536.2</ele>
        <time>2021-02-27T10:44:37Z</time>
      </trkpt>
      <trkpt lat="45.23048" lon="6.05942">
        <ele>2538.6</ele>
        <time>2021-02-27T10:44:39Z</time>
      </trkpt>
      <trkpt lat="45.23047" lon="6.05945">
        <ele>2538.6</ele>
        <time>2021-02-27T10:44:48Z</time>
      </trkpt>
      <trkpt lat="45.23047" lon="6.05945">
        <ele>2537.8</ele>
        <time>2021-02-27T10:44:49Z</time>
      </trkpt>
      <trkpt lat="45.23045" lon="6.05945">
        <ele>2537.8</ele>
        <time>2021-02-27T10:44:51Z</time>
      </trkpt>
      <trkpt lat="45.23042" lon="6.05946">
        <ele>2537.8</ele>
        <time>2021-02-27T10:44:54Z</time>
      </trkpt>
      <trkpt lat="45.2304" lon="6.05945">
        <ele>2537.8</ele>
        <time>2021-02-27T10:44:57Z</time>
      </trkpt>
      <trkpt lat="45.23038" lon="6.05945">
        <ele>2539.8</ele>
        <time>2021-02-27T10:44:59Z</time>
      </trkpt>
      <trkpt lat="45.23037" lon="6.05946">
        <ele>2539.8</ele>
        <time>2021-02-27T10:45:04Z</time>
      </trkpt>
      <trkpt lat="45.23038" lon="6.05947">
        <ele>2541</ele>
        <time>2021-02-27T10:45:09Z</time>
      </trkpt>
      <trkpt lat="45.23039" lon="6.05948">
        <ele>2541</ele>
        <time>2021-02-27T10:45:10Z</time>
      </trkpt>
      <trkpt lat="45.2304" lon="6.05949">
        <ele>2541</ele>
        <time>2021-02-27T10:45:12Z</time>
      </trkpt>
      <trkpt lat="45.23041" lon="6.05951">
        <ele>2541</ele>
        <time>2021-02-27T10:45:15Z</time>
      </trkpt>
      <trkpt lat="45.23041" lon="6.05952">
        <ele>2541</ele>
        <time>2021-02-27T10:45:18Z</time>
      </trkpt>
      <trkpt lat="45.23042" lon="6.05953">
        <ele>2544.2</ele>
        <time>2021-02-27T10:45:19Z</time>
      </trkpt>
      <trkpt lat="45.23044" lon="6.05956">
        <ele>2544.2</ele>
        <time>2021-02-27T10:45:23Z</time>
      </trkpt>
      <trkpt lat="45.23045" lon="6.05957">
        <ele>2544.2</ele>
        <time>2021-02-27T10:45:28Z</time>
      </trkpt>
      <trkpt lat="45.23045" lon="6.05958">
        <ele>2546</ele>
        <time>2021-02-27T10:45:29Z</time>
      </trkpt>
      <trkpt lat="45.23043" lon="6.05958">
        <ele>2546</ele>
        <time>2021-02-27T10:45:34Z</time>
      </trkpt>
      <trkpt lat="45.23041" lon="6.05959">
        <ele>2546</ele>
        <time>2021-02-27T10:45:37Z</time>
      </trkpt>
      <trkpt lat="45.23041" lon="6.05959">
        <ele>2551.2</ele>
        <time>2021-02-27T10:45:39Z</time>
      </trkpt>
      <trkpt lat="45.23039" lon="6.05959">
        <ele>2551.2</ele>
        <time>2021-02-27T10:45:41Z</time>
      </trkpt>
      <trkpt lat="45.23037" lon="6.05959">
        <ele>2551.2</ele>
        <time>2021-02-27T10:45:44Z</time>
      </trkpt>
      <trkpt lat="45.23036" lon="6.05959">
        <ele>2551.2</ele>
        <time>2021-02-27T10:45:47Z</time>
      </trkpt>
      <trkpt lat="45.23036" lon="6.05959">
        <ele>2554.6</ele>
        <time>2021-02-27T10:45:49Z</time>
      </trkpt>
      <trkpt lat="45.23034" lon="6.05959">
        <ele>2554.6</ele>
        <time>2021-02-27T10:45:53Z</time>
      </trkpt>
      <trkpt lat="45.23035" lon="6.05961">
        <ele>2557.8</ele>
        <time>2021-02-27T10:45:59Z</time>
      </trkpt>
      <trkpt lat="45.23036" lon="6.05964">
        <ele>2557.8</ele>
        <time>2021-02-27T10:46:03Z</time>
      </trkpt>
      <trkpt lat="45.23037" lon="6.05966">
        <ele>2557.8</ele>
        <time>2021-02-27T10:46:07Z</time>
      </trkpt>
      <trkpt lat="45.23037" lon="6.05966">
        <ele>2560.8</ele>
        <time>2021-02-27T10:46:09Z</time>
      </trkpt>
      <trkpt lat="45.23039" lon="6.05969">
        <ele>2560.8</ele>
        <time>2021-02-27T10:46:11Z</time>
      </trkpt>
      <trkpt lat="45.23039" lon="6.0597">
        <ele>2560.8</ele>
        <time>2021-02-27T10:46:14Z</time>
      </trkpt>
      <trkpt lat="45.2304" lon="6.05972">
        <ele>2560.8</ele>
        <time>2021-02-27T10:46:18Z</time>
      </trkpt>
      <trkpt lat="45.2304" lon="6.05973">
        <ele>2561</ele>
        <time>2021-02-27T10:46:19Z</time>
      </trkpt>
      <trkpt lat="45.23041" lon="6.05975">
        <ele>2561</ele>
        <time>2021-02-27T10:46:25Z</time>
      </trkpt>
      <trkpt lat="45.2304" lon="6.05976">
        <ele>2562.8</ele>
        <time>2021-02-27T10:46:29Z</time>
      </trkpt>
      <trkpt lat="45.2304" lon="6.05977">
        <ele>2562.8</ele>
        <time>2021-02-27T10:46:33Z</time>
      </trkpt>
      <trkpt lat="45.23039" lon="6.05977">
        <ele>2562.8</ele>
        <time>2021-02-27T10:46:38Z</time>
      </trkpt>
      <trkpt lat="45.23038" lon="6.05978">
        <ele>2565.8</ele>
        <time>2021-02-27T10:46:39Z</time>
      </trkpt>
      <trkpt lat="45.23036" lon="6.05977">
        <ele>2565.8</ele>
        <time>2021-02-27T10:46:41Z</time>
      </trkpt>
      <trkpt lat="45.23034" lon="6.05979">
        <ele>2565.8</ele>
        <time>2021-02-27T10:46:44Z</time>
      </trkpt>
      <trkpt lat="45.23032" lon="6.05979">
        <ele>2564.6</ele>
        <time>2021-02-27T10:46:49Z</time>
      </trkpt>
      <trkpt lat="45.23032" lon="6.05981">
        <ele>2564.6</ele>
        <time>2021-02-27T10:46:57Z</time>
      </trkpt>
      <trkpt lat="45.23032" lon="6.05981">
        <ele>2564.4</ele>
        <time>2021-02-27T10:46:59Z</time>
      </trkpt>
      <trkpt lat="45.23033" lon="6.05984">
        <ele>2564.4</ele>
        <time>2021-02-27T10:47:01Z</time>
      </trkpt>
      <trkpt lat="45.23033" lon="6.05984">
        <ele>2565.4</ele>
        <time>2021-02-27T10:47:09Z</time>
      </trkpt>
      <trkpt lat="45.23031" lon="6.05986">
        <ele>2565.4</ele>
        <time>2021-02-27T10:47:11Z</time>
      </trkpt>
      <trkpt lat="45.23029" lon="6.05985">
        <ele>2565.4</ele>
        <time>2021-02-27T10:47:13Z</time>
      </trkpt>
      <trkpt lat="45.23027" lon="6.05984">
        <ele>2565.4</ele>
        <time>2021-02-27T10:47:16Z</time>
      </trkpt>
      <trkpt lat="45.23027" lon="6.05984">
        <ele>2567.2</ele>
        <time>2021-02-27T10:47:19Z</time>
      </trkpt>
      <trkpt lat="45.23027" lon="6.05985">
        <ele>2567.2</ele>
        <time>2021-02-27T10:47:29Z</time>
      </trkpt>
      <trkpt lat="45.23028" lon="6.05986">
        <ele>2568.6</ele>
        <time>2021-02-27T10:47:39Z</time>
      </trkpt>
      <trkpt lat="45.23028" lon="6.05987">
        <ele>2575.8</ele>
        <time>2021-02-27T10:47:49Z</time>
      </trkpt>
      <trkpt lat="45.23028" lon="6.05988">
        <ele>2578.6</ele>
        <time>2021-02-27T10:47:59Z</time>
      </trkpt>
      <trkpt lat="45.23029" lon="6.05989">
        <ele>2578.6</ele>
        <time>2021-02-27T10:48:09Z</time>
      </trkpt>
      <trkpt lat="45.23029" lon="6.0599">
        <ele>2578.6</ele>
        <time>2021-02-27T10:48:17Z</time>
      </trkpt>
      <trkpt lat="45.23029" lon="6.05991">
        <ele>2578.6</ele>
        <time>2021-02-27T10:48:18Z</time>
      </trkpt>
      <trkpt lat="45.23029" lon="6.05992">
        <ele>2582</ele>
        <time>2021-02-27T10:48:19Z</time>
      </trkpt>
      <trkpt lat="45.23031" lon="6.05996">
        <ele>2582</ele>
        <time>2021-02-27T10:48:21Z</time>
      </trkpt>
      <trkpt lat="45.23032" lon="6.05998">
        <ele>2582</ele>
        <time>2021-02-27T10:48:22Z</time>
      </trkpt>
      <trkpt lat="45.23033" lon="6.05999">
        <ele>2582</ele>
        <time>2021-02-27T10:48:23Z</time>
      </trkpt>
      <trkpt lat="45.23035" lon="6.06003">
        <ele>2582</ele>
        <time>2021-02-27T10:48:25Z</time>
      </trkpt>
      <trkpt lat="45.23035" lon="6.06006">
        <ele>2571.6</ele>
        <time>2021-02-27T10:48:29Z</time>
      </trkpt>
      <trkpt lat="45.23036" lon="6.06007">
        <ele>2567.8</ele>
        <time>2021-02-27T10:48:39Z</time>
      </trkpt>
      <trkpt lat="45.23036" lon="6.06008">
        <ele>2570</ele>
        <time>2021-02-27T10:48:49Z</time>
      </trkpt>
      <trkpt lat="45.23037" lon="6.06009">
        <ele>2567.2</ele>
        <time>2021-02-27T10:48:59Z</time>
      </trkpt>
      <trkpt lat="45.23037" lon="6.0601">
        <ele>2565.6</ele>
        <time>2021-02-27T10:49:09Z</time>
      </trkpt>
      <trkpt lat="45.23038" lon="6.06011">
        <ele>2565.2</ele>
        <time>2021-02-27T10:49:19Z</time>
      </trkpt>
      <trkpt lat="45.23038" lon="6.06012">
        <ele>2563.4</ele>
        <time>2021-02-27T10:49:29Z</time>
      </trkpt>
      <trkpt lat="45.23039" lon="6.06013">
        <ele>2565.4</ele>
        <time>2021-02-27T10:49:39Z</time>
      </trkpt>
      <trkpt lat="45.2304" lon="6.06014">
        <ele>2565.4</ele>
        <time>2021-02-27T10:49:47Z</time>
      </trkpt>
      <trkpt lat="45.2304" lon="6.06015">
        <ele>2565.4</ele>
        <time>2021-02-27T10:49:48Z</time>
      </trkpt>
      <trkpt lat="45.23041" lon="6.06015">
        <ele>2565.8</ele>
        <time>2021-02-27T10:49:49Z</time>
      </trkpt>
      <trkpt lat="45.23045" lon="6.06022">
        <ele>2565.8</ele>
        <time>2021-02-27T10:49:50Z</time>
      </trkpt>
      <trkpt lat="45.23047" lon="6.06025">
        <ele>2565.8</ele>
        <time>2021-02-27T10:49:51Z</time>
      </trkpt>
      <trkpt lat="45.23049" lon="6.06027">
        <ele>2565.8</ele>
        <time>2021-02-27T10:49:52Z</time>
      </trkpt>
      <trkpt lat="45.23051" lon="6.0603">
        <ele>2565.8</ele>
        <time>2021-02-27T10:49:53Z</time>
      </trkpt>
      <trkpt lat="45.23053" lon="6.06033">
        <ele>2565.8</ele>
        <time>2021-02-27T10:49:54Z</time>
      </trkpt>
      <trkpt lat="45.23055" lon="6.06036">
        <ele>2565.8</ele>
        <time>2021-02-27T10:49:55Z</time>
      </trkpt>
      <trkpt lat="45.23057" lon="6.06039">
        <ele>2565.8</ele>
        <time>2021-02-27T10:49:56Z</time>
      </trkpt>
      <trkpt lat="45.23059" lon="6.06042">
        <ele>2565.8</ele>
        <time>2021-02-27T10:49:57Z</time>
      </trkpt>
      <trkpt lat="45.23061" lon="6.06045">
        <ele>2565.8</ele>
        <time>2021-02-27T10:49:58Z</time>
      </trkpt>
      <trkpt lat="45.23063" lon="6.06048">
        <ele>2559.4</ele>
        <time>2021-02-27T10:49:59Z</time>
      </trkpt>
      <trkpt lat="45.23063" lon="6.06052">
        <ele>2559.4</ele>
        <time>2021-02-27T10:50:00Z</time>
      </trkpt>
      <trkpt lat="45.23061" lon="6.06053">
        <ele>2559.4</ele>
        <time>2021-02-27T10:50:01Z</time>
      </trkpt>
      <trkpt lat="45.23059" lon="6.06054">
        <ele>2559.4</ele>
        <time>2021-02-27T10:50:02Z</time>
      </trkpt>
      <trkpt lat="45.23056" lon="6.06055">
        <ele>2559.4</ele>
        <time>2021-02-27T10:50:03Z</time>
      </trkpt>
      <trkpt lat="45.23054" lon="6.06056">
        <ele>2559.4</ele>
        <time>2021-02-27T10:50:04Z</time>
      </trkpt>
      <trkpt lat="45.23052" lon="6.06057">
        <ele>2559.4</ele>
        <time>2021-02-27T10:50:05Z</time>
      </trkpt>
      <trkpt lat="45.2305" lon="6.06058">
        <ele>2559.4</ele>
        <time>2021-02-27T10:50:06Z</time>
      </trkpt>
      <trkpt lat="45.23047" lon="6.06059">
        <ele>2559.4</ele>
        <time>2021-02-27T10:50:07Z</time>
      </trkpt>
      <trkpt lat="45.23045" lon="6.0606">
        <ele>2559.4</ele>
        <time>2021-02-27T10:50:08Z</time>
      </trkpt>
      <trkpt lat="45.23043" lon="6.06061">
        <ele>2544.2</ele>
        <time>2021-02-27T10:50:09Z</time>
      </trkpt>
      <trkpt lat="45.23039" lon="6.06065">
        <ele>2544.2</ele>
        <time>2021-02-27T10:50:10Z</time>
      </trkpt>
      <trkpt lat="45.23039" lon="6.06067">
        <ele>2544.2</ele>
        <time>2021-02-27T10:50:11Z</time>
      </trkpt>
      <trkpt lat="45.23039" lon="6.0607">
        <ele>2544.2</ele>
        <time>2021-02-27T10:50:12Z</time>
      </trkpt>
      <trkpt lat="45.2304" lon="6.06073">
        <ele>2544.2</ele>
        <time>2021-02-27T10:50:13Z</time>
      </trkpt>
      <trkpt lat="45.2304" lon="6.06076">
        <ele>2544.2</ele>
        <time>2021-02-27T10:50:14Z</time>
      </trkpt>
      <trkpt lat="45.2304" lon="6.06079">
        <ele>2544.2</ele>
        <time>2021-02-27T10:50:15Z</time>
      </trkpt>
      <trkpt lat="45.23041" lon="6.06081">
        <ele>2544.2</ele>
        <time>2021-02-27T10:50:16Z</time>
      </trkpt>
      <trkpt lat="45.23041" lon="6.06084">
        <ele>2544.2</ele>
        <time>2021-02-27T10:50:17Z</time>
      </trkpt>
      <trkpt lat="45.23042" lon="6.06087">
        <ele>2544.2</ele>
        <time>2021-02-27T10:50:18Z</time>
      </trkpt>
      <trkpt lat="45.23042" lon="6.0609">
        <ele>2531.6</ele>
        <time>2021-02-27T10:50:19Z</time>
      </trkpt>
      <trkpt lat="45.2304" lon="6.06098">
        <ele>2531.6</ele>
        <time>2021-02-27T10:50:20Z</time>
      </trkpt>
      <trkpt lat="45.23041" lon="6.06103">
        <ele>2531.6</ele>
        <time>2021-02-27T10:50:21Z</time>
      </trkpt>
      <trkpt lat="45.23041" lon="6.06108">
        <ele>2531.6</ele>
        <time>2021-02-27T10:50:22Z</time>
      </trkpt>
      <trkpt lat="45.23042" lon="6.06113">
        <ele>2531.6</ele>
        <time>2021-02-27T10:50:23Z</time>
      </trkpt>
      <trkpt lat="45.23043" lon="6.06118">
        <ele>2531.6</ele>
        <time>2021-02-27T10:50:24Z</time>
      </trkpt>
      <trkpt lat="45.23043" lon="6.06124">
        <ele>2531.6</ele>
        <time>2021-02-27T10:50:25Z</time>
      </trkpt>
      <trkpt lat="45.23044" lon="6.06129">
        <ele>2531.6</ele>
        <time>2021-02-27T10:50:26Z</time>
      </trkpt>
      <trkpt lat="45.23044" lon="6.06134">
        <ele>2531.6</ele>
        <time>2021-02-27T10:50:27Z</time>
      </trkpt>
      <trkpt lat="45.23045" lon="6.06139">
        <ele>2531.6</ele>
        <time>2021-02-27T10:50:28Z</time>
      </trkpt>
      <trkpt lat="45.23045" lon="6.06144">
        <ele>2514.2</ele>
        <time>2021-02-27T10:50:29Z</time>
      </trkpt>
      <trkpt lat="45.23047" lon="6.06158">
        <ele>2514.2</ele>
        <time>2021-02-27T10:50:30Z</time>
      </trkpt>
      <trkpt lat="45.23048" lon="6.06164">
        <ele>2514.2</ele>
        <time>2021-02-27T10:50:31Z</time>
      </trkpt>
      <trkpt lat="45.23048" lon="6.0617">
        <ele>2514.2</ele>
        <time>2021-02-27T10:50:32Z</time>
      </trkpt>
      <trkpt lat="45.23048" lon="6.06176">
        <ele>2514.2</ele>
        <time>2021-02-27T10:50:33Z</time>
      </trkpt>
      <trkpt lat="45.23049" lon="6.06182">
        <ele>2514.2</ele>
        <time>2021-02-27T10:50:34Z</time>
      </trkpt>
      <trkpt lat="45.23049" lon="6.06188">
        <ele>2514.2</ele>
        <time>2021-02-27T10:50:35Z</time>
      </trkpt>
      <trkpt lat="45.23049" lon="6.06194">
        <ele>2514.2</ele>
        <time>2021-02-27T10:50:36Z</time>
      </trkpt>
      <trkpt lat="45.2305" lon="6.062">
        <ele>2514.2</ele>
        <time>2021-02-27T10:50:37Z</time>
      </trkpt>
      <trkpt lat="45.2305" lon="6.06206">
        <ele>2514.2</ele>
        <time>2021-02-27T10:50:38Z</time>
      </trkpt>
      <trkpt lat="45.23051" lon="6.06212">
        <ele>2495.2</ele>
        <time>2021-02-27T10:50:39Z</time>
      </trkpt>
      <trkpt lat="45.23052" lon="6.06223">
        <ele>2495.2</ele>
        <time>2021-02-27T10:50:40Z</time>
      </trkpt>
      <trkpt lat="45.23053" lon="6.0623">
        <ele>2495.2</ele>
        <time>2021-02-27T10:50:41Z</time>
      </trkpt>
      <trkpt lat="45.23054" lon="6.06236">
        <ele>2495.2</ele>
        <time>2021-02-27T10:50:42Z</time>
      </trkpt>
      <trkpt lat="45.23054" lon="6.06242">
        <ele>2495.2</ele>
        <time>2021-02-27T10:50:43Z</time>
      </trkpt>
      <trkpt lat="45.23055" lon="6.06248">
        <ele>2495.2</ele>
        <time>2021-02-27T10:50:44Z</time>
      </trkpt>
      <trkpt lat="45.23056" lon="6.06255">
        <ele>2495.2</ele>
        <time>2021-02-27T10:50:45Z</time>
      </trkpt>
      <trkpt lat="45.23056" lon="6.06261">
        <ele>2495.2</ele>
        <time>2021-02-27T10:50:46Z</time>
      </trkpt>
      <trkpt lat="45.23057" lon="6.06267">
        <ele>2495.2</ele>
        <time>2021-02-27T10:50:47Z</time>
      </trkpt>
      <trkpt lat="45.23058" lon="6.06273">
        <ele>2495.2</ele>
        <time>2021-02-27T10:50:48Z</time>
      </trkpt>
      <trkpt lat="45.23058" lon="6.0628">
        <ele>2479.4</ele>
        <time>2021-02-27T10:50:49Z</time>
      </trkpt>
      <trkpt lat="45.23065" lon="6.06283">
        <ele>2479.4</ele>
        <time>2021-02-27T10:50:50Z</time>
      </trkpt>
      <trkpt lat="45.2307" lon="6.0628">
        <ele>2479.4</ele>
        <time>2021-02-27T10:50:51Z</time>
      </trkpt>
      <trkpt lat="45.23075" lon="6.06278">
        <ele>2479.4</ele>
        <time>2021-02-27T10:50:52Z</time>
      </trkpt>
      <trkpt lat="45.2308" lon="6.06275">
        <ele>2479.4</ele>
        <time>2021-02-27T10:50:53Z</time>
      </trkpt>
      <trkpt lat="45.23084" lon="6.06272">
        <ele>2479.4</ele>
        <time>2021-02-27T10:50:54Z</time>
      </trkpt>
      <trkpt lat="45.23089" lon="6.06269">
        <ele>2479.4</ele>
        <time>2021-02-27T10:50:55Z</time>
      </trkpt>
      <trkpt lat="45.23094" lon="6.06267">
        <ele>2479.4</ele>
        <time>2021-02-27T10:50:56Z</time>
      </trkpt>
      <trkpt lat="45.23099" lon="6.06264">
        <ele>2479.4</ele>
        <time>2021-02-27T10:50:57Z</time>
      </trkpt>
      <trkpt lat="45.23104" lon="6.06261">
        <ele>2479.4</ele>
        <time>2021-02-27T10:50:58Z</time>
      </trkpt>
      <trkpt lat="45.23109" lon="6.06259">
        <ele>2467.6</ele>
        <time>2021-02-27T10:50:59Z</time>
      </trkpt>
      <trkpt lat="45.23119" lon="6.0627">
        <ele>2467.6</ele>
        <time>2021-02-27T10:51:00Z</time>
      </trkpt>
      <trkpt lat="45.23124" lon="6.06277">
        <ele>2467.6</ele>
        <time>2021-02-27T10:51:01Z</time>
      </trkpt>
      <trkpt lat="45.2313" lon="6.06283">
        <ele>2467.6</ele>
        <time>2021-02-27T10:51:02Z</time>
      </trkpt>
      <trkpt lat="45.23135" lon="6.0629">
        <ele>2467.6</ele>
        <time>2021-02-27T10:51:03Z</time>
      </trkpt>
      <trkpt lat="45.2314" lon="6.06297">
        <ele>2467.6</ele>
        <time>2021-02-27T10:51:04Z</time>
      </trkpt>
      <trkpt lat="45.23146" lon="6.06304">
        <ele>2467.6</ele>
        <time>2021-02-27T10:51:05Z</time>
      </trkpt>
      <trkpt lat="45.23151" lon="6.0631">
        <ele>2467.6</ele>
        <time>2021-02-27T10:51:06Z</time>
      </trkpt>
      <trkpt lat="45.23156" lon="6.06317">
        <ele>2467.6</ele>
        <time>2021-02-27T10:51:07Z</time>
      </trkpt>
      <trkpt lat="45.23161" lon="6.06324">
        <ele>2467.6</ele>
        <time>2021-02-27T10:51:08Z</time>
      </trkpt>
      <trkpt lat="45.23167" lon="6.06331">
        <ele>2453.4</ele>
        <time>2021-02-27T10:51:09Z</time>
      </trkpt>
      <trkpt lat="45.23173" lon="6.06344">
        <ele>2453.4</ele>
        <time>2021-02-27T10:51:10Z</time>
      </trkpt>
      <trkpt lat="45.23176" lon="6.06349">
        <ele>2453.4</ele>
        <time>2021-02-27T10:51:11Z</time>
      </trkpt>
      <trkpt lat="45.2318" lon="6.06354">
        <ele>2453.4</ele>
        <time>2021-02-27T10:51:12Z</time>
      </trkpt>
      <trkpt lat="45.23183" lon="6.06359">
        <ele>2453.4</ele>
        <time>2021-02-27T10:51:13Z</time>
      </trkpt>
      <trkpt lat="45.23186" lon="6.06364">
        <ele>2453.4</ele>
        <time>2021-02-27T10:51:14Z</time>
      </trkpt>
      <trkpt lat="45.2319" lon="6.06369">
        <ele>2453.4</ele>
        <time>2021-02-27T10:51:15Z</time>
      </trkpt>
      <trkpt lat="45.23193" lon="6.06374">
        <ele>2453.4</ele>
        <time>2021-02-27T10:51:16Z</time>
      </trkpt>
      <trkpt lat="45.23196" lon="6.06379">
        <ele>2453.4</ele>
        <time>2021-02-27T10:51:17Z</time>
      </trkpt>
      <trkpt lat="45.232" lon="6.06384">
        <ele>2453.4</ele>
        <time>2021-02-27T10:51:18Z</time>
      </trkpt>
      <trkpt lat="45.23203" lon="6.06389">
        <ele>2442</ele>
        <time>2021-02-27T10:51:19Z</time>
      </trkpt>
      <trkpt lat="45.23215" lon="6.06398">
        <ele>2442</ele>
        <time>2021-02-27T10:51:20Z</time>
      </trkpt>
      <trkpt lat="45.23221" lon="6.06401">
        <ele>2442</ele>
        <time>2021-02-27T10:51:21Z</time>
      </trkpt>
      <trkpt lat="45.23227" lon="6.06405">
        <ele>2442</ele>
        <time>2021-02-27T10:51:22Z</time>
      </trkpt>
      <trkpt lat="45.23233" lon="6.06408">
        <ele>2442</ele>
        <time>2021-02-27T10:51:23Z</time>
      </trkpt>
      <trkpt lat="45.23239" lon="6.06412">
        <ele>2442</ele>
        <time>2021-02-27T10:51:24Z</time>
      </trkpt>
      <trkpt lat="45.23245" lon="6.06416">
        <ele>2442</ele>
        <time>2021-02-27T10:51:25Z</time>
      </trkpt>
      <trkpt lat="45.23251" lon="6.06419">
        <ele>2442</ele>
        <time>2021-02-27T10:51:26Z</time>
      </trkpt>
      <trkpt lat="45.23258" lon="6.06423">
        <ele>2442</ele>
        <time>2021-02-27T10:51:27Z</time>
      </trkpt>
      <trkpt lat="45.23264" lon="6.06426">
        <ele>2442</ele>
        <time>2021-02-27T10:51:28Z</time>
      </trkpt>
      <trkpt lat="45.2327" lon="6.0643">
        <ele>2431</ele>
        <time>2021-02-27T10:51:29Z</time>
      </trkpt>
      <trkpt lat="45.23267" lon="6.06435">
        <ele>2431</ele>
        <time>2021-02-27T10:51:30Z</time>
      </trkpt>
      <trkpt lat="45.23261" lon="6.06437">
        <ele>2431</ele>
        <time>2021-02-27T10:51:31Z</time>
      </trkpt>
      <trkpt lat="45.23255" lon="6.06439">
        <ele>2431</ele>
        <time>2021-02-27T10:51:32Z</time>
      </trkpt>
      <trkpt lat="45.2325" lon="6.06441">
        <ele>2431</ele>
        <time>2021-02-27T10:51:33Z</time>
      </trkpt>
      <trkpt lat="45.23244" lon="6.06444">
        <ele>2431</ele>
        <time>2021-02-27T10:51:34Z</time>
      </trkpt>
      <trkpt lat="45.23238" lon="6.06446">
        <ele>2431</ele>
        <time>2021-02-27T10:51:35Z</time>
      </trkpt>
      <trkpt lat="45.23233" lon="6.06448">
        <ele>2431</ele>
        <time>2021-02-27T10:51:36Z</time>
      </trkpt>
      <trkpt lat="45.23227" lon="6.0645">
        <ele>2431</ele>
        <time>2021-02-27T10:51:37Z</time>
      </trkpt>
      <trkpt lat="45.23221" lon="6.06452">
        <ele>2431</ele>
        <time>2021-02-27T10:51:38Z</time>
      </trkpt>
      <trkpt lat="45.23216" lon="6.06454">
        <ele>2422.2</ele>
        <time>2021-02-27T10:51:39Z</time>
      </trkpt>
      <trkpt lat="45.23218" lon="6.06461">
        <ele>2422.2</ele>
        <time>2021-02-27T10:51:40Z</time>
      </trkpt>
      <trkpt lat="45.23223" lon="6.06466">
        <ele>2422.2</ele>
        <time>2021-02-27T10:51:41Z</time>
      </trkpt>
      <trkpt lat="45.23229" lon="6.0647">
        <ele>2422.2</ele>
        <time>2021-02-27T10:51:42Z</time>
      </trkpt>
      <trkpt lat="45.23234" lon="6.06475">
        <ele>2422.2</ele>
        <time>2021-02-27T10:51:43Z</time>
      </trkpt>
      <trkpt lat="45.2324" lon="6.0648">
        <ele>2422.2</ele>
        <time>2021-02-27T10:51:44Z</time>
      </trkpt>
      <trkpt lat="45.23245" lon="6.06484">
        <ele>2422.2</ele>
        <time>2021-02-27T10:51:45Z</time>
      </trkpt>
      <trkpt lat="45.2325" lon="6.06489">
        <ele>2422.2</ele>
        <time>2021-02-27T10:51:46Z</time>
      </trkpt>
      <trkpt lat="45.23256" lon="6.06494">
        <ele>2422.2</ele>
        <time>2021-02-27T10:51:47Z</time>
      </trkpt>
      <trkpt lat="45.23261" lon="6.06498">
        <ele>2422.2</ele>
        <time>2021-02-27T10:51:48Z</time>
      </trkpt>
      <trkpt lat="45.23267" lon="6.06503">
        <ele>2407.6</ele>
        <time>2021-02-27T10:51:49Z</time>
      </trkpt>
      <trkpt lat="45.23274" lon="6.0652">
        <ele>2407.6</ele>
        <time>2021-02-27T10:51:50Z</time>
      </trkpt>
      <trkpt lat="45.23274" lon="6.06528">
        <ele>2407.6</ele>
        <time>2021-02-27T10:51:51Z</time>
      </trkpt>
      <trkpt lat="45.23274" lon="6.06536">
        <ele>2407.6</ele>
        <time>2021-02-27T10:51:52Z</time>
      </trkpt>
      <trkpt lat="45.23275" lon="6.06544">
        <ele>2407.6</ele>
        <time>2021-02-27T10:51:53Z</time>
      </trkpt>
      <trkpt lat="45.23275" lon="6.06552">
        <ele>2407.6</ele>
        <time>2021-02-27T10:51:54Z</time>
      </trkpt>
      <trkpt lat="45.23276" lon="6.0656">
        <ele>2407.6</ele>
        <time>2021-02-27T10:51:55Z</time>
      </trkpt>
      <trkpt lat="45.23276" lon="6.06568">
        <ele>2407.6</ele>
        <time>2021-02-27T10:51:56Z</time>
      </trkpt>
      <trkpt lat="45.23277" lon="6.06576">
        <ele>2407.6</ele>
        <time>2021-02-27T10:51:57Z</time>
      </trkpt>
      <trkpt lat="45.23277" lon="6.06584">
        <ele>2407.6</ele>
        <time>2021-02-27T10:51:58Z</time>
      </trkpt>
      <trkpt lat="45.23278" lon="6.06592">
        <ele>2393.2</ele>
        <time>2021-02-27T10:51:59Z</time>
      </trkpt>
      <trkpt lat="45.23273" lon="6.06602">
        <ele>2393.2</ele>
        <time>2021-02-27T10:52:00Z</time>
      </trkpt>
      <trkpt lat="45.23274" lon="6.0661">
        <ele>2393.2</ele>
        <time>2021-02-27T10:52:01Z</time>
      </trkpt>
      <trkpt lat="45.23275" lon="6.06617">
        <ele>2393.2</ele>
        <time>2021-02-27T10:52:02Z</time>
      </trkpt>
      <trkpt lat="45.23276" lon="6.06625">
        <ele>2393.2</ele>
        <time>2021-02-27T10:52:03Z</time>
      </trkpt>
      <trkpt lat="45.23277" lon="6.06633">
        <ele>2393.2</ele>
        <time>2021-02-27T10:52:04Z</time>
      </trkpt>
      <trkpt lat="45.23277" lon="6.06641">
        <ele>2393.2</ele>
        <time>2021-02-27T10:52:05Z</time>
      </trkpt>
      <trkpt lat="45.23278" lon="6.06648">
        <ele>2393.2</ele>
        <time>2021-02-27T10:52:06Z</time>
      </trkpt>
      <trkpt lat="45.23279" lon="6.06656">
        <ele>2393.2</ele>
        <time>2021-02-27T10:52:07Z</time>
      </trkpt>
      <trkpt lat="45.2328" lon="6.06664">
        <ele>2393.2</ele>
        <time>2021-02-27T10:52:08Z</time>
      </trkpt>
      <trkpt lat="45.23281" lon="6.06671">
        <ele>2376</ele>
        <time>2021-02-27T10:52:09Z</time>
      </trkpt>
      <trkpt lat="45.23283" lon="6.06688">
        <ele>2376</ele>
        <time>2021-02-27T10:52:10Z</time>
      </trkpt>
      <trkpt lat="45.23282" lon="6.06694">
        <ele>2376</ele>
        <time>2021-02-27T10:52:11Z</time>
      </trkpt>
      <trkpt lat="45.2328" lon="6.067">
        <ele>2376</ele>
        <time>2021-02-27T10:52:12Z</time>
      </trkpt>
      <trkpt lat="45.23279" lon="6.06705">
        <ele>2376</ele>
        <time>2021-02-27T10:52:13Z</time>
      </trkpt>
      <trkpt lat="45.23278" lon="6.06711">
        <ele>2376</ele>
        <time>2021-02-27T10:52:14Z</time>
      </trkpt>
      <trkpt lat="45.23277" lon="6.06717">
        <ele>2376</ele>
        <time>2021-02-27T10:52:15Z</time>
      </trkpt>
      <trkpt lat="45.23276" lon="6.06723">
        <ele>2376</ele>
        <time>2021-02-27T10:52:16Z</time>
      </trkpt>
      <trkpt lat="45.23275" lon="6.06728">
        <ele>2376</ele>
        <time>2021-02-27T10:52:17Z</time>
      </trkpt>
      <trkpt lat="45.23274" lon="6.06734">
        <ele>2376</ele>
        <time>2021-02-27T10:52:18Z</time>
      </trkpt>
      <trkpt lat="45.23272" lon="6.0674">
        <ele>2361.8</ele>
        <time>2021-02-27T10:52:19Z</time>
      </trkpt>
      <trkpt lat="45.23266" lon="6.06745">
        <ele>2361.8</ele>
        <time>2021-02-27T10:52:20Z</time>
      </trkpt>
      <trkpt lat="45.23266" lon="6.06752">
        <ele>2361.8</ele>
        <time>2021-02-27T10:52:21Z</time>
      </trkpt>
      <trkpt lat="45.23267" lon="6.06759">
        <ele>2361.8</ele>
        <time>2021-02-27T10:52:22Z</time>
      </trkpt>
      <trkpt lat="45.23267" lon="6.06766">
        <ele>2361.8</ele>
        <time>2021-02-27T10:52:23Z</time>
      </trkpt>
      <trkpt lat="45.23267" lon="6.06772">
        <ele>2361.8</ele>
        <time>2021-02-27T10:52:24Z</time>
      </trkpt>
      <trkpt lat="45.23267" lon="6.06779">
        <ele>2361.8</ele>
        <time>2021-02-27T10:52:25Z</time>
      </trkpt>
      <trkpt lat="45.23267" lon="6.06786">
        <ele>2361.8</ele>
        <time>2021-02-27T10:52:26Z</time>
      </trkpt>
      <trkpt lat="45.23268" lon="6.06793">
        <ele>2361.8</ele>
        <time>2021-02-27T10:52:27Z</time>
      </trkpt>
      <trkpt lat="45.23268" lon="6.06799">
        <ele>2361.8</ele>
        <time>2021-02-27T10:52:28Z</time>
      </trkpt>
      <trkpt lat="45.23268" lon="6.06806">
        <ele>2340.2</ele>
        <time>2021-02-27T10:52:29Z</time>
      </trkpt>
      <trkpt lat="45.23257" lon="6.06813">
        <ele>2340.2</ele>
        <time>2021-02-27T10:52:30Z</time>
      </trkpt>
      <trkpt lat="45.23253" lon="6.06819">
        <ele>2340.2</ele>
        <time>2021-02-27T10:52:31Z</time>
      </trkpt>
      <trkpt lat="45.2325" lon="6.06825">
        <ele>2340.2</ele>
        <time>2021-02-27T10:52:32Z</time>
      </trkpt>
      <trkpt lat="45.23246" lon="6.06832">
        <ele>2340.2</ele>
        <time>2021-02-27T10:52:33Z</time>
      </trkpt>
      <trkpt lat="45.23243" lon="6.06838">
        <ele>2340.2</ele>
        <time>2021-02-27T10:52:34Z</time>
      </trkpt>
      <trkpt lat="45.23239" lon="6.06844">
        <ele>2340.2</ele>
        <time>2021-02-27T10:52:35Z</time>
      </trkpt>
      <trkpt lat="45.23235" lon="6.0685">
        <ele>2340.2</ele>
        <time>2021-02-27T10:52:36Z</time>
      </trkpt>
      <trkpt lat="45.23232" lon="6.06857">
        <ele>2340.2</ele>
        <time>2021-02-27T10:52:37Z</time>
      </trkpt>
      <trkpt lat="45.23228" lon="6.06863">
        <ele>2340.2</ele>
        <time>2021-02-27T10:52:38Z</time>
      </trkpt>
      <trkpt lat="45.23225" lon="6.06869">
        <ele>2310.8</ele>
        <time>2021-02-27T10:52:39Z</time>
      </trkpt>
      <trkpt lat="45.23227" lon="6.06889">
        <ele>2310.8</ele>
        <time>2021-02-27T10:52:40Z</time>
      </trkpt>
      <trkpt lat="45.23229" lon="6.06898">
        <ele>2310.8</ele>
        <time>2021-02-27T10:52:41Z</time>
      </trkpt>
      <trkpt lat="45.23231" lon="6.06907">
        <ele>2310.8</ele>
        <time>2021-02-27T10:52:42Z</time>
      </trkpt>
      <trkpt lat="45.23232" lon="6.06916">
        <ele>2310.8</ele>
        <time>2021-02-27T10:52:43Z</time>
      </trkpt>
      <trkpt lat="45.23234" lon="6.06925">
        <ele>2310.8</ele>
        <time>2021-02-27T10:52:44Z</time>
      </trkpt>
      <trkpt lat="45.23235" lon="6.06933">
        <ele>2310.8</ele>
        <time>2021-02-27T10:52:45Z</time>
      </trkpt>
      <trkpt lat="45.23237" lon="6.06942">
        <ele>2310.8</ele>
        <time>2021-02-27T10:52:46Z</time>
      </trkpt>
      <trkpt lat="45.23238" lon="6.06951">
        <ele>2310.8</ele>
        <time>2021-02-27T10:52:47Z</time>
      </trkpt>
      <trkpt lat="45.2324" lon="6.0696">
        <ele>2310.8</ele>
        <time>2021-02-27T10:52:48Z</time>
      </trkpt>
      <trkpt lat="45.23241" lon="6.06969">
        <ele>2283.8</ele>
        <time>2021-02-27T10:52:49Z</time>
      </trkpt>
      <trkpt lat="45.23246" lon="6.06989">
        <ele>2283.8</ele>
        <time>2021-02-27T10:52:50Z</time>
      </trkpt>
      <trkpt lat="45.23248" lon="6.06998">
        <ele>2283.8</ele>
        <time>2021-02-27T10:52:51Z</time>
      </trkpt>
      <trkpt lat="45.2325" lon="6.07008">
        <ele>2283.8</ele>
        <time>2021-02-27T10:52:52Z</time>
      </trkpt>
      <trkpt lat="45.23251" lon="6.07018">
        <ele>2283.8</ele>
        <time>2021-02-27T10:52:53Z</time>
      </trkpt>
      <trkpt lat="45.23253" lon="6.07028">
        <ele>2283.8</ele>
        <time>2021-02-27T10:52:54Z</time>
      </trkpt>
      <trkpt lat="45.23255" lon="6.07037">
        <ele>2283.8</ele>
        <time>2021-02-27T10:52:55Z</time>
      </trkpt>
      <trkpt lat="45.23257" lon="6.07047">
        <ele>2283.8</ele>
        <time>2021-02-27T10:52:56Z</time>
      </trkpt>
      <trkpt lat="45.23259" lon="6.07057">
        <ele>2283.8</ele>
        <time>2021-02-27T10:52:57Z</time>
      </trkpt>
      <trkpt lat="45.23261" lon="6.07067">
        <ele>2283.8</ele>
        <time>2021-02-27T10:52:58Z</time>
      </trkpt>
      <trkpt lat="45.23263" lon="6.07076">
        <ele>2269.4</ele>
        <time>2021-02-27T10:52:59Z</time>
      </trkpt>
      <trkpt lat="45.23266" lon="6.07094">
        <ele>2269.4</ele>
        <time>2021-02-27T10:53:00Z</time>
      </trkpt>
      <trkpt lat="45.23267" lon="6.07102">
        <ele>2269.4</ele>
        <time>2021-02-27T10:53:01Z</time>
      </trkpt>
      <trkpt lat="45.23268" lon="6.07109">
        <ele>2269.4</ele>
        <time>2021-02-27T10:53:02Z</time>
      </trkpt>
      <trkpt lat="45.2327" lon="6.07117">
        <ele>2269.4</ele>
        <time>2021-02-27T10:53:03Z</time>
      </trkpt>
      <trkpt lat="45.23271" lon="6.07125">
        <ele>2269.4</ele>
        <time>2021-02-27T10:53:04Z</time>
      </trkpt>
      <trkpt lat="45.23272" lon="6.07133">
        <ele>2269.4</ele>
        <time>2021-02-27T10:53:05Z</time>
      </trkpt>
      <trkpt lat="45.23273" lon="6.0714">
        <ele>2269.4</ele>
        <time>2021-02-27T10:53:06Z</time>
      </trkpt>
      <trkpt lat="45.23274" lon="6.07148">
        <ele>2269.4</ele>
        <time>2021-02-27T10:53:07Z</time>
      </trkpt>
      <trkpt lat="45.23276" lon="6.07156">
        <ele>2269.4</ele>
        <time>2021-02-27T10:53:08Z</time>
      </trkpt>
      <trkpt lat="45.23277" lon="6.07164">
        <ele>2257.4</ele>
        <time>2021-02-27T10:53:09Z</time>
      </trkpt>
      <trkpt lat="45.23278" lon="6.07179">
        <ele>2257.4</ele>
        <time>2021-02-27T10:53:10Z</time>
      </trkpt>
      <trkpt lat="45.23277" lon="6.07186">
        <ele>2257.4</ele>
        <time>2021-02-27T10:53:11Z</time>
      </trkpt>
      <trkpt lat="45.23277" lon="6.07193">
        <ele>2257.4</ele>
        <time>2021-02-27T10:53:12Z</time>
      </trkpt>
      <trkpt lat="45.23276" lon="6.072">
        <ele>2257.4</ele>
        <time>2021-02-27T10:53:13Z</time>
      </trkpt>
      <trkpt lat="45.23276" lon="6.07207">
        <ele>2257.4</ele>
        <time>2021-02-27T10:53:14Z</time>
      </trkpt>
      <trkpt lat="45.23276" lon="6.07214">
        <ele>2257.4</ele>
        <time>2021-02-27T10:53:15Z</time>
      </trkpt>
      <trkpt lat="45.23275" lon="6.07221">
        <ele>2257.4</ele>
        <time>2021-02-27T10:53:16Z</time>
      </trkpt>
      <trkpt lat="45.23275" lon="6.07228">
        <ele>2257.4</ele>
        <time>2021-02-27T10:53:17Z</time>
      </trkpt>
      <trkpt lat="45.23275" lon="6.07236">
        <ele>2257.4</ele>
        <time>2021-02-27T10:53:18Z</time>
      </trkpt>
      <trkpt lat="45.23274" lon="6.07243">
        <ele>2242.2</ele>
        <time>2021-02-27T10:53:19Z</time>
      </trkpt>
      <trkpt lat="45.2328" lon="6.07255">
        <ele>2242.2</ele>
        <time>2021-02-27T10:53:20Z</time>
      </trkpt>
      <trkpt lat="45.23282" lon="6.07259">
        <ele>2242.2</ele>
        <time>2021-02-27T10:53:21Z</time>
      </trkpt>
      <trkpt lat="45.23284" lon="6.07264">
        <ele>2242.2</ele>
        <time>2021-02-27T10:53:22Z</time>
      </trkpt>
      <trkpt lat="45.23286" lon="6.07268">
        <ele>2242.2</ele>
        <time>2021-02-27T10:53:23Z</time>
      </trkpt>
      <trkpt lat="45.23288" lon="6.07273">
        <ele>2242.2</ele>
        <time>2021-02-27T10:53:24Z</time>
      </trkpt>
      <trkpt lat="45.2329" lon="6.07277">
        <ele>2242.2</ele>
        <time>2021-02-27T10:53:25Z</time>
      </trkpt>
      <trkpt lat="45.23292" lon="6.07282">
        <ele>2242.2</ele>
        <time>2021-02-27T10:53:26Z</time>
      </trkpt>
      <trkpt lat="45.23294" lon="6.07286">
        <ele>2235.2</ele>
        <time>2021-02-27T10:53:29Z</time>
      </trkpt>
      <trkpt lat="45.23296" lon="6.07292">
        <ele>2233.6</ele>
        <time>2021-02-27T10:53:39Z</time>
      </trkpt>
      <trkpt lat="45.23298" lon="6.07298">
        <ele>2233.6</ele>
        <time>2021-02-27T10:53:41Z</time>
      </trkpt>
      <trkpt lat="45.233" lon="6.07304">
        <ele>2233.6</ele>
        <time>2021-02-27T10:53:42Z</time>
      </trkpt>
      <trkpt lat="45.23302" lon="6.07309">
        <ele>2233.6</ele>
        <time>2021-02-27T10:53:43Z</time>
      </trkpt>
      <trkpt lat="45.23304" lon="6.07315">
        <ele>2233.6</ele>
        <time>2021-02-27T10:53:44Z</time>
      </trkpt>
      <trkpt lat="45.23306" lon="6.07321">
        <ele>2233.6</ele>
        <time>2021-02-27T10:53:45Z</time>
      </trkpt>
      <trkpt lat="45.23308" lon="6.07327">
        <ele>2233.6</ele>
        <time>2021-02-27T10:53:46Z</time>
      </trkpt>
      <trkpt lat="45.2331" lon="6.07332">
        <ele>2233.6</ele>
        <time>2021-02-27T10:53:47Z</time>
      </trkpt>
      <trkpt lat="45.23312" lon="6.07338">
        <ele>2233.6</ele>
        <time>2021-02-27T10:53:48Z</time>
      </trkpt>
      <trkpt lat="45.23314" lon="6.07344">
        <ele>2225.8</ele>
        <time>2021-02-27T10:53:49Z</time>
      </trkpt>
      <trkpt lat="45.23317" lon="6.07356">
        <ele>2225.8</ele>
        <time>2021-02-27T10:53:50Z</time>
      </trkpt>
      <trkpt lat="45.23319" lon="6.07363">
        <ele>2225.8</ele>
        <time>2021-02-27T10:53:51Z</time>
      </trkpt>
      <trkpt lat="45.23321" lon="6.07369">
        <ele>2225.8</ele>
        <time>2021-02-27T10:53:52Z</time>
      </trkpt>
      <trkpt lat="45.23323" lon="6.07375">
        <ele>2225.8</ele>
        <time>2021-02-27T10:53:53Z</time>
      </trkpt>
      <trkpt lat="45.23325" lon="6.07382">
        <ele>2225.8</ele>
        <time>2021-02-27T10:53:54Z</time>
      </trkpt>
      <trkpt lat="45.23327" lon="6.07388">
        <ele>2225.8</ele>
        <time>2021-02-27T10:53:55Z</time>
      </trkpt>
      <trkpt lat="45.23329" lon="6.07394">
        <ele>2225.8</ele>
        <time>2021-02-27T10:53:56Z</time>
      </trkpt>
      <trkpt lat="45.23331" lon="6.07401">
        <ele>2225.8</ele>
        <time>2021-02-27T10:53:57Z</time>
      </trkpt>
      <trkpt lat="45.23333" lon="6.07407">
        <ele>2225.8</ele>
        <time>2021-02-27T10:53:58Z</time>
      </trkpt>
      <trkpt lat="45.23334" lon="6.07413">
        <ele>2217.4</ele>
        <time>2021-02-27T10:53:59Z</time>
      </trkpt>
      <trkpt lat="45.23337" lon="6.07427">
        <ele>2217.4</ele>
        <time>2021-02-27T10:54:00Z</time>
      </trkpt>
      <trkpt lat="45.23337" lon="6.07432">
        <ele>2217.4</ele>
        <time>2021-02-27T10:54:01Z</time>
      </trkpt>
      <trkpt lat="45.23338" lon="6.07437">
        <ele>2217.4</ele>
        <time>2021-02-27T10:54:02Z</time>
      </trkpt>
      <trkpt lat="45.23339" lon="6.07442">
        <ele>2217.4</ele>
        <time>2021-02-27T10:54:03Z</time>
      </trkpt>
      <trkpt lat="45.2334" lon="6.07447">
        <ele>2217.4</ele>
        <time>2021-02-27T10:54:04Z</time>
      </trkpt>
      <trkpt lat="45.23341" lon="6.07452">
        <ele>2217.4</ele>
        <time>2021-02-27T10:54:05Z</time>
      </trkpt>
      <trkpt lat="45.23342" lon="6.07457">
        <ele>2217.4</ele>
        <time>2021-02-27T10:54:06Z</time>
      </trkpt>
      <trkpt lat="45.23342" lon="6.07462">
        <ele>2217.4</ele>
        <time>2021-02-27T10:54:07Z</time>
      </trkpt>
      <trkpt lat="45.23343" lon="6.07467">
        <ele>2217.4</ele>
        <time>2021-02-27T10:54:08Z</time>
      </trkpt>
      <trkpt lat="45.23344" lon="6.07473">
        <ele>2210.2</ele>
        <time>2021-02-27T10:54:09Z</time>
      </trkpt>
      <trkpt lat="45.23348" lon="6.07484">
        <ele>2210.2</ele>
        <time>2021-02-27T10:54:10Z</time>
      </trkpt>
      <trkpt lat="45.23349" lon="6.0749">
        <ele>2210.2</ele>
        <time>2021-02-27T10:54:11Z</time>
      </trkpt>
      <trkpt lat="45.23351" lon="6.07497">
        <ele>2210.2</ele>
        <time>2021-02-27T10:54:12Z</time>
      </trkpt>
      <trkpt lat="45.23353" lon="6.07503">
        <ele>2210.2</ele>
        <time>2021-02-27T10:54:13Z</time>
      </trkpt>
      <trkpt lat="45.23355" lon="6.0751">
        <ele>2210.2</ele>
        <time>2021-02-27T10:54:14Z</time>
      </trkpt>
      <trkpt lat="45.23357" lon="6.07517">
        <ele>2210.2</ele>
        <time>2021-02-27T10:54:15Z</time>
      </trkpt>
      <trkpt lat="45.23359" lon="6.07523">
        <ele>2210.2</ele>
        <time>2021-02-27T10:54:16Z</time>
      </trkpt>
      <trkpt lat="45.23361" lon="6.0753">
        <ele>2210.2</ele>
        <time>2021-02-27T10:54:17Z</time>
      </trkpt>
      <trkpt lat="45.23363" lon="6.07536">
        <ele>2210.2</ele>
        <time>2021-02-27T10:54:18Z</time>
      </trkpt>
      <trkpt lat="45.23364" lon="6.07543">
        <ele>2202.6</ele>
        <time>2021-02-27T10:54:19Z</time>
      </trkpt>
      <trkpt lat="45.23366" lon="6.07554">
        <ele>2202.6</ele>
        <time>2021-02-27T10:54:20Z</time>
      </trkpt>
      <trkpt lat="45.23367" lon="6.07557">
        <ele>2202.6</ele>
        <time>2021-02-27T10:54:21Z</time>
      </trkpt>
      <trkpt lat="45.23368" lon="6.0756">
        <ele>2202.6</ele>
        <time>2021-02-27T10:54:22Z</time>
      </trkpt>
      <trkpt lat="45.23368" lon="6.07564">
        <ele>2202.6</ele>
        <time>2021-02-27T10:54:23Z</time>
      </trkpt>
      <trkpt lat="45.23369" lon="6.07567">
        <ele>2202.6</ele>
        <time>2021-02-27T10:54:24Z</time>
      </trkpt>
      <trkpt lat="45.23369" lon="6.0757">
        <ele>2202.6</ele>
        <time>2021-02-27T10:54:25Z</time>
      </trkpt>
      <trkpt lat="45.2337" lon="6.07574">
        <ele>2202.6</ele>
        <time>2021-02-27T10:54:26Z</time>
      </trkpt>
      <trkpt lat="45.2337" lon="6.07577">
        <ele>2202.6</ele>
        <time>2021-02-27T10:54:27Z</time>
      </trkpt>
      <trkpt lat="45.23371" lon="6.07581">
        <ele>2202.6</ele>
        <time>2021-02-27T10:54:28Z</time>
      </trkpt>
      <trkpt lat="45.23372" lon="6.07584">
        <ele>2199.4</ele>
        <time>2021-02-27T10:54:29Z</time>
      </trkpt>
      <trkpt lat="45.23374" lon="6.07593">
        <ele>2199.4</ele>
        <time>2021-02-27T10:54:30Z</time>
      </trkpt>
      <trkpt lat="45.23375" lon="6.07598">
        <ele>2199.4</ele>
        <time>2021-02-27T10:54:31Z</time>
      </trkpt>
      <trkpt lat="45.23376" lon="6.07603">
        <ele>2199.4</ele>
        <time>2021-02-27T10:54:32Z</time>
      </trkpt>
      <trkpt lat="45.23378" lon="6.07608">
        <ele>2199.4</ele>
        <time>2021-02-27T10:54:33Z</time>
      </trkpt>
      <trkpt lat="45.23379" lon="6.07613">
        <ele>2199.4</ele>
        <time>2021-02-27T10:54:34Z</time>
      </trkpt>
      <trkpt lat="45.2338" lon="6.07618">
        <ele>2199.4</ele>
        <time>2021-02-27T10:54:35Z</time>
      </trkpt>
      <trkpt lat="45.23381" lon="6.07623">
        <ele>2199.4</ele>
        <time>2021-02-27T10:54:36Z</time>
      </trkpt>
      <trkpt lat="45.23382" lon="6.07628">
        <ele>2199.4</ele>
        <time>2021-02-27T10:54:37Z</time>
      </trkpt>
      <trkpt lat="45.23384" lon="6.07633">
        <ele>2199.4</ele>
        <time>2021-02-27T10:54:38Z</time>
      </trkpt>
      <trkpt lat="45.23385" lon="6.07637">
        <ele>2196.6</ele>
        <time>2021-02-27T10:54:39Z</time>
      </trkpt>
      <trkpt lat="45.23387" lon="6.07647">
        <ele>2196.6</ele>
        <time>2021-02-27T10:54:40Z</time>
      </trkpt>
      <trkpt lat="45.23388" lon="6.07651">
        <ele>2196.6</ele>
        <time>2021-02-27T10:54:41Z</time>
      </trkpt>
      <trkpt lat="45.23388" lon="6.07655">
        <ele>2196.6</ele>
        <time>2021-02-27T10:54:42Z</time>
      </trkpt>
      <trkpt lat="45.23389" lon="6.07659">
        <ele>2196.6</ele>
        <time>2021-02-27T10:54:43Z</time>
      </trkpt>
      <trkpt lat="45.2339" lon="6.07663">
        <ele>2196.6</ele>
        <time>2021-02-27T10:54:44Z</time>
      </trkpt>
      <trkpt lat="45.23391" lon="6.07667">
        <ele>2196.6</ele>
        <time>2021-02-27T10:54:45Z</time>
      </trkpt>
      <trkpt lat="45.23392" lon="6.07671">
        <ele>2196.6</ele>
        <time>2021-02-27T10:54:46Z</time>
      </trkpt>
      <trkpt lat="45.23392" lon="6.07675">
        <ele>2196.6</ele>
        <time>2021-02-27T10:54:47Z</time>
      </trkpt>
      <trkpt lat="45.23393" lon="6.07679">
        <ele>2196.6</ele>
        <time>2021-02-27T10:54:48Z</time>
      </trkpt>
      <trkpt lat="45.23394" lon="6.07683">
        <ele>2195.8</ele>
        <time>2021-02-27T10:54:49Z</time>
      </trkpt>
      <trkpt lat="45.23397" lon="6.07698">
        <ele>2195.8</ele>
        <time>2021-02-27T10:54:50Z</time>
      </trkpt>
      <trkpt lat="45.234" lon="6.07706">
        <ele>2195.8</ele>
        <time>2021-02-27T10:54:51Z</time>
      </trkpt>
      <trkpt lat="45.23402" lon="6.07715">
        <ele>2195.8</ele>
        <time>2021-02-27T10:54:52Z</time>
      </trkpt>
      <trkpt lat="45.23404" lon="6.07724">
        <ele>2195.8</ele>
        <time>2021-02-27T10:54:53Z</time>
      </trkpt>
      <trkpt lat="45.23406" lon="6.07732">
        <ele>2195.8</ele>
        <time>2021-02-27T10:54:54Z</time>
      </trkpt>
      <trkpt lat="45.23408" lon="6.07741">
        <ele>2195.8</ele>
        <time>2021-02-27T10:54:55Z</time>
      </trkpt>
      <trkpt lat="45.2341" lon="6.0775">
        <ele>2195.8</ele>
        <time>2021-02-27T10:54:56Z</time>
      </trkpt>
      <trkpt lat="45.23413" lon="6.07758">
        <ele>2195.8</ele>
        <time>2021-02-27T10:54:57Z</time>
      </trkpt>
      <trkpt lat="45.23415" lon="6.07767">
        <ele>2195.8</ele>
        <time>2021-02-27T10:54:58Z</time>
      </trkpt>
      <trkpt lat="45.23417" lon="6.07776">
        <ele>2188.2</ele>
        <time>2021-02-27T10:54:59Z</time>
      </trkpt>
      <trkpt lat="45.2342" lon="6.07785">
        <ele>2188.2</ele>
        <time>2021-02-27T10:55:00Z</time>
      </trkpt>
      <trkpt lat="45.23421" lon="6.07788">
        <ele>2188.2</ele>
        <time>2021-02-27T10:55:01Z</time>
      </trkpt>
      <trkpt lat="45.23422" lon="6.07792">
        <ele>2188.2</ele>
        <time>2021-02-27T10:55:02Z</time>
      </trkpt>
      <trkpt lat="45.23423" lon="6.07795">
        <ele>2188.2</ele>
        <time>2021-02-27T10:55:03Z</time>
      </trkpt>
      <trkpt lat="45.23424" lon="6.07798">
        <ele>2188.2</ele>
        <time>2021-02-27T10:55:04Z</time>
      </trkpt>
      <trkpt lat="45.23425" lon="6.07801">
        <ele>2188.2</ele>
        <time>2021-02-27T10:55:05Z</time>
      </trkpt>
      <trkpt lat="45.23426" lon="6.07805">
        <ele>2188.2</ele>
        <time>2021-02-27T10:55:06Z</time>
      </trkpt>
      <trkpt lat="45.23427" lon="6.07808">
        <ele>2188.2</ele>
        <time>2021-02-27T10:55:08Z</time>
      </trkpt>
      <trkpt lat="45.23429" lon="6.07811">
        <ele>2186.2</ele>
        <time>2021-02-27T10:55:09Z</time>
      </trkpt>
      <trkpt lat="45.2343" lon="6.07816">
        <ele>2186.2</ele>
        <time>2021-02-27T10:55:10Z</time>
      </trkpt>
      <trkpt lat="45.23431" lon="6.07819">
        <ele>2186.2</ele>
        <time>2021-02-27T10:55:11Z</time>
      </trkpt>
      <trkpt lat="45.23432" lon="6.07822">
        <ele>2186.2</ele>
        <time>2021-02-27T10:55:12Z</time>
      </trkpt>
      <trkpt lat="45.23433" lon="6.07825">
        <ele>2186.2</ele>
        <time>2021-02-27T10:55:13Z</time>
      </trkpt>
      <trkpt lat="45.23434" lon="6.07827">
        <ele>2186.2</ele>
        <time>2021-02-27T10:55:14Z</time>
      </trkpt>
      <trkpt lat="45.23435" lon="6.0783">
        <ele>2186.2</ele>
        <time>2021-02-27T10:55:15Z</time>
      </trkpt>
      <trkpt lat="45.23436" lon="6.07833">
        <ele>2186.2</ele>
        <time>2021-02-27T10:55:16Z</time>
      </trkpt>
      <trkpt lat="45.23437" lon="6.07836">
        <ele>2186.2</ele>
        <time>2021-02-27T10:55:18Z</time>
      </trkpt>
      <trkpt lat="45.23438" lon="6.07838">
        <ele>2184.4</ele>
        <time>2021-02-27T10:55:19Z</time>
      </trkpt>
      <trkpt lat="45.2344" lon="6.07842">
        <ele>2184.4</ele>
        <time>2021-02-27T10:55:21Z</time>
      </trkpt>
      <trkpt lat="45.23441" lon="6.07845">
        <ele>2184.4</ele>
        <time>2021-02-27T10:55:23Z</time>
      </trkpt>
      <trkpt lat="45.23443" lon="6.07847">
        <ele>2184.4</ele>
        <time>2021-02-27T10:55:25Z</time>
      </trkpt>
      <trkpt lat="45.23444" lon="6.07849">
        <ele>2184.4</ele>
        <time>2021-02-27T10:55:27Z</time>
      </trkpt>
      <trkpt lat="45.23445" lon="6.07851">
        <ele>2184.4</ele>
        <time>2021-02-27T10:55:28Z</time>
      </trkpt>
      <trkpt lat="45.23447" lon="6.07853">
        <ele>2184</ele>
        <time>2021-02-27T10:55:29Z</time>
      </trkpt>
      <trkpt lat="45.23449" lon="6.07857">
        <ele>2184</ele>
        <time>2021-02-27T10:55:30Z</time>
      </trkpt>
      <trkpt lat="45.2345" lon="6.07858">
        <ele>2184</ele>
        <time>2021-02-27T10:55:32Z</time>
      </trkpt>
      <trkpt lat="45.23451" lon="6.0786">
        <ele>2184</ele>
        <time>2021-02-27T10:55:34Z</time>
      </trkpt>
      <trkpt lat="45.23452" lon="6.07862">
        <ele>2184</ele>
        <time>2021-02-27T10:55:35Z</time>
      </trkpt>
      <trkpt lat="45.23453" lon="6.07863">
        <ele>2184</ele>
        <time>2021-02-27T10:55:36Z</time>
      </trkpt>
      <trkpt lat="45.23454" lon="6.07865">
        <ele>2184</ele>
        <time>2021-02-27T10:55:38Z</time>
      </trkpt>
      <trkpt lat="45.23455" lon="6.07867">
        <ele>2183</ele>
        <time>2021-02-27T10:55:39Z</time>
      </trkpt>
      <trkpt lat="45.23456" lon="6.0787">
        <ele>2183</ele>
        <time>2021-02-27T10:55:41Z</time>
      </trkpt>
      <trkpt lat="45.23457" lon="6.07871">
        <ele>2183</ele>
        <time>2021-02-27T10:55:44Z</time>
      </trkpt>
      <trkpt lat="45.23458" lon="6.07872">
        <ele>2183</ele>
        <time>2021-02-27T10:55:48Z</time>
      </trkpt>
      <trkpt lat="45.23458" lon="6.07873">
        <ele>2182.8</ele>
        <time>2021-02-27T10:55:49Z</time>
      </trkpt>
      <trkpt lat="45.2346" lon="6.07874">
        <ele>2182.8</ele>
        <time>2021-02-27T10:55:51Z</time>
      </trkpt>
      <trkpt lat="45.23462" lon="6.07876">
        <ele>2182.8</ele>
        <time>2021-02-27T10:55:55Z</time>
      </trkpt>
      <trkpt lat="45.23464" lon="6.07879">
        <ele>2182.8</ele>
        <time>2021-02-27T10:55:57Z</time>
      </trkpt>
      <trkpt lat="45.23467" lon="6.07881">
        <ele>2183</ele>
        <time>2021-02-27T10:55:59Z</time>
      </trkpt>
      <trkpt lat="45.2347" lon="6.07884">
        <ele>2183</ele>
        <time>2021-02-27T10:56:00Z</time>
      </trkpt>
      <trkpt lat="45.23471" lon="6.07886">
        <ele>2183</ele>
        <time>2021-02-27T10:56:01Z</time>
      </trkpt>
      <trkpt lat="45.23473" lon="6.07888">
        <ele>2183</ele>
        <time>2021-02-27T10:56:02Z</time>
      </trkpt>
      <trkpt lat="45.23474" lon="6.0789">
        <ele>2183</ele>
        <time>2021-02-27T10:56:03Z</time>
      </trkpt>
      <trkpt lat="45.23476" lon="6.07892">
        <ele>2183</ele>
        <time>2021-02-27T10:56:04Z</time>
      </trkpt>
      <trkpt lat="45.23477" lon="6.07894">
        <ele>2183</ele>
        <time>2021-02-27T10:56:05Z</time>
      </trkpt>
      <trkpt lat="45.23479" lon="6.07896">
        <ele>2183</ele>
        <time>2021-02-27T10:56:06Z</time>
      </trkpt>
      <trkpt lat="45.2348" lon="6.07898">
        <ele>2183</ele>
        <time>2021-02-27T10:56:07Z</time>
      </trkpt>
      <trkpt lat="45.23482" lon="6.079">
        <ele>2183</ele>
        <time>2021-02-27T10:56:08Z</time>
      </trkpt>
      <trkpt lat="45.23483" lon="6.07902">
        <ele>2183</ele>
        <time>2021-02-27T10:56:09Z</time>
      </trkpt>
      <trkpt lat="45.23487" lon="6.07907">
        <ele>2183</ele>
        <time>2021-02-27T10:56:10Z</time>
      </trkpt>
      <trkpt lat="45.23489" lon="6.07909">
        <ele>2183</ele>
        <time>2021-02-27T10:56:11Z</time>
      </trkpt>
      <trkpt lat="45.2349" lon="6.07911">
        <ele>2183</ele>
        <time>2021-02-27T10:56:12Z</time>
      </trkpt>
      <trkpt lat="45.23492" lon="6.07913">
        <ele>2183</ele>
        <time>2021-02-27T10:56:13Z</time>
      </trkpt>
      <trkpt lat="45.23494" lon="6.07915">
        <ele>2183</ele>
        <time>2021-02-27T10:56:14Z</time>
      </trkpt>
      <trkpt lat="45.23496" lon="6.07917">
        <ele>2183</ele>
        <time>2021-02-27T10:56:15Z</time>
      </trkpt>
      <trkpt lat="45.23497" lon="6.0792">
        <ele>2183</ele>
        <time>2021-02-27T10:56:16Z</time>
      </trkpt>
      <trkpt lat="45.23499" lon="6.07922">
        <ele>2183</ele>
        <time>2021-02-27T10:56:17Z</time>
      </trkpt>
      <trkpt lat="45.23501" lon="6.07924">
        <ele>2182.8</ele>
        <time>2021-02-27T10:56:19Z</time>
      </trkpt>
      <trkpt lat="45.23504" lon="6.07928">
        <ele>2182.8</ele>
        <time>2021-02-27T10:56:20Z</time>
      </trkpt>
      <trkpt lat="45.23505" lon="6.07931">
        <ele>2182.8</ele>
        <time>2021-02-27T10:56:21Z</time>
      </trkpt>
      <trkpt lat="45.23507" lon="6.07934">
        <ele>2182.8</ele>
        <time>2021-02-27T10:56:22Z</time>
      </trkpt>
      <trkpt lat="45.23508" lon="6.07936">
        <ele>2182.8</ele>
        <time>2021-02-27T10:56:23Z</time>
      </trkpt>
      <trkpt lat="45.23509" lon="6.07939">
        <ele>2182.8</ele>
        <time>2021-02-27T10:56:25Z</time>
      </trkpt>
      <trkpt lat="45.23511" lon="6.07942">
        <ele>2182.8</ele>
        <time>2021-02-27T10:56:27Z</time>
      </trkpt>
      <trkpt lat="45.23512" lon="6.07944">
        <ele>2181.8</ele>
        <time>2021-02-27T10:56:29Z</time>
      </trkpt>
      <trkpt lat="45.23516" lon="6.07949">
        <ele>2181.8</ele>
        <time>2021-02-27T10:56:30Z</time>
      </trkpt>
      <trkpt lat="45.23517" lon="6.07951">
        <ele>2181.8</ele>
        <time>2021-02-27T10:56:32Z</time>
      </trkpt>
      <trkpt lat="45.23519" lon="6.07954">
        <ele>2181.8</ele>
        <time>2021-02-27T10:56:33Z</time>
      </trkpt>
      <trkpt lat="45.2352" lon="6.07956">
        <ele>2181.8</ele>
        <time>2021-02-27T10:56:35Z</time>
      </trkpt>
      <trkpt lat="45.23522" lon="6.07959">
        <ele>2181.8</ele>
        <time>2021-02-27T10:56:36Z</time>
      </trkpt>
      <trkpt lat="45.23524" lon="6.07961">
        <ele>2181.8</ele>
        <time>2021-02-27T10:56:38Z</time>
      </trkpt>
      <trkpt lat="45.23525" lon="6.07964">
        <ele>2182.2</ele>
        <time>2021-02-27T10:56:39Z</time>
      </trkpt>
      <trkpt lat="45.23527" lon="6.07967">
        <ele>2182.2</ele>
        <time>2021-02-27T10:56:40Z</time>
      </trkpt>
      <trkpt lat="45.23529" lon="6.07969">
        <ele>2182.2</ele>
        <time>2021-02-27T10:56:42Z</time>
      </trkpt>
      <trkpt lat="45.2353" lon="6.0797">
        <ele>2182.2</ele>
        <time>2021-02-27T10:56:44Z</time>
      </trkpt>
      <trkpt lat="45.23531" lon="6.07972">
        <ele>2182.2</ele>
        <time>2021-02-27T10:56:46Z</time>
      </trkpt>
      <trkpt lat="45.23532" lon="6.07974">
        <ele>2182.2</ele>
        <time>2021-02-27T10:56:48Z</time>
      </trkpt>
      <trkpt lat="45.23533" lon="6.07976">
        <ele>2183.4</ele>
        <time>2021-02-27T10:56:49Z</time>
      </trkpt>
      <trkpt lat="45.23537" lon="6.0798">
        <ele>2183.4</ele>
        <time>2021-02-27T10:56:50Z</time>
      </trkpt>
      <trkpt lat="45.23539" lon="6.07983">
        <ele>2183.4</ele>
        <time>2021-02-27T10:56:51Z</time>
      </trkpt>
      <trkpt lat="45.23541" lon="6.07986">
        <ele>2183.4</ele>
        <time>2021-02-27T10:56:52Z</time>
      </trkpt>
      <trkpt lat="45.23543" lon="6.07989">
        <ele>2183.4</ele>
        <time>2021-02-27T10:56:53Z</time>
      </trkpt>
      <trkpt lat="45.23545" lon="6.07992">
        <ele>2183.4</ele>
        <time>2021-02-27T10:56:54Z</time>
      </trkpt>
      <trkpt lat="45.23547" lon="6.07995">
        <ele>2183.4</ele>
        <time>2021-02-27T10:56:55Z</time>
      </trkpt>
      <trkpt lat="45.2355" lon="6.07998">
        <ele>2183.4</ele>
        <time>2021-02-27T10:56:56Z</time>
      </trkpt>
      <trkpt lat="45.23552" lon="6.08001">
        <ele>2183.4</ele>
        <time>2021-02-27T10:56:57Z</time>
      </trkpt>
      <trkpt lat="45.23554" lon="6.08004">
        <ele>2183.4</ele>
        <time>2021-02-27T10:56:58Z</time>
      </trkpt>
      <trkpt lat="45.23556" lon="6.08007">
        <ele>2182</ele>
        <time>2021-02-27T10:56:59Z</time>
      </trkpt>
      <trkpt lat="45.23559" lon="6.08012">
        <ele>2182</ele>
        <time>2021-02-27T10:57:00Z</time>
      </trkpt>
      <trkpt lat="45.23561" lon="6.08014">
        <ele>2182</ele>
        <time>2021-02-27T10:57:01Z</time>
      </trkpt>
      <trkpt lat="45.23563" lon="6.08016">
        <ele>2182</ele>
        <time>2021-02-27T10:57:02Z</time>
      </trkpt>
      <trkpt lat="45.23564" lon="6.08018">
        <ele>2182</ele>
        <time>2021-02-27T10:57:03Z</time>
      </trkpt>
      <trkpt lat="45.23566" lon="6.0802">
        <ele>2182</ele>
        <time>2021-02-27T10:57:04Z</time>
      </trkpt>
      <trkpt lat="45.23567" lon="6.08023">
        <ele>2182</ele>
        <time>2021-02-27T10:57:05Z</time>
      </trkpt>
      <trkpt lat="45.23569" lon="6.08025">
        <ele>2182</ele>
        <time>2021-02-27T10:57:06Z</time>
      </trkpt>
      <trkpt lat="45.2357" lon="6.08027">
        <ele>2182</ele>
        <time>2021-02-27T10:57:08Z</time>
      </trkpt>
      <trkpt lat="45.23572" lon="6.08029">
        <ele>2181.4</ele>
        <time>2021-02-27T10:57:09Z</time>
      </trkpt>
      <trkpt lat="45.23576" lon="6.08035">
        <ele>2181.4</ele>
        <time>2021-02-27T10:57:11Z</time>
      </trkpt>
      <trkpt lat="45.23578" lon="6.08037">
        <ele>2181.4</ele>
        <time>2021-02-27T10:57:12Z</time>
      </trkpt>
      <trkpt lat="45.2358" lon="6.0804">
        <ele>2181.4</ele>
        <time>2021-02-27T10:57:14Z</time>
      </trkpt>
      <trkpt lat="45.23581" lon="6.08042">
        <ele>2181.4</ele>
        <time>2021-02-27T10:57:16Z</time>
      </trkpt>
      <trkpt lat="45.23583" lon="6.08045">
        <ele>2181.4</ele>
        <time>2021-02-27T10:57:18Z</time>
      </trkpt>
      <trkpt lat="45.23585" lon="6.08047">
        <ele>2182</ele>
        <time>2021-02-27T10:57:19Z</time>
      </trkpt>
      <trkpt lat="45.23588" lon="6.08051">
        <ele>2182</ele>
        <time>2021-02-27T10:57:20Z</time>
      </trkpt>
      <trkpt lat="45.2359" lon="6.08053">
        <ele>2182</ele>
        <time>2021-02-27T10:57:21Z</time>
      </trkpt>
      <trkpt lat="45.23592" lon="6.08055">
        <ele>2182</ele>
        <time>2021-02-27T10:57:22Z</time>
      </trkpt>
      <trkpt lat="45.23593" lon="6.08057">
        <ele>2182</ele>
        <time>2021-02-27T10:57:23Z</time>
      </trkpt>
      <trkpt lat="45.23595" lon="6.08059">
        <ele>2182</ele>
        <time>2021-02-27T10:57:24Z</time>
      </trkpt>
      <trkpt lat="45.23597" lon="6.08061">
        <ele>2182</ele>
        <time>2021-02-27T10:57:25Z</time>
      </trkpt>
      <trkpt lat="45.23599" lon="6.08063">
        <ele>2182</ele>
        <time>2021-02-27T10:57:27Z</time>
      </trkpt>
      <trkpt lat="45.236" lon="6.08065">
        <ele>2182</ele>
        <time>2021-02-27T10:57:28Z</time>
      </trkpt>
      <trkpt lat="45.23602" lon="6.08067">
        <ele>2181.8</ele>
        <time>2021-02-27T10:57:29Z</time>
      </trkpt>
      <trkpt lat="45.23604" lon="6.08072">
        <ele>2181.8</ele>
        <time>2021-02-27T10:57:30Z</time>
      </trkpt>
      <trkpt lat="45.23605" lon="6.08074">
        <ele>2181.8</ele>
        <time>2021-02-27T10:57:31Z</time>
      </trkpt>
      <trkpt lat="45.23605" lon="6.08077">
        <ele>2181.8</ele>
        <time>2021-02-27T10:57:32Z</time>
      </trkpt>
      <trkpt lat="45.23606" lon="6.0808">
        <ele>2181.8</ele>
        <time>2021-02-27T10:57:33Z</time>
      </trkpt>
      <trkpt lat="45.23606" lon="6.08082">
        <ele>2181.8</ele>
        <time>2021-02-27T10:57:34Z</time>
      </trkpt>
      <trkpt lat="45.23607" lon="6.08085">
        <ele>2181.8</ele>
        <time>2021-02-27T10:57:35Z</time>
      </trkpt>
      <trkpt lat="45.23607" lon="6.08088">
        <ele>2181.8</ele>
        <time>2021-02-27T10:57:36Z</time>
      </trkpt>
      <trkpt lat="45.23608" lon="6.0809">
        <ele>2181.8</ele>
        <time>2021-02-27T10:57:37Z</time>
      </trkpt>
      <trkpt lat="45.23608" lon="6.08093">
        <ele>2181.8</ele>
        <time>2021-02-27T10:57:38Z</time>
      </trkpt>
      <trkpt lat="45.23609" lon="6.08095">
        <ele>2182</ele>
        <time>2021-02-27T10:57:39Z</time>
      </trkpt>
      <trkpt lat="45.23609" lon="6.08098">
        <ele>2182</ele>
        <time>2021-02-27T10:57:40Z</time>
      </trkpt>
      <trkpt lat="45.23609" lon="6.08102">
        <ele>2182</ele>
        <time>2021-02-27T10:57:42Z</time>
      </trkpt>
      <trkpt lat="45.23609" lon="6.08106">
        <ele>2182</ele>
        <time>2021-02-27T10:57:44Z</time>
      </trkpt>
      <trkpt lat="45.23609" lon="6.08106">
        <ele>2182.2</ele>
        <time>2021-02-27T10:57:49Z</time>
      </trkpt>
      <trkpt lat="45.2361" lon="6.08108">
        <ele>2182.2</ele>
        <time>2021-02-27T10:57:52Z</time>
      </trkpt>
      <trkpt lat="45.2361" lon="6.08108">
        <ele>2181.2</ele>
        <time>2021-02-27T10:57:59Z</time>
      </trkpt>
      <trkpt lat="45.2361" lon="6.08108">
        <ele>2182.2</ele>
        <time>2021-02-27T10:58:09Z</time>
      </trkpt>
      <trkpt lat="45.2361" lon="6.08108">
        <ele>2181.6</ele>
        <time>2021-02-27T10:58:19Z</time>
      </trkpt>
      <trkpt lat="45.2361" lon="6.08108">
        <ele>2180.2</ele>
        <time>2021-02-27T10:58:29Z</time>
      </trkpt>
      <trkpt lat="45.2361" lon="6.08108">
        <ele>2180.2</ele>
        <time>2021-02-27T10:58:39Z</time>
      </trkpt>
      <trkpt lat="45.2361" lon="6.08108">
        <ele>2181.2</ele>
        <time>2021-02-27T10:58:49Z</time>
      </trkpt>
      <trkpt lat="45.2361" lon="6.08108">
        <ele>2180.4</ele>
        <time>2021-02-27T10:58:59Z</time>
      </trkpt>
      <trkpt lat="45.2361" lon="6.08108">
        <ele>2180.4</ele>
        <time>2021-02-27T10:59:09Z</time>
      </trkpt>
      <trkpt lat="45.2361" lon="6.08108">
        <ele>2180.8</ele>
        <time>2021-02-27T10:59:19Z</time>
      </trkpt>
      <trkpt lat="45.2361" lon="6.08108">
        <ele>2181.2</ele>
        <time>2021-02-27T10:59:29Z</time>
      </trkpt>
      <trkpt lat="45.2361" lon="6.08108">
        <ele>2180</ele>
        <time>2021-02-27T10:59:39Z</time>
      </trkpt>
      <trkpt lat="45.2361" lon="6.08108">
        <ele>2180.8</ele>
        <time>2021-02-27T10:59:49Z</time>
      </trkpt>
      <trkpt lat="45.2361" lon="6.08108">
        <ele>2180.6</ele>
        <time>2021-02-27T10:59:59Z</time>
      </trkpt>
      <trkpt lat="45.2361" lon="6.08108">
        <ele>2180.2</ele>
        <time>2021-02-27T11:00:09Z</time>
      </trkpt>
      <trkpt lat="45.2361" lon="6.08108">
        <ele>2178.6</ele>
        <time>2021-02-27T11:00:19Z</time>
      </trkpt>
      <trkpt lat="45.2361" lon="6.08108">
        <ele>2179.6</ele>
        <time>2021-02-27T11:00:29Z</time>
      </trkpt>
      <trkpt lat="45.2361" lon="6.08108">
        <ele>2179</ele>
        <time>2021-02-27T11:00:39Z</time>
      </trkpt>
      <trkpt lat="45.2361" lon="6.08108">
        <ele>2179.4</ele>
        <time>2021-02-27T11:00:49Z</time>
      </trkpt>
      <trkpt lat="45.2361" lon="6.08108">
        <ele>2180.4</ele>
        <time>2021-02-27T11:00:59Z</time>
      </trkpt>
      <trkpt lat="45.2361" lon="6.08108">
        <ele>2180.2</ele>
        <time>2021-02-27T11:01:09Z</time>
      </trkpt>
      <trkpt lat="45.2361" lon="6.08108">
        <ele>2181.4</ele>
        <time>2021-02-27T11:01:19Z</time>
      </trkpt>
      <trkpt lat="45.2361" lon="6.08108">
        <ele>2181.4</ele>
        <time>2021-02-27T11:01:29Z</time>
      </trkpt>
      <trkpt lat="45.2361" lon="6.08108">
        <ele>2181.2</ele>
        <time>2021-02-27T11:01:39Z</time>
      </trkpt>
      <trkpt lat="45.2361" lon="6.08108">
        <ele>2182.2</ele>
        <time>2021-02-27T11:01:49Z</time>
      </trkpt>
      <trkpt lat="45.2361" lon="6.08108">
        <ele>2179.8</ele>
        <time>2021-02-27T11:01:59Z</time>
      </trkpt>
      <trkpt lat="45.2361" lon="6.08108">
        <ele>2180.2</ele>
        <time>2021-02-27T11:02:09Z</time>
      </trkpt>
      <trkpt lat="45.2361" lon="6.08108">
        <ele>2180.8</ele>
        <time>2021-02-27T11:02:19Z</time>
      </trkpt>
      <trkpt lat="45.2361" lon="6.08108">
        <ele>2180.8</ele>
        <time>2021-02-27T11:02:29Z</time>
      </trkpt>
      <trkpt lat="45.2361" lon="6.08108">
        <ele>2180.8</ele>
        <time>2021-02-27T11:02:39Z</time>
      </trkpt>
      <trkpt lat="45.2361" lon="6.08108">
        <ele>2179.6</ele>
        <time>2021-02-27T11:02:49Z</time>
      </trkpt>
      <trkpt lat="45.2361" lon="6.08108">
        <ele>2179.4</ele>
        <time>2021-02-27T11:02:59Z</time>
      </trkpt>
      <trkpt lat="45.2361" lon="6.08108">
        <ele>2179</ele>
        <time>2021-02-27T11:03:09Z</time>
      </trkpt>
      <trkpt lat="45.2361" lon="6.08108">
        <ele>2179.4</ele>
        <time>2021-02-27T11:03:19Z</time>
      </trkpt>
      <trkpt lat="45.2361" lon="6.08108">
        <ele>2179.4</ele>
        <time>2021-02-27T11:03:29Z</time>
      </trkpt>
      <trkpt lat="45.2361" lon="6.08108">
        <ele>2179.6</ele>
        <time>2021-02-27T11:03:39Z</time>
      </trkpt>
      <trkpt lat="45.2361" lon="6.08108">
        <ele>2179.4</ele>
        <time>2021-02-27T11:03:49Z</time>
      </trkpt>
      <trkpt lat="45.2361" lon="6.08108">
        <ele>2179.4</ele>
        <time>2021-02-27T11:03:59Z</time>
      </trkpt>
      <trkpt lat="45.2361" lon="6.08108">
        <ele>2180</ele>
        <time>2021-02-27T11:04:09Z</time>
      </trkpt>
      <trkpt lat="45.2361" lon="6.08108">
        <ele>2180.4</ele>
        <time>2021-02-27T11:04:19Z</time>
      </trkpt>
      <trkpt lat="45.2361" lon="6.08108">
        <ele>2181.4</ele>
        <time>2021-02-27T11:04:29Z</time>
      </trkpt>
      <trkpt lat="45.2361" lon="6.08108">
        <ele>2181.8</ele>
        <time>2021-02-27T11:04:39Z</time>
      </trkpt>
      <trkpt lat="45.2361" lon="6.08108">
        <ele>2180.6</ele>
        <time>2021-02-27T11:04:49Z</time>
      </trkpt>
      <trkpt lat="45.2361" lon="6.08108">
        <ele>2180</ele>
        <time>2021-02-27T11:04:59Z</time>
      </trkpt>
      <trkpt lat="45.2361" lon="6.08108">
        <ele>2179.8</ele>
        <time>2021-02-27T11:05:09Z</time>
      </trkpt>
      <trkpt lat="45.2361" lon="6.08108">
        <ele>2179.8</ele>
        <time>2021-02-27T11:05:19Z</time>
      </trkpt>
      <trkpt lat="45.2361" lon="6.08108">
        <ele>2178.8</ele>
        <time>2021-02-27T11:05:29Z</time>
      </trkpt>
      <trkpt lat="45.23629" lon="6.08157">
        <ele>2178.8</ele>
        <time>2021-02-27T11:08:29Z</time>
      </trkpt>
      <trkpt lat="45.2363" lon="6.08159">
        <ele>2178.8</ele>
        <time>2021-02-27T11:08:31Z</time>
      </trkpt>
      <trkpt lat="45.23632" lon="6.08163">
        <ele>2178.8</ele>
        <time>2021-02-27T11:08:33Z</time>
      </trkpt>
      <trkpt lat="45.23633" lon="6.08166">
        <ele>2178.8</ele>
        <time>2021-02-27T11:08:35Z</time>
      </trkpt>
      <trkpt lat="45.23634" lon="6.08171">
        <ele>2184.4</ele>
        <time>2021-02-27T11:08:37Z</time>
      </trkpt>
      <trkpt lat="45.23635" lon="6.08176">
        <ele>2184.4</ele>
        <time>2021-02-27T11:08:38Z</time>
      </trkpt>
      <trkpt lat="45.23635" lon="6.08179">
        <ele>2184.4</ele>
        <time>2021-02-27T11:08:39Z</time>
      </trkpt>
      <trkpt lat="45.23636" lon="6.08182">
        <ele>2184.4</ele>
        <time>2021-02-27T11:08:40Z</time>
      </trkpt>
      <trkpt lat="45.23636" lon="6.08185">
        <ele>2184.4</ele>
        <time>2021-02-27T11:08:42Z</time>
      </trkpt>
      <trkpt lat="45.23636" lon="6.08188">
        <ele>2184.4</ele>
        <time>2021-02-27T11:08:44Z</time>
      </trkpt>
      <trkpt lat="45.23637" lon="6.08191">
        <ele>2184.4</ele>
        <time>2021-02-27T11:08:46Z</time>
      </trkpt>
      <trkpt lat="45.23637" lon="6.08193">
        <ele>2185</ele>
        <time>2021-02-27T11:08:47Z</time>
      </trkpt>
      <trkpt lat="45.23638" lon="6.08199">
        <ele>2185</ele>
        <time>2021-02-27T11:08:48Z</time>
      </trkpt>
      <trkpt lat="45.23638" lon="6.08202">
        <ele>2185</ele>
        <time>2021-02-27T11:08:50Z</time>
      </trkpt>
      <trkpt lat="45.23638" lon="6.08205">
        <ele>2185</ele>
        <time>2021-02-27T11:08:52Z</time>
      </trkpt>
      <trkpt lat="45.23638" lon="6.08209">
        <ele>2185</ele>
        <time>2021-02-27T11:08:54Z</time>
      </trkpt>
      <trkpt lat="45.23638" lon="6.08212">
        <ele>2185</ele>
        <time>2021-02-27T11:08:56Z</time>
      </trkpt>
      <trkpt lat="45.23638" lon="6.08215">
        <ele>2187.2</ele>
        <time>2021-02-27T11:08:57Z</time>
      </trkpt>
      <trkpt lat="45.23638" lon="6.08218">
        <ele>2187.2</ele>
        <time>2021-02-27T11:08:58Z</time>
      </trkpt>
      <trkpt lat="45.23638" lon="6.08222">
        <ele>2187.2</ele>
        <time>2021-02-27T11:09:00Z</time>
      </trkpt>
      <trkpt lat="45.23638" lon="6.08226">
        <ele>2187.2</ele>
        <time>2021-02-27T11:09:02Z</time>
      </trkpt>
      <trkpt lat="45.23638" lon="6.08229">
        <ele>2187.2</ele>
        <time>2021-02-27T11:09:04Z</time>
      </trkpt>
      <trkpt lat="45.23638" lon="6.08233">
        <ele>2188.8</ele>
        <time>2021-02-27T11:09:07Z</time>
      </trkpt>
      <trkpt lat="45.2364" lon="6.08235">
        <ele>2188.8</ele>
        <time>2021-02-27T11:09:09Z</time>
      </trkpt>
      <trkpt lat="45.23642" lon="6.08237">
        <ele>2188.8</ele>
        <time>2021-02-27T11:09:11Z</time>
      </trkpt>
      <trkpt lat="45.23644" lon="6.0824">
        <ele>2188.8</ele>
        <time>2021-02-27T11:09:13Z</time>
      </trkpt>
      <trkpt lat="45.23646" lon="6.08242">
        <ele>2188.8</ele>
        <time>2021-02-27T11:09:15Z</time>
      </trkpt>
      <trkpt lat="45.23648" lon="6.08244">
        <ele>2190.6</ele>
        <time>2021-02-27T11:09:17Z</time>
      </trkpt>
      <trkpt lat="45.2365" lon="6.08247">
        <ele>2190.6</ele>
        <time>2021-02-27T11:09:19Z</time>
      </trkpt>
      <trkpt lat="45.23652" lon="6.08249">
        <ele>2190.6</ele>
        <time>2021-02-27T11:09:21Z</time>
      </trkpt>
      <trkpt lat="45.23654" lon="6.08252">
        <ele>2190.6</ele>
        <time>2021-02-27T11:09:23Z</time>
      </trkpt>
      <trkpt lat="45.23656" lon="6.08254">
        <ele>2190.6</ele>
        <time>2021-02-27T11:09:25Z</time>
      </trkpt>
      <trkpt lat="45.23659" lon="6.08258">
        <ele>2189.6</ele>
        <time>2021-02-27T11:09:27Z</time>
      </trkpt>
      <trkpt lat="45.23663" lon="6.08261">
        <ele>2189.6</ele>
        <time>2021-02-27T11:09:28Z</time>
      </trkpt>
      <trkpt lat="45.23665" lon="6.08263">
        <ele>2189.6</ele>
        <time>2021-02-27T11:09:30Z</time>
      </trkpt>
      <trkpt lat="45.23667" lon="6.08265">
        <ele>2189.6</ele>
        <time>2021-02-27T11:09:31Z</time>
      </trkpt>
      <trkpt lat="45.23669" lon="6.08267">
        <ele>2189.6</ele>
        <time>2021-02-27T11:09:32Z</time>
      </trkpt>
      <trkpt lat="45.23671" lon="6.08269">
        <ele>2189.6</ele>
        <time>2021-02-27T11:09:33Z</time>
      </trkpt>
      <trkpt lat="45.23673" lon="6.08271">
        <ele>2189.6</ele>
        <time>2021-02-27T11:09:34Z</time>
      </trkpt>
      <trkpt lat="45.23675" lon="6.08273">
        <ele>2189.6</ele>
        <time>2021-02-27T11:09:35Z</time>
      </trkpt>
      <trkpt lat="45.23677" lon="6.08275">
        <ele>2189.6</ele>
        <time>2021-02-27T11:09:36Z</time>
      </trkpt>
      <trkpt lat="45.23679" lon="6.08277">
        <ele>2187.6</ele>
        <time>2021-02-27T11:09:37Z</time>
      </trkpt>
      <trkpt lat="45.23684" lon="6.08282">
        <ele>2187.6</ele>
        <time>2021-02-27T11:09:38Z</time>
      </trkpt>
      <trkpt lat="45.23686" lon="6.08283">
        <ele>2187.6</ele>
        <time>2021-02-27T11:09:39Z</time>
      </trkpt>
      <trkpt lat="45.23688" lon="6.08285">
        <ele>2187.6</ele>
        <time>2021-02-27T11:09:40Z</time>
      </trkpt>
      <trkpt lat="45.23689" lon="6.08286">
        <ele>2187.6</ele>
        <time>2021-02-27T11:09:41Z</time>
      </trkpt>
      <trkpt lat="45.23691" lon="6.08288">
        <ele>2187.6</ele>
        <time>2021-02-27T11:09:42Z</time>
      </trkpt>
      <trkpt lat="45.23693" lon="6.08289">
        <ele>2187.6</ele>
        <time>2021-02-27T11:09:43Z</time>
      </trkpt>
      <trkpt lat="45.23695" lon="6.08291">
        <ele>2187.6</ele>
        <time>2021-02-27T11:09:44Z</time>
      </trkpt>
      <trkpt lat="45.23697" lon="6.08292">
        <ele>2187.6</ele>
        <time>2021-02-27T11:09:45Z</time>
      </trkpt>
      <trkpt lat="45.23699" lon="6.08294">
        <ele>2187.6</ele>
        <time>2021-02-27T11:09:46Z</time>
      </trkpt>
      <trkpt lat="45.23701" lon="6.08295">
        <ele>2183</ele>
        <time>2021-02-27T11:09:47Z</time>
      </trkpt>
      <trkpt lat="45.23704" lon="6.08297">
        <ele>2183</ele>
        <time>2021-02-27T11:09:48Z</time>
      </trkpt>
      <trkpt lat="45.23706" lon="6.08298">
        <ele>2183</ele>
        <time>2021-02-27T11:09:50Z</time>
      </trkpt>
      <trkpt lat="45.23708" lon="6.083">
        <ele>2183</ele>
        <time>2021-02-27T11:09:52Z</time>
      </trkpt>
      <trkpt lat="45.2371" lon="6.08301">
        <ele>2183</ele>
        <time>2021-02-27T11:09:54Z</time>
      </trkpt>
      <trkpt lat="45.23712" lon="6.08302">
        <ele>2183</ele>
        <time>2021-02-27T11:09:56Z</time>
      </trkpt>
      <trkpt lat="45.23714" lon="6.08304">
        <ele>2182.8</ele>
        <time>2021-02-27T11:09:57Z</time>
      </trkpt>
      <trkpt lat="45.23717" lon="6.08306">
        <ele>2182.8</ele>
        <time>2021-02-27T11:09:58Z</time>
      </trkpt>
      <trkpt lat="45.23719" lon="6.08307">
        <ele>2182.8</ele>
        <time>2021-02-27T11:09:59Z</time>
      </trkpt>
      <trkpt lat="45.2372" lon="6.08309">
        <ele>2182.8</ele>
        <time>2021-02-27T11:10:00Z</time>
      </trkpt>
      <trkpt lat="45.23722" lon="6.0831">
        <ele>2182.8</ele>
        <time>2021-02-27T11:10:02Z</time>
      </trkpt>
      <trkpt lat="45.23724" lon="6.08311">
        <ele>2182.8</ele>
        <time>2021-02-27T11:10:04Z</time>
      </trkpt>
      <trkpt lat="45.23725" lon="6.08313">
        <ele>2182.8</ele>
        <time>2021-02-27T11:10:06Z</time>
      </trkpt>
      <trkpt lat="45.23727" lon="6.08314">
        <ele>2184</ele>
        <time>2021-02-27T11:10:07Z</time>
      </trkpt>
      <trkpt lat="45.2373" lon="6.08317">
        <ele>2184</ele>
        <time>2021-02-27T11:10:08Z</time>
      </trkpt>
      <trkpt lat="45.23731" lon="6.08318">
        <ele>2184</ele>
        <time>2021-02-27T11:10:09Z</time>
      </trkpt>
      <trkpt lat="45.23733" lon="6.0832">
        <ele>2184</ele>
        <time>2021-02-27T11:10:10Z</time>
      </trkpt>
      <trkpt lat="45.23734" lon="6.08322">
        <ele>2184</ele>
        <time>2021-02-27T11:10:11Z</time>
      </trkpt>
      <trkpt lat="45.23736" lon="6.08323">
        <ele>2184</ele>
        <time>2021-02-27T11:10:13Z</time>
      </trkpt>
      <trkpt lat="45.23737" lon="6.08325">
        <ele>2184</ele>
        <time>2021-02-27T11:10:14Z</time>
      </trkpt>
      <trkpt lat="45.23739" lon="6.08326">
        <ele>2184</ele>
        <time>2021-02-27T11:10:15Z</time>
      </trkpt>
      <trkpt lat="45.23741" lon="6.08328">
        <ele>2184</ele>
        <time>2021-02-27T11:10:16Z</time>
      </trkpt>
      <trkpt lat="45.23742" lon="6.08329">
        <ele>2183.4</ele>
        <time>2021-02-27T11:10:17Z</time>
      </trkpt>
      <trkpt lat="45.23745" lon="6.08333">
        <ele>2183.4</ele>
        <time>2021-02-27T11:10:18Z</time>
      </trkpt>
      <trkpt lat="45.23747" lon="6.08334">
        <ele>2183.4</ele>
        <time>2021-02-27T11:10:19Z</time>
      </trkpt>
      <trkpt lat="45.23749" lon="6.08336">
        <ele>2183.4</ele>
        <time>2021-02-27T11:10:21Z</time>
      </trkpt>
      <trkpt lat="45.23751" lon="6.08338">
        <ele>2183.4</ele>
        <time>2021-02-27T11:10:23Z</time>
      </trkpt>
      <trkpt lat="45.23753" lon="6.0834">
        <ele>2183.4</ele>
        <time>2021-02-27T11:10:24Z</time>
      </trkpt>
      <trkpt lat="45.23755" lon="6.08342">
        <ele>2183.4</ele>
        <time>2021-02-27T11:10:25Z</time>
      </trkpt>
      <trkpt lat="45.23757" lon="6.08344">
        <ele>2182.2</ele>
        <time>2021-02-27T11:10:27Z</time>
      </trkpt>
      <trkpt lat="45.23761" lon="6.08348">
        <ele>2182.2</ele>
        <time>2021-02-27T11:10:29Z</time>
      </trkpt>
      <trkpt lat="45.23763" lon="6.0835">
        <ele>2182.2</ele>
        <time>2021-02-27T11:10:31Z</time>
      </trkpt>
      <trkpt lat="45.23766" lon="6.08352">
        <ele>2182.2</ele>
        <time>2021-02-27T11:10:33Z</time>
      </trkpt>
      <trkpt lat="45.23768" lon="6.08354">
        <ele>2182.2</ele>
        <time>2021-02-27T11:10:35Z</time>
      </trkpt>
      <trkpt lat="45.2377" lon="6.08356">
        <ele>2182.4</ele>
        <time>2021-02-27T11:10:37Z</time>
      </trkpt>
      <trkpt lat="45.23774" lon="6.08361">
        <ele>2182.4</ele>
        <time>2021-02-27T11:10:39Z</time>
      </trkpt>
      <trkpt lat="45.23776" lon="6.08363">
        <ele>2182.4</ele>
        <time>2021-02-27T11:10:41Z</time>
      </trkpt>
      <trkpt lat="45.23778" lon="6.08365">
        <ele>2182.4</ele>
        <time>2021-02-27T11:10:43Z</time>
      </trkpt>
      <trkpt lat="45.23779" lon="6.08367">
        <ele>2182.4</ele>
        <time>2021-02-27T11:10:44Z</time>
      </trkpt>
      <trkpt lat="45.23781" lon="6.08369">
        <ele>2182.4</ele>
        <time>2021-02-27T11:10:45Z</time>
      </trkpt>
      <trkpt lat="45.23783" lon="6.08371">
        <ele>2182.4</ele>
        <time>2021-02-27T11:10:46Z</time>
      </trkpt>
      <trkpt lat="45.23784" lon="6.08373">
        <ele>2181.8</ele>
        <time>2021-02-27T11:10:47Z</time>
      </trkpt>
      <trkpt lat="45.23789" lon="6.08378">
        <ele>2181.8</ele>
        <time>2021-02-27T11:10:49Z</time>
      </trkpt>
      <trkpt lat="45.2379" lon="6.08379">
        <ele>2181.8</ele>
        <time>2021-02-27T11:10:50Z</time>
      </trkpt>
      <trkpt lat="45.23792" lon="6.08381">
        <ele>2181.8</ele>
        <time>2021-02-27T11:10:52Z</time>
      </trkpt>
      <trkpt lat="45.23794" lon="6.08382">
        <ele>2181.8</ele>
        <time>2021-02-27T11:10:54Z</time>
      </trkpt>
      <trkpt lat="45.23796" lon="6.08383">
        <ele>2181.8</ele>
        <time>2021-02-27T11:10:56Z</time>
      </trkpt>
      <trkpt lat="45.23797" lon="6.08385">
        <ele>2180.8</ele>
        <time>2021-02-27T11:10:57Z</time>
      </trkpt>
      <trkpt lat="45.23799" lon="6.08387">
        <ele>2180.8</ele>
        <time>2021-02-27T11:10:58Z</time>
      </trkpt>
      <trkpt lat="45.23801" lon="6.08389">
        <ele>2180.8</ele>
        <time>2021-02-27T11:11:00Z</time>
      </trkpt>
      <trkpt lat="45.23802" lon="6.0839">
        <ele>2180.8</ele>
        <time>2021-02-27T11:11:02Z</time>
      </trkpt>
      <trkpt lat="45.23803" lon="6.08392">
        <ele>2180.8</ele>
        <time>2021-02-27T11:11:04Z</time>
      </trkpt>
      <trkpt lat="45.23805" lon="6.08393">
        <ele>2180.8</ele>
        <time>2021-02-27T11:11:06Z</time>
      </trkpt>
      <trkpt lat="45.23806" lon="6.08395">
        <ele>2182</ele>
        <time>2021-02-27T11:11:07Z</time>
      </trkpt>
      <trkpt lat="45.23808" lon="6.08398">
        <ele>2182</ele>
        <time>2021-02-27T11:11:08Z</time>
      </trkpt>
      <trkpt lat="45.2381" lon="6.08399">
        <ele>2182</ele>
        <time>2021-02-27T11:11:10Z</time>
      </trkpt>
      <trkpt lat="45.23811" lon="6.08401">
        <ele>2182</ele>
        <time>2021-02-27T11:11:12Z</time>
      </trkpt>
      <trkpt lat="45.23813" lon="6.08403">
        <ele>2182</ele>
        <time>2021-02-27T11:11:14Z</time>
      </trkpt>
      <trkpt lat="45.23814" lon="6.08405">
        <ele>2182</ele>
        <time>2021-02-27T11:11:16Z</time>
      </trkpt>
      <trkpt lat="45.23816" lon="6.08406">
        <ele>2183.4</ele>
        <time>2021-02-27T11:11:17Z</time>
      </trkpt>
      <trkpt lat="45.23817" lon="6.08409">
        <ele>2183.4</ele>
        <time>2021-02-27T11:11:18Z</time>
      </trkpt>
      <trkpt lat="45.23818" lon="6.08411">
        <ele>2183.4</ele>
        <time>2021-02-27T11:11:20Z</time>
      </trkpt>
      <trkpt lat="45.23819" lon="6.08413">
        <ele>2183.4</ele>
        <time>2021-02-27T11:11:22Z</time>
      </trkpt>
      <trkpt lat="45.2382" lon="6.08416">
        <ele>2183.4</ele>
        <time>2021-02-27T11:11:24Z</time>
      </trkpt>
      <trkpt lat="45.23821" lon="6.08418">
        <ele>2183.4</ele>
        <time>2021-02-27T11:11:26Z</time>
      </trkpt>
      <trkpt lat="45.23822" lon="6.0842">
        <ele>2185.4</ele>
        <time>2021-02-27T11:11:27Z</time>
      </trkpt>
      <trkpt lat="45.23822" lon="6.08421">
        <ele>2185.4</ele>
        <time>2021-02-27T11:11:28Z</time>
      </trkpt>
      <trkpt lat="45.23822" lon="6.08424">
        <ele>2185.4</ele>
        <time>2021-02-27T11:11:30Z</time>
      </trkpt>
      <trkpt lat="45.23824" lon="6.08427">
        <ele>2185.4</ele>
        <time>2021-02-27T11:11:32Z</time>
      </trkpt>
      <trkpt lat="45.23824" lon="6.0843">
        <ele>2185.4</ele>
        <time>2021-02-27T11:11:34Z</time>
      </trkpt>
      <trkpt lat="45.23826" lon="6.08431">
        <ele>2185.4</ele>
        <time>2021-02-27T11:11:35Z</time>
      </trkpt>
      <trkpt lat="45.23829" lon="6.08433">
        <ele>2186.8</ele>
        <time>2021-02-27T11:11:37Z</time>
      </trkpt>
      <trkpt lat="45.23833" lon="6.08437">
        <ele>2186.8</ele>
        <time>2021-02-27T11:11:39Z</time>
      </trkpt>
      <trkpt lat="45.23835" lon="6.08438">
        <ele>2186.8</ele>
        <time>2021-02-27T11:11:41Z</time>
      </trkpt>
      <trkpt lat="45.23837" lon="6.0844">
        <ele>2186.8</ele>
        <time>2021-02-27T11:11:42Z</time>
      </trkpt>
      <trkpt lat="45.23838" lon="6.08441">
        <ele>2186.8</ele>
        <time>2021-02-27T11:11:43Z</time>
      </trkpt>
      <trkpt lat="45.2384" lon="6.08442">
        <ele>2186.8</ele>
        <time>2021-02-27T11:11:44Z</time>
      </trkpt>
      <trkpt lat="45.23842" lon="6.08443">
        <ele>2186.8</ele>
        <time>2021-02-27T11:11:45Z</time>
      </trkpt>
      <trkpt lat="45.23844" lon="6.08445">
        <ele>2186.8</ele>
        <time>2021-02-27T11:11:46Z</time>
      </trkpt>
      <trkpt lat="45.23846" lon="6.08446">
        <ele>2186.2</ele>
        <time>2021-02-27T11:11:47Z</time>
      </trkpt>
      <trkpt lat="45.2385" lon="6.08449">
        <ele>2186.2</ele>
        <time>2021-02-27T11:11:48Z</time>
      </trkpt>
      <trkpt lat="45.23852" lon="6.0845">
        <ele>2186.2</ele>
        <time>2021-02-27T11:11:49Z</time>
      </trkpt>
      <trkpt lat="45.23854" lon="6.08451">
        <ele>2186.2</ele>
        <time>2021-02-27T11:11:50Z</time>
      </trkpt>
      <trkpt lat="45.23856" lon="6.08452">
        <ele>2186.2</ele>
        <time>2021-02-27T11:11:51Z</time>
      </trkpt>
      <trkpt lat="45.23858" lon="6.08453">
        <ele>2186.2</ele>
        <time>2021-02-27T11:11:52Z</time>
      </trkpt>
      <trkpt lat="45.2386" lon="6.08454">
        <ele>2186.2</ele>
        <time>2021-02-27T11:11:53Z</time>
      </trkpt>
      <trkpt lat="45.23862" lon="6.08455">
        <ele>2186.2</ele>
        <time>2021-02-27T11:11:54Z</time>
      </trkpt>
      <trkpt lat="45.23863" lon="6.08456">
        <ele>2186.2</ele>
        <time>2021-02-27T11:11:56Z</time>
      </trkpt>
      <trkpt lat="45.23865" lon="6.08458">
        <ele>2184</ele>
        <time>2021-02-27T11:11:57Z</time>
      </trkpt>
      <trkpt lat="45.23868" lon="6.08458">
        <ele>2184</ele>
        <time>2021-02-27T11:11:58Z</time>
      </trkpt>
      <trkpt lat="45.2387" lon="6.08459">
        <ele>2184</ele>
        <time>2021-02-27T11:12:00Z</time>
      </trkpt>
      <trkpt lat="45.23872" lon="6.08459">
        <ele>2184</ele>
        <time>2021-02-27T11:12:03Z</time>
      </trkpt>
      <trkpt lat="45.23874" lon="6.0846">
        <ele>2184</ele>
        <time>2021-02-27T11:12:06Z</time>
      </trkpt>
      <trkpt lat="45.23876" lon="6.0846">
        <ele>2185.6</ele>
        <time>2021-02-27T11:12:07Z</time>
      </trkpt>
      <trkpt lat="45.23877" lon="6.08461">
        <ele>2185.6</ele>
        <time>2021-02-27T11:12:08Z</time>
      </trkpt>
      <trkpt lat="45.23879" lon="6.08463">
        <ele>2185.6</ele>
        <time>2021-02-27T11:12:11Z</time>
      </trkpt>
      <trkpt lat="45.23882" lon="6.08465">
        <ele>2185.6</ele>
        <time>2021-02-27T11:12:13Z</time>
      </trkpt>
      <trkpt lat="45.23884" lon="6.08467">
        <ele>2185.6</ele>
        <time>2021-02-27T11:12:15Z</time>
      </trkpt>
      <trkpt lat="45.23886" lon="6.08469">
        <ele>2187</ele>
        <time>2021-02-27T11:12:17Z</time>
      </trkpt>
      <trkpt lat="45.2389" lon="6.08475">
        <ele>2187</ele>
        <time>2021-02-27T11:12:19Z</time>
      </trkpt>
      <trkpt lat="45.23892" lon="6.08477">
        <ele>2187</ele>
        <time>2021-02-27T11:12:20Z</time>
      </trkpt>
      <trkpt lat="45.23893" lon="6.0848">
        <ele>2187</ele>
        <time>2021-02-27T11:12:21Z</time>
      </trkpt>
      <trkpt lat="45.23895" lon="6.08483">
        <ele>2187</ele>
        <time>2021-02-27T11:12:22Z</time>
      </trkpt>
      <trkpt lat="45.23897" lon="6.08486">
        <ele>2187</ele>
        <time>2021-02-27T11:12:23Z</time>
      </trkpt>
      <trkpt lat="45.23899" lon="6.08489">
        <ele>2187</ele>
        <time>2021-02-27T11:12:24Z</time>
      </trkpt>
      <trkpt lat="45.239" lon="6.08491">
        <ele>2187</ele>
        <time>2021-02-27T11:12:25Z</time>
      </trkpt>
      <trkpt lat="45.23902" lon="6.08494">
        <ele>2187</ele>
        <time>2021-02-27T11:12:26Z</time>
      </trkpt>
      <trkpt lat="45.23904" lon="6.08497">
        <ele>2185.8</ele>
        <time>2021-02-27T11:12:27Z</time>
      </trkpt>
      <trkpt lat="45.23907" lon="6.08503">
        <ele>2185.8</ele>
        <time>2021-02-27T11:12:28Z</time>
      </trkpt>
      <trkpt lat="45.23908" lon="6.08505">
        <ele>2185.8</ele>
        <time>2021-02-27T11:12:30Z</time>
      </trkpt>
      <trkpt lat="45.23909" lon="6.08508">
        <ele>2185.8</ele>
        <time>2021-02-27T11:12:32Z</time>
      </trkpt>
      <trkpt lat="45.2391" lon="6.08511">
        <ele>2185.8</ele>
        <time>2021-02-27T11:12:34Z</time>
      </trkpt>
      <trkpt lat="45.23912" lon="6.08514">
        <ele>2185.8</ele>
        <time>2021-02-27T11:12:36Z</time>
      </trkpt>
      <trkpt lat="45.23913" lon="6.08517">
        <ele>2186</ele>
        <time>2021-02-27T11:12:37Z</time>
      </trkpt>
      <trkpt lat="45.23914" lon="6.08521">
        <ele>2186</ele>
        <time>2021-02-27T11:12:38Z</time>
      </trkpt>
      <trkpt lat="45.23914" lon="6.08523">
        <ele>2186</ele>
        <time>2021-02-27T11:12:40Z</time>
      </trkpt>
      <trkpt lat="45.23915" lon="6.08525">
        <ele>2186</ele>
        <time>2021-02-27T11:12:42Z</time>
      </trkpt>
      <trkpt lat="45.23915" lon="6.08528">
        <ele>2186</ele>
        <time>2021-02-27T11:12:44Z</time>
      </trkpt>
      <trkpt lat="45.23915" lon="6.0853">
        <ele>2186</ele>
        <time>2021-02-27T11:12:46Z</time>
      </trkpt>
      <trkpt lat="45.23915" lon="6.08533">
        <ele>2188.6</ele>
        <time>2021-02-27T11:12:47Z</time>
      </trkpt>
      <trkpt lat="45.23916" lon="6.08535">
        <ele>2188.6</ele>
        <time>2021-02-27T11:12:49Z</time>
      </trkpt>
      <trkpt lat="45.23917" lon="6.08539">
        <ele>2188.6</ele>
        <time>2021-02-27T11:12:51Z</time>
      </trkpt>
      <trkpt lat="45.23917" lon="6.08542">
        <ele>2188.6</ele>
        <time>2021-02-27T11:12:53Z</time>
      </trkpt>
      <trkpt lat="45.23918" lon="6.08545">
        <ele>2188.6</ele>
        <time>2021-02-27T11:12:55Z</time>
      </trkpt>
      <trkpt lat="45.23918" lon="6.08545">
        <ele>2189</ele>
        <time>2021-02-27T11:12:57Z</time>
      </trkpt>
      <trkpt lat="45.23918" lon="6.08549">
        <ele>2189</ele>
        <time>2021-02-27T11:12:58Z</time>
      </trkpt>
      <trkpt lat="45.23919" lon="6.08551">
        <ele>2189</ele>
        <time>2021-02-27T11:13:00Z</time>
      </trkpt>
      <trkpt lat="45.2392" lon="6.08554">
        <ele>2189</ele>
        <time>2021-02-27T11:13:03Z</time>
      </trkpt>
      <trkpt lat="45.2392" lon="6.08557">
        <ele>2189</ele>
        <time>2021-02-27T11:13:05Z</time>
      </trkpt>
      <trkpt lat="45.2392" lon="6.08559">
        <ele>2190</ele>
        <time>2021-02-27T11:13:07Z</time>
      </trkpt>
      <trkpt lat="45.2392" lon="6.08563">
        <ele>2190</ele>
        <time>2021-02-27T11:13:10Z</time>
      </trkpt>
      <trkpt lat="45.23921" lon="6.08567">
        <ele>2190</ele>
        <time>2021-02-27T11:13:13Z</time>
      </trkpt>
      <trkpt lat="45.23921" lon="6.0857">
        <ele>2190</ele>
        <time>2021-02-27T11:13:15Z</time>
      </trkpt>
      <trkpt lat="45.23921" lon="6.08572">
        <ele>2193.2</ele>
        <time>2021-02-27T11:13:17Z</time>
      </trkpt>
      <trkpt lat="45.23921" lon="6.08575">
        <ele>2193.2</ele>
        <time>2021-02-27T11:13:19Z</time>
      </trkpt>
      <trkpt lat="45.23922" lon="6.08578">
        <ele>2193.2</ele>
        <time>2021-02-27T11:13:22Z</time>
      </trkpt>
      <trkpt lat="45.23923" lon="6.08581">
        <ele>2193.2</ele>
        <time>2021-02-27T11:13:24Z</time>
      </trkpt>
      <trkpt lat="45.23925" lon="6.08585">
        <ele>2194.4</ele>
        <time>2021-02-27T11:13:27Z</time>
      </trkpt>
      <trkpt lat="45.23925" lon="6.08589">
        <ele>2194.4</ele>
        <time>2021-02-27T11:13:29Z</time>
      </trkpt>
      <trkpt lat="45.23925" lon="6.08592">
        <ele>2194.4</ele>
        <time>2021-02-27T11:13:32Z</time>
      </trkpt>
      <trkpt lat="45.23925" lon="6.08594">
        <ele>2194.4</ele>
        <time>2021-02-27T11:13:34Z</time>
      </trkpt>
      <trkpt lat="45.23925" lon="6.08596">
        <ele>2194.4</ele>
        <time>2021-02-27T11:13:36Z</time>
      </trkpt>
      <trkpt lat="45.23925" lon="6.08598">
        <ele>2196</ele>
        <time>2021-02-27T11:13:37Z</time>
      </trkpt>
      <trkpt lat="45.23925" lon="6.08602">
        <ele>2196</ele>
        <time>2021-02-27T11:13:38Z</time>
      </trkpt>
      <trkpt lat="45.23925" lon="6.08605">
        <ele>2196</ele>
        <time>2021-02-27T11:13:40Z</time>
      </trkpt>
      <trkpt lat="45.23925" lon="6.08607">
        <ele>2196</ele>
        <time>2021-02-27T11:13:42Z</time>
      </trkpt>
      <trkpt lat="45.23925" lon="6.08609">
        <ele>2196</ele>
        <time>2021-02-27T11:13:44Z</time>
      </trkpt>
      <trkpt lat="45.23925" lon="6.08612">
        <ele>2196</ele>
        <time>2021-02-27T11:13:46Z</time>
      </trkpt>
      <trkpt lat="45.23925" lon="6.08614">
        <ele>2197.8</ele>
        <time>2021-02-27T11:13:47Z</time>
      </trkpt>
      <trkpt lat="45.23925" lon="6.08616">
        <ele>2197.8</ele>
        <time>2021-02-27T11:13:48Z</time>
      </trkpt>
      <trkpt lat="45.23925" lon="6.08618">
        <ele>2197.8</ele>
        <time>2021-02-27T11:13:50Z</time>
      </trkpt>
      <trkpt lat="45.23926" lon="6.08622">
        <ele>2197.8</ele>
        <time>2021-02-27T11:13:53Z</time>
      </trkpt>
      <trkpt lat="45.23926" lon="6.08625">
        <ele>2197.8</ele>
        <time>2021-02-27T11:13:55Z</time>
      </trkpt>
      <trkpt lat="45.23927" lon="6.08627">
        <ele>2199.6</ele>
        <time>2021-02-27T11:13:57Z</time>
      </trkpt>
      <trkpt lat="45.23929" lon="6.08631">
        <ele>2199.6</ele>
        <time>2021-02-27T11:13:59Z</time>
      </trkpt>
      <trkpt lat="45.23929" lon="6.08633">
        <ele>2199.6</ele>
        <time>2021-02-27T11:14:01Z</time>
      </trkpt>
      <trkpt lat="45.2393" lon="6.08634">
        <ele>2199.6</ele>
        <time>2021-02-27T11:14:03Z</time>
      </trkpt>
      <trkpt lat="45.23931" lon="6.08635">
        <ele>2199.6</ele>
        <time>2021-02-27T11:14:06Z</time>
      </trkpt>
      <trkpt lat="45.23932" lon="6.08637">
        <ele>2201.4</ele>
        <time>2021-02-27T11:14:07Z</time>
      </trkpt>
      <trkpt lat="45.23933" lon="6.08641">
        <ele>2201.4</ele>
        <time>2021-02-27T11:14:09Z</time>
      </trkpt>
      <trkpt lat="45.23934" lon="6.08642">
        <ele>2201.4</ele>
        <time>2021-02-27T11:14:11Z</time>
      </trkpt>
      <trkpt lat="45.23934" lon="6.08644">
        <ele>2201.4</ele>
        <time>2021-02-27T11:14:13Z</time>
      </trkpt>
      <trkpt lat="45.23935" lon="6.08645">
        <ele>2201.4</ele>
        <time>2021-02-27T11:14:16Z</time>
      </trkpt>
      <trkpt lat="45.23935" lon="6.08646">
        <ele>2204.8</ele>
        <time>2021-02-27T11:14:17Z</time>
      </trkpt>
      <trkpt lat="45.23936" lon="6.0865">
        <ele>2204.8</ele>
        <time>2021-02-27T11:14:19Z</time>
      </trkpt>
      <trkpt lat="45.23936" lon="6.08653">
        <ele>2204.8</ele>
        <time>2021-02-27T11:14:22Z</time>
      </trkpt>
      <trkpt lat="45.23936" lon="6.08656">
        <ele>2204.8</ele>
        <time>2021-02-27T11:14:25Z</time>
      </trkpt>
      <trkpt lat="45.23936" lon="6.08656">
        <ele>2208</ele>
        <time>2021-02-27T11:14:27Z</time>
      </trkpt>
      <trkpt lat="45.23935" lon="6.08661">
        <ele>2208</ele>
        <time>2021-02-27T11:14:28Z</time>
      </trkpt>
      <trkpt lat="45.23936" lon="6.08663">
        <ele>2208</ele>
        <time>2021-02-27T11:14:30Z</time>
      </trkpt>
      <trkpt lat="45.23936" lon="6.08665">
        <ele>2208</ele>
        <time>2021-02-27T11:14:33Z</time>
      </trkpt>
      <trkpt lat="45.23936" lon="6.08666">
        <ele>2208</ele>
        <time>2021-02-27T11:14:36Z</time>
      </trkpt>
      <trkpt lat="45.23936" lon="6.08668">
        <ele>2211</ele>
        <time>2021-02-27T11:14:37Z</time>
      </trkpt>
      <trkpt lat="45.23939" lon="6.08671">
        <ele>2211</ele>
        <time>2021-02-27T11:14:39Z</time>
      </trkpt>
      <trkpt lat="45.23941" lon="6.08671">
        <ele>2211</ele>
        <time>2021-02-27T11:14:42Z</time>
      </trkpt>
      <trkpt lat="45.23942" lon="6.08672">
        <ele>2211</ele>
        <time>2021-02-27T11:14:44Z</time>
      </trkpt>
      <trkpt lat="45.23944" lon="6.08673">
        <ele>2211</ele>
        <time>2021-02-27T11:14:46Z</time>
      </trkpt>
      <trkpt lat="45.23945" lon="6.08673">
        <ele>2213.6</ele>
        <time>2021-02-27T11:14:47Z</time>
      </trkpt>
      <trkpt lat="45.23949" lon="6.08675">
        <ele>2213.6</ele>
        <time>2021-02-27T11:14:49Z</time>
      </trkpt>
      <trkpt lat="45.2395" lon="6.08675">
        <ele>2213.6</ele>
        <time>2021-02-27T11:14:51Z</time>
      </trkpt>
      <trkpt lat="45.23951" lon="6.08675">
        <ele>2213.6</ele>
        <time>2021-02-27T11:14:54Z</time>
      </trkpt>
      <trkpt lat="45.23953" lon="6.08676">
        <ele>2213.6</ele>
        <time>2021-02-27T11:14:56Z</time>
      </trkpt>
      <trkpt lat="45.23954" lon="6.08676">
        <ele>2215.4</ele>
        <time>2021-02-27T11:14:57Z</time>
      </trkpt>
      <trkpt lat="45.23957" lon="6.08679">
        <ele>2215.4</ele>
        <time>2021-02-27T11:14:58Z</time>
      </trkpt>
      <trkpt lat="45.23958" lon="6.0868">
        <ele>2215.4</ele>
        <time>2021-02-27T11:15:00Z</time>
      </trkpt>
      <trkpt lat="45.23959" lon="6.08682">
        <ele>2215.4</ele>
        <time>2021-02-27T11:15:02Z</time>
      </trkpt>
      <trkpt lat="45.2396" lon="6.08683">
        <ele>2215.4</ele>
        <time>2021-02-27T11:15:04Z</time>
      </trkpt>
      <trkpt lat="45.23961" lon="6.08685">
        <ele>2215.4</ele>
        <time>2021-02-27T11:15:06Z</time>
      </trkpt>
      <trkpt lat="45.23962" lon="6.08686">
        <ele>2217.4</ele>
        <time>2021-02-27T11:15:07Z</time>
      </trkpt>
      <trkpt lat="45.23963" lon="6.0869">
        <ele>2217.4</ele>
        <time>2021-02-27T11:15:08Z</time>
      </trkpt>
      <trkpt lat="45.23963" lon="6.08692">
        <ele>2217.4</ele>
        <time>2021-02-27T11:15:11Z</time>
      </trkpt>
      <trkpt lat="45.23964" lon="6.08694">
        <ele>2217.4</ele>
        <time>2021-02-27T11:15:14Z</time>
      </trkpt>
      <trkpt lat="45.23964" lon="6.08696">
        <ele>2217.4</ele>
        <time>2021-02-27T11:15:16Z</time>
      </trkpt>
      <trkpt lat="45.23964" lon="6.08698">
        <ele>2219.8</ele>
        <time>2021-02-27T11:15:17Z</time>
      </trkpt>
      <trkpt lat="45.23966" lon="6.08702">
        <ele>2219.8</ele>
        <time>2021-02-27T11:15:19Z</time>
      </trkpt>
      <trkpt lat="45.23967" lon="6.08704">
        <ele>2219.8</ele>
        <time>2021-02-27T11:15:21Z</time>
      </trkpt>
      <trkpt lat="45.23967" lon="6.08705">
        <ele>2219.8</ele>
        <time>2021-02-27T11:15:24Z</time>
      </trkpt>
      <trkpt lat="45.23968" lon="6.08706">
        <ele>2219.8</ele>
        <time>2021-02-27T11:15:26Z</time>
      </trkpt>
      <trkpt lat="45.23969" lon="6.08708">
        <ele>2222</ele>
        <time>2021-02-27T11:15:27Z</time>
      </trkpt>
      <trkpt lat="45.23971" lon="6.0871">
        <ele>2222</ele>
        <time>2021-02-27T11:15:29Z</time>
      </trkpt>
      <trkpt lat="45.23971" lon="6.08713">
        <ele>2222</ele>
        <time>2021-02-27T11:15:31Z</time>
      </trkpt>
      <trkpt lat="45.23971" lon="6.08716">
        <ele>2222</ele>
        <time>2021-02-27T11:15:33Z</time>
      </trkpt>
      <trkpt lat="45.23971" lon="6.08719">
        <ele>2222</ele>
        <time>2021-02-27T11:15:35Z</time>
      </trkpt>
      <trkpt lat="45.23971" lon="6.08722">
        <ele>2224.8</ele>
        <time>2021-02-27T11:15:37Z</time>
      </trkpt>
      <trkpt lat="45.23971" lon="6.08727">
        <ele>2224.8</ele>
        <time>2021-02-27T11:15:39Z</time>
      </trkpt>
      <trkpt lat="45.23971" lon="6.08729">
        <ele>2224.8</ele>
        <time>2021-02-27T11:15:42Z</time>
      </trkpt>
      <trkpt lat="45.23971" lon="6.08731">
        <ele>2224.8</ele>
        <time>2021-02-27T11:15:44Z</time>
      </trkpt>
      <trkpt lat="45.23972" lon="6.08733">
        <ele>2224.8</ele>
        <time>2021-02-27T11:15:46Z</time>
      </trkpt>
      <trkpt lat="45.23972" lon="6.08735">
        <ele>2227.4</ele>
        <time>2021-02-27T11:15:47Z</time>
      </trkpt>
      <trkpt lat="45.23973" lon="6.08737">
        <ele>2227.4</ele>
        <time>2021-02-27T11:15:49Z</time>
      </trkpt>
      <trkpt lat="45.23971" lon="6.08739">
        <ele>2227.4</ele>
        <time>2021-02-27T11:15:51Z</time>
      </trkpt>
      <trkpt lat="45.23971" lon="6.08742">
        <ele>2227.4</ele>
        <time>2021-02-27T11:15:54Z</time>
      </trkpt>
      <trkpt lat="45.23971" lon="6.08742">
        <ele>2229.2</ele>
        <time>2021-02-27T11:15:57Z</time>
      </trkpt>
      <trkpt lat="45.23973" lon="6.08744">
        <ele>2229.2</ele>
        <time>2021-02-27T11:15:58Z</time>
      </trkpt>
      <trkpt lat="45.23973" lon="6.08747">
        <ele>2229.2</ele>
        <time>2021-02-27T11:16:00Z</time>
      </trkpt>
      <trkpt lat="45.23975" lon="6.08749">
        <ele>2229.2</ele>
        <time>2021-02-27T11:16:02Z</time>
      </trkpt>
      <trkpt lat="45.23976" lon="6.08751">
        <ele>2229.2</ele>
        <time>2021-02-27T11:16:04Z</time>
      </trkpt>
      <trkpt lat="45.23979" lon="6.08754">
        <ele>2232.8</ele>
        <time>2021-02-27T11:16:07Z</time>
      </trkpt>
      <trkpt lat="45.23981" lon="6.08755">
        <ele>2232.8</ele>
        <time>2021-02-27T11:16:09Z</time>
      </trkpt>
      <trkpt lat="45.23983" lon="6.08757">
        <ele>2232.8</ele>
        <time>2021-02-27T11:16:11Z</time>
      </trkpt>
      <trkpt lat="45.23985" lon="6.08759">
        <ele>2232.8</ele>
        <time>2021-02-27T11:16:13Z</time>
      </trkpt>
      <trkpt lat="45.23987" lon="6.08761">
        <ele>2232.8</ele>
        <time>2021-02-27T11:16:15Z</time>
      </trkpt>
      <trkpt lat="45.23989" lon="6.08763">
        <ele>2236.4</ele>
        <time>2021-02-27T11:16:17Z</time>
      </trkpt>
      <trkpt lat="45.23991" lon="6.08765">
        <ele>2236.4</ele>
        <time>2021-02-27T11:16:19Z</time>
      </trkpt>
      <trkpt lat="45.23993" lon="6.08766">
        <ele>2236.4</ele>
        <time>2021-02-27T11:16:21Z</time>
      </trkpt>
      <trkpt lat="45.23995" lon="6.08768">
        <ele>2236.4</ele>
        <time>2021-02-27T11:16:23Z</time>
      </trkpt>
      <trkpt lat="45.23997" lon="6.08769">
        <ele>2236.4</ele>
        <time>2021-02-27T11:16:25Z</time>
      </trkpt>
      <trkpt lat="45.23999" lon="6.08771">
        <ele>2240.4</ele>
        <time>2021-02-27T11:16:27Z</time>
      </trkpt>
      <trkpt lat="45.24001" lon="6.08776">
        <ele>2240.4</ele>
        <time>2021-02-27T11:16:30Z</time>
      </trkpt>
      <trkpt lat="45.24002" lon="6.08777">
        <ele>2240.4</ele>
        <time>2021-02-27T11:16:33Z</time>
      </trkpt>
      <trkpt lat="45.24004" lon="6.08778">
        <ele>2244</ele>
        <time>2021-02-27T11:16:37Z</time>
      </trkpt>
      <trkpt lat="45.24005" lon="6.0878">
        <ele>2244</ele>
        <time>2021-02-27T11:16:40Z</time>
      </trkpt>
      <trkpt lat="45.24006" lon="6.08781">
        <ele>2244</ele>
        <time>2021-02-27T11:16:42Z</time>
      </trkpt>
      <trkpt lat="45.24007" lon="6.08782">
        <ele>2244</ele>
        <time>2021-02-27T11:16:46Z</time>
      </trkpt>
      <trkpt lat="45.24009" lon="6.08784">
        <ele>2245.4</ele>
        <time>2021-02-27T11:16:47Z</time>
      </trkpt>
      <trkpt lat="45.24011" lon="6.08785">
        <ele>2245.4</ele>
        <time>2021-02-27T11:16:49Z</time>
      </trkpt>
      <trkpt lat="45.24012" lon="6.08788">
        <ele>2245.4</ele>
        <time>2021-02-27T11:16:52Z</time>
      </trkpt>
      <trkpt lat="45.24014" lon="6.08789">
        <ele>2245.4</ele>
        <time>2021-02-27T11:16:55Z</time>
      </trkpt>
      <trkpt lat="45.24014" lon="6.08789">
        <ele>2246.8</ele>
        <time>2021-02-27T11:16:57Z</time>
      </trkpt>
      <trkpt lat="45.24017" lon="6.08793">
        <ele>2246.8</ele>
        <time>2021-02-27T11:16:58Z</time>
      </trkpt>
      <trkpt lat="45.24018" lon="6.08794">
        <ele>2246.8</ele>
        <time>2021-02-27T11:17:01Z</time>
      </trkpt>
      <trkpt lat="45.24019" lon="6.08796">
        <ele>2246.8</ele>
        <time>2021-02-27T11:17:03Z</time>
      </trkpt>
      <trkpt lat="45.2402" lon="6.08797">
        <ele>2246.8</ele>
        <time>2021-02-27T11:17:06Z</time>
      </trkpt>
      <trkpt lat="45.24021" lon="6.08798">
        <ele>2248.6</ele>
        <time>2021-02-27T11:17:07Z</time>
      </trkpt>
      <trkpt lat="45.24024" lon="6.08802">
        <ele>2248.6</ele>
        <time>2021-02-27T11:17:08Z</time>
      </trkpt>
      <trkpt lat="45.24025" lon="6.08803">
        <ele>2248.6</ele>
        <time>2021-02-27T11:17:11Z</time>
      </trkpt>
      <trkpt lat="45.24025" lon="6.08805">
        <ele>2248.6</ele>
        <time>2021-02-27T11:17:14Z</time>
      </trkpt>
      <trkpt lat="45.24026" lon="6.08806">
        <ele>2248.6</ele>
        <time>2021-02-27T11:17:16Z</time>
      </trkpt>
      <trkpt lat="45.24027" lon="6.08807">
        <ele>2252</ele>
        <time>2021-02-27T11:17:17Z</time>
      </trkpt>
      <trkpt lat="45.24028" lon="6.0881">
        <ele>2252</ele>
        <time>2021-02-27T11:17:18Z</time>
      </trkpt>
      <trkpt lat="45.24028" lon="6.08813">
        <ele>2252</ele>
        <time>2021-02-27T11:17:20Z</time>
      </trkpt>
      <trkpt lat="45.24029" lon="6.08815">
        <ele>2252</ele>
        <time>2021-02-27T11:17:22Z</time>
      </trkpt>
      <trkpt lat="45.2403" lon="6.08818">
        <ele>2252</ele>
        <time>2021-02-27T11:17:25Z</time>
      </trkpt>
      <trkpt lat="45.24032" lon="6.08819">
        <ele>2254.6</ele>
        <time>2021-02-27T11:17:27Z</time>
      </trkpt>
      <trkpt lat="45.24034" lon="6.08822">
        <ele>2254.6</ele>
        <time>2021-02-27T11:17:30Z</time>
      </trkpt>
      <trkpt lat="45.24035" lon="6.08824">
        <ele>2254.6</ele>
        <time>2021-02-27T11:17:33Z</time>
      </trkpt>
      <trkpt lat="45.24035" lon="6.08825">
        <ele>2254.6</ele>
        <time>2021-02-27T11:17:36Z</time>
      </trkpt>
      <trkpt lat="45.24036" lon="6.08826">
        <ele>2257</ele>
        <time>2021-02-27T11:17:37Z</time>
      </trkpt>
      <trkpt lat="45.24038" lon="6.0883">
        <ele>2257</ele>
        <time>2021-02-27T11:17:39Z</time>
      </trkpt>
      <trkpt lat="45.24039" lon="6.08831">
        <ele>2257</ele>
        <time>2021-02-27T11:17:41Z</time>
      </trkpt>
      <trkpt lat="45.2404" lon="6.08832">
        <ele>2257</ele>
        <time>2021-02-27T11:17:43Z</time>
      </trkpt>
      <trkpt lat="45.24041" lon="6.08833">
        <ele>2257</ele>
        <time>2021-02-27T11:17:46Z</time>
      </trkpt>
      <trkpt lat="45.24042" lon="6.08834">
        <ele>2258.2</ele>
        <time>2021-02-27T11:17:47Z</time>
      </trkpt>
      <trkpt lat="45.24045" lon="6.08837">
        <ele>2258.2</ele>
        <time>2021-02-27T11:17:49Z</time>
      </trkpt>
      <trkpt lat="45.24046" lon="6.08839">
        <ele>2258.2</ele>
        <time>2021-02-27T11:17:52Z</time>
      </trkpt>
      <trkpt lat="45.24047" lon="6.0884">
        <ele>2258.2</ele>
        <time>2021-02-27T11:17:54Z</time>
      </trkpt>
      <trkpt lat="45.24048" lon="6.08841">
        <ele>2258.2</ele>
        <time>2021-02-27T11:17:56Z</time>
      </trkpt>
      <trkpt lat="45.24048" lon="6.08842">
        <ele>2260.6</ele>
        <time>2021-02-27T11:17:57Z</time>
      </trkpt>
      <trkpt lat="45.24049" lon="6.08845">
        <ele>2260.6</ele>
        <time>2021-02-27T11:17:58Z</time>
      </trkpt>
      <trkpt lat="45.2405" lon="6.08848">
        <ele>2260.6</ele>
        <time>2021-02-27T11:18:01Z</time>
      </trkpt>
      <trkpt lat="45.24051" lon="6.0885">
        <ele>2260.6</ele>
        <time>2021-02-27T11:18:03Z</time>
      </trkpt>
      <trkpt lat="45.24053" lon="6.08852">
        <ele>2260.6</ele>
        <time>2021-02-27T11:18:05Z</time>
      </trkpt>
      <trkpt lat="45.24053" lon="6.08855">
        <ele>2262</ele>
        <time>2021-02-27T11:18:07Z</time>
      </trkpt>
      <trkpt lat="45.24054" lon="6.08857">
        <ele>2262</ele>
        <time>2021-02-27T11:18:09Z</time>
      </trkpt>
      <trkpt lat="45.24056" lon="6.0886">
        <ele>2262</ele>
        <time>2021-02-27T11:18:12Z</time>
      </trkpt>
      <trkpt lat="45.24059" lon="6.08863">
        <ele>2262</ele>
        <time>2021-02-27T11:18:15Z</time>
      </trkpt>
      <trkpt lat="45.2406" lon="6.08865">
        <ele>2265.4</ele>
        <time>2021-02-27T11:18:17Z</time>
      </trkpt>
      <trkpt lat="45.24061" lon="6.08867">
        <ele>2265.4</ele>
        <time>2021-02-27T11:18:19Z</time>
      </trkpt>
      <trkpt lat="45.24062" lon="6.0887">
        <ele>2265.4</ele>
        <time>2021-02-27T11:18:21Z</time>
      </trkpt>
      <trkpt lat="45.24063" lon="6.08872">
        <ele>2265.4</ele>
        <time>2021-02-27T11:18:23Z</time>
      </trkpt>
      <trkpt lat="45.24066" lon="6.08874">
        <ele>2265.4</ele>
        <time>2021-02-27T11:18:25Z</time>
      </trkpt>
      <trkpt lat="45.24069" lon="6.08877">
        <ele>2267.2</ele>
        <time>2021-02-27T11:18:27Z</time>
      </trkpt>
      <trkpt lat="45.2407" lon="6.08879">
        <ele>2267.2</ele>
        <time>2021-02-27T11:18:29Z</time>
      </trkpt>
      <trkpt lat="45.24072" lon="6.08881">
        <ele>2267.2</ele>
        <time>2021-02-27T11:18:31Z</time>
      </trkpt>
      <trkpt lat="45.24074" lon="6.08883">
        <ele>2267.2</ele>
        <time>2021-02-27T11:18:33Z</time>
      </trkpt>
      <trkpt lat="45.24076" lon="6.08886">
        <ele>2267.2</ele>
        <time>2021-02-27T11:18:35Z</time>
      </trkpt>
      <trkpt lat="45.24078" lon="6.08889">
        <ele>2266.6</ele>
        <time>2021-02-27T11:18:37Z</time>
      </trkpt>
      <trkpt lat="45.2408" lon="6.08894">
        <ele>2266.6</ele>
        <time>2021-02-27T11:18:39Z</time>
      </trkpt>
      <trkpt lat="45.24081" lon="6.08897">
        <ele>2266.6</ele>
        <time>2021-02-27T11:18:41Z</time>
      </trkpt>
      <trkpt lat="45.24083" lon="6.089">
        <ele>2266.6</ele>
        <time>2021-02-27T11:18:42Z</time>
      </trkpt>
      <trkpt lat="45.24084" lon="6.08903">
        <ele>2266.6</ele>
        <time>2021-02-27T11:18:44Z</time>
      </trkpt>
      <trkpt lat="45.24085" lon="6.08906">
        <ele>2266.6</ele>
        <time>2021-02-27T11:18:46Z</time>
      </trkpt>
      <trkpt lat="45.24086" lon="6.08908">
        <ele>2266.4</ele>
        <time>2021-02-27T11:18:47Z</time>
      </trkpt>
      <trkpt lat="45.24087" lon="6.08915">
        <ele>2266.4</ele>
        <time>2021-02-27T11:18:48Z</time>
      </trkpt>
      <trkpt lat="45.24087" lon="6.08918">
        <ele>2266.4</ele>
        <time>2021-02-27T11:18:49Z</time>
      </trkpt>
      <trkpt lat="45.24087" lon="6.08921">
        <ele>2266.4</ele>
        <time>2021-02-27T11:18:50Z</time>
      </trkpt>
      <trkpt lat="45.24088" lon="6.08924">
        <ele>2266.4</ele>
        <time>2021-02-27T11:18:51Z</time>
      </trkpt>
      <trkpt lat="45.24088" lon="6.08927">
        <ele>2266.4</ele>
        <time>2021-02-27T11:18:53Z</time>
      </trkpt>
      <trkpt lat="45.24088" lon="6.0893">
        <ele>2266.4</ele>
        <time>2021-02-27T11:18:55Z</time>
      </trkpt>
      <trkpt lat="45.24089" lon="6.08933">
        <ele>2262.8</ele>
        <time>2021-02-27T11:18:57Z</time>
      </trkpt>
      <trkpt lat="45.24089" lon="6.08936">
        <ele>2262.8</ele>
        <time>2021-02-27T11:18:59Z</time>
      </trkpt>
      <trkpt lat="45.2409" lon="6.0894">
        <ele>2262.8</ele>
        <time>2021-02-27T11:19:02Z</time>
      </trkpt>
      <trkpt lat="45.24091" lon="6.08943">
        <ele>2262.8</ele>
        <time>2021-02-27T11:19:05Z</time>
      </trkpt>
      <trkpt lat="45.24092" lon="6.08946">
        <ele>2262.6</ele>
        <time>2021-02-27T11:19:07Z</time>
      </trkpt>
      <trkpt lat="45.24092" lon="6.0895">
        <ele>2262.6</ele>
        <time>2021-02-27T11:19:11Z</time>
      </trkpt>
      <trkpt lat="45.24093" lon="6.08954">
        <ele>2262.6</ele>
        <time>2021-02-27T11:19:13Z</time>
      </trkpt>
      <trkpt lat="45.24094" lon="6.08958">
        <ele>2262.6</ele>
        <time>2021-02-27T11:19:15Z</time>
      </trkpt>
      <trkpt lat="45.24095" lon="6.08962">
        <ele>2261</ele>
        <time>2021-02-27T11:19:17Z</time>
      </trkpt>
      <trkpt lat="45.24099" lon="6.08968">
        <ele>2261</ele>
        <time>2021-02-27T11:19:19Z</time>
      </trkpt>
      <trkpt lat="45.24101" lon="6.0897">
        <ele>2261</ele>
        <time>2021-02-27T11:19:21Z</time>
      </trkpt>
      <trkpt lat="45.24103" lon="6.08972">
        <ele>2261</ele>
        <time>2021-02-27T11:19:23Z</time>
      </trkpt>
      <trkpt lat="45.24105" lon="6.08974">
        <ele>2261</ele>
        <time>2021-02-27T11:19:25Z</time>
      </trkpt>
      <trkpt lat="45.24107" lon="6.08976">
        <ele>2262.4</ele>
        <time>2021-02-27T11:19:27Z</time>
      </trkpt>
      <trkpt lat="45.2411" lon="6.08981">
        <ele>2262.4</ele>
        <time>2021-02-27T11:19:29Z</time>
      </trkpt>
      <trkpt lat="45.24111" lon="6.08983">
        <ele>2262.4</ele>
        <time>2021-02-27T11:19:31Z</time>
      </trkpt>
      <trkpt lat="45.24112" lon="6.08986">
        <ele>2262.4</ele>
        <time>2021-02-27T11:19:33Z</time>
      </trkpt>
      <trkpt lat="45.24113" lon="6.08988">
        <ele>2262.4</ele>
        <time>2021-02-27T11:19:34Z</time>
      </trkpt>
      <trkpt lat="45.24115" lon="6.08991">
        <ele>2262.4</ele>
        <time>2021-02-27T11:19:36Z</time>
      </trkpt>
      <trkpt lat="45.24116" lon="6.08993">
        <ele>2261.4</ele>
        <time>2021-02-27T11:19:37Z</time>
      </trkpt>
      <trkpt lat="45.24119" lon="6.08999">
        <ele>2261.4</ele>
        <time>2021-02-27T11:19:39Z</time>
      </trkpt>
      <trkpt lat="45.2412" lon="6.09001">
        <ele>2261.4</ele>
        <time>2021-02-27T11:19:41Z</time>
      </trkpt>
      <trkpt lat="45.24122" lon="6.09003">
        <ele>2261.4</ele>
        <time>2021-02-27T11:19:42Z</time>
      </trkpt>
      <trkpt lat="45.24123" lon="6.09005">
        <ele>2261.4</ele>
        <time>2021-02-27T11:19:43Z</time>
      </trkpt>
      <trkpt lat="45.24124" lon="6.09007">
        <ele>2261.4</ele>
        <time>2021-02-27T11:19:44Z</time>
      </trkpt>
      <trkpt lat="45.24125" lon="6.0901">
        <ele>2261.4</ele>
        <time>2021-02-27T11:19:45Z</time>
      </trkpt>
      <trkpt lat="45.24126" lon="6.09012">
        <ele>2263.8</ele>
        <time>2021-02-27T11:19:47Z</time>
      </trkpt>
      <trkpt lat="45.2413" lon="6.09016">
        <ele>2263.8</ele>
        <time>2021-02-27T11:19:49Z</time>
      </trkpt>
      <trkpt lat="45.24131" lon="6.09018">
        <ele>2263.8</ele>
        <time>2021-02-27T11:19:51Z</time>
      </trkpt>
      <trkpt lat="45.24133" lon="6.0902">
        <ele>2263.8</ele>
        <time>2021-02-27T11:19:52Z</time>
      </trkpt>
      <trkpt lat="45.24134" lon="6.09022">
        <ele>2263.8</ele>
        <time>2021-02-27T11:19:53Z</time>
      </trkpt>
      <trkpt lat="45.24135" lon="6.09024">
        <ele>2263.8</ele>
        <time>2021-02-27T11:19:54Z</time>
      </trkpt>
      <trkpt lat="45.24137" lon="6.09026">
        <ele>2263.8</ele>
        <time>2021-02-27T11:19:55Z</time>
      </trkpt>
      <trkpt lat="45.24138" lon="6.09028">
        <ele>2263.8</ele>
        <time>2021-02-27T11:19:56Z</time>
      </trkpt>
      <trkpt lat="45.2414" lon="6.0903">
        <ele>2264</ele>
        <time>2021-02-27T11:19:57Z</time>
      </trkpt>
      <trkpt lat="45.24143" lon="6.09035">
        <ele>2264</ele>
        <time>2021-02-27T11:19:59Z</time>
      </trkpt>
      <trkpt lat="45.24145" lon="6.09037">
        <ele>2264</ele>
        <time>2021-02-27T11:20:00Z</time>
      </trkpt>
      <trkpt lat="45.24146" lon="6.09039">
        <ele>2264</ele>
        <time>2021-02-27T11:20:01Z</time>
      </trkpt>
      <trkpt lat="45.24147" lon="6.09041">
        <ele>2264</ele>
        <time>2021-02-27T11:20:02Z</time>
      </trkpt>
      <trkpt lat="45.24149" lon="6.09043">
        <ele>2264</ele>
        <time>2021-02-27T11:20:04Z</time>
      </trkpt>
      <trkpt lat="45.2415" lon="6.09045">
        <ele>2264</ele>
        <time>2021-02-27T11:20:06Z</time>
      </trkpt>
      <trkpt lat="45.24151" lon="6.09047">
        <ele>2262.8</ele>
        <time>2021-02-27T11:20:07Z</time>
      </trkpt>
      <trkpt lat="45.24153" lon="6.09051">
        <ele>2262.8</ele>
        <time>2021-02-27T11:20:08Z</time>
      </trkpt>
      <trkpt lat="45.24154" lon="6.09054">
        <ele>2262.8</ele>
        <time>2021-02-27T11:20:10Z</time>
      </trkpt>
      <trkpt lat="45.24155" lon="6.09057">
        <ele>2262.8</ele>
        <time>2021-02-27T11:20:12Z</time>
      </trkpt>
      <trkpt lat="45.24156" lon="6.0906">
        <ele>2262.8</ele>
        <time>2021-02-27T11:20:14Z</time>
      </trkpt>
      <trkpt lat="45.24157" lon="6.09062">
        <ele>2262.8</ele>
        <time>2021-02-27T11:20:16Z</time>
      </trkpt>
      <trkpt lat="45.24158" lon="6.09065">
        <ele>2264.2</ele>
        <time>2021-02-27T11:20:17Z</time>
      </trkpt>
      <trkpt lat="45.24159" lon="6.09067">
        <ele>2264.2</ele>
        <time>2021-02-27T11:20:18Z</time>
      </trkpt>
      <trkpt lat="45.2416" lon="6.09071">
        <ele>2264.2</ele>
        <time>2021-02-27T11:20:20Z</time>
      </trkpt>
      <trkpt lat="45.24162" lon="6.09075">
        <ele>2264.2</ele>
        <time>2021-02-27T11:20:22Z</time>
      </trkpt>
      <trkpt lat="45.24164" lon="6.09079">
        <ele>2264.2</ele>
        <time>2021-02-27T11:20:24Z</time>
      </trkpt>
      <trkpt lat="45.24165" lon="6.09081">
        <ele>2264.2</ele>
        <time>2021-02-27T11:20:25Z</time>
      </trkpt>
      <trkpt lat="45.24166" lon="6.09084">
        <ele>2263.6</ele>
        <time>2021-02-27T11:20:27Z</time>
      </trkpt>
      <trkpt lat="45.2417" lon="6.0909">
        <ele>2263.6</ele>
        <time>2021-02-27T11:20:29Z</time>
      </trkpt>
      <trkpt lat="45.24171" lon="6.09093">
        <ele>2263.6</ele>
        <time>2021-02-27T11:20:31Z</time>
      </trkpt>
      <trkpt lat="45.24172" lon="6.09096">
        <ele>2263.6</ele>
        <time>2021-02-27T11:20:33Z</time>
      </trkpt>
      <trkpt lat="45.24174" lon="6.09099">
        <ele>2263.6</ele>
        <time>2021-02-27T11:20:35Z</time>
      </trkpt>
      <trkpt lat="45.24175" lon="6.09102">
        <ele>2262.2</ele>
        <time>2021-02-27T11:20:37Z</time>
      </trkpt>
      <trkpt lat="45.24177" lon="6.09109">
        <ele>2262.2</ele>
        <time>2021-02-27T11:20:39Z</time>
      </trkpt>
      <trkpt lat="45.24178" lon="6.09112">
        <ele>2262.2</ele>
        <time>2021-02-27T11:20:40Z</time>
      </trkpt>
      <trkpt lat="45.24179" lon="6.09115">
        <ele>2262.2</ele>
        <time>2021-02-27T11:20:42Z</time>
      </trkpt>
      <trkpt lat="45.2418" lon="6.09118">
        <ele>2262.2</ele>
        <time>2021-02-27T11:20:44Z</time>
      </trkpt>
      <trkpt lat="45.24181" lon="6.09121">
        <ele>2262.2</ele>
        <time>2021-02-27T11:20:45Z</time>
      </trkpt>
      <trkpt lat="45.24182" lon="6.09123">
        <ele>2262.6</ele>
        <time>2021-02-27T11:20:47Z</time>
      </trkpt>
      <trkpt lat="45.24185" lon="6.09129">
        <ele>2262.6</ele>
        <time>2021-02-27T11:20:49Z</time>
      </trkpt>
      <trkpt lat="45.24186" lon="6.09131">
        <ele>2262.6</ele>
        <time>2021-02-27T11:20:51Z</time>
      </trkpt>
      <trkpt lat="45.24188" lon="6.09133">
        <ele>2262.6</ele>
        <time>2021-02-27T11:20:53Z</time>
      </trkpt>
      <trkpt lat="45.24189" lon="6.09135">
        <ele>2262.6</ele>
        <time>2021-02-27T11:20:55Z</time>
      </trkpt>
      <trkpt lat="45.2419" lon="6.09138">
        <ele>2262.6</ele>
        <time>2021-02-27T11:20:56Z</time>
      </trkpt>
      <trkpt lat="45.24192" lon="6.0914">
        <ele>2265</ele>
        <time>2021-02-27T11:20:57Z</time>
      </trkpt>
      <trkpt lat="45.24192" lon="6.09141">
        <ele>2265</ele>
        <time>2021-02-27T11:20:58Z</time>
      </trkpt>
      <trkpt lat="45.24194" lon="6.09145">
        <ele>2265</ele>
        <time>2021-02-27T11:21:00Z</time>
      </trkpt>
      <trkpt lat="45.24194" lon="6.09149">
        <ele>2265</ele>
        <time>2021-02-27T11:21:02Z</time>
      </trkpt>
      <trkpt lat="45.24195" lon="6.09152">
        <ele>2265</ele>
        <time>2021-02-27T11:21:05Z</time>
      </trkpt>
      <trkpt lat="45.24195" lon="6.09152">
        <ele>2264.4</ele>
        <time>2021-02-27T11:21:07Z</time>
      </trkpt>
      <trkpt lat="45.24193" lon="6.09156">
        <ele>2264.4</ele>
        <time>2021-02-27T11:21:08Z</time>
      </trkpt>
      <trkpt lat="45.24193" lon="6.09157">
        <ele>2264.4</ele>
        <time>2021-02-27T11:21:11Z</time>
      </trkpt>
      <trkpt lat="45.24192" lon="6.09158">
        <ele>2264.4</ele>
        <time>2021-02-27T11:21:16Z</time>
      </trkpt>
      <trkpt lat="45.24192" lon="6.09159">
        <ele>2265.6</ele>
        <time>2021-02-27T11:21:17Z</time>
      </trkpt>
      <trkpt lat="45.24194" lon="6.09164">
        <ele>2265.6</ele>
        <time>2021-02-27T11:21:19Z</time>
      </trkpt>
      <trkpt lat="45.24195" lon="6.09165">
        <ele>2265.6</ele>
        <time>2021-02-27T11:21:22Z</time>
      </trkpt>
      <trkpt lat="45.24196" lon="6.09167">
        <ele>2265.6</ele>
        <time>2021-02-27T11:21:24Z</time>
      </trkpt>
      <trkpt lat="45.24196" lon="6.09168">
        <ele>2265.6</ele>
        <time>2021-02-27T11:21:26Z</time>
      </trkpt>
      <trkpt lat="45.24197" lon="6.0917">
        <ele>2268</ele>
        <time>2021-02-27T11:21:27Z</time>
      </trkpt>
      <trkpt lat="45.24198" lon="6.09172">
        <ele>2268</ele>
        <time>2021-02-27T11:21:29Z</time>
      </trkpt>
      <trkpt lat="45.242" lon="6.09173">
        <ele>2268</ele>
        <time>2021-02-27T11:21:32Z</time>
      </trkpt>
      <trkpt lat="45.24202" lon="6.09175">
        <ele>2268</ele>
        <time>2021-02-27T11:21:35Z</time>
      </trkpt>
      <trkpt lat="45.24203" lon="6.09177">
        <ele>2269.2</ele>
        <time>2021-02-27T11:21:37Z</time>
      </trkpt>
      <trkpt lat="45.24204" lon="6.0918">
        <ele>2269.2</ele>
        <time>2021-02-27T11:21:40Z</time>
      </trkpt>
      <trkpt lat="45.24205" lon="6.09184">
        <ele>2269.2</ele>
        <time>2021-02-27T11:21:43Z</time>
      </trkpt>
      <trkpt lat="45.24206" lon="6.09187">
        <ele>2269.2</ele>
        <time>2021-02-27T11:21:45Z</time>
      </trkpt>
      <trkpt lat="45.24206" lon="6.09187">
        <ele>2270.8</ele>
        <time>2021-02-27T11:21:47Z</time>
      </trkpt>
      <trkpt lat="45.24207" lon="6.09191">
        <ele>2270.8</ele>
        <time>2021-02-27T11:21:48Z</time>
      </trkpt>
      <trkpt lat="45.24206" lon="6.09192">
        <ele>2270.8</ele>
        <time>2021-02-27T11:21:52Z</time>
      </trkpt>
      <trkpt lat="45.24204" lon="6.09193">
        <ele>2270.8</ele>
        <time>2021-02-27T11:21:54Z</time>
      </trkpt>
      <trkpt lat="45.24203" lon="6.09195">
        <ele>2270.8</ele>
        <time>2021-02-27T11:21:56Z</time>
      </trkpt>
      <trkpt lat="45.24202" lon="6.09196">
        <ele>2273.8</ele>
        <time>2021-02-27T11:21:57Z</time>
      </trkpt>
      <trkpt lat="45.24199" lon="6.09201">
        <ele>2273.8</ele>
        <time>2021-02-27T11:21:58Z</time>
      </trkpt>
      <trkpt lat="45.24198" lon="6.09202">
        <ele>2273.8</ele>
        <time>2021-02-27T11:21:59Z</time>
      </trkpt>
      <trkpt lat="45.24197" lon="6.09202">
        <ele>2273.8</ele>
        <time>2021-02-27T11:22:01Z</time>
      </trkpt>
      <trkpt lat="45.24196" lon="6.09203">
        <ele>2273.8</ele>
        <time>2021-02-27T11:22:03Z</time>
      </trkpt>
      <trkpt lat="45.24195" lon="6.09204">
        <ele>2273.8</ele>
        <time>2021-02-27T11:22:06Z</time>
      </trkpt>
      <trkpt lat="45.24193" lon="6.09205">
        <ele>2275.6</ele>
        <time>2021-02-27T11:22:07Z</time>
      </trkpt>
      <trkpt lat="45.24194" lon="6.09207">
        <ele>2275.6</ele>
        <time>2021-02-27T11:22:14Z</time>
      </trkpt>
      <trkpt lat="45.24194" lon="6.09207">
        <ele>2275.8</ele>
        <time>2021-02-27T11:22:17Z</time>
      </trkpt>
      <trkpt lat="45.24197" lon="6.09208">
        <ele>2275.8</ele>
        <time>2021-02-27T11:22:18Z</time>
      </trkpt>
      <trkpt lat="45.24198" lon="6.09211">
        <ele>2275.8</ele>
        <time>2021-02-27T11:22:21Z</time>
      </trkpt>
      <trkpt lat="45.242" lon="6.09213">
        <ele>2275.8</ele>
        <time>2021-02-27T11:22:24Z</time>
      </trkpt>
      <trkpt lat="45.242" lon="6.09213">
        <ele>2278</ele>
        <time>2021-02-27T11:22:27Z</time>
      </trkpt>
      <trkpt lat="45.24199" lon="6.09218">
        <ele>2278</ele>
        <time>2021-02-27T11:22:30Z</time>
      </trkpt>
      <trkpt lat="45.24197" lon="6.09219">
        <ele>2278</ele>
        <time>2021-02-27T11:22:32Z</time>
      </trkpt>
      <trkpt lat="45.24196" lon="6.09221">
        <ele>2278</ele>
        <time>2021-02-27T11:22:34Z</time>
      </trkpt>
      <trkpt lat="45.24195" lon="6.09222">
        <ele>2278</ele>
        <time>2021-02-27T11:22:36Z</time>
      </trkpt>
      <trkpt lat="45.24194" lon="6.09223">
        <ele>2282</ele>
        <time>2021-02-27T11:22:37Z</time>
      </trkpt>
      <trkpt lat="45.24192" lon="6.09225">
        <ele>2282</ele>
        <time>2021-02-27T11:22:38Z</time>
      </trkpt>
      <trkpt lat="45.24191" lon="6.09226">
        <ele>2282</ele>
        <time>2021-02-27T11:22:40Z</time>
      </trkpt>
      <trkpt lat="45.24189" lon="6.09226">
        <ele>2282</ele>
        <time>2021-02-27T11:22:43Z</time>
      </trkpt>
      <trkpt lat="45.24188" lon="6.09227">
        <ele>2282</ele>
        <time>2021-02-27T11:22:46Z</time>
      </trkpt>
      <trkpt lat="45.24186" lon="6.09227">
        <ele>2285</ele>
        <time>2021-02-27T11:22:47Z</time>
      </trkpt>
      <trkpt lat="45.24184" lon="6.09226">
        <ele>2285</ele>
        <time>2021-02-27T11:22:49Z</time>
      </trkpt>
      <trkpt lat="45.24182" lon="6.09225">
        <ele>2285</ele>
        <time>2021-02-27T11:22:51Z</time>
      </trkpt>
      <trkpt lat="45.24182" lon="6.09225">
        <ele>2286.6</ele>
        <time>2021-02-27T11:22:57Z</time>
      </trkpt>
      <trkpt lat="45.24183" lon="6.09227">
        <ele>2286.6</ele>
        <time>2021-02-27T11:23:01Z</time>
      </trkpt>
      <trkpt lat="45.24184" lon="6.0923">
        <ele>2286.6</ele>
        <time>2021-02-27T11:23:04Z</time>
      </trkpt>
      <trkpt lat="45.24184" lon="6.0923">
        <ele>2288.4</ele>
        <time>2021-02-27T11:23:07Z</time>
      </trkpt>
      <trkpt lat="45.24186" lon="6.09233">
        <ele>2288.4</ele>
        <time>2021-02-27T11:23:09Z</time>
      </trkpt>
      <trkpt lat="45.24186" lon="6.09235">
        <ele>2288.4</ele>
        <time>2021-02-27T11:23:12Z</time>
      </trkpt>
      <trkpt lat="45.24185" lon="6.09238">
        <ele>2288.4</ele>
        <time>2021-02-27T11:23:15Z</time>
      </trkpt>
      <trkpt lat="45.24185" lon="6.09238">
        <ele>2291.8</ele>
        <time>2021-02-27T11:23:17Z</time>
      </trkpt>
      <trkpt lat="45.24182" lon="6.09239">
        <ele>2291.8</ele>
        <time>2021-02-27T11:23:21Z</time>
      </trkpt>
      <trkpt lat="45.24181" lon="6.09242">
        <ele>2291.8</ele>
        <time>2021-02-27T11:23:25Z</time>
      </trkpt>
      <trkpt lat="45.2418" lon="6.09245">
        <ele>2294.4</ele>
        <time>2021-02-27T11:23:27Z</time>
      </trkpt>
      <trkpt lat="45.24178" lon="6.09248">
        <ele>2294.4</ele>
        <time>2021-02-27T11:23:29Z</time>
      </trkpt>
      <trkpt lat="45.24176" lon="6.09248">
        <ele>2294.4</ele>
        <time>2021-02-27T11:23:31Z</time>
      </trkpt>
      <trkpt lat="45.24174" lon="6.0925">
        <ele>2294.4</ele>
        <time>2021-02-27T11:23:33Z</time>
      </trkpt>
      <trkpt lat="45.24172" lon="6.09251">
        <ele>2294.4</ele>
        <time>2021-02-27T11:23:35Z</time>
      </trkpt>
      <trkpt lat="45.24171" lon="6.09252">
        <ele>2295.2</ele>
        <time>2021-02-27T11:23:37Z</time>
      </trkpt>
      <trkpt lat="45.24169" lon="6.09255">
        <ele>2295.2</ele>
        <time>2021-02-27T11:23:40Z</time>
      </trkpt>
      <trkpt lat="45.24169" lon="6.09256">
        <ele>2297.6</ele>
        <time>2021-02-27T11:23:47Z</time>
      </trkpt>
      <trkpt lat="45.24168" lon="6.09257">
        <ele>2297.6</ele>
        <time>2021-02-27T11:23:50Z</time>
      </trkpt>
      <trkpt lat="45.24168" lon="6.09258">
        <ele>2301.6</ele>
        <time>2021-02-27T11:23:57Z</time>
      </trkpt>
      <trkpt lat="45.24168" lon="6.0926">
        <ele>2301.6</ele>
        <time>2021-02-27T11:23:59Z</time>
      </trkpt>
      <trkpt lat="45.24167" lon="6.09261">
        <ele>2301.6</ele>
        <time>2021-02-27T11:24:02Z</time>
      </trkpt>
      <trkpt lat="45.24167" lon="6.09262">
        <ele>2301.6</ele>
        <time>2021-02-27T11:24:04Z</time>
      </trkpt>
      <trkpt lat="45.24167" lon="6.09263">
        <ele>2301.6</ele>
        <time>2021-02-27T11:24:06Z</time>
      </trkpt>
      <trkpt lat="45.24166" lon="6.09264">
        <ele>2304.6</ele>
        <time>2021-02-27T11:24:07Z</time>
      </trkpt>
      <trkpt lat="45.24163" lon="6.09266">
        <ele>2304.6</ele>
        <time>2021-02-27T11:24:08Z</time>
      </trkpt>
      <trkpt lat="45.24162" lon="6.09267">
        <ele>2304.6</ele>
        <time>2021-02-27T11:24:12Z</time>
      </trkpt>
      <trkpt lat="45.24161" lon="6.09268">
        <ele>2304.6</ele>
        <time>2021-02-27T11:24:16Z</time>
      </trkpt>
      <trkpt lat="45.2416" lon="6.09268">
        <ele>2305.8</ele>
        <time>2021-02-27T11:24:17Z</time>
      </trkpt>
      <trkpt lat="45.24157" lon="6.0927">
        <ele>2305.8</ele>
        <time>2021-02-27T11:24:18Z</time>
      </trkpt>
      <trkpt lat="45.24155" lon="6.09271">
        <ele>2305.8</ele>
        <time>2021-02-27T11:24:21Z</time>
      </trkpt>
      <trkpt lat="45.24154" lon="6.09273">
        <ele>2305.8</ele>
        <time>2021-02-27T11:24:24Z</time>
      </trkpt>
      <trkpt lat="45.24154" lon="6.09273">
        <ele>2307.4</ele>
        <time>2021-02-27T11:24:27Z</time>
      </trkpt>
      <trkpt lat="45.24153" lon="6.09277">
        <ele>2307.4</ele>
        <time>2021-02-27T11:24:28Z</time>
      </trkpt>
      <trkpt lat="45.24154" lon="6.09279">
        <ele>2307.4</ele>
        <time>2021-02-27T11:24:32Z</time>
      </trkpt>
      <trkpt lat="45.24154" lon="6.0928">
        <ele>2307.4</ele>
        <time>2021-02-27T11:24:36Z</time>
      </trkpt>
      <trkpt lat="45.24155" lon="6.09282">
        <ele>2310</ele>
        <time>2021-02-27T11:24:37Z</time>
      </trkpt>
      <trkpt lat="45.24154" lon="6.09285">
        <ele>2310</ele>
        <time>2021-02-27T11:24:39Z</time>
      </trkpt>
      <trkpt lat="45.24153" lon="6.09286">
        <ele>2310</ele>
        <time>2021-02-27T11:24:41Z</time>
      </trkpt>
      <trkpt lat="45.2415" lon="6.09287">
        <ele>2310</ele>
        <time>2021-02-27T11:24:44Z</time>
      </trkpt>
      <trkpt lat="45.24149" lon="6.09289">
        <ele>2312.6</ele>
        <time>2021-02-27T11:24:47Z</time>
      </trkpt>
      <trkpt lat="45.24147" lon="6.09292">
        <ele>2312.6</ele>
        <time>2021-02-27T11:24:50Z</time>
      </trkpt>
      <trkpt lat="45.24146" lon="6.09293">
        <ele>2312.6</ele>
        <time>2021-02-27T11:24:53Z</time>
      </trkpt>
      <trkpt lat="45.24146" lon="6.09295">
        <ele>2312.6</ele>
        <time>2021-02-27T11:24:56Z</time>
      </trkpt>
      <trkpt lat="45.24146" lon="6.09296">
        <ele>2314.8</ele>
        <time>2021-02-27T11:24:57Z</time>
      </trkpt>
      <trkpt lat="45.24145" lon="6.09298">
        <ele>2314.8</ele>
        <time>2021-02-27T11:24:58Z</time>
      </trkpt>
      <trkpt lat="45.24145" lon="6.09298">
        <ele>2316.2</ele>
        <time>2021-02-27T11:25:07Z</time>
      </trkpt>
      <trkpt lat="45.24145" lon="6.09298">
        <ele>2316.2</ele>
        <time>2021-02-27T11:25:17Z</time>
      </trkpt>
      <trkpt lat="45.24145" lon="6.09298">
        <ele>2315.8</ele>
        <time>2021-02-27T11:25:27Z</time>
      </trkpt>
      <trkpt lat="45.24145" lon="6.09298">
        <ele>2316.4</ele>
        <time>2021-02-27T11:25:37Z</time>
      </trkpt>
      <trkpt lat="45.24145" lon="6.09298">
        <ele>2315.2</ele>
        <time>2021-02-27T11:25:47Z</time>
      </trkpt>
      <trkpt lat="45.24145" lon="6.09298">
        <ele>2314.6</ele>
        <time>2021-02-27T11:25:57Z</time>
      </trkpt>
      <trkpt lat="45.24145" lon="6.09298">
        <ele>2314.2</ele>
        <time>2021-02-27T11:26:07Z</time>
      </trkpt>
      <trkpt lat="45.24145" lon="6.09298">
        <ele>2314.6</ele>
        <time>2021-02-27T11:26:17Z</time>
      </trkpt>
      <trkpt lat="45.24143" lon="6.09299">
        <ele>2314.6</ele>
        <time>2021-02-27T11:26:26Z</time>
      </trkpt>
      <trkpt lat="45.24143" lon="6.09299">
        <ele>2315.2</ele>
        <time>2021-02-27T11:26:27Z</time>
      </trkpt>
      <trkpt lat="45.24142" lon="6.09302">
        <ele>2315.2</ele>
        <time>2021-02-27T11:26:28Z</time>
      </trkpt>
      <trkpt lat="45.24142" lon="6.09305">
        <ele>2315.2</ele>
        <time>2021-02-27T11:26:30Z</time>
      </trkpt>
      <trkpt lat="45.24141" lon="6.09308">
        <ele>2315.2</ele>
        <time>2021-02-27T11:26:32Z</time>
      </trkpt>
      <trkpt lat="45.24141" lon="6.09311">
        <ele>2315.2</ele>
        <time>2021-02-27T11:26:35Z</time>
      </trkpt>
      <trkpt lat="45.24141" lon="6.09311">
        <ele>2316.4</ele>
        <time>2021-02-27T11:26:37Z</time>
      </trkpt>
      <trkpt lat="45.2414" lon="6.09317">
        <ele>2316.4</ele>
        <time>2021-02-27T11:26:38Z</time>
      </trkpt>
      <trkpt lat="45.2414" lon="6.09318">
        <ele>2316.4</ele>
        <time>2021-02-27T11:26:42Z</time>
      </trkpt>
      <trkpt lat="45.24139" lon="6.0932">
        <ele>2316.4</ele>
        <time>2021-02-27T11:26:44Z</time>
      </trkpt>
      <trkpt lat="45.24139" lon="6.09321">
        <ele>2316.4</ele>
        <time>2021-02-27T11:26:46Z</time>
      </trkpt>
      <trkpt lat="45.24138" lon="6.09323">
        <ele>2319.2</ele>
        <time>2021-02-27T11:26:47Z</time>
      </trkpt>
      <trkpt lat="45.24138" lon="6.09326">
        <ele>2319.2</ele>
        <time>2021-02-27T11:26:49Z</time>
      </trkpt>
      <trkpt lat="45.24136" lon="6.09328">
        <ele>2319.2</ele>
        <time>2021-02-27T11:26:52Z</time>
      </trkpt>
      <trkpt lat="45.24134" lon="6.0933">
        <ele>2319.2</ele>
        <time>2021-02-27T11:26:54Z</time>
      </trkpt>
      <trkpt lat="45.24133" lon="6.09333">
        <ele>2322.2</ele>
        <time>2021-02-27T11:26:57Z</time>
      </trkpt>
      <trkpt lat="45.24132" lon="6.09336">
        <ele>2322.2</ele>
        <time>2021-02-27T11:27:00Z</time>
      </trkpt>
      <trkpt lat="45.24133" lon="6.09339">
        <ele>2322.2</ele>
        <time>2021-02-27T11:27:03Z</time>
      </trkpt>
      <trkpt lat="45.24134" lon="6.09341">
        <ele>2322.2</ele>
        <time>2021-02-27T11:27:05Z</time>
      </trkpt>
      <trkpt lat="45.24136" lon="6.09343">
        <ele>2325.2</ele>
        <time>2021-02-27T11:27:07Z</time>
      </trkpt>
      <trkpt lat="45.24136" lon="6.09345">
        <ele>2325.2</ele>
        <time>2021-02-27T11:27:09Z</time>
      </trkpt>
      <trkpt lat="45.24138" lon="6.09349">
        <ele>2325.2</ele>
        <time>2021-02-27T11:27:12Z</time>
      </trkpt>
      <trkpt lat="45.24138" lon="6.09352">
        <ele>2325.2</ele>
        <time>2021-02-27T11:27:14Z</time>
      </trkpt>
      <trkpt lat="45.24138" lon="6.09355">
        <ele>2327.2</ele>
        <time>2021-02-27T11:27:17Z</time>
      </trkpt>
      <trkpt lat="45.24137" lon="6.09358">
        <ele>2327.2</ele>
        <time>2021-02-27T11:27:20Z</time>
      </trkpt>
      <trkpt lat="45.24138" lon="6.09361">
        <ele>2327.2</ele>
        <time>2021-02-27T11:27:24Z</time>
      </trkpt>
      <trkpt lat="45.24139" lon="6.09364">
        <ele>2329</ele>
        <time>2021-02-27T11:27:27Z</time>
      </trkpt>
      <trkpt lat="45.24138" lon="6.09369">
        <ele>2329</ele>
        <time>2021-02-27T11:27:30Z</time>
      </trkpt>
      <trkpt lat="45.24138" lon="6.09371">
        <ele>2329</ele>
        <time>2021-02-27T11:27:33Z</time>
      </trkpt>
      <trkpt lat="45.24138" lon="6.09373">
        <ele>2329</ele>
        <time>2021-02-27T11:27:36Z</time>
      </trkpt>
      <trkpt lat="45.24138" lon="6.09374">
        <ele>2332.2</ele>
        <time>2021-02-27T11:27:37Z</time>
      </trkpt>
      <trkpt lat="45.24136" lon="6.09379">
        <ele>2332.2</ele>
        <time>2021-02-27T11:27:39Z</time>
      </trkpt>
      <trkpt lat="45.24136" lon="6.0938">
        <ele>2332.2</ele>
        <time>2021-02-27T11:27:42Z</time>
      </trkpt>
      <trkpt lat="45.24135" lon="6.09382">
        <ele>2332.2</ele>
        <time>2021-02-27T11:27:44Z</time>
      </trkpt>
      <trkpt lat="45.24134" lon="6.09383">
        <ele>2332.2</ele>
        <time>2021-02-27T11:27:46Z</time>
      </trkpt>
      <trkpt lat="45.24134" lon="6.09385">
        <ele>2336.2</ele>
        <time>2021-02-27T11:27:47Z</time>
      </trkpt>
      <trkpt lat="45.24133" lon="6.09387">
        <ele>2336.2</ele>
        <time>2021-02-27T11:27:49Z</time>
      </trkpt>
      <trkpt lat="45.24134" lon="6.09388">
        <ele>2336.2</ele>
        <time>2021-02-27T11:27:53Z</time>
      </trkpt>
      <trkpt lat="45.24135" lon="6.09389">
        <ele>2336.2</ele>
        <time>2021-02-27T11:27:56Z</time>
      </trkpt>
      <trkpt lat="45.24136" lon="6.0939">
        <ele>2338</ele>
        <time>2021-02-27T11:27:57Z</time>
      </trkpt>
      <trkpt lat="45.24139" lon="6.09391">
        <ele>2338</ele>
        <time>2021-02-27T11:27:59Z</time>
      </trkpt>
      <trkpt lat="45.24141" lon="6.09391">
        <ele>2338</ele>
        <time>2021-02-27T11:28:02Z</time>
      </trkpt>
      <trkpt lat="45.24143" lon="6.09391">
        <ele>2338</ele>
        <time>2021-02-27T11:28:05Z</time>
      </trkpt>
      <trkpt lat="45.24143" lon="6.09391">
        <ele>2340.6</ele>
        <time>2021-02-27T11:28:07Z</time>
      </trkpt>
      <trkpt lat="45.24147" lon="6.0939">
        <ele>2340.6</ele>
        <time>2021-02-27T11:28:08Z</time>
      </trkpt>
      <trkpt lat="45.24148" lon="6.09389">
        <ele>2340.6</ele>
        <time>2021-02-27T11:28:11Z</time>
      </trkpt>
      <trkpt lat="45.2415" lon="6.09389">
        <ele>2340.6</ele>
        <time>2021-02-27T11:28:13Z</time>
      </trkpt>
      <trkpt lat="45.24151" lon="6.09389">
        <ele>2340.6</ele>
        <time>2021-02-27T11:28:16Z</time>
      </trkpt>
      <trkpt lat="45.24152" lon="6.09388">
        <ele>2343.2</ele>
        <time>2021-02-27T11:28:17Z</time>
      </trkpt>
      <trkpt lat="45.24154" lon="6.09389">
        <ele>2343.2</ele>
        <time>2021-02-27T11:28:18Z</time>
      </trkpt>
      <trkpt lat="45.24157" lon="6.09388">
        <ele>2343.2</ele>
        <time>2021-02-27T11:28:21Z</time>
      </trkpt>
      <trkpt lat="45.24158" lon="6.09387">
        <ele>2343.2</ele>
        <time>2021-02-27T11:28:23Z</time>
      </trkpt>
      <trkpt lat="45.2416" lon="6.09386">
        <ele>2343.2</ele>
        <time>2021-02-27T11:28:25Z</time>
      </trkpt>
      <trkpt lat="45.2416" lon="6.09386">
        <ele>2345.2</ele>
        <time>2021-02-27T11:28:27Z</time>
      </trkpt>
      <trkpt lat="45.24163" lon="6.09384">
        <ele>2345.2</ele>
        <time>2021-02-27T11:28:28Z</time>
      </trkpt>
      <trkpt lat="45.24165" lon="6.09384">
        <ele>2345.2</ele>
        <time>2021-02-27T11:28:30Z</time>
      </trkpt>
      <trkpt lat="45.24166" lon="6.09384">
        <ele>2345.2</ele>
        <time>2021-02-27T11:28:33Z</time>
      </trkpt>
      <trkpt lat="45.24167" lon="6.09384">
        <ele>2345.2</ele>
        <time>2021-02-27T11:28:36Z</time>
      </trkpt>
      <trkpt lat="45.24168" lon="6.09384">
        <ele>2347.4</ele>
        <time>2021-02-27T11:28:37Z</time>
      </trkpt>
      <trkpt lat="45.2417" lon="6.09386">
        <ele>2347.4</ele>
        <time>2021-02-27T11:28:39Z</time>
      </trkpt>
      <trkpt lat="45.24172" lon="6.09388">
        <ele>2347.4</ele>
        <time>2021-02-27T11:28:42Z</time>
      </trkpt>
      <trkpt lat="45.24173" lon="6.09391">
        <ele>2347.4</ele>
        <time>2021-02-27T11:28:45Z</time>
      </trkpt>
      <trkpt lat="45.24174" lon="6.09393">
        <ele>2349.4</ele>
        <time>2021-02-27T11:28:47Z</time>
      </trkpt>
      <trkpt lat="45.24176" lon="6.09397">
        <ele>2349.4</ele>
        <time>2021-02-27T11:28:49Z</time>
      </trkpt>
      <trkpt lat="45.24177" lon="6.09399">
        <ele>2349.4</ele>
        <time>2021-02-27T11:28:51Z</time>
      </trkpt>
      <trkpt lat="45.24178" lon="6.09401">
        <ele>2349.4</ele>
        <time>2021-02-27T11:28:53Z</time>
      </trkpt>
      <trkpt lat="45.24178" lon="6.09403">
        <ele>2349.4</ele>
        <time>2021-02-27T11:28:56Z</time>
      </trkpt>
      <trkpt lat="45.24179" lon="6.09404">
        <ele>2351</ele>
        <time>2021-02-27T11:28:57Z</time>
      </trkpt>
      <trkpt lat="45.2418" lon="6.09406">
        <ele>2351</ele>
        <time>2021-02-27T11:28:59Z</time>
      </trkpt>
      <trkpt lat="45.24182" lon="6.09407">
        <ele>2351</ele>
        <time>2021-02-27T11:29:02Z</time>
      </trkpt>
      <trkpt lat="45.24184" lon="6.09406">
        <ele>2351</ele>
        <time>2021-02-27T11:29:04Z</time>
      </trkpt>
      <trkpt lat="45.24185" lon="6.09403">
        <ele>2353</ele>
        <time>2021-02-27T11:29:07Z</time>
      </trkpt>
      <trkpt lat="45.24187" lon="6.09401">
        <ele>2353</ele>
        <time>2021-02-27T11:29:10Z</time>
      </trkpt>
      <trkpt lat="45.24189" lon="6.09398">
        <ele>2353</ele>
        <time>2021-02-27T11:29:12Z</time>
      </trkpt>
      <trkpt lat="45.2419" lon="6.09396">
        <ele>2353</ele>
        <time>2021-02-27T11:29:15Z</time>
      </trkpt>
      <trkpt lat="45.2419" lon="6.09396">
        <ele>2354.6</ele>
        <time>2021-02-27T11:29:17Z</time>
      </trkpt>
      <trkpt lat="45.24192" lon="6.09393">
        <ele>2354.6</ele>
        <time>2021-02-27T11:29:18Z</time>
      </trkpt>
      <trkpt lat="45.24193" lon="6.09392">
        <ele>2354.6</ele>
        <time>2021-02-27T11:29:21Z</time>
      </trkpt>
      <trkpt lat="45.24194" lon="6.09394">
        <ele>2354.6</ele>
        <time>2021-02-27T11:29:25Z</time>
      </trkpt>
      <trkpt lat="45.24194" lon="6.09397">
        <ele>2356.4</ele>
        <time>2021-02-27T11:29:27Z</time>
      </trkpt>
      <trkpt lat="45.24195" lon="6.09402">
        <ele>2356.4</ele>
        <time>2021-02-27T11:29:30Z</time>
      </trkpt>
      <trkpt lat="45.24195" lon="6.09404">
        <ele>2356.4</ele>
        <time>2021-02-27T11:29:32Z</time>
      </trkpt>
      <trkpt lat="45.24195" lon="6.09407">
        <ele>2356.4</ele>
        <time>2021-02-27T11:29:34Z</time>
      </trkpt>
      <trkpt lat="45.24195" lon="6.09409">
        <ele>2356.4</ele>
        <time>2021-02-27T11:29:36Z</time>
      </trkpt>
      <trkpt lat="45.24196" lon="6.09411">
        <ele>2358.4</ele>
        <time>2021-02-27T11:29:37Z</time>
      </trkpt>
      <trkpt lat="45.24196" lon="6.09413">
        <ele>2358.4</ele>
        <time>2021-02-27T11:29:38Z</time>
      </trkpt>
      <trkpt lat="45.24196" lon="6.09415">
        <ele>2358.4</ele>
        <time>2021-02-27T11:29:40Z</time>
      </trkpt>
      <trkpt lat="45.24197" lon="6.09418">
        <ele>2358.4</ele>
        <time>2021-02-27T11:29:42Z</time>
      </trkpt>
      <trkpt lat="45.24199" lon="6.0942">
        <ele>2358.4</ele>
        <time>2021-02-27T11:29:45Z</time>
      </trkpt>
      <trkpt lat="45.24199" lon="6.0942">
        <ele>2359.6</ele>
        <time>2021-02-27T11:29:47Z</time>
      </trkpt>
      <trkpt lat="45.24201" lon="6.09423">
        <ele>2359.6</ele>
        <time>2021-02-27T11:29:48Z</time>
      </trkpt>
      <trkpt lat="45.24202" lon="6.09423">
        <ele>2359.6</ele>
        <time>2021-02-27T11:29:52Z</time>
      </trkpt>
      <trkpt lat="45.24203" lon="6.09424">
        <ele>2359.6</ele>
        <time>2021-02-27T11:29:56Z</time>
      </trkpt>
      <trkpt lat="45.24204" lon="6.09424">
        <ele>2362.6</ele>
        <time>2021-02-27T11:29:57Z</time>
      </trkpt>
      <trkpt lat="45.24206" lon="6.09423">
        <ele>2362.6</ele>
        <time>2021-02-27T11:29:59Z</time>
      </trkpt>
      <trkpt lat="45.24208" lon="6.09425">
        <ele>2362.6</ele>
        <time>2021-02-27T11:30:02Z</time>
      </trkpt>
      <trkpt lat="45.24209" lon="6.09428">
        <ele>2362.6</ele>
        <time>2021-02-27T11:30:05Z</time>
      </trkpt>
      <trkpt lat="45.24209" lon="6.09428">
        <ele>2366.4</ele>
        <time>2021-02-27T11:30:07Z</time>
      </trkpt>
      <trkpt lat="45.24211" lon="6.09431">
        <ele>2366.4</ele>
        <time>2021-02-27T11:30:08Z</time>
      </trkpt>
      <trkpt lat="45.24212" lon="6.09433">
        <ele>2366.4</ele>
        <time>2021-02-27T11:30:11Z</time>
      </trkpt>
      <trkpt lat="45.24214" lon="6.09435">
        <ele>2366.4</ele>
        <time>2021-02-27T11:30:14Z</time>
      </trkpt>
      <trkpt lat="45.24215" lon="6.09436">
        <ele>2368.6</ele>
        <time>2021-02-27T11:30:17Z</time>
      </trkpt>
      <trkpt lat="45.24217" lon="6.09438">
        <ele>2368.6</ele>
        <time>2021-02-27T11:30:19Z</time>
      </trkpt>
      <trkpt lat="45.24219" lon="6.09439">
        <ele>2368.6</ele>
        <time>2021-02-27T11:30:22Z</time>
      </trkpt>
      <trkpt lat="45.24221" lon="6.09441">
        <ele>2368.6</ele>
        <time>2021-02-27T11:30:25Z</time>
      </trkpt>
      <trkpt lat="45.24221" lon="6.09441">
        <ele>2371.4</ele>
        <time>2021-02-27T11:30:27Z</time>
      </trkpt>
      <trkpt lat="45.24224" lon="6.09443">
        <ele>2371.4</ele>
        <time>2021-02-27T11:30:28Z</time>
      </trkpt>
      <trkpt lat="45.24225" lon="6.09444">
        <ele>2371.4</ele>
        <time>2021-02-27T11:30:31Z</time>
      </trkpt>
      <trkpt lat="45.24226" lon="6.09445">
        <ele>2371.4</ele>
        <time>2021-02-27T11:30:33Z</time>
      </trkpt>
      <trkpt lat="45.24228" lon="6.09446">
        <ele>2371.4</ele>
        <time>2021-02-27T11:30:36Z</time>
      </trkpt>
      <trkpt lat="45.24229" lon="6.09448">
        <ele>2373.8</ele>
        <time>2021-02-27T11:30:37Z</time>
      </trkpt>
      <trkpt lat="45.24229" lon="6.09451">
        <ele>2373.8</ele>
        <time>2021-02-27T11:30:39Z</time>
      </trkpt>
      <trkpt lat="45.24229" lon="6.09454">
        <ele>2373.8</ele>
        <time>2021-02-27T11:30:42Z</time>
      </trkpt>
      <trkpt lat="45.24229" lon="6.09456">
        <ele>2373.8</ele>
        <time>2021-02-27T11:30:44Z</time>
      </trkpt>
      <trkpt lat="45.24229" lon="6.0946">
        <ele>2376.4</ele>
        <time>2021-02-27T11:30:47Z</time>
      </trkpt>
      <trkpt lat="45.24229" lon="6.09462">
        <ele>2376.4</ele>
        <time>2021-02-27T11:30:50Z</time>
      </trkpt>
      <trkpt lat="45.24229" lon="6.09465">
        <ele>2376.4</ele>
        <time>2021-02-27T11:30:55Z</time>
      </trkpt>
      <trkpt lat="45.24229" lon="6.09465">
        <ele>2378.4</ele>
        <time>2021-02-27T11:30:57Z</time>
      </trkpt>
      <trkpt lat="45.24229" lon="6.09468">
        <ele>2378.4</ele>
        <time>2021-02-27T11:30:58Z</time>
      </trkpt>
      <trkpt lat="45.24229" lon="6.09471">
        <ele>2378.4</ele>
        <time>2021-02-27T11:31:04Z</time>
      </trkpt>
      <trkpt lat="45.24229" lon="6.09471">
        <ele>2379.8</ele>
        <time>2021-02-27T11:31:07Z</time>
      </trkpt>
      <trkpt lat="45.24228" lon="6.09474">
        <ele>2379.8</ele>
        <time>2021-02-27T11:31:08Z</time>
      </trkpt>
      <trkpt lat="45.24227" lon="6.09477">
        <ele>2379.8</ele>
        <time>2021-02-27T11:31:11Z</time>
      </trkpt>
      <trkpt lat="45.24226" lon="6.0948">
        <ele>2379.8</ele>
        <time>2021-02-27T11:31:14Z</time>
      </trkpt>
      <trkpt lat="45.24225" lon="6.09482">
        <ele>2383</ele>
        <time>2021-02-27T11:31:17Z</time>
      </trkpt>
      <trkpt lat="45.24224" lon="6.09485">
        <ele>2383</ele>
        <time>2021-02-27T11:31:21Z</time>
      </trkpt>
      <trkpt lat="45.24224" lon="6.09487">
        <ele>2383</ele>
        <time>2021-02-27T11:31:24Z</time>
      </trkpt>
      <trkpt lat="45.24224" lon="6.0949">
        <ele>2383.8</ele>
        <time>2021-02-27T11:31:27Z</time>
      </trkpt>
      <trkpt lat="45.24224" lon="6.09494">
        <ele>2383.8</ele>
        <time>2021-02-27T11:31:31Z</time>
      </trkpt>
      <trkpt lat="45.24225" lon="6.09495">
        <ele>2383.8</ele>
        <time>2021-02-27T11:31:34Z</time>
      </trkpt>
      <trkpt lat="45.24225" lon="6.09496">
        <ele>2383.8</ele>
        <time>2021-02-27T11:31:36Z</time>
      </trkpt>
      <trkpt lat="45.24225" lon="6.09497">
        <ele>2385.6</ele>
        <time>2021-02-27T11:31:37Z</time>
      </trkpt>
      <trkpt lat="45.24227" lon="6.09501">
        <ele>2385.6</ele>
        <time>2021-02-27T11:31:40Z</time>
      </trkpt>
      <trkpt lat="45.24228" lon="6.09503">
        <ele>2385.6</ele>
        <time>2021-02-27T11:31:43Z</time>
      </trkpt>
      <trkpt lat="45.24228" lon="6.09504">
        <ele>2385.6</ele>
        <time>2021-02-27T11:31:46Z</time>
      </trkpt>
      <trkpt lat="45.24229" lon="6.09506">
        <ele>2388</ele>
        <time>2021-02-27T11:31:47Z</time>
      </trkpt>
      <trkpt lat="45.24229" lon="6.09509">
        <ele>2388</ele>
        <time>2021-02-27T11:31:49Z</time>
      </trkpt>
      <trkpt lat="45.24228" lon="6.09512">
        <ele>2388</ele>
        <time>2021-02-27T11:31:51Z</time>
      </trkpt>
      <trkpt lat="45.24226" lon="6.09515">
        <ele>2388</ele>
        <time>2021-02-27T11:31:53Z</time>
      </trkpt>
      <trkpt lat="45.24225" lon="6.09517">
        <ele>2388</ele>
        <time>2021-02-27T11:31:55Z</time>
      </trkpt>
      <trkpt lat="45.24225" lon="6.09517">
        <ele>2391.8</ele>
        <time>2021-02-27T11:31:57Z</time>
      </trkpt>
      <trkpt lat="45.24223" lon="6.0952">
        <ele>2391.8</ele>
        <time>2021-02-27T11:31:58Z</time>
      </trkpt>
      <trkpt lat="45.24222" lon="6.09521">
        <ele>2391.8</ele>
        <time>2021-02-27T11:32:00Z</time>
      </trkpt>
      <trkpt lat="45.2422" lon="6.09523">
        <ele>2391.8</ele>
        <time>2021-02-27T11:32:05Z</time>
      </trkpt>
      <trkpt lat="45.24219" lon="6.09525">
        <ele>2395.6</ele>
        <time>2021-02-27T11:32:07Z</time>
      </trkpt>
      <trkpt lat="45.24216" lon="6.09528">
        <ele>2395.6</ele>
        <time>2021-02-27T11:32:10Z</time>
      </trkpt>
      <trkpt lat="45.24214" lon="6.09528">
        <ele>2395.6</ele>
        <time>2021-02-27T11:32:13Z</time>
      </trkpt>
      <trkpt lat="45.24213" lon="6.09529">
        <ele>2395.6</ele>
        <time>2021-02-27T11:32:16Z</time>
      </trkpt>
      <trkpt lat="45.24212" lon="6.0953">
        <ele>2398</ele>
        <time>2021-02-27T11:32:17Z</time>
      </trkpt>
      <trkpt lat="45.24212" lon="6.09533">
        <ele>2398</ele>
        <time>2021-02-27T11:32:19Z</time>
      </trkpt>
      <trkpt lat="45.24212" lon="6.09536">
        <ele>2398</ele>
        <time>2021-02-27T11:32:22Z</time>
      </trkpt>
      <trkpt lat="45.24211" lon="6.09539">
        <ele>2398</ele>
        <time>2021-02-27T11:32:25Z</time>
      </trkpt>
      <trkpt lat="45.24211" lon="6.09539">
        <ele>2398.6</ele>
        <time>2021-02-27T11:32:27Z</time>
      </trkpt>
      <trkpt lat="45.2421" lon="6.09541">
        <ele>2398.6</ele>
        <time>2021-02-27T11:32:28Z</time>
      </trkpt>
      <trkpt lat="45.24209" lon="6.09544">
        <ele>2398.6</ele>
        <time>2021-02-27T11:32:34Z</time>
      </trkpt>
      <trkpt lat="45.24209" lon="6.09544">
        <ele>2400.6</ele>
        <time>2021-02-27T11:32:37Z</time>
      </trkpt>
      <trkpt lat="45.2421" lon="6.09546">
        <ele>2400.6</ele>
        <time>2021-02-27T11:32:39Z</time>
      </trkpt>
      <trkpt lat="45.24212" lon="6.0955">
        <ele>2400.6</ele>
        <time>2021-02-27T11:32:42Z</time>
      </trkpt>
      <trkpt lat="45.24213" lon="6.09552">
        <ele>2400.6</ele>
        <time>2021-02-27T11:32:45Z</time>
      </trkpt>
      <trkpt lat="45.24213" lon="6.09552">
        <ele>2403.2</ele>
        <time>2021-02-27T11:32:47Z</time>
      </trkpt>
      <trkpt lat="45.24215" lon="6.09555">
        <ele>2403.2</ele>
        <time>2021-02-27T11:32:48Z</time>
      </trkpt>
      <trkpt lat="45.24214" lon="6.09556">
        <ele>2403.2</ele>
        <time>2021-02-27T11:32:52Z</time>
      </trkpt>
      <trkpt lat="45.24214" lon="6.09557">
        <ele>2403.2</ele>
        <time>2021-02-27T11:32:54Z</time>
      </trkpt>
      <trkpt lat="45.24213" lon="6.09558">
        <ele>2403.2</ele>
        <time>2021-02-27T11:32:56Z</time>
      </trkpt>
      <trkpt lat="45.24212" lon="6.09559">
        <ele>2405.6</ele>
        <time>2021-02-27T11:32:57Z</time>
      </trkpt>
      <trkpt lat="45.24209" lon="6.0956">
        <ele>2405.6</ele>
        <time>2021-02-27T11:32:58Z</time>
      </trkpt>
      <trkpt lat="45.24208" lon="6.09561">
        <ele>2405.6</ele>
        <time>2021-02-27T11:33:00Z</time>
      </trkpt>
      <trkpt lat="45.24206" lon="6.09562">
        <ele>2405.6</ele>
        <time>2021-02-27T11:33:02Z</time>
      </trkpt>
      <trkpt lat="45.24205" lon="6.09564">
        <ele>2405.6</ele>
        <time>2021-02-27T11:33:04Z</time>
      </trkpt>
      <trkpt lat="45.24204" lon="6.09565">
        <ele>2405.6</ele>
        <time>2021-02-27T11:33:06Z</time>
      </trkpt>
      <trkpt lat="45.24203" lon="6.09566">
        <ele>2408</ele>
        <time>2021-02-27T11:33:07Z</time>
      </trkpt>
      <trkpt lat="45.242" lon="6.09567">
        <ele>2408</ele>
        <time>2021-02-27T11:33:08Z</time>
      </trkpt>
      <trkpt lat="45.24199" lon="6.09567">
        <ele>2408</ele>
        <time>2021-02-27T11:33:10Z</time>
      </trkpt>
      <trkpt lat="45.24198" lon="6.09568">
        <ele>2408</ele>
        <time>2021-02-27T11:33:11Z</time>
      </trkpt>
      <trkpt lat="45.24197" lon="6.09568">
        <ele>2408</ele>
        <time>2021-02-27T11:33:13Z</time>
      </trkpt>
      <trkpt lat="45.24195" lon="6.09569">
        <ele>2408</ele>
        <time>2021-02-27T11:33:16Z</time>
      </trkpt>
      <trkpt lat="45.24194" lon="6.09569">
        <ele>2410</ele>
        <time>2021-02-27T11:33:17Z</time>
      </trkpt>
      <trkpt lat="45.24193" lon="6.09571">
        <ele>2410</ele>
        <time>2021-02-27T11:33:18Z</time>
      </trkpt>
      <trkpt lat="45.24192" lon="6.09574">
        <ele>2410</ele>
        <time>2021-02-27T11:33:20Z</time>
      </trkpt>
      <trkpt lat="45.2419" lon="6.09576">
        <ele>2410</ele>
        <time>2021-02-27T11:33:23Z</time>
      </trkpt>
      <trkpt lat="45.24188" lon="6.09576">
        <ele>2410</ele>
        <time>2021-02-27T11:33:25Z</time>
      </trkpt>
      <trkpt lat="45.24186" lon="6.09575">
        <ele>2412.8</ele>
        <time>2021-02-27T11:33:27Z</time>
      </trkpt>
      <trkpt lat="45.24184" lon="6.09573">
        <ele>2412.8</ele>
        <time>2021-02-27T11:33:29Z</time>
      </trkpt>
      <trkpt lat="45.24182" lon="6.09571">
        <ele>2412.8</ele>
        <time>2021-02-27T11:33:32Z</time>
      </trkpt>
      <trkpt lat="45.2418" lon="6.0957">
        <ele>2412.8</ele>
        <time>2021-02-27T11:33:35Z</time>
      </trkpt>
      <trkpt lat="45.24177" lon="6.0957">
        <ele>2417.4</ele>
        <time>2021-02-27T11:33:37Z</time>
      </trkpt>
      <trkpt lat="45.24173" lon="6.09568">
        <ele>2417.4</ele>
        <time>2021-02-27T11:33:40Z</time>
      </trkpt>
      <trkpt lat="45.24172" lon="6.09568">
        <ele>2417.4</ele>
        <time>2021-02-27T11:33:43Z</time>
      </trkpt>
      <trkpt lat="45.24171" lon="6.09567">
        <ele>2417.4</ele>
        <time>2021-02-27T11:33:46Z</time>
      </trkpt>
      <trkpt lat="45.2417" lon="6.09566">
        <ele>2418</ele>
        <time>2021-02-27T11:33:47Z</time>
      </trkpt>
      <trkpt lat="45.24167" lon="6.09565">
        <ele>2418</ele>
        <time>2021-02-27T11:33:48Z</time>
      </trkpt>
      <trkpt lat="45.24165" lon="6.09565">
        <ele>2418</ele>
        <time>2021-02-27T11:33:51Z</time>
      </trkpt>
      <trkpt lat="45.24164" lon="6.09564">
        <ele>2418</ele>
        <time>2021-02-27T11:33:53Z</time>
      </trkpt>
      <trkpt lat="45.24163" lon="6.09564">
        <ele>2418</ele>
        <time>2021-02-27T11:33:56Z</time>
      </trkpt>
      <trkpt lat="45.24162" lon="6.09564">
        <ele>2420</ele>
        <time>2021-02-27T11:33:57Z</time>
      </trkpt>
      <trkpt lat="45.24158" lon="6.09562">
        <ele>2420</ele>
        <time>2021-02-27T11:33:59Z</time>
      </trkpt>
      <trkpt lat="45.24157" lon="6.09561">
        <ele>2420</ele>
        <time>2021-02-27T11:34:01Z</time>
      </trkpt>
      <trkpt lat="45.24156" lon="6.09561">
        <ele>2420</ele>
        <time>2021-02-27T11:34:03Z</time>
      </trkpt>
      <trkpt lat="45.24155" lon="6.0956">
        <ele>2420</ele>
        <time>2021-02-27T11:34:05Z</time>
      </trkpt>
      <trkpt lat="45.24154" lon="6.09559">
        <ele>2420</ele>
        <time>2021-02-27T11:34:06Z</time>
      </trkpt>
      <trkpt lat="45.24152" lon="6.09559">
        <ele>2422.2</ele>
        <time>2021-02-27T11:34:07Z</time>
      </trkpt>
      <trkpt lat="45.24149" lon="6.09558">
        <ele>2422.2</ele>
        <time>2021-02-27T11:34:08Z</time>
      </trkpt>
      <trkpt lat="45.24147" lon="6.09558">
        <ele>2422.2</ele>
        <time>2021-02-27T11:34:10Z</time>
      </trkpt>
      <trkpt lat="45.24146" lon="6.09557">
        <ele>2422.2</ele>
        <time>2021-02-27T11:34:12Z</time>
      </trkpt>
      <trkpt lat="45.24144" lon="6.09557">
        <ele>2422.2</ele>
        <time>2021-02-27T11:34:14Z</time>
      </trkpt>
      <trkpt lat="45.24143" lon="6.09556">
        <ele>2422.2</ele>
        <time>2021-02-27T11:34:16Z</time>
      </trkpt>
      <trkpt lat="45.24141" lon="6.09556">
        <ele>2425</ele>
        <time>2021-02-27T11:34:17Z</time>
      </trkpt>
      <trkpt lat="45.2414" lon="6.09556">
        <ele>2425</ele>
        <time>2021-02-27T11:34:18Z</time>
      </trkpt>
      <trkpt lat="45.24138" lon="6.09555">
        <ele>2425</ele>
        <time>2021-02-27T11:34:21Z</time>
      </trkpt>
      <trkpt lat="45.24136" lon="6.09555">
        <ele>2425</ele>
        <time>2021-02-27T11:34:23Z</time>
      </trkpt>
      <trkpt lat="45.24136" lon="6.09555">
        <ele>2427</ele>
        <time>2021-02-27T11:34:27Z</time>
      </trkpt>
      <trkpt lat="45.24136" lon="6.09558">
        <ele>2427</ele>
        <time>2021-02-27T11:34:31Z</time>
      </trkpt>
      <trkpt lat="45.24138" lon="6.09561">
        <ele>2427</ele>
        <time>2021-02-27T11:34:34Z</time>
      </trkpt>
      <trkpt lat="45.2414" lon="6.09563">
        <ele>2427</ele>
        <time>2021-02-27T11:34:37Z</time>
      </trkpt>
      <trkpt lat="45.24141" lon="6.09566">
        <ele>2427</ele>
        <time>2021-02-27T11:34:40Z</time>
      </trkpt>
      <trkpt lat="45.24141" lon="6.09569">
        <ele>2427</ele>
        <time>2021-02-27T11:34:43Z</time>
      </trkpt>
      <trkpt lat="45.24141" lon="6.09572">
        <ele>2427</ele>
        <time>2021-02-27T11:34:45Z</time>
      </trkpt>
      <trkpt lat="45.24141" lon="6.09572">
        <ele>2428.4</ele>
        <time>2021-02-27T11:34:47Z</time>
      </trkpt>
      <trkpt lat="45.24139" lon="6.09577">
        <ele>2428.4</ele>
        <time>2021-02-27T11:34:48Z</time>
      </trkpt>
      <trkpt lat="45.24137" lon="6.09577">
        <ele>2428.4</ele>
        <time>2021-02-27T11:34:50Z</time>
      </trkpt>
      <trkpt lat="45.24136" lon="6.09578">
        <ele>2428.4</ele>
        <time>2021-02-27T11:34:54Z</time>
      </trkpt>
      <trkpt lat="45.24135" lon="6.09579">
        <ele>2428.4</ele>
        <time>2021-02-27T11:34:56Z</time>
      </trkpt>
      <trkpt lat="45.24133" lon="6.09579">
        <ele>2430.6</ele>
        <time>2021-02-27T11:34:57Z</time>
      </trkpt>
      <trkpt lat="45.24131" lon="6.09579">
        <ele>2430.6</ele>
        <time>2021-02-27T11:34:59Z</time>
      </trkpt>
      <trkpt lat="45.24129" lon="6.0958">
        <ele>2430.6</ele>
        <time>2021-02-27T11:35:02Z</time>
      </trkpt>
      <trkpt lat="45.24127" lon="6.09581">
        <ele>2430.6</ele>
        <time>2021-02-27T11:35:05Z</time>
      </trkpt>
      <trkpt lat="45.24125" lon="6.09582">
        <ele>2434.2</ele>
        <time>2021-02-27T11:35:07Z</time>
      </trkpt>
      <trkpt lat="45.24123" lon="6.09584">
        <ele>2434.2</ele>
        <time>2021-02-27T11:35:09Z</time>
      </trkpt>
      <trkpt lat="45.24121" lon="6.09586">
        <ele>2434.2</ele>
        <time>2021-02-27T11:35:12Z</time>
      </trkpt>
      <trkpt lat="45.2412" lon="6.09587">
        <ele>2434.2</ele>
        <time>2021-02-27T11:35:14Z</time>
      </trkpt>
      <trkpt lat="45.24118" lon="6.09589">
        <ele>2436.6</ele>
        <time>2021-02-27T11:35:17Z</time>
      </trkpt>
      <trkpt lat="45.24117" lon="6.09591">
        <ele>2436.6</ele>
        <time>2021-02-27T11:35:19Z</time>
      </trkpt>
      <trkpt lat="45.24115" lon="6.09593">
        <ele>2436.6</ele>
        <time>2021-02-27T11:35:22Z</time>
      </trkpt>
      <trkpt lat="45.24112" lon="6.09595">
        <ele>2436.6</ele>
        <time>2021-02-27T11:35:25Z</time>
      </trkpt>
      <trkpt lat="45.24111" lon="6.09597">
        <ele>2438.4</ele>
        <time>2021-02-27T11:35:27Z</time>
      </trkpt>
      <trkpt lat="45.24109" lon="6.09601">
        <ele>2438.4</ele>
        <time>2021-02-27T11:35:31Z</time>
      </trkpt>
      <trkpt lat="45.24108" lon="6.09602">
        <ele>2438.4</ele>
        <time>2021-02-27T11:35:33Z</time>
      </trkpt>
      <trkpt lat="45.24107" lon="6.09603">
        <ele>2438.4</ele>
        <time>2021-02-27T11:35:36Z</time>
      </trkpt>
      <trkpt lat="45.24106" lon="6.09604">
        <ele>2440.2</ele>
        <time>2021-02-27T11:35:37Z</time>
      </trkpt>
      <trkpt lat="45.24104" lon="6.09607">
        <ele>2440.2</ele>
        <time>2021-02-27T11:35:38Z</time>
      </trkpt>
      <trkpt lat="45.24103" lon="6.09609">
        <ele>2440.2</ele>
        <time>2021-02-27T11:35:41Z</time>
      </trkpt>
      <trkpt lat="45.24102" lon="6.0961">
        <ele>2440.2</ele>
        <time>2021-02-27T11:35:43Z</time>
      </trkpt>
      <trkpt lat="45.24101" lon="6.09612">
        <ele>2440.2</ele>
        <time>2021-02-27T11:35:46Z</time>
      </trkpt>
      <trkpt lat="45.241" lon="6.09613">
        <ele>2443.8</ele>
        <time>2021-02-27T11:35:47Z</time>
      </trkpt>
      <trkpt lat="45.24099" lon="6.09616">
        <ele>2443.8</ele>
        <time>2021-02-27T11:35:48Z</time>
      </trkpt>
      <trkpt lat="45.24098" lon="6.09618">
        <ele>2443.8</ele>
        <time>2021-02-27T11:35:50Z</time>
      </trkpt>
      <trkpt lat="45.24096" lon="6.0962">
        <ele>2443.8</ele>
        <time>2021-02-27T11:35:52Z</time>
      </trkpt>
      <trkpt lat="45.24095" lon="6.09623">
        <ele>2443.8</ele>
        <time>2021-02-27T11:35:54Z</time>
      </trkpt>
      <trkpt lat="45.24093" lon="6.09626">
        <ele>2446.2</ele>
        <time>2021-02-27T11:35:57Z</time>
      </trkpt>
      <trkpt lat="45.2409" lon="6.0963">
        <ele>2446.2</ele>
        <time>2021-02-27T11:35:59Z</time>
      </trkpt>
      <trkpt lat="45.24089" lon="6.09632">
        <ele>2446.2</ele>
        <time>2021-02-27T11:36:02Z</time>
      </trkpt>
      <trkpt lat="45.24088" lon="6.09634">
        <ele>2446.2</ele>
        <time>2021-02-27T11:36:04Z</time>
      </trkpt>
      <trkpt lat="45.24087" lon="6.09636">
        <ele>2446.2</ele>
        <time>2021-02-27T11:36:06Z</time>
      </trkpt>
      <trkpt lat="45.24086" lon="6.09637">
        <ele>2448.6</ele>
        <time>2021-02-27T11:36:07Z</time>
      </trkpt>
      <trkpt lat="45.24084" lon="6.09641">
        <ele>2448.6</ele>
        <time>2021-02-27T11:36:08Z</time>
      </trkpt>
      <trkpt lat="45.24083" lon="6.09642">
        <ele>2448.6</ele>
        <time>2021-02-27T11:36:10Z</time>
      </trkpt>
      <trkpt lat="45.24081" lon="6.09644">
        <ele>2448.6</ele>
        <time>2021-02-27T11:36:12Z</time>
      </trkpt>
      <trkpt lat="45.2408" lon="6.09646">
        <ele>2448.6</ele>
        <time>2021-02-27T11:36:14Z</time>
      </trkpt>
      <trkpt lat="45.24079" lon="6.09648">
        <ele>2448.6</ele>
        <time>2021-02-27T11:36:16Z</time>
      </trkpt>
      <trkpt lat="45.24078" lon="6.09649">
        <ele>2451</ele>
        <time>2021-02-27T11:36:17Z</time>
      </trkpt>
      <trkpt lat="45.24077" lon="6.09651">
        <ele>2451</ele>
        <time>2021-02-27T11:36:18Z</time>
      </trkpt>
      <trkpt lat="45.24075" lon="6.09653">
        <ele>2451</ele>
        <time>2021-02-27T11:36:20Z</time>
      </trkpt>
      <trkpt lat="45.24073" lon="6.09656">
        <ele>2451</ele>
        <time>2021-02-27T11:36:23Z</time>
      </trkpt>
      <trkpt lat="45.24072" lon="6.09658">
        <ele>2451</ele>
        <time>2021-02-27T11:36:25Z</time>
      </trkpt>
      <trkpt lat="45.2407" lon="6.0966">
        <ele>2451.2</ele>
        <time>2021-02-27T11:36:27Z</time>
      </trkpt>
      <trkpt lat="45.24069" lon="6.09663">
        <ele>2451.2</ele>
        <time>2021-02-27T11:36:29Z</time>
      </trkpt>
      <trkpt lat="45.24067" lon="6.09665">
        <ele>2451.2</ele>
        <time>2021-02-27T11:36:31Z</time>
      </trkpt>
      <trkpt lat="45.24066" lon="6.09667">
        <ele>2451.2</ele>
        <time>2021-02-27T11:36:33Z</time>
      </trkpt>
      <trkpt lat="45.24064" lon="6.09669">
        <ele>2451.2</ele>
        <time>2021-02-27T11:36:35Z</time>
      </trkpt>
      <trkpt lat="45.24064" lon="6.09669">
        <ele>2451.4</ele>
        <time>2021-02-27T11:36:37Z</time>
      </trkpt>
      <trkpt lat="45.24062" lon="6.09672">
        <ele>2451.4</ele>
        <time>2021-02-27T11:36:38Z</time>
      </trkpt>
      <trkpt lat="45.24061" lon="6.09674">
        <ele>2451.4</ele>
        <time>2021-02-27T11:36:40Z</time>
      </trkpt>
      <trkpt lat="45.24059" lon="6.09676">
        <ele>2451.4</ele>
        <time>2021-02-27T11:36:42Z</time>
      </trkpt>
      <trkpt lat="45.24057" lon="6.09678">
        <ele>2451.4</ele>
        <time>2021-02-27T11:36:44Z</time>
      </trkpt>
      <trkpt lat="45.24055" lon="6.0968">
        <ele>2451.8</ele>
        <time>2021-02-27T11:36:47Z</time>
      </trkpt>
      <trkpt lat="45.24057" lon="6.09681">
        <ele>2451.8</ele>
        <time>2021-02-27T11:36:53Z</time>
      </trkpt>
      <trkpt lat="45.24059" lon="6.09681">
        <ele>2451.8</ele>
        <time>2021-02-27T11:36:55Z</time>
      </trkpt>
      <trkpt lat="45.24059" lon="6.09681">
        <ele>2452.2</ele>
        <time>2021-02-27T11:36:57Z</time>
      </trkpt>
      <trkpt lat="45.24063" lon="6.09682">
        <ele>2452.2</ele>
        <time>2021-02-27T11:36:58Z</time>
      </trkpt>
      <trkpt lat="45.24063" lon="6.09683">
        <ele>2452.2</ele>
        <time>2021-02-27T11:37:01Z</time>
      </trkpt>
      <trkpt lat="45.24064" lon="6.09683">
        <ele>2452.2</ele>
        <time>2021-02-27T11:37:04Z</time>
      </trkpt>
      <trkpt lat="45.24064" lon="6.09684">
        <ele>2452.2</ele>
        <time>2021-02-27T11:37:06Z</time>
      </trkpt>
      <trkpt lat="45.24065" lon="6.09685">
        <ele>2455.2</ele>
        <time>2021-02-27T11:37:07Z</time>
      </trkpt>
      <trkpt lat="45.24063" lon="6.09688">
        <ele>2455.2</ele>
        <time>2021-02-27T11:37:09Z</time>
      </trkpt>
      <trkpt lat="45.24061" lon="6.0969">
        <ele>2455.2</ele>
        <time>2021-02-27T11:37:11Z</time>
      </trkpt>
      <trkpt lat="45.2406" lon="6.09693">
        <ele>2455.2</ele>
        <time>2021-02-27T11:37:14Z</time>
      </trkpt>
      <trkpt lat="45.24058" lon="6.09695">
        <ele>2460.6</ele>
        <time>2021-02-27T11:37:17Z</time>
      </trkpt>
      <trkpt lat="45.24056" lon="6.09698">
        <ele>2460.6</ele>
        <time>2021-02-27T11:37:20Z</time>
      </trkpt>
      <trkpt lat="45.24055" lon="6.097">
        <ele>2460.6</ele>
        <time>2021-02-27T11:37:22Z</time>
      </trkpt>
      <trkpt lat="45.24053" lon="6.09702">
        <ele>2460.6</ele>
        <time>2021-02-27T11:37:25Z</time>
      </trkpt>
      <trkpt lat="45.24053" lon="6.09702">
        <ele>2461.2</ele>
        <time>2021-02-27T11:37:27Z</time>
      </trkpt>
      <trkpt lat="45.24051" lon="6.09706">
        <ele>2461.2</ele>
        <time>2021-02-27T11:37:29Z</time>
      </trkpt>
      <trkpt lat="45.2405" lon="6.09708">
        <ele>2461.2</ele>
        <time>2021-02-27T11:37:32Z</time>
      </trkpt>
      <trkpt lat="45.24048" lon="6.09709">
        <ele>2461.2</ele>
        <time>2021-02-27T11:37:34Z</time>
      </trkpt>
      <trkpt lat="45.24047" lon="6.0971">
        <ele>2461.2</ele>
        <time>2021-02-27T11:37:36Z</time>
      </trkpt>
      <trkpt lat="45.24046" lon="6.09712">
        <ele>2463.4</ele>
        <time>2021-02-27T11:37:37Z</time>
      </trkpt>
      <trkpt lat="45.24044" lon="6.09714">
        <ele>2463.4</ele>
        <time>2021-02-27T11:37:38Z</time>
      </trkpt>
      <trkpt lat="45.24042" lon="6.09714">
        <ele>2463.4</ele>
        <time>2021-02-27T11:37:41Z</time>
      </trkpt>
      <trkpt lat="45.24041" lon="6.09715">
        <ele>2463.4</ele>
        <time>2021-02-27T11:37:44Z</time>
      </trkpt>
      <trkpt lat="45.24039" lon="6.09716">
        <ele>2463.4</ele>
        <time>2021-02-27T11:37:46Z</time>
      </trkpt>
      <trkpt lat="45.24038" lon="6.09717">
        <ele>2469.4</ele>
        <time>2021-02-27T11:37:47Z</time>
      </trkpt>
      <trkpt lat="45.24037" lon="6.09719">
        <ele>2469.4</ele>
        <time>2021-02-27T11:37:49Z</time>
      </trkpt>
      <trkpt lat="45.24035" lon="6.0972">
        <ele>2469.4</ele>
        <time>2021-02-27T11:37:52Z</time>
      </trkpt>
      <trkpt lat="45.24033" lon="6.09722">
        <ele>2469.4</ele>
        <time>2021-02-27T11:37:55Z</time>
      </trkpt>
      <trkpt lat="45.24033" lon="6.09722">
        <ele>2470</ele>
        <time>2021-02-27T11:37:57Z</time>
      </trkpt>
      <trkpt lat="45.24032" lon="6.09724">
        <ele>2470</ele>
        <time>2021-02-27T11:37:58Z</time>
      </trkpt>
      <trkpt lat="45.2403" lon="6.09726">
        <ele>2470</ele>
        <time>2021-02-27T11:38:03Z</time>
      </trkpt>
      <trkpt lat="45.24028" lon="6.09727">
        <ele>2470</ele>
        <time>2021-02-27T11:38:05Z</time>
      </trkpt>
      <trkpt lat="45.24028" lon="6.09727">
        <ele>2472.2</ele>
        <time>2021-02-27T11:38:07Z</time>
      </trkpt>
      <trkpt lat="45.24027" lon="6.09729">
        <ele>2472.2</ele>
        <time>2021-02-27T11:38:08Z</time>
      </trkpt>
      <trkpt lat="45.24027" lon="6.09732">
        <ele>2472.2</ele>
        <time>2021-02-27T11:38:13Z</time>
      </trkpt>
      <trkpt lat="45.24029" lon="6.09733">
        <ele>2472.2</ele>
        <time>2021-02-27T11:38:15Z</time>
      </trkpt>
      <trkpt lat="45.24029" lon="6.09733">
        <ele>2475</ele>
        <time>2021-02-27T11:38:17Z</time>
      </trkpt>
      <trkpt lat="45.24032" lon="6.09736">
        <ele>2475</ele>
        <time>2021-02-27T11:38:18Z</time>
      </trkpt>
      <trkpt lat="45.24034" lon="6.09737">
        <ele>2475</ele>
        <time>2021-02-27T11:38:20Z</time>
      </trkpt>
      <trkpt lat="45.24035" lon="6.09738">
        <ele>2475</ele>
        <time>2021-02-27T11:38:22Z</time>
      </trkpt>
      <trkpt lat="45.24036" lon="6.09739">
        <ele>2475</ele>
        <time>2021-02-27T11:38:24Z</time>
      </trkpt>
      <trkpt lat="45.24038" lon="6.0974">
        <ele>2475</ele>
        <time>2021-02-27T11:38:26Z</time>
      </trkpt>
      <trkpt lat="45.24039" lon="6.09741">
        <ele>2476.4</ele>
        <time>2021-02-27T11:38:27Z</time>
      </trkpt>
      <trkpt lat="45.2404" lon="6.09742">
        <ele>2476.4</ele>
        <time>2021-02-27T11:38:28Z</time>
      </trkpt>
      <trkpt lat="45.24042" lon="6.09744">
        <ele>2476.4</ele>
        <time>2021-02-27T11:38:31Z</time>
      </trkpt>
      <trkpt lat="45.24045" lon="6.09745">
        <ele>2476.4</ele>
        <time>2021-02-27T11:38:34Z</time>
      </trkpt>
      <trkpt lat="45.24044" lon="6.09748">
        <ele>2478.2</ele>
        <time>2021-02-27T11:38:37Z</time>
      </trkpt>
      <trkpt lat="45.24043" lon="6.09751">
        <ele>2478.2</ele>
        <time>2021-02-27T11:38:39Z</time>
      </trkpt>
      <trkpt lat="45.24041" lon="6.09752">
        <ele>2478.2</ele>
        <time>2021-02-27T11:38:41Z</time>
      </trkpt>
      <trkpt lat="45.24039" lon="6.09754">
        <ele>2478.2</ele>
        <time>2021-02-27T11:38:43Z</time>
      </trkpt>
      <trkpt lat="45.24037" lon="6.09755">
        <ele>2478.2</ele>
        <time>2021-02-27T11:38:45Z</time>
      </trkpt>
      <trkpt lat="45.24035" lon="6.09756">
        <ele>2481</ele>
        <time>2021-02-27T11:38:47Z</time>
      </trkpt>
      <trkpt lat="45.24033" lon="6.09758">
        <ele>2481</ele>
        <time>2021-02-27T11:38:49Z</time>
      </trkpt>
      <trkpt lat="45.24031" lon="6.09759">
        <ele>2481</ele>
        <time>2021-02-27T11:38:51Z</time>
      </trkpt>
      <trkpt lat="45.24029" lon="6.09761">
        <ele>2481</ele>
        <time>2021-02-27T11:38:54Z</time>
      </trkpt>
      <trkpt lat="45.24027" lon="6.09764">
        <ele>2483.6</ele>
        <time>2021-02-27T11:38:57Z</time>
      </trkpt>
      <trkpt lat="45.24025" lon="6.09766">
        <ele>2483.6</ele>
        <time>2021-02-27T11:38:58Z</time>
      </trkpt>
      <trkpt lat="45.24024" lon="6.09768">
        <ele>2483.6</ele>
        <time>2021-02-27T11:39:02Z</time>
      </trkpt>
      <trkpt lat="45.24021" lon="6.0977">
        <ele>2483.6</ele>
        <time>2021-02-27T11:39:05Z</time>
      </trkpt>
      <trkpt lat="45.24021" lon="6.0977">
        <ele>2487.2</ele>
        <time>2021-02-27T11:39:07Z</time>
      </trkpt>
      <trkpt lat="45.2402" lon="6.09774">
        <ele>2487.2</ele>
        <time>2021-02-27T11:39:08Z</time>
      </trkpt>
      <trkpt lat="45.24022" lon="6.09775">
        <ele>2487.2</ele>
        <time>2021-02-27T11:39:12Z</time>
      </trkpt>
      <trkpt lat="45.24023" lon="6.09776">
        <ele>2488.2</ele>
        <time>2021-02-27T11:39:17Z</time>
      </trkpt>
      <trkpt lat="45.24024" lon="6.09777">
        <ele>2488.2</ele>
        <time>2021-02-27T11:39:19Z</time>
      </trkpt>
      <trkpt lat="45.24025" lon="6.09778">
        <ele>2488.2</ele>
        <time>2021-02-27T11:39:21Z</time>
      </trkpt>
      <trkpt lat="45.24027" lon="6.09779">
        <ele>2488.2</ele>
        <time>2021-02-27T11:39:23Z</time>
      </trkpt>
      <trkpt lat="45.24028" lon="6.0978">
        <ele>2488.2</ele>
        <time>2021-02-27T11:39:26Z</time>
      </trkpt>
      <trkpt lat="45.24029" lon="6.09781">
        <ele>2489.4</ele>
        <time>2021-02-27T11:39:27Z</time>
      </trkpt>
      <trkpt lat="45.24031" lon="6.09782">
        <ele>2489.4</ele>
        <time>2021-02-27T11:39:29Z</time>
      </trkpt>
      <trkpt lat="45.24033" lon="6.09782">
        <ele>2489.4</ele>
        <time>2021-02-27T11:39:31Z</time>
      </trkpt>
      <trkpt lat="45.24035" lon="6.09783">
        <ele>2489.4</ele>
        <time>2021-02-27T11:39:33Z</time>
      </trkpt>
      <trkpt lat="45.24037" lon="6.09784">
        <ele>2489.4</ele>
        <time>2021-02-27T11:39:35Z</time>
      </trkpt>
      <trkpt lat="45.24039" lon="6.09785">
        <ele>2490.6</ele>
        <time>2021-02-27T11:39:37Z</time>
      </trkpt>
      <trkpt lat="45.24042" lon="6.09785">
        <ele>2490.6</ele>
        <time>2021-02-27T11:39:39Z</time>
      </trkpt>
      <trkpt lat="45.24044" lon="6.09785">
        <ele>2490.6</ele>
        <time>2021-02-27T11:39:41Z</time>
      </trkpt>
      <trkpt lat="45.24045" lon="6.09784">
        <ele>2490.6</ele>
        <time>2021-02-27T11:39:43Z</time>
      </trkpt>
      <trkpt lat="45.24047" lon="6.09784">
        <ele>2490.6</ele>
        <time>2021-02-27T11:39:46Z</time>
      </trkpt>
      <trkpt lat="45.24048" lon="6.09784">
        <ele>2491.4</ele>
        <time>2021-02-27T11:39:47Z</time>
      </trkpt>
      <trkpt lat="45.24049" lon="6.09784">
        <ele>2491.4</ele>
        <time>2021-02-27T11:39:48Z</time>
      </trkpt>
      <trkpt lat="45.2405" lon="6.09786">
        <ele>2491.4</ele>
        <time>2021-02-27T11:39:52Z</time>
      </trkpt>
      <trkpt lat="45.24049" lon="6.09789">
        <ele>2491.4</ele>
        <time>2021-02-27T11:39:55Z</time>
      </trkpt>
      <trkpt lat="45.24049" lon="6.09792">
        <ele>2494</ele>
        <time>2021-02-27T11:39:57Z</time>
      </trkpt>
      <trkpt lat="45.24046" lon="6.09795">
        <ele>2494</ele>
        <time>2021-02-27T11:39:59Z</time>
      </trkpt>
      <trkpt lat="45.24045" lon="6.09797">
        <ele>2494</ele>
        <time>2021-02-27T11:40:01Z</time>
      </trkpt>
      <trkpt lat="45.24044" lon="6.09798">
        <ele>2494</ele>
        <time>2021-02-27T11:40:03Z</time>
      </trkpt>
      <trkpt lat="45.24042" lon="6.09799">
        <ele>2494</ele>
        <time>2021-02-27T11:40:06Z</time>
      </trkpt>
      <trkpt lat="45.24041" lon="6.09801">
        <ele>2495.6</ele>
        <time>2021-02-27T11:40:07Z</time>
      </trkpt>
      <trkpt lat="45.2404" lon="6.09802">
        <ele>2495.6</ele>
        <time>2021-02-27T11:40:09Z</time>
      </trkpt>
      <trkpt lat="45.24038" lon="6.09804">
        <ele>2495.6</ele>
        <time>2021-02-27T11:40:11Z</time>
      </trkpt>
      <trkpt lat="45.24037" lon="6.09806">
        <ele>2495.6</ele>
        <time>2021-02-27T11:40:13Z</time>
      </trkpt>
      <trkpt lat="45.24035" lon="6.09807">
        <ele>2495.6</ele>
        <time>2021-02-27T11:40:15Z</time>
      </trkpt>
      <trkpt lat="45.24035" lon="6.09807">
        <ele>2498.2</ele>
        <time>2021-02-27T11:40:17Z</time>
      </trkpt>
      <trkpt lat="45.24038" lon="6.09808">
        <ele>2498.2</ele>
        <time>2021-02-27T11:40:21Z</time>
      </trkpt>
      <trkpt lat="45.2404" lon="6.09809">
        <ele>2498.2</ele>
        <time>2021-02-27T11:40:23Z</time>
      </trkpt>
      <trkpt lat="45.24041" lon="6.09809">
        <ele>2498.2</ele>
        <time>2021-02-27T11:40:26Z</time>
      </trkpt>
      <trkpt lat="45.24042" lon="6.0981">
        <ele>2499.8</ele>
        <time>2021-02-27T11:40:27Z</time>
      </trkpt>
      <trkpt lat="45.24045" lon="6.0981">
        <ele>2499.8</ele>
        <time>2021-02-27T11:40:29Z</time>
      </trkpt>
      <trkpt lat="45.24047" lon="6.09809">
        <ele>2499.8</ele>
        <time>2021-02-27T11:40:32Z</time>
      </trkpt>
      <trkpt lat="45.2405" lon="6.09809">
        <ele>2499.8</ele>
        <time>2021-02-27T11:40:35Z</time>
      </trkpt>
      <trkpt lat="45.2405" lon="6.09809">
        <ele>2502</ele>
        <time>2021-02-27T11:40:37Z</time>
      </trkpt>
      <trkpt lat="45.24049" lon="6.09812">
        <ele>2502</ele>
        <time>2021-02-27T11:40:39Z</time>
      </trkpt>
      <trkpt lat="45.24048" lon="6.09815">
        <ele>2502</ele>
        <time>2021-02-27T11:40:42Z</time>
      </trkpt>
      <trkpt lat="45.24046" lon="6.09818">
        <ele>2502</ele>
        <time>2021-02-27T11:40:45Z</time>
      </trkpt>
      <trkpt lat="45.24046" lon="6.09818">
        <ele>2504</ele>
        <time>2021-02-27T11:40:47Z</time>
      </trkpt>
      <trkpt lat="45.24045" lon="6.09821">
        <ele>2504</ele>
        <time>2021-02-27T11:40:48Z</time>
      </trkpt>
      <trkpt lat="45.24043" lon="6.09823">
        <ele>2504</ele>
        <time>2021-02-27T11:40:51Z</time>
      </trkpt>
      <trkpt lat="45.24043" lon="6.09826">
        <ele>2504</ele>
        <time>2021-02-27T11:40:55Z</time>
      </trkpt>
      <trkpt lat="45.24043" lon="6.09826">
        <ele>2506.2</ele>
        <time>2021-02-27T11:40:57Z</time>
      </trkpt>
      <trkpt lat="45.24045" lon="6.09826">
        <ele>2506.2</ele>
        <time>2021-02-27T11:40:59Z</time>
      </trkpt>
      <trkpt lat="45.24047" lon="6.09825">
        <ele>2506.2</ele>
        <time>2021-02-27T11:41:02Z</time>
      </trkpt>
      <trkpt lat="45.2405" lon="6.09825">
        <ele>2506.2</ele>
        <time>2021-02-27T11:41:05Z</time>
      </trkpt>
      <trkpt lat="45.2405" lon="6.09825">
        <ele>2508.4</ele>
        <time>2021-02-27T11:41:07Z</time>
      </trkpt>
      <trkpt lat="45.24053" lon="6.09823">
        <ele>2508.4</ele>
        <time>2021-02-27T11:41:08Z</time>
      </trkpt>
      <trkpt lat="45.24054" lon="6.09822">
        <ele>2508.4</ele>
        <time>2021-02-27T11:41:11Z</time>
      </trkpt>
      <trkpt lat="45.24056" lon="6.0982">
        <ele>2508.4</ele>
        <time>2021-02-27T11:41:14Z</time>
      </trkpt>
      <trkpt lat="45.24058" lon="6.09819">
        <ele>2510.4</ele>
        <time>2021-02-27T11:41:17Z</time>
      </trkpt>
      <trkpt lat="45.24058" lon="6.09824">
        <ele>2510.4</ele>
        <time>2021-02-27T11:41:24Z</time>
      </trkpt>
      <trkpt lat="45.24057" lon="6.09826">
        <ele>2512.6</ele>
        <time>2021-02-27T11:41:27Z</time>
      </trkpt>
      <trkpt lat="45.24057" lon="6.09829">
        <ele>2512.6</ele>
        <time>2021-02-27T11:41:30Z</time>
      </trkpt>
      <trkpt lat="45.24056" lon="6.09831">
        <ele>2512.6</ele>
        <time>2021-02-27T11:41:33Z</time>
      </trkpt>
      <trkpt lat="45.24055" lon="6.09834">
        <ele>2512.6</ele>
        <time>2021-02-27T11:41:36Z</time>
      </trkpt>
      <trkpt lat="45.24055" lon="6.09836">
        <ele>2516</ele>
        <time>2021-02-27T11:41:37Z</time>
      </trkpt>
      <trkpt lat="45.24054" lon="6.09837">
        <ele>2516</ele>
        <time>2021-02-27T11:41:38Z</time>
      </trkpt>
      <trkpt lat="45.24054" lon="6.09841">
        <ele>2516</ele>
        <time>2021-02-27T11:41:41Z</time>
      </trkpt>
      <trkpt lat="45.24054" lon="6.09841">
        <ele>2517.4</ele>
        <time>2021-02-27T11:41:47Z</time>
      </trkpt>
      <trkpt lat="45.24057" lon="6.09842">
        <ele>2517.4</ele>
        <time>2021-02-27T11:41:48Z</time>
      </trkpt>
      <trkpt lat="45.24059" lon="6.0984">
        <ele>2517.4</ele>
        <time>2021-02-27T11:41:51Z</time>
      </trkpt>
      <trkpt lat="45.24061" lon="6.09839">
        <ele>2517.4</ele>
        <time>2021-02-27T11:41:54Z</time>
      </trkpt>
      <trkpt lat="45.24062" lon="6.09836">
        <ele>2519.2</ele>
        <time>2021-02-27T11:41:57Z</time>
      </trkpt>
      <trkpt lat="45.24063" lon="6.09834">
        <ele>2519.2</ele>
        <time>2021-02-27T11:41:59Z</time>
      </trkpt>
      <trkpt lat="45.24065" lon="6.09832">
        <ele>2519.2</ele>
        <time>2021-02-27T11:42:02Z</time>
      </trkpt>
      <trkpt lat="45.24067" lon="6.09831">
        <ele>2519.2</ele>
        <time>2021-02-27T11:42:05Z</time>
      </trkpt>
      <trkpt lat="45.24067" lon="6.09831">
        <ele>2520.8</ele>
        <time>2021-02-27T11:42:07Z</time>
      </trkpt>
      <trkpt lat="45.24067" lon="6.09834">
        <ele>2520.8</ele>
        <time>2021-02-27T11:42:10Z</time>
      </trkpt>
      <trkpt lat="45.24067" lon="6.09834">
        <ele>2520.6</ele>
        <time>2021-02-27T11:42:17Z</time>
      </trkpt>
      <trkpt lat="45.24067" lon="6.09836">
        <ele>2520.6</ele>
        <time>2021-02-27T11:42:21Z</time>
      </trkpt>
      <trkpt lat="45.24067" lon="6.0984">
        <ele>2520.6</ele>
        <time>2021-02-27T11:42:23Z</time>
      </trkpt>
      <trkpt lat="45.24067" lon="6.09843">
        <ele>2520.6</ele>
        <time>2021-02-27T11:42:25Z</time>
      </trkpt>
      <trkpt lat="45.24066" lon="6.09847">
        <ele>2522</ele>
        <time>2021-02-27T11:42:27Z</time>
      </trkpt>
      <trkpt lat="45.24065" lon="6.0985">
        <ele>2522</ele>
        <time>2021-02-27T11:42:28Z</time>
      </trkpt>
      <trkpt lat="45.24065" lon="6.09853">
        <ele>2522</ele>
        <time>2021-02-27T11:42:30Z</time>
      </trkpt>
      <trkpt lat="45.24063" lon="6.09856">
        <ele>2522</ele>
        <time>2021-02-27T11:42:33Z</time>
      </trkpt>
      <trkpt lat="45.24063" lon="6.09856">
        <ele>2523.8</ele>
        <time>2021-02-27T11:42:37Z</time>
      </trkpt>
      <trkpt lat="45.24066" lon="6.09857">
        <ele>2523.8</ele>
        <time>2021-02-27T11:42:43Z</time>
      </trkpt>
      <trkpt lat="45.24067" lon="6.09857">
        <ele>2523.8</ele>
        <time>2021-02-27T11:42:46Z</time>
      </trkpt>
      <trkpt lat="45.24068" lon="6.09857">
        <ele>2525.8</ele>
        <time>2021-02-27T11:42:47Z</time>
      </trkpt>
      <trkpt lat="45.2407" lon="6.09855">
        <ele>2525.8</ele>
        <time>2021-02-27T11:42:49Z</time>
      </trkpt>
      <trkpt lat="45.24071" lon="6.09852">
        <ele>2525.8</ele>
        <time>2021-02-27T11:42:52Z</time>
      </trkpt>
      <trkpt lat="45.24073" lon="6.0985">
        <ele>2525.8</ele>
        <time>2021-02-27T11:42:55Z</time>
      </trkpt>
      <trkpt lat="45.24073" lon="6.0985">
        <ele>2529.4</ele>
        <time>2021-02-27T11:42:57Z</time>
      </trkpt>
      <trkpt lat="45.24074" lon="6.09847">
        <ele>2529.4</ele>
        <time>2021-02-27T11:42:58Z</time>
      </trkpt>
      <trkpt lat="45.24076" lon="6.09846">
        <ele>2529.4</ele>
        <time>2021-02-27T11:43:01Z</time>
      </trkpt>
      <trkpt lat="45.24075" lon="6.09849">
        <ele>2529.4</ele>
        <time>2021-02-27T11:43:05Z</time>
      </trkpt>
      <trkpt lat="45.24075" lon="6.09852">
        <ele>2531.6</ele>
        <time>2021-02-27T11:43:07Z</time>
      </trkpt>
      <trkpt lat="45.24077" lon="6.09855">
        <ele>2531.6</ele>
        <time>2021-02-27T11:43:10Z</time>
      </trkpt>
      <trkpt lat="45.24076" lon="6.09858">
        <ele>2531.6</ele>
        <time>2021-02-27T11:43:12Z</time>
      </trkpt>
      <trkpt lat="45.24077" lon="6.0986">
        <ele>2531.6</ele>
        <time>2021-02-27T11:43:14Z</time>
      </trkpt>
      <trkpt lat="45.24076" lon="6.09864">
        <ele>2532</ele>
        <time>2021-02-27T11:43:17Z</time>
      </trkpt>
      <trkpt lat="45.24075" lon="6.09867">
        <ele>2532</ele>
        <time>2021-02-27T11:43:20Z</time>
      </trkpt>
      <trkpt lat="45.24075" lon="6.09871">
        <ele>2532</ele>
        <time>2021-02-27T11:43:23Z</time>
      </trkpt>
      <trkpt lat="45.24073" lon="6.09873">
        <ele>2532</ele>
        <time>2021-02-27T11:43:25Z</time>
      </trkpt>
      <trkpt lat="45.24073" lon="6.09873">
        <ele>2533</ele>
        <time>2021-02-27T11:43:27Z</time>
      </trkpt>
      <trkpt lat="45.24073" lon="6.09876">
        <ele>2533</ele>
        <time>2021-02-27T11:43:28Z</time>
      </trkpt>
      <trkpt lat="45.24073" lon="6.09877">
        <ele>2533</ele>
        <time>2021-02-27T11:43:31Z</time>
      </trkpt>
      <trkpt lat="45.24074" lon="6.09877">
        <ele>2533</ele>
        <time>2021-02-27T11:43:36Z</time>
      </trkpt>
      <trkpt lat="45.24074" lon="6.09878">
        <ele>2536.2</ele>
        <time>2021-02-27T11:43:37Z</time>
      </trkpt>
      <trkpt lat="45.24077" lon="6.09877">
        <ele>2536.2</ele>
        <time>2021-02-27T11:43:39Z</time>
      </trkpt>
      <trkpt lat="45.24079" lon="6.09877">
        <ele>2536.2</ele>
        <time>2021-02-27T11:43:42Z</time>
      </trkpt>
      <trkpt lat="45.24081" lon="6.09876">
        <ele>2536.2</ele>
        <time>2021-02-27T11:43:45Z</time>
      </trkpt>
      <trkpt lat="45.24081" lon="6.09876">
        <ele>2535.6</ele>
        <time>2021-02-27T11:43:47Z</time>
      </trkpt>
      <trkpt lat="45.24084" lon="6.09877">
        <ele>2535.6</ele>
        <time>2021-02-27T11:43:48Z</time>
      </trkpt>
      <trkpt lat="45.24085" lon="6.09878">
        <ele>2535.6</ele>
        <time>2021-02-27T11:43:50Z</time>
      </trkpt>
      <trkpt lat="45.24086" lon="6.09879">
        <ele>2535.6</ele>
        <time>2021-02-27T11:43:53Z</time>
      </trkpt>
      <trkpt lat="45.24087" lon="6.0988">
        <ele>2535.6</ele>
        <time>2021-02-27T11:43:56Z</time>
      </trkpt>
      <trkpt lat="45.24088" lon="6.09881">
        <ele>2537.4</ele>
        <time>2021-02-27T11:43:57Z</time>
      </trkpt>
      <trkpt lat="45.24087" lon="6.09884">
        <ele>2537.4</ele>
        <time>2021-02-27T11:43:58Z</time>
      </trkpt>
      <trkpt lat="45.24087" lon="6.09886">
        <ele>2537.4</ele>
        <time>2021-02-27T11:44:00Z</time>
      </trkpt>
      <trkpt lat="45.24086" lon="6.0989">
        <ele>2537.4</ele>
        <time>2021-02-27T11:44:03Z</time>
      </trkpt>
      <trkpt lat="45.24086" lon="6.09893">
        <ele>2537.4</ele>
        <time>2021-02-27T11:44:05Z</time>
      </trkpt>
      <trkpt lat="45.24085" lon="6.09895">
        <ele>2540</ele>
        <time>2021-02-27T11:44:07Z</time>
      </trkpt>
      <trkpt lat="45.24083" lon="6.09898">
        <ele>2540</ele>
        <time>2021-02-27T11:44:09Z</time>
      </trkpt>
      <trkpt lat="45.24083" lon="6.09901">
        <ele>2540</ele>
        <time>2021-02-27T11:44:15Z</time>
      </trkpt>
      <trkpt lat="45.24083" lon="6.09901">
        <ele>2541</ele>
        <time>2021-02-27T11:44:17Z</time>
      </trkpt>
      <trkpt lat="45.24085" lon="6.09903">
        <ele>2541</ele>
        <time>2021-02-27T11:44:18Z</time>
      </trkpt>
      <trkpt lat="45.24085" lon="6.09905">
        <ele>2541</ele>
        <time>2021-02-27T11:44:22Z</time>
      </trkpt>
      <trkpt lat="45.24085" lon="6.09908">
        <ele>2541</ele>
        <time>2021-02-27T11:44:25Z</time>
      </trkpt>
      <trkpt lat="45.24085" lon="6.09908">
        <ele>2543.4</ele>
        <time>2021-02-27T11:44:27Z</time>
      </trkpt>
      <trkpt lat="45.24086" lon="6.0991">
        <ele>2543.4</ele>
        <time>2021-02-27T11:44:32Z</time>
      </trkpt>
      <trkpt lat="45.24088" lon="6.0991">
        <ele>2543.4</ele>
        <time>2021-02-27T11:44:35Z</time>
      </trkpt>
      <trkpt lat="45.24088" lon="6.0991">
        <ele>2546</ele>
        <time>2021-02-27T11:44:37Z</time>
      </trkpt>
      <trkpt lat="45.24088" lon="6.09914">
        <ele>2546</ele>
        <time>2021-02-27T11:44:39Z</time>
      </trkpt>
      <trkpt lat="45.24088" lon="6.09916">
        <ele>2546</ele>
        <time>2021-02-27T11:44:42Z</time>
      </trkpt>
      <trkpt lat="45.24091" lon="6.09919">
        <ele>2548.6</ele>
        <time>2021-02-27T11:44:47Z</time>
      </trkpt>
      <trkpt lat="45.24093" lon="6.09918">
        <ele>2548.6</ele>
        <time>2021-02-27T11:44:49Z</time>
      </trkpt>
      <trkpt lat="45.24094" lon="6.09918">
        <ele>2548.6</ele>
        <time>2021-02-27T11:44:51Z</time>
      </trkpt>
      <trkpt lat="45.24097" lon="6.0992">
        <ele>2548.6</ele>
        <time>2021-02-27T11:44:54Z</time>
      </trkpt>
      <trkpt lat="45.24098" lon="6.09923">
        <ele>2550.4</ele>
        <time>2021-02-27T11:44:57Z</time>
      </trkpt>
      <trkpt lat="45.24096" lon="6.09926">
        <ele>2550.4</ele>
        <time>2021-02-27T11:45:00Z</time>
      </trkpt>
      <trkpt lat="45.24097" lon="6.09929">
        <ele>2550.4</ele>
        <time>2021-02-27T11:45:02Z</time>
      </trkpt>
      <trkpt lat="45.24096" lon="6.09932">
        <ele>2550.4</ele>
        <time>2021-02-27T11:45:05Z</time>
      </trkpt>
      <trkpt lat="45.24096" lon="6.09932">
        <ele>2552.8</ele>
        <time>2021-02-27T11:45:07Z</time>
      </trkpt>
      <trkpt lat="45.24098" lon="6.09935">
        <ele>2552.8</ele>
        <time>2021-02-27T11:45:11Z</time>
      </trkpt>
      <trkpt lat="45.24099" lon="6.09938">
        <ele>2552.8</ele>
        <time>2021-02-27T11:45:13Z</time>
      </trkpt>
      <trkpt lat="45.24102" lon="6.09938">
        <ele>2552.8</ele>
        <time>2021-02-27T11:45:15Z</time>
      </trkpt>
      <trkpt lat="45.24102" lon="6.09938">
        <ele>2555</ele>
        <time>2021-02-27T11:45:17Z</time>
      </trkpt>
      <trkpt lat="45.24104" lon="6.09938">
        <ele>2555</ele>
        <time>2021-02-27T11:45:18Z</time>
      </trkpt>
      <trkpt lat="45.24104" lon="6.09942">
        <ele>2555</ele>
        <time>2021-02-27T11:45:21Z</time>
      </trkpt>
      <trkpt lat="45.24103" lon="6.09945">
        <ele>2555</ele>
        <time>2021-02-27T11:45:23Z</time>
      </trkpt>
      <trkpt lat="45.24102" lon="6.09948">
        <ele>2555</ele>
        <time>2021-02-27T11:45:25Z</time>
      </trkpt>
      <trkpt lat="45.24102" lon="6.09948">
        <ele>2557.8</ele>
        <time>2021-02-27T11:45:27Z</time>
      </trkpt>
      <trkpt lat="45.241" lon="6.0995">
        <ele>2557.8</ele>
        <time>2021-02-27T11:45:29Z</time>
      </trkpt>
      <trkpt lat="45.24098" lon="6.09951">
        <ele>2557.8</ele>
        <time>2021-02-27T11:45:32Z</time>
      </trkpt>
      <trkpt lat="45.24096" lon="6.09952">
        <ele>2557.8</ele>
        <time>2021-02-27T11:45:35Z</time>
      </trkpt>
      <trkpt lat="45.24093" lon="6.09955">
        <ele>2559.2</ele>
        <time>2021-02-27T11:45:37Z</time>
      </trkpt>
      <trkpt lat="45.24091" lon="6.09957">
        <ele>2559.2</ele>
        <time>2021-02-27T11:45:39Z</time>
      </trkpt>
      <trkpt lat="45.24089" lon="6.09958">
        <ele>2559.2</ele>
        <time>2021-02-27T11:45:41Z</time>
      </trkpt>
      <trkpt lat="45.24088" lon="6.09961">
        <ele>2559.2</ele>
        <time>2021-02-27T11:45:44Z</time>
      </trkpt>
      <trkpt lat="45.24085" lon="6.09962">
        <ele>2561.6</ele>
        <time>2021-02-27T11:45:47Z</time>
      </trkpt>
      <trkpt lat="45.24083" lon="6.09963">
        <ele>2561.6</ele>
        <time>2021-02-27T11:45:49Z</time>
      </trkpt>
      <trkpt lat="45.24081" lon="6.09964">
        <ele>2561.6</ele>
        <time>2021-02-27T11:45:54Z</time>
      </trkpt>
      <trkpt lat="45.24081" lon="6.09964">
        <ele>2562.2</ele>
        <time>2021-02-27T11:45:57Z</time>
      </trkpt>
      <trkpt lat="45.24079" lon="6.09965">
        <ele>2562.2</ele>
        <time>2021-02-27T11:45:58Z</time>
      </trkpt>
      <trkpt lat="45.24078" lon="6.09967">
        <ele>2562.2</ele>
        <time>2021-02-27T11:46:02Z</time>
      </trkpt>
      <trkpt lat="45.24076" lon="6.09969">
        <ele>2562.2</ele>
        <time>2021-02-27T11:46:05Z</time>
      </trkpt>
      <trkpt lat="45.24076" lon="6.09969">
        <ele>2563.4</ele>
        <time>2021-02-27T11:46:07Z</time>
      </trkpt>
      <trkpt lat="45.24075" lon="6.09972">
        <ele>2563.4</ele>
        <time>2021-02-27T11:46:08Z</time>
      </trkpt>
      <trkpt lat="45.24074" lon="6.09974">
        <ele>2563.4</ele>
        <time>2021-02-27T11:46:11Z</time>
      </trkpt>
      <trkpt lat="45.24073" lon="6.09976">
        <ele>2563.4</ele>
        <time>2021-02-27T11:46:13Z</time>
      </trkpt>
      <trkpt lat="45.24071" lon="6.09978">
        <ele>2564.6</ele>
        <time>2021-02-27T11:46:17Z</time>
      </trkpt>
      <trkpt lat="45.24069" lon="6.09979">
        <ele>2564.6</ele>
        <time>2021-02-27T11:46:21Z</time>
      </trkpt>
      <trkpt lat="45.24067" lon="6.09981">
        <ele>2564.6</ele>
        <time>2021-02-27T11:46:23Z</time>
      </trkpt>
      <trkpt lat="45.24065" lon="6.09983">
        <ele>2564.6</ele>
        <time>2021-02-27T11:46:25Z</time>
      </trkpt>
      <trkpt lat="45.24063" lon="6.09985">
        <ele>2563.8</ele>
        <time>2021-02-27T11:46:27Z</time>
      </trkpt>
      <trkpt lat="45.24061" lon="6.09986">
        <ele>2563.8</ele>
        <time>2021-02-27T11:46:29Z</time>
      </trkpt>
      <trkpt lat="45.24059" lon="6.09987">
        <ele>2563.8</ele>
        <time>2021-02-27T11:46:32Z</time>
      </trkpt>
      <trkpt lat="45.24057" lon="6.09989">
        <ele>2563.8</ele>
        <time>2021-02-27T11:46:35Z</time>
      </trkpt>
      <trkpt lat="45.24057" lon="6.09989">
        <ele>2564.2</ele>
        <time>2021-02-27T11:46:37Z</time>
      </trkpt>
      <trkpt lat="45.24054" lon="6.0999">
        <ele>2564.2</ele>
        <time>2021-02-27T11:46:38Z</time>
      </trkpt>
      <trkpt lat="45.24053" lon="6.09991">
        <ele>2564.2</ele>
        <time>2021-02-27T11:46:40Z</time>
      </trkpt>
      <trkpt lat="45.24051" lon="6.09993">
        <ele>2564.2</ele>
        <time>2021-02-27T11:46:43Z</time>
      </trkpt>
      <trkpt lat="45.24048" lon="6.09994">
        <ele>2564.2</ele>
        <time>2021-02-27T11:46:45Z</time>
      </trkpt>
      <trkpt lat="45.24048" lon="6.09994">
        <ele>2565.2</ele>
        <time>2021-02-27T11:46:47Z</time>
      </trkpt>
      <trkpt lat="45.24046" lon="6.09994">
        <ele>2565.2</ele>
        <time>2021-02-27T11:46:48Z</time>
      </trkpt>
      <trkpt lat="45.24045" lon="6.09995">
        <ele>2565.2</ele>
        <time>2021-02-27T11:46:51Z</time>
      </trkpt>
      <trkpt lat="45.24043" lon="6.09996">
        <ele>2565.2</ele>
        <time>2021-02-27T11:46:53Z</time>
      </trkpt>
      <trkpt lat="45.2404" lon="6.09997">
        <ele>2565.2</ele>
        <time>2021-02-27T11:46:55Z</time>
      </trkpt>
      <trkpt lat="45.2404" lon="6.09997">
        <ele>2567</ele>
        <time>2021-02-27T11:46:57Z</time>
      </trkpt>
      <trkpt lat="45.24038" lon="6.09999">
        <ele>2567</ele>
        <time>2021-02-27T11:46:58Z</time>
      </trkpt>
      <trkpt lat="45.24036" lon="6.1">
        <ele>2567</ele>
        <time>2021-02-27T11:47:00Z</time>
      </trkpt>
      <trkpt lat="45.24033" lon="6.10002">
        <ele>2567</ele>
        <time>2021-02-27T11:47:02Z</time>
      </trkpt>
      <trkpt lat="45.24031" lon="6.10004">
        <ele>2567</ele>
        <time>2021-02-27T11:47:04Z</time>
      </trkpt>
      <trkpt lat="45.24029" lon="6.10006">
        <ele>2567</ele>
        <time>2021-02-27T11:47:05Z</time>
      </trkpt>
      <trkpt lat="45.24027" lon="6.10007">
        <ele>2569.8</ele>
        <time>2021-02-27T11:47:07Z</time>
      </trkpt>
      <trkpt lat="45.24025" lon="6.10008">
        <ele>2569.8</ele>
        <time>2021-02-27T11:47:09Z</time>
      </trkpt>
      <trkpt lat="45.24023" lon="6.1001">
        <ele>2569.8</ele>
        <time>2021-02-27T11:47:11Z</time>
      </trkpt>
      <trkpt lat="45.24021" lon="6.10011">
        <ele>2569.8</ele>
        <time>2021-02-27T11:47:13Z</time>
      </trkpt>
      <trkpt lat="45.24018" lon="6.10012">
        <ele>2569.8</ele>
        <time>2021-02-27T11:47:15Z</time>
      </trkpt>
      <trkpt lat="45.24016" lon="6.10012">
        <ele>2570.8</ele>
        <time>2021-02-27T11:47:17Z</time>
      </trkpt>
      <trkpt lat="45.24013" lon="6.10013">
        <ele>2570.8</ele>
        <time>2021-02-27T11:47:21Z</time>
      </trkpt>
      <trkpt lat="45.24012" lon="6.10014">
        <ele>2570.8</ele>
        <time>2021-02-27T11:47:23Z</time>
      </trkpt>
      <trkpt lat="45.2401" lon="6.10014">
        <ele>2570.8</ele>
        <time>2021-02-27T11:47:25Z</time>
      </trkpt>
      <trkpt lat="45.2401" lon="6.10014">
        <ele>2574.2</ele>
        <time>2021-02-27T11:47:27Z</time>
      </trkpt>
      <trkpt lat="45.24007" lon="6.10014">
        <ele>2574.2</ele>
        <time>2021-02-27T11:47:28Z</time>
      </trkpt>
      <trkpt lat="45.24005" lon="6.10015">
        <ele>2574.2</ele>
        <time>2021-02-27T11:47:30Z</time>
      </trkpt>
      <trkpt lat="45.24004" lon="6.10016">
        <ele>2574.2</ele>
        <time>2021-02-27T11:47:32Z</time>
      </trkpt>
      <trkpt lat="45.24001" lon="6.10017">
        <ele>2574.2</ele>
        <time>2021-02-27T11:47:34Z</time>
      </trkpt>
      <trkpt lat="45.23999" lon="6.10019">
        <ele>2574.4</ele>
        <time>2021-02-27T11:47:37Z</time>
      </trkpt>
      <trkpt lat="45.23997" lon="6.1002">
        <ele>2574.4</ele>
        <time>2021-02-27T11:47:39Z</time>
      </trkpt>
      <trkpt lat="45.23996" lon="6.10022">
        <ele>2574.4</ele>
        <time>2021-02-27T11:47:41Z</time>
      </trkpt>
      <trkpt lat="45.23994" lon="6.10024">
        <ele>2574.4</ele>
        <time>2021-02-27T11:47:44Z</time>
      </trkpt>
      <trkpt lat="45.23992" lon="6.10026">
        <ele>2576.2</ele>
        <time>2021-02-27T11:47:47Z</time>
      </trkpt>
      <trkpt lat="45.2399" lon="6.1003">
        <ele>2576.2</ele>
        <time>2021-02-27T11:47:51Z</time>
      </trkpt>
      <trkpt lat="45.23989" lon="6.10031">
        <ele>2576.2</ele>
        <time>2021-02-27T11:47:54Z</time>
      </trkpt>
      <trkpt lat="45.23988" lon="6.10032">
        <ele>2576.2</ele>
        <time>2021-02-27T11:47:56Z</time>
      </trkpt>
      <trkpt lat="45.23987" lon="6.10033">
        <ele>2578</ele>
        <time>2021-02-27T11:47:57Z</time>
      </trkpt>
      <trkpt lat="45.23985" lon="6.10036">
        <ele>2578</ele>
        <time>2021-02-27T11:47:59Z</time>
      </trkpt>
      <trkpt lat="45.23984" lon="6.10038">
        <ele>2578</ele>
        <time>2021-02-27T11:48:03Z</time>
      </trkpt>
      <trkpt lat="45.23983" lon="6.10039">
        <ele>2577.8</ele>
        <time>2021-02-27T11:48:07Z</time>
      </trkpt>
      <trkpt lat="45.23983" lon="6.10041">
        <ele>2577.8</ele>
        <time>2021-02-27T11:48:12Z</time>
      </trkpt>
      <trkpt lat="45.23982" lon="6.10043">
        <ele>2577.8</ele>
        <time>2021-02-27T11:48:14Z</time>
      </trkpt>
      <trkpt lat="45.23981" lon="6.10045">
        <ele>2577.8</ele>
        <time>2021-02-27T11:48:16Z</time>
      </trkpt>
      <trkpt lat="45.23981" lon="6.10046">
        <ele>2581.8</ele>
        <time>2021-02-27T11:48:17Z</time>
      </trkpt>
      <trkpt lat="45.23978" lon="6.10051">
        <ele>2581.8</ele>
        <time>2021-02-27T11:48:18Z</time>
      </trkpt>
      <trkpt lat="45.23977" lon="6.10052">
        <ele>2581.8</ele>
        <time>2021-02-27T11:48:20Z</time>
      </trkpt>
      <trkpt lat="45.23977" lon="6.10054">
        <ele>2581.8</ele>
        <time>2021-02-27T11:48:23Z</time>
      </trkpt>
      <trkpt lat="45.23976" lon="6.10056">
        <ele>2581.8</ele>
        <time>2021-02-27T11:48:26Z</time>
      </trkpt>
      <trkpt lat="45.23975" lon="6.10058">
        <ele>2585.8</ele>
        <time>2021-02-27T11:48:27Z</time>
      </trkpt>
      <trkpt lat="45.23973" lon="6.1006">
        <ele>2585.8</ele>
        <time>2021-02-27T11:48:28Z</time>
      </trkpt>
      <trkpt lat="45.23973" lon="6.10064">
        <ele>2585.8</ele>
        <time>2021-02-27T11:48:31Z</time>
      </trkpt>
      <trkpt lat="45.23972" lon="6.10066">
        <ele>2585.8</ele>
        <time>2021-02-27T11:48:33Z</time>
      </trkpt>
      <trkpt lat="45.23971" lon="6.10069">
        <ele>2585.8</ele>
        <time>2021-02-27T11:48:35Z</time>
      </trkpt>
      <trkpt lat="45.23968" lon="6.10071">
        <ele>2586.6</ele>
        <time>2021-02-27T11:48:37Z</time>
      </trkpt>
      <trkpt lat="45.23967" lon="6.10073">
        <ele>2586.6</ele>
        <time>2021-02-27T11:48:39Z</time>
      </trkpt>
      <trkpt lat="45.23965" lon="6.10076">
        <ele>2586.6</ele>
        <time>2021-02-27T11:48:41Z</time>
      </trkpt>
      <trkpt lat="45.23964" lon="6.10078">
        <ele>2586.6</ele>
        <time>2021-02-27T11:48:43Z</time>
      </trkpt>
      <trkpt lat="45.23963" lon="6.10081">
        <ele>2586.6</ele>
        <time>2021-02-27T11:48:45Z</time>
      </trkpt>
      <trkpt lat="45.23962" lon="6.10083">
        <ele>2587.6</ele>
        <time>2021-02-27T11:48:47Z</time>
      </trkpt>
      <trkpt lat="45.23961" lon="6.10085">
        <ele>2587.6</ele>
        <time>2021-02-27T11:48:49Z</time>
      </trkpt>
      <trkpt lat="45.23959" lon="6.10089">
        <ele>2587.6</ele>
        <time>2021-02-27T11:48:52Z</time>
      </trkpt>
      <trkpt lat="45.23958" lon="6.10092">
        <ele>2587.6</ele>
        <time>2021-02-27T11:48:55Z</time>
      </trkpt>
      <trkpt lat="45.23957" lon="6.10094">
        <ele>2590.2</ele>
        <time>2021-02-27T11:48:57Z</time>
      </trkpt>
      <trkpt lat="45.23956" lon="6.10097">
        <ele>2590.2</ele>
        <time>2021-02-27T11:49:00Z</time>
      </trkpt>
      <trkpt lat="45.23955" lon="6.101">
        <ele>2590.2</ele>
        <time>2021-02-27T11:49:02Z</time>
      </trkpt>
      <trkpt lat="45.23954" lon="6.10103">
        <ele>2590.2</ele>
        <time>2021-02-27T11:49:05Z</time>
      </trkpt>
      <trkpt lat="45.23954" lon="6.10103">
        <ele>2592.2</ele>
        <time>2021-02-27T11:49:07Z</time>
      </trkpt>
      <trkpt lat="45.23953" lon="6.10107">
        <ele>2592.2</ele>
        <time>2021-02-27T11:49:08Z</time>
      </trkpt>
      <trkpt lat="45.23953" lon="6.1011">
        <ele>2592.2</ele>
        <time>2021-02-27T11:49:10Z</time>
      </trkpt>
      <trkpt lat="45.23952" lon="6.10112">
        <ele>2592.2</ele>
        <time>2021-02-27T11:49:12Z</time>
      </trkpt>
      <trkpt lat="45.23951" lon="6.10116">
        <ele>2592.2</ele>
        <time>2021-02-27T11:49:14Z</time>
      </trkpt>
      <trkpt lat="45.2395" lon="6.10119">
        <ele>2595</ele>
        <time>2021-02-27T11:49:17Z</time>
      </trkpt>
      <trkpt lat="45.23948" lon="6.10123">
        <ele>2595</ele>
        <time>2021-02-27T11:49:19Z</time>
      </trkpt>
      <trkpt lat="45.23948" lon="6.10125">
        <ele>2595</ele>
        <time>2021-02-27T11:49:21Z</time>
      </trkpt>
      <trkpt lat="45.23948" lon="6.10127">
        <ele>2595</ele>
        <time>2021-02-27T11:49:24Z</time>
      </trkpt>
      <trkpt lat="45.23947" lon="6.10129">
        <ele>2595</ele>
        <time>2021-02-27T11:49:26Z</time>
      </trkpt>
      <trkpt lat="45.23947" lon="6.10131">
        <ele>2598.8</ele>
        <time>2021-02-27T11:49:27Z</time>
      </trkpt>
      <trkpt lat="45.23946" lon="6.10132">
        <ele>2598.8</ele>
        <time>2021-02-27T11:49:28Z</time>
      </trkpt>
      <trkpt lat="45.23944" lon="6.10136">
        <ele>2598.8</ele>
        <time>2021-02-27T11:49:31Z</time>
      </trkpt>
      <trkpt lat="45.23943" lon="6.10138">
        <ele>2598.8</ele>
        <time>2021-02-27T11:49:33Z</time>
      </trkpt>
      <trkpt lat="45.23941" lon="6.10141">
        <ele>2598.8</ele>
        <time>2021-02-27T11:49:35Z</time>
      </trkpt>
      <trkpt lat="45.23941" lon="6.10141">
        <ele>2600.2</ele>
        <time>2021-02-27T11:49:37Z</time>
      </trkpt>
      <trkpt lat="45.2394" lon="6.10145">
        <ele>2600.2</ele>
        <time>2021-02-27T11:49:38Z</time>
      </trkpt>
      <trkpt lat="45.2394" lon="6.10146">
        <ele>2600.2</ele>
        <time>2021-02-27T11:49:41Z</time>
      </trkpt>
      <trkpt lat="45.23939" lon="6.10148">
        <ele>2600.2</ele>
        <time>2021-02-27T11:49:44Z</time>
      </trkpt>
      <trkpt lat="45.23939" lon="6.1015">
        <ele>2600.2</ele>
        <time>2021-02-27T11:49:46Z</time>
      </trkpt>
      <trkpt lat="45.23938" lon="6.10151">
        <ele>2602</ele>
        <time>2021-02-27T11:49:47Z</time>
      </trkpt>
      <trkpt lat="45.23938" lon="6.10154">
        <ele>2602</ele>
        <time>2021-02-27T11:49:49Z</time>
      </trkpt>
      <trkpt lat="45.23938" lon="6.10157">
        <ele>2602</ele>
        <time>2021-02-27T11:49:52Z</time>
      </trkpt>
      <trkpt lat="45.23938" lon="6.1016">
        <ele>2602</ele>
        <time>2021-02-27T11:49:55Z</time>
      </trkpt>
      <trkpt lat="45.23938" lon="6.1016">
        <ele>2605</ele>
        <time>2021-02-27T11:49:57Z</time>
      </trkpt>
      <trkpt lat="45.23938" lon="6.10163">
        <ele>2605</ele>
        <time>2021-02-27T11:49:58Z</time>
      </trkpt>
      <trkpt lat="45.23937" lon="6.10166">
        <ele>2605</ele>
        <time>2021-02-27T11:50:01Z</time>
      </trkpt>
      <trkpt lat="45.23937" lon="6.10169">
        <ele>2605</ele>
        <time>2021-02-27T11:50:04Z</time>
      </trkpt>
      <trkpt lat="45.23936" lon="6.10173">
        <ele>2606.6</ele>
        <time>2021-02-27T11:50:07Z</time>
      </trkpt>
      <trkpt lat="45.23937" lon="6.10175">
        <ele>2606.6</ele>
        <time>2021-02-27T11:50:09Z</time>
      </trkpt>
      <trkpt lat="45.23937" lon="6.10178">
        <ele>2606.6</ele>
        <time>2021-02-27T11:50:12Z</time>
      </trkpt>
      <trkpt lat="45.23936" lon="6.10182">
        <ele>2606.6</ele>
        <time>2021-02-27T11:50:15Z</time>
      </trkpt>
      <trkpt lat="45.23936" lon="6.10182">
        <ele>2608.8</ele>
        <time>2021-02-27T11:50:17Z</time>
      </trkpt>
      <trkpt lat="45.23935" lon="6.10187">
        <ele>2608.8</ele>
        <time>2021-02-27T11:50:18Z</time>
      </trkpt>
      <trkpt lat="45.23935" lon="6.10189">
        <ele>2608.8</ele>
        <time>2021-02-27T11:50:21Z</time>
      </trkpt>
      <trkpt lat="45.23935" lon="6.10191">
        <ele>2608.8</ele>
        <time>2021-02-27T11:50:24Z</time>
      </trkpt>
      <trkpt lat="45.23935" lon="6.10193">
        <ele>2608.8</ele>
        <time>2021-02-27T11:50:26Z</time>
      </trkpt>
      <trkpt lat="45.23934" lon="6.10195">
        <ele>2610.8</ele>
        <time>2021-02-27T11:50:27Z</time>
      </trkpt>
      <trkpt lat="45.23934" lon="6.10198">
        <ele>2610.8</ele>
        <time>2021-02-27T11:50:29Z</time>
      </trkpt>
      <trkpt lat="45.23933" lon="6.10201">
        <ele>2610.8</ele>
        <time>2021-02-27T11:50:31Z</time>
      </trkpt>
      <trkpt lat="45.23933" lon="6.10204">
        <ele>2610.8</ele>
        <time>2021-02-27T11:50:34Z</time>
      </trkpt>
      <trkpt lat="45.23932" lon="6.10208">
        <ele>2611.6</ele>
        <time>2021-02-27T11:50:37Z</time>
      </trkpt>
      <trkpt lat="45.23933" lon="6.10212">
        <ele>2611.6</ele>
        <time>2021-02-27T11:50:40Z</time>
      </trkpt>
      <trkpt lat="45.23933" lon="6.10213">
        <ele>2611.6</ele>
        <time>2021-02-27T11:50:43Z</time>
      </trkpt>
      <trkpt lat="45.23933" lon="6.10214">
        <ele>2611.6</ele>
        <time>2021-02-27T11:50:46Z</time>
      </trkpt>
      <trkpt lat="45.23934" lon="6.10216">
        <ele>2614.2</ele>
        <time>2021-02-27T11:50:47Z</time>
      </trkpt>
      <trkpt lat="45.23932" lon="6.1022">
        <ele>2614.2</ele>
        <time>2021-02-27T11:50:48Z</time>
      </trkpt>
      <trkpt lat="45.23932" lon="6.10221">
        <ele>2614.2</ele>
        <time>2021-02-27T11:50:51Z</time>
      </trkpt>
      <trkpt lat="45.23931" lon="6.10223">
        <ele>2614.2</ele>
        <time>2021-02-27T11:50:54Z</time>
      </trkpt>
      <trkpt lat="45.2393" lon="6.10225">
        <ele>2614.2</ele>
        <time>2021-02-27T11:50:56Z</time>
      </trkpt>
      <trkpt lat="45.2393" lon="6.10226">
        <ele>2617</ele>
        <time>2021-02-27T11:50:57Z</time>
      </trkpt>
      <trkpt lat="45.23929" lon="6.10229">
        <ele>2617</ele>
        <time>2021-02-27T11:50:59Z</time>
      </trkpt>
      <trkpt lat="45.23928" lon="6.10232">
        <ele>2617</ele>
        <time>2021-02-27T11:51:02Z</time>
      </trkpt>
      <trkpt lat="45.23928" lon="6.10235">
        <ele>2617</ele>
        <time>2021-02-27T11:51:05Z</time>
      </trkpt>
      <trkpt lat="45.23928" lon="6.10235">
        <ele>2619</ele>
        <time>2021-02-27T11:51:07Z</time>
      </trkpt>
      <trkpt lat="45.23928" lon="6.10238">
        <ele>2619</ele>
        <time>2021-02-27T11:51:08Z</time>
      </trkpt>
      <trkpt lat="45.23928" lon="6.1024">
        <ele>2619</ele>
        <time>2021-02-27T11:51:11Z</time>
      </trkpt>
      <trkpt lat="45.23928" lon="6.10243">
        <ele>2619</ele>
        <time>2021-02-27T11:51:14Z</time>
      </trkpt>
      <trkpt lat="45.23928" lon="6.10246">
        <ele>2620.6</ele>
        <time>2021-02-27T11:51:17Z</time>
      </trkpt>
      <trkpt lat="45.23928" lon="6.10249">
        <ele>2620.6</ele>
        <time>2021-02-27T11:51:20Z</time>
      </trkpt>
      <trkpt lat="45.23928" lon="6.10252">
        <ele>2620.6</ele>
        <time>2021-02-27T11:51:22Z</time>
      </trkpt>
      <trkpt lat="45.23928" lon="6.10255">
        <ele>2620.6</ele>
        <time>2021-02-27T11:51:25Z</time>
      </trkpt>
      <trkpt lat="45.23929" lon="6.10257">
        <ele>2622.2</ele>
        <time>2021-02-27T11:51:27Z</time>
      </trkpt>
      <trkpt lat="45.23929" lon="6.10262">
        <ele>2622.2</ele>
        <time>2021-02-27T11:51:30Z</time>
      </trkpt>
      <trkpt lat="45.23929" lon="6.10264">
        <ele>2622.2</ele>
        <time>2021-02-27T11:51:33Z</time>
      </trkpt>
      <trkpt lat="45.23929" lon="6.10266">
        <ele>2622.2</ele>
        <time>2021-02-27T11:51:36Z</time>
      </trkpt>
      <trkpt lat="45.23929" lon="6.10267">
        <ele>2623.4</ele>
        <time>2021-02-27T11:51:37Z</time>
      </trkpt>
      <trkpt lat="45.23929" lon="6.1027">
        <ele>2623.4</ele>
        <time>2021-02-27T11:51:40Z</time>
      </trkpt>
      <trkpt lat="45.23929" lon="6.10274">
        <ele>2623.4</ele>
        <time>2021-02-27T11:51:44Z</time>
      </trkpt>
      <trkpt lat="45.23929" lon="6.10274">
        <ele>2624.2</ele>
        <time>2021-02-27T11:51:47Z</time>
      </trkpt>
      <trkpt lat="45.23929" lon="6.10277">
        <ele>2624.2</ele>
        <time>2021-02-27T11:51:48Z</time>
      </trkpt>
      <trkpt lat="45.23929" lon="6.10279">
        <ele>2624.2</ele>
        <time>2021-02-27T11:51:51Z</time>
      </trkpt>
      <trkpt lat="45.23929" lon="6.10282">
        <ele>2624.2</ele>
        <time>2021-02-27T11:51:54Z</time>
      </trkpt>
      <trkpt lat="45.23929" lon="6.10282">
        <ele>2628</ele>
        <time>2021-02-27T11:51:57Z</time>
      </trkpt>
      <trkpt lat="45.23929" lon="6.10285">
        <ele>2628</ele>
        <time>2021-02-27T11:51:58Z</time>
      </trkpt>
      <trkpt lat="45.23929" lon="6.10288">
        <ele>2628</ele>
        <time>2021-02-27T11:52:01Z</time>
      </trkpt>
      <trkpt lat="45.23929" lon="6.10291">
        <ele>2628</ele>
        <time>2021-02-27T11:52:05Z</time>
      </trkpt>
      <trkpt lat="45.23929" lon="6.10291">
        <ele>2629.6</ele>
        <time>2021-02-27T11:52:07Z</time>
      </trkpt>
      <trkpt lat="45.23929" lon="6.10296">
        <ele>2629.6</ele>
        <time>2021-02-27T11:52:09Z</time>
      </trkpt>
      <trkpt lat="45.23928" lon="6.10298">
        <ele>2629.6</ele>
        <time>2021-02-27T11:52:11Z</time>
      </trkpt>
      <trkpt lat="45.23928" lon="6.10299">
        <ele>2629.6</ele>
        <time>2021-02-27T11:52:14Z</time>
      </trkpt>
      <trkpt lat="45.23928" lon="6.10301">
        <ele>2629.6</ele>
        <time>2021-02-27T11:52:16Z</time>
      </trkpt>
      <trkpt lat="45.23927" lon="6.10302">
        <ele>2632.4</ele>
        <time>2021-02-27T11:52:17Z</time>
      </trkpt>
      <trkpt lat="45.23927" lon="6.10307">
        <ele>2632.4</ele>
        <time>2021-02-27T11:52:19Z</time>
      </trkpt>
      <trkpt lat="45.23927" lon="6.10308">
        <ele>2632.4</ele>
        <time>2021-02-27T11:52:23Z</time>
      </trkpt>
      <trkpt lat="45.23928" lon="6.1031">
        <ele>2632.4</ele>
        <time>2021-02-27T11:52:26Z</time>
      </trkpt>
      <trkpt lat="45.23928" lon="6.10311">
        <ele>2634.2</ele>
        <time>2021-02-27T11:52:27Z</time>
      </trkpt>
      <trkpt lat="45.23928" lon="6.10316">
        <ele>2634.2</ele>
        <time>2021-02-27T11:52:30Z</time>
      </trkpt>
      <trkpt lat="45.23928" lon="6.10317">
        <ele>2634.2</ele>
        <time>2021-02-27T11:52:33Z</time>
      </trkpt>
      <trkpt lat="45.23929" lon="6.10318">
        <ele>2634.2</ele>
        <time>2021-02-27T11:52:36Z</time>
      </trkpt>
      <trkpt lat="45.23929" lon="6.1032">
        <ele>2636.2</ele>
        <time>2021-02-27T11:52:37Z</time>
      </trkpt>
      <trkpt lat="45.23929" lon="6.10323">
        <ele>2636.2</ele>
        <time>2021-02-27T11:52:39Z</time>
      </trkpt>
      <trkpt lat="45.23928" lon="6.10326">
        <ele>2636.2</ele>
        <time>2021-02-27T11:52:42Z</time>
      </trkpt>
      <trkpt lat="45.23928" lon="6.10329">
        <ele>2636.2</ele>
        <time>2021-02-27T11:52:45Z</time>
      </trkpt>
      <trkpt lat="45.23928" lon="6.10329">
        <ele>2640.4</ele>
        <time>2021-02-27T11:52:47Z</time>
      </trkpt>
      <trkpt lat="45.23929" lon="6.10333">
        <ele>2640.4</ele>
        <time>2021-02-27T11:52:48Z</time>
      </trkpt>
      <trkpt lat="45.2393" lon="6.10335">
        <ele>2640.4</ele>
        <time>2021-02-27T11:52:51Z</time>
      </trkpt>
      <trkpt lat="45.2393" lon="6.10336">
        <ele>2640.4</ele>
        <time>2021-02-27T11:52:54Z</time>
      </trkpt>
      <trkpt lat="45.23931" lon="6.10338">
        <ele>2640.4</ele>
        <time>2021-02-27T11:52:56Z</time>
      </trkpt>
      <trkpt lat="45.23931" lon="6.10339">
        <ele>2643.2</ele>
        <time>2021-02-27T11:52:57Z</time>
      </trkpt>
      <trkpt lat="45.23931" lon="6.10345">
        <ele>2643.2</ele>
        <time>2021-02-27T11:52:59Z</time>
      </trkpt>
      <trkpt lat="45.23931" lon="6.10347">
        <ele>2643.2</ele>
        <time>2021-02-27T11:53:02Z</time>
      </trkpt>
      <trkpt lat="45.23931" lon="6.10349">
        <ele>2646.6</ele>
        <time>2021-02-27T11:53:07Z</time>
      </trkpt>
      <trkpt lat="45.23931" lon="6.10351">
        <ele>2646.6</ele>
        <time>2021-02-27T11:53:10Z</time>
      </trkpt>
      <trkpt lat="45.23932" lon="6.10353">
        <ele>2646.6</ele>
        <time>2021-02-27T11:53:13Z</time>
      </trkpt>
      <trkpt lat="45.23932" lon="6.10356">
        <ele>2646.6</ele>
        <time>2021-02-27T11:53:16Z</time>
      </trkpt>
      <trkpt lat="45.23932" lon="6.10358">
        <ele>2647.8</ele>
        <time>2021-02-27T11:53:17Z</time>
      </trkpt>
      <trkpt lat="45.23933" lon="6.1036">
        <ele>2647.8</ele>
        <time>2021-02-27T11:53:19Z</time>
      </trkpt>
      <trkpt lat="45.23934" lon="6.10363">
        <ele>2647.8</ele>
        <time>2021-02-27T11:53:22Z</time>
      </trkpt>
      <trkpt lat="45.23934" lon="6.10366">
        <ele>2647.8</ele>
        <time>2021-02-27T11:53:25Z</time>
      </trkpt>
      <trkpt lat="45.23934" lon="6.10366">
        <ele>2650.4</ele>
        <time>2021-02-27T11:53:27Z</time>
      </trkpt>
      <trkpt lat="45.23935" lon="6.10368">
        <ele>2650.4</ele>
        <time>2021-02-27T11:53:28Z</time>
      </trkpt>
      <trkpt lat="45.23936" lon="6.10371">
        <ele>2650.4</ele>
        <time>2021-02-27T11:53:31Z</time>
      </trkpt>
      <trkpt lat="45.23937" lon="6.10374">
        <ele>2650.4</ele>
        <time>2021-02-27T11:53:34Z</time>
      </trkpt>
      <trkpt lat="45.23937" lon="6.10377">
        <ele>2653.4</ele>
        <time>2021-02-27T11:53:37Z</time>
      </trkpt>
      <trkpt lat="45.23938" lon="6.1038">
        <ele>2653.4</ele>
        <time>2021-02-27T11:53:41Z</time>
      </trkpt>
      <trkpt lat="45.23938" lon="6.10383">
        <ele>2653.4</ele>
        <time>2021-02-27T11:53:45Z</time>
      </trkpt>
      <trkpt lat="45.23938" lon="6.10383">
        <ele>2657.4</ele>
        <time>2021-02-27T11:53:47Z</time>
      </trkpt>
      <trkpt lat="45.23938" lon="6.10386">
        <ele>2657.4</ele>
        <time>2021-02-27T11:53:48Z</time>
      </trkpt>
      <trkpt lat="45.2394" lon="6.10388">
        <ele>2657.4</ele>
        <time>2021-02-27T11:53:51Z</time>
      </trkpt>
      <trkpt lat="45.23941" lon="6.1039">
        <ele>2657.4</ele>
        <time>2021-02-27T11:53:54Z</time>
      </trkpt>
      <trkpt lat="45.23943" lon="6.10392">
        <ele>2659.2</ele>
        <time>2021-02-27T11:53:57Z</time>
      </trkpt>
      <trkpt lat="45.23945" lon="6.10394">
        <ele>2659.2</ele>
        <time>2021-02-27T11:54:00Z</time>
      </trkpt>
      <trkpt lat="45.23946" lon="6.10396">
        <ele>2659.2</ele>
        <time>2021-02-27T11:54:04Z</time>
      </trkpt>
      <trkpt lat="45.23948" lon="6.10398">
        <ele>2661</ele>
        <time>2021-02-27T11:54:07Z</time>
      </trkpt>
      <trkpt lat="45.23949" lon="6.10403">
        <ele>2661</ele>
        <time>2021-02-27T11:54:10Z</time>
      </trkpt>
      <trkpt lat="45.23949" lon="6.10404">
        <ele>2661</ele>
        <time>2021-02-27T11:54:13Z</time>
      </trkpt>
      <trkpt lat="45.23949" lon="6.10406">
        <ele>2661</ele>
        <time>2021-02-27T11:54:16Z</time>
      </trkpt>
      <trkpt lat="45.23949" lon="6.10407">
        <ele>2662.2</ele>
        <time>2021-02-27T11:54:17Z</time>
      </trkpt>
      <trkpt lat="45.23949" lon="6.1041">
        <ele>2662.2</ele>
        <time>2021-02-27T11:54:19Z</time>
      </trkpt>
      <trkpt lat="45.2395" lon="6.10414">
        <ele>2662.2</ele>
        <time>2021-02-27T11:54:23Z</time>
      </trkpt>
      <trkpt lat="45.23951" lon="6.10415">
        <ele>2662.2</ele>
        <time>2021-02-27T11:54:25Z</time>
      </trkpt>
      <trkpt lat="45.23951" lon="6.10415">
        <ele>2664.6</ele>
        <time>2021-02-27T11:54:27Z</time>
      </trkpt>
      <trkpt lat="45.23952" lon="6.10419">
        <ele>2664.6</ele>
        <time>2021-02-27T11:54:29Z</time>
      </trkpt>
      <trkpt lat="45.23951" lon="6.10422">
        <ele>2664.6</ele>
        <time>2021-02-27T11:54:33Z</time>
      </trkpt>
      <trkpt lat="45.2395" lon="6.10424">
        <ele>2664.6</ele>
        <time>2021-02-27T11:54:35Z</time>
      </trkpt>
      <trkpt lat="45.2395" lon="6.10424">
        <ele>2667.2</ele>
        <time>2021-02-27T11:54:37Z</time>
      </trkpt>
      <trkpt lat="45.2395" lon="6.10427">
        <ele>2667.2</ele>
        <time>2021-02-27T11:54:39Z</time>
      </trkpt>
      <trkpt lat="45.2395" lon="6.1043">
        <ele>2667.2</ele>
        <time>2021-02-27T11:54:42Z</time>
      </trkpt>
      <trkpt lat="45.2395" lon="6.10433">
        <ele>2667.2</ele>
        <time>2021-02-27T11:54:45Z</time>
      </trkpt>
      <trkpt lat="45.2395" lon="6.10436">
        <ele>2669.6</ele>
        <time>2021-02-27T11:54:47Z</time>
      </trkpt>
      <trkpt lat="45.23951" lon="6.10439">
        <ele>2669.6</ele>
        <time>2021-02-27T11:54:52Z</time>
      </trkpt>
      <trkpt lat="45.2395" lon="6.10442">
        <ele>2669.6</ele>
        <time>2021-02-27T11:54:55Z</time>
      </trkpt>
      <trkpt lat="45.2395" lon="6.10442">
        <ele>2670.8</ele>
        <time>2021-02-27T11:54:57Z</time>
      </trkpt>
      <trkpt lat="45.23949" lon="6.10446">
        <ele>2670.8</ele>
        <time>2021-02-27T11:54:58Z</time>
      </trkpt>
      <trkpt lat="45.23946" lon="6.10447">
        <ele>2670.8</ele>
        <time>2021-02-27T11:55:01Z</time>
      </trkpt>
      <trkpt lat="45.23945" lon="6.1045">
        <ele>2670.8</ele>
        <time>2021-02-27T11:55:04Z</time>
      </trkpt>
      <trkpt lat="45.23944" lon="6.10452">
        <ele>2673.6</ele>
        <time>2021-02-27T11:55:07Z</time>
      </trkpt>
      <trkpt lat="45.23945" lon="6.10456">
        <ele>2673.6</ele>
        <time>2021-02-27T11:55:10Z</time>
      </trkpt>
      <trkpt lat="45.23945" lon="6.10457">
        <ele>2673.6</ele>
        <time>2021-02-27T11:55:13Z</time>
      </trkpt>
      <trkpt lat="45.23944" lon="6.10459">
        <ele>2673.6</ele>
        <time>2021-02-27T11:55:16Z</time>
      </trkpt>
      <trkpt lat="45.23944" lon="6.1046">
        <ele>2676</ele>
        <time>2021-02-27T11:55:17Z</time>
      </trkpt>
      <trkpt lat="45.23941" lon="6.10464">
        <ele>2676</ele>
        <time>2021-02-27T11:55:19Z</time>
      </trkpt>
      <trkpt lat="45.2394" lon="6.10465">
        <ele>2676</ele>
        <time>2021-02-27T11:55:23Z</time>
      </trkpt>
      <trkpt lat="45.23939" lon="6.10466">
        <ele>2676</ele>
        <time>2021-02-27T11:55:26Z</time>
      </trkpt>
      <trkpt lat="45.23938" lon="6.10467">
        <ele>2682.4</ele>
        <time>2021-02-27T11:55:27Z</time>
      </trkpt>
      <trkpt lat="45.23936" lon="6.10468">
        <ele>2682.4</ele>
        <time>2021-02-27T11:55:28Z</time>
      </trkpt>
      <trkpt lat="45.23934" lon="6.1047">
        <ele>2682.4</ele>
        <time>2021-02-27T11:55:31Z</time>
      </trkpt>
      <trkpt lat="45.23934" lon="6.10473">
        <ele>2682.4</ele>
        <time>2021-02-27T11:55:35Z</time>
      </trkpt>
      <trkpt lat="45.23934" lon="6.10473">
        <ele>2682.6</ele>
        <time>2021-02-27T11:55:37Z</time>
      </trkpt>
      <trkpt lat="45.23934" lon="6.10476">
        <ele>2682.6</ele>
        <time>2021-02-27T11:55:40Z</time>
      </trkpt>
      <trkpt lat="45.23935" lon="6.10478">
        <ele>2682.6</ele>
        <time>2021-02-27T11:55:44Z</time>
      </trkpt>
      <trkpt lat="45.23935" lon="6.10478">
        <ele>2683</ele>
        <time>2021-02-27T11:55:47Z</time>
      </trkpt>
      <trkpt lat="45.23935" lon="6.10482">
        <ele>2683</ele>
        <time>2021-02-27T11:55:48Z</time>
      </trkpt>
      <trkpt lat="45.23935" lon="6.10485">
        <ele>2683</ele>
        <time>2021-02-27T11:55:51Z</time>
      </trkpt>
      <trkpt lat="45.23935" lon="6.10488">
        <ele>2683</ele>
        <time>2021-02-27T11:55:54Z</time>
      </trkpt>
      <trkpt lat="45.23936" lon="6.10491">
        <ele>2684.6</ele>
        <time>2021-02-27T11:55:57Z</time>
      </trkpt>
      <trkpt lat="45.23937" lon="6.10495">
        <ele>2684.6</ele>
        <time>2021-02-27T11:56:00Z</time>
      </trkpt>
      <trkpt lat="45.23937" lon="6.10497">
        <ele>2684.6</ele>
        <time>2021-02-27T11:56:03Z</time>
      </trkpt>
      <trkpt lat="45.23937" lon="6.10498">
        <ele>2684.6</ele>
        <time>2021-02-27T11:56:06Z</time>
      </trkpt>
      <trkpt lat="45.23937" lon="6.105">
        <ele>2687.8</ele>
        <time>2021-02-27T11:56:07Z</time>
      </trkpt>
      <trkpt lat="45.23936" lon="6.10503">
        <ele>2687.8</ele>
        <time>2021-02-27T11:56:08Z</time>
      </trkpt>
      <trkpt lat="45.23936" lon="6.10506">
        <ele>2687.8</ele>
        <time>2021-02-27T11:56:10Z</time>
      </trkpt>
      <trkpt lat="45.23936" lon="6.10509">
        <ele>2687.8</ele>
        <time>2021-02-27T11:56:13Z</time>
      </trkpt>
      <trkpt lat="45.23937" lon="6.10511">
        <ele>2687.8</ele>
        <time>2021-02-27T11:56:15Z</time>
      </trkpt>
      <trkpt lat="45.23937" lon="6.10511">
        <ele>2689.6</ele>
        <time>2021-02-27T11:56:17Z</time>
      </trkpt>
      <trkpt lat="45.23937" lon="6.10516">
        <ele>2689.6</ele>
        <time>2021-02-27T11:56:18Z</time>
      </trkpt>
      <trkpt lat="45.23936" lon="6.10518">
        <ele>2689.6</ele>
        <time>2021-02-27T11:56:21Z</time>
      </trkpt>
      <trkpt lat="45.23935" lon="6.1052">
        <ele>2689.6</ele>
        <time>2021-02-27T11:56:23Z</time>
      </trkpt>
      <trkpt lat="45.23935" lon="6.10522">
        <ele>2689.6</ele>
        <time>2021-02-27T11:56:26Z</time>
      </trkpt>
      <trkpt lat="45.23934" lon="6.10524">
        <ele>2690.8</ele>
        <time>2021-02-27T11:56:27Z</time>
      </trkpt>
      <trkpt lat="45.23933" lon="6.10528">
        <ele>2690.8</ele>
        <time>2021-02-27T11:56:28Z</time>
      </trkpt>
      <trkpt lat="45.23933" lon="6.1053">
        <ele>2690.8</ele>
        <time>2021-02-27T11:56:31Z</time>
      </trkpt>
      <trkpt lat="45.23932" lon="6.10532">
        <ele>2690.8</ele>
        <time>2021-02-27T11:56:33Z</time>
      </trkpt>
      <trkpt lat="45.23932" lon="6.10534">
        <ele>2690.8</ele>
        <time>2021-02-27T11:56:36Z</time>
      </trkpt>
      <trkpt lat="45.23932" lon="6.10536">
        <ele>2695.4</ele>
        <time>2021-02-27T11:56:37Z</time>
      </trkpt>
      <trkpt lat="45.2393" lon="6.10542">
        <ele>2695.4</ele>
        <time>2021-02-27T11:56:38Z</time>
      </trkpt>
      <trkpt lat="45.2393" lon="6.10544">
        <ele>2695.4</ele>
        <time>2021-02-27T11:56:40Z</time>
      </trkpt>
      <trkpt lat="45.23929" lon="6.10546">
        <ele>2695.4</ele>
        <time>2021-02-27T11:56:43Z</time>
      </trkpt>
      <trkpt lat="45.23928" lon="6.10549">
        <ele>2695.4</ele>
        <time>2021-02-27T11:56:46Z</time>
      </trkpt>
      <trkpt lat="45.23928" lon="6.10551">
        <ele>2695.4</ele>
        <time>2021-02-27T11:56:47Z</time>
      </trkpt>
      <trkpt lat="45.23926" lon="6.10554">
        <ele>2695.4</ele>
        <time>2021-02-27T11:56:50Z</time>
      </trkpt>
      <trkpt lat="45.23925" lon="6.10557">
        <ele>2695.4</ele>
        <time>2021-02-27T11:56:53Z</time>
      </trkpt>
      <trkpt lat="45.23925" lon="6.10559">
        <ele>2698.6</ele>
        <time>2021-02-27T11:56:57Z</time>
      </trkpt>
      <trkpt lat="45.23924" lon="6.10562">
        <ele>2698.6</ele>
        <time>2021-02-27T11:57:01Z</time>
      </trkpt>
      <trkpt lat="45.23924" lon="6.10565">
        <ele>2698.6</ele>
        <time>2021-02-27T11:57:05Z</time>
      </trkpt>
      <trkpt lat="45.23924" lon="6.10565">
        <ele>2703</ele>
        <time>2021-02-27T11:57:07Z</time>
      </trkpt>
      <trkpt lat="45.23924" lon="6.10569">
        <ele>2703</ele>
        <time>2021-02-27T11:57:12Z</time>
      </trkpt>
      <trkpt lat="45.23924" lon="6.1057">
        <ele>2703</ele>
        <time>2021-02-27T11:57:16Z</time>
      </trkpt>
      <trkpt lat="45.23924" lon="6.10572">
        <ele>2703.6</ele>
        <time>2021-02-27T11:57:17Z</time>
      </trkpt>
      <trkpt lat="45.23925" lon="6.10574">
        <ele>2703.6</ele>
        <time>2021-02-27T11:57:19Z</time>
      </trkpt>
      <trkpt lat="45.23926" lon="6.10576">
        <ele>2703.6</ele>
        <time>2021-02-27T11:57:23Z</time>
      </trkpt>
      <trkpt lat="45.23926" lon="6.10579">
        <ele>2703.6</ele>
        <time>2021-02-27T11:57:25Z</time>
      </trkpt>
      <trkpt lat="45.23925" lon="6.10582">
        <ele>2705.4</ele>
        <time>2021-02-27T11:57:27Z</time>
      </trkpt>
      <trkpt lat="45.23924" lon="6.10586">
        <ele>2705.4</ele>
        <time>2021-02-27T11:57:29Z</time>
      </trkpt>
      <trkpt lat="45.23924" lon="6.10588">
        <ele>2705.4</ele>
        <time>2021-02-27T11:57:32Z</time>
      </trkpt>
      <trkpt lat="45.23924" lon="6.1059">
        <ele>2705.4</ele>
        <time>2021-02-27T11:57:36Z</time>
      </trkpt>
      <trkpt lat="45.23924" lon="6.10591">
        <ele>2709</ele>
        <time>2021-02-27T11:57:37Z</time>
      </trkpt>
      <trkpt lat="45.23924" lon="6.10594">
        <ele>2709</ele>
        <time>2021-02-27T11:57:38Z</time>
      </trkpt>
      <trkpt lat="45.23924" lon="6.10597">
        <ele>2709</ele>
        <time>2021-02-27T11:57:41Z</time>
      </trkpt>
      <trkpt lat="45.23923" lon="6.10601">
        <ele>2709</ele>
        <time>2021-02-27T11:57:44Z</time>
      </trkpt>
      <trkpt lat="45.23922" lon="6.10603">
        <ele>2709.2</ele>
        <time>2021-02-27T11:57:47Z</time>
      </trkpt>
      <trkpt lat="45.23922" lon="6.10605">
        <ele>2709.2</ele>
        <time>2021-02-27T11:57:53Z</time>
      </trkpt>
      <trkpt lat="45.23923" lon="6.10608">
        <ele>2710.8</ele>
        <time>2021-02-27T11:57:57Z</time>
      </trkpt>
      <trkpt lat="45.23925" lon="6.10611">
        <ele>2710.8</ele>
        <time>2021-02-27T11:58:01Z</time>
      </trkpt>
      <trkpt lat="45.23925" lon="6.10613">
        <ele>2710.8</ele>
        <time>2021-02-27T11:58:05Z</time>
      </trkpt>
      <trkpt lat="45.23925" lon="6.10613">
        <ele>2713</ele>
        <time>2021-02-27T11:58:07Z</time>
      </trkpt>
      <trkpt lat="45.23927" lon="6.10617">
        <ele>2713</ele>
        <time>2021-02-27T11:58:08Z</time>
      </trkpt>
      <trkpt lat="45.23929" lon="6.10618">
        <ele>2713</ele>
        <time>2021-02-27T11:58:12Z</time>
      </trkpt>
      <trkpt lat="45.23929" lon="6.10621">
        <ele>2713</ele>
        <time>2021-02-27T11:58:15Z</time>
      </trkpt>
      <trkpt lat="45.23929" lon="6.10626">
        <ele>2715.4</ele>
        <time>2021-02-27T11:58:17Z</time>
      </trkpt>
      <trkpt lat="45.23928" lon="6.1063">
        <ele>2715.4</ele>
        <time>2021-02-27T11:58:19Z</time>
      </trkpt>
      <trkpt lat="45.23926" lon="6.10634">
        <ele>2715.4</ele>
        <time>2021-02-27T11:58:21Z</time>
      </trkpt>
      <trkpt lat="45.23925" lon="6.10636">
        <ele>2715.4</ele>
        <time>2021-02-27T11:58:23Z</time>
      </trkpt>
      <trkpt lat="45.23923" lon="6.10638">
        <ele>2715.4</ele>
        <time>2021-02-27T11:58:25Z</time>
      </trkpt>
      <trkpt lat="45.23922" lon="6.10641">
        <ele>2719</ele>
        <time>2021-02-27T11:58:27Z</time>
      </trkpt>
      <trkpt lat="45.23919" lon="6.10643">
        <ele>2719</ele>
        <time>2021-02-27T11:58:30Z</time>
      </trkpt>
      <trkpt lat="45.23917" lon="6.10644">
        <ele>2719</ele>
        <time>2021-02-27T11:58:33Z</time>
      </trkpt>
      <trkpt lat="45.23916" lon="6.10645">
        <ele>2719</ele>
        <time>2021-02-27T11:58:36Z</time>
      </trkpt>
      <trkpt lat="45.23915" lon="6.10645">
        <ele>2720</ele>
        <time>2021-02-27T11:58:37Z</time>
      </trkpt>
      <trkpt lat="45.23912" lon="6.10645">
        <ele>2720</ele>
        <time>2021-02-27T11:58:39Z</time>
      </trkpt>
      <trkpt lat="45.2391" lon="6.10644">
        <ele>2720</ele>
        <time>2021-02-27T11:58:41Z</time>
      </trkpt>
      <trkpt lat="45.23908" lon="6.10644">
        <ele>2720</ele>
        <time>2021-02-27T11:58:43Z</time>
      </trkpt>
      <trkpt lat="45.23907" lon="6.10643">
        <ele>2720</ele>
        <time>2021-02-27T11:58:44Z</time>
      </trkpt>
      <trkpt lat="45.23905" lon="6.10643">
        <ele>2720</ele>
        <time>2021-02-27T11:58:46Z</time>
      </trkpt>
      <trkpt lat="45.23903" lon="6.10642">
        <ele>2721.6</ele>
        <time>2021-02-27T11:58:47Z</time>
      </trkpt>
      <trkpt lat="45.23901" lon="6.1064">
        <ele>2721.6</ele>
        <time>2021-02-27T11:58:48Z</time>
      </trkpt>
      <trkpt lat="45.239" lon="6.10639">
        <ele>2721.6</ele>
        <time>2021-02-27T11:58:52Z</time>
      </trkpt>
      <trkpt lat="45.23899" lon="6.10637">
        <ele>2721.6</ele>
        <time>2021-02-27T11:58:54Z</time>
      </trkpt>
      <trkpt lat="45.23898" lon="6.10636">
        <ele>2721.6</ele>
        <time>2021-02-27T11:58:56Z</time>
      </trkpt>
      <trkpt lat="45.23897" lon="6.10635">
        <ele>2724</ele>
        <time>2021-02-27T11:58:57Z</time>
      </trkpt>
      <trkpt lat="45.23895" lon="6.10633">
        <ele>2724</ele>
        <time>2021-02-27T11:58:58Z</time>
      </trkpt>
      <trkpt lat="45.23893" lon="6.1063">
        <ele>2724</ele>
        <time>2021-02-27T11:59:01Z</time>
      </trkpt>
      <trkpt lat="45.2389" lon="6.1063">
        <ele>2724</ele>
        <time>2021-02-27T11:59:03Z</time>
      </trkpt>
      <trkpt lat="45.23888" lon="6.10628">
        <ele>2724</ele>
        <time>2021-02-27T11:59:05Z</time>
      </trkpt>
      <trkpt lat="45.23886" lon="6.10627">
        <ele>2727</ele>
        <time>2021-02-27T11:59:07Z</time>
      </trkpt>
      <trkpt lat="45.23887" lon="6.1063">
        <ele>2727</ele>
        <time>2021-02-27T11:59:16Z</time>
      </trkpt>
      <trkpt lat="45.23887" lon="6.1063">
        <ele>2727</ele>
        <time>2021-02-27T11:59:17Z</time>
      </trkpt>
      <trkpt lat="45.23889" lon="6.10634">
        <ele>2727</ele>
        <time>2021-02-27T11:59:19Z</time>
      </trkpt>
      <trkpt lat="45.2389" lon="6.10636">
        <ele>2727</ele>
        <time>2021-02-27T11:59:21Z</time>
      </trkpt>
      <trkpt lat="45.2389" lon="6.10637">
        <ele>2727</ele>
        <time>2021-02-27T11:59:23Z</time>
      </trkpt>
      <trkpt lat="45.23891" lon="6.10639">
        <ele>2727</ele>
        <time>2021-02-27T11:59:26Z</time>
      </trkpt>
      <trkpt lat="45.23892" lon="6.1064">
        <ele>2729.4</ele>
        <time>2021-02-27T11:59:27Z</time>
      </trkpt>
      <trkpt lat="45.23893" lon="6.10645">
        <ele>2729.4</ele>
        <time>2021-02-27T11:59:28Z</time>
      </trkpt>
      <trkpt lat="45.23894" lon="6.10648">
        <ele>2729.4</ele>
        <time>2021-02-27T11:59:31Z</time>
      </trkpt>
      <trkpt lat="45.23895" lon="6.10651">
        <ele>2729.4</ele>
        <time>2021-02-27T11:59:34Z</time>
      </trkpt>
      <trkpt lat="45.23895" lon="6.10651">
        <ele>2730.8</ele>
        <time>2021-02-27T11:59:37Z</time>
      </trkpt>
      <trkpt lat="45.23895" lon="6.10654">
        <ele>2730.8</ele>
        <time>2021-02-27T11:59:38Z</time>
      </trkpt>
      <trkpt lat="45.23896" lon="6.10656">
        <ele>2730.8</ele>
        <time>2021-02-27T11:59:40Z</time>
      </trkpt>
      <trkpt lat="45.23894" lon="6.10658">
        <ele>2730.8</ele>
        <time>2021-02-27T11:59:42Z</time>
      </trkpt>
      <trkpt lat="45.23891" lon="6.10657">
        <ele>2730.8</ele>
        <time>2021-02-27T11:59:45Z</time>
      </trkpt>
      <trkpt lat="45.23888" lon="6.10657">
        <ele>2733.4</ele>
        <time>2021-02-27T11:59:47Z</time>
      </trkpt>
      <trkpt lat="45.23886" lon="6.10656">
        <ele>2733.4</ele>
        <time>2021-02-27T11:59:49Z</time>
      </trkpt>
      <trkpt lat="45.23885" lon="6.10653">
        <ele>2733.4</ele>
        <time>2021-02-27T11:59:51Z</time>
      </trkpt>
      <trkpt lat="45.23884" lon="6.1065">
        <ele>2733.4</ele>
        <time>2021-02-27T11:59:55Z</time>
      </trkpt>
      <trkpt lat="45.23881" lon="6.10648">
        <ele>2738.6</ele>
        <time>2021-02-27T11:59:57Z</time>
      </trkpt>
      <trkpt lat="45.23878" lon="6.10646">
        <ele>2738.6</ele>
        <time>2021-02-27T11:59:59Z</time>
      </trkpt>
      <trkpt lat="45.23876" lon="6.10645">
        <ele>2738.6</ele>
        <time>2021-02-27T12:00:02Z</time>
      </trkpt>
      <trkpt lat="45.23874" lon="6.10642">
        <ele>2738.6</ele>
        <time>2021-02-27T12:00:04Z</time>
      </trkpt>
      <trkpt lat="45.23873" lon="6.10639">
        <ele>2739</ele>
        <time>2021-02-27T12:00:07Z</time>
      </trkpt>
      <trkpt lat="45.23871" lon="6.10637">
        <ele>2739</ele>
        <time>2021-02-27T12:00:10Z</time>
      </trkpt>
      <trkpt lat="45.2387" lon="6.10634">
        <ele>2739</ele>
        <time>2021-02-27T12:00:15Z</time>
      </trkpt>
      <trkpt lat="45.2387" lon="6.10634">
        <ele>2738.6</ele>
        <time>2021-02-27T12:00:17Z</time>
      </trkpt>
      <trkpt lat="45.23871" lon="6.10636">
        <ele>2738.6</ele>
        <time>2021-02-27T12:00:25Z</time>
      </trkpt>
      <trkpt lat="45.23871" lon="6.10636">
        <ele>2738.8</ele>
        <time>2021-02-27T12:00:27Z</time>
      </trkpt>
      <trkpt lat="45.23872" lon="6.10639">
        <ele>2738.8</ele>
        <time>2021-02-27T12:00:28Z</time>
      </trkpt>
      <trkpt lat="45.23872" lon="6.10642">
        <ele>2738.8</ele>
        <time>2021-02-27T12:00:31Z</time>
      </trkpt>
      <trkpt lat="45.23873" lon="6.10645">
        <ele>2738.8</ele>
        <time>2021-02-27T12:00:34Z</time>
      </trkpt>
      <trkpt lat="45.23874" lon="6.10648">
        <ele>2740.6</ele>
        <time>2021-02-27T12:00:37Z</time>
      </trkpt>
      <trkpt lat="45.23876" lon="6.10649">
        <ele>2740.6</ele>
        <time>2021-02-27T12:00:39Z</time>
      </trkpt>
      <trkpt lat="45.23877" lon="6.10651">
        <ele>2740.6</ele>
        <time>2021-02-27T12:00:42Z</time>
      </trkpt>
      <trkpt lat="45.23877" lon="6.10653">
        <ele>2740.6</ele>
        <time>2021-02-27T12:00:45Z</time>
      </trkpt>
      <trkpt lat="45.23877" lon="6.10653">
        <ele>2742.6</ele>
        <time>2021-02-27T12:00:47Z</time>
      </trkpt>
      <trkpt lat="45.23878" lon="6.10657">
        <ele>2742.6</ele>
        <time>2021-02-27T12:00:49Z</time>
      </trkpt>
      <trkpt lat="45.23878" lon="6.1066">
        <ele>2742.6</ele>
        <time>2021-02-27T12:00:52Z</time>
      </trkpt>
      <trkpt lat="45.23878" lon="6.10662">
        <ele>2742.6</ele>
        <time>2021-02-27T12:00:55Z</time>
      </trkpt>
      <trkpt lat="45.23878" lon="6.10662">
        <ele>2744.4</ele>
        <time>2021-02-27T12:00:57Z</time>
      </trkpt>
      <trkpt lat="45.23876" lon="6.10662">
        <ele>2744.4</ele>
        <time>2021-02-27T12:01:00Z</time>
      </trkpt>
      <trkpt lat="45.23874" lon="6.10662">
        <ele>2744.4</ele>
        <time>2021-02-27T12:01:02Z</time>
      </trkpt>
      <trkpt lat="45.23872" lon="6.1066">
        <ele>2744.4</ele>
        <time>2021-02-27T12:01:05Z</time>
      </trkpt>
      <trkpt lat="45.23872" lon="6.1066">
        <ele>2745.6</ele>
        <time>2021-02-27T12:01:07Z</time>
      </trkpt>
      <trkpt lat="45.23871" lon="6.10658">
        <ele>2745.6</ele>
        <time>2021-02-27T12:01:08Z</time>
      </trkpt>
      <trkpt lat="45.2387" lon="6.10655">
        <ele>2745.6</ele>
        <time>2021-02-27T12:01:11Z</time>
      </trkpt>
      <trkpt lat="45.23868" lon="6.10653">
        <ele>2745.6</ele>
        <time>2021-02-27T12:01:14Z</time>
      </trkpt>
      <trkpt lat="45.23867" lon="6.1065">
        <ele>2747.2</ele>
        <time>2021-02-27T12:01:17Z</time>
      </trkpt>
      <trkpt lat="45.23866" lon="6.10648">
        <ele>2747.2</ele>
        <time>2021-02-27T12:01:20Z</time>
      </trkpt>
      <trkpt lat="45.23865" lon="6.10645">
        <ele>2747.2</ele>
        <time>2021-02-27T12:01:23Z</time>
      </trkpt>
      <trkpt lat="45.23864" lon="6.10643">
        <ele>2747.2</ele>
        <time>2021-02-27T12:01:25Z</time>
      </trkpt>
      <trkpt lat="45.23861" lon="6.10641">
        <ele>2748.8</ele>
        <time>2021-02-27T12:01:27Z</time>
      </trkpt>
      <trkpt lat="45.23861" lon="6.10638">
        <ele>2748.8</ele>
        <time>2021-02-27T12:01:30Z</time>
      </trkpt>
      <trkpt lat="45.2386" lon="6.10634">
        <ele>2748.8</ele>
        <time>2021-02-27T12:01:34Z</time>
      </trkpt>
      <trkpt lat="45.23858" lon="6.10633">
        <ele>2750</ele>
        <time>2021-02-27T12:01:37Z</time>
      </trkpt>
      <trkpt lat="45.23856" lon="6.10632">
        <ele>2750</ele>
        <time>2021-02-27T12:01:39Z</time>
      </trkpt>
      <trkpt lat="45.23855" lon="6.1063">
        <ele>2750</ele>
        <time>2021-02-27T12:01:43Z</time>
      </trkpt>
      <trkpt lat="45.23854" lon="6.10628">
        <ele>2751.8</ele>
        <time>2021-02-27T12:01:47Z</time>
      </trkpt>
      <trkpt lat="45.23854" lon="6.10628">
        <ele>2757.2</ele>
        <time>2021-02-27T12:01:57Z</time>
      </trkpt>
      <trkpt lat="45.23855" lon="6.10629">
        <ele>2757.2</ele>
        <time>2021-02-27T12:02:01Z</time>
      </trkpt>
      <trkpt lat="45.23856" lon="6.10632">
        <ele>2757.2</ele>
        <time>2021-02-27T12:02:04Z</time>
      </trkpt>
      <trkpt lat="45.23856" lon="6.10632">
        <ele>2756.4</ele>
        <time>2021-02-27T12:02:07Z</time>
      </trkpt>
      <trkpt lat="45.23858" lon="6.10633">
        <ele>2756.4</ele>
        <time>2021-02-27T12:02:08Z</time>
      </trkpt>
      <trkpt lat="45.23858" lon="6.10636">
        <ele>2756.4</ele>
        <time>2021-02-27T12:02:11Z</time>
      </trkpt>
      <trkpt lat="45.23856" lon="6.10639">
        <ele>2756.4</ele>
        <time>2021-02-27T12:02:14Z</time>
      </trkpt>
      <trkpt lat="45.23858" lon="6.10642">
        <ele>2756.4</ele>
        <time>2021-02-27T12:02:17Z</time>
      </trkpt>
      <trkpt lat="45.23859" lon="6.10644">
        <ele>2756.4</ele>
        <time>2021-02-27T12:02:20Z</time>
      </trkpt>
      <trkpt lat="45.2386" lon="6.10647">
        <ele>2756.4</ele>
        <time>2021-02-27T12:02:24Z</time>
      </trkpt>
      <trkpt lat="45.23861" lon="6.1065">
        <ele>2757.6</ele>
        <time>2021-02-27T12:02:27Z</time>
      </trkpt>
      <trkpt lat="45.23861" lon="6.10654">
        <ele>2757.6</ele>
        <time>2021-02-27T12:02:31Z</time>
      </trkpt>
      <trkpt lat="45.23861" lon="6.10657">
        <ele>2757.6</ele>
        <time>2021-02-27T12:02:34Z</time>
      </trkpt>
      <trkpt lat="45.23861" lon="6.10661">
        <ele>2760.6</ele>
        <time>2021-02-27T12:02:37Z</time>
      </trkpt>
      <trkpt lat="45.23861" lon="6.10664">
        <ele>2760.6</ele>
        <time>2021-02-27T12:02:39Z</time>
      </trkpt>
      <trkpt lat="45.2386" lon="6.10667">
        <ele>2760.6</ele>
        <time>2021-02-27T12:02:42Z</time>
      </trkpt>
      <trkpt lat="45.23861" lon="6.10669">
        <ele>2760.6</ele>
        <time>2021-02-27T12:02:45Z</time>
      </trkpt>
      <trkpt lat="45.2386" lon="6.10672">
        <ele>2760.4</ele>
        <time>2021-02-27T12:02:47Z</time>
      </trkpt>
      <trkpt lat="45.2386" lon="6.10675">
        <ele>2760.4</ele>
        <time>2021-02-27T12:02:49Z</time>
      </trkpt>
      <trkpt lat="45.2386" lon="6.10678">
        <ele>2760.4</ele>
        <time>2021-02-27T12:02:52Z</time>
      </trkpt>
      <trkpt lat="45.23861" lon="6.10681">
        <ele>2760.4</ele>
        <time>2021-02-27T12:02:55Z</time>
      </trkpt>
      <trkpt lat="45.23861" lon="6.10681">
        <ele>2759.8</ele>
        <time>2021-02-27T12:02:57Z</time>
      </trkpt>
      <trkpt lat="45.23862" lon="6.10684">
        <ele>2759.8</ele>
        <time>2021-02-27T12:02:58Z</time>
      </trkpt>
      <trkpt lat="45.23863" lon="6.10687">
        <ele>2759.8</ele>
        <time>2021-02-27T12:03:01Z</time>
      </trkpt>
      <trkpt lat="45.23864" lon="6.10689">
        <ele>2759.8</ele>
        <time>2021-02-27T12:03:04Z</time>
      </trkpt>
      <trkpt lat="45.23864" lon="6.10689">
        <ele>2761</ele>
        <time>2021-02-27T12:03:07Z</time>
      </trkpt>
      <trkpt lat="45.23865" lon="6.10691">
        <ele>2761</ele>
        <time>2021-02-27T12:03:11Z</time>
      </trkpt>
      <trkpt lat="45.23866" lon="6.10693">
        <ele>2761</ele>
        <time>2021-02-27T12:03:13Z</time>
      </trkpt>
      <trkpt lat="45.23868" lon="6.10695">
        <ele>2761</ele>
        <time>2021-02-27T12:03:15Z</time>
      </trkpt>
      <trkpt lat="45.23869" lon="6.10698">
        <ele>2763</ele>
        <time>2021-02-27T12:03:17Z</time>
      </trkpt>
      <trkpt lat="45.23871" lon="6.107">
        <ele>2763</ele>
        <time>2021-02-27T12:03:21Z</time>
      </trkpt>
      <trkpt lat="45.23873" lon="6.10702">
        <ele>2763</ele>
        <time>2021-02-27T12:03:24Z</time>
      </trkpt>
      <trkpt lat="45.23874" lon="6.10704">
        <ele>2764.4</ele>
        <time>2021-02-27T12:03:27Z</time>
      </trkpt>
      <trkpt lat="45.23876" lon="6.10704">
        <ele>2764.4</ele>
        <time>2021-02-27T12:03:30Z</time>
      </trkpt>
      <trkpt lat="45.23878" lon="6.10706">
        <ele>2764.4</ele>
        <time>2021-02-27T12:03:34Z</time>
      </trkpt>
      <trkpt lat="45.23878" lon="6.10706">
        <ele>2768.2</ele>
        <time>2021-02-27T12:03:37Z</time>
      </trkpt>
      <trkpt lat="45.2388" lon="6.10709">
        <ele>2768.2</ele>
        <time>2021-02-27T12:03:38Z</time>
      </trkpt>
      <trkpt lat="45.23882" lon="6.1071">
        <ele>2768.2</ele>
        <time>2021-02-27T12:03:41Z</time>
      </trkpt>
      <trkpt lat="45.23884" lon="6.10711">
        <ele>2768.2</ele>
        <time>2021-02-27T12:03:45Z</time>
      </trkpt>
      <trkpt lat="45.23884" lon="6.10711">
        <ele>2771.6</ele>
        <time>2021-02-27T12:03:47Z</time>
      </trkpt>
      <trkpt lat="45.23884" lon="6.10714">
        <ele>2771.6</ele>
        <time>2021-02-27T12:03:48Z</time>
      </trkpt>
      <trkpt lat="45.23883" lon="6.10715">
        <ele>2771.6</ele>
        <time>2021-02-27T12:03:53Z</time>
      </trkpt>
      <trkpt lat="45.23882" lon="6.10716">
        <ele>2773.2</ele>
        <time>2021-02-27T12:03:57Z</time>
      </trkpt>
      <trkpt lat="45.23881" lon="6.10717">
        <ele>2773.2</ele>
        <time>2021-02-27T12:03:58Z</time>
      </trkpt>
      <trkpt lat="45.2388" lon="6.10718">
        <ele>2773.2</ele>
        <time>2021-02-27T12:04:01Z</time>
      </trkpt>
      <trkpt lat="45.23879" lon="6.10719">
        <ele>2773.2</ele>
        <time>2021-02-27T12:04:04Z</time>
      </trkpt>
      <trkpt lat="45.23878" lon="6.10719">
        <ele>2773.2</ele>
        <time>2021-02-27T12:04:06Z</time>
      </trkpt>
      <trkpt lat="45.23877" lon="6.1072">
        <ele>2773.4</ele>
        <time>2021-02-27T12:04:07Z</time>
      </trkpt>
      <trkpt lat="45.23874" lon="6.10722">
        <ele>2773.4</ele>
        <time>2021-02-27T12:04:10Z</time>
      </trkpt>
      <trkpt lat="45.23873" lon="6.10722">
        <ele>2773.4</ele>
        <time>2021-02-27T12:04:14Z</time>
      </trkpt>
      <trkpt lat="45.23873" lon="6.10722">
        <ele>2775.6</ele>
        <time>2021-02-27T12:04:17Z</time>
      </trkpt>
      <trkpt lat="45.23872" lon="6.10723">
        <ele>2775.6</ele>
        <time>2021-02-27T12:04:21Z</time>
      </trkpt>
      <trkpt lat="45.23871" lon="6.10723">
        <ele>2775.6</ele>
        <time>2021-02-27T12:04:23Z</time>
      </trkpt>
      <trkpt lat="45.23871" lon="6.10723">
        <ele>2777.8</ele>
        <time>2021-02-27T12:04:27Z</time>
      </trkpt>
      <trkpt lat="45.2387" lon="6.10724">
        <ele>2777.8</ele>
        <time>2021-02-27T12:04:33Z</time>
      </trkpt>
      <trkpt lat="45.23869" lon="6.10724">
        <ele>2776</ele>
        <time>2021-02-27T12:04:37Z</time>
      </trkpt>
      <trkpt lat="45.23869" lon="6.10724">
        <ele>2777.2</ele>
        <time>2021-02-27T12:04:47Z</time>
      </trkpt>
      <trkpt lat="45.23868" lon="6.10725">
        <ele>2775.2</ele>
        <time>2021-02-27T12:04:57Z</time>
      </trkpt>
      <trkpt lat="45.23868" lon="6.10725">
        <ele>2774</ele>
        <time>2021-02-27T12:05:07Z</time>
      </trkpt>
      <trkpt lat="45.23867" lon="6.10725">
        <ele>2774.8</ele>
        <time>2021-02-27T12:05:17Z</time>
      </trkpt>
      <trkpt lat="45.23866" lon="6.10726">
        <ele>2772.2</ele>
        <time>2021-02-27T12:05:27Z</time>
      </trkpt>
      <trkpt lat="45.23866" lon="6.10726">
        <ele>2773.8</ele>
        <time>2021-02-27T12:05:37Z</time>
      </trkpt>
      <trkpt lat="45.23865" lon="6.10726">
        <ele>2772.4</ele>
        <time>2021-02-27T12:05:47Z</time>
      </trkpt>
      <trkpt lat="45.23864" lon="6.10726">
        <ele>2771.4</ele>
        <time>2021-02-27T12:05:57Z</time>
      </trkpt>
      <trkpt lat="45.23864" lon="6.10727">
        <ele>2771.8</ele>
        <time>2021-02-27T12:06:07Z</time>
      </trkpt>
      <trkpt lat="45.23863" lon="6.10727">
        <ele>2769.2</ele>
        <time>2021-02-27T12:06:17Z</time>
      </trkpt>
      <trkpt lat="45.23862" lon="6.10727">
        <ele>2770.8</ele>
        <time>2021-02-27T12:06:27Z</time>
      </trkpt>
      <trkpt lat="45.23862" lon="6.10728">
        <ele>2773.4</ele>
        <time>2021-02-27T12:06:37Z</time>
      </trkpt>
      <trkpt lat="45.23861" lon="6.10728">
        <ele>2773.4</ele>
        <time>2021-02-27T12:06:40Z</time>
      </trkpt>
      <trkpt lat="45.2386" lon="6.10728">
        <ele>2773.4</ele>
        <time>2021-02-27T12:06:41Z</time>
      </trkpt>
      <trkpt lat="45.2386" lon="6.10729">
        <ele>2773.4</ele>
        <time>2021-02-27T12:06:43Z</time>
      </trkpt>
      <trkpt lat="45.23859" lon="6.10729">
        <ele>2773.4</ele>
        <time>2021-02-27T12:06:46Z</time>
      </trkpt>
      <trkpt lat="45.23858" lon="6.10729">
        <ele>2776.6</ele>
        <time>2021-02-27T12:06:47Z</time>
      </trkpt>
      <trkpt lat="45.23858" lon="6.10732">
        <ele>2776.6</ele>
        <time>2021-02-27T12:06:49Z</time>
      </trkpt>
      <trkpt lat="45.23858" lon="6.10732">
        <ele>2776.6</ele>
        <time>2021-02-27T12:06:57Z</time>
      </trkpt>
      <trkpt lat="45.23858" lon="6.10732">
        <ele>2776.2</ele>
        <time>2021-02-27T12:07:07Z</time>
      </trkpt>
      <trkpt lat="45.23858" lon="6.10732">
        <ele>2776.8</ele>
        <time>2021-02-27T12:07:17Z</time>
      </trkpt>
      <trkpt lat="45.23858" lon="6.10732">
        <ele>2777.2</ele>
        <time>2021-02-27T12:07:27Z</time>
      </trkpt>
      <trkpt lat="45.23858" lon="6.10732">
        <ele>2780</ele>
        <time>2021-02-27T12:07:37Z</time>
      </trkpt>
      <trkpt lat="45.23858" lon="6.10732">
        <ele>2782.6</ele>
        <time>2021-02-27T12:07:47Z</time>
      </trkpt>
      <trkpt lat="45.23858" lon="6.10732">
        <ele>2786.4</ele>
        <time>2021-02-27T12:07:57Z</time>
      </trkpt>
      <trkpt lat="45.23852" lon="6.10745">
        <ele>2786.4</ele>
        <time>2021-02-27T12:08:05Z</time>
      </trkpt>
      <trkpt lat="45.23852" lon="6.10745">
        <ele>2787.8</ele>
        <time>2021-02-27T12:08:07Z</time>
      </trkpt>
      <trkpt lat="45.2385" lon="6.10749">
        <ele>2787.8</ele>
        <time>2021-02-27T12:08:08Z</time>
      </trkpt>
      <trkpt lat="45.23849" lon="6.10751">
        <ele>2787.8</ele>
        <time>2021-02-27T12:08:11Z</time>
      </trkpt>
      <trkpt lat="45.23849" lon="6.10752">
        <ele>2787.8</ele>
        <time>2021-02-27T12:08:13Z</time>
      </trkpt>
      <trkpt lat="45.23848" lon="6.10754">
        <ele>2789.4</ele>
        <time>2021-02-27T12:08:17Z</time>
      </trkpt>
      <trkpt lat="45.23848" lon="6.10755">
        <ele>2789.4</ele>
        <time>2021-02-27T12:08:23Z</time>
      </trkpt>
      <trkpt lat="45.23847" lon="6.10756">
        <ele>2791.6</ele>
        <time>2021-02-27T12:08:27Z</time>
      </trkpt>
      <trkpt lat="45.23847" lon="6.10758">
        <ele>2791.6</ele>
        <time>2021-02-27T12:08:29Z</time>
      </trkpt>
      <trkpt lat="45.23846" lon="6.10759">
        <ele>2793.6</ele>
        <time>2021-02-27T12:08:37Z</time>
      </trkpt>
      <trkpt lat="45.23845" lon="6.10761">
        <ele>2793</ele>
        <time>2021-02-27T12:08:47Z</time>
      </trkpt>
      <trkpt lat="45.23845" lon="6.10762">
        <ele>2793.2</ele>
        <time>2021-02-27T12:08:57Z</time>
      </trkpt>
      <trkpt lat="45.23844" lon="6.10764">
        <ele>2794.6</ele>
        <time>2021-02-27T12:09:07Z</time>
      </trkpt>
      <trkpt lat="45.23844" lon="6.10765">
        <ele>2795.6</ele>
        <time>2021-02-27T12:09:17Z</time>
      </trkpt>
      <trkpt lat="45.23843" lon="6.10766">
        <ele>2793.4</ele>
        <time>2021-02-27T12:09:27Z</time>
      </trkpt>
      <trkpt lat="45.23842" lon="6.10768">
        <ele>2794.8</ele>
        <time>2021-02-27T12:09:37Z</time>
      </trkpt>
      <trkpt lat="45.23842" lon="6.10769">
        <ele>2798.8</ele>
        <time>2021-02-27T12:09:47Z</time>
      </trkpt>
      <trkpt lat="45.23841" lon="6.10771">
        <ele>2799.8</ele>
        <time>2021-02-27T12:09:57Z</time>
      </trkpt>
      <trkpt lat="45.23841" lon="6.10772">
        <ele>2802.6</ele>
        <time>2021-02-27T12:10:07Z</time>
      </trkpt>
      <trkpt lat="45.2384" lon="6.10774">
        <ele>2802.6</ele>
        <time>2021-02-27T12:10:10Z</time>
      </trkpt>
      <trkpt lat="45.23839" lon="6.10775">
        <ele>2802.6</ele>
        <time>2021-02-27T12:10:13Z</time>
      </trkpt>
      <trkpt lat="45.23839" lon="6.10776">
        <ele>2802.6</ele>
        <time>2021-02-27T12:10:16Z</time>
      </trkpt>
      <trkpt lat="45.23838" lon="6.10778">
        <ele>2803.8</ele>
        <time>2021-02-27T12:10:17Z</time>
      </trkpt>
      <trkpt lat="45.23837" lon="6.10781">
        <ele>2803.8</ele>
        <time>2021-02-27T12:10:19Z</time>
      </trkpt>
      <trkpt lat="45.23837" lon="6.10781">
        <ele>2807.8</ele>
        <time>2021-02-27T12:10:27Z</time>
      </trkpt>
      <trkpt lat="45.23836" lon="6.10782">
        <ele>2807.8</ele>
        <time>2021-02-27T12:10:29Z</time>
      </trkpt>
      <trkpt lat="45.23836" lon="6.10783">
        <ele>2808.8</ele>
        <time>2021-02-27T12:10:37Z</time>
      </trkpt>
      <trkpt lat="45.23835" lon="6.10784">
        <ele>2811.4</ele>
        <time>2021-02-27T12:10:47Z</time>
      </trkpt>
      <trkpt lat="45.23835" lon="6.10785">
        <ele>2813</ele>
        <time>2021-02-27T12:10:57Z</time>
      </trkpt>
      <trkpt lat="45.23834" lon="6.10785">
        <ele>2813</ele>
        <time>2021-02-27T12:10:58Z</time>
      </trkpt>
      <trkpt lat="45.23834" lon="6.10786">
        <ele>2813</ele>
        <time>2021-02-27T12:11:02Z</time>
      </trkpt>
      <trkpt lat="45.23833" lon="6.10787">
        <ele>2813</ele>
        <time>2021-02-27T12:11:04Z</time>
      </trkpt>
      <trkpt lat="45.23833" lon="6.10788">
        <ele>2813</ele>
        <time>2021-02-27T12:11:06Z</time>
      </trkpt>
      <trkpt lat="45.23832" lon="6.10788">
        <ele>2813.6</ele>
        <time>2021-02-27T12:11:07Z</time>
      </trkpt>
      <trkpt lat="45.2383" lon="6.10787">
        <ele>2813.6</ele>
        <time>2021-02-27T12:11:08Z</time>
      </trkpt>
      <trkpt lat="45.2383" lon="6.10787">
        <ele>2811.8</ele>
        <time>2021-02-27T12:11:17Z</time>
      </trkpt>
      <trkpt lat="45.2383" lon="6.10787">
        <ele>2813.2</ele>
        <time>2021-02-27T12:11:27Z</time>
      </trkpt>
      <trkpt lat="45.2383" lon="6.10787">
        <ele>2814</ele>
        <time>2021-02-27T12:11:37Z</time>
      </trkpt>
      <trkpt lat="45.2383" lon="6.10787">
        <ele>2815.4</ele>
        <time>2021-02-27T12:11:47Z</time>
      </trkpt>
      <trkpt lat="45.2383" lon="6.10787">
        <ele>2814.4</ele>
        <time>2021-02-27T12:11:57Z</time>
      </trkpt>
      <trkpt lat="45.2383" lon="6.10787">
        <ele>2814</ele>
        <time>2021-02-27T12:12:07Z</time>
      </trkpt>
      <trkpt lat="45.2383" lon="6.10787">
        <ele>2812.4</ele>
        <time>2021-02-27T12:12:17Z</time>
      </trkpt>
      <trkpt lat="45.2383" lon="6.10787">
        <ele>2812</ele>
        <time>2021-02-27T12:12:27Z</time>
      </trkpt>
      <trkpt lat="45.2383" lon="6.10787">
        <ele>2811</ele>
        <time>2021-02-27T12:12:37Z</time>
      </trkpt>
      <trkpt lat="45.2383" lon="6.10787">
        <ele>2811.4</ele>
        <time>2021-02-27T12:12:47Z</time>
      </trkpt>
      <trkpt lat="45.2383" lon="6.10787">
        <ele>2811.6</ele>
        <time>2021-02-27T12:12:57Z</time>
      </trkpt>
      <trkpt lat="45.2383" lon="6.10787">
        <ele>2808.6</ele>
        <time>2021-02-27T12:13:07Z</time>
      </trkpt>
      <trkpt lat="45.2383" lon="6.10787">
        <ele>2807.2</ele>
        <time>2021-02-27T12:13:17Z</time>
      </trkpt>
      <trkpt lat="45.2383" lon="6.10787">
        <ele>2804</ele>
        <time>2021-02-27T12:13:27Z</time>
      </trkpt>
      <trkpt lat="45.2383" lon="6.10787">
        <ele>2802.8</ele>
        <time>2021-02-27T12:13:37Z</time>
      </trkpt>
      <trkpt lat="45.2383" lon="6.10787">
        <ele>2799.6</ele>
        <time>2021-02-27T12:13:47Z</time>
      </trkpt>
      <trkpt lat="45.2383" lon="6.10787">
        <ele>2798</ele>
        <time>2021-02-27T12:13:57Z</time>
      </trkpt>
      <trkpt lat="45.2383" lon="6.10787">
        <ele>2796.2</ele>
        <time>2021-02-27T12:14:07Z</time>
      </trkpt>
      <trkpt lat="45.23826" lon="6.10785">
        <ele>2796.2</ele>
        <time>2021-02-27T12:14:14Z</time>
      </trkpt>
      <trkpt lat="45.23826" lon="6.10785">
        <ele>2797.2</ele>
        <time>2021-02-27T12:14:17Z</time>
      </trkpt>
      <trkpt lat="45.23827" lon="6.10788">
        <ele>2797.2</ele>
        <time>2021-02-27T12:14:23Z</time>
      </trkpt>
      <trkpt lat="45.23827" lon="6.10788">
        <ele>2798.2</ele>
        <time>2021-02-27T12:14:27Z</time>
      </trkpt>
      <trkpt lat="45.23827" lon="6.10788">
        <ele>2796.2</ele>
        <time>2021-02-27T12:14:37Z</time>
      </trkpt>
      <trkpt lat="45.23827" lon="6.10788">
        <ele>2793</ele>
        <time>2021-02-27T12:14:47Z</time>
      </trkpt>
      <trkpt lat="45.23827" lon="6.10788">
        <ele>2793.4</ele>
        <time>2021-02-27T12:14:57Z</time>
      </trkpt>
      <trkpt lat="45.23827" lon="6.10788">
        <ele>2792.6</ele>
        <time>2021-02-27T12:15:07Z</time>
      </trkpt>
      <trkpt lat="45.23825" lon="6.1079">
        <ele>2792.6</ele>
        <time>2021-02-27T12:15:09Z</time>
      </trkpt>
      <trkpt lat="45.23826" lon="6.10787">
        <ele>2792.6</ele>
        <time>2021-02-27T12:15:11Z</time>
      </trkpt>
      <trkpt lat="45.23828" lon="6.10786">
        <ele>2792.6</ele>
        <time>2021-02-27T12:15:15Z</time>
      </trkpt>
      <trkpt lat="45.23828" lon="6.10786">
        <ele>2795.6</ele>
        <time>2021-02-27T12:15:17Z</time>
      </trkpt>
      <trkpt lat="45.23827" lon="6.10788">
        <ele>2795.2</ele>
        <time>2021-02-27T12:15:27Z</time>
      </trkpt>
      <trkpt lat="45.23826" lon="6.10789">
        <ele>2796.2</ele>
        <time>2021-02-27T12:15:37Z</time>
      </trkpt>
      <trkpt lat="45.23826" lon="6.10791">
        <ele>2798.2</ele>
        <time>2021-02-27T12:15:47Z</time>
      </trkpt>
      <trkpt lat="45.23825" lon="6.10792">
        <ele>2799.2</ele>
        <time>2021-02-27T12:15:57Z</time>
      </trkpt>
      <trkpt lat="45.23824" lon="6.10794">
        <ele>2798.2</ele>
        <time>2021-02-27T12:16:07Z</time>
      </trkpt>
      <trkpt lat="45.23823" lon="6.10795">
        <ele>2798.6</ele>
        <time>2021-02-27T12:16:17Z</time>
      </trkpt>
      <trkpt lat="45.23822" lon="6.10797">
        <ele>2797.2</ele>
        <time>2021-02-27T12:16:27Z</time>
      </trkpt>
      <trkpt lat="45.23821" lon="6.10798">
        <ele>2797.2</ele>
        <time>2021-02-27T12:16:37Z</time>
      </trkpt>
      <trkpt lat="45.2382" lon="6.108">
        <ele>2796.8</ele>
        <time>2021-02-27T12:16:47Z</time>
      </trkpt>
      <trkpt lat="45.23819" lon="6.10801">
        <ele>2796.2</ele>
        <time>2021-02-27T12:16:57Z</time>
      </trkpt>
      <trkpt lat="45.23818" lon="6.10803">
        <ele>2796</ele>
        <time>2021-02-27T12:17:07Z</time>
      </trkpt>
      <trkpt lat="45.23817" lon="6.10805">
        <ele>2796.4</ele>
        <time>2021-02-27T12:17:17Z</time>
      </trkpt>
      <trkpt lat="45.23816" lon="6.10806">
        <ele>2797.8</ele>
        <time>2021-02-27T12:17:27Z</time>
      </trkpt>
      <trkpt lat="45.23815" lon="6.10808">
        <ele>2798</ele>
        <time>2021-02-27T12:17:37Z</time>
      </trkpt>
      <trkpt lat="45.23815" lon="6.10809">
        <ele>2798</ele>
        <time>2021-02-27T12:17:38Z</time>
      </trkpt>
      <trkpt lat="45.23814" lon="6.10811">
        <ele>2798</ele>
        <time>2021-02-27T12:17:39Z</time>
      </trkpt>
      <trkpt lat="45.23813" lon="6.10812">
        <ele>2798</ele>
        <time>2021-02-27T12:17:40Z</time>
      </trkpt>
      <trkpt lat="45.23812" lon="6.10814">
        <ele>2798</ele>
        <time>2021-02-27T12:17:41Z</time>
      </trkpt>
      <trkpt lat="45.23811" lon="6.10815">
        <ele>2798</ele>
        <time>2021-02-27T12:17:42Z</time>
      </trkpt>
      <trkpt lat="45.2381" lon="6.10817">
        <ele>2798</ele>
        <time>2021-02-27T12:17:43Z</time>
      </trkpt>
      <trkpt lat="45.23809" lon="6.10818">
        <ele>2798</ele>
        <time>2021-02-27T12:17:45Z</time>
      </trkpt>
      <trkpt lat="45.23808" lon="6.1082">
        <ele>2798</ele>
        <time>2021-02-27T12:17:46Z</time>
      </trkpt>
      <trkpt lat="45.23807" lon="6.10821">
        <ele>2787.6</ele>
        <time>2021-02-27T12:17:47Z</time>
      </trkpt>
      <trkpt lat="45.23803" lon="6.10825">
        <ele>2787.6</ele>
        <time>2021-02-27T12:17:48Z</time>
      </trkpt>
      <trkpt lat="45.23801" lon="6.10826">
        <ele>2787.6</ele>
        <time>2021-02-27T12:17:49Z</time>
      </trkpt>
      <trkpt lat="45.23799" lon="6.10827">
        <ele>2787.6</ele>
        <time>2021-02-27T12:17:51Z</time>
      </trkpt>
      <trkpt lat="45.23797" lon="6.10828">
        <ele>2787.6</ele>
        <time>2021-02-27T12:17:53Z</time>
      </trkpt>
      <trkpt lat="45.23795" lon="6.10829">
        <ele>2787.6</ele>
        <time>2021-02-27T12:17:54Z</time>
      </trkpt>
      <trkpt lat="45.23793" lon="6.1083">
        <ele>2787.6</ele>
        <time>2021-02-27T12:17:55Z</time>
      </trkpt>
      <trkpt lat="45.23791" lon="6.10831">
        <ele>2787.6</ele>
        <time>2021-02-27T12:17:56Z</time>
      </trkpt>
      <trkpt lat="45.23789" lon="6.10832">
        <ele>2774.8</ele>
        <time>2021-02-27T12:17:57Z</time>
      </trkpt>
      <trkpt lat="45.23785" lon="6.10835">
        <ele>2774.8</ele>
        <time>2021-02-27T12:17:58Z</time>
      </trkpt>
      <trkpt lat="45.23783" lon="6.10836">
        <ele>2774.8</ele>
        <time>2021-02-27T12:18:00Z</time>
      </trkpt>
      <trkpt lat="45.23781" lon="6.10837">
        <ele>2774.8</ele>
        <time>2021-02-27T12:18:01Z</time>
      </trkpt>
      <trkpt lat="45.23779" lon="6.10838">
        <ele>2774.8</ele>
        <time>2021-02-27T12:18:02Z</time>
      </trkpt>
      <trkpt lat="45.23777" lon="6.10838">
        <ele>2774.8</ele>
        <time>2021-02-27T12:18:03Z</time>
      </trkpt>
      <trkpt lat="45.23775" lon="6.10839">
        <ele>2774.8</ele>
        <time>2021-02-27T12:18:04Z</time>
      </trkpt>
      <trkpt lat="45.23773" lon="6.1084">
        <ele>2774.8</ele>
        <time>2021-02-27T12:18:06Z</time>
      </trkpt>
      <trkpt lat="45.23771" lon="6.10841">
        <ele>2759.8</ele>
        <time>2021-02-27T12:18:07Z</time>
      </trkpt>
      <trkpt lat="45.23768" lon="6.10841">
        <ele>2759.8</ele>
        <time>2021-02-27T12:18:08Z</time>
      </trkpt>
      <trkpt lat="45.23766" lon="6.1084">
        <ele>2759.8</ele>
        <time>2021-02-27T12:18:10Z</time>
      </trkpt>
      <trkpt lat="45.23765" lon="6.10838">
        <ele>2759.8</ele>
        <time>2021-02-27T12:18:11Z</time>
      </trkpt>
      <trkpt lat="45.23763" lon="6.10837">
        <ele>2759.8</ele>
        <time>2021-02-27T12:18:12Z</time>
      </trkpt>
      <trkpt lat="45.23762" lon="6.10836">
        <ele>2759.8</ele>
        <time>2021-02-27T12:18:13Z</time>
      </trkpt>
      <trkpt lat="45.2376" lon="6.10835">
        <ele>2759.8</ele>
        <time>2021-02-27T12:18:14Z</time>
      </trkpt>
      <trkpt lat="45.23758" lon="6.10833">
        <ele>2759.8</ele>
        <time>2021-02-27T12:18:16Z</time>
      </trkpt>
      <trkpt lat="45.23757" lon="6.10832">
        <ele>2748</ele>
        <time>2021-02-27T12:18:17Z</time>
      </trkpt>
      <trkpt lat="45.23756" lon="6.10832">
        <ele>2748</ele>
        <time>2021-02-27T12:18:18Z</time>
      </trkpt>
      <trkpt lat="45.23753" lon="6.10831">
        <ele>2748</ele>
        <time>2021-02-27T12:18:20Z</time>
      </trkpt>
      <trkpt lat="45.23752" lon="6.10833">
        <ele>2748</ele>
        <time>2021-02-27T12:18:22Z</time>
      </trkpt>
      <trkpt lat="45.23751" lon="6.10835">
        <ele>2748</ele>
        <time>2021-02-27T12:18:24Z</time>
      </trkpt>
      <trkpt lat="45.2375" lon="6.10832">
        <ele>2742.4</ele>
        <time>2021-02-27T12:18:27Z</time>
      </trkpt>
      <trkpt lat="45.23748" lon="6.10834">
        <ele>2742.4</ele>
        <time>2021-02-27T12:18:31Z</time>
      </trkpt>
      <trkpt lat="45.23746" lon="6.10836">
        <ele>2742.4</ele>
        <time>2021-02-27T12:18:35Z</time>
      </trkpt>
      <trkpt lat="45.23746" lon="6.10836">
        <ele>2733.6</ele>
        <time>2021-02-27T12:18:37Z</time>
      </trkpt>
      <trkpt lat="45.23745" lon="6.10837">
        <ele>2733.6</ele>
        <time>2021-02-27T12:18:38Z</time>
      </trkpt>
      <trkpt lat="45.23742" lon="6.10836">
        <ele>2733.6</ele>
        <time>2021-02-27T12:18:43Z</time>
      </trkpt>
      <trkpt lat="45.23742" lon="6.10833">
        <ele>2733.6</ele>
        <time>2021-02-27T12:18:45Z</time>
      </trkpt>
      <trkpt lat="45.23742" lon="6.10829">
        <ele>2724.2</ele>
        <time>2021-02-27T12:18:47Z</time>
      </trkpt>
      <trkpt lat="45.2374" lon="6.10821">
        <ele>2724.2</ele>
        <time>2021-02-27T12:18:49Z</time>
      </trkpt>
      <trkpt lat="45.23738" lon="6.10816">
        <ele>2724.2</ele>
        <time>2021-02-27T12:18:51Z</time>
      </trkpt>
      <trkpt lat="45.23737" lon="6.10812">
        <ele>2724.2</ele>
        <time>2021-02-27T12:18:52Z</time>
      </trkpt>
      <trkpt lat="45.23736" lon="6.10808">
        <ele>2724.2</ele>
        <time>2021-02-27T12:18:53Z</time>
      </trkpt>
      <trkpt lat="45.23734" lon="6.10804">
        <ele>2724.2</ele>
        <time>2021-02-27T12:18:55Z</time>
      </trkpt>
      <trkpt lat="45.23733" lon="6.108">
        <ele>2724.2</ele>
        <time>2021-02-27T12:18:56Z</time>
      </trkpt>
      <trkpt lat="45.23732" lon="6.10796">
        <ele>2718.6</ele>
        <time>2021-02-27T12:18:57Z</time>
      </trkpt>
      <trkpt lat="45.23729" lon="6.10791">
        <ele>2718.6</ele>
        <time>2021-02-27T12:18:58Z</time>
      </trkpt>
      <trkpt lat="45.23727" lon="6.10793">
        <ele>2718.6</ele>
        <time>2021-02-27T12:18:59Z</time>
      </trkpt>
      <trkpt lat="45.23726" lon="6.10795">
        <ele>2718.6</ele>
        <time>2021-02-27T12:19:00Z</time>
      </trkpt>
      <trkpt lat="45.23725" lon="6.10797">
        <ele>2718.6</ele>
        <time>2021-02-27T12:19:01Z</time>
      </trkpt>
      <trkpt lat="45.23723" lon="6.10798">
        <ele>2718.6</ele>
        <time>2021-02-27T12:19:02Z</time>
      </trkpt>
      <trkpt lat="45.23722" lon="6.108">
        <ele>2718.6</ele>
        <time>2021-02-27T12:19:03Z</time>
      </trkpt>
      <trkpt lat="45.23721" lon="6.10802">
        <ele>2718.6</ele>
        <time>2021-02-27T12:19:05Z</time>
      </trkpt>
      <trkpt lat="45.23719" lon="6.10804">
        <ele>2718.6</ele>
        <time>2021-02-27T12:19:06Z</time>
      </trkpt>
      <trkpt lat="45.23718" lon="6.10805">
        <ele>2710.4</ele>
        <time>2021-02-27T12:19:07Z</time>
      </trkpt>
      <trkpt lat="45.23714" lon="6.10813">
        <ele>2710.4</ele>
        <time>2021-02-27T12:19:08Z</time>
      </trkpt>
      <trkpt lat="45.23713" lon="6.10815">
        <ele>2710.4</ele>
        <time>2021-02-27T12:19:09Z</time>
      </trkpt>
      <trkpt lat="45.23711" lon="6.10817">
        <ele>2710.4</ele>
        <time>2021-02-27T12:19:10Z</time>
      </trkpt>
      <trkpt lat="45.2371" lon="6.10819">
        <ele>2710.4</ele>
        <time>2021-02-27T12:19:11Z</time>
      </trkpt>
      <trkpt lat="45.23709" lon="6.1082">
        <ele>2710.4</ele>
        <time>2021-02-27T12:19:12Z</time>
      </trkpt>
      <trkpt lat="45.23707" lon="6.10822">
        <ele>2710.4</ele>
        <time>2021-02-27T12:19:13Z</time>
      </trkpt>
      <trkpt lat="45.23706" lon="6.10824">
        <ele>2710.4</ele>
        <time>2021-02-27T12:19:14Z</time>
      </trkpt>
      <trkpt lat="45.23704" lon="6.10825">
        <ele>2710.4</ele>
        <time>2021-02-27T12:19:15Z</time>
      </trkpt>
      <trkpt lat="45.23703" lon="6.10827">
        <ele>2710.4</ele>
        <time>2021-02-27T12:19:16Z</time>
      </trkpt>
      <trkpt lat="45.23701" lon="6.10829">
        <ele>2698.4</ele>
        <time>2021-02-27T12:19:17Z</time>
      </trkpt>
      <trkpt lat="45.23699" lon="6.10831">
        <ele>2698.4</ele>
        <time>2021-02-27T12:19:18Z</time>
      </trkpt>
      <trkpt lat="45.23696" lon="6.10828">
        <ele>2698.4</ele>
        <time>2021-02-27T12:19:19Z</time>
      </trkpt>
      <trkpt lat="45.23694" lon="6.10825">
        <ele>2698.4</ele>
        <time>2021-02-27T12:19:20Z</time>
      </trkpt>
      <trkpt lat="45.23692" lon="6.10823">
        <ele>2698.4</ele>
        <time>2021-02-27T12:19:21Z</time>
      </trkpt>
      <trkpt lat="45.2369" lon="6.1082">
        <ele>2698.4</ele>
        <time>2021-02-27T12:19:22Z</time>
      </trkpt>
      <trkpt lat="45.23687" lon="6.10817">
        <ele>2698.4</ele>
        <time>2021-02-27T12:19:23Z</time>
      </trkpt>
      <trkpt lat="45.23685" lon="6.10814">
        <ele>2698.4</ele>
        <time>2021-02-27T12:19:24Z</time>
      </trkpt>
      <trkpt lat="45.23683" lon="6.10811">
        <ele>2698.4</ele>
        <time>2021-02-27T12:19:25Z</time>
      </trkpt>
      <trkpt lat="45.2368" lon="6.10808">
        <ele>2698.4</ele>
        <time>2021-02-27T12:19:26Z</time>
      </trkpt>
      <trkpt lat="45.23678" lon="6.10805">
        <ele>2685</ele>
        <time>2021-02-27T12:19:27Z</time>
      </trkpt>
      <trkpt lat="45.23671" lon="6.1081">
        <ele>2685</ele>
        <time>2021-02-27T12:19:28Z</time>
      </trkpt>
      <trkpt lat="45.23666" lon="6.1081">
        <ele>2685</ele>
        <time>2021-02-27T12:19:29Z</time>
      </trkpt>
      <trkpt lat="45.23661" lon="6.1081">
        <ele>2685</ele>
        <time>2021-02-27T12:19:30Z</time>
      </trkpt>
      <trkpt lat="45.23656" lon="6.1081">
        <ele>2685</ele>
        <time>2021-02-27T12:19:31Z</time>
      </trkpt>
      <trkpt lat="45.23651" lon="6.10809">
        <ele>2685</ele>
        <time>2021-02-27T12:19:32Z</time>
      </trkpt>
      <trkpt lat="45.23646" lon="6.10809">
        <ele>2685</ele>
        <time>2021-02-27T12:19:33Z</time>
      </trkpt>
      <trkpt lat="45.23641" lon="6.10809">
        <ele>2685</ele>
        <time>2021-02-27T12:19:34Z</time>
      </trkpt>
      <trkpt lat="45.23636" lon="6.10808">
        <ele>2685</ele>
        <time>2021-02-27T12:19:35Z</time>
      </trkpt>
      <trkpt lat="45.23631" lon="6.10808">
        <ele>2685</ele>
        <time>2021-02-27T12:19:36Z</time>
      </trkpt>
      <trkpt lat="45.23626" lon="6.10808">
        <ele>2670</ele>
        <time>2021-02-27T12:19:37Z</time>
      </trkpt>
      <trkpt lat="45.23625" lon="6.10814">
        <ele>2670</ele>
        <time>2021-02-27T12:19:38Z</time>
      </trkpt>
      <trkpt lat="45.23627" lon="6.10819">
        <ele>2670</ele>
        <time>2021-02-27T12:19:39Z</time>
      </trkpt>
      <trkpt lat="45.2363" lon="6.10824">
        <ele>2670</ele>
        <time>2021-02-27T12:19:40Z</time>
      </trkpt>
      <trkpt lat="45.23633" lon="6.10829">
        <ele>2670</ele>
        <time>2021-02-27T12:19:41Z</time>
      </trkpt>
      <trkpt lat="45.23635" lon="6.10834">
        <ele>2670</ele>
        <time>2021-02-27T12:19:42Z</time>
      </trkpt>
      <trkpt lat="45.23638" lon="6.10839">
        <ele>2670</ele>
        <time>2021-02-27T12:19:43Z</time>
      </trkpt>
      <trkpt lat="45.23641" lon="6.10845">
        <ele>2670</ele>
        <time>2021-02-27T12:19:44Z</time>
      </trkpt>
      <trkpt lat="45.23643" lon="6.1085">
        <ele>2670</ele>
        <time>2021-02-27T12:19:45Z</time>
      </trkpt>
      <trkpt lat="45.23646" lon="6.10855">
        <ele>2670</ele>
        <time>2021-02-27T12:19:46Z</time>
      </trkpt>
      <trkpt lat="45.23649" lon="6.1086">
        <ele>2661</ele>
        <time>2021-02-27T12:19:47Z</time>
      </trkpt>
      <trkpt lat="45.2365" lon="6.10868">
        <ele>2661</ele>
        <time>2021-02-27T12:19:48Z</time>
      </trkpt>
      <trkpt lat="45.23651" lon="6.1087">
        <ele>2661</ele>
        <time>2021-02-27T12:19:49Z</time>
      </trkpt>
      <trkpt lat="45.23651" lon="6.10872">
        <ele>2655.6</ele>
        <time>2021-02-27T12:19:57Z</time>
      </trkpt>
      <trkpt lat="45.23651" lon="6.10874">
        <ele>2654.2</ele>
        <time>2021-02-27T12:20:07Z</time>
      </trkpt>
      <trkpt lat="45.23651" lon="6.10876">
        <ele>2652.8</ele>
        <time>2021-02-27T12:20:17Z</time>
      </trkpt>
      <trkpt lat="45.23652" lon="6.10877">
        <ele>2653.6</ele>
        <time>2021-02-27T12:20:27Z</time>
      </trkpt>
      <trkpt lat="45.23652" lon="6.10879">
        <ele>2654.8</ele>
        <time>2021-02-27T12:20:37Z</time>
      </trkpt>
      <trkpt lat="45.23652" lon="6.10881">
        <ele>2655.6</ele>
        <time>2021-02-27T12:20:47Z</time>
      </trkpt>
      <trkpt lat="45.23652" lon="6.10883">
        <ele>2656.4</ele>
        <time>2021-02-27T12:20:57Z</time>
      </trkpt>
      <trkpt lat="45.23653" lon="6.10885">
        <ele>2655.2</ele>
        <time>2021-02-27T12:21:07Z</time>
      </trkpt>
      <trkpt lat="45.23653" lon="6.10887">
        <ele>2656</ele>
        <time>2021-02-27T12:21:17Z</time>
      </trkpt>
      <trkpt lat="45.23653" lon="6.10889">
        <ele>2655.8</ele>
        <time>2021-02-27T12:21:27Z</time>
      </trkpt>
      <trkpt lat="45.23654" lon="6.10891">
        <ele>2655.2</ele>
        <time>2021-02-27T12:21:37Z</time>
      </trkpt>
      <trkpt lat="45.23654" lon="6.10893">
        <ele>2654.6</ele>
        <time>2021-02-27T12:21:47Z</time>
      </trkpt>
      <trkpt lat="45.23654" lon="6.10895">
        <ele>2653.8</ele>
        <time>2021-02-27T12:21:57Z</time>
      </trkpt>
      <trkpt lat="45.23654" lon="6.10897">
        <ele>2655</ele>
        <time>2021-02-27T12:22:07Z</time>
      </trkpt>
      <trkpt lat="45.23655" lon="6.10899">
        <ele>2655.4</ele>
        <time>2021-02-27T12:22:17Z</time>
      </trkpt>
      <trkpt lat="45.23655" lon="6.10901">
        <ele>2656.8</ele>
        <time>2021-02-27T12:22:27Z</time>
      </trkpt>
      <trkpt lat="45.23655" lon="6.10903">
        <ele>2656.8</ele>
        <time>2021-02-27T12:22:28Z</time>
      </trkpt>
      <trkpt lat="45.23656" lon="6.10905">
        <ele>2656.8</ele>
        <time>2021-02-27T12:22:29Z</time>
      </trkpt>
      <trkpt lat="45.23656" lon="6.10907">
        <ele>2656.8</ele>
        <time>2021-02-27T12:22:30Z</time>
      </trkpt>
      <trkpt lat="45.23656" lon="6.10909">
        <ele>2656.8</ele>
        <time>2021-02-27T12:22:31Z</time>
      </trkpt>
      <trkpt lat="45.23656" lon="6.10911">
        <ele>2656.8</ele>
        <time>2021-02-27T12:22:32Z</time>
      </trkpt>
      <trkpt lat="45.23657" lon="6.10913">
        <ele>2656.8</ele>
        <time>2021-02-27T12:22:33Z</time>
      </trkpt>
      <trkpt lat="45.23657" lon="6.10915">
        <ele>2656.8</ele>
        <time>2021-02-27T12:22:34Z</time>
      </trkpt>
      <trkpt lat="45.23657" lon="6.10917">
        <ele>2656.8</ele>
        <time>2021-02-27T12:22:35Z</time>
      </trkpt>
      <trkpt lat="45.23658" lon="6.10918">
        <ele>2656.8</ele>
        <time>2021-02-27T12:22:36Z</time>
      </trkpt>
      <trkpt lat="45.23658" lon="6.1092">
        <ele>2653.8</ele>
        <time>2021-02-27T12:22:37Z</time>
      </trkpt>
      <trkpt lat="45.23658" lon="6.10939">
        <ele>2653.8</ele>
        <time>2021-02-27T12:22:38Z</time>
      </trkpt>
      <trkpt lat="45.23655" lon="6.10946">
        <ele>2653.8</ele>
        <time>2021-02-27T12:22:39Z</time>
      </trkpt>
      <trkpt lat="45.23653" lon="6.10954">
        <ele>2653.8</ele>
        <time>2021-02-27T12:22:40Z</time>
      </trkpt>
      <trkpt lat="45.23651" lon="6.10961">
        <ele>2653.8</ele>
        <time>2021-02-27T12:22:41Z</time>
      </trkpt>
      <trkpt lat="45.23649" lon="6.10969">
        <ele>2653.8</ele>
        <time>2021-02-27T12:22:42Z</time>
      </trkpt>
      <trkpt lat="45.23646" lon="6.10976">
        <ele>2653.8</ele>
        <time>2021-02-27T12:22:43Z</time>
      </trkpt>
      <trkpt lat="45.23644" lon="6.10984">
        <ele>2653.8</ele>
        <time>2021-02-27T12:22:44Z</time>
      </trkpt>
      <trkpt lat="45.23642" lon="6.10991">
        <ele>2653.8</ele>
        <time>2021-02-27T12:22:45Z</time>
      </trkpt>
      <trkpt lat="45.2364" lon="6.10999">
        <ele>2653.8</ele>
        <time>2021-02-27T12:22:46Z</time>
      </trkpt>
      <trkpt lat="45.23637" lon="6.11006">
        <ele>2645</ele>
        <time>2021-02-27T12:22:47Z</time>
      </trkpt>
      <trkpt lat="45.2363" lon="6.11024">
        <ele>2645</ele>
        <time>2021-02-27T12:22:48Z</time>
      </trkpt>
      <trkpt lat="45.23627" lon="6.11031">
        <ele>2645</ele>
        <time>2021-02-27T12:22:49Z</time>
      </trkpt>
      <trkpt lat="45.23625" lon="6.11038">
        <ele>2645</ele>
        <time>2021-02-27T12:22:50Z</time>
      </trkpt>
      <trkpt lat="45.23622" lon="6.11045">
        <ele>2645</ele>
        <time>2021-02-27T12:22:51Z</time>
      </trkpt>
      <trkpt lat="45.23619" lon="6.11052">
        <ele>2645</ele>
        <time>2021-02-27T12:22:52Z</time>
      </trkpt>
      <trkpt lat="45.23617" lon="6.11059">
        <ele>2645</ele>
        <time>2021-02-27T12:22:53Z</time>
      </trkpt>
      <trkpt lat="45.23614" lon="6.11066">
        <ele>2645</ele>
        <time>2021-02-27T12:22:54Z</time>
      </trkpt>
      <trkpt lat="45.23612" lon="6.11074">
        <ele>2645</ele>
        <time>2021-02-27T12:22:55Z</time>
      </trkpt>
      <trkpt lat="45.23609" lon="6.11081">
        <ele>2645</ele>
        <time>2021-02-27T12:22:56Z</time>
      </trkpt>
      <trkpt lat="45.23606" lon="6.11088">
        <ele>2629.4</ele>
        <time>2021-02-27T12:22:57Z</time>
      </trkpt>
      <trkpt lat="45.23601" lon="6.111">
        <ele>2629.4</ele>
        <time>2021-02-27T12:22:58Z</time>
      </trkpt>
      <trkpt lat="45.236" lon="6.11104">
        <ele>2629.4</ele>
        <time>2021-02-27T12:22:59Z</time>
      </trkpt>
      <trkpt lat="45.23598" lon="6.11108">
        <ele>2629.4</ele>
        <time>2021-02-27T12:23:00Z</time>
      </trkpt>
      <trkpt lat="45.23596" lon="6.11112">
        <ele>2629.4</ele>
        <time>2021-02-27T12:23:01Z</time>
      </trkpt>
      <trkpt lat="45.23595" lon="6.11116">
        <ele>2629.4</ele>
        <time>2021-02-27T12:23:02Z</time>
      </trkpt>
      <trkpt lat="45.23593" lon="6.1112">
        <ele>2629.4</ele>
        <time>2021-02-27T12:23:03Z</time>
      </trkpt>
      <trkpt lat="45.23592" lon="6.11124">
        <ele>2629.4</ele>
        <time>2021-02-27T12:23:04Z</time>
      </trkpt>
      <trkpt lat="45.2359" lon="6.11129">
        <ele>2629.4</ele>
        <time>2021-02-27T12:23:05Z</time>
      </trkpt>
      <trkpt lat="45.23589" lon="6.11133">
        <ele>2629.4</ele>
        <time>2021-02-27T12:23:06Z</time>
      </trkpt>
      <trkpt lat="45.23587" lon="6.11137">
        <ele>2614.4</ele>
        <time>2021-02-27T12:23:07Z</time>
      </trkpt>
      <trkpt lat="45.23589" lon="6.1115">
        <ele>2614.4</ele>
        <time>2021-02-27T12:23:08Z</time>
      </trkpt>
      <trkpt lat="45.23588" lon="6.11155">
        <ele>2614.4</ele>
        <time>2021-02-27T12:23:09Z</time>
      </trkpt>
      <trkpt lat="45.23587" lon="6.11161">
        <ele>2614.4</ele>
        <time>2021-02-27T12:23:10Z</time>
      </trkpt>
      <trkpt lat="45.23587" lon="6.11166">
        <ele>2614.4</ele>
        <time>2021-02-27T12:23:11Z</time>
      </trkpt>
      <trkpt lat="45.23586" lon="6.11171">
        <ele>2614.4</ele>
        <time>2021-02-27T12:23:12Z</time>
      </trkpt>
      <trkpt lat="45.23585" lon="6.11176">
        <ele>2614.4</ele>
        <time>2021-02-27T12:23:13Z</time>
      </trkpt>
      <trkpt lat="45.23584" lon="6.11182">
        <ele>2614.4</ele>
        <time>2021-02-27T12:23:14Z</time>
      </trkpt>
      <trkpt lat="45.23584" lon="6.11187">
        <ele>2614.4</ele>
        <time>2021-02-27T12:23:15Z</time>
      </trkpt>
      <trkpt lat="45.23583" lon="6.11192">
        <ele>2614.4</ele>
        <time>2021-02-27T12:23:16Z</time>
      </trkpt>
      <trkpt lat="45.23582" lon="6.11198">
        <ele>2596.8</ele>
        <time>2021-02-27T12:23:17Z</time>
      </trkpt>
      <trkpt lat="45.23574" lon="6.11195">
        <ele>2596.8</ele>
        <time>2021-02-27T12:23:18Z</time>
      </trkpt>
      <trkpt lat="45.23571" lon="6.11195">
        <ele>2596.8</ele>
        <time>2021-02-27T12:23:19Z</time>
      </trkpt>
      <trkpt lat="45.23567" lon="6.11195">
        <ele>2596.8</ele>
        <time>2021-02-27T12:23:20Z</time>
      </trkpt>
      <trkpt lat="45.23564" lon="6.11195">
        <ele>2596.8</ele>
        <time>2021-02-27T12:23:21Z</time>
      </trkpt>
      <trkpt lat="45.23561" lon="6.11195">
        <ele>2596.8</ele>
        <time>2021-02-27T12:23:22Z</time>
      </trkpt>
      <trkpt lat="45.23557" lon="6.11195">
        <ele>2596.8</ele>
        <time>2021-02-27T12:23:23Z</time>
      </trkpt>
      <trkpt lat="45.23554" lon="6.11195">
        <ele>2596.8</ele>
        <time>2021-02-27T12:23:24Z</time>
      </trkpt>
      <trkpt lat="45.2355" lon="6.11195">
        <ele>2596.8</ele>
        <time>2021-02-27T12:23:25Z</time>
      </trkpt>
      <trkpt lat="45.23547" lon="6.11195">
        <ele>2596.8</ele>
        <time>2021-02-27T12:23:26Z</time>
      </trkpt>
      <trkpt lat="45.23543" lon="6.11196">
        <ele>2574.4</ele>
        <time>2021-02-27T12:23:27Z</time>
      </trkpt>
      <trkpt lat="45.23541" lon="6.11198">
        <ele>2574.4</ele>
        <time>2021-02-27T12:23:28Z</time>
      </trkpt>
      <trkpt lat="45.23541" lon="6.11203">
        <ele>2574.4</ele>
        <time>2021-02-27T12:23:29Z</time>
      </trkpt>
      <trkpt lat="45.23542" lon="6.11209">
        <ele>2574.4</ele>
        <time>2021-02-27T12:23:30Z</time>
      </trkpt>
      <trkpt lat="45.23544" lon="6.11213">
        <ele>2574.4</ele>
        <time>2021-02-27T12:23:31Z</time>
      </trkpt>
      <trkpt lat="45.23545" lon="6.11216">
        <ele>2574.4</ele>
        <time>2021-02-27T12:23:32Z</time>
      </trkpt>
      <trkpt lat="45.23545" lon="6.11216">
        <ele>2565.2</ele>
        <time>2021-02-27T12:23:37Z</time>
      </trkpt>
      <trkpt lat="45.23547" lon="6.11221">
        <ele>2565.2</ele>
        <time>2021-02-27T12:23:43Z</time>
      </trkpt>
      <trkpt lat="45.23547" lon="6.11224">
        <ele>2565.2</ele>
        <time>2021-02-27T12:23:45Z</time>
      </trkpt>
      <trkpt lat="45.23548" lon="6.11228">
        <ele>2565.2</ele>
        <time>2021-02-27T12:23:46Z</time>
      </trkpt>
      <trkpt lat="45.23548" lon="6.11231">
        <ele>2564.2</ele>
        <time>2021-02-27T12:23:47Z</time>
      </trkpt>
      <trkpt lat="45.23549" lon="6.11246">
        <ele>2564.2</ele>
        <time>2021-02-27T12:23:48Z</time>
      </trkpt>
      <trkpt lat="45.2355" lon="6.11255">
        <ele>2564.2</ele>
        <time>2021-02-27T12:23:49Z</time>
      </trkpt>
      <trkpt lat="45.23552" lon="6.11264">
        <ele>2564.2</ele>
        <time>2021-02-27T12:23:50Z</time>
      </trkpt>
      <trkpt lat="45.23553" lon="6.11273">
        <ele>2564.2</ele>
        <time>2021-02-27T12:23:51Z</time>
      </trkpt>
      <trkpt lat="45.23554" lon="6.11282">
        <ele>2564.2</ele>
        <time>2021-02-27T12:23:52Z</time>
      </trkpt>
      <trkpt lat="45.23555" lon="6.11291">
        <ele>2564.2</ele>
        <time>2021-02-27T12:23:53Z</time>
      </trkpt>
      <trkpt lat="45.23556" lon="6.113">
        <ele>2564.2</ele>
        <time>2021-02-27T12:23:54Z</time>
      </trkpt>
      <trkpt lat="45.23557" lon="6.11309">
        <ele>2564.2</ele>
        <time>2021-02-27T12:23:55Z</time>
      </trkpt>
      <trkpt lat="45.23558" lon="6.11318">
        <ele>2564.2</ele>
        <time>2021-02-27T12:23:56Z</time>
      </trkpt>
      <trkpt lat="45.23559" lon="6.11327">
        <ele>2555.4</ele>
        <time>2021-02-27T12:23:57Z</time>
      </trkpt>
      <trkpt lat="45.2356" lon="6.11348">
        <ele>2555.4</ele>
        <time>2021-02-27T12:23:58Z</time>
      </trkpt>
      <trkpt lat="45.23559" lon="6.11356">
        <ele>2555.4</ele>
        <time>2021-02-27T12:23:59Z</time>
      </trkpt>
      <trkpt lat="45.23559" lon="6.11365">
        <ele>2555.4</ele>
        <time>2021-02-27T12:24:00Z</time>
      </trkpt>
      <trkpt lat="45.23558" lon="6.11374">
        <ele>2555.4</ele>
        <time>2021-02-27T12:24:01Z</time>
      </trkpt>
      <trkpt lat="45.23557" lon="6.11382">
        <ele>2555.4</ele>
        <time>2021-02-27T12:24:02Z</time>
      </trkpt>
      <trkpt lat="45.23556" lon="6.11391">
        <ele>2555.4</ele>
        <time>2021-02-27T12:24:03Z</time>
      </trkpt>
      <trkpt lat="45.23555" lon="6.114">
        <ele>2555.4</ele>
        <time>2021-02-27T12:24:04Z</time>
      </trkpt>
      <trkpt lat="45.23555" lon="6.11408">
        <ele>2555.4</ele>
        <time>2021-02-27T12:24:05Z</time>
      </trkpt>
      <trkpt lat="45.23554" lon="6.11417">
        <ele>2555.4</ele>
        <time>2021-02-27T12:24:06Z</time>
      </trkpt>
      <trkpt lat="45.23553" lon="6.11426">
        <ele>2538.6</ele>
        <time>2021-02-27T12:24:07Z</time>
      </trkpt>
      <trkpt lat="45.2355" lon="6.11438">
        <ele>2538.6</ele>
        <time>2021-02-27T12:24:08Z</time>
      </trkpt>
      <trkpt lat="45.23549" lon="6.11443">
        <ele>2538.6</ele>
        <time>2021-02-27T12:24:09Z</time>
      </trkpt>
      <trkpt lat="45.23547" lon="6.11448">
        <ele>2538.6</ele>
        <time>2021-02-27T12:24:10Z</time>
      </trkpt>
      <trkpt lat="45.23546" lon="6.11453">
        <ele>2538.6</ele>
        <time>2021-02-27T12:24:11Z</time>
      </trkpt>
      <trkpt lat="45.23545" lon="6.11458">
        <ele>2538.6</ele>
        <time>2021-02-27T12:24:12Z</time>
      </trkpt>
      <trkpt lat="45.23544" lon="6.11463">
        <ele>2538.6</ele>
        <time>2021-02-27T12:24:13Z</time>
      </trkpt>
      <trkpt lat="45.23543" lon="6.11468">
        <ele>2538.6</ele>
        <time>2021-02-27T12:24:14Z</time>
      </trkpt>
      <trkpt lat="45.23541" lon="6.11473">
        <ele>2538.6</ele>
        <time>2021-02-27T12:24:15Z</time>
      </trkpt>
      <trkpt lat="45.2354" lon="6.11478">
        <ele>2538.6</ele>
        <time>2021-02-27T12:24:16Z</time>
      </trkpt>
      <trkpt lat="45.23539" lon="6.11483">
        <ele>2529.4</ele>
        <time>2021-02-27T12:24:17Z</time>
      </trkpt>
      <trkpt lat="45.23539" lon="6.11494">
        <ele>2529.4</ele>
        <time>2021-02-27T12:24:18Z</time>
      </trkpt>
      <trkpt lat="45.2354" lon="6.115">
        <ele>2529.4</ele>
        <time>2021-02-27T12:24:19Z</time>
      </trkpt>
      <trkpt lat="45.2354" lon="6.11506">
        <ele>2529.4</ele>
        <time>2021-02-27T12:24:20Z</time>
      </trkpt>
      <trkpt lat="45.23541" lon="6.11513">
        <ele>2529.4</ele>
        <time>2021-02-27T12:24:21Z</time>
      </trkpt>
      <trkpt lat="45.23542" lon="6.11519">
        <ele>2529.4</ele>
        <time>2021-02-27T12:24:22Z</time>
      </trkpt>
      <trkpt lat="45.23542" lon="6.11525">
        <ele>2529.4</ele>
        <time>2021-02-27T12:24:23Z</time>
      </trkpt>
      <trkpt lat="45.23543" lon="6.11532">
        <ele>2529.4</ele>
        <time>2021-02-27T12:24:24Z</time>
      </trkpt>
      <trkpt lat="45.23544" lon="6.11538">
        <ele>2529.4</ele>
        <time>2021-02-27T12:24:25Z</time>
      </trkpt>
      <trkpt lat="45.23544" lon="6.11544">
        <ele>2529.4</ele>
        <time>2021-02-27T12:24:26Z</time>
      </trkpt>
      <trkpt lat="45.23545" lon="6.1155">
        <ele>2524.6</ele>
        <time>2021-02-27T12:24:27Z</time>
      </trkpt>
      <trkpt lat="45.23546" lon="6.11567">
        <ele>2524.6</ele>
        <time>2021-02-27T12:24:28Z</time>
      </trkpt>
      <trkpt lat="45.23546" lon="6.11574">
        <ele>2524.6</ele>
        <time>2021-02-27T12:24:29Z</time>
      </trkpt>
      <trkpt lat="45.23545" lon="6.11581">
        <ele>2524.6</ele>
        <time>2021-02-27T12:24:30Z</time>
      </trkpt>
      <trkpt lat="45.23545" lon="6.11588">
        <ele>2524.6</ele>
        <time>2021-02-27T12:24:31Z</time>
      </trkpt>
      <trkpt lat="45.23545" lon="6.11595">
        <ele>2524.6</ele>
        <time>2021-02-27T12:24:32Z</time>
      </trkpt>
      <trkpt lat="45.23545" lon="6.11602">
        <ele>2524.6</ele>
        <time>2021-02-27T12:24:33Z</time>
      </trkpt>
      <trkpt lat="45.23545" lon="6.11609">
        <ele>2524.6</ele>
        <time>2021-02-27T12:24:34Z</time>
      </trkpt>
      <trkpt lat="45.23545" lon="6.11615">
        <ele>2524.6</ele>
        <time>2021-02-27T12:24:35Z</time>
      </trkpt>
      <trkpt lat="45.23545" lon="6.11622">
        <ele>2524.6</ele>
        <time>2021-02-27T12:24:36Z</time>
      </trkpt>
      <trkpt lat="45.23545" lon="6.11629">
        <ele>2516</ele>
        <time>2021-02-27T12:24:37Z</time>
      </trkpt>
      <trkpt lat="45.23545" lon="6.11639">
        <ele>2516</ele>
        <time>2021-02-27T12:24:38Z</time>
      </trkpt>
      <trkpt lat="45.23545" lon="6.11642">
        <ele>2516</ele>
        <time>2021-02-27T12:24:39Z</time>
      </trkpt>
      <trkpt lat="45.23545" lon="6.11646">
        <ele>2516</ele>
        <time>2021-02-27T12:24:40Z</time>
      </trkpt>
      <trkpt lat="45.23545" lon="6.11649">
        <ele>2516</ele>
        <time>2021-02-27T12:24:41Z</time>
      </trkpt>
      <trkpt lat="45.23546" lon="6.11653">
        <ele>2516</ele>
        <time>2021-02-27T12:24:42Z</time>
      </trkpt>
      <trkpt lat="45.23546" lon="6.11656">
        <ele>2516</ele>
        <time>2021-02-27T12:24:43Z</time>
      </trkpt>
      <trkpt lat="45.23546" lon="6.1166">
        <ele>2516</ele>
        <time>2021-02-27T12:24:44Z</time>
      </trkpt>
      <trkpt lat="45.23546" lon="6.11663">
        <ele>2516</ele>
        <time>2021-02-27T12:24:46Z</time>
      </trkpt>
      <trkpt lat="45.23547" lon="6.11667">
        <ele>2513</ele>
        <time>2021-02-27T12:24:47Z</time>
      </trkpt>
      <trkpt lat="45.23548" lon="6.11673">
        <ele>2513</ele>
        <time>2021-02-27T12:24:48Z</time>
      </trkpt>
      <trkpt lat="45.23549" lon="6.11678">
        <ele>2513</ele>
        <time>2021-02-27T12:24:49Z</time>
      </trkpt>
      <trkpt lat="45.2355" lon="6.11682">
        <ele>2513</ele>
        <time>2021-02-27T12:24:50Z</time>
      </trkpt>
      <trkpt lat="45.2355" lon="6.11686">
        <ele>2513</ele>
        <time>2021-02-27T12:24:51Z</time>
      </trkpt>
      <trkpt lat="45.23551" lon="6.1169">
        <ele>2513</ele>
        <time>2021-02-27T12:24:52Z</time>
      </trkpt>
      <trkpt lat="45.23552" lon="6.11694">
        <ele>2513</ele>
        <time>2021-02-27T12:24:53Z</time>
      </trkpt>
      <trkpt lat="45.23553" lon="6.11698">
        <ele>2513</ele>
        <time>2021-02-27T12:24:54Z</time>
      </trkpt>
      <trkpt lat="45.23554" lon="6.11702">
        <ele>2513</ele>
        <time>2021-02-27T12:24:55Z</time>
      </trkpt>
      <trkpt lat="45.23555" lon="6.11707">
        <ele>2513</ele>
        <time>2021-02-27T12:24:56Z</time>
      </trkpt>
      <trkpt lat="45.23556" lon="6.11711">
        <ele>2510.8</ele>
        <time>2021-02-27T12:24:57Z</time>
      </trkpt>
      <trkpt lat="45.23557" lon="6.11719">
        <ele>2510.8</ele>
        <time>2021-02-27T12:24:58Z</time>
      </trkpt>
      <trkpt lat="45.23558" lon="6.11723">
        <ele>2510.8</ele>
        <time>2021-02-27T12:24:59Z</time>
      </trkpt>
      <trkpt lat="45.23559" lon="6.11727">
        <ele>2510.8</ele>
        <time>2021-02-27T12:25:00Z</time>
      </trkpt>
      <trkpt lat="45.23559" lon="6.11731">
        <ele>2510.8</ele>
        <time>2021-02-27T12:25:01Z</time>
      </trkpt>
      <trkpt lat="45.2356" lon="6.11735">
        <ele>2510.8</ele>
        <time>2021-02-27T12:25:02Z</time>
      </trkpt>
      <trkpt lat="45.23561" lon="6.11738">
        <ele>2510.8</ele>
        <time>2021-02-27T12:25:03Z</time>
      </trkpt>
      <trkpt lat="45.23562" lon="6.11742">
        <ele>2510.8</ele>
        <time>2021-02-27T12:25:04Z</time>
      </trkpt>
      <trkpt lat="45.23562" lon="6.11746">
        <ele>2510.8</ele>
        <time>2021-02-27T12:25:05Z</time>
      </trkpt>
      <trkpt lat="45.23563" lon="6.1175">
        <ele>2510.8</ele>
        <time>2021-02-27T12:25:06Z</time>
      </trkpt>
      <trkpt lat="45.23564" lon="6.11754">
        <ele>2508.8</ele>
        <time>2021-02-27T12:25:07Z</time>
      </trkpt>
      <trkpt lat="45.23567" lon="6.11762">
        <ele>2508.8</ele>
        <time>2021-02-27T12:25:08Z</time>
      </trkpt>
      <trkpt lat="45.23568" lon="6.11767">
        <ele>2508.8</ele>
        <time>2021-02-27T12:25:09Z</time>
      </trkpt>
      <trkpt lat="45.23569" lon="6.11771">
        <ele>2508.8</ele>
        <time>2021-02-27T12:25:10Z</time>
      </trkpt>
      <trkpt lat="45.23571" lon="6.11775">
        <ele>2508.8</ele>
        <time>2021-02-27T12:25:11Z</time>
      </trkpt>
      <trkpt lat="45.23572" lon="6.11779">
        <ele>2508.8</ele>
        <time>2021-02-27T12:25:12Z</time>
      </trkpt>
      <trkpt lat="45.23573" lon="6.11783">
        <ele>2508.8</ele>
        <time>2021-02-27T12:25:13Z</time>
      </trkpt>
      <trkpt lat="45.23574" lon="6.11788">
        <ele>2508.8</ele>
        <time>2021-02-27T12:25:14Z</time>
      </trkpt>
      <trkpt lat="45.23576" lon="6.11792">
        <ele>2508.8</ele>
        <time>2021-02-27T12:25:15Z</time>
      </trkpt>
      <trkpt lat="45.23577" lon="6.11796">
        <ele>2508.8</ele>
        <time>2021-02-27T12:25:16Z</time>
      </trkpt>
      <trkpt lat="45.23578" lon="6.118">
        <ele>2506.2</ele>
        <time>2021-02-27T12:25:17Z</time>
      </trkpt>
      <trkpt lat="45.23581" lon="6.11812">
        <ele>2506.2</ele>
        <time>2021-02-27T12:25:18Z</time>
      </trkpt>
      <trkpt lat="45.23581" lon="6.11819">
        <ele>2506.2</ele>
        <time>2021-02-27T12:25:19Z</time>
      </trkpt>
      <trkpt lat="45.23582" lon="6.11826">
        <ele>2506.2</ele>
        <time>2021-02-27T12:25:20Z</time>
      </trkpt>
      <trkpt lat="45.23583" lon="6.11833">
        <ele>2506.2</ele>
        <time>2021-02-27T12:25:21Z</time>
      </trkpt>
      <trkpt lat="45.23584" lon="6.1184">
        <ele>2506.2</ele>
        <time>2021-02-27T12:25:22Z</time>
      </trkpt>
      <trkpt lat="45.23585" lon="6.11847">
        <ele>2506.2</ele>
        <time>2021-02-27T12:25:23Z</time>
      </trkpt>
      <trkpt lat="45.23586" lon="6.11854">
        <ele>2506.2</ele>
        <time>2021-02-27T12:25:24Z</time>
      </trkpt>
      <trkpt lat="45.23586" lon="6.11861">
        <ele>2506.2</ele>
        <time>2021-02-27T12:25:25Z</time>
      </trkpt>
      <trkpt lat="45.23587" lon="6.11868">
        <ele>2506.2</ele>
        <time>2021-02-27T12:25:26Z</time>
      </trkpt>
      <trkpt lat="45.23588" lon="6.11875">
        <ele>2500.4</ele>
        <time>2021-02-27T12:25:27Z</time>
      </trkpt>
      <trkpt lat="45.23587" lon="6.11883">
        <ele>2500.4</ele>
        <time>2021-02-27T12:25:28Z</time>
      </trkpt>
      <trkpt lat="45.23587" lon="6.11886">
        <ele>2500.4</ele>
        <time>2021-02-27T12:25:29Z</time>
      </trkpt>
      <trkpt lat="45.23587" lon="6.1189">
        <ele>2500.4</ele>
        <time>2021-02-27T12:25:30Z</time>
      </trkpt>
      <trkpt lat="45.23587" lon="6.11893">
        <ele>2500.4</ele>
        <time>2021-02-27T12:25:31Z</time>
      </trkpt>
      <trkpt lat="45.23587" lon="6.11897">
        <ele>2500.4</ele>
        <time>2021-02-27T12:25:33Z</time>
      </trkpt>
      <trkpt lat="45.23587" lon="6.119">
        <ele>2500.4</ele>
        <time>2021-02-27T12:25:35Z</time>
      </trkpt>
      <trkpt lat="45.23587" lon="6.11904">
        <ele>2501.2</ele>
        <time>2021-02-27T12:25:37Z</time>
      </trkpt>
      <trkpt lat="45.23587" lon="6.11911">
        <ele>2501.2</ele>
        <time>2021-02-27T12:25:38Z</time>
      </trkpt>
      <trkpt lat="45.23587" lon="6.11915">
        <ele>2501.2</ele>
        <time>2021-02-27T12:25:39Z</time>
      </trkpt>
      <trkpt lat="45.23587" lon="6.11919">
        <ele>2501.2</ele>
        <time>2021-02-27T12:25:40Z</time>
      </trkpt>
      <trkpt lat="45.23587" lon="6.11924">
        <ele>2501.2</ele>
        <time>2021-02-27T12:25:41Z</time>
      </trkpt>
      <trkpt lat="45.23587" lon="6.11928">
        <ele>2501.2</ele>
        <time>2021-02-27T12:25:42Z</time>
      </trkpt>
      <trkpt lat="45.23587" lon="6.11932">
        <ele>2501.2</ele>
        <time>2021-02-27T12:25:43Z</time>
      </trkpt>
      <trkpt lat="45.23587" lon="6.11936">
        <ele>2501.2</ele>
        <time>2021-02-27T12:25:44Z</time>
      </trkpt>
      <trkpt lat="45.23587" lon="6.11941">
        <ele>2501.2</ele>
        <time>2021-02-27T12:25:45Z</time>
      </trkpt>
      <trkpt lat="45.23587" lon="6.11945">
        <ele>2501.2</ele>
        <time>2021-02-27T12:25:46Z</time>
      </trkpt>
      <trkpt lat="45.23586" lon="6.11949">
        <ele>2498.2</ele>
        <time>2021-02-27T12:25:47Z</time>
      </trkpt>
      <trkpt lat="45.23586" lon="6.11957">
        <ele>2498.2</ele>
        <time>2021-02-27T12:25:48Z</time>
      </trkpt>
      <trkpt lat="45.23586" lon="6.1196">
        <ele>2498.2</ele>
        <time>2021-02-27T12:25:49Z</time>
      </trkpt>
      <trkpt lat="45.23586" lon="6.11963">
        <ele>2498.2</ele>
        <time>2021-02-27T12:25:50Z</time>
      </trkpt>
      <trkpt lat="45.23586" lon="6.11966">
        <ele>2498.2</ele>
        <time>2021-02-27T12:25:51Z</time>
      </trkpt>
      <trkpt lat="45.23586" lon="6.11969">
        <ele>2498.2</ele>
        <time>2021-02-27T12:25:52Z</time>
      </trkpt>
      <trkpt lat="45.23586" lon="6.11972">
        <ele>2498.2</ele>
        <time>2021-02-27T12:25:53Z</time>
      </trkpt>
      <trkpt lat="45.23585" lon="6.11976">
        <ele>2498.2</ele>
        <time>2021-02-27T12:25:54Z</time>
      </trkpt>
      <trkpt lat="45.23585" lon="6.11979">
        <ele>2498.2</ele>
        <time>2021-02-27T12:25:55Z</time>
      </trkpt>
      <trkpt lat="45.23585" lon="6.11982">
        <ele>2498.2</ele>
        <time>2021-02-27T12:25:56Z</time>
      </trkpt>
      <trkpt lat="45.23585" lon="6.11985">
        <ele>2497</ele>
        <time>2021-02-27T12:25:57Z</time>
      </trkpt>
      <trkpt lat="45.23586" lon="6.11993">
        <ele>2497</ele>
        <time>2021-02-27T12:25:58Z</time>
      </trkpt>
      <trkpt lat="45.23586" lon="6.11996">
        <ele>2497</ele>
        <time>2021-02-27T12:25:59Z</time>
      </trkpt>
      <trkpt lat="45.23586" lon="6.12">
        <ele>2497</ele>
        <time>2021-02-27T12:26:00Z</time>
      </trkpt>
      <trkpt lat="45.23587" lon="6.12004">
        <ele>2497</ele>
        <time>2021-02-27T12:26:01Z</time>
      </trkpt>
      <trkpt lat="45.23587" lon="6.12008">
        <ele>2497</ele>
        <time>2021-02-27T12:26:02Z</time>
      </trkpt>
      <trkpt lat="45.23587" lon="6.12011">
        <ele>2497</ele>
        <time>2021-02-27T12:26:03Z</time>
      </trkpt>
      <trkpt lat="45.23587" lon="6.12015">
        <ele>2497</ele>
        <time>2021-02-27T12:26:04Z</time>
      </trkpt>
      <trkpt lat="45.23588" lon="6.12019">
        <ele>2497</ele>
        <time>2021-02-27T12:26:05Z</time>
      </trkpt>
      <trkpt lat="45.23588" lon="6.12023">
        <ele>2497</ele>
        <time>2021-02-27T12:26:06Z</time>
      </trkpt>
      <trkpt lat="45.23588" lon="6.12026">
        <ele>2495.4</ele>
        <time>2021-02-27T12:26:07Z</time>
      </trkpt>
      <trkpt lat="45.23589" lon="6.12032">
        <ele>2495.4</ele>
        <time>2021-02-27T12:26:08Z</time>
      </trkpt>
      <trkpt lat="45.23589" lon="6.12034">
        <ele>2495.4</ele>
        <time>2021-02-27T12:26:10Z</time>
      </trkpt>
      <trkpt lat="45.23589" lon="6.12037">
        <ele>2495.4</ele>
        <time>2021-02-27T12:26:11Z</time>
      </trkpt>
      <trkpt lat="45.2359" lon="6.1204">
        <ele>2495.4</ele>
        <time>2021-02-27T12:26:12Z</time>
      </trkpt>
      <trkpt lat="45.2359" lon="6.12043">
        <ele>2495.4</ele>
        <time>2021-02-27T12:26:13Z</time>
      </trkpt>
      <trkpt lat="45.2359" lon="6.12046">
        <ele>2495.4</ele>
        <time>2021-02-27T12:26:14Z</time>
      </trkpt>
      <trkpt lat="45.23591" lon="6.12049">
        <ele>2495.4</ele>
        <time>2021-02-27T12:26:15Z</time>
      </trkpt>
      <trkpt lat="45.23591" lon="6.12052">
        <ele>2495.4</ele>
        <time>2021-02-27T12:26:16Z</time>
      </trkpt>
      <trkpt lat="45.23591" lon="6.12055">
        <ele>2493.6</ele>
        <time>2021-02-27T12:26:17Z</time>
      </trkpt>
      <trkpt lat="45.23593" lon="6.1206">
        <ele>2493.6</ele>
        <time>2021-02-27T12:26:18Z</time>
      </trkpt>
      <trkpt lat="45.23594" lon="6.12063">
        <ele>2493.6</ele>
        <time>2021-02-27T12:26:20Z</time>
      </trkpt>
      <trkpt lat="45.23595" lon="6.12066">
        <ele>2493.6</ele>
        <time>2021-02-27T12:26:21Z</time>
      </trkpt>
      <trkpt lat="45.23596" lon="6.12069">
        <ele>2493.6</ele>
        <time>2021-02-27T12:26:23Z</time>
      </trkpt>
      <trkpt lat="45.23597" lon="6.12072">
        <ele>2493.6</ele>
        <time>2021-02-27T12:26:24Z</time>
      </trkpt>
      <trkpt lat="45.23598" lon="6.12074">
        <ele>2493.6</ele>
        <time>2021-02-27T12:26:25Z</time>
      </trkpt>
      <trkpt lat="45.23599" lon="6.12077">
        <ele>2493.6</ele>
        <time>2021-02-27T12:26:26Z</time>
      </trkpt>
      <trkpt lat="45.236" lon="6.1208">
        <ele>2494.8</ele>
        <time>2021-02-27T12:26:27Z</time>
      </trkpt>
      <trkpt lat="45.23605" lon="6.12088">
        <ele>2494.8</ele>
        <time>2021-02-27T12:26:28Z</time>
      </trkpt>
      <trkpt lat="45.23608" lon="6.12093">
        <ele>2494.8</ele>
        <time>2021-02-27T12:26:29Z</time>
      </trkpt>
      <trkpt lat="45.23611" lon="6.12098">
        <ele>2494.8</ele>
        <time>2021-02-27T12:26:30Z</time>
      </trkpt>
      <trkpt lat="45.23613" lon="6.12102">
        <ele>2494.8</ele>
        <time>2021-02-27T12:26:31Z</time>
      </trkpt>
      <trkpt lat="45.23616" lon="6.12107">
        <ele>2494.8</ele>
        <time>2021-02-27T12:26:32Z</time>
      </trkpt>
      <trkpt lat="45.23619" lon="6.12112">
        <ele>2494.8</ele>
        <time>2021-02-27T12:26:33Z</time>
      </trkpt>
      <trkpt lat="45.23622" lon="6.12117">
        <ele>2494.8</ele>
        <time>2021-02-27T12:26:34Z</time>
      </trkpt>
      <trkpt lat="45.23625" lon="6.12122">
        <ele>2494.8</ele>
        <time>2021-02-27T12:26:35Z</time>
      </trkpt>
      <trkpt lat="45.23628" lon="6.12127">
        <ele>2494.8</ele>
        <time>2021-02-27T12:26:36Z</time>
      </trkpt>
      <trkpt lat="45.2363" lon="6.12132">
        <ele>2487.8</ele>
        <time>2021-02-27T12:26:37Z</time>
      </trkpt>
      <trkpt lat="45.23627" lon="6.12138">
        <ele>2487.8</ele>
        <time>2021-02-27T12:26:38Z</time>
      </trkpt>
      <trkpt lat="45.23625" lon="6.12141">
        <ele>2487.8</ele>
        <time>2021-02-27T12:26:39Z</time>
      </trkpt>
      <trkpt lat="45.23624" lon="6.12143">
        <ele>2487.8</ele>
        <time>2021-02-27T12:26:40Z</time>
      </trkpt>
      <trkpt lat="45.23622" lon="6.12146">
        <ele>2487.8</ele>
        <time>2021-02-27T12:26:41Z</time>
      </trkpt>
      <trkpt lat="45.2362" lon="6.12148">
        <ele>2487.8</ele>
        <time>2021-02-27T12:26:42Z</time>
      </trkpt>
      <trkpt lat="45.23619" lon="6.12151">
        <ele>2487.8</ele>
        <time>2021-02-27T12:26:43Z</time>
      </trkpt>
      <trkpt lat="45.23617" lon="6.12153">
        <ele>2487.8</ele>
        <time>2021-02-27T12:26:44Z</time>
      </trkpt>
      <trkpt lat="45.23616" lon="6.12156">
        <ele>2487.8</ele>
        <time>2021-02-27T12:26:45Z</time>
      </trkpt>
      <trkpt lat="45.23614" lon="6.12158">
        <ele>2487.8</ele>
        <time>2021-02-27T12:26:46Z</time>
      </trkpt>
      <trkpt lat="45.23612" lon="6.12161">
        <ele>2470.8</ele>
        <time>2021-02-27T12:26:47Z</time>
      </trkpt>
      <trkpt lat="45.23616" lon="6.12169">
        <ele>2470.8</ele>
        <time>2021-02-27T12:26:48Z</time>
      </trkpt>
      <trkpt lat="45.23616" lon="6.12172">
        <ele>2470.8</ele>
        <time>2021-02-27T12:26:49Z</time>
      </trkpt>
      <trkpt lat="45.23615" lon="6.12175">
        <ele>2470.8</ele>
        <time>2021-02-27T12:26:50Z</time>
      </trkpt>
      <trkpt lat="45.23615" lon="6.12179">
        <ele>2470.8</ele>
        <time>2021-02-27T12:26:51Z</time>
      </trkpt>
      <trkpt lat="45.23614" lon="6.12182">
        <ele>2470.8</ele>
        <time>2021-02-27T12:26:52Z</time>
      </trkpt>
      <trkpt lat="45.23614" lon="6.12185">
        <ele>2470.8</ele>
        <time>2021-02-27T12:26:53Z</time>
      </trkpt>
      <trkpt lat="45.23614" lon="6.12188">
        <ele>2470.8</ele>
        <time>2021-02-27T12:26:54Z</time>
      </trkpt>
      <trkpt lat="45.23613" lon="6.12192">
        <ele>2470.8</ele>
        <time>2021-02-27T12:26:55Z</time>
      </trkpt>
      <trkpt lat="45.23613" lon="6.12195">
        <ele>2470.8</ele>
        <time>2021-02-27T12:26:56Z</time>
      </trkpt>
      <trkpt lat="45.23612" lon="6.12198">
        <ele>2456.2</ele>
        <time>2021-02-27T12:26:57Z</time>
      </trkpt>
      <trkpt lat="45.2361" lon="6.12207">
        <ele>2456.2</ele>
        <time>2021-02-27T12:26:58Z</time>
      </trkpt>
      <trkpt lat="45.2361" lon="6.12215">
        <ele>2456.2</ele>
        <time>2021-02-27T12:26:59Z</time>
      </trkpt>
      <trkpt lat="45.2361" lon="6.12222">
        <ele>2456.2</ele>
        <time>2021-02-27T12:27:00Z</time>
      </trkpt>
      <trkpt lat="45.23609" lon="6.1223">
        <ele>2456.2</ele>
        <time>2021-02-27T12:27:01Z</time>
      </trkpt>
      <trkpt lat="45.23609" lon="6.12237">
        <ele>2456.2</ele>
        <time>2021-02-27T12:27:02Z</time>
      </trkpt>
      <trkpt lat="45.23609" lon="6.12245">
        <ele>2456.2</ele>
        <time>2021-02-27T12:27:03Z</time>
      </trkpt>
      <trkpt lat="45.23608" lon="6.12252">
        <ele>2456.2</ele>
        <time>2021-02-27T12:27:04Z</time>
      </trkpt>
      <trkpt lat="45.23608" lon="6.12259">
        <ele>2456.2</ele>
        <time>2021-02-27T12:27:05Z</time>
      </trkpt>
      <trkpt lat="45.23608" lon="6.12267">
        <ele>2456.2</ele>
        <time>2021-02-27T12:27:06Z</time>
      </trkpt>
      <trkpt lat="45.23607" lon="6.12274">
        <ele>2441.6</ele>
        <time>2021-02-27T12:27:07Z</time>
      </trkpt>
      <trkpt lat="45.2361" lon="6.12294">
        <ele>2441.6</ele>
        <time>2021-02-27T12:27:08Z</time>
      </trkpt>
      <trkpt lat="45.23612" lon="6.12302">
        <ele>2441.6</ele>
        <time>2021-02-27T12:27:09Z</time>
      </trkpt>
      <trkpt lat="45.23614" lon="6.12309">
        <ele>2441.6</ele>
        <time>2021-02-27T12:27:10Z</time>
      </trkpt>
      <trkpt lat="45.23616" lon="6.12317">
        <ele>2441.6</ele>
        <time>2021-02-27T12:27:11Z</time>
      </trkpt>
      <trkpt lat="45.23618" lon="6.12325">
        <ele>2441.6</ele>
        <time>2021-02-27T12:27:12Z</time>
      </trkpt>
      <trkpt lat="45.2362" lon="6.12332">
        <ele>2441.6</ele>
        <time>2021-02-27T12:27:13Z</time>
      </trkpt>
      <trkpt lat="45.23623" lon="6.1234">
        <ele>2441.6</ele>
        <time>2021-02-27T12:27:14Z</time>
      </trkpt>
      <trkpt lat="45.23625" lon="6.12348">
        <ele>2441.6</ele>
        <time>2021-02-27T12:27:15Z</time>
      </trkpt>
      <trkpt lat="45.23627" lon="6.12355">
        <ele>2441.6</ele>
        <time>2021-02-27T12:27:16Z</time>
      </trkpt>
      <trkpt lat="45.23629" lon="6.12363">
        <ele>2428</ele>
        <time>2021-02-27T12:27:17Z</time>
      </trkpt>
      <trkpt lat="45.23643" lon="6.12375">
        <ele>2428</ele>
        <time>2021-02-27T12:27:18Z</time>
      </trkpt>
      <trkpt lat="45.23648" lon="6.12381">
        <ele>2428</ele>
        <time>2021-02-27T12:27:19Z</time>
      </trkpt>
      <trkpt lat="45.23652" lon="6.12387">
        <ele>2428</ele>
        <time>2021-02-27T12:27:20Z</time>
      </trkpt>
      <trkpt lat="45.23657" lon="6.12393">
        <ele>2428</ele>
        <time>2021-02-27T12:27:21Z</time>
      </trkpt>
      <trkpt lat="45.23662" lon="6.12398">
        <ele>2428</ele>
        <time>2021-02-27T12:27:22Z</time>
      </trkpt>
      <trkpt lat="45.23667" lon="6.12404">
        <ele>2428</ele>
        <time>2021-02-27T12:27:23Z</time>
      </trkpt>
      <trkpt lat="45.23672" lon="6.1241">
        <ele>2428</ele>
        <time>2021-02-27T12:27:24Z</time>
      </trkpt>
      <trkpt lat="45.23677" lon="6.12416">
        <ele>2428</ele>
        <time>2021-02-27T12:27:25Z</time>
      </trkpt>
      <trkpt lat="45.23682" lon="6.12422">
        <ele>2428</ele>
        <time>2021-02-27T12:27:26Z</time>
      </trkpt>
      <trkpt lat="45.23687" lon="6.12428">
        <ele>2415</ele>
        <time>2021-02-27T12:27:27Z</time>
      </trkpt>
      <trkpt lat="45.23692" lon="6.12442">
        <ele>2415</ele>
        <time>2021-02-27T12:27:28Z</time>
      </trkpt>
      <trkpt lat="45.23694" lon="6.12449">
        <ele>2415</ele>
        <time>2021-02-27T12:27:29Z</time>
      </trkpt>
      <trkpt lat="45.23697" lon="6.12456">
        <ele>2415</ele>
        <time>2021-02-27T12:27:30Z</time>
      </trkpt>
      <trkpt lat="45.23699" lon="6.12463">
        <ele>2415</ele>
        <time>2021-02-27T12:27:31Z</time>
      </trkpt>
      <trkpt lat="45.23701" lon="6.1247">
        <ele>2415</ele>
        <time>2021-02-27T12:27:32Z</time>
      </trkpt>
      <trkpt lat="45.23703" lon="6.12477">
        <ele>2415</ele>
        <time>2021-02-27T12:27:33Z</time>
      </trkpt>
      <trkpt lat="45.23706" lon="6.12484">
        <ele>2415</ele>
        <time>2021-02-27T12:27:34Z</time>
      </trkpt>
      <trkpt lat="45.23708" lon="6.12491">
        <ele>2415</ele>
        <time>2021-02-27T12:27:35Z</time>
      </trkpt>
      <trkpt lat="45.2371" lon="6.12498">
        <ele>2415</ele>
        <time>2021-02-27T12:27:36Z</time>
      </trkpt>
      <trkpt lat="45.23713" lon="6.12505">
        <ele>2408.4</ele>
        <time>2021-02-27T12:27:37Z</time>
      </trkpt>
      <trkpt lat="45.23713" lon="6.12519">
        <ele>2408.4</ele>
        <time>2021-02-27T12:27:38Z</time>
      </trkpt>
      <trkpt lat="45.23713" lon="6.12525">
        <ele>2408.4</ele>
        <time>2021-02-27T12:27:39Z</time>
      </trkpt>
      <trkpt lat="45.23713" lon="6.12531">
        <ele>2408.4</ele>
        <time>2021-02-27T12:27:40Z</time>
      </trkpt>
      <trkpt lat="45.23713" lon="6.12537">
        <ele>2408.4</ele>
        <time>2021-02-27T12:27:41Z</time>
      </trkpt>
      <trkpt lat="45.23713" lon="6.12544">
        <ele>2408.4</ele>
        <time>2021-02-27T12:27:42Z</time>
      </trkpt>
      <trkpt lat="45.23713" lon="6.1255">
        <ele>2408.4</ele>
        <time>2021-02-27T12:27:43Z</time>
      </trkpt>
      <trkpt lat="45.23713" lon="6.12556">
        <ele>2408.4</ele>
        <time>2021-02-27T12:27:44Z</time>
      </trkpt>
      <trkpt lat="45.23713" lon="6.12562">
        <ele>2408.4</ele>
        <time>2021-02-27T12:27:45Z</time>
      </trkpt>
      <trkpt lat="45.23713" lon="6.12568">
        <ele>2408.4</ele>
        <time>2021-02-27T12:27:46Z</time>
      </trkpt>
      <trkpt lat="45.23713" lon="6.12574">
        <ele>2404.4</ele>
        <time>2021-02-27T12:27:47Z</time>
      </trkpt>
      <trkpt lat="45.2371" lon="6.12588">
        <ele>2404.4</ele>
        <time>2021-02-27T12:27:48Z</time>
      </trkpt>
      <trkpt lat="45.23708" lon="6.12593">
        <ele>2404.4</ele>
        <time>2021-02-27T12:27:49Z</time>
      </trkpt>
      <trkpt lat="45.23706" lon="6.12597">
        <ele>2404.4</ele>
        <time>2021-02-27T12:27:50Z</time>
      </trkpt>
      <trkpt lat="45.23704" lon="6.12602">
        <ele>2404.4</ele>
        <time>2021-02-27T12:27:51Z</time>
      </trkpt>
      <trkpt lat="45.23702" lon="6.12607">
        <ele>2404.4</ele>
        <time>2021-02-27T12:27:52Z</time>
      </trkpt>
      <trkpt lat="45.237" lon="6.12612">
        <ele>2404.4</ele>
        <time>2021-02-27T12:27:53Z</time>
      </trkpt>
      <trkpt lat="45.23698" lon="6.12617">
        <ele>2404.4</ele>
        <time>2021-02-27T12:27:54Z</time>
      </trkpt>
      <trkpt lat="45.23696" lon="6.12621">
        <ele>2404.4</ele>
        <time>2021-02-27T12:27:55Z</time>
      </trkpt>
      <trkpt lat="45.23694" lon="6.12626">
        <ele>2404.4</ele>
        <time>2021-02-27T12:27:56Z</time>
      </trkpt>
      <trkpt lat="45.23692" lon="6.12631">
        <ele>2400</ele>
        <time>2021-02-27T12:27:57Z</time>
      </trkpt>
      <trkpt lat="45.23689" lon="6.1264">
        <ele>2400</ele>
        <time>2021-02-27T12:27:58Z</time>
      </trkpt>
      <trkpt lat="45.23688" lon="6.12643">
        <ele>2400</ele>
        <time>2021-02-27T12:27:59Z</time>
      </trkpt>
      <trkpt lat="45.23687" lon="6.12646">
        <ele>2400</ele>
        <time>2021-02-27T12:28:00Z</time>
      </trkpt>
      <trkpt lat="45.23686" lon="6.12649">
        <ele>2400</ele>
        <time>2021-02-27T12:28:01Z</time>
      </trkpt>
      <trkpt lat="45.23685" lon="6.12652">
        <ele>2400</ele>
        <time>2021-02-27T12:28:02Z</time>
      </trkpt>
      <trkpt lat="45.23684" lon="6.12655">
        <ele>2400</ele>
        <time>2021-02-27T12:28:03Z</time>
      </trkpt>
      <trkpt lat="45.23683" lon="6.12658">
        <ele>2400</ele>
        <time>2021-02-27T12:28:04Z</time>
      </trkpt>
      <trkpt lat="45.23682" lon="6.12662">
        <ele>2400</ele>
        <time>2021-02-27T12:28:05Z</time>
      </trkpt>
      <trkpt lat="45.23681" lon="6.12665">
        <ele>2400</ele>
        <time>2021-02-27T12:28:06Z</time>
      </trkpt>
      <trkpt lat="45.2368" lon="6.12668">
        <ele>2398.6</ele>
        <time>2021-02-27T12:28:07Z</time>
      </trkpt>
      <trkpt lat="45.23677" lon="6.12672">
        <ele>2398.6</ele>
        <time>2021-02-27T12:28:08Z</time>
      </trkpt>
      <trkpt lat="45.23676" lon="6.12674">
        <ele>2398.6</ele>
        <time>2021-02-27T12:28:09Z</time>
      </trkpt>
      <trkpt lat="45.23674" lon="6.12675">
        <ele>2398.6</ele>
        <time>2021-02-27T12:28:11Z</time>
      </trkpt>
      <trkpt lat="45.23672" lon="6.12677">
        <ele>2398.4</ele>
        <time>2021-02-27T12:28:17Z</time>
      </trkpt>
      <trkpt lat="45.23671" lon="6.12678">
        <ele>2398.4</ele>
        <time>2021-02-27T12:28:18Z</time>
      </trkpt>
      <trkpt lat="45.23669" lon="6.1268">
        <ele>2399.4</ele>
        <time>2021-02-27T12:28:27Z</time>
      </trkpt>
      <trkpt lat="45.23668" lon="6.12681">
        <ele>2399.8</ele>
        <time>2021-02-27T12:28:37Z</time>
      </trkpt>
      <trkpt lat="45.23666" lon="6.12683">
        <ele>2399.2</ele>
        <time>2021-02-27T12:28:47Z</time>
      </trkpt>
      <trkpt lat="45.23664" lon="6.12685">
        <ele>2399.4</ele>
        <time>2021-02-27T12:28:57Z</time>
      </trkpt>
      <trkpt lat="45.23663" lon="6.12686">
        <ele>2399.4</ele>
        <time>2021-02-27T12:28:58Z</time>
      </trkpt>
      <trkpt lat="45.23661" lon="6.12688">
        <ele>2399.4</ele>
        <time>2021-02-27T12:28:59Z</time>
      </trkpt>
      <trkpt lat="45.23659" lon="6.12689">
        <ele>2399.4</ele>
        <time>2021-02-27T12:29:00Z</time>
      </trkpt>
      <trkpt lat="45.23658" lon="6.12691">
        <ele>2399.4</ele>
        <time>2021-02-27T12:29:01Z</time>
      </trkpt>
      <trkpt lat="45.23656" lon="6.12692">
        <ele>2399.4</ele>
        <time>2021-02-27T12:29:02Z</time>
      </trkpt>
      <trkpt lat="45.23655" lon="6.12694">
        <ele>2399.4</ele>
        <time>2021-02-27T12:29:03Z</time>
      </trkpt>
      <trkpt lat="45.23653" lon="6.12695">
        <ele>2399.4</ele>
        <time>2021-02-27T12:29:04Z</time>
      </trkpt>
      <trkpt lat="45.23651" lon="6.12697">
        <ele>2399.4</ele>
        <time>2021-02-27T12:29:05Z</time>
      </trkpt>
      <trkpt lat="45.2365" lon="6.12698">
        <ele>2399.4</ele>
        <time>2021-02-27T12:29:06Z</time>
      </trkpt>
      <trkpt lat="45.23648" lon="6.127">
        <ele>2390.6</ele>
        <time>2021-02-27T12:29:07Z</time>
      </trkpt>
      <trkpt lat="45.2364" lon="6.12708">
        <ele>2390.6</ele>
        <time>2021-02-27T12:29:08Z</time>
      </trkpt>
      <trkpt lat="45.23638" lon="6.12714">
        <ele>2390.6</ele>
        <time>2021-02-27T12:29:09Z</time>
      </trkpt>
      <trkpt lat="45.23637" lon="6.12719">
        <ele>2390.6</ele>
        <time>2021-02-27T12:29:10Z</time>
      </trkpt>
      <trkpt lat="45.23636" lon="6.12725">
        <ele>2390.6</ele>
        <time>2021-02-27T12:29:11Z</time>
      </trkpt>
      <trkpt lat="45.23634" lon="6.1273">
        <ele>2390.6</ele>
        <time>2021-02-27T12:29:12Z</time>
      </trkpt>
      <trkpt lat="45.23633" lon="6.12736">
        <ele>2390.6</ele>
        <time>2021-02-27T12:29:13Z</time>
      </trkpt>
      <trkpt lat="45.23632" lon="6.12741">
        <ele>2390.6</ele>
        <time>2021-02-27T12:29:14Z</time>
      </trkpt>
      <trkpt lat="45.2363" lon="6.12746">
        <ele>2390.6</ele>
        <time>2021-02-27T12:29:15Z</time>
      </trkpt>
      <trkpt lat="45.23629" lon="6.12752">
        <ele>2390.6</ele>
        <time>2021-02-27T12:29:16Z</time>
      </trkpt>
      <trkpt lat="45.23627" lon="6.12757">
        <ele>2376.2</ele>
        <time>2021-02-27T12:29:17Z</time>
      </trkpt>
      <trkpt lat="45.23623" lon="6.12763">
        <ele>2376.2</ele>
        <time>2021-02-27T12:29:18Z</time>
      </trkpt>
      <trkpt lat="45.23619" lon="6.12765">
        <ele>2376.2</ele>
        <time>2021-02-27T12:29:19Z</time>
      </trkpt>
      <trkpt lat="45.23615" lon="6.12767">
        <ele>2376.2</ele>
        <time>2021-02-27T12:29:20Z</time>
      </trkpt>
      <trkpt lat="45.23611" lon="6.12769">
        <ele>2376.2</ele>
        <time>2021-02-27T12:29:21Z</time>
      </trkpt>
      <trkpt lat="45.23606" lon="6.12771">
        <ele>2376.2</ele>
        <time>2021-02-27T12:29:22Z</time>
      </trkpt>
      <trkpt lat="45.23602" lon="6.12773">
        <ele>2376.2</ele>
        <time>2021-02-27T12:29:23Z</time>
      </trkpt>
      <trkpt lat="45.23598" lon="6.12774">
        <ele>2376.2</ele>
        <time>2021-02-27T12:29:24Z</time>
      </trkpt>
      <trkpt lat="45.23594" lon="6.12776">
        <ele>2376.2</ele>
        <time>2021-02-27T12:29:25Z</time>
      </trkpt>
      <trkpt lat="45.23589" lon="6.12778">
        <ele>2376.2</ele>
        <time>2021-02-27T12:29:26Z</time>
      </trkpt>
      <trkpt lat="45.23585" lon="6.1278">
        <ele>2367.4</ele>
        <time>2021-02-27T12:29:27Z</time>
      </trkpt>
      <trkpt lat="45.23576" lon="6.12787">
        <ele>2367.4</ele>
        <time>2021-02-27T12:29:28Z</time>
      </trkpt>
      <trkpt lat="45.23572" lon="6.12789">
        <ele>2367.4</ele>
        <time>2021-02-27T12:29:29Z</time>
      </trkpt>
      <trkpt lat="45.23568" lon="6.12791">
        <ele>2367.4</ele>
        <time>2021-02-27T12:29:30Z</time>
      </trkpt>
      <trkpt lat="45.23564" lon="6.12793">
        <ele>2367.4</ele>
        <time>2021-02-27T12:29:31Z</time>
      </trkpt>
      <trkpt lat="45.2356" lon="6.12795">
        <ele>2367.4</ele>
        <time>2021-02-27T12:29:32Z</time>
      </trkpt>
      <trkpt lat="45.23556" lon="6.12797">
        <ele>2367.4</ele>
        <time>2021-02-27T12:29:33Z</time>
      </trkpt>
      <trkpt lat="45.23552" lon="6.12799">
        <ele>2367.4</ele>
        <time>2021-02-27T12:29:34Z</time>
      </trkpt>
      <trkpt lat="45.23549" lon="6.12801">
        <ele>2367.4</ele>
        <time>2021-02-27T12:29:36Z</time>
      </trkpt>
      <trkpt lat="45.23545" lon="6.12803">
        <ele>2355.4</ele>
        <time>2021-02-27T12:29:37Z</time>
      </trkpt>
      <trkpt lat="45.23543" lon="6.12803">
        <ele>2354.6</ele>
        <time>2021-02-27T12:29:47Z</time>
      </trkpt>
      <trkpt lat="45.23542" lon="6.12803">
        <ele>2354.2</ele>
        <time>2021-02-27T12:29:57Z</time>
      </trkpt>
      <trkpt lat="45.2354" lon="6.12804">
        <ele>2354.2</ele>
        <time>2021-02-27T12:30:05Z</time>
      </trkpt>
      <trkpt lat="45.23539" lon="6.12804">
        <ele>2354.2</ele>
        <time>2021-02-27T12:30:06Z</time>
      </trkpt>
      <trkpt lat="45.23537" lon="6.12805">
        <ele>2352.8</ele>
        <time>2021-02-27T12:30:07Z</time>
      </trkpt>
      <trkpt lat="45.23529" lon="6.12801">
        <ele>2352.8</ele>
        <time>2021-02-27T12:30:08Z</time>
      </trkpt>
      <trkpt lat="45.23525" lon="6.128">
        <ele>2352.8</ele>
        <time>2021-02-27T12:30:09Z</time>
      </trkpt>
      <trkpt lat="45.23521" lon="6.12799">
        <ele>2352.8</ele>
        <time>2021-02-27T12:30:10Z</time>
      </trkpt>
      <trkpt lat="45.23517" lon="6.12798">
        <ele>2352.8</ele>
        <time>2021-02-27T12:30:11Z</time>
      </trkpt>
      <trkpt lat="45.23513" lon="6.12798">
        <ele>2352.8</ele>
        <time>2021-02-27T12:30:12Z</time>
      </trkpt>
      <trkpt lat="45.23508" lon="6.12797">
        <ele>2352.8</ele>
        <time>2021-02-27T12:30:13Z</time>
      </trkpt>
      <trkpt lat="45.23504" lon="6.12796">
        <ele>2352.8</ele>
        <time>2021-02-27T12:30:14Z</time>
      </trkpt>
      <trkpt lat="45.235" lon="6.12795">
        <ele>2352.8</ele>
        <time>2021-02-27T12:30:15Z</time>
      </trkpt>
      <trkpt lat="45.23496" lon="6.12794">
        <ele>2352.8</ele>
        <time>2021-02-27T12:30:16Z</time>
      </trkpt>
      <trkpt lat="45.23492" lon="6.12793">
        <ele>2333</ele>
        <time>2021-02-27T12:30:17Z</time>
      </trkpt>
      <trkpt lat="45.23483" lon="6.1279">
        <ele>2333</ele>
        <time>2021-02-27T12:30:18Z</time>
      </trkpt>
      <trkpt lat="45.23478" lon="6.12791">
        <ele>2333</ele>
        <time>2021-02-27T12:30:19Z</time>
      </trkpt>
      <trkpt lat="45.23473" lon="6.12793">
        <ele>2333</ele>
        <time>2021-02-27T12:30:20Z</time>
      </trkpt>
      <trkpt lat="45.23469" lon="6.12794">
        <ele>2333</ele>
        <time>2021-02-27T12:30:21Z</time>
      </trkpt>
      <trkpt lat="45.23464" lon="6.12795">
        <ele>2333</ele>
        <time>2021-02-27T12:30:22Z</time>
      </trkpt>
      <trkpt lat="45.23459" lon="6.12796">
        <ele>2333</ele>
        <time>2021-02-27T12:30:23Z</time>
      </trkpt>
      <trkpt lat="45.23454" lon="6.12798">
        <ele>2333</ele>
        <time>2021-02-27T12:30:24Z</time>
      </trkpt>
      <trkpt lat="45.2345" lon="6.12799">
        <ele>2333</ele>
        <time>2021-02-27T12:30:25Z</time>
      </trkpt>
      <trkpt lat="45.23445" lon="6.128">
        <ele>2333</ele>
        <time>2021-02-27T12:30:26Z</time>
      </trkpt>
      <trkpt lat="45.2344" lon="6.12801">
        <ele>2307.6</ele>
        <time>2021-02-27T12:30:27Z</time>
      </trkpt>
      <trkpt lat="45.23428" lon="6.12809">
        <ele>2307.6</ele>
        <time>2021-02-27T12:30:28Z</time>
      </trkpt>
      <trkpt lat="45.23423" lon="6.12813">
        <ele>2307.6</ele>
        <time>2021-02-27T12:30:29Z</time>
      </trkpt>
      <trkpt lat="45.23418" lon="6.12817">
        <ele>2307.6</ele>
        <time>2021-02-27T12:30:30Z</time>
      </trkpt>
      <trkpt lat="45.23412" lon="6.1282">
        <ele>2307.6</ele>
        <time>2021-02-27T12:30:31Z</time>
      </trkpt>
      <trkpt lat="45.23407" lon="6.12824">
        <ele>2307.6</ele>
        <time>2021-02-27T12:30:32Z</time>
      </trkpt>
      <trkpt lat="45.23402" lon="6.12827">
        <ele>2307.6</ele>
        <time>2021-02-27T12:30:33Z</time>
      </trkpt>
      <trkpt lat="45.23396" lon="6.12831">
        <ele>2307.6</ele>
        <time>2021-02-27T12:30:34Z</time>
      </trkpt>
      <trkpt lat="45.23391" lon="6.12835">
        <ele>2307.6</ele>
        <time>2021-02-27T12:30:35Z</time>
      </trkpt>
      <trkpt lat="45.23386" lon="6.12838">
        <ele>2307.6</ele>
        <time>2021-02-27T12:30:36Z</time>
      </trkpt>
      <trkpt lat="45.23381" lon="6.12842">
        <ele>2286.8</ele>
        <time>2021-02-27T12:30:37Z</time>
      </trkpt>
      <trkpt lat="45.23371" lon="6.12846">
        <ele>2286.8</ele>
        <time>2021-02-27T12:30:38Z</time>
      </trkpt>
      <trkpt lat="45.23368" lon="6.12851">
        <ele>2286.8</ele>
        <time>2021-02-27T12:30:39Z</time>
      </trkpt>
      <trkpt lat="45.23365" lon="6.12855">
        <ele>2286.8</ele>
        <time>2021-02-27T12:30:40Z</time>
      </trkpt>
      <trkpt lat="45.23363" lon="6.1286">
        <ele>2286.8</ele>
        <time>2021-02-27T12:30:41Z</time>
      </trkpt>
      <trkpt lat="45.2336" lon="6.12865">
        <ele>2286.8</ele>
        <time>2021-02-27T12:30:42Z</time>
      </trkpt>
      <trkpt lat="45.23357" lon="6.1287">
        <ele>2286.8</ele>
        <time>2021-02-27T12:30:43Z</time>
      </trkpt>
      <trkpt lat="45.23355" lon="6.12875">
        <ele>2286.8</ele>
        <time>2021-02-27T12:30:44Z</time>
      </trkpt>
      <trkpt lat="45.23352" lon="6.1288">
        <ele>2286.8</ele>
        <time>2021-02-27T12:30:45Z</time>
      </trkpt>
      <trkpt lat="45.23349" lon="6.12884">
        <ele>2286.8</ele>
        <time>2021-02-27T12:30:46Z</time>
      </trkpt>
      <trkpt lat="45.23347" lon="6.12889">
        <ele>2269.6</ele>
        <time>2021-02-27T12:30:47Z</time>
      </trkpt>
      <trkpt lat="45.23342" lon="6.12894">
        <ele>2269.6</ele>
        <time>2021-02-27T12:30:48Z</time>
      </trkpt>
      <trkpt lat="45.2334" lon="6.12892">
        <ele>2269.6</ele>
        <time>2021-02-27T12:30:49Z</time>
      </trkpt>
      <trkpt lat="45.23339" lon="6.1289">
        <ele>2269.6</ele>
        <time>2021-02-27T12:30:50Z</time>
      </trkpt>
      <trkpt lat="45.23337" lon="6.12888">
        <ele>2269.6</ele>
        <time>2021-02-27T12:30:51Z</time>
      </trkpt>
      <trkpt lat="45.23335" lon="6.12886">
        <ele>2269.6</ele>
        <time>2021-02-27T12:30:52Z</time>
      </trkpt>
      <trkpt lat="45.23333" lon="6.12883">
        <ele>2269.6</ele>
        <time>2021-02-27T12:30:53Z</time>
      </trkpt>
      <trkpt lat="45.23331" lon="6.12881">
        <ele>2269.6</ele>
        <time>2021-02-27T12:30:54Z</time>
      </trkpt>
      <trkpt lat="45.23329" lon="6.12879">
        <ele>2269.6</ele>
        <time>2021-02-27T12:30:55Z</time>
      </trkpt>
      <trkpt lat="45.23328" lon="6.12877">
        <ele>2269.6</ele>
        <time>2021-02-27T12:30:56Z</time>
      </trkpt>
      <trkpt lat="45.23326" lon="6.12875">
        <ele>2254</ele>
        <time>2021-02-27T12:30:57Z</time>
      </trkpt>
      <trkpt lat="45.23319" lon="6.12873">
        <ele>2254</ele>
        <time>2021-02-27T12:30:58Z</time>
      </trkpt>
      <trkpt lat="45.23317" lon="6.12871">
        <ele>2254</ele>
        <time>2021-02-27T12:30:59Z</time>
      </trkpt>
      <trkpt lat="45.23314" lon="6.1287">
        <ele>2254</ele>
        <time>2021-02-27T12:31:00Z</time>
      </trkpt>
      <trkpt lat="45.23311" lon="6.12868">
        <ele>2254</ele>
        <time>2021-02-27T12:31:01Z</time>
      </trkpt>
      <trkpt lat="45.23308" lon="6.12866">
        <ele>2254</ele>
        <time>2021-02-27T12:31:02Z</time>
      </trkpt>
      <trkpt lat="45.23306" lon="6.12865">
        <ele>2254</ele>
        <time>2021-02-27T12:31:03Z</time>
      </trkpt>
      <trkpt lat="45.23303" lon="6.12863">
        <ele>2254</ele>
        <time>2021-02-27T12:31:04Z</time>
      </trkpt>
      <trkpt lat="45.233" lon="6.12861">
        <ele>2254</ele>
        <time>2021-02-27T12:31:05Z</time>
      </trkpt>
      <trkpt lat="45.23297" lon="6.1286">
        <ele>2254</ele>
        <time>2021-02-27T12:31:06Z</time>
      </trkpt>
      <trkpt lat="45.23294" lon="6.12858">
        <ele>2231.4</ele>
        <time>2021-02-27T12:31:07Z</time>
      </trkpt>
      <trkpt lat="45.23289" lon="6.12855">
        <ele>2231.4</ele>
        <time>2021-02-27T12:31:08Z</time>
      </trkpt>
      <trkpt lat="45.23286" lon="6.12856">
        <ele>2231.4</ele>
        <time>2021-02-27T12:31:09Z</time>
      </trkpt>
      <trkpt lat="45.23283" lon="6.12857">
        <ele>2231.4</ele>
        <time>2021-02-27T12:31:10Z</time>
      </trkpt>
      <trkpt lat="45.2328" lon="6.12858">
        <ele>2231.4</ele>
        <time>2021-02-27T12:31:11Z</time>
      </trkpt>
      <trkpt lat="45.23277" lon="6.12859">
        <ele>2231.4</ele>
        <time>2021-02-27T12:31:12Z</time>
      </trkpt>
      <trkpt lat="45.23274" lon="6.1286">
        <ele>2231.4</ele>
        <time>2021-02-27T12:31:13Z</time>
      </trkpt>
      <trkpt lat="45.23271" lon="6.12861">
        <ele>2231.4</ele>
        <time>2021-02-27T12:31:14Z</time>
      </trkpt>
      <trkpt lat="45.23268" lon="6.12863">
        <ele>2231.4</ele>
        <time>2021-02-27T12:31:15Z</time>
      </trkpt>
      <trkpt lat="45.23265" lon="6.12864">
        <ele>2231.4</ele>
        <time>2021-02-27T12:31:16Z</time>
      </trkpt>
      <trkpt lat="45.23262" lon="6.12865">
        <ele>2213.4</ele>
        <time>2021-02-27T12:31:17Z</time>
      </trkpt>
      <trkpt lat="45.23255" lon="6.12862">
        <ele>2213.4</ele>
        <time>2021-02-27T12:31:18Z</time>
      </trkpt>
      <trkpt lat="45.23253" lon="6.1286">
        <ele>2213.4</ele>
        <time>2021-02-27T12:31:19Z</time>
      </trkpt>
      <trkpt lat="45.2325" lon="6.12858">
        <ele>2213.4</ele>
        <time>2021-02-27T12:31:20Z</time>
      </trkpt>
      <trkpt lat="45.23247" lon="6.12856">
        <ele>2213.4</ele>
        <time>2021-02-27T12:31:21Z</time>
      </trkpt>
      <trkpt lat="45.23245" lon="6.12854">
        <ele>2213.4</ele>
        <time>2021-02-27T12:31:22Z</time>
      </trkpt>
      <trkpt lat="45.23242" lon="6.12852">
        <ele>2213.4</ele>
        <time>2021-02-27T12:31:23Z</time>
      </trkpt>
      <trkpt lat="45.2324" lon="6.1285">
        <ele>2213.4</ele>
        <time>2021-02-27T12:31:24Z</time>
      </trkpt>
      <trkpt lat="45.23237" lon="6.12848">
        <ele>2213.4</ele>
        <time>2021-02-27T12:31:25Z</time>
      </trkpt>
      <trkpt lat="45.23234" lon="6.12846">
        <ele>2213.4</ele>
        <time>2021-02-27T12:31:26Z</time>
      </trkpt>
      <trkpt lat="45.23232" lon="6.12844">
        <ele>2192.2</ele>
        <time>2021-02-27T12:31:27Z</time>
      </trkpt>
      <trkpt lat="45.23229" lon="6.12838">
        <ele>2192.2</ele>
        <time>2021-02-27T12:31:28Z</time>
      </trkpt>
      <trkpt lat="45.23229" lon="6.12835">
        <ele>2192.2</ele>
        <time>2021-02-27T12:31:29Z</time>
      </trkpt>
      <trkpt lat="45.23228" lon="6.12833">
        <ele>2192.2</ele>
        <time>2021-02-27T12:31:30Z</time>
      </trkpt>
      <trkpt lat="45.23227" lon="6.1283">
        <ele>2192.2</ele>
        <time>2021-02-27T12:31:31Z</time>
      </trkpt>
      <trkpt lat="45.23226" lon="6.12827">
        <ele>2192.2</ele>
        <time>2021-02-27T12:31:32Z</time>
      </trkpt>
      <trkpt lat="45.23226" lon="6.12825">
        <ele>2192.2</ele>
        <time>2021-02-27T12:31:33Z</time>
      </trkpt>
      <trkpt lat="45.23225" lon="6.12822">
        <ele>2192.2</ele>
        <time>2021-02-27T12:31:34Z</time>
      </trkpt>
      <trkpt lat="45.23224" lon="6.12819">
        <ele>2192.2</ele>
        <time>2021-02-27T12:31:35Z</time>
      </trkpt>
      <trkpt lat="45.23223" lon="6.12817">
        <ele>2192.2</ele>
        <time>2021-02-27T12:31:36Z</time>
      </trkpt>
      <trkpt lat="45.23223" lon="6.12814">
        <ele>2168</ele>
        <time>2021-02-27T12:31:37Z</time>
      </trkpt>
      <trkpt lat="45.23222" lon="6.12807">
        <ele>2168</ele>
        <time>2021-02-27T12:31:38Z</time>
      </trkpt>
      <trkpt lat="45.23222" lon="6.12803">
        <ele>2168</ele>
        <time>2021-02-27T12:31:39Z</time>
      </trkpt>
      <trkpt lat="45.23222" lon="6.12799">
        <ele>2168</ele>
        <time>2021-02-27T12:31:40Z</time>
      </trkpt>
      <trkpt lat="45.23221" lon="6.12796">
        <ele>2168</ele>
        <time>2021-02-27T12:31:41Z</time>
      </trkpt>
      <trkpt lat="45.23221" lon="6.12792">
        <ele>2168</ele>
        <time>2021-02-27T12:31:42Z</time>
      </trkpt>
      <trkpt lat="45.23221" lon="6.12788">
        <ele>2168</ele>
        <time>2021-02-27T12:31:43Z</time>
      </trkpt>
      <trkpt lat="45.2322" lon="6.12785">
        <ele>2168</ele>
        <time>2021-02-27T12:31:44Z</time>
      </trkpt>
      <trkpt lat="45.2322" lon="6.12781">
        <ele>2168</ele>
        <time>2021-02-27T12:31:45Z</time>
      </trkpt>
      <trkpt lat="45.2322" lon="6.12777">
        <ele>2168</ele>
        <time>2021-02-27T12:31:46Z</time>
      </trkpt>
      <trkpt lat="45.23219" lon="6.12773">
        <ele>2147.2</ele>
        <time>2021-02-27T12:31:47Z</time>
      </trkpt>
      <trkpt lat="45.23217" lon="6.12765">
        <ele>2147.2</ele>
        <time>2021-02-27T12:31:48Z</time>
      </trkpt>
      <trkpt lat="45.23215" lon="6.12763">
        <ele>2147.2</ele>
        <time>2021-02-27T12:31:49Z</time>
      </trkpt>
      <trkpt lat="45.23213" lon="6.1276">
        <ele>2147.2</ele>
        <time>2021-02-27T12:31:50Z</time>
      </trkpt>
      <trkpt lat="45.23211" lon="6.12758">
        <ele>2147.2</ele>
        <time>2021-02-27T12:31:51Z</time>
      </trkpt>
      <trkpt lat="45.23209" lon="6.12756">
        <ele>2147.2</ele>
        <time>2021-02-27T12:31:52Z</time>
      </trkpt>
      <trkpt lat="45.23207" lon="6.12753">
        <ele>2147.2</ele>
        <time>2021-02-27T12:31:53Z</time>
      </trkpt>
      <trkpt lat="45.23205" lon="6.12751">
        <ele>2147.2</ele>
        <time>2021-02-27T12:31:54Z</time>
      </trkpt>
      <trkpt lat="45.23203" lon="6.12749">
        <ele>2147.2</ele>
        <time>2021-02-27T12:31:55Z</time>
      </trkpt>
      <trkpt lat="45.23201" lon="6.12746">
        <ele>2147.2</ele>
        <time>2021-02-27T12:31:56Z</time>
      </trkpt>
      <trkpt lat="45.23199" lon="6.12744">
        <ele>2130.6</ele>
        <time>2021-02-27T12:31:57Z</time>
      </trkpt>
      <trkpt lat="45.23196" lon="6.12744">
        <ele>2130.6</ele>
        <time>2021-02-27T12:31:58Z</time>
      </trkpt>
      <trkpt lat="45.23193" lon="6.12747">
        <ele>2130.6</ele>
        <time>2021-02-27T12:31:59Z</time>
      </trkpt>
      <trkpt lat="45.2319" lon="6.12749">
        <ele>2130.6</ele>
        <time>2021-02-27T12:32:00Z</time>
      </trkpt>
      <trkpt lat="45.23188" lon="6.12747">
        <ele>2130.6</ele>
        <time>2021-02-27T12:32:01Z</time>
      </trkpt>
      <trkpt lat="45.23186" lon="6.12743">
        <ele>2130.6</ele>
        <time>2021-02-27T12:32:02Z</time>
      </trkpt>
      <trkpt lat="45.23184" lon="6.1274">
        <ele>2130.6</ele>
        <time>2021-02-27T12:32:03Z</time>
      </trkpt>
      <trkpt lat="45.23184" lon="6.1274">
        <ele>2114</ele>
        <time>2021-02-27T12:32:07Z</time>
      </trkpt>
      <trkpt lat="45.23181" lon="6.12735">
        <ele>2112.2</ele>
        <time>2021-02-27T12:32:17Z</time>
      </trkpt>
      <trkpt lat="45.23178" lon="6.12731">
        <ele>2112.2</ele>
        <time>2021-02-27T12:32:23Z</time>
      </trkpt>
      <trkpt lat="45.23175" lon="6.12726">
        <ele>2112.2</ele>
        <time>2021-02-27T12:32:24Z</time>
      </trkpt>
      <trkpt lat="45.23172" lon="6.12721">
        <ele>2112.2</ele>
        <time>2021-02-27T12:32:25Z</time>
      </trkpt>
      <trkpt lat="45.23169" lon="6.12716">
        <ele>2112.2</ele>
        <time>2021-02-27T12:32:26Z</time>
      </trkpt>
      <trkpt lat="45.23166" lon="6.12711">
        <ele>2106</ele>
        <time>2021-02-27T12:32:27Z</time>
      </trkpt>
      <trkpt lat="45.23158" lon="6.12701">
        <ele>2106</ele>
        <time>2021-02-27T12:32:28Z</time>
      </trkpt>
      <trkpt lat="45.23154" lon="6.12698">
        <ele>2106</ele>
        <time>2021-02-27T12:32:29Z</time>
      </trkpt>
      <trkpt lat="45.2315" lon="6.12695">
        <ele>2106</ele>
        <time>2021-02-27T12:32:30Z</time>
      </trkpt>
      <trkpt lat="45.23146" lon="6.12692">
        <ele>2106</ele>
        <time>2021-02-27T12:32:31Z</time>
      </trkpt>
      <trkpt lat="45.23142" lon="6.12689">
        <ele>2106</ele>
        <time>2021-02-27T12:32:32Z</time>
      </trkpt>
      <trkpt lat="45.23138" lon="6.12686">
        <ele>2106</ele>
        <time>2021-02-27T12:32:33Z</time>
      </trkpt>
      <trkpt lat="45.23134" lon="6.12683">
        <ele>2106</ele>
        <time>2021-02-27T12:32:34Z</time>
      </trkpt>
      <trkpt lat="45.2313" lon="6.1268">
        <ele>2106</ele>
        <time>2021-02-27T12:32:35Z</time>
      </trkpt>
      <trkpt lat="45.23126" lon="6.12677">
        <ele>2106</ele>
        <time>2021-02-27T12:32:36Z</time>
      </trkpt>
      <trkpt lat="45.23122" lon="6.12675">
        <ele>2095.6</ele>
        <time>2021-02-27T12:32:37Z</time>
      </trkpt>
      <trkpt lat="45.23115" lon="6.12664">
        <ele>2095.6</ele>
        <time>2021-02-27T12:32:38Z</time>
      </trkpt>
      <trkpt lat="45.23113" lon="6.1266">
        <ele>2095.6</ele>
        <time>2021-02-27T12:32:39Z</time>
      </trkpt>
      <trkpt lat="45.23111" lon="6.12656">
        <ele>2095.6</ele>
        <time>2021-02-27T12:32:40Z</time>
      </trkpt>
      <trkpt lat="45.23109" lon="6.12652">
        <ele>2095.6</ele>
        <time>2021-02-27T12:32:41Z</time>
      </trkpt>
      <trkpt lat="45.23107" lon="6.12648">
        <ele>2095.6</ele>
        <time>2021-02-27T12:32:42Z</time>
      </trkpt>
      <trkpt lat="45.23105" lon="6.12644">
        <ele>2095.6</ele>
        <time>2021-02-27T12:32:43Z</time>
      </trkpt>
      <trkpt lat="45.23103" lon="6.1264">
        <ele>2095.6</ele>
        <time>2021-02-27T12:32:44Z</time>
      </trkpt>
      <trkpt lat="45.231" lon="6.12636">
        <ele>2095.6</ele>
        <time>2021-02-27T12:32:45Z</time>
      </trkpt>
      <trkpt lat="45.23098" lon="6.12632">
        <ele>2095.6</ele>
        <time>2021-02-27T12:32:46Z</time>
      </trkpt>
      <trkpt lat="45.23096" lon="6.12628">
        <ele>2087</ele>
        <time>2021-02-27T12:32:47Z</time>
      </trkpt>
      <trkpt lat="45.23094" lon="6.12631">
        <ele>2087</ele>
        <time>2021-02-27T12:32:48Z</time>
      </trkpt>
      <trkpt lat="45.23094" lon="6.12631">
        <ele>2082.8</ele>
        <time>2021-02-27T12:32:57Z</time>
      </trkpt>
      <trkpt lat="45.23096" lon="6.12633">
        <ele>2082.8</ele>
        <time>2021-02-27T12:33:06Z</time>
      </trkpt>
      <trkpt lat="45.23096" lon="6.12633">
        <ele>2083.2</ele>
        <time>2021-02-27T12:33:07Z</time>
      </trkpt>
      <trkpt lat="45.23093" lon="6.12634">
        <ele>2083.2</ele>
        <time>2021-02-27T12:33:08Z</time>
      </trkpt>
      <trkpt lat="45.23092" lon="6.12637">
        <ele>2083.2</ele>
        <time>2021-02-27T12:33:11Z</time>
      </trkpt>
      <trkpt lat="45.23093" lon="6.12639">
        <ele>2083.2</ele>
        <time>2021-02-27T12:33:13Z</time>
      </trkpt>
      <trkpt lat="45.23093" lon="6.12639">
        <ele>2082</ele>
        <time>2021-02-27T12:33:17Z</time>
      </trkpt>
      <trkpt lat="45.23093" lon="6.12643">
        <ele>2082</ele>
        <time>2021-02-27T12:33:18Z</time>
      </trkpt>
      <trkpt lat="45.23092" lon="6.12647">
        <ele>2082</ele>
        <time>2021-02-27T12:33:20Z</time>
      </trkpt>
      <trkpt lat="45.23091" lon="6.1265">
        <ele>2082</ele>
        <time>2021-02-27T12:33:22Z</time>
      </trkpt>
      <trkpt lat="45.2309" lon="6.12653">
        <ele>2082</ele>
        <time>2021-02-27T12:33:24Z</time>
      </trkpt>
      <trkpt lat="45.2309" lon="6.12653">
        <ele>2078.6</ele>
        <time>2021-02-27T12:33:27Z</time>
      </trkpt>
      <trkpt lat="45.23089" lon="6.12655">
        <ele>2078.6</ele>
        <time>2021-02-27T12:33:30Z</time>
      </trkpt>
      <trkpt lat="45.23086" lon="6.12658">
        <ele>2078.6</ele>
        <time>2021-02-27T12:33:33Z</time>
      </trkpt>
      <trkpt lat="45.23084" lon="6.12662">
        <ele>2078.6</ele>
        <time>2021-02-27T12:33:35Z</time>
      </trkpt>
      <trkpt lat="45.23082" lon="6.12666">
        <ele>2079</ele>
        <time>2021-02-27T12:33:37Z</time>
      </trkpt>
      <trkpt lat="45.23082" lon="6.12671">
        <ele>2079</ele>
        <time>2021-02-27T12:33:38Z</time>
      </trkpt>
      <trkpt lat="45.23081" lon="6.12674">
        <ele>2079</ele>
        <time>2021-02-27T12:33:39Z</time>
      </trkpt>
      <trkpt lat="45.23079" lon="6.12677">
        <ele>2079</ele>
        <time>2021-02-27T12:33:40Z</time>
      </trkpt>
      <trkpt lat="45.23078" lon="6.1268">
        <ele>2079</ele>
        <time>2021-02-27T12:33:41Z</time>
      </trkpt>
      <trkpt lat="45.23077" lon="6.12683">
        <ele>2079</ele>
        <time>2021-02-27T12:33:42Z</time>
      </trkpt>
      <trkpt lat="45.23076" lon="6.12685">
        <ele>2079</ele>
        <time>2021-02-27T12:33:44Z</time>
      </trkpt>
      <trkpt lat="45.23074" lon="6.12688">
        <ele>2079</ele>
        <time>2021-02-27T12:33:45Z</time>
      </trkpt>
      <trkpt lat="45.23073" lon="6.12691">
        <ele>2079</ele>
        <time>2021-02-27T12:33:46Z</time>
      </trkpt>
      <trkpt lat="45.23072" lon="6.12694">
        <ele>2077.6</ele>
        <time>2021-02-27T12:33:47Z</time>
      </trkpt>
      <trkpt lat="45.23069" lon="6.127">
        <ele>2077.6</ele>
        <time>2021-02-27T12:33:48Z</time>
      </trkpt>
      <trkpt lat="45.23067" lon="6.12704">
        <ele>2077.6</ele>
        <time>2021-02-27T12:33:49Z</time>
      </trkpt>
      <trkpt lat="45.23066" lon="6.12707">
        <ele>2077.6</ele>
        <time>2021-02-27T12:33:50Z</time>
      </trkpt>
      <trkpt lat="45.23065" lon="6.12711">
        <ele>2077.6</ele>
        <time>2021-02-27T12:33:51Z</time>
      </trkpt>
      <trkpt lat="45.23064" lon="6.12715">
        <ele>2077.6</ele>
        <time>2021-02-27T12:33:52Z</time>
      </trkpt>
      <trkpt lat="45.23062" lon="6.12718">
        <ele>2077.6</ele>
        <time>2021-02-27T12:33:53Z</time>
      </trkpt>
      <trkpt lat="45.23061" lon="6.12722">
        <ele>2077.6</ele>
        <time>2021-02-27T12:33:54Z</time>
      </trkpt>
      <trkpt lat="45.2306" lon="6.12726">
        <ele>2077.6</ele>
        <time>2021-02-27T12:33:55Z</time>
      </trkpt>
      <trkpt lat="45.23059" lon="6.12729">
        <ele>2077.6</ele>
        <time>2021-02-27T12:33:56Z</time>
      </trkpt>
      <trkpt lat="45.23057" lon="6.12733">
        <ele>2075.2</ele>
        <time>2021-02-27T12:33:57Z</time>
      </trkpt>
      <trkpt lat="45.23056" lon="6.12739">
        <ele>2075.2</ele>
        <time>2021-02-27T12:33:58Z</time>
      </trkpt>
      <trkpt lat="45.23054" lon="6.12743">
        <ele>2075.2</ele>
        <time>2021-02-27T12:33:59Z</time>
      </trkpt>
      <trkpt lat="45.23053" lon="6.12746">
        <ele>2075.2</ele>
        <time>2021-02-27T12:34:00Z</time>
      </trkpt>
      <trkpt lat="45.23052" lon="6.1275">
        <ele>2075.2</ele>
        <time>2021-02-27T12:34:01Z</time>
      </trkpt>
      <trkpt lat="45.23051" lon="6.12753">
        <ele>2075.2</ele>
        <time>2021-02-27T12:34:02Z</time>
      </trkpt>
      <trkpt lat="45.2305" lon="6.12756">
        <ele>2075.2</ele>
        <time>2021-02-27T12:34:03Z</time>
      </trkpt>
      <trkpt lat="45.23049" lon="6.1276">
        <ele>2075.2</ele>
        <time>2021-02-27T12:34:04Z</time>
      </trkpt>
      <trkpt lat="45.23048" lon="6.12763">
        <ele>2075.2</ele>
        <time>2021-02-27T12:34:05Z</time>
      </trkpt>
      <trkpt lat="45.23047" lon="6.12766">
        <ele>2075.2</ele>
        <time>2021-02-27T12:34:06Z</time>
      </trkpt>
      <trkpt lat="45.23046" lon="6.1277">
        <ele>2074.4</ele>
        <time>2021-02-27T12:34:07Z</time>
      </trkpt>
      <trkpt lat="45.23039" lon="6.12784">
        <ele>2074.4</ele>
        <time>2021-02-27T12:34:08Z</time>
      </trkpt>
      <trkpt lat="45.23034" lon="6.12792">
        <ele>2074.4</ele>
        <time>2021-02-27T12:34:09Z</time>
      </trkpt>
      <trkpt lat="45.2303" lon="6.12801">
        <ele>2074.4</ele>
        <time>2021-02-27T12:34:11Z</time>
      </trkpt>
      <trkpt lat="45.23025" lon="6.12809">
        <ele>2074.4</ele>
        <time>2021-02-27T12:34:12Z</time>
      </trkpt>
      <trkpt lat="45.2302" lon="6.12818">
        <ele>2074.4</ele>
        <time>2021-02-27T12:34:13Z</time>
      </trkpt>
      <trkpt lat="45.23015" lon="6.12826">
        <ele>2074.4</ele>
        <time>2021-02-27T12:34:14Z</time>
      </trkpt>
      <trkpt lat="45.23011" lon="6.12835">
        <ele>2074.4</ele>
        <time>2021-02-27T12:34:15Z</time>
      </trkpt>
      <trkpt lat="45.23006" lon="6.12843">
        <ele>2074.4</ele>
        <time>2021-02-27T12:34:16Z</time>
      </trkpt>
      <trkpt lat="45.23001" lon="6.12852">
        <ele>2065.8</ele>
        <time>2021-02-27T12:34:17Z</time>
      </trkpt>
      <trkpt lat="45.22993" lon="6.12867">
        <ele>2065.8</ele>
        <time>2021-02-27T12:34:18Z</time>
      </trkpt>
      <trkpt lat="45.22991" lon="6.12873">
        <ele>2065.8</ele>
        <time>2021-02-27T12:34:19Z</time>
      </trkpt>
      <trkpt lat="45.22988" lon="6.12878">
        <ele>2065.8</ele>
        <time>2021-02-27T12:34:20Z</time>
      </trkpt>
      <trkpt lat="45.22985" lon="6.12884">
        <ele>2065.8</ele>
        <time>2021-02-27T12:34:21Z</time>
      </trkpt>
      <trkpt lat="45.22982" lon="6.12889">
        <ele>2065.8</ele>
        <time>2021-02-27T12:34:22Z</time>
      </trkpt>
      <trkpt lat="45.2298" lon="6.12895">
        <ele>2065.8</ele>
        <time>2021-02-27T12:34:23Z</time>
      </trkpt>
      <trkpt lat="45.22977" lon="6.12901">
        <ele>2065.8</ele>
        <time>2021-02-27T12:34:24Z</time>
      </trkpt>
      <trkpt lat="45.22974" lon="6.12906">
        <ele>2065.8</ele>
        <time>2021-02-27T12:34:25Z</time>
      </trkpt>
      <trkpt lat="45.22971" lon="6.12912">
        <ele>2065.8</ele>
        <time>2021-02-27T12:34:26Z</time>
      </trkpt>
      <trkpt lat="45.22968" lon="6.12918">
        <ele>2058.6</ele>
        <time>2021-02-27T12:34:27Z</time>
      </trkpt>
      <trkpt lat="45.22965" lon="6.12926">
        <ele>2058.6</ele>
        <time>2021-02-27T12:34:28Z</time>
      </trkpt>
      <trkpt lat="45.22964" lon="6.1293">
        <ele>2058.6</ele>
        <time>2021-02-27T12:34:29Z</time>
      </trkpt>
      <trkpt lat="45.22963" lon="6.12934">
        <ele>2058.6</ele>
        <time>2021-02-27T12:34:30Z</time>
      </trkpt>
      <trkpt lat="45.22962" lon="6.12937">
        <ele>2058.6</ele>
        <time>2021-02-27T12:34:31Z</time>
      </trkpt>
      <trkpt lat="45.22961" lon="6.12941">
        <ele>2058.6</ele>
        <time>2021-02-27T12:34:32Z</time>
      </trkpt>
      <trkpt lat="45.2296" lon="6.12945">
        <ele>2058.6</ele>
        <time>2021-02-27T12:34:33Z</time>
      </trkpt>
      <trkpt lat="45.22959" lon="6.12948">
        <ele>2058.6</ele>
        <time>2021-02-27T12:34:34Z</time>
      </trkpt>
      <trkpt lat="45.22958" lon="6.12952">
        <ele>2058.6</ele>
        <time>2021-02-27T12:34:35Z</time>
      </trkpt>
      <trkpt lat="45.22957" lon="6.12956">
        <ele>2058.6</ele>
        <time>2021-02-27T12:34:36Z</time>
      </trkpt>
      <trkpt lat="45.22956" lon="6.12959">
        <ele>2056</ele>
        <time>2021-02-27T12:34:37Z</time>
      </trkpt>
      <trkpt lat="45.22953" lon="6.12968">
        <ele>2056</ele>
        <time>2021-02-27T12:34:38Z</time>
      </trkpt>
      <trkpt lat="45.22951" lon="6.12973">
        <ele>2056</ele>
        <time>2021-02-27T12:34:39Z</time>
      </trkpt>
      <trkpt lat="45.22949" lon="6.12977">
        <ele>2056</ele>
        <time>2021-02-27T12:34:40Z</time>
      </trkpt>
      <trkpt lat="45.22947" lon="6.12981">
        <ele>2056</ele>
        <time>2021-02-27T12:34:41Z</time>
      </trkpt>
      <trkpt lat="45.22946" lon="6.12985">
        <ele>2056</ele>
        <time>2021-02-27T12:34:42Z</time>
      </trkpt>
      <trkpt lat="45.22944" lon="6.12989">
        <ele>2056</ele>
        <time>2021-02-27T12:34:43Z</time>
      </trkpt>
      <trkpt lat="45.22942" lon="6.12994">
        <ele>2056</ele>
        <time>2021-02-27T12:34:44Z</time>
      </trkpt>
      <trkpt lat="45.2294" lon="6.12998">
        <ele>2056</ele>
        <time>2021-02-27T12:34:45Z</time>
      </trkpt>
      <trkpt lat="45.22939" lon="6.13002">
        <ele>2056</ele>
        <time>2021-02-27T12:34:46Z</time>
      </trkpt>
      <trkpt lat="45.22937" lon="6.13006">
        <ele>2053.4</ele>
        <time>2021-02-27T12:34:47Z</time>
      </trkpt>
      <trkpt lat="45.22935" lon="6.13015">
        <ele>2053.4</ele>
        <time>2021-02-27T12:34:48Z</time>
      </trkpt>
      <trkpt lat="45.22935" lon="6.13018">
        <ele>2053.4</ele>
        <time>2021-02-27T12:34:49Z</time>
      </trkpt>
      <trkpt lat="45.22934" lon="6.13021">
        <ele>2053.4</ele>
        <time>2021-02-27T12:34:50Z</time>
      </trkpt>
      <trkpt lat="45.22934" lon="6.13024">
        <ele>2053.4</ele>
        <time>2021-02-27T12:34:51Z</time>
      </trkpt>
      <trkpt lat="45.22934" lon="6.13027">
        <ele>2053.4</ele>
        <time>2021-02-27T12:34:52Z</time>
      </trkpt>
      <trkpt lat="45.22933" lon="6.1303">
        <ele>2053.4</ele>
        <time>2021-02-27T12:34:53Z</time>
      </trkpt>
      <trkpt lat="45.22933" lon="6.13033">
        <ele>2053.4</ele>
        <time>2021-02-27T12:34:54Z</time>
      </trkpt>
      <trkpt lat="45.22933" lon="6.13036">
        <ele>2053.4</ele>
        <time>2021-02-27T12:34:55Z</time>
      </trkpt>
      <trkpt lat="45.22932" lon="6.13039">
        <ele>2053.4</ele>
        <time>2021-02-27T12:34:56Z</time>
      </trkpt>
      <trkpt lat="45.22932" lon="6.13043">
        <ele>2051.2</ele>
        <time>2021-02-27T12:34:57Z</time>
      </trkpt>
      <trkpt lat="45.22932" lon="6.13043">
        <ele>2049.6</ele>
        <time>2021-02-27T12:35:07Z</time>
      </trkpt>
      <trkpt lat="45.22933" lon="6.13043">
        <ele>2049.6</ele>
        <time>2021-02-27T12:35:12Z</time>
      </trkpt>
      <trkpt lat="45.22934" lon="6.13042">
        <ele>2050.6</ele>
        <time>2021-02-27T12:35:17Z</time>
      </trkpt>
      <trkpt lat="45.22935" lon="6.13041">
        <ele>2050.6</ele>
        <time>2021-02-27T12:35:22Z</time>
      </trkpt>
      <trkpt lat="45.22936" lon="6.13041">
        <ele>2050.6</ele>
        <time>2021-02-27T12:35:24Z</time>
      </trkpt>
      <trkpt lat="45.22937" lon="6.1304">
        <ele>2050.6</ele>
        <time>2021-02-27T12:35:26Z</time>
      </trkpt>
      <trkpt lat="45.22938" lon="6.1304">
        <ele>2050.6</ele>
        <time>2021-02-27T12:35:27Z</time>
      </trkpt>
      <trkpt lat="45.22941" lon="6.13034">
        <ele>2050.6</ele>
        <time>2021-02-27T12:35:28Z</time>
      </trkpt>
      <trkpt lat="45.22943" lon="6.13031">
        <ele>2050.6</ele>
        <time>2021-02-27T12:35:29Z</time>
      </trkpt>
      <trkpt lat="45.22944" lon="6.13028">
        <ele>2050.6</ele>
        <time>2021-02-27T12:35:30Z</time>
      </trkpt>
      <trkpt lat="45.22946" lon="6.13025">
        <ele>2050.6</ele>
        <time>2021-02-27T12:35:31Z</time>
      </trkpt>
      <trkpt lat="45.22947" lon="6.13022">
        <ele>2050.6</ele>
        <time>2021-02-27T12:35:32Z</time>
      </trkpt>
      <trkpt lat="45.22949" lon="6.1302">
        <ele>2050.6</ele>
        <time>2021-02-27T12:35:33Z</time>
      </trkpt>
      <trkpt lat="45.22951" lon="6.13017">
        <ele>2050.6</ele>
        <time>2021-02-27T12:35:34Z</time>
      </trkpt>
      <trkpt lat="45.22952" lon="6.13014">
        <ele>2050.6</ele>
        <time>2021-02-27T12:35:35Z</time>
      </trkpt>
      <trkpt lat="45.22954" lon="6.13011">
        <ele>2050.6</ele>
        <time>2021-02-27T12:35:36Z</time>
      </trkpt>
      <trkpt lat="45.22956" lon="6.13008">
        <ele>2045.8</ele>
        <time>2021-02-27T12:35:37Z</time>
      </trkpt>
      <trkpt lat="45.22955" lon="6.13012">
        <ele>2045.8</ele>
        <time>2021-02-27T12:35:38Z</time>
      </trkpt>
      <trkpt lat="45.22954" lon="6.13014">
        <ele>2045.8</ele>
        <time>2021-02-27T12:35:41Z</time>
      </trkpt>
      <trkpt lat="45.22953" lon="6.13017">
        <ele>2045.8</ele>
        <time>2021-02-27T12:35:43Z</time>
      </trkpt>
      <trkpt lat="45.22952" lon="6.13019">
        <ele>2045.8</ele>
        <time>2021-02-27T12:35:44Z</time>
      </trkpt>
      <trkpt lat="45.22951" lon="6.13021">
        <ele>2045.8</ele>
        <time>2021-02-27T12:35:45Z</time>
      </trkpt>
      <trkpt lat="45.22949" lon="6.13024">
        <ele>2045.8</ele>
        <time>2021-02-27T12:35:46Z</time>
      </trkpt>
      <trkpt lat="45.22948" lon="6.13026">
        <ele>2044.4</ele>
        <time>2021-02-27T12:35:47Z</time>
      </trkpt>
      <trkpt lat="45.22949" lon="6.13032">
        <ele>2044.4</ele>
        <time>2021-02-27T12:35:48Z</time>
      </trkpt>
      <trkpt lat="45.22949" lon="6.13035">
        <ele>2044.4</ele>
        <time>2021-02-27T12:35:49Z</time>
      </trkpt>
      <trkpt lat="45.22949" lon="6.13038">
        <ele>2044.4</ele>
        <time>2021-02-27T12:35:50Z</time>
      </trkpt>
      <trkpt lat="45.22949" lon="6.13041">
        <ele>2044.4</ele>
        <time>2021-02-27T12:35:51Z</time>
      </trkpt>
      <trkpt lat="45.2295" lon="6.13044">
        <ele>2044.4</ele>
        <time>2021-02-27T12:35:53Z</time>
      </trkpt>
      <trkpt lat="45.2295" lon="6.13047">
        <ele>2044.4</ele>
        <time>2021-02-27T12:35:55Z</time>
      </trkpt>
      <trkpt lat="45.2295" lon="6.1305">
        <ele>2044.2</ele>
        <time>2021-02-27T12:35:57Z</time>
      </trkpt>
      <trkpt lat="45.22951" lon="6.13055">
        <ele>2044.2</ele>
        <time>2021-02-27T12:35:59Z</time>
      </trkpt>
      <trkpt lat="45.22951" lon="6.13058">
        <ele>2044.2</ele>
        <time>2021-02-27T12:36:00Z</time>
      </trkpt>
      <trkpt lat="45.22953" lon="6.13061">
        <ele>2044.2</ele>
        <time>2021-02-27T12:36:01Z</time>
      </trkpt>
      <trkpt lat="45.22954" lon="6.13064">
        <ele>2044.2</ele>
        <time>2021-02-27T12:36:04Z</time>
      </trkpt>
      <trkpt lat="45.22954" lon="6.13064">
        <ele>2043.4</ele>
        <time>2021-02-27T12:36:07Z</time>
      </trkpt>
      <trkpt lat="45.2295" lon="6.13064">
        <ele>2043.4</ele>
        <time>2021-02-27T12:36:11Z</time>
      </trkpt>
      <trkpt lat="45.22948" lon="6.13063">
        <ele>2043.4</ele>
        <time>2021-02-27T12:36:12Z</time>
      </trkpt>
      <trkpt lat="45.22946" lon="6.13063">
        <ele>2043.4</ele>
        <time>2021-02-27T12:36:13Z</time>
      </trkpt>
      <trkpt lat="45.22943" lon="6.13063">
        <ele>2043.4</ele>
        <time>2021-02-27T12:36:14Z</time>
      </trkpt>
      <trkpt lat="45.22941" lon="6.13063">
        <ele>2043.4</ele>
        <time>2021-02-27T12:36:15Z</time>
      </trkpt>
      <trkpt lat="45.22939" lon="6.13063">
        <ele>2041.2</ele>
        <time>2021-02-27T12:36:17Z</time>
      </trkpt>
      <trkpt lat="45.22934" lon="6.13065">
        <ele>2041.2</ele>
        <time>2021-02-27T12:36:22Z</time>
      </trkpt>
      <trkpt lat="45.22932" lon="6.13066">
        <ele>2041.2</ele>
        <time>2021-02-27T12:36:24Z</time>
      </trkpt>
      <trkpt lat="45.2293" lon="6.13067">
        <ele>2041.2</ele>
        <time>2021-02-27T12:36:26Z</time>
      </trkpt>
      <trkpt lat="45.22928" lon="6.13068">
        <ele>2040.4</ele>
        <time>2021-02-27T12:36:27Z</time>
      </trkpt>
      <trkpt lat="45.22922" lon="6.1307">
        <ele>2040.4</ele>
        <time>2021-02-27T12:36:28Z</time>
      </trkpt>
      <trkpt lat="45.2292" lon="6.13071">
        <ele>2040.4</ele>
        <time>2021-02-27T12:36:29Z</time>
      </trkpt>
      <trkpt lat="45.22918" lon="6.13071">
        <ele>2040.4</ele>
        <time>2021-02-27T12:36:30Z</time>
      </trkpt>
      <trkpt lat="45.22915" lon="6.13072">
        <ele>2040.4</ele>
        <time>2021-02-27T12:36:31Z</time>
      </trkpt>
      <trkpt lat="45.22913" lon="6.13073">
        <ele>2040.4</ele>
        <time>2021-02-27T12:36:33Z</time>
      </trkpt>
      <trkpt lat="45.22911" lon="6.13073">
        <ele>2040.4</ele>
        <time>2021-02-27T12:36:34Z</time>
      </trkpt>
      <trkpt lat="45.22909" lon="6.13074">
        <ele>2040.4</ele>
        <time>2021-02-27T12:36:35Z</time>
      </trkpt>
      <trkpt lat="45.22906" lon="6.13075">
        <ele>2040.4</ele>
        <time>2021-02-27T12:36:36Z</time>
      </trkpt>
      <trkpt lat="45.22904" lon="6.13075">
        <ele>2029</ele>
        <time>2021-02-27T12:36:37Z</time>
      </trkpt>
      <trkpt lat="45.22901" lon="6.13077">
        <ele>2029</ele>
        <time>2021-02-27T12:36:39Z</time>
      </trkpt>
      <trkpt lat="45.22901" lon="6.13079">
        <ele>2029</ele>
        <time>2021-02-27T12:36:41Z</time>
      </trkpt>
      <trkpt lat="45.229" lon="6.13082">
        <ele>2029</ele>
        <time>2021-02-27T12:36:43Z</time>
      </trkpt>
      <trkpt lat="45.22899" lon="6.13085">
        <ele>2029</ele>
        <time>2021-02-27T12:36:45Z</time>
      </trkpt>
      <trkpt lat="45.22897" lon="6.13092">
        <ele>2022.6</ele>
        <time>2021-02-27T12:36:47Z</time>
      </trkpt>
      <trkpt lat="45.22892" lon="6.13104">
        <ele>2022.6</ele>
        <time>2021-02-27T12:36:48Z</time>
      </trkpt>
      <trkpt lat="45.22888" lon="6.1311">
        <ele>2022.6</ele>
        <time>2021-02-27T12:36:49Z</time>
      </trkpt>
      <trkpt lat="45.22885" lon="6.13117">
        <ele>2022.6</ele>
        <time>2021-02-27T12:36:50Z</time>
      </trkpt>
      <trkpt lat="45.22882" lon="6.13123">
        <ele>2022.6</ele>
        <time>2021-02-27T12:36:51Z</time>
      </trkpt>
      <trkpt lat="45.22879" lon="6.13129">
        <ele>2022.6</ele>
        <time>2021-02-27T12:36:52Z</time>
      </trkpt>
      <trkpt lat="45.22876" lon="6.13136">
        <ele>2022.6</ele>
        <time>2021-02-27T12:36:53Z</time>
      </trkpt>
      <trkpt lat="45.22873" lon="6.13142">
        <ele>2022.6</ele>
        <time>2021-02-27T12:36:54Z</time>
      </trkpt>
      <trkpt lat="45.2287" lon="6.13148">
        <ele>2022.6</ele>
        <time>2021-02-27T12:36:55Z</time>
      </trkpt>
      <trkpt lat="45.22867" lon="6.13154">
        <ele>2022.6</ele>
        <time>2021-02-27T12:36:56Z</time>
      </trkpt>
      <trkpt lat="45.22863" lon="6.13161">
        <ele>2014.6</ele>
        <time>2021-02-27T12:36:57Z</time>
      </trkpt>
      <trkpt lat="45.22857" lon="6.13175">
        <ele>2014.6</ele>
        <time>2021-02-27T12:36:58Z</time>
      </trkpt>
      <trkpt lat="45.22854" lon="6.13183">
        <ele>2014.6</ele>
        <time>2021-02-27T12:36:59Z</time>
      </trkpt>
      <trkpt lat="45.22851" lon="6.1319">
        <ele>2014.6</ele>
        <time>2021-02-27T12:37:00Z</time>
      </trkpt>
      <trkpt lat="45.22848" lon="6.13197">
        <ele>2014.6</ele>
        <time>2021-02-27T12:37:01Z</time>
      </trkpt>
      <trkpt lat="45.22845" lon="6.13205">
        <ele>2014.6</ele>
        <time>2021-02-27T12:37:02Z</time>
      </trkpt>
      <trkpt lat="45.22842" lon="6.13212">
        <ele>2014.6</ele>
        <time>2021-02-27T12:37:03Z</time>
      </trkpt>
      <trkpt lat="45.22839" lon="6.1322">
        <ele>2014.6</ele>
        <time>2021-02-27T12:37:04Z</time>
      </trkpt>
      <trkpt lat="45.22836" lon="6.13227">
        <ele>2014.6</ele>
        <time>2021-02-27T12:37:05Z</time>
      </trkpt>
      <trkpt lat="45.22833" lon="6.13234">
        <ele>2014.6</ele>
        <time>2021-02-27T12:37:06Z</time>
      </trkpt>
      <trkpt lat="45.2283" lon="6.13242">
        <ele>2002.4</ele>
        <time>2021-02-27T12:37:07Z</time>
      </trkpt>
      <trkpt lat="45.22827" lon="6.13255">
        <ele>2002.4</ele>
        <time>2021-02-27T12:37:08Z</time>
      </trkpt>
      <trkpt lat="45.22827" lon="6.1326">
        <ele>2002.4</ele>
        <time>2021-02-27T12:37:09Z</time>
      </trkpt>
      <trkpt lat="45.22827" lon="6.13264">
        <ele>2002.4</ele>
        <time>2021-02-27T12:37:10Z</time>
      </trkpt>
      <trkpt lat="45.22827" lon="6.13269">
        <ele>2002.4</ele>
        <time>2021-02-27T12:37:11Z</time>
      </trkpt>
      <trkpt lat="45.22827" lon="6.13274">
        <ele>2002.4</ele>
        <time>2021-02-27T12:37:12Z</time>
      </trkpt>
      <trkpt lat="45.22827" lon="6.13279">
        <ele>2002.4</ele>
        <time>2021-02-27T12:37:13Z</time>
      </trkpt>
      <trkpt lat="45.22827" lon="6.13284">
        <ele>2002.4</ele>
        <time>2021-02-27T12:37:14Z</time>
      </trkpt>
      <trkpt lat="45.22827" lon="6.13289">
        <ele>2002.4</ele>
        <time>2021-02-27T12:37:15Z</time>
      </trkpt>
      <trkpt lat="45.22827" lon="6.13293">
        <ele>2002.4</ele>
        <time>2021-02-27T12:37:16Z</time>
      </trkpt>
      <trkpt lat="45.22828" lon="6.13298">
        <ele>1992</ele>
        <time>2021-02-27T12:37:17Z</time>
      </trkpt>
      <trkpt lat="45.22831" lon="6.13308">
        <ele>1992</ele>
        <time>2021-02-27T12:37:18Z</time>
      </trkpt>
      <trkpt lat="45.22832" lon="6.13311">
        <ele>1992</ele>
        <time>2021-02-27T12:37:19Z</time>
      </trkpt>
      <trkpt lat="45.22834" lon="6.13315">
        <ele>1992</ele>
        <time>2021-02-27T12:37:20Z</time>
      </trkpt>
      <trkpt lat="45.22835" lon="6.13318">
        <ele>1992</ele>
        <time>2021-02-27T12:37:21Z</time>
      </trkpt>
      <trkpt lat="45.22837" lon="6.13322">
        <ele>1992</ele>
        <time>2021-02-27T12:37:22Z</time>
      </trkpt>
      <trkpt lat="45.22838" lon="6.13325">
        <ele>1992</ele>
        <time>2021-02-27T12:37:23Z</time>
      </trkpt>
      <trkpt lat="45.2284" lon="6.13328">
        <ele>1992</ele>
        <time>2021-02-27T12:37:25Z</time>
      </trkpt>
      <trkpt lat="45.22841" lon="6.13332">
        <ele>1986</ele>
        <time>2021-02-27T12:37:27Z</time>
      </trkpt>
      <trkpt lat="45.22843" lon="6.13334">
        <ele>1986</ele>
        <time>2021-02-27T12:37:36Z</time>
      </trkpt>
      <trkpt lat="45.22844" lon="6.13339">
        <ele>1985.4</ele>
        <time>2021-02-27T12:37:37Z</time>
      </trkpt>
      <trkpt lat="45.22844" lon="6.13349">
        <ele>1985.4</ele>
        <time>2021-02-27T12:37:38Z</time>
      </trkpt>
      <trkpt lat="45.22842" lon="6.13353">
        <ele>1985.4</ele>
        <time>2021-02-27T12:37:39Z</time>
      </trkpt>
      <trkpt lat="45.22841" lon="6.13358">
        <ele>1985.4</ele>
        <time>2021-02-27T12:37:40Z</time>
      </trkpt>
      <trkpt lat="45.22839" lon="6.13362">
        <ele>1985.4</ele>
        <time>2021-02-27T12:37:41Z</time>
      </trkpt>
      <trkpt lat="45.22837" lon="6.13366">
        <ele>1985.4</ele>
        <time>2021-02-27T12:37:42Z</time>
      </trkpt>
      <trkpt lat="45.22836" lon="6.13371">
        <ele>1985.4</ele>
        <time>2021-02-27T12:37:43Z</time>
      </trkpt>
      <trkpt lat="45.22834" lon="6.13375">
        <ele>1985.4</ele>
        <time>2021-02-27T12:37:44Z</time>
      </trkpt>
      <trkpt lat="45.22833" lon="6.13379">
        <ele>1985.4</ele>
        <time>2021-02-27T12:37:45Z</time>
      </trkpt>
      <trkpt lat="45.22831" lon="6.13384">
        <ele>1985.4</ele>
        <time>2021-02-27T12:37:46Z</time>
      </trkpt>
      <trkpt lat="45.22829" lon="6.13388">
        <ele>1973.6</ele>
        <time>2021-02-27T12:37:47Z</time>
      </trkpt>
      <trkpt lat="45.22826" lon="6.134">
        <ele>1973.6</ele>
        <time>2021-02-27T12:37:48Z</time>
      </trkpt>
      <trkpt lat="45.22825" lon="6.13405">
        <ele>1973.6</ele>
        <time>2021-02-27T12:37:49Z</time>
      </trkpt>
      <trkpt lat="45.22824" lon="6.13409">
        <ele>1973.6</ele>
        <time>2021-02-27T12:37:50Z</time>
      </trkpt>
      <trkpt lat="45.22822" lon="6.13414">
        <ele>1973.6</ele>
        <time>2021-02-27T12:37:51Z</time>
      </trkpt>
      <trkpt lat="45.22821" lon="6.13419">
        <ele>1973.6</ele>
        <time>2021-02-27T12:37:52Z</time>
      </trkpt>
      <trkpt lat="45.2282" lon="6.13423">
        <ele>1973.6</ele>
        <time>2021-02-27T12:37:53Z</time>
      </trkpt>
      <trkpt lat="45.22819" lon="6.13428">
        <ele>1973.6</ele>
        <time>2021-02-27T12:37:54Z</time>
      </trkpt>
      <trkpt lat="45.22817" lon="6.13433">
        <ele>1973.6</ele>
        <time>2021-02-27T12:37:55Z</time>
      </trkpt>
      <trkpt lat="45.22816" lon="6.13437">
        <ele>1973.6</ele>
        <time>2021-02-27T12:37:56Z</time>
      </trkpt>
      <trkpt lat="45.22815" lon="6.13442">
        <ele>1955.6</ele>
        <time>2021-02-27T12:37:57Z</time>
      </trkpt>
      <trkpt lat="45.22811" lon="6.1344">
        <ele>1950</ele>
        <time>2021-02-27T12:38:07Z</time>
      </trkpt>
      <trkpt lat="45.22809" lon="6.13439">
        <ele>1949.6</ele>
        <time>2021-02-27T12:38:17Z</time>
      </trkpt>
      <trkpt lat="45.22808" lon="6.13438">
        <ele>1950</ele>
        <time>2021-02-27T12:38:27Z</time>
      </trkpt>
      <trkpt lat="45.22806" lon="6.13436">
        <ele>1950.2</ele>
        <time>2021-02-27T12:38:37Z</time>
      </trkpt>
      <trkpt lat="45.22804" lon="6.13435">
        <ele>1950.8</ele>
        <time>2021-02-27T12:38:47Z</time>
      </trkpt>
      <trkpt lat="45.22802" lon="6.13434">
        <ele>1950.8</ele>
        <time>2021-02-27T12:38:53Z</time>
      </trkpt>
      <trkpt lat="45.228" lon="6.13432">
        <ele>1950.8</ele>
        <time>2021-02-27T12:38:54Z</time>
      </trkpt>
      <trkpt lat="45.22798" lon="6.13431">
        <ele>1950.8</ele>
        <time>2021-02-27T12:38:55Z</time>
      </trkpt>
      <trkpt lat="45.22796" lon="6.1343">
        <ele>1950.8</ele>
        <time>2021-02-27T12:38:56Z</time>
      </trkpt>
      <trkpt lat="45.22794" lon="6.13429">
        <ele>1947.4</ele>
        <time>2021-02-27T12:38:57Z</time>
      </trkpt>
      <trkpt lat="45.2279" lon="6.13436">
        <ele>1947.4</ele>
        <time>2021-02-27T12:38:58Z</time>
      </trkpt>
      <trkpt lat="45.22788" lon="6.13439">
        <ele>1947.4</ele>
        <time>2021-02-27T12:38:59Z</time>
      </trkpt>
      <trkpt lat="45.22787" lon="6.13443">
        <ele>1947.4</ele>
        <time>2021-02-27T12:39:00Z</time>
      </trkpt>
      <trkpt lat="45.22786" lon="6.13446">
        <ele>1947.4</ele>
        <time>2021-02-27T12:39:01Z</time>
      </trkpt>
      <trkpt lat="45.22784" lon="6.1345">
        <ele>1947.4</ele>
        <time>2021-02-27T12:39:02Z</time>
      </trkpt>
      <trkpt lat="45.22783" lon="6.13453">
        <ele>1947.4</ele>
        <time>2021-02-27T12:39:03Z</time>
      </trkpt>
      <trkpt lat="45.22782" lon="6.13457">
        <ele>1947.4</ele>
        <time>2021-02-27T12:39:04Z</time>
      </trkpt>
      <trkpt lat="45.2278" lon="6.1346">
        <ele>1947.4</ele>
        <time>2021-02-27T12:39:05Z</time>
      </trkpt>
      <trkpt lat="45.22779" lon="6.13464">
        <ele>1947.4</ele>
        <time>2021-02-27T12:39:06Z</time>
      </trkpt>
      <trkpt lat="45.22778" lon="6.13467">
        <ele>1933.8</ele>
        <time>2021-02-27T12:39:07Z</time>
      </trkpt>
      <trkpt lat="45.22776" lon="6.13475">
        <ele>1933.8</ele>
        <time>2021-02-27T12:39:08Z</time>
      </trkpt>
      <trkpt lat="45.22774" lon="6.13478">
        <ele>1933.8</ele>
        <time>2021-02-27T12:39:09Z</time>
      </trkpt>
      <trkpt lat="45.22772" lon="6.13481">
        <ele>1933.8</ele>
        <time>2021-02-27T12:39:10Z</time>
      </trkpt>
      <trkpt lat="45.22771" lon="6.13484">
        <ele>1933.8</ele>
        <time>2021-02-27T12:39:11Z</time>
      </trkpt>
      <trkpt lat="45.22769" lon="6.13488">
        <ele>1933.8</ele>
        <time>2021-02-27T12:39:12Z</time>
      </trkpt>
      <trkpt lat="45.22767" lon="6.13491">
        <ele>1933.8</ele>
        <time>2021-02-27T12:39:13Z</time>
      </trkpt>
      <trkpt lat="45.22766" lon="6.13494">
        <ele>1933.8</ele>
        <time>2021-02-27T12:39:14Z</time>
      </trkpt>
      <trkpt lat="45.22764" lon="6.13497">
        <ele>1933.8</ele>
        <time>2021-02-27T12:39:15Z</time>
      </trkpt>
      <trkpt lat="45.22762" lon="6.13501">
        <ele>1933.8</ele>
        <time>2021-02-27T12:39:16Z</time>
      </trkpt>
      <trkpt lat="45.22761" lon="6.13504">
        <ele>1919.2</ele>
        <time>2021-02-27T12:39:17Z</time>
      </trkpt>
      <trkpt lat="45.22755" lon="6.13508">
        <ele>1919.2</ele>
        <time>2021-02-27T12:39:18Z</time>
      </trkpt>
      <trkpt lat="45.22752" lon="6.13509">
        <ele>1919.2</ele>
        <time>2021-02-27T12:39:19Z</time>
      </trkpt>
      <trkpt lat="45.2275" lon="6.13511">
        <ele>1919.2</ele>
        <time>2021-02-27T12:39:20Z</time>
      </trkpt>
      <trkpt lat="45.22747" lon="6.13512">
        <ele>1919.2</ele>
        <time>2021-02-27T12:39:21Z</time>
      </trkpt>
      <trkpt lat="45.22744" lon="6.13514">
        <ele>1919.2</ele>
        <time>2021-02-27T12:39:22Z</time>
      </trkpt>
      <trkpt lat="45.22741" lon="6.13515">
        <ele>1919.2</ele>
        <time>2021-02-27T12:39:23Z</time>
      </trkpt>
      <trkpt lat="45.22739" lon="6.13516">
        <ele>1919.2</ele>
        <time>2021-02-27T12:39:24Z</time>
      </trkpt>
      <trkpt lat="45.22736" lon="6.13518">
        <ele>1919.2</ele>
        <time>2021-02-27T12:39:25Z</time>
      </trkpt>
      <trkpt lat="45.22733" lon="6.13519">
        <ele>1919.2</ele>
        <time>2021-02-27T12:39:26Z</time>
      </trkpt>
      <trkpt lat="45.2273" lon="6.1352">
        <ele>1904.2</ele>
        <time>2021-02-27T12:39:27Z</time>
      </trkpt>
      <trkpt lat="45.22725" lon="6.13522">
        <ele>1904.2</ele>
        <time>2021-02-27T12:39:28Z</time>
      </trkpt>
      <trkpt lat="45.22722" lon="6.13524">
        <ele>1904.2</ele>
        <time>2021-02-27T12:39:29Z</time>
      </trkpt>
      <trkpt lat="45.22719" lon="6.13526">
        <ele>1904.2</ele>
        <time>2021-02-27T12:39:30Z</time>
      </trkpt>
      <trkpt lat="45.22717" lon="6.13527">
        <ele>1904.2</ele>
        <time>2021-02-27T12:39:31Z</time>
      </trkpt>
      <trkpt lat="45.22714" lon="6.13529">
        <ele>1904.2</ele>
        <time>2021-02-27T12:39:32Z</time>
      </trkpt>
      <trkpt lat="45.22711" lon="6.13531">
        <ele>1904.2</ele>
        <time>2021-02-27T12:39:33Z</time>
      </trkpt>
      <trkpt lat="45.22708" lon="6.13532">
        <ele>1904.2</ele>
        <time>2021-02-27T12:39:34Z</time>
      </trkpt>
      <trkpt lat="45.22706" lon="6.13534">
        <ele>1904.2</ele>
        <time>2021-02-27T12:39:35Z</time>
      </trkpt>
      <trkpt lat="45.22703" lon="6.13535">
        <ele>1904.2</ele>
        <time>2021-02-27T12:39:36Z</time>
      </trkpt>
      <trkpt lat="45.227" lon="6.13537">
        <ele>1887.2</ele>
        <time>2021-02-27T12:39:37Z</time>
      </trkpt>
      <trkpt lat="45.22696" lon="6.13547">
        <ele>1887.2</ele>
        <time>2021-02-27T12:39:38Z</time>
      </trkpt>
      <trkpt lat="45.22694" lon="6.13551">
        <ele>1887.2</ele>
        <time>2021-02-27T12:39:39Z</time>
      </trkpt>
      <trkpt lat="45.22691" lon="6.13556">
        <ele>1887.2</ele>
        <time>2021-02-27T12:39:40Z</time>
      </trkpt>
      <trkpt lat="45.22689" lon="6.13561">
        <ele>1887.2</ele>
        <time>2021-02-27T12:39:41Z</time>
      </trkpt>
      <trkpt lat="45.22687" lon="6.13565">
        <ele>1887.2</ele>
        <time>2021-02-27T12:39:42Z</time>
      </trkpt>
      <trkpt lat="45.22685" lon="6.1357">
        <ele>1887.2</ele>
        <time>2021-02-27T12:39:43Z</time>
      </trkpt>
      <trkpt lat="45.22683" lon="6.13575">
        <ele>1887.2</ele>
        <time>2021-02-27T12:39:44Z</time>
      </trkpt>
      <trkpt lat="45.2268" lon="6.13579">
        <ele>1887.2</ele>
        <time>2021-02-27T12:39:45Z</time>
      </trkpt>
      <trkpt lat="45.22678" lon="6.13584">
        <ele>1887.2</ele>
        <time>2021-02-27T12:39:46Z</time>
      </trkpt>
      <trkpt lat="45.22676" lon="6.13589">
        <ele>1869.2</ele>
        <time>2021-02-27T12:39:47Z</time>
      </trkpt>
      <trkpt lat="45.22677" lon="6.13604">
        <ele>1869.2</ele>
        <time>2021-02-27T12:39:48Z</time>
      </trkpt>
      <trkpt lat="45.22677" lon="6.13612">
        <ele>1869.2</ele>
        <time>2021-02-27T12:39:49Z</time>
      </trkpt>
      <trkpt lat="45.22678" lon="6.13619">
        <ele>1869.2</ele>
        <time>2021-02-27T12:39:50Z</time>
      </trkpt>
      <trkpt lat="45.22679" lon="6.13627">
        <ele>1869.2</ele>
        <time>2021-02-27T12:39:51Z</time>
      </trkpt>
      <trkpt lat="45.2268" lon="6.13634">
        <ele>1869.2</ele>
        <time>2021-02-27T12:39:52Z</time>
      </trkpt>
      <trkpt lat="45.22681" lon="6.13642">
        <ele>1869.2</ele>
        <time>2021-02-27T12:39:53Z</time>
      </trkpt>
      <trkpt lat="45.22681" lon="6.1365">
        <ele>1869.2</ele>
        <time>2021-02-27T12:39:54Z</time>
      </trkpt>
      <trkpt lat="45.22682" lon="6.13657">
        <ele>1869.2</ele>
        <time>2021-02-27T12:39:55Z</time>
      </trkpt>
      <trkpt lat="45.22683" lon="6.13665">
        <ele>1869.2</ele>
        <time>2021-02-27T12:39:56Z</time>
      </trkpt>
      <trkpt lat="45.22684" lon="6.13672">
        <ele>1854.4</ele>
        <time>2021-02-27T12:39:57Z</time>
      </trkpt>
      <trkpt lat="45.22683" lon="6.13689">
        <ele>1854.4</ele>
        <time>2021-02-27T12:39:58Z</time>
      </trkpt>
      <trkpt lat="45.22681" lon="6.13698">
        <ele>1854.4</ele>
        <time>2021-02-27T12:39:59Z</time>
      </trkpt>
      <trkpt lat="45.22679" lon="6.13706">
        <ele>1854.4</ele>
        <time>2021-02-27T12:40:00Z</time>
      </trkpt>
      <trkpt lat="45.22678" lon="6.13715">
        <ele>1854.4</ele>
        <time>2021-02-27T12:40:01Z</time>
      </trkpt>
      <trkpt lat="45.22676" lon="6.13723">
        <ele>1854.4</ele>
        <time>2021-02-27T12:40:02Z</time>
      </trkpt>
      <trkpt lat="45.22675" lon="6.13732">
        <ele>1854.4</ele>
        <time>2021-02-27T12:40:03Z</time>
      </trkpt>
      <trkpt lat="45.22673" lon="6.1374">
        <ele>1854.4</ele>
        <time>2021-02-27T12:40:04Z</time>
      </trkpt>
      <trkpt lat="45.22672" lon="6.13749">
        <ele>1854.4</ele>
        <time>2021-02-27T12:40:05Z</time>
      </trkpt>
      <trkpt lat="45.2267" lon="6.13758">
        <ele>1854.4</ele>
        <time>2021-02-27T12:40:06Z</time>
      </trkpt>
      <trkpt lat="45.22668" lon="6.13766">
        <ele>1840.6</ele>
        <time>2021-02-27T12:40:07Z</time>
      </trkpt>
      <trkpt lat="45.22661" lon="6.13785">
        <ele>1840.6</ele>
        <time>2021-02-27T12:40:08Z</time>
      </trkpt>
      <trkpt lat="45.22657" lon="6.13792">
        <ele>1840.6</ele>
        <time>2021-02-27T12:40:09Z</time>
      </trkpt>
      <trkpt lat="45.22654" lon="6.138">
        <ele>1840.6</ele>
        <time>2021-02-27T12:40:10Z</time>
      </trkpt>
      <trkpt lat="45.2265" lon="6.13807">
        <ele>1840.6</ele>
        <time>2021-02-27T12:40:11Z</time>
      </trkpt>
      <trkpt lat="45.22647" lon="6.13815">
        <ele>1840.6</ele>
        <time>2021-02-27T12:40:12Z</time>
      </trkpt>
      <trkpt lat="45.22643" lon="6.13823">
        <ele>1840.6</ele>
        <time>2021-02-27T12:40:13Z</time>
      </trkpt>
      <trkpt lat="45.22639" lon="6.1383">
        <ele>1840.6</ele>
        <time>2021-02-27T12:40:14Z</time>
      </trkpt>
      <trkpt lat="45.22636" lon="6.13838">
        <ele>1840.6</ele>
        <time>2021-02-27T12:40:15Z</time>
      </trkpt>
      <trkpt lat="45.22632" lon="6.13846">
        <ele>1840.6</ele>
        <time>2021-02-27T12:40:16Z</time>
      </trkpt>
      <trkpt lat="45.22629" lon="6.13853">
        <ele>1825.8</ele>
        <time>2021-02-27T12:40:17Z</time>
      </trkpt>
      <trkpt lat="45.22624" lon="6.13865">
        <ele>1825.8</ele>
        <time>2021-02-27T12:40:18Z</time>
      </trkpt>
      <trkpt lat="45.22622" lon="6.13868">
        <ele>1825.8</ele>
        <time>2021-02-27T12:40:19Z</time>
      </trkpt>
      <trkpt lat="45.22621" lon="6.13872">
        <ele>1825.8</ele>
        <time>2021-02-27T12:40:20Z</time>
      </trkpt>
      <trkpt lat="45.22619" lon="6.13875">
        <ele>1825.8</ele>
        <time>2021-02-27T12:40:21Z</time>
      </trkpt>
      <trkpt lat="45.22617" lon="6.13879">
        <ele>1825.8</ele>
        <time>2021-02-27T12:40:22Z</time>
      </trkpt>
      <trkpt lat="45.22616" lon="6.13882">
        <ele>1825.8</ele>
        <time>2021-02-27T12:40:23Z</time>
      </trkpt>
      <trkpt lat="45.22614" lon="6.13886">
        <ele>1825.8</ele>
        <time>2021-02-27T12:40:24Z</time>
      </trkpt>
      <trkpt lat="45.22612" lon="6.1389">
        <ele>1825.8</ele>
        <time>2021-02-27T12:40:25Z</time>
      </trkpt>
      <trkpt lat="45.22611" lon="6.13893">
        <ele>1825.8</ele>
        <time>2021-02-27T12:40:26Z</time>
      </trkpt>
      <trkpt lat="45.22609" lon="6.13897">
        <ele>1816</ele>
        <time>2021-02-27T12:40:27Z</time>
      </trkpt>
      <trkpt lat="45.22604" lon="6.13908">
        <ele>1816</ele>
        <time>2021-02-27T12:40:28Z</time>
      </trkpt>
      <trkpt lat="45.22601" lon="6.13916">
        <ele>1816</ele>
        <time>2021-02-27T12:40:29Z</time>
      </trkpt>
      <trkpt lat="45.22599" lon="6.13923">
        <ele>1816</ele>
        <time>2021-02-27T12:40:30Z</time>
      </trkpt>
      <trkpt lat="45.22597" lon="6.1393">
        <ele>1816</ele>
        <time>2021-02-27T12:40:31Z</time>
      </trkpt>
      <trkpt lat="45.22595" lon="6.13938">
        <ele>1816</ele>
        <time>2021-02-27T12:40:32Z</time>
      </trkpt>
      <trkpt lat="45.22592" lon="6.13945">
        <ele>1816</ele>
        <time>2021-02-27T12:40:33Z</time>
      </trkpt>
      <trkpt lat="45.2259" lon="6.13953">
        <ele>1816</ele>
        <time>2021-02-27T12:40:34Z</time>
      </trkpt>
      <trkpt lat="45.22588" lon="6.1396">
        <ele>1816</ele>
        <time>2021-02-27T12:40:35Z</time>
      </trkpt>
      <trkpt lat="45.22586" lon="6.13967">
        <ele>1816</ele>
        <time>2021-02-27T12:40:36Z</time>
      </trkpt>
      <trkpt lat="45.22584" lon="6.13975">
        <ele>1802.4</ele>
        <time>2021-02-27T12:40:37Z</time>
      </trkpt>
      <trkpt lat="45.2258" lon="6.13992">
        <ele>1802.4</ele>
        <time>2021-02-27T12:40:38Z</time>
      </trkpt>
      <trkpt lat="45.22578" lon="6.14">
        <ele>1802.4</ele>
        <time>2021-02-27T12:40:39Z</time>
      </trkpt>
      <trkpt lat="45.22576" lon="6.14007">
        <ele>1802.4</ele>
        <time>2021-02-27T12:40:40Z</time>
      </trkpt>
      <trkpt lat="45.22574" lon="6.14015">
        <ele>1802.4</ele>
        <time>2021-02-27T12:40:41Z</time>
      </trkpt>
      <trkpt lat="45.22572" lon="6.14023">
        <ele>1802.4</ele>
        <time>2021-02-27T12:40:42Z</time>
      </trkpt>
      <trkpt lat="45.2257" lon="6.1403">
        <ele>1802.4</ele>
        <time>2021-02-27T12:40:43Z</time>
      </trkpt>
      <trkpt lat="45.22569" lon="6.14038">
        <ele>1802.4</ele>
        <time>2021-02-27T12:40:44Z</time>
      </trkpt>
      <trkpt lat="45.22567" lon="6.14045">
        <ele>1802.4</ele>
        <time>2021-02-27T12:40:45Z</time>
      </trkpt>
      <trkpt lat="45.22565" lon="6.14053">
        <ele>1802.4</ele>
        <time>2021-02-27T12:40:46Z</time>
      </trkpt>
      <trkpt lat="45.22563" lon="6.14061">
        <ele>1786</ele>
        <time>2021-02-27T12:40:47Z</time>
      </trkpt>
      <trkpt lat="45.22561" lon="6.14076">
        <ele>1786</ele>
        <time>2021-02-27T12:40:48Z</time>
      </trkpt>
      <trkpt lat="45.2256" lon="6.14084">
        <ele>1786</ele>
        <time>2021-02-27T12:40:49Z</time>
      </trkpt>
      <trkpt lat="45.22558" lon="6.14092">
        <ele>1786</ele>
        <time>2021-02-27T12:40:50Z</time>
      </trkpt>
      <trkpt lat="45.22557" lon="6.14099">
        <ele>1786</ele>
        <time>2021-02-27T12:40:51Z</time>
      </trkpt>
      <trkpt lat="45.22556" lon="6.14107">
        <ele>1786</ele>
        <time>2021-02-27T12:40:52Z</time>
      </trkpt>
      <trkpt lat="45.22555" lon="6.14114">
        <ele>1786</ele>
        <time>2021-02-27T12:40:53Z</time>
      </trkpt>
      <trkpt lat="45.22554" lon="6.14122">
        <ele>1786</ele>
        <time>2021-02-27T12:40:54Z</time>
      </trkpt>
      <trkpt lat="45.22552" lon="6.14129">
        <ele>1786</ele>
        <time>2021-02-27T12:40:55Z</time>
      </trkpt>
      <trkpt lat="45.22551" lon="6.14137">
        <ele>1786</ele>
        <time>2021-02-27T12:40:56Z</time>
      </trkpt>
      <trkpt lat="45.2255" lon="6.14145">
        <ele>1777.6</ele>
        <time>2021-02-27T12:40:57Z</time>
      </trkpt>
      <trkpt lat="45.22551" lon="6.14155">
        <ele>1777.6</ele>
        <time>2021-02-27T12:40:58Z</time>
      </trkpt>
      <trkpt lat="45.22551" lon="6.14158">
        <ele>1777.6</ele>
        <time>2021-02-27T12:40:59Z</time>
      </trkpt>
      <trkpt lat="45.22551" lon="6.14162">
        <ele>1777.6</ele>
        <time>2021-02-27T12:41:00Z</time>
      </trkpt>
      <trkpt lat="45.22552" lon="6.14165">
        <ele>1777.6</ele>
        <time>2021-02-27T12:41:01Z</time>
      </trkpt>
      <trkpt lat="45.22552" lon="6.14169">
        <ele>1777.6</ele>
        <time>2021-02-27T12:41:02Z</time>
      </trkpt>
      <trkpt lat="45.22552" lon="6.14172">
        <ele>1777.6</ele>
        <time>2021-02-27T12:41:03Z</time>
      </trkpt>
      <trkpt lat="45.22552" lon="6.14176">
        <ele>1777.6</ele>
        <time>2021-02-27T12:41:05Z</time>
      </trkpt>
      <trkpt lat="45.22553" lon="6.14179">
        <ele>1771.6</ele>
        <time>2021-02-27T12:41:07Z</time>
      </trkpt>
      <trkpt lat="45.22552" lon="6.14185">
        <ele>1771.6</ele>
        <time>2021-02-27T12:41:10Z</time>
      </trkpt>
      <trkpt lat="45.22552" lon="6.14186">
        <ele>1771.6</ele>
        <time>2021-02-27T12:41:12Z</time>
      </trkpt>
      <trkpt lat="45.22552" lon="6.14188">
        <ele>1771.6</ele>
        <time>2021-02-27T12:41:14Z</time>
      </trkpt>
      <trkpt lat="45.22552" lon="6.1419">
        <ele>1771.6</ele>
        <time>2021-02-27T12:41:16Z</time>
      </trkpt>
      <trkpt lat="45.22552" lon="6.14192">
        <ele>1770.4</ele>
        <time>2021-02-27T12:41:17Z</time>
      </trkpt>
      <trkpt lat="45.22554" lon="6.14203">
        <ele>1770.4</ele>
        <time>2021-02-27T12:41:18Z</time>
      </trkpt>
      <trkpt lat="45.22555" lon="6.1421">
        <ele>1770.4</ele>
        <time>2021-02-27T12:41:19Z</time>
      </trkpt>
      <trkpt lat="45.22556" lon="6.14217">
        <ele>1770.4</ele>
        <time>2021-02-27T12:41:20Z</time>
      </trkpt>
      <trkpt lat="45.22557" lon="6.14224">
        <ele>1770.4</ele>
        <time>2021-02-27T12:41:21Z</time>
      </trkpt>
      <trkpt lat="45.22558" lon="6.14231">
        <ele>1770.4</ele>
        <time>2021-02-27T12:41:22Z</time>
      </trkpt>
      <trkpt lat="45.22559" lon="6.14238">
        <ele>1770.4</ele>
        <time>2021-02-27T12:41:23Z</time>
      </trkpt>
      <trkpt lat="45.2256" lon="6.14245">
        <ele>1770.4</ele>
        <time>2021-02-27T12:41:24Z</time>
      </trkpt>
      <trkpt lat="45.22561" lon="6.14252">
        <ele>1770.4</ele>
        <time>2021-02-27T12:41:25Z</time>
      </trkpt>
      <trkpt lat="45.22562" lon="6.14259">
        <ele>1770.4</ele>
        <time>2021-02-27T12:41:26Z</time>
      </trkpt>
      <trkpt lat="45.22562" lon="6.14266">
        <ele>1759.4</ele>
        <time>2021-02-27T12:41:27Z</time>
      </trkpt>
      <trkpt lat="45.22567" lon="6.14279">
        <ele>1759.4</ele>
        <time>2021-02-27T12:41:28Z</time>
      </trkpt>
      <trkpt lat="45.22568" lon="6.14284">
        <ele>1759.4</ele>
        <time>2021-02-27T12:41:29Z</time>
      </trkpt>
      <trkpt lat="45.2257" lon="6.14288">
        <ele>1759.4</ele>
        <time>2021-02-27T12:41:30Z</time>
      </trkpt>
      <trkpt lat="45.22571" lon="6.14292">
        <ele>1759.4</ele>
        <time>2021-02-27T12:41:31Z</time>
      </trkpt>
      <trkpt lat="45.22573" lon="6.14297">
        <ele>1759.4</ele>
        <time>2021-02-27T12:41:32Z</time>
      </trkpt>
      <trkpt lat="45.22574" lon="6.14301">
        <ele>1759.4</ele>
        <time>2021-02-27T12:41:33Z</time>
      </trkpt>
      <trkpt lat="45.22576" lon="6.14306">
        <ele>1759.4</ele>
        <time>2021-02-27T12:41:34Z</time>
      </trkpt>
      <trkpt lat="45.22577" lon="6.1431">
        <ele>1759.4</ele>
        <time>2021-02-27T12:41:35Z</time>
      </trkpt>
      <trkpt lat="45.22579" lon="6.14314">
        <ele>1759.4</ele>
        <time>2021-02-27T12:41:36Z</time>
      </trkpt>
      <trkpt lat="45.22581" lon="6.14319">
        <ele>1754.8</ele>
        <time>2021-02-27T12:41:37Z</time>
      </trkpt>
      <trkpt lat="45.22582" lon="6.14323">
        <ele>1754.8</ele>
        <time>2021-02-27T12:41:39Z</time>
      </trkpt>
      <trkpt lat="45.22582" lon="6.14326">
        <ele>1754.8</ele>
        <time>2021-02-27T12:41:41Z</time>
      </trkpt>
      <trkpt lat="45.22583" lon="6.1433">
        <ele>1754.8</ele>
        <time>2021-02-27T12:41:43Z</time>
      </trkpt>
      <trkpt lat="45.22585" lon="6.14332">
        <ele>1754.8</ele>
        <time>2021-02-27T12:41:45Z</time>
      </trkpt>
      <trkpt lat="45.22585" lon="6.14334">
        <ele>1752.4</ele>
        <time>2021-02-27T12:41:47Z</time>
      </trkpt>
      <trkpt lat="45.22586" lon="6.14337">
        <ele>1752.4</ele>
        <time>2021-02-27T12:41:49Z</time>
      </trkpt>
      <trkpt lat="45.22587" lon="6.1434">
        <ele>1752.4</ele>
        <time>2021-02-27T12:41:51Z</time>
      </trkpt>
      <trkpt lat="45.22589" lon="6.14343">
        <ele>1752.4</ele>
        <time>2021-02-27T12:41:53Z</time>
      </trkpt>
      <trkpt lat="45.22589" lon="6.14346">
        <ele>1752.4</ele>
        <time>2021-02-27T12:41:55Z</time>
      </trkpt>
      <trkpt lat="45.22589" lon="6.14346">
        <ele>1751.6</ele>
        <time>2021-02-27T12:41:57Z</time>
      </trkpt>
      <trkpt lat="45.22591" lon="6.14352">
        <ele>1751.6</ele>
        <time>2021-02-27T12:41:58Z</time>
      </trkpt>
      <trkpt lat="45.22592" lon="6.14355">
        <ele>1751.6</ele>
        <time>2021-02-27T12:42:00Z</time>
      </trkpt>
      <trkpt lat="45.22593" lon="6.14358">
        <ele>1751.6</ele>
        <time>2021-02-27T12:42:02Z</time>
      </trkpt>
      <trkpt lat="45.22594" lon="6.14361">
        <ele>1751.6</ele>
        <time>2021-02-27T12:42:04Z</time>
      </trkpt>
      <trkpt lat="45.22595" lon="6.14364">
        <ele>1751.6</ele>
        <time>2021-02-27T12:42:06Z</time>
      </trkpt>
      <trkpt lat="45.22596" lon="6.14367">
        <ele>1751.2</ele>
        <time>2021-02-27T12:42:07Z</time>
      </trkpt>
      <trkpt lat="45.22597" lon="6.14372">
        <ele>1751.2</ele>
        <time>2021-02-27T12:42:08Z</time>
      </trkpt>
      <trkpt lat="45.22598" lon="6.14376">
        <ele>1751.2</ele>
        <time>2021-02-27T12:42:10Z</time>
      </trkpt>
      <trkpt lat="45.22599" lon="6.14379">
        <ele>1751.2</ele>
        <time>2021-02-27T12:42:11Z</time>
      </trkpt>
      <trkpt lat="45.226" lon="6.14382">
        <ele>1751.2</ele>
        <time>2021-02-27T12:42:13Z</time>
      </trkpt>
      <trkpt lat="45.22601" lon="6.14385">
        <ele>1751.2</ele>
        <time>2021-02-27T12:42:14Z</time>
      </trkpt>
      <trkpt lat="45.22602" lon="6.14388">
        <ele>1751.2</ele>
        <time>2021-02-27T12:42:16Z</time>
      </trkpt>
      <trkpt lat="45.22603" lon="6.14392">
        <ele>1750.6</ele>
        <time>2021-02-27T12:42:17Z</time>
      </trkpt>
      <trkpt lat="45.22605" lon="6.14398">
        <ele>1750.6</ele>
        <time>2021-02-27T12:42:18Z</time>
      </trkpt>
      <trkpt lat="45.22606" lon="6.14401">
        <ele>1750.6</ele>
        <time>2021-02-27T12:42:19Z</time>
      </trkpt>
      <trkpt lat="45.22607" lon="6.14404">
        <ele>1750.6</ele>
        <time>2021-02-27T12:42:20Z</time>
      </trkpt>
      <trkpt lat="45.22608" lon="6.14407">
        <ele>1750.6</ele>
        <time>2021-02-27T12:42:21Z</time>
      </trkpt>
      <trkpt lat="45.2261" lon="6.1441">
        <ele>1750.6</ele>
        <time>2021-02-27T12:42:22Z</time>
      </trkpt>
      <trkpt lat="45.22611" lon="6.14414">
        <ele>1750.6</ele>
        <time>2021-02-27T12:42:23Z</time>
      </trkpt>
      <trkpt lat="45.22612" lon="6.14417">
        <ele>1750.6</ele>
        <time>2021-02-27T12:42:24Z</time>
      </trkpt>
      <trkpt lat="45.22613" lon="6.1442">
        <ele>1750.6</ele>
        <time>2021-02-27T12:42:25Z</time>
      </trkpt>
      <trkpt lat="45.22614" lon="6.14423">
        <ele>1750.6</ele>
        <time>2021-02-27T12:42:26Z</time>
      </trkpt>
      <trkpt lat="45.22615" lon="6.14426">
        <ele>1749.2</ele>
        <time>2021-02-27T12:42:27Z</time>
      </trkpt>
      <trkpt lat="45.22618" lon="6.14432">
        <ele>1749.2</ele>
        <time>2021-02-27T12:42:28Z</time>
      </trkpt>
      <trkpt lat="45.22619" lon="6.14435">
        <ele>1749.2</ele>
        <time>2021-02-27T12:42:29Z</time>
      </trkpt>
      <trkpt lat="45.2262" lon="6.14438">
        <ele>1749.2</ele>
        <time>2021-02-27T12:42:30Z</time>
      </trkpt>
      <trkpt lat="45.22621" lon="6.14441">
        <ele>1749.2</ele>
        <time>2021-02-27T12:42:31Z</time>
      </trkpt>
      <trkpt lat="45.22622" lon="6.14444">
        <ele>1749.2</ele>
        <time>2021-02-27T12:42:32Z</time>
      </trkpt>
      <trkpt lat="45.22623" lon="6.14447">
        <ele>1749.2</ele>
        <time>2021-02-27T12:42:33Z</time>
      </trkpt>
      <trkpt lat="45.22625" lon="6.1445">
        <ele>1749.2</ele>
        <time>2021-02-27T12:42:34Z</time>
      </trkpt>
      <trkpt lat="45.22626" lon="6.14452">
        <ele>1749.2</ele>
        <time>2021-02-27T12:42:35Z</time>
      </trkpt>
      <trkpt lat="45.22627" lon="6.14455">
        <ele>1749.2</ele>
        <time>2021-02-27T12:42:36Z</time>
      </trkpt>
      <trkpt lat="45.22628" lon="6.14458">
        <ele>1749</ele>
        <time>2021-02-27T12:42:37Z</time>
      </trkpt>
      <trkpt lat="45.2263" lon="6.14465">
        <ele>1749</ele>
        <time>2021-02-27T12:42:38Z</time>
      </trkpt>
      <trkpt lat="45.22631" lon="6.14468">
        <ele>1749</ele>
        <time>2021-02-27T12:42:39Z</time>
      </trkpt>
      <trkpt lat="45.22633" lon="6.14472">
        <ele>1749</ele>
        <time>2021-02-27T12:42:41Z</time>
      </trkpt>
      <trkpt lat="45.22634" lon="6.14475">
        <ele>1749</ele>
        <time>2021-02-27T12:42:42Z</time>
      </trkpt>
      <trkpt lat="45.22635" lon="6.14478">
        <ele>1749</ele>
        <time>2021-02-27T12:42:43Z</time>
      </trkpt>
      <trkpt lat="45.22636" lon="6.14482">
        <ele>1749</ele>
        <time>2021-02-27T12:42:44Z</time>
      </trkpt>
      <trkpt lat="45.22637" lon="6.14485">
        <ele>1749</ele>
        <time>2021-02-27T12:42:45Z</time>
      </trkpt>
      <trkpt lat="45.22638" lon="6.14488">
        <ele>1749</ele>
        <time>2021-02-27T12:42:46Z</time>
      </trkpt>
      <trkpt lat="45.22639" lon="6.14492">
        <ele>1747.2</ele>
        <time>2021-02-27T12:42:47Z</time>
      </trkpt>
      <trkpt lat="45.22641" lon="6.14499">
        <ele>1747.2</ele>
        <time>2021-02-27T12:42:48Z</time>
      </trkpt>
      <trkpt lat="45.22642" lon="6.14502">
        <ele>1747.2</ele>
        <time>2021-02-27T12:42:49Z</time>
      </trkpt>
      <trkpt lat="45.22642" lon="6.14506">
        <ele>1747.2</ele>
        <time>2021-02-27T12:42:50Z</time>
      </trkpt>
      <trkpt lat="45.22643" lon="6.1451">
        <ele>1747.2</ele>
        <time>2021-02-27T12:42:51Z</time>
      </trkpt>
      <trkpt lat="45.22643" lon="6.14513">
        <ele>1747.2</ele>
        <time>2021-02-27T12:42:52Z</time>
      </trkpt>
      <trkpt lat="45.22644" lon="6.14517">
        <ele>1747.2</ele>
        <time>2021-02-27T12:42:53Z</time>
      </trkpt>
      <trkpt lat="45.22644" lon="6.1452">
        <ele>1747.2</ele>
        <time>2021-02-27T12:42:54Z</time>
      </trkpt>
      <trkpt lat="45.22645" lon="6.14524">
        <ele>1747.2</ele>
        <time>2021-02-27T12:42:55Z</time>
      </trkpt>
      <trkpt lat="45.22645" lon="6.14528">
        <ele>1747.2</ele>
        <time>2021-02-27T12:42:56Z</time>
      </trkpt>
      <trkpt lat="45.22646" lon="6.14531">
        <ele>1746</ele>
        <time>2021-02-27T12:42:57Z</time>
      </trkpt>
      <trkpt lat="45.22647" lon="6.14539">
        <ele>1746</ele>
        <time>2021-02-27T12:42:58Z</time>
      </trkpt>
      <trkpt lat="45.22647" lon="6.14543">
        <ele>1746</ele>
        <time>2021-02-27T12:42:59Z</time>
      </trkpt>
      <trkpt lat="45.22648" lon="6.14547">
        <ele>1746</ele>
        <time>2021-02-27T12:43:00Z</time>
      </trkpt>
      <trkpt lat="45.22648" lon="6.14551">
        <ele>1746</ele>
        <time>2021-02-27T12:43:01Z</time>
      </trkpt>
      <trkpt lat="45.22649" lon="6.14555">
        <ele>1746</ele>
        <time>2021-02-27T12:43:02Z</time>
      </trkpt>
      <trkpt lat="45.22649" lon="6.14559">
        <ele>1746</ele>
        <time>2021-02-27T12:43:03Z</time>
      </trkpt>
      <trkpt lat="45.2265" lon="6.14562">
        <ele>1746</ele>
        <time>2021-02-27T12:43:04Z</time>
      </trkpt>
      <trkpt lat="45.2265" lon="6.14566">
        <ele>1746</ele>
        <time>2021-02-27T12:43:05Z</time>
      </trkpt>
      <trkpt lat="45.22651" lon="6.1457">
        <ele>1746</ele>
        <time>2021-02-27T12:43:06Z</time>
      </trkpt>
      <trkpt lat="45.22651" lon="6.14574">
        <ele>1744.8</ele>
        <time>2021-02-27T12:43:07Z</time>
      </trkpt>
      <trkpt lat="45.22652" lon="6.14582">
        <ele>1744.8</ele>
        <time>2021-02-27T12:43:08Z</time>
      </trkpt>
      <trkpt lat="45.22652" lon="6.14585">
        <ele>1744.8</ele>
        <time>2021-02-27T12:43:09Z</time>
      </trkpt>
      <trkpt lat="45.22652" lon="6.14589">
        <ele>1744.8</ele>
        <time>2021-02-27T12:43:10Z</time>
      </trkpt>
      <trkpt lat="45.22652" lon="6.14593">
        <ele>1744.8</ele>
        <time>2021-02-27T12:43:11Z</time>
      </trkpt>
      <trkpt lat="45.22653" lon="6.14597">
        <ele>1744.8</ele>
        <time>2021-02-27T12:43:12Z</time>
      </trkpt>
      <trkpt lat="45.22653" lon="6.14601">
        <ele>1744.8</ele>
        <time>2021-02-27T12:43:13Z</time>
      </trkpt>
      <trkpt lat="45.22653" lon="6.14604">
        <ele>1744.8</ele>
        <time>2021-02-27T12:43:14Z</time>
      </trkpt>
      <trkpt lat="45.22653" lon="6.14608">
        <ele>1744.8</ele>
        <time>2021-02-27T12:43:15Z</time>
      </trkpt>
      <trkpt lat="45.22654" lon="6.14612">
        <ele>1744.8</ele>
        <time>2021-02-27T12:43:16Z</time>
      </trkpt>
      <trkpt lat="45.22654" lon="6.14616">
        <ele>1742.8</ele>
        <time>2021-02-27T12:43:17Z</time>
      </trkpt>
      <trkpt lat="45.22654" lon="6.14624">
        <ele>1742.8</ele>
        <time>2021-02-27T12:43:18Z</time>
      </trkpt>
      <trkpt lat="45.22655" lon="6.14628">
        <ele>1742.8</ele>
        <time>2021-02-27T12:43:19Z</time>
      </trkpt>
      <trkpt lat="45.22655" lon="6.14632">
        <ele>1742.8</ele>
        <time>2021-02-27T12:43:20Z</time>
      </trkpt>
      <trkpt lat="45.22655" lon="6.14636">
        <ele>1742.8</ele>
        <time>2021-02-27T12:43:21Z</time>
      </trkpt>
      <trkpt lat="45.22655" lon="6.1464">
        <ele>1742.8</ele>
        <time>2021-02-27T12:43:22Z</time>
      </trkpt>
      <trkpt lat="45.22656" lon="6.14644">
        <ele>1742.8</ele>
        <time>2021-02-27T12:43:23Z</time>
      </trkpt>
      <trkpt lat="45.22656" lon="6.14647">
        <ele>1742.8</ele>
        <time>2021-02-27T12:43:24Z</time>
      </trkpt>
      <trkpt lat="45.22656" lon="6.14651">
        <ele>1742.8</ele>
        <time>2021-02-27T12:43:25Z</time>
      </trkpt>
      <trkpt lat="45.22656" lon="6.14655">
        <ele>1742.8</ele>
        <time>2021-02-27T12:43:26Z</time>
      </trkpt>
      <trkpt lat="45.22657" lon="6.14659">
        <ele>1741.4</ele>
        <time>2021-02-27T12:43:27Z</time>
      </trkpt>
      <trkpt lat="45.22658" lon="6.14667">
        <ele>1741.4</ele>
        <time>2021-02-27T12:43:28Z</time>
      </trkpt>
      <trkpt lat="45.22658" lon="6.1467">
        <ele>1741.4</ele>
        <time>2021-02-27T12:43:29Z</time>
      </trkpt>
      <trkpt lat="45.22658" lon="6.14674">
        <ele>1741.4</ele>
        <time>2021-02-27T12:43:30Z</time>
      </trkpt>
      <trkpt lat="45.22659" lon="6.14677">
        <ele>1741.4</ele>
        <time>2021-02-27T12:43:31Z</time>
      </trkpt>
      <trkpt lat="45.22659" lon="6.14681">
        <ele>1741.4</ele>
        <time>2021-02-27T12:43:32Z</time>
      </trkpt>
      <trkpt lat="45.2266" lon="6.14684">
        <ele>1741.4</ele>
        <time>2021-02-27T12:43:33Z</time>
      </trkpt>
      <trkpt lat="45.2266" lon="6.14688">
        <ele>1741.4</ele>
        <time>2021-02-27T12:43:34Z</time>
      </trkpt>
      <trkpt lat="45.2266" lon="6.14691">
        <ele>1741.4</ele>
        <time>2021-02-27T12:43:35Z</time>
      </trkpt>
      <trkpt lat="45.22661" lon="6.14695">
        <ele>1741.4</ele>
        <time>2021-02-27T12:43:36Z</time>
      </trkpt>
      <trkpt lat="45.22661" lon="6.14699">
        <ele>1740</ele>
        <time>2021-02-27T12:43:37Z</time>
      </trkpt>
      <trkpt lat="45.22662" lon="6.14707">
        <ele>1740</ele>
        <time>2021-02-27T12:43:38Z</time>
      </trkpt>
      <trkpt lat="45.22662" lon="6.1471">
        <ele>1740</ele>
        <time>2021-02-27T12:43:39Z</time>
      </trkpt>
      <trkpt lat="45.22663" lon="6.14714">
        <ele>1740</ele>
        <time>2021-02-27T12:43:40Z</time>
      </trkpt>
      <trkpt lat="45.22663" lon="6.14718">
        <ele>1740</ele>
        <time>2021-02-27T12:43:41Z</time>
      </trkpt>
      <trkpt lat="45.22664" lon="6.14722">
        <ele>1740</ele>
        <time>2021-02-27T12:43:42Z</time>
      </trkpt>
      <trkpt lat="45.22664" lon="6.14726">
        <ele>1740</ele>
        <time>2021-02-27T12:43:43Z</time>
      </trkpt>
      <trkpt lat="45.22665" lon="6.1473">
        <ele>1740</ele>
        <time>2021-02-27T12:43:44Z</time>
      </trkpt>
      <trkpt lat="45.22665" lon="6.14734">
        <ele>1740</ele>
        <time>2021-02-27T12:43:45Z</time>
      </trkpt>
      <trkpt lat="45.22666" lon="6.14738">
        <ele>1740</ele>
        <time>2021-02-27T12:43:46Z</time>
      </trkpt>
      <trkpt lat="45.22666" lon="6.14742">
        <ele>1737</ele>
        <time>2021-02-27T12:43:47Z</time>
      </trkpt>
      <trkpt lat="45.22666" lon="6.14747">
        <ele>1737</ele>
        <time>2021-02-27T12:43:48Z</time>
      </trkpt>
      <trkpt lat="45.22666" lon="6.1475">
        <ele>1737</ele>
        <time>2021-02-27T12:43:49Z</time>
      </trkpt>
      <trkpt lat="45.22666" lon="6.14754">
        <ele>1737</ele>
        <time>2021-02-27T12:43:50Z</time>
      </trkpt>
      <trkpt lat="45.22666" lon="6.14757">
        <ele>1737</ele>
        <time>2021-02-27T12:43:51Z</time>
      </trkpt>
      <trkpt lat="45.22667" lon="6.1476">
        <ele>1737</ele>
        <time>2021-02-27T12:43:52Z</time>
      </trkpt>
      <trkpt lat="45.22667" lon="6.14763">
        <ele>1737</ele>
        <time>2021-02-27T12:43:53Z</time>
      </trkpt>
      <trkpt lat="45.22667" lon="6.14767">
        <ele>1737</ele>
        <time>2021-02-27T12:43:54Z</time>
      </trkpt>
      <trkpt lat="45.22667" lon="6.1477">
        <ele>1737</ele>
        <time>2021-02-27T12:43:55Z</time>
      </trkpt>
      <trkpt lat="45.22667" lon="6.14773">
        <ele>1737</ele>
        <time>2021-02-27T12:43:56Z</time>
      </trkpt>
      <trkpt lat="45.22667" lon="6.14776">
        <ele>1737</ele>
        <time>2021-02-27T12:43:57Z</time>
      </trkpt>
      <trkpt lat="45.22667" lon="6.14784">
        <ele>1737</ele>
        <time>2021-02-27T12:43:58Z</time>
      </trkpt>
      <trkpt lat="45.22667" lon="6.14788">
        <ele>1737</ele>
        <time>2021-02-27T12:43:59Z</time>
      </trkpt>
      <trkpt lat="45.22667" lon="6.14793">
        <ele>1737</ele>
        <time>2021-02-27T12:44:00Z</time>
      </trkpt>
      <trkpt lat="45.22667" lon="6.14797">
        <ele>1737</ele>
        <time>2021-02-27T12:44:01Z</time>
      </trkpt>
      <trkpt lat="45.22668" lon="6.14801">
        <ele>1737</ele>
        <time>2021-02-27T12:44:02Z</time>
      </trkpt>
      <trkpt lat="45.22668" lon="6.14805">
        <ele>1737</ele>
        <time>2021-02-27T12:44:03Z</time>
      </trkpt>
      <trkpt lat="45.22668" lon="6.1481">
        <ele>1737</ele>
        <time>2021-02-27T12:44:04Z</time>
      </trkpt>
      <trkpt lat="45.22668" lon="6.14814">
        <ele>1737</ele>
        <time>2021-02-27T12:44:05Z</time>
      </trkpt>
      <trkpt lat="45.22668" lon="6.14818">
        <ele>1737</ele>
        <time>2021-02-27T12:44:06Z</time>
      </trkpt>
      <trkpt lat="45.22668" lon="6.14823">
        <ele>1735.2</ele>
        <time>2021-02-27T12:44:07Z</time>
      </trkpt>
      <trkpt lat="45.22668" lon="6.1483">
        <ele>1735.2</ele>
        <time>2021-02-27T12:44:08Z</time>
      </trkpt>
      <trkpt lat="45.22668" lon="6.14833">
        <ele>1735.2</ele>
        <time>2021-02-27T12:44:09Z</time>
      </trkpt>
      <trkpt lat="45.22668" lon="6.14836">
        <ele>1735.2</ele>
        <time>2021-02-27T12:44:10Z</time>
      </trkpt>
      <trkpt lat="45.22668" lon="6.1484">
        <ele>1735.2</ele>
        <time>2021-02-27T12:44:11Z</time>
      </trkpt>
      <trkpt lat="45.22668" lon="6.14843">
        <ele>1735.2</ele>
        <time>2021-02-27T12:44:12Z</time>
      </trkpt>
      <trkpt lat="45.22668" lon="6.14846">
        <ele>1735.2</ele>
        <time>2021-02-27T12:44:13Z</time>
      </trkpt>
      <trkpt lat="45.22668" lon="6.14849">
        <ele>1735.2</ele>
        <time>2021-02-27T12:44:14Z</time>
      </trkpt>
      <trkpt lat="45.22668" lon="6.14852">
        <ele>1735.2</ele>
        <time>2021-02-27T12:44:15Z</time>
      </trkpt>
      <trkpt lat="45.22668" lon="6.14856">
        <ele>1735.2</ele>
        <time>2021-02-27T12:44:16Z</time>
      </trkpt>
      <trkpt lat="45.22668" lon="6.14859">
        <ele>1733.6</ele>
        <time>2021-02-27T12:44:17Z</time>
      </trkpt>
      <trkpt lat="45.22668" lon="6.14865">
        <ele>1733.6</ele>
        <time>2021-02-27T12:44:18Z</time>
      </trkpt>
      <trkpt lat="45.22668" lon="6.14868">
        <ele>1733.6</ele>
        <time>2021-02-27T12:44:19Z</time>
      </trkpt>
      <trkpt lat="45.22668" lon="6.14871">
        <ele>1733.6</ele>
        <time>2021-02-27T12:44:20Z</time>
      </trkpt>
      <trkpt lat="45.22668" lon="6.14874">
        <ele>1733.6</ele>
        <time>2021-02-27T12:44:21Z</time>
      </trkpt>
      <trkpt lat="45.22668" lon="6.14878">
        <ele>1733.6</ele>
        <time>2021-02-27T12:44:22Z</time>
      </trkpt>
      <trkpt lat="45.22668" lon="6.14881">
        <ele>1733.6</ele>
        <time>2021-02-27T12:44:23Z</time>
      </trkpt>
      <trkpt lat="45.22668" lon="6.14884">
        <ele>1733.6</ele>
        <time>2021-02-27T12:44:24Z</time>
      </trkpt>
      <trkpt lat="45.22668" lon="6.14887">
        <ele>1733.6</ele>
        <time>2021-02-27T12:44:25Z</time>
      </trkpt>
      <trkpt lat="45.22668" lon="6.1489">
        <ele>1733.6</ele>
        <time>2021-02-27T12:44:26Z</time>
      </trkpt>
      <trkpt lat="45.22668" lon="6.14893">
        <ele>1732.6</ele>
        <time>2021-02-27T12:44:27Z</time>
      </trkpt>
      <trkpt lat="45.2267" lon="6.14899">
        <ele>1732.6</ele>
        <time>2021-02-27T12:44:28Z</time>
      </trkpt>
      <trkpt lat="45.22671" lon="6.14902">
        <ele>1732.6</ele>
        <time>2021-02-27T12:44:29Z</time>
      </trkpt>
      <trkpt lat="45.22672" lon="6.14905">
        <ele>1732.6</ele>
        <time>2021-02-27T12:44:30Z</time>
      </trkpt>
      <trkpt lat="45.22673" lon="6.14908">
        <ele>1732.6</ele>
        <time>2021-02-27T12:44:31Z</time>
      </trkpt>
      <trkpt lat="45.22674" lon="6.14911">
        <ele>1732.6</ele>
        <time>2021-02-27T12:44:32Z</time>
      </trkpt>
      <trkpt lat="45.22675" lon="6.14914">
        <ele>1732.6</ele>
        <time>2021-02-27T12:44:33Z</time>
      </trkpt>
      <trkpt lat="45.22676" lon="6.14916">
        <ele>1732.6</ele>
        <time>2021-02-27T12:44:34Z</time>
      </trkpt>
      <trkpt lat="45.22678" lon="6.14919">
        <ele>1732.6</ele>
        <time>2021-02-27T12:44:35Z</time>
      </trkpt>
      <trkpt lat="45.22679" lon="6.14922">
        <ele>1732.6</ele>
        <time>2021-02-27T12:44:36Z</time>
      </trkpt>
      <trkpt lat="45.2268" lon="6.14925">
        <ele>1731.4</ele>
        <time>2021-02-27T12:44:37Z</time>
      </trkpt>
      <trkpt lat="45.22683" lon="6.14931">
        <ele>1731.4</ele>
        <time>2021-02-27T12:44:38Z</time>
      </trkpt>
      <trkpt lat="45.22685" lon="6.14934">
        <ele>1731.4</ele>
        <time>2021-02-27T12:44:39Z</time>
      </trkpt>
      <trkpt lat="45.22686" lon="6.14937">
        <ele>1731.4</ele>
        <time>2021-02-27T12:44:40Z</time>
      </trkpt>
      <trkpt lat="45.22688" lon="6.1494">
        <ele>1731.4</ele>
        <time>2021-02-27T12:44:41Z</time>
      </trkpt>
      <trkpt lat="45.2269" lon="6.14943">
        <ele>1731.4</ele>
        <time>2021-02-27T12:44:42Z</time>
      </trkpt>
      <trkpt lat="45.22691" lon="6.14946">
        <ele>1731.4</ele>
        <time>2021-02-27T12:44:43Z</time>
      </trkpt>
      <trkpt lat="45.22693" lon="6.14949">
        <ele>1731.4</ele>
        <time>2021-02-27T12:44:44Z</time>
      </trkpt>
      <trkpt lat="45.22695" lon="6.14952">
        <ele>1731.4</ele>
        <time>2021-02-27T12:44:45Z</time>
      </trkpt>
      <trkpt lat="45.22696" lon="6.14954">
        <ele>1731.4</ele>
        <time>2021-02-27T12:44:46Z</time>
      </trkpt>
      <trkpt lat="45.22698" lon="6.14957">
        <ele>1729</ele>
        <time>2021-02-27T12:44:47Z</time>
      </trkpt>
      <trkpt lat="45.22702" lon="6.14962">
        <ele>1729</ele>
        <time>2021-02-27T12:44:48Z</time>
      </trkpt>
      <trkpt lat="45.22703" lon="6.14964">
        <ele>1729</ele>
        <time>2021-02-27T12:44:49Z</time>
      </trkpt>
      <trkpt lat="45.22705" lon="6.14967">
        <ele>1729</ele>
        <time>2021-02-27T12:44:50Z</time>
      </trkpt>
      <trkpt lat="45.22707" lon="6.14969">
        <ele>1729</ele>
        <time>2021-02-27T12:44:51Z</time>
      </trkpt>
      <trkpt lat="45.22709" lon="6.14971">
        <ele>1729</ele>
        <time>2021-02-27T12:44:52Z</time>
      </trkpt>
      <trkpt lat="45.22711" lon="6.14973">
        <ele>1729</ele>
        <time>2021-02-27T12:44:53Z</time>
      </trkpt>
      <trkpt lat="45.22712" lon="6.14975">
        <ele>1729</ele>
        <time>2021-02-27T12:44:54Z</time>
      </trkpt>
      <trkpt lat="45.22714" lon="6.14978">
        <ele>1729</ele>
        <time>2021-02-27T12:44:55Z</time>
      </trkpt>
      <trkpt lat="45.22716" lon="6.1498">
        <ele>1729</ele>
        <time>2021-02-27T12:44:56Z</time>
      </trkpt>
      <trkpt lat="45.22718" lon="6.14982">
        <ele>1727.8</ele>
        <time>2021-02-27T12:44:57Z</time>
      </trkpt>
      <trkpt lat="45.22721" lon="6.14988">
        <ele>1727.8</ele>
        <time>2021-02-27T12:44:58Z</time>
      </trkpt>
      <trkpt lat="45.22723" lon="6.14991">
        <ele>1727.8</ele>
        <time>2021-02-27T12:44:59Z</time>
      </trkpt>
      <trkpt lat="45.22724" lon="6.14993">
        <ele>1727.8</ele>
        <time>2021-02-27T12:45:00Z</time>
      </trkpt>
      <trkpt lat="45.22726" lon="6.14996">
        <ele>1727.8</ele>
        <time>2021-02-27T12:45:01Z</time>
      </trkpt>
      <trkpt lat="45.22727" lon="6.14999">
        <ele>1727.8</ele>
        <time>2021-02-27T12:45:02Z</time>
      </trkpt>
      <trkpt lat="45.22728" lon="6.15002">
        <ele>1727.8</ele>
        <time>2021-02-27T12:45:03Z</time>
      </trkpt>
      <trkpt lat="45.2273" lon="6.15005">
        <ele>1727.8</ele>
        <time>2021-02-27T12:45:04Z</time>
      </trkpt>
      <trkpt lat="45.22731" lon="6.15008">
        <ele>1727.8</ele>
        <time>2021-02-27T12:45:05Z</time>
      </trkpt>
      <trkpt lat="45.22733" lon="6.15011">
        <ele>1727.8</ele>
        <time>2021-02-27T12:45:06Z</time>
      </trkpt>
      <trkpt lat="45.22734" lon="6.15014">
        <ele>1725</ele>
        <time>2021-02-27T12:45:07Z</time>
      </trkpt>
      <trkpt lat="45.22736" lon="6.15021">
        <ele>1725</ele>
        <time>2021-02-27T12:45:08Z</time>
      </trkpt>
      <trkpt lat="45.22736" lon="6.15024">
        <ele>1725</ele>
        <time>2021-02-27T12:45:09Z</time>
      </trkpt>
      <trkpt lat="45.22737" lon="6.15027">
        <ele>1725</ele>
        <time>2021-02-27T12:45:10Z</time>
      </trkpt>
      <trkpt lat="45.22737" lon="6.1503">
        <ele>1725</ele>
        <time>2021-02-27T12:45:11Z</time>
      </trkpt>
      <trkpt lat="45.22738" lon="6.15033">
        <ele>1725</ele>
        <time>2021-02-27T12:45:12Z</time>
      </trkpt>
      <trkpt lat="45.22738" lon="6.15036">
        <ele>1725</ele>
        <time>2021-02-27T12:45:13Z</time>
      </trkpt>
      <trkpt lat="45.22739" lon="6.15039">
        <ele>1725</ele>
        <time>2021-02-27T12:45:14Z</time>
      </trkpt>
      <trkpt lat="45.22739" lon="6.15042">
        <ele>1725</ele>
        <time>2021-02-27T12:45:15Z</time>
      </trkpt>
      <trkpt lat="45.2274" lon="6.15045">
        <ele>1725</ele>
        <time>2021-02-27T12:45:16Z</time>
      </trkpt>
      <trkpt lat="45.2274" lon="6.15048">
        <ele>1723.8</ele>
        <time>2021-02-27T12:45:17Z</time>
      </trkpt>
      <trkpt lat="45.22741" lon="6.15055">
        <ele>1723.8</ele>
        <time>2021-02-27T12:45:18Z</time>
      </trkpt>
      <trkpt lat="45.22741" lon="6.15058">
        <ele>1723.8</ele>
        <time>2021-02-27T12:45:19Z</time>
      </trkpt>
      <trkpt lat="45.22741" lon="6.15061">
        <ele>1723.8</ele>
        <time>2021-02-27T12:45:20Z</time>
      </trkpt>
      <trkpt lat="45.22742" lon="6.15065">
        <ele>1723.8</ele>
        <time>2021-02-27T12:45:21Z</time>
      </trkpt>
      <trkpt lat="45.22742" lon="6.15068">
        <ele>1723.8</ele>
        <time>2021-02-27T12:45:22Z</time>
      </trkpt>
      <trkpt lat="45.22742" lon="6.15071">
        <ele>1723.8</ele>
        <time>2021-02-27T12:45:23Z</time>
      </trkpt>
      <trkpt lat="45.22743" lon="6.15074">
        <ele>1723.8</ele>
        <time>2021-02-27T12:45:24Z</time>
      </trkpt>
      <trkpt lat="45.22743" lon="6.15078">
        <ele>1723.8</ele>
        <time>2021-02-27T12:45:25Z</time>
      </trkpt>
      <trkpt lat="45.22744" lon="6.15081">
        <ele>1723.8</ele>
        <time>2021-02-27T12:45:26Z</time>
      </trkpt>
      <trkpt lat="45.22744" lon="6.15084">
        <ele>1723</ele>
        <time>2021-02-27T12:45:27Z</time>
      </trkpt>
      <trkpt lat="45.22745" lon="6.15091">
        <ele>1723</ele>
        <time>2021-02-27T12:45:28Z</time>
      </trkpt>
      <trkpt lat="45.22745" lon="6.15094">
        <ele>1723</ele>
        <time>2021-02-27T12:45:29Z</time>
      </trkpt>
      <trkpt lat="45.22746" lon="6.15097">
        <ele>1723</ele>
        <time>2021-02-27T12:45:30Z</time>
      </trkpt>
      <trkpt lat="45.22746" lon="6.151">
        <ele>1723</ele>
        <time>2021-02-27T12:45:31Z</time>
      </trkpt>
      <trkpt lat="45.22747" lon="6.15103">
        <ele>1723</ele>
        <time>2021-02-27T12:45:32Z</time>
      </trkpt>
      <trkpt lat="45.22747" lon="6.15106">
        <ele>1723</ele>
        <time>2021-02-27T12:45:33Z</time>
      </trkpt>
      <trkpt lat="45.22748" lon="6.15109">
        <ele>1723</ele>
        <time>2021-02-27T12:45:34Z</time>
      </trkpt>
      <trkpt lat="45.22748" lon="6.15112">
        <ele>1723</ele>
        <time>2021-02-27T12:45:35Z</time>
      </trkpt>
      <trkpt lat="45.22749" lon="6.15115">
        <ele>1723</ele>
        <time>2021-02-27T12:45:36Z</time>
      </trkpt>
      <trkpt lat="45.22749" lon="6.15118">
        <ele>1723</ele>
        <time>2021-02-27T12:45:37Z</time>
      </trkpt>
      <trkpt lat="45.2275" lon="6.15121">
        <ele>1723</ele>
        <time>2021-02-27T12:45:38Z</time>
      </trkpt>
      <trkpt lat="45.22752" lon="6.15125">
        <ele>1723</ele>
        <time>2021-02-27T12:45:40Z</time>
      </trkpt>
      <trkpt lat="45.22753" lon="6.15127">
        <ele>1723</ele>
        <time>2021-02-27T12:45:41Z</time>
      </trkpt>
      <trkpt lat="45.22756" lon="6.1513">
        <ele>1723</ele>
        <time>2021-02-27T12:45:43Z</time>
      </trkpt>
      <trkpt lat="45.22757" lon="6.15132">
        <ele>1723</ele>
        <time>2021-02-27T12:45:45Z</time>
      </trkpt>
      <trkpt lat="45.22757" lon="6.15132">
        <ele>1722.4</ele>
        <time>2021-02-27T12:45:47Z</time>
      </trkpt>
      <trkpt lat="45.22758" lon="6.15135">
        <ele>1722.4</ele>
        <time>2021-02-27T12:45:48Z</time>
      </trkpt>
      <trkpt lat="45.22758" lon="6.15135">
        <ele>1721.6</ele>
        <time>2021-02-27T12:45:57Z</time>
      </trkpt>
      <trkpt lat="45.22758" lon="6.15135">
        <ele>1721.8</ele>
        <time>2021-02-27T12:46:07Z</time>
      </trkpt>
      <trkpt lat="45.22758" lon="6.15135">
        <ele>1722.6</ele>
        <time>2021-02-27T12:46:17Z</time>
      </trkpt>
      <trkpt lat="45.22758" lon="6.15135">
        <ele>1721.6</ele>
        <time>2021-02-27T12:46:27Z</time>
      </trkpt>
      <trkpt lat="45.22758" lon="6.15135">
        <ele>1721.4</ele>
        <time>2021-02-27T12:46:37Z</time>
      </trkpt>
      <trkpt lat="45.22758" lon="6.15135">
        <ele>1721.8</ele>
        <time>2021-02-27T12:46:47Z</time>
      </trkpt>
      <trkpt lat="45.22758" lon="6.15135">
        <ele>1722.6</ele>
        <time>2021-02-27T12:46:57Z</time>
      </trkpt>
      <trkpt lat="45.22758" lon="6.15135">
        <ele>1721.4</ele>
        <time>2021-02-27T12:47:07Z</time>
      </trkpt>
      <trkpt lat="45.22758" lon="6.15135">
        <ele>1722.8</ele>
        <time>2021-02-27T12:47:17Z</time>
      </trkpt>
      <trkpt lat="45.22758" lon="6.15135">
        <ele>1722</ele>
        <time>2021-02-27T12:47:27Z</time>
      </trkpt>
      <trkpt lat="45.22758" lon="6.15135">
        <ele>1722.8</ele>
        <time>2021-02-27T12:47:37Z</time>
      </trkpt>
      <trkpt lat="45.22758" lon="6.15135">
        <ele>1722</ele>
        <time>2021-02-27T12:47:47Z</time>
      </trkpt>
      <trkpt lat="45.22758" lon="6.15135">
        <ele>1722.2</ele>
        <time>2021-02-27T12:47:57Z</time>
      </trkpt>
      <trkpt lat="45.22758" lon="6.15135">
        <ele>1721.4</ele>
        <time>2021-02-27T12:48:07Z</time>
      </trkpt>
      <trkpt lat="45.22758" lon="6.15135">
        <ele>1723.4</ele>
        <time>2021-02-27T12:48:17Z</time>
      </trkpt>
      <trkpt lat="45.22758" lon="6.15135">
        <ele>1722.4</ele>
        <time>2021-02-27T12:48:27Z</time>
      </trkpt>
      <trkpt lat="45.22758" lon="6.15135">
        <ele>1722.8</ele>
        <time>2021-02-27T12:48:37Z</time>
      </trkpt>
      <trkpt lat="45.22758" lon="6.15135">
        <ele>1721.8</ele>
        <time>2021-02-27T12:48:47Z</time>
      </trkpt>
      <trkpt lat="45.22758" lon="6.15135">
        <ele>1721.2</ele>
        <time>2021-02-27T12:48:57Z</time>
      </trkpt>
      <trkpt lat="45.22758" lon="6.15135">
        <ele>1722.8</ele>
        <time>2021-02-27T12:49:07Z</time>
      </trkpt>
      <trkpt lat="45.22758" lon="6.15135">
        <ele>1723.2</ele>
        <time>2021-02-27T12:49:17Z</time>
      </trkpt>
      <trkpt lat="45.22758" lon="6.15135">
        <ele>1723.4</ele>
        <time>2021-02-27T12:49:27Z</time>
      </trkpt>
      <trkpt lat="45.22758" lon="6.15135">
        <ele>1723.4</ele>
        <time>2021-02-27T12:49:37Z</time>
      </trkpt>
      <trkpt lat="45.22758" lon="6.15135">
        <ele>1723.2</ele>
        <time>2021-02-27T12:49:47Z</time>
      </trkpt>
      <trkpt lat="45.22758" lon="6.15135">
        <ele>1723.6</ele>
        <time>2021-02-27T12:49:57Z</time>
      </trkpt>
      <trkpt lat="45.22758" lon="6.15135">
        <ele>1723.8</ele>
        <time>2021-02-27T12:50:07Z</time>
      </trkpt>
      <trkpt lat="45.22758" lon="6.15135">
        <ele>1723.2</ele>
        <time>2021-02-27T12:50:17Z</time>
      </trkpt>
      <trkpt lat="45.22758" lon="6.15135">
        <ele>1725</ele>
        <time>2021-02-27T12:50:27Z</time>
      </trkpt>
      <trkpt lat="45.22758" lon="6.15135">
        <ele>1723</ele>
        <time>2021-02-27T12:50:37Z</time>
      </trkpt>
      <trkpt lat="45.22758" lon="6.15135">
        <ele>1721.4</ele>
        <time>2021-02-27T12:50:47Z</time>
      </trkpt>
      <trkpt lat="45.22758" lon="6.15135">
        <ele>1722.2</ele>
        <time>2021-02-27T12:50:57Z</time>
      </trkpt>
      <trkpt lat="45.22758" lon="6.15135">
        <ele>1721.6</ele>
        <time>2021-02-27T12:51:07Z</time>
      </trkpt>
      <trkpt lat="45.22758" lon="6.15135">
        <ele>1722.4</ele>
        <time>2021-02-27T12:51:17Z</time>
      </trkpt>
      <trkpt lat="45.22758" lon="6.15135">
        <ele>1722.4</ele>
        <time>2021-02-27T12:51:27Z</time>
      </trkpt>
      <trkpt lat="45.22758" lon="6.15135">
        <ele>1721.8</ele>
        <time>2021-02-27T12:51:37Z</time>
      </trkpt>
      <trkpt lat="45.22758" lon="6.15135">
        <ele>1721.6</ele>
        <time>2021-02-27T12:51:47Z</time>
      </trkpt>
      <trkpt lat="45.22758" lon="6.15135">
        <ele>1722</ele>
        <time>2021-02-27T12:51:57Z</time>
      </trkpt>
      <trkpt lat="45.22758" lon="6.15135">
        <ele>1722.8</ele>
        <time>2021-02-27T12:52:07Z</time>
      </trkpt>
      <trkpt lat="45.2276" lon="6.15143">
        <ele>1722.8</ele>
        <time>2021-02-27T12:53:33Z</time>
      </trkpt>
      <trkpt lat="45.22763" lon="6.15144">
        <ele>1722.8</ele>
        <time>2021-02-27T12:53:36Z</time>
      </trkpt>
      <trkpt lat="45.22765" lon="6.15146">
        <ele>1722.8</ele>
        <time>2021-02-27T12:53:38Z</time>
      </trkpt>
      <trkpt lat="45.22765" lon="6.15146">
        <ele>1722.6</ele>
        <time>2021-02-27T12:53:41Z</time>
      </trkpt>
      <trkpt lat="45.22768" lon="6.15149">
        <ele>1722.6</ele>
        <time>2021-02-27T12:53:42Z</time>
      </trkpt>
      <trkpt lat="45.2277" lon="6.15151">
        <ele>1722.6</ele>
        <time>2021-02-27T12:53:44Z</time>
      </trkpt>
      <trkpt lat="45.22772" lon="6.15153">
        <ele>1722.6</ele>
        <time>2021-02-27T12:53:46Z</time>
      </trkpt>
      <trkpt lat="45.22773" lon="6.15155">
        <ele>1722.6</ele>
        <time>2021-02-27T12:53:48Z</time>
      </trkpt>
      <trkpt lat="45.22773" lon="6.15155">
        <ele>1722.2</ele>
        <time>2021-02-27T12:53:51Z</time>
      </trkpt>
      <trkpt lat="45.22775" lon="6.15158">
        <ele>1722.2</ele>
        <time>2021-02-27T12:53:53Z</time>
      </trkpt>
      <trkpt lat="45.22776" lon="6.15158">
        <ele>1722.2</ele>
        <time>2021-02-27T12:53:58Z</time>
      </trkpt>
      <trkpt lat="45.22777" lon="6.15159">
        <ele>1722.2</ele>
        <time>2021-02-27T12:54:00Z</time>
      </trkpt>
      <trkpt lat="45.22778" lon="6.15159">
        <ele>1721.8</ele>
        <time>2021-02-27T12:54:01Z</time>
      </trkpt>
      <trkpt lat="45.2278" lon="6.15161">
        <ele>1721.8</ele>
        <time>2021-02-27T12:54:03Z</time>
      </trkpt>
      <trkpt lat="45.22782" lon="6.15163">
        <ele>1721.8</ele>
        <time>2021-02-27T12:54:06Z</time>
      </trkpt>
      <trkpt lat="45.22783" lon="6.15167">
        <ele>1721.8</ele>
        <time>2021-02-27T12:54:09Z</time>
      </trkpt>
      <trkpt lat="45.22783" lon="6.15167">
        <ele>1721.8</ele>
        <time>2021-02-27T12:54:11Z</time>
      </trkpt>
      <trkpt lat="45.22786" lon="6.15171">
        <ele>1721.8</ele>
        <time>2021-02-27T12:54:12Z</time>
      </trkpt>
      <trkpt lat="45.22787" lon="6.15173">
        <ele>1721.8</ele>
        <time>2021-02-27T12:54:15Z</time>
      </trkpt>
      <trkpt lat="45.22788" lon="6.15174">
        <ele>1721.8</ele>
        <time>2021-02-27T12:54:18Z</time>
      </trkpt>
      <trkpt lat="45.22789" lon="6.15175">
        <ele>1721.8</ele>
        <time>2021-02-27T12:54:20Z</time>
      </trkpt>
      <trkpt lat="45.22789" lon="6.15177">
        <ele>1722</ele>
        <time>2021-02-27T12:54:21Z</time>
      </trkpt>
      <trkpt lat="45.22791" lon="6.1518">
        <ele>1722</ele>
        <time>2021-02-27T12:54:23Z</time>
      </trkpt>
      <trkpt lat="45.22792" lon="6.15182">
        <ele>1722</ele>
        <time>2021-02-27T12:54:25Z</time>
      </trkpt>
      <trkpt lat="45.22793" lon="6.15185">
        <ele>1722</ele>
        <time>2021-02-27T12:54:27Z</time>
      </trkpt>
      <trkpt lat="45.22794" lon="6.15187">
        <ele>1722</ele>
        <time>2021-02-27T12:54:29Z</time>
      </trkpt>
      <trkpt lat="45.22795" lon="6.15191">
        <ele>1722</ele>
        <time>2021-02-27T12:54:31Z</time>
      </trkpt>
      <trkpt lat="45.22795" lon="6.15194">
        <ele>1722</ele>
        <time>2021-02-27T12:54:33Z</time>
      </trkpt>
      <trkpt lat="45.22796" lon="6.15197">
        <ele>1722</ele>
        <time>2021-02-27T12:54:35Z</time>
      </trkpt>
      <trkpt lat="45.22796" lon="6.152">
        <ele>1722</ele>
        <time>2021-02-27T12:54:37Z</time>
      </trkpt>
      <trkpt lat="45.22797" lon="6.15203">
        <ele>1722</ele>
        <time>2021-02-27T12:54:39Z</time>
      </trkpt>
      <trkpt lat="45.22797" lon="6.15206">
        <ele>1722.2</ele>
        <time>2021-02-27T12:54:41Z</time>
      </trkpt>
      <trkpt lat="45.22798" lon="6.15209">
        <ele>1722.2</ele>
        <time>2021-02-27T12:54:43Z</time>
      </trkpt>
      <trkpt lat="45.22798" lon="6.15212">
        <ele>1722.2</ele>
        <time>2021-02-27T12:54:45Z</time>
      </trkpt>
      <trkpt lat="45.22799" lon="6.15216">
        <ele>1722.2</ele>
        <time>2021-02-27T12:54:47Z</time>
      </trkpt>
      <trkpt lat="45.22799" lon="6.15219">
        <ele>1722.2</ele>
        <time>2021-02-27T12:54:49Z</time>
      </trkpt>
      <trkpt lat="45.228" lon="6.15222">
        <ele>1722.8</ele>
        <time>2021-02-27T12:54:51Z</time>
      </trkpt>
      <trkpt lat="45.228" lon="6.15226">
        <ele>1722.8</ele>
        <time>2021-02-27T12:54:53Z</time>
      </trkpt>
      <trkpt lat="45.228" lon="6.15229">
        <ele>1722.8</ele>
        <time>2021-02-27T12:54:55Z</time>
      </trkpt>
      <trkpt lat="45.22799" lon="6.15232">
        <ele>1722.8</ele>
        <time>2021-02-27T12:54:57Z</time>
      </trkpt>
      <trkpt lat="45.22799" lon="6.15235">
        <ele>1722.8</ele>
        <time>2021-02-27T12:54:59Z</time>
      </trkpt>
      <trkpt lat="45.22799" lon="6.15239">
        <ele>1722.8</ele>
        <time>2021-02-27T12:55:01Z</time>
      </trkpt>
      <trkpt lat="45.22799" lon="6.15243">
        <ele>1722.8</ele>
        <time>2021-02-27T12:55:03Z</time>
      </trkpt>
      <trkpt lat="45.228" lon="6.15246">
        <ele>1722.8</ele>
        <time>2021-02-27T12:55:05Z</time>
      </trkpt>
      <trkpt lat="45.228" lon="6.15249">
        <ele>1722.8</ele>
        <time>2021-02-27T12:55:07Z</time>
      </trkpt>
      <trkpt lat="45.22801" lon="6.15252">
        <ele>1722.8</ele>
        <time>2021-02-27T12:55:09Z</time>
      </trkpt>
      <trkpt lat="45.22802" lon="6.15256">
        <ele>1723</ele>
        <time>2021-02-27T12:55:11Z</time>
      </trkpt>
      <trkpt lat="45.22804" lon="6.15261">
        <ele>1723</ele>
        <time>2021-02-27T12:55:13Z</time>
      </trkpt>
      <trkpt lat="45.22805" lon="6.15263">
        <ele>1723</ele>
        <time>2021-02-27T12:55:16Z</time>
      </trkpt>
      <trkpt lat="45.22806" lon="6.15265">
        <ele>1723</ele>
        <time>2021-02-27T12:55:18Z</time>
      </trkpt>
      <trkpt lat="45.22807" lon="6.15267">
        <ele>1723</ele>
        <time>2021-02-27T12:55:20Z</time>
      </trkpt>
      <trkpt lat="45.22808" lon="6.15269">
        <ele>1724.2</ele>
        <time>2021-02-27T12:55:21Z</time>
      </trkpt>
      <trkpt lat="45.2281" lon="6.15272">
        <ele>1724.2</ele>
        <time>2021-02-27T12:55:22Z</time>
      </trkpt>
      <trkpt lat="45.2281" lon="6.15274">
        <ele>1724.2</ele>
        <time>2021-02-27T12:55:24Z</time>
      </trkpt>
      <trkpt lat="45.22811" lon="6.15276">
        <ele>1724.2</ele>
        <time>2021-02-27T12:55:26Z</time>
      </trkpt>
      <trkpt lat="45.22812" lon="6.15278">
        <ele>1724.2</ele>
        <time>2021-02-27T12:55:28Z</time>
      </trkpt>
      <trkpt lat="45.22813" lon="6.15281">
        <ele>1724.2</ele>
        <time>2021-02-27T12:55:30Z</time>
      </trkpt>
      <trkpt lat="45.22813" lon="6.15283">
        <ele>1724.6</ele>
        <time>2021-02-27T12:55:31Z</time>
      </trkpt>
      <trkpt lat="45.22815" lon="6.15286">
        <ele>1724.6</ele>
        <time>2021-02-27T12:55:32Z</time>
      </trkpt>
      <trkpt lat="45.22816" lon="6.15289">
        <ele>1724.6</ele>
        <time>2021-02-27T12:55:34Z</time>
      </trkpt>
      <trkpt lat="45.22817" lon="6.15291">
        <ele>1724.6</ele>
        <time>2021-02-27T12:55:36Z</time>
      </trkpt>
      <trkpt lat="45.22818" lon="6.15293">
        <ele>1724.6</ele>
        <time>2021-02-27T12:55:38Z</time>
      </trkpt>
      <trkpt lat="45.22819" lon="6.15295">
        <ele>1724.6</ele>
        <time>2021-02-27T12:55:40Z</time>
      </trkpt>
      <trkpt lat="45.2282" lon="6.15297">
        <ele>1726</ele>
        <time>2021-02-27T12:55:41Z</time>
      </trkpt>
      <trkpt lat="45.22821" lon="6.15299">
        <ele>1726</ele>
        <time>2021-02-27T12:55:42Z</time>
      </trkpt>
      <trkpt lat="45.22822" lon="6.15301">
        <ele>1726</ele>
        <time>2021-02-27T12:55:44Z</time>
      </trkpt>
      <trkpt lat="45.22823" lon="6.15303">
        <ele>1726</ele>
        <time>2021-02-27T12:55:46Z</time>
      </trkpt>
      <trkpt lat="45.22824" lon="6.15304">
        <ele>1726</ele>
        <time>2021-02-27T12:55:48Z</time>
      </trkpt>
      <trkpt lat="45.22825" lon="6.15306">
        <ele>1726</ele>
        <time>2021-02-27T12:55:50Z</time>
      </trkpt>
      <trkpt lat="45.22825" lon="6.15307">
        <ele>1725.8</ele>
        <time>2021-02-27T12:55:51Z</time>
      </trkpt>
      <trkpt lat="45.22827" lon="6.15311">
        <ele>1725.8</ele>
        <time>2021-02-27T12:55:52Z</time>
      </trkpt>
      <trkpt lat="45.22828" lon="6.15315">
        <ele>1725.8</ele>
        <time>2021-02-27T12:55:54Z</time>
      </trkpt>
      <trkpt lat="45.22829" lon="6.15317">
        <ele>1725.8</ele>
        <time>2021-02-27T12:55:56Z</time>
      </trkpt>
      <trkpt lat="45.22831" lon="6.1532">
        <ele>1725.8</ele>
        <time>2021-02-27T12:55:58Z</time>
      </trkpt>
      <trkpt lat="45.22832" lon="6.15324">
        <ele>1726.8</ele>
        <time>2021-02-27T12:56:01Z</time>
      </trkpt>
      <trkpt lat="45.22833" lon="6.15327">
        <ele>1726.8</ele>
        <time>2021-02-27T12:56:03Z</time>
      </trkpt>
      <trkpt lat="45.22836" lon="6.1533">
        <ele>1726.8</ele>
        <time>2021-02-27T12:56:05Z</time>
      </trkpt>
      <trkpt lat="45.22838" lon="6.15332">
        <ele>1726.8</ele>
        <time>2021-02-27T12:56:07Z</time>
      </trkpt>
      <trkpt lat="45.22839" lon="6.15335">
        <ele>1726.8</ele>
        <time>2021-02-27T12:56:09Z</time>
      </trkpt>
      <trkpt lat="45.2284" lon="6.15338">
        <ele>1727.6</ele>
        <time>2021-02-27T12:56:11Z</time>
      </trkpt>
      <trkpt lat="45.22841" lon="6.15341">
        <ele>1727.6</ele>
        <time>2021-02-27T12:56:13Z</time>
      </trkpt>
      <trkpt lat="45.22842" lon="6.15344">
        <ele>1727.6</ele>
        <time>2021-02-27T12:56:15Z</time>
      </trkpt>
      <trkpt lat="45.22843" lon="6.15347">
        <ele>1727.6</ele>
        <time>2021-02-27T12:56:17Z</time>
      </trkpt>
      <trkpt lat="45.22843" lon="6.1535">
        <ele>1727.6</ele>
        <time>2021-02-27T12:56:19Z</time>
      </trkpt>
      <trkpt lat="45.22844" lon="6.15353">
        <ele>1728.6</ele>
        <time>2021-02-27T12:56:21Z</time>
      </trkpt>
      <trkpt lat="45.22845" lon="6.15355">
        <ele>1728.6</ele>
        <time>2021-02-27T12:56:23Z</time>
      </trkpt>
      <trkpt lat="45.22845" lon="6.15358">
        <ele>1728.6</ele>
        <time>2021-02-27T12:56:25Z</time>
      </trkpt>
      <trkpt lat="45.22846" lon="6.15361">
        <ele>1728.6</ele>
        <time>2021-02-27T12:56:27Z</time>
      </trkpt>
      <trkpt lat="45.22846" lon="6.15364">
        <ele>1729.2</ele>
        <time>2021-02-27T12:56:31Z</time>
      </trkpt>
      <trkpt lat="45.22847" lon="6.15369">
        <ele>1729.2</ele>
        <time>2021-02-27T12:56:33Z</time>
      </trkpt>
      <trkpt lat="45.22848" lon="6.15371">
        <ele>1729.2</ele>
        <time>2021-02-27T12:56:36Z</time>
      </trkpt>
      <trkpt lat="45.22849" lon="6.15373">
        <ele>1729.2</ele>
        <time>2021-02-27T12:56:38Z</time>
      </trkpt>
      <trkpt lat="45.2285" lon="6.15375">
        <ele>1729.2</ele>
        <time>2021-02-27T12:56:40Z</time>
      </trkpt>
      <trkpt lat="45.2285" lon="6.15377">
        <ele>1730</ele>
        <time>2021-02-27T12:56:41Z</time>
      </trkpt>
      <trkpt lat="45.22851" lon="6.15379">
        <ele>1730</ele>
        <time>2021-02-27T12:56:42Z</time>
      </trkpt>
      <trkpt lat="45.22852" lon="6.15382">
        <ele>1730</ele>
        <time>2021-02-27T12:56:44Z</time>
      </trkpt>
      <trkpt lat="45.22853" lon="6.15384">
        <ele>1730</ele>
        <time>2021-02-27T12:56:46Z</time>
      </trkpt>
      <trkpt lat="45.22853" lon="6.15387">
        <ele>1730</ele>
        <time>2021-02-27T12:56:48Z</time>
      </trkpt>
      <trkpt lat="45.22854" lon="6.1539">
        <ele>1731.4</ele>
        <time>2021-02-27T12:56:51Z</time>
      </trkpt>
      <trkpt lat="45.22856" lon="6.15395">
        <ele>1731.4</ele>
        <time>2021-02-27T12:56:53Z</time>
      </trkpt>
      <trkpt lat="45.22856" lon="6.15397">
        <ele>1731.4</ele>
        <time>2021-02-27T12:56:56Z</time>
      </trkpt>
      <trkpt lat="45.22856" lon="6.154">
        <ele>1731.4</ele>
        <time>2021-02-27T12:56:58Z</time>
      </trkpt>
      <trkpt lat="45.22857" lon="6.15402">
        <ele>1731.4</ele>
        <time>2021-02-27T12:57:00Z</time>
      </trkpt>
      <trkpt lat="45.22857" lon="6.15404">
        <ele>1733.2</ele>
        <time>2021-02-27T12:57:01Z</time>
      </trkpt>
      <trkpt lat="45.22857" lon="6.15409">
        <ele>1733.2</ele>
        <time>2021-02-27T12:57:02Z</time>
      </trkpt>
      <trkpt lat="45.22857" lon="6.15411">
        <ele>1733.2</ele>
        <time>2021-02-27T12:57:04Z</time>
      </trkpt>
      <trkpt lat="45.22857" lon="6.15414">
        <ele>1733.2</ele>
        <time>2021-02-27T12:57:06Z</time>
      </trkpt>
      <trkpt lat="45.22857" lon="6.15416">
        <ele>1733.2</ele>
        <time>2021-02-27T12:57:08Z</time>
      </trkpt>
      <trkpt lat="45.22857" lon="6.15419">
        <ele>1733.2</ele>
        <time>2021-02-27T12:57:10Z</time>
      </trkpt>
      <trkpt lat="45.22857" lon="6.15421">
        <ele>1733.6</ele>
        <time>2021-02-27T12:57:11Z</time>
      </trkpt>
      <trkpt lat="45.22856" lon="6.15425">
        <ele>1733.6</ele>
        <time>2021-02-27T12:57:12Z</time>
      </trkpt>
      <trkpt lat="45.22856" lon="6.15428">
        <ele>1733.6</ele>
        <time>2021-02-27T12:57:14Z</time>
      </trkpt>
      <trkpt lat="45.22856" lon="6.1543">
        <ele>1733.6</ele>
        <time>2021-02-27T12:57:16Z</time>
      </trkpt>
      <trkpt lat="45.22856" lon="6.15432">
        <ele>1733.6</ele>
        <time>2021-02-27T12:57:18Z</time>
      </trkpt>
      <trkpt lat="45.22856" lon="6.15435">
        <ele>1733.6</ele>
        <time>2021-02-27T12:57:20Z</time>
      </trkpt>
      <trkpt lat="45.22856" lon="6.15437">
        <ele>1735</ele>
        <time>2021-02-27T12:57:21Z</time>
      </trkpt>
      <trkpt lat="45.22855" lon="6.15441">
        <ele>1735</ele>
        <time>2021-02-27T12:57:22Z</time>
      </trkpt>
      <trkpt lat="45.22855" lon="6.15444">
        <ele>1735</ele>
        <time>2021-02-27T12:57:24Z</time>
      </trkpt>
      <trkpt lat="45.22855" lon="6.15447">
        <ele>1735</ele>
        <time>2021-02-27T12:57:26Z</time>
      </trkpt>
      <trkpt lat="45.22854" lon="6.1545">
        <ele>1735</ele>
        <time>2021-02-27T12:57:28Z</time>
      </trkpt>
      <trkpt lat="45.22854" lon="6.15453">
        <ele>1735</ele>
        <time>2021-02-27T12:57:30Z</time>
      </trkpt>
      <trkpt lat="45.22854" lon="6.15455">
        <ele>1736.2</ele>
        <time>2021-02-27T12:57:31Z</time>
      </trkpt>
      <trkpt lat="45.22853" lon="6.1546">
        <ele>1736.2</ele>
        <time>2021-02-27T12:57:32Z</time>
      </trkpt>
      <trkpt lat="45.22852" lon="6.15463">
        <ele>1736.2</ele>
        <time>2021-02-27T12:57:34Z</time>
      </trkpt>
      <trkpt lat="45.22852" lon="6.15466">
        <ele>1736.2</ele>
        <time>2021-02-27T12:57:36Z</time>
      </trkpt>
      <trkpt lat="45.22851" lon="6.15469">
        <ele>1736.2</ele>
        <time>2021-02-27T12:57:38Z</time>
      </trkpt>
      <trkpt lat="45.22851" lon="6.15472">
        <ele>1736.2</ele>
        <time>2021-02-27T12:57:40Z</time>
      </trkpt>
      <trkpt lat="45.2285" lon="6.15474">
        <ele>1736.4</ele>
        <time>2021-02-27T12:57:41Z</time>
      </trkpt>
      <trkpt lat="45.22849" lon="6.15478">
        <ele>1736.4</ele>
        <time>2021-02-27T12:57:42Z</time>
      </trkpt>
      <trkpt lat="45.22849" lon="6.15481">
        <ele>1736.4</ele>
        <time>2021-02-27T12:57:44Z</time>
      </trkpt>
      <trkpt lat="45.22848" lon="6.15483">
        <ele>1736.4</ele>
        <time>2021-02-27T12:57:46Z</time>
      </trkpt>
      <trkpt lat="45.22848" lon="6.15485">
        <ele>1736.4</ele>
        <time>2021-02-27T12:57:48Z</time>
      </trkpt>
      <trkpt lat="45.22847" lon="6.15487">
        <ele>1736.4</ele>
        <time>2021-02-27T12:57:50Z</time>
      </trkpt>
      <trkpt lat="45.22847" lon="6.15489">
        <ele>1737.6</ele>
        <time>2021-02-27T12:57:51Z</time>
      </trkpt>
      <trkpt lat="45.22846" lon="6.15493">
        <ele>1737.6</ele>
        <time>2021-02-27T12:57:52Z</time>
      </trkpt>
      <trkpt lat="45.22846" lon="6.15496">
        <ele>1737.6</ele>
        <time>2021-02-27T12:57:54Z</time>
      </trkpt>
      <trkpt lat="45.22846" lon="6.15499">
        <ele>1737.6</ele>
        <time>2021-02-27T12:57:56Z</time>
      </trkpt>
      <trkpt lat="45.22846" lon="6.15501">
        <ele>1737.6</ele>
        <time>2021-02-27T12:57:58Z</time>
      </trkpt>
      <trkpt lat="45.22845" lon="6.15504">
        <ele>1737.6</ele>
        <time>2021-02-27T12:58:00Z</time>
      </trkpt>
      <trkpt lat="45.22845" lon="6.15506">
        <ele>1738.4</ele>
        <time>2021-02-27T12:58:01Z</time>
      </trkpt>
      <trkpt lat="45.22845" lon="6.15508">
        <ele>1738.4</ele>
        <time>2021-02-27T12:58:02Z</time>
      </trkpt>
      <trkpt lat="45.22844" lon="6.1551">
        <ele>1738.4</ele>
        <time>2021-02-27T12:58:03Z</time>
      </trkpt>
      <trkpt lat="45.22844" lon="6.15513">
        <ele>1738.4</ele>
        <time>2021-02-27T12:58:05Z</time>
      </trkpt>
      <trkpt lat="45.22845" lon="6.15517">
        <ele>1738.4</ele>
        <time>2021-02-27T12:58:07Z</time>
      </trkpt>
      <trkpt lat="45.22845" lon="6.15521">
        <ele>1738.4</ele>
        <time>2021-02-27T12:58:09Z</time>
      </trkpt>
      <trkpt lat="45.22846" lon="6.15524">
        <ele>1740</ele>
        <time>2021-02-27T12:58:11Z</time>
      </trkpt>
      <trkpt lat="45.22847" lon="6.15528">
        <ele>1740</ele>
        <time>2021-02-27T12:58:13Z</time>
      </trkpt>
      <trkpt lat="45.22847" lon="6.15531">
        <ele>1740</ele>
        <time>2021-02-27T12:58:15Z</time>
      </trkpt>
      <trkpt lat="45.22847" lon="6.15534">
        <ele>1740</ele>
        <time>2021-02-27T12:58:17Z</time>
      </trkpt>
      <trkpt lat="45.22849" lon="6.15537">
        <ele>1740</ele>
        <time>2021-02-27T12:58:19Z</time>
      </trkpt>
      <trkpt lat="45.2285" lon="6.1554">
        <ele>1740.8</ele>
        <time>2021-02-27T12:58:21Z</time>
      </trkpt>
      <trkpt lat="45.22851" lon="6.15543">
        <ele>1740.8</ele>
        <time>2021-02-27T12:58:23Z</time>
      </trkpt>
      <trkpt lat="45.22853" lon="6.15545">
        <ele>1740.8</ele>
        <time>2021-02-27T12:58:25Z</time>
      </trkpt>
      <trkpt lat="45.22855" lon="6.15549">
        <ele>1740.8</ele>
        <time>2021-02-27T12:58:27Z</time>
      </trkpt>
      <trkpt lat="45.22857" lon="6.15551">
        <ele>1740.8</ele>
        <time>2021-02-27T12:58:29Z</time>
      </trkpt>
      <trkpt lat="45.22858" lon="6.15554">
        <ele>1741.8</ele>
        <time>2021-02-27T12:58:31Z</time>
      </trkpt>
      <trkpt lat="45.2286" lon="6.15558">
        <ele>1741.8</ele>
        <time>2021-02-27T12:58:32Z</time>
      </trkpt>
      <trkpt lat="45.22862" lon="6.1556">
        <ele>1741.8</ele>
        <time>2021-02-27T12:58:34Z</time>
      </trkpt>
      <trkpt lat="45.22863" lon="6.15562">
        <ele>1741.8</ele>
        <time>2021-02-27T12:58:36Z</time>
      </trkpt>
      <trkpt lat="45.22864" lon="6.15564">
        <ele>1741.8</ele>
        <time>2021-02-27T12:58:38Z</time>
      </trkpt>
      <trkpt lat="45.22865" lon="6.15566">
        <ele>1741.8</ele>
        <time>2021-02-27T12:58:40Z</time>
      </trkpt>
      <trkpt lat="45.22866" lon="6.15568">
        <ele>1743.2</ele>
        <time>2021-02-27T12:58:41Z</time>
      </trkpt>
      <trkpt lat="45.22868" lon="6.15572">
        <ele>1743.2</ele>
        <time>2021-02-27T12:58:42Z</time>
      </trkpt>
      <trkpt lat="45.2287" lon="6.15575">
        <ele>1743.2</ele>
        <time>2021-02-27T12:58:44Z</time>
      </trkpt>
      <trkpt lat="45.22871" lon="6.15577">
        <ele>1743.2</ele>
        <time>2021-02-27T12:58:46Z</time>
      </trkpt>
      <trkpt lat="45.22872" lon="6.15579">
        <ele>1743.2</ele>
        <time>2021-02-27T12:58:48Z</time>
      </trkpt>
      <trkpt lat="45.22873" lon="6.15581">
        <ele>1743.2</ele>
        <time>2021-02-27T12:58:50Z</time>
      </trkpt>
      <trkpt lat="45.22874" lon="6.15584">
        <ele>1744</ele>
        <time>2021-02-27T12:58:51Z</time>
      </trkpt>
      <trkpt lat="45.22876" lon="6.15587">
        <ele>1744</ele>
        <time>2021-02-27T12:58:52Z</time>
      </trkpt>
      <trkpt lat="45.22876" lon="6.15589">
        <ele>1744</ele>
        <time>2021-02-27T12:58:54Z</time>
      </trkpt>
      <trkpt lat="45.22877" lon="6.15591">
        <ele>1744</ele>
        <time>2021-02-27T12:58:56Z</time>
      </trkpt>
      <trkpt lat="45.22878" lon="6.15594">
        <ele>1744</ele>
        <time>2021-02-27T12:58:58Z</time>
      </trkpt>
      <trkpt lat="45.22878" lon="6.15596">
        <ele>1744</ele>
        <time>2021-02-27T12:59:00Z</time>
      </trkpt>
      <trkpt lat="45.22879" lon="6.15598">
        <ele>1745</ele>
        <time>2021-02-27T12:59:01Z</time>
      </trkpt>
      <trkpt lat="45.22881" lon="6.15602">
        <ele>1745</ele>
        <time>2021-02-27T12:59:02Z</time>
      </trkpt>
      <trkpt lat="45.22882" lon="6.15604">
        <ele>1745</ele>
        <time>2021-02-27T12:59:04Z</time>
      </trkpt>
      <trkpt lat="45.22883" lon="6.15607">
        <ele>1745</ele>
        <time>2021-02-27T12:59:06Z</time>
      </trkpt>
      <trkpt lat="45.22884" lon="6.15609">
        <ele>1745</ele>
        <time>2021-02-27T12:59:08Z</time>
      </trkpt>
      <trkpt lat="45.22885" lon="6.15612">
        <ele>1745</ele>
        <time>2021-02-27T12:59:10Z</time>
      </trkpt>
      <trkpt lat="45.22886" lon="6.15614">
        <ele>1745.8</ele>
        <time>2021-02-27T12:59:11Z</time>
      </trkpt>
      <trkpt lat="45.22888" lon="6.15618">
        <ele>1745.8</ele>
        <time>2021-02-27T12:59:12Z</time>
      </trkpt>
      <trkpt lat="45.22889" lon="6.15621">
        <ele>1745.8</ele>
        <time>2021-02-27T12:59:14Z</time>
      </trkpt>
      <trkpt lat="45.2289" lon="6.15623">
        <ele>1745.8</ele>
        <time>2021-02-27T12:59:16Z</time>
      </trkpt>
      <trkpt lat="45.22891" lon="6.15626">
        <ele>1745.8</ele>
        <time>2021-02-27T12:59:18Z</time>
      </trkpt>
      <trkpt lat="45.22892" lon="6.15628">
        <ele>1745.8</ele>
        <time>2021-02-27T12:59:20Z</time>
      </trkpt>
      <trkpt lat="45.22893" lon="6.15631">
        <ele>1747.4</ele>
        <time>2021-02-27T12:59:21Z</time>
      </trkpt>
      <trkpt lat="45.22895" lon="6.15634">
        <ele>1747.4</ele>
        <time>2021-02-27T12:59:22Z</time>
      </trkpt>
      <trkpt lat="45.22897" lon="6.15636">
        <ele>1747.4</ele>
        <time>2021-02-27T12:59:24Z</time>
      </trkpt>
      <trkpt lat="45.22898" lon="6.15638">
        <ele>1747.4</ele>
        <time>2021-02-27T12:59:26Z</time>
      </trkpt>
      <trkpt lat="45.22899" lon="6.1564">
        <ele>1747.4</ele>
        <time>2021-02-27T12:59:28Z</time>
      </trkpt>
      <trkpt lat="45.22901" lon="6.15642">
        <ele>1747.4</ele>
        <time>2021-02-27T12:59:30Z</time>
      </trkpt>
      <trkpt lat="45.22902" lon="6.15644">
        <ele>1748.4</ele>
        <time>2021-02-27T12:59:31Z</time>
      </trkpt>
      <trkpt lat="45.22904" lon="6.15647">
        <ele>1748.4</ele>
        <time>2021-02-27T12:59:32Z</time>
      </trkpt>
      <trkpt lat="45.22906" lon="6.15649">
        <ele>1748.4</ele>
        <time>2021-02-27T12:59:34Z</time>
      </trkpt>
      <trkpt lat="45.22907" lon="6.15651">
        <ele>1748.4</ele>
        <time>2021-02-27T12:59:36Z</time>
      </trkpt>
      <trkpt lat="45.22908" lon="6.15653">
        <ele>1748.4</ele>
        <time>2021-02-27T12:59:38Z</time>
      </trkpt>
      <trkpt lat="45.2291" lon="6.15654">
        <ele>1748.4</ele>
        <time>2021-02-27T12:59:40Z</time>
      </trkpt>
      <trkpt lat="45.22911" lon="6.15656">
        <ele>1749.8</ele>
        <time>2021-02-27T12:59:41Z</time>
      </trkpt>
      <trkpt lat="45.22913" lon="6.15659">
        <ele>1749.8</ele>
        <time>2021-02-27T12:59:42Z</time>
      </trkpt>
      <trkpt lat="45.22914" lon="6.15661">
        <ele>1749.8</ele>
        <time>2021-02-27T12:59:44Z</time>
      </trkpt>
      <trkpt lat="45.22916" lon="6.15663">
        <ele>1749.8</ele>
        <time>2021-02-27T12:59:46Z</time>
      </trkpt>
      <trkpt lat="45.22917" lon="6.15665">
        <ele>1749.8</ele>
        <time>2021-02-27T12:59:48Z</time>
      </trkpt>
      <trkpt lat="45.22918" lon="6.15667">
        <ele>1749.8</ele>
        <time>2021-02-27T12:59:50Z</time>
      </trkpt>
      <trkpt lat="45.2292" lon="6.15669">
        <ele>1750.2</ele>
        <time>2021-02-27T12:59:51Z</time>
      </trkpt>
      <trkpt lat="45.22921" lon="6.15673">
        <ele>1750.2</ele>
        <time>2021-02-27T12:59:52Z</time>
      </trkpt>
      <trkpt lat="45.22922" lon="6.15675">
        <ele>1750.2</ele>
        <time>2021-02-27T12:59:54Z</time>
      </trkpt>
      <trkpt lat="45.22923" lon="6.15676">
        <ele>1750.2</ele>
        <time>2021-02-27T12:59:56Z</time>
      </trkpt>
      <trkpt lat="45.22924" lon="6.15678">
        <ele>1750.2</ele>
        <time>2021-02-27T12:59:58Z</time>
      </trkpt>
      <trkpt lat="45.22925" lon="6.1568">
        <ele>1750.2</ele>
        <time>2021-02-27T13:00:00Z</time>
      </trkpt>
      <trkpt lat="45.22926" lon="6.15682">
        <ele>1751.4</ele>
        <time>2021-02-27T13:00:01Z</time>
      </trkpt>
      <trkpt lat="45.22927" lon="6.15684">
        <ele>1751.4</ele>
        <time>2021-02-27T13:00:02Z</time>
      </trkpt>
      <trkpt lat="45.22929" lon="6.15687">
        <ele>1751.4</ele>
        <time>2021-02-27T13:00:04Z</time>
      </trkpt>
      <trkpt lat="45.22931" lon="6.1569">
        <ele>1751.4</ele>
        <time>2021-02-27T13:00:06Z</time>
      </trkpt>
      <trkpt lat="45.22933" lon="6.15692">
        <ele>1751.4</ele>
        <time>2021-02-27T13:00:08Z</time>
      </trkpt>
      <trkpt lat="45.22935" lon="6.15695">
        <ele>1752</ele>
        <time>2021-02-27T13:00:11Z</time>
      </trkpt>
      <trkpt lat="45.22937" lon="6.15697">
        <ele>1752</ele>
        <time>2021-02-27T13:00:13Z</time>
      </trkpt>
      <trkpt lat="45.22938" lon="6.15699">
        <ele>1752</ele>
        <time>2021-02-27T13:00:15Z</time>
      </trkpt>
      <trkpt lat="45.22939" lon="6.15701">
        <ele>1752</ele>
        <time>2021-02-27T13:00:17Z</time>
      </trkpt>
      <trkpt lat="45.22941" lon="6.15704">
        <ele>1752</ele>
        <time>2021-02-27T13:00:19Z</time>
      </trkpt>
      <trkpt lat="45.22942" lon="6.15707">
        <ele>1753.4</ele>
        <time>2021-02-27T13:00:21Z</time>
      </trkpt>
      <trkpt lat="45.22944" lon="6.1571">
        <ele>1753.4</ele>
        <time>2021-02-27T13:00:23Z</time>
      </trkpt>
      <trkpt lat="45.22946" lon="6.15712">
        <ele>1753.4</ele>
        <time>2021-02-27T13:00:25Z</time>
      </trkpt>
      <trkpt lat="45.22948" lon="6.15715">
        <ele>1753.4</ele>
        <time>2021-02-27T13:00:27Z</time>
      </trkpt>
      <trkpt lat="45.2295" lon="6.15718">
        <ele>1753.4</ele>
        <time>2021-02-27T13:00:29Z</time>
      </trkpt>
      <trkpt lat="45.22951" lon="6.1572">
        <ele>1754.2</ele>
        <time>2021-02-27T13:00:31Z</time>
      </trkpt>
      <trkpt lat="45.22953" lon="6.15723">
        <ele>1754.2</ele>
        <time>2021-02-27T13:00:33Z</time>
      </trkpt>
      <trkpt lat="45.22954" lon="6.15725">
        <ele>1754.2</ele>
        <time>2021-02-27T13:00:35Z</time>
      </trkpt>
      <trkpt lat="45.22955" lon="6.15728">
        <ele>1754.2</ele>
        <time>2021-02-27T13:00:37Z</time>
      </trkpt>
      <trkpt lat="45.22957" lon="6.15731">
        <ele>1754.2</ele>
        <time>2021-02-27T13:00:39Z</time>
      </trkpt>
      <trkpt lat="45.22958" lon="6.15735">
        <ele>1755.4</ele>
        <time>2021-02-27T13:00:41Z</time>
      </trkpt>
      <trkpt lat="45.22959" lon="6.15738">
        <ele>1755.4</ele>
        <time>2021-02-27T13:00:43Z</time>
      </trkpt>
      <trkpt lat="45.22959" lon="6.15742">
        <ele>1755.4</ele>
        <time>2021-02-27T13:00:45Z</time>
      </trkpt>
      <trkpt lat="45.22961" lon="6.15745">
        <ele>1755.4</ele>
        <time>2021-02-27T13:00:47Z</time>
      </trkpt>
      <trkpt lat="45.22963" lon="6.15748">
        <ele>1755.4</ele>
        <time>2021-02-27T13:00:49Z</time>
      </trkpt>
      <trkpt lat="45.22964" lon="6.15751">
        <ele>1755.8</ele>
        <time>2021-02-27T13:00:51Z</time>
      </trkpt>
      <trkpt lat="45.22966" lon="6.15753">
        <ele>1755.8</ele>
        <time>2021-02-27T13:00:53Z</time>
      </trkpt>
      <trkpt lat="45.22967" lon="6.15756">
        <ele>1755.8</ele>
        <time>2021-02-27T13:00:55Z</time>
      </trkpt>
      <trkpt lat="45.22968" lon="6.15759">
        <ele>1755.8</ele>
        <time>2021-02-27T13:00:57Z</time>
      </trkpt>
      <trkpt lat="45.22969" lon="6.15763">
        <ele>1755.8</ele>
        <time>2021-02-27T13:00:59Z</time>
      </trkpt>
      <trkpt lat="45.2297" lon="6.15766">
        <ele>1757.2</ele>
        <time>2021-02-27T13:01:01Z</time>
      </trkpt>
      <trkpt lat="45.22971" lon="6.15769">
        <ele>1757.2</ele>
        <time>2021-02-27T13:01:03Z</time>
      </trkpt>
      <trkpt lat="45.22971" lon="6.15772">
        <ele>1757.2</ele>
        <time>2021-02-27T13:01:05Z</time>
      </trkpt>
      <trkpt lat="45.22972" lon="6.15776">
        <ele>1757.2</ele>
        <time>2021-02-27T13:01:07Z</time>
      </trkpt>
      <trkpt lat="45.22973" lon="6.15779">
        <ele>1757.2</ele>
        <time>2021-02-27T13:01:09Z</time>
      </trkpt>
      <trkpt lat="45.22974" lon="6.15782">
        <ele>1758.4</ele>
        <time>2021-02-27T13:01:11Z</time>
      </trkpt>
      <trkpt lat="45.22974" lon="6.15786">
        <ele>1758.4</ele>
        <time>2021-02-27T13:01:13Z</time>
      </trkpt>
      <trkpt lat="45.22975" lon="6.15789">
        <ele>1758.4</ele>
        <time>2021-02-27T13:01:15Z</time>
      </trkpt>
      <trkpt lat="45.22976" lon="6.15792">
        <ele>1758.4</ele>
        <time>2021-02-27T13:01:17Z</time>
      </trkpt>
      <trkpt lat="45.22976" lon="6.15795">
        <ele>1758.4</ele>
        <time>2021-02-27T13:01:19Z</time>
      </trkpt>
      <trkpt lat="45.22977" lon="6.15799">
        <ele>1760</ele>
        <time>2021-02-27T13:01:21Z</time>
      </trkpt>
      <trkpt lat="45.22977" lon="6.15802">
        <ele>1760</ele>
        <time>2021-02-27T13:01:23Z</time>
      </trkpt>
      <trkpt lat="45.22978" lon="6.15805">
        <ele>1760</ele>
        <time>2021-02-27T13:01:25Z</time>
      </trkpt>
      <trkpt lat="45.22979" lon="6.15808">
        <ele>1760</ele>
        <time>2021-02-27T13:01:27Z</time>
      </trkpt>
      <trkpt lat="45.2298" lon="6.15812">
        <ele>1760</ele>
        <time>2021-02-27T13:01:29Z</time>
      </trkpt>
      <trkpt lat="45.2298" lon="6.15816">
        <ele>1761.2</ele>
        <time>2021-02-27T13:01:31Z</time>
      </trkpt>
      <trkpt lat="45.22981" lon="6.15819">
        <ele>1761.2</ele>
        <time>2021-02-27T13:01:33Z</time>
      </trkpt>
      <trkpt lat="45.22982" lon="6.15822">
        <ele>1761.2</ele>
        <time>2021-02-27T13:01:35Z</time>
      </trkpt>
      <trkpt lat="45.22982" lon="6.15826">
        <ele>1761.2</ele>
        <time>2021-02-27T13:01:37Z</time>
      </trkpt>
      <trkpt lat="45.22983" lon="6.1583">
        <ele>1761.2</ele>
        <time>2021-02-27T13:01:39Z</time>
      </trkpt>
      <trkpt lat="45.22984" lon="6.15834">
        <ele>1762.8</ele>
        <time>2021-02-27T13:01:41Z</time>
      </trkpt>
      <trkpt lat="45.22985" lon="6.15837">
        <ele>1762.8</ele>
        <time>2021-02-27T13:01:43Z</time>
      </trkpt>
      <trkpt lat="45.22987" lon="6.15841">
        <ele>1762.8</ele>
        <time>2021-02-27T13:01:45Z</time>
      </trkpt>
      <trkpt lat="45.22988" lon="6.15843">
        <ele>1762.8</ele>
        <time>2021-02-27T13:01:47Z</time>
      </trkpt>
      <trkpt lat="45.22989" lon="6.15846">
        <ele>1762.8</ele>
        <time>2021-02-27T13:01:49Z</time>
      </trkpt>
      <trkpt lat="45.22991" lon="6.15849">
        <ele>1763.8</ele>
        <time>2021-02-27T13:01:51Z</time>
      </trkpt>
      <trkpt lat="45.22992" lon="6.15852">
        <ele>1763.8</ele>
        <time>2021-02-27T13:01:53Z</time>
      </trkpt>
      <trkpt lat="45.22993" lon="6.15855">
        <ele>1763.8</ele>
        <time>2021-02-27T13:01:55Z</time>
      </trkpt>
      <trkpt lat="45.22994" lon="6.15857">
        <ele>1763.8</ele>
        <time>2021-02-27T13:01:57Z</time>
      </trkpt>
      <trkpt lat="45.22995" lon="6.1586">
        <ele>1763.8</ele>
        <time>2021-02-27T13:01:59Z</time>
      </trkpt>
      <trkpt lat="45.22996" lon="6.15864">
        <ele>1764.6</ele>
        <time>2021-02-27T13:02:01Z</time>
      </trkpt>
      <trkpt lat="45.22998" lon="6.15867">
        <ele>1764.6</ele>
        <time>2021-02-27T13:02:03Z</time>
      </trkpt>
      <trkpt lat="45.22999" lon="6.1587">
        <ele>1764.6</ele>
        <time>2021-02-27T13:02:05Z</time>
      </trkpt>
      <trkpt lat="45.23" lon="6.15874">
        <ele>1764.6</ele>
        <time>2021-02-27T13:02:07Z</time>
      </trkpt>
      <trkpt lat="45.23001" lon="6.15878">
        <ele>1764.6</ele>
        <time>2021-02-27T13:02:09Z</time>
      </trkpt>
      <trkpt lat="45.23002" lon="6.15881">
        <ele>1765.2</ele>
        <time>2021-02-27T13:02:11Z</time>
      </trkpt>
      <trkpt lat="45.23004" lon="6.15885">
        <ele>1765.2</ele>
        <time>2021-02-27T13:02:13Z</time>
      </trkpt>
      <trkpt lat="45.23005" lon="6.15887">
        <ele>1765.2</ele>
        <time>2021-02-27T13:02:15Z</time>
      </trkpt>
      <trkpt lat="45.23005" lon="6.15891">
        <ele>1765.2</ele>
        <time>2021-02-27T13:02:17Z</time>
      </trkpt>
      <trkpt lat="45.23006" lon="6.15894">
        <ele>1765.2</ele>
        <time>2021-02-27T13:02:19Z</time>
      </trkpt>
      <trkpt lat="45.23008" lon="6.15896">
        <ele>1766.8</ele>
        <time>2021-02-27T13:02:21Z</time>
      </trkpt>
      <trkpt lat="45.2301" lon="6.159">
        <ele>1766.8</ele>
        <time>2021-02-27T13:02:23Z</time>
      </trkpt>
      <trkpt lat="45.23012" lon="6.15903">
        <ele>1766.8</ele>
        <time>2021-02-27T13:02:25Z</time>
      </trkpt>
      <trkpt lat="45.23013" lon="6.15906">
        <ele>1766.8</ele>
        <time>2021-02-27T13:02:27Z</time>
      </trkpt>
      <trkpt lat="45.23014" lon="6.15909">
        <ele>1766.8</ele>
        <time>2021-02-27T13:02:29Z</time>
      </trkpt>
      <trkpt lat="45.23016" lon="6.15912">
        <ele>1767.4</ele>
        <time>2021-02-27T13:02:31Z</time>
      </trkpt>
      <trkpt lat="45.23018" lon="6.15913">
        <ele>1767.4</ele>
        <time>2021-02-27T13:02:33Z</time>
      </trkpt>
      <trkpt lat="45.2302" lon="6.15917">
        <ele>1767.4</ele>
        <time>2021-02-27T13:02:35Z</time>
      </trkpt>
      <trkpt lat="45.23021" lon="6.1592">
        <ele>1767.4</ele>
        <time>2021-02-27T13:02:37Z</time>
      </trkpt>
      <trkpt lat="45.23022" lon="6.15922">
        <ele>1767.4</ele>
        <time>2021-02-27T13:02:39Z</time>
      </trkpt>
      <trkpt lat="45.23023" lon="6.15925">
        <ele>1768.8</ele>
        <time>2021-02-27T13:02:41Z</time>
      </trkpt>
      <trkpt lat="45.23024" lon="6.15928">
        <ele>1768.8</ele>
        <time>2021-02-27T13:02:43Z</time>
      </trkpt>
      <trkpt lat="45.23026" lon="6.1593">
        <ele>1768.8</ele>
        <time>2021-02-27T13:02:45Z</time>
      </trkpt>
      <trkpt lat="45.23028" lon="6.15932">
        <ele>1768.8</ele>
        <time>2021-02-27T13:02:47Z</time>
      </trkpt>
      <trkpt lat="45.23029" lon="6.15934">
        <ele>1768.8</ele>
        <time>2021-02-27T13:02:49Z</time>
      </trkpt>
      <trkpt lat="45.2303" lon="6.15936">
        <ele>1769.4</ele>
        <time>2021-02-27T13:02:51Z</time>
      </trkpt>
      <trkpt lat="45.23032" lon="6.15939">
        <ele>1769.4</ele>
        <time>2021-02-27T13:02:53Z</time>
      </trkpt>
      <trkpt lat="45.23034" lon="6.1594">
        <ele>1769.4</ele>
        <time>2021-02-27T13:02:56Z</time>
      </trkpt>
      <trkpt lat="45.23037" lon="6.15941">
        <ele>1769.4</ele>
        <time>2021-02-27T13:02:58Z</time>
      </trkpt>
      <trkpt lat="45.23039" lon="6.15943">
        <ele>1770.4</ele>
        <time>2021-02-27T13:03:01Z</time>
      </trkpt>
      <trkpt lat="45.23042" lon="6.15946">
        <ele>1770.4</ele>
        <time>2021-02-27T13:03:03Z</time>
      </trkpt>
      <trkpt lat="45.23043" lon="6.15947">
        <ele>1770.4</ele>
        <time>2021-02-27T13:03:05Z</time>
      </trkpt>
      <trkpt lat="45.23045" lon="6.15948">
        <ele>1770.4</ele>
        <time>2021-02-27T13:03:07Z</time>
      </trkpt>
      <trkpt lat="45.23047" lon="6.15949">
        <ele>1770.4</ele>
        <time>2021-02-27T13:03:10Z</time>
      </trkpt>
      <trkpt lat="45.23048" lon="6.1595">
        <ele>1770.8</ele>
        <time>2021-02-27T13:03:11Z</time>
      </trkpt>
      <trkpt lat="45.23049" lon="6.15951">
        <ele>1770.8</ele>
        <time>2021-02-27T13:03:12Z</time>
      </trkpt>
      <trkpt lat="45.23051" lon="6.15953">
        <ele>1770.8</ele>
        <time>2021-02-27T13:03:14Z</time>
      </trkpt>
      <trkpt lat="45.23053" lon="6.15955">
        <ele>1770.8</ele>
        <time>2021-02-27T13:03:17Z</time>
      </trkpt>
      <trkpt lat="45.23054" lon="6.15957">
        <ele>1770.8</ele>
        <time>2021-02-27T13:03:19Z</time>
      </trkpt>
      <trkpt lat="45.23056" lon="6.15958">
        <ele>1770.4</ele>
        <time>2021-02-27T13:03:21Z</time>
      </trkpt>
      <trkpt lat="45.23059" lon="6.15961">
        <ele>1770.4</ele>
        <time>2021-02-27T13:03:23Z</time>
      </trkpt>
      <trkpt lat="45.23061" lon="6.15963">
        <ele>1770.4</ele>
        <time>2021-02-27T13:03:25Z</time>
      </trkpt>
      <trkpt lat="45.23062" lon="6.15965">
        <ele>1770.4</ele>
        <time>2021-02-27T13:03:28Z</time>
      </trkpt>
      <trkpt lat="45.23064" lon="6.15967">
        <ele>1770.4</ele>
        <time>2021-02-27T13:03:30Z</time>
      </trkpt>
      <trkpt lat="45.23065" lon="6.15969">
        <ele>1770.6</ele>
        <time>2021-02-27T13:03:31Z</time>
      </trkpt>
      <trkpt lat="45.23067" lon="6.15971">
        <ele>1770.6</ele>
        <time>2021-02-27T13:03:32Z</time>
      </trkpt>
      <trkpt lat="45.23069" lon="6.15973">
        <ele>1770.6</ele>
        <time>2021-02-27T13:03:34Z</time>
      </trkpt>
      <trkpt lat="45.2307" lon="6.15975">
        <ele>1770.6</ele>
        <time>2021-02-27T13:03:36Z</time>
      </trkpt>
      <trkpt lat="45.23071" lon="6.15977">
        <ele>1770.6</ele>
        <time>2021-02-27T13:03:38Z</time>
      </trkpt>
      <trkpt lat="45.23072" lon="6.15979">
        <ele>1770.6</ele>
        <time>2021-02-27T13:03:40Z</time>
      </trkpt>
      <trkpt lat="45.23074" lon="6.1598">
        <ele>1770.8</ele>
        <time>2021-02-27T13:03:41Z</time>
      </trkpt>
      <trkpt lat="45.23075" lon="6.15985">
        <ele>1770.8</ele>
        <time>2021-02-27T13:03:42Z</time>
      </trkpt>
      <trkpt lat="45.23075" lon="6.15987">
        <ele>1770.8</ele>
        <time>2021-02-27T13:03:44Z</time>
      </trkpt>
      <trkpt lat="45.23076" lon="6.15989">
        <ele>1770.8</ele>
        <time>2021-02-27T13:03:46Z</time>
      </trkpt>
      <trkpt lat="45.23077" lon="6.15992">
        <ele>1770.8</ele>
        <time>2021-02-27T13:03:48Z</time>
      </trkpt>
      <trkpt lat="45.23078" lon="6.15994">
        <ele>1770.8</ele>
        <time>2021-02-27T13:03:50Z</time>
      </trkpt>
      <trkpt lat="45.23079" lon="6.15997">
        <ele>1772.2</ele>
        <time>2021-02-27T13:03:51Z</time>
      </trkpt>
      <trkpt lat="45.23081" lon="6.16002">
        <ele>1772.2</ele>
        <time>2021-02-27T13:03:52Z</time>
      </trkpt>
      <trkpt lat="45.23082" lon="6.16005">
        <ele>1772.2</ele>
        <time>2021-02-27T13:03:53Z</time>
      </trkpt>
      <trkpt lat="45.23083" lon="6.16007">
        <ele>1772.2</ele>
        <time>2021-02-27T13:03:55Z</time>
      </trkpt>
      <trkpt lat="45.23084" lon="6.1601">
        <ele>1772.2</ele>
        <time>2021-02-27T13:03:57Z</time>
      </trkpt>
      <trkpt lat="45.23085" lon="6.16013">
        <ele>1772.2</ele>
        <time>2021-02-27T13:03:58Z</time>
      </trkpt>
      <trkpt lat="45.23086" lon="6.16015">
        <ele>1772.2</ele>
        <time>2021-02-27T13:03:59Z</time>
      </trkpt>
      <trkpt lat="45.23087" lon="6.16018">
        <ele>1774</ele>
        <time>2021-02-27T13:04:01Z</time>
      </trkpt>
      <trkpt lat="45.2309" lon="6.16022">
        <ele>1774</ele>
        <time>2021-02-27T13:04:03Z</time>
      </trkpt>
      <trkpt lat="45.23092" lon="6.16024">
        <ele>1774</ele>
        <time>2021-02-27T13:04:05Z</time>
      </trkpt>
      <trkpt lat="45.23093" lon="6.16025">
        <ele>1774</ele>
        <time>2021-02-27T13:04:07Z</time>
      </trkpt>
      <trkpt lat="45.23094" lon="6.16027">
        <ele>1774</ele>
        <time>2021-02-27T13:04:08Z</time>
      </trkpt>
      <trkpt lat="45.23095" lon="6.16029">
        <ele>1774</ele>
        <time>2021-02-27T13:04:10Z</time>
      </trkpt>
      <trkpt lat="45.23096" lon="6.16031">
        <ele>1774.2</ele>
        <time>2021-02-27T13:04:11Z</time>
      </trkpt>
      <trkpt lat="45.23097" lon="6.16032">
        <ele>1774.2</ele>
        <time>2021-02-27T13:04:12Z</time>
      </trkpt>
      <trkpt lat="45.23099" lon="6.16036">
        <ele>1774.2</ele>
        <time>2021-02-27T13:04:14Z</time>
      </trkpt>
      <trkpt lat="45.231" lon="6.16039">
        <ele>1774.2</ele>
        <time>2021-02-27T13:04:17Z</time>
      </trkpt>
      <trkpt lat="45.23102" lon="6.16042">
        <ele>1774.2</ele>
        <time>2021-02-27T13:04:19Z</time>
      </trkpt>
      <trkpt lat="45.23103" lon="6.16044">
        <ele>1774</ele>
        <time>2021-02-27T13:04:21Z</time>
      </trkpt>
      <trkpt lat="45.23105" lon="6.16047">
        <ele>1774</ele>
        <time>2021-02-27T13:04:23Z</time>
      </trkpt>
      <trkpt lat="45.23106" lon="6.16051">
        <ele>1774</ele>
        <time>2021-02-27T13:04:25Z</time>
      </trkpt>
      <trkpt lat="45.23108" lon="6.16054">
        <ele>1774</ele>
        <time>2021-02-27T13:04:27Z</time>
      </trkpt>
      <trkpt lat="45.23111" lon="6.16057">
        <ele>1774</ele>
        <time>2021-02-27T13:04:29Z</time>
      </trkpt>
      <trkpt lat="45.23113" lon="6.1606">
        <ele>1775.4</ele>
        <time>2021-02-27T13:04:31Z</time>
      </trkpt>
      <trkpt lat="45.23114" lon="6.16063">
        <ele>1775.4</ele>
        <time>2021-02-27T13:04:33Z</time>
      </trkpt>
      <trkpt lat="45.23116" lon="6.16066">
        <ele>1775.4</ele>
        <time>2021-02-27T13:04:35Z</time>
      </trkpt>
      <trkpt lat="45.23118" lon="6.16068">
        <ele>1775.4</ele>
        <time>2021-02-27T13:04:37Z</time>
      </trkpt>
      <trkpt lat="45.2312" lon="6.16071">
        <ele>1775.4</ele>
        <time>2021-02-27T13:04:39Z</time>
      </trkpt>
      <trkpt lat="45.2312" lon="6.16071">
        <ele>1777</ele>
        <time>2021-02-27T13:04:41Z</time>
      </trkpt>
      <trkpt lat="45.23122" lon="6.16077">
        <ele>1777</ele>
        <time>2021-02-27T13:04:42Z</time>
      </trkpt>
      <trkpt lat="45.23123" lon="6.1608">
        <ele>1777</ele>
        <time>2021-02-27T13:04:44Z</time>
      </trkpt>
      <trkpt lat="45.23125" lon="6.16082">
        <ele>1777</ele>
        <time>2021-02-27T13:04:46Z</time>
      </trkpt>
      <trkpt lat="45.23126" lon="6.16085">
        <ele>1777</ele>
        <time>2021-02-27T13:04:48Z</time>
      </trkpt>
      <trkpt lat="45.23127" lon="6.16087">
        <ele>1777</ele>
        <time>2021-02-27T13:04:50Z</time>
      </trkpt>
      <trkpt lat="45.23128" lon="6.1609">
        <ele>1777.2</ele>
        <time>2021-02-27T13:04:51Z</time>
      </trkpt>
      <trkpt lat="45.2313" lon="6.16093">
        <ele>1777.2</ele>
        <time>2021-02-27T13:04:52Z</time>
      </trkpt>
      <trkpt lat="45.23131" lon="6.16095">
        <ele>1777.2</ele>
        <time>2021-02-27T13:04:54Z</time>
      </trkpt>
      <trkpt lat="45.23132" lon="6.16097">
        <ele>1777.2</ele>
        <time>2021-02-27T13:04:56Z</time>
      </trkpt>
      <trkpt lat="45.23133" lon="6.16099">
        <ele>1777.2</ele>
        <time>2021-02-27T13:04:58Z</time>
      </trkpt>
      <trkpt lat="45.23134" lon="6.16101">
        <ele>1777.2</ele>
        <time>2021-02-27T13:05:00Z</time>
      </trkpt>
      <trkpt lat="45.23135" lon="6.16103">
        <ele>1778</ele>
        <time>2021-02-27T13:05:01Z</time>
      </trkpt>
      <trkpt lat="45.23136" lon="6.16104">
        <ele>1778</ele>
        <time>2021-02-27T13:05:02Z</time>
      </trkpt>
      <trkpt lat="45.23137" lon="6.16107">
        <ele>1778</ele>
        <time>2021-02-27T13:05:04Z</time>
      </trkpt>
      <trkpt lat="45.23139" lon="6.1611">
        <ele>1778</ele>
        <time>2021-02-27T13:05:07Z</time>
      </trkpt>
      <trkpt lat="45.23141" lon="6.16112">
        <ele>1778</ele>
        <time>2021-02-27T13:05:09Z</time>
      </trkpt>
      <trkpt lat="45.23141" lon="6.16114">
        <ele>1779</ele>
        <time>2021-02-27T13:05:11Z</time>
      </trkpt>
      <trkpt lat="45.23145" lon="6.16117">
        <ele>1779</ele>
        <time>2021-02-27T13:05:12Z</time>
      </trkpt>
      <trkpt lat="45.23146" lon="6.16119">
        <ele>1779</ele>
        <time>2021-02-27T13:05:14Z</time>
      </trkpt>
      <trkpt lat="45.23148" lon="6.16121">
        <ele>1779</ele>
        <time>2021-02-27T13:05:16Z</time>
      </trkpt>
      <trkpt lat="45.23149" lon="6.16123">
        <ele>1779</ele>
        <time>2021-02-27T13:05:18Z</time>
      </trkpt>
      <trkpt lat="45.23151" lon="6.16125">
        <ele>1779</ele>
        <time>2021-02-27T13:05:20Z</time>
      </trkpt>
      <trkpt lat="45.23152" lon="6.16127">
        <ele>1781.6</ele>
        <time>2021-02-27T13:05:21Z</time>
      </trkpt>
      <trkpt lat="45.23153" lon="6.16128">
        <ele>1781.6</ele>
        <time>2021-02-27T13:05:22Z</time>
      </trkpt>
      <trkpt lat="45.23155" lon="6.1613">
        <ele>1781.6</ele>
        <time>2021-02-27T13:05:24Z</time>
      </trkpt>
      <trkpt lat="45.23157" lon="6.16132">
        <ele>1781.6</ele>
        <time>2021-02-27T13:05:26Z</time>
      </trkpt>
      <trkpt lat="45.23159" lon="6.16133">
        <ele>1781.6</ele>
        <time>2021-02-27T13:05:27Z</time>
      </trkpt>
      <trkpt lat="45.23161" lon="6.16135">
        <ele>1781.6</ele>
        <time>2021-02-27T13:05:29Z</time>
      </trkpt>
      <trkpt lat="45.23165" lon="6.16137">
        <ele>1781.8</ele>
        <time>2021-02-27T13:05:31Z</time>
      </trkpt>
      <trkpt lat="45.23166" lon="6.16139">
        <ele>1781.8</ele>
        <time>2021-02-27T13:05:33Z</time>
      </trkpt>
      <trkpt lat="45.23167" lon="6.16142">
        <ele>1781.8</ele>
        <time>2021-02-27T13:05:35Z</time>
      </trkpt>
      <trkpt lat="45.23169" lon="6.16145">
        <ele>1781.8</ele>
        <time>2021-02-27T13:05:37Z</time>
      </trkpt>
      <trkpt lat="45.23172" lon="6.16147">
        <ele>1781.8</ele>
        <time>2021-02-27T13:05:39Z</time>
      </trkpt>
      <trkpt lat="45.23173" lon="6.1615">
        <ele>1783</ele>
        <time>2021-02-27T13:05:41Z</time>
      </trkpt>
      <trkpt lat="45.23175" lon="6.16154">
        <ele>1783</ele>
        <time>2021-02-27T13:05:43Z</time>
      </trkpt>
      <trkpt lat="45.23176" lon="6.16157">
        <ele>1783</ele>
        <time>2021-02-27T13:05:45Z</time>
      </trkpt>
      <trkpt lat="45.23177" lon="6.1616">
        <ele>1783</ele>
        <time>2021-02-27T13:05:47Z</time>
      </trkpt>
      <trkpt lat="45.23179" lon="6.16164">
        <ele>1783</ele>
        <time>2021-02-27T13:05:49Z</time>
      </trkpt>
      <trkpt lat="45.2318" lon="6.16167">
        <ele>1784.8</ele>
        <time>2021-02-27T13:05:51Z</time>
      </trkpt>
      <trkpt lat="45.23181" lon="6.1617">
        <ele>1784.8</ele>
        <time>2021-02-27T13:05:53Z</time>
      </trkpt>
      <trkpt lat="45.23181" lon="6.16173">
        <ele>1784.8</ele>
        <time>2021-02-27T13:05:55Z</time>
      </trkpt>
      <trkpt lat="45.23182" lon="6.16177">
        <ele>1784.8</ele>
        <time>2021-02-27T13:05:57Z</time>
      </trkpt>
      <trkpt lat="45.23183" lon="6.1618">
        <ele>1784.8</ele>
        <time>2021-02-27T13:05:59Z</time>
      </trkpt>
      <trkpt lat="45.23184" lon="6.16183">
        <ele>1786.2</ele>
        <time>2021-02-27T13:06:01Z</time>
      </trkpt>
      <trkpt lat="45.23185" lon="6.16186">
        <ele>1786.2</ele>
        <time>2021-02-27T13:06:03Z</time>
      </trkpt>
      <trkpt lat="45.23187" lon="6.16189">
        <ele>1786.2</ele>
        <time>2021-02-27T13:06:05Z</time>
      </trkpt>
      <trkpt lat="45.23187" lon="6.16192">
        <ele>1786.2</ele>
        <time>2021-02-27T13:06:07Z</time>
      </trkpt>
      <trkpt lat="45.23189" lon="6.16196">
        <ele>1786.2</ele>
        <time>2021-02-27T13:06:09Z</time>
      </trkpt>
      <trkpt lat="45.23189" lon="6.16199">
        <ele>1786.8</ele>
        <time>2021-02-27T13:06:11Z</time>
      </trkpt>
      <trkpt lat="45.23191" lon="6.16202">
        <ele>1786.8</ele>
        <time>2021-02-27T13:06:13Z</time>
      </trkpt>
      <trkpt lat="45.23191" lon="6.16205">
        <ele>1786.8</ele>
        <time>2021-02-27T13:06:15Z</time>
      </trkpt>
      <trkpt lat="45.23191" lon="6.16208">
        <ele>1786.8</ele>
        <time>2021-02-27T13:06:17Z</time>
      </trkpt>
      <trkpt lat="45.23192" lon="6.16211">
        <ele>1786.8</ele>
        <time>2021-02-27T13:06:19Z</time>
      </trkpt>
      <trkpt lat="45.23193" lon="6.16215">
        <ele>1787.8</ele>
        <time>2021-02-27T13:06:21Z</time>
      </trkpt>
      <trkpt lat="45.23194" lon="6.1622">
        <ele>1787.8</ele>
        <time>2021-02-27T13:06:23Z</time>
      </trkpt>
      <trkpt lat="45.23195" lon="6.16223">
        <ele>1787.8</ele>
        <time>2021-02-27T13:06:25Z</time>
      </trkpt>
      <trkpt lat="45.23195" lon="6.16225">
        <ele>1787.8</ele>
        <time>2021-02-27T13:06:27Z</time>
      </trkpt>
      <trkpt lat="45.23196" lon="6.16227">
        <ele>1787.8</ele>
        <time>2021-02-27T13:06:28Z</time>
      </trkpt>
      <trkpt lat="45.23197" lon="6.1623">
        <ele>1787.8</ele>
        <time>2021-02-27T13:06:30Z</time>
      </trkpt>
      <trkpt lat="45.23197" lon="6.16232">
        <ele>1789.2</ele>
        <time>2021-02-27T13:06:31Z</time>
      </trkpt>
      <trkpt lat="45.23198" lon="6.16236">
        <ele>1789.2</ele>
        <time>2021-02-27T13:06:32Z</time>
      </trkpt>
      <trkpt lat="45.23198" lon="6.16238">
        <ele>1789.2</ele>
        <time>2021-02-27T13:06:34Z</time>
      </trkpt>
      <trkpt lat="45.23199" lon="6.16241">
        <ele>1789.2</ele>
        <time>2021-02-27T13:06:36Z</time>
      </trkpt>
      <trkpt lat="45.23199" lon="6.16243">
        <ele>1789.2</ele>
        <time>2021-02-27T13:06:38Z</time>
      </trkpt>
      <trkpt lat="45.232" lon="6.16246">
        <ele>1789.2</ele>
        <time>2021-02-27T13:06:40Z</time>
      </trkpt>
      <trkpt lat="45.232" lon="6.16248">
        <ele>1790.2</ele>
        <time>2021-02-27T13:06:41Z</time>
      </trkpt>
      <trkpt lat="45.23201" lon="6.16253">
        <ele>1790.2</ele>
        <time>2021-02-27T13:06:42Z</time>
      </trkpt>
      <trkpt lat="45.23201" lon="6.16255">
        <ele>1790.2</ele>
        <time>2021-02-27T13:06:44Z</time>
      </trkpt>
      <trkpt lat="45.23202" lon="6.16258">
        <ele>1790.2</ele>
        <time>2021-02-27T13:06:46Z</time>
      </trkpt>
      <trkpt lat="45.23202" lon="6.1626">
        <ele>1790.2</ele>
        <time>2021-02-27T13:06:48Z</time>
      </trkpt>
      <trkpt lat="45.23203" lon="6.16263">
        <ele>1790.2</ele>
        <time>2021-02-27T13:06:50Z</time>
      </trkpt>
      <trkpt lat="45.23204" lon="6.16265">
        <ele>1791.2</ele>
        <time>2021-02-27T13:06:51Z</time>
      </trkpt>
      <trkpt lat="45.23204" lon="6.1627">
        <ele>1791.2</ele>
        <time>2021-02-27T13:06:52Z</time>
      </trkpt>
      <trkpt lat="45.23204" lon="6.16272">
        <ele>1791.2</ele>
        <time>2021-02-27T13:06:54Z</time>
      </trkpt>
      <trkpt lat="45.23205" lon="6.16275">
        <ele>1791.2</ele>
        <time>2021-02-27T13:06:56Z</time>
      </trkpt>
      <trkpt lat="45.23205" lon="6.16277">
        <ele>1791.2</ele>
        <time>2021-02-27T13:06:58Z</time>
      </trkpt>
      <trkpt lat="45.23206" lon="6.1628">
        <ele>1791.2</ele>
        <time>2021-02-27T13:07:00Z</time>
      </trkpt>
      <trkpt lat="45.23206" lon="6.16282">
        <ele>1792.8</ele>
        <time>2021-02-27T13:07:01Z</time>
      </trkpt>
      <trkpt lat="45.23207" lon="6.16287">
        <ele>1792.8</ele>
        <time>2021-02-27T13:07:02Z</time>
      </trkpt>
      <trkpt lat="45.23208" lon="6.16289">
        <ele>1792.8</ele>
        <time>2021-02-27T13:07:04Z</time>
      </trkpt>
      <trkpt lat="45.23208" lon="6.16292">
        <ele>1792.8</ele>
        <time>2021-02-27T13:07:06Z</time>
      </trkpt>
      <trkpt lat="45.23209" lon="6.16294">
        <ele>1792.8</ele>
        <time>2021-02-27T13:07:08Z</time>
      </trkpt>
      <trkpt lat="45.23209" lon="6.16297">
        <ele>1792.8</ele>
        <time>2021-02-27T13:07:10Z</time>
      </trkpt>
      <trkpt lat="45.2321" lon="6.16299">
        <ele>1793.8</ele>
        <time>2021-02-27T13:07:11Z</time>
      </trkpt>
      <trkpt lat="45.2321" lon="6.16304">
        <ele>1793.8</ele>
        <time>2021-02-27T13:07:12Z</time>
      </trkpt>
      <trkpt lat="45.23211" lon="6.16306">
        <ele>1793.8</ele>
        <time>2021-02-27T13:07:14Z</time>
      </trkpt>
      <trkpt lat="45.23211" lon="6.16309">
        <ele>1793.8</ele>
        <time>2021-02-27T13:07:16Z</time>
      </trkpt>
      <trkpt lat="45.23211" lon="6.16312">
        <ele>1793.8</ele>
        <time>2021-02-27T13:07:18Z</time>
      </trkpt>
      <trkpt lat="45.23211" lon="6.16315">
        <ele>1793.8</ele>
        <time>2021-02-27T13:07:20Z</time>
      </trkpt>
      <trkpt lat="45.23211" lon="6.16317">
        <ele>1795.6</ele>
        <time>2021-02-27T13:07:21Z</time>
      </trkpt>
      <trkpt lat="45.23212" lon="6.16322">
        <ele>1795.6</ele>
        <time>2021-02-27T13:07:22Z</time>
      </trkpt>
      <trkpt lat="45.23212" lon="6.16324">
        <ele>1795.6</ele>
        <time>2021-02-27T13:07:24Z</time>
      </trkpt>
      <trkpt lat="45.23212" lon="6.16327">
        <ele>1795.6</ele>
        <time>2021-02-27T13:07:26Z</time>
      </trkpt>
      <trkpt lat="45.23213" lon="6.16329">
        <ele>1795.6</ele>
        <time>2021-02-27T13:07:28Z</time>
      </trkpt>
      <trkpt lat="45.23213" lon="6.16332">
        <ele>1795.6</ele>
        <time>2021-02-27T13:07:30Z</time>
      </trkpt>
      <trkpt lat="45.23214" lon="6.16334">
        <ele>1797</ele>
        <time>2021-02-27T13:07:31Z</time>
      </trkpt>
      <trkpt lat="45.23215" lon="6.16339">
        <ele>1797</ele>
        <time>2021-02-27T13:07:32Z</time>
      </trkpt>
      <trkpt lat="45.23215" lon="6.16341">
        <ele>1797</ele>
        <time>2021-02-27T13:07:34Z</time>
      </trkpt>
      <trkpt lat="45.23216" lon="6.16344">
        <ele>1797</ele>
        <time>2021-02-27T13:07:36Z</time>
      </trkpt>
      <trkpt lat="45.23216" lon="6.16347">
        <ele>1797</ele>
        <time>2021-02-27T13:07:38Z</time>
      </trkpt>
      <trkpt lat="45.23217" lon="6.16349">
        <ele>1797</ele>
        <time>2021-02-27T13:07:40Z</time>
      </trkpt>
      <trkpt lat="45.23217" lon="6.16352">
        <ele>1797.8</ele>
        <time>2021-02-27T13:07:41Z</time>
      </trkpt>
      <trkpt lat="45.23218" lon="6.16357">
        <ele>1797.8</ele>
        <time>2021-02-27T13:07:42Z</time>
      </trkpt>
      <trkpt lat="45.23218" lon="6.16359">
        <ele>1797.8</ele>
        <time>2021-02-27T13:07:44Z</time>
      </trkpt>
      <trkpt lat="45.23219" lon="6.16362">
        <ele>1797.8</ele>
        <time>2021-02-27T13:07:46Z</time>
      </trkpt>
      <trkpt lat="45.23219" lon="6.16365">
        <ele>1797.8</ele>
        <time>2021-02-27T13:07:48Z</time>
      </trkpt>
      <trkpt lat="45.2322" lon="6.16367">
        <ele>1797.8</ele>
        <time>2021-02-27T13:07:50Z</time>
      </trkpt>
      <trkpt lat="45.2322" lon="6.1637">
        <ele>1798.2</ele>
        <time>2021-02-27T13:07:51Z</time>
      </trkpt>
      <trkpt lat="45.23221" lon="6.16374">
        <ele>1798.2</ele>
        <time>2021-02-27T13:07:52Z</time>
      </trkpt>
      <trkpt lat="45.23222" lon="6.16376">
        <ele>1798.2</ele>
        <time>2021-02-27T13:07:54Z</time>
      </trkpt>
      <trkpt lat="45.23223" lon="6.16379">
        <ele>1798.2</ele>
        <time>2021-02-27T13:07:56Z</time>
      </trkpt>
      <trkpt lat="45.23223" lon="6.16381">
        <ele>1798.2</ele>
        <time>2021-02-27T13:07:58Z</time>
      </trkpt>
      <trkpt lat="45.23224" lon="6.16384">
        <ele>1798.2</ele>
        <time>2021-02-27T13:08:00Z</time>
      </trkpt>
      <trkpt lat="45.23225" lon="6.16386">
        <ele>1799.8</ele>
        <time>2021-02-27T13:08:01Z</time>
      </trkpt>
      <trkpt lat="45.23226" lon="6.16391">
        <ele>1799.8</ele>
        <time>2021-02-27T13:08:02Z</time>
      </trkpt>
      <trkpt lat="45.23226" lon="6.16393">
        <ele>1799.8</ele>
        <time>2021-02-27T13:08:04Z</time>
      </trkpt>
      <trkpt lat="45.23226" lon="6.16396">
        <ele>1799.8</ele>
        <time>2021-02-27T13:08:06Z</time>
      </trkpt>
      <trkpt lat="45.23227" lon="6.16398">
        <ele>1799.8</ele>
        <time>2021-02-27T13:08:08Z</time>
      </trkpt>
      <trkpt lat="45.23227" lon="6.16401">
        <ele>1799.8</ele>
        <time>2021-02-27T13:08:10Z</time>
      </trkpt>
      <trkpt lat="45.23228" lon="6.16404">
        <ele>1801.6</ele>
        <time>2021-02-27T13:08:11Z</time>
      </trkpt>
      <trkpt lat="45.23229" lon="6.16408">
        <ele>1801.6</ele>
        <time>2021-02-27T13:08:12Z</time>
      </trkpt>
      <trkpt lat="45.2323" lon="6.16411">
        <ele>1801.6</ele>
        <time>2021-02-27T13:08:14Z</time>
      </trkpt>
      <trkpt lat="45.2323" lon="6.16413">
        <ele>1801.6</ele>
        <time>2021-02-27T13:08:16Z</time>
      </trkpt>
      <trkpt lat="45.23231" lon="6.16415">
        <ele>1801.6</ele>
        <time>2021-02-27T13:08:18Z</time>
      </trkpt>
      <trkpt lat="45.23231" lon="6.16418">
        <ele>1801.6</ele>
        <time>2021-02-27T13:08:20Z</time>
      </trkpt>
      <trkpt lat="45.23232" lon="6.1642">
        <ele>1802.2</ele>
        <time>2021-02-27T13:08:21Z</time>
      </trkpt>
      <trkpt lat="45.23233" lon="6.16424">
        <ele>1802.2</ele>
        <time>2021-02-27T13:08:22Z</time>
      </trkpt>
      <trkpt lat="45.23234" lon="6.16427">
        <ele>1802.2</ele>
        <time>2021-02-27T13:08:24Z</time>
      </trkpt>
      <trkpt lat="45.23235" lon="6.1643">
        <ele>1802.2</ele>
        <time>2021-02-27T13:08:26Z</time>
      </trkpt>
      <trkpt lat="45.23236" lon="6.16432">
        <ele>1802.2</ele>
        <time>2021-02-27T13:08:28Z</time>
      </trkpt>
      <trkpt lat="45.23237" lon="6.16435">
        <ele>1802.2</ele>
        <time>2021-02-27T13:08:30Z</time>
      </trkpt>
      <trkpt lat="45.23238" lon="6.16438">
        <ele>1803.2</ele>
        <time>2021-02-27T13:08:31Z</time>
      </trkpt>
      <trkpt lat="45.23239" lon="6.16442">
        <ele>1803.2</ele>
        <time>2021-02-27T13:08:32Z</time>
      </trkpt>
      <trkpt lat="45.23239" lon="6.16445">
        <ele>1803.2</ele>
        <time>2021-02-27T13:08:34Z</time>
      </trkpt>
      <trkpt lat="45.2324" lon="6.16447">
        <ele>1803.2</ele>
        <time>2021-02-27T13:08:36Z</time>
      </trkpt>
      <trkpt lat="45.2324" lon="6.16449">
        <ele>1803.2</ele>
        <time>2021-02-27T13:08:38Z</time>
      </trkpt>
      <trkpt lat="45.23241" lon="6.16452">
        <ele>1803.2</ele>
        <time>2021-02-27T13:08:40Z</time>
      </trkpt>
      <trkpt lat="45.23242" lon="6.16454">
        <ele>1803.6</ele>
        <time>2021-02-27T13:08:41Z</time>
      </trkpt>
      <trkpt lat="45.23243" lon="6.16458">
        <ele>1803.6</ele>
        <time>2021-02-27T13:08:42Z</time>
      </trkpt>
      <trkpt lat="45.23244" lon="6.1646">
        <ele>1803.6</ele>
        <time>2021-02-27T13:08:44Z</time>
      </trkpt>
      <trkpt lat="45.23245" lon="6.16463">
        <ele>1803.6</ele>
        <time>2021-02-27T13:08:46Z</time>
      </trkpt>
      <trkpt lat="45.23246" lon="6.16465">
        <ele>1803.6</ele>
        <time>2021-02-27T13:08:48Z</time>
      </trkpt>
      <trkpt lat="45.23247" lon="6.16467">
        <ele>1803.6</ele>
        <time>2021-02-27T13:08:50Z</time>
      </trkpt>
      <trkpt lat="45.23248" lon="6.1647">
        <ele>1805.2</ele>
        <time>2021-02-27T13:08:51Z</time>
      </trkpt>
      <trkpt lat="45.23249" lon="6.16474">
        <ele>1805.2</ele>
        <time>2021-02-27T13:08:53Z</time>
      </trkpt>
      <trkpt lat="45.2325" lon="6.16477">
        <ele>1805.2</ele>
        <time>2021-02-27T13:08:55Z</time>
      </trkpt>
      <trkpt lat="45.23252" lon="6.1648">
        <ele>1805.2</ele>
        <time>2021-02-27T13:08:57Z</time>
      </trkpt>
      <trkpt lat="45.23253" lon="6.16483">
        <ele>1805.2</ele>
        <time>2021-02-27T13:08:59Z</time>
      </trkpt>
      <trkpt lat="45.23254" lon="6.16486">
        <ele>1806</ele>
        <time>2021-02-27T13:09:01Z</time>
      </trkpt>
      <trkpt lat="45.23255" lon="6.16489">
        <ele>1806</ele>
        <time>2021-02-27T13:09:03Z</time>
      </trkpt>
      <trkpt lat="45.23256" lon="6.16492">
        <ele>1806</ele>
        <time>2021-02-27T13:09:05Z</time>
      </trkpt>
      <trkpt lat="45.23257" lon="6.16495">
        <ele>1806</ele>
        <time>2021-02-27T13:09:07Z</time>
      </trkpt>
      <trkpt lat="45.23258" lon="6.16498">
        <ele>1806</ele>
        <time>2021-02-27T13:09:09Z</time>
      </trkpt>
      <trkpt lat="45.2326" lon="6.16501">
        <ele>1807.8</ele>
        <time>2021-02-27T13:09:11Z</time>
      </trkpt>
      <trkpt lat="45.23261" lon="6.16504">
        <ele>1807.8</ele>
        <time>2021-02-27T13:09:13Z</time>
      </trkpt>
      <trkpt lat="45.23262" lon="6.16508">
        <ele>1807.8</ele>
        <time>2021-02-27T13:09:15Z</time>
      </trkpt>
      <trkpt lat="45.23263" lon="6.16511">
        <ele>1807.8</ele>
        <time>2021-02-27T13:09:17Z</time>
      </trkpt>
      <trkpt lat="45.23264" lon="6.16515">
        <ele>1807.8</ele>
        <time>2021-02-27T13:09:19Z</time>
      </trkpt>
      <trkpt lat="45.23265" lon="6.16518">
        <ele>1808.2</ele>
        <time>2021-02-27T13:09:21Z</time>
      </trkpt>
      <trkpt lat="45.23266" lon="6.16522">
        <ele>1808.2</ele>
        <time>2021-02-27T13:09:23Z</time>
      </trkpt>
      <trkpt lat="45.23267" lon="6.16525">
        <ele>1808.2</ele>
        <time>2021-02-27T13:09:25Z</time>
      </trkpt>
      <trkpt lat="45.23267" lon="6.16529">
        <ele>1808.2</ele>
        <time>2021-02-27T13:09:27Z</time>
      </trkpt>
      <trkpt lat="45.23268" lon="6.16532">
        <ele>1808.2</ele>
        <time>2021-02-27T13:09:29Z</time>
      </trkpt>
      <trkpt lat="45.23269" lon="6.16536">
        <ele>1810</ele>
        <time>2021-02-27T13:09:31Z</time>
      </trkpt>
      <trkpt lat="45.23269" lon="6.16539">
        <ele>1810</ele>
        <time>2021-02-27T13:09:33Z</time>
      </trkpt>
      <trkpt lat="45.2327" lon="6.16542">
        <ele>1810</ele>
        <time>2021-02-27T13:09:35Z</time>
      </trkpt>
      <trkpt lat="45.2327" lon="6.16546">
        <ele>1810</ele>
        <time>2021-02-27T13:09:37Z</time>
      </trkpt>
      <trkpt lat="45.23271" lon="6.16549">
        <ele>1810</ele>
        <time>2021-02-27T13:09:39Z</time>
      </trkpt>
      <trkpt lat="45.23271" lon="6.16552">
        <ele>1811.8</ele>
        <time>2021-02-27T13:09:41Z</time>
      </trkpt>
      <trkpt lat="45.23272" lon="6.16556">
        <ele>1811.8</ele>
        <time>2021-02-27T13:09:43Z</time>
      </trkpt>
      <trkpt lat="45.23273" lon="6.16559">
        <ele>1811.8</ele>
        <time>2021-02-27T13:09:45Z</time>
      </trkpt>
      <trkpt lat="45.23274" lon="6.16563">
        <ele>1811.8</ele>
        <time>2021-02-27T13:09:47Z</time>
      </trkpt>
      <trkpt lat="45.23275" lon="6.16566">
        <ele>1811.8</ele>
        <time>2021-02-27T13:09:49Z</time>
      </trkpt>
      <trkpt lat="45.23276" lon="6.1657">
        <ele>1813</ele>
        <time>2021-02-27T13:09:51Z</time>
      </trkpt>
      <trkpt lat="45.23277" lon="6.16574">
        <ele>1813</ele>
        <time>2021-02-27T13:09:53Z</time>
      </trkpt>
      <trkpt lat="45.23277" lon="6.16577">
        <ele>1813</ele>
        <time>2021-02-27T13:09:55Z</time>
      </trkpt>
      <trkpt lat="45.23278" lon="6.1658">
        <ele>1813</ele>
        <time>2021-02-27T13:09:57Z</time>
      </trkpt>
      <trkpt lat="45.23279" lon="6.16583">
        <ele>1813</ele>
        <time>2021-02-27T13:09:59Z</time>
      </trkpt>
      <trkpt lat="45.2328" lon="6.16586">
        <ele>1813.2</ele>
        <time>2021-02-27T13:10:01Z</time>
      </trkpt>
      <trkpt lat="45.23282" lon="6.16592">
        <ele>1813.2</ele>
        <time>2021-02-27T13:10:03Z</time>
      </trkpt>
      <trkpt lat="45.23283" lon="6.16594">
        <ele>1813.2</ele>
        <time>2021-02-27T13:10:04Z</time>
      </trkpt>
      <trkpt lat="45.23284" lon="6.16596">
        <ele>1813.2</ele>
        <time>2021-02-27T13:10:06Z</time>
      </trkpt>
      <trkpt lat="45.23284" lon="6.16598">
        <ele>1813.2</ele>
        <time>2021-02-27T13:10:08Z</time>
      </trkpt>
      <trkpt lat="45.23285" lon="6.166">
        <ele>1813.2</ele>
        <time>2021-02-27T13:10:10Z</time>
      </trkpt>
      <trkpt lat="45.23286" lon="6.16602">
        <ele>1814.6</ele>
        <time>2021-02-27T13:10:11Z</time>
      </trkpt>
      <trkpt lat="45.23288" lon="6.16607">
        <ele>1814.6</ele>
        <time>2021-02-27T13:10:12Z</time>
      </trkpt>
      <trkpt lat="45.23289" lon="6.16609">
        <ele>1814.6</ele>
        <time>2021-02-27T13:10:14Z</time>
      </trkpt>
      <trkpt lat="45.2329" lon="6.16612">
        <ele>1814.6</ele>
        <time>2021-02-27T13:10:16Z</time>
      </trkpt>
      <trkpt lat="45.23291" lon="6.16614">
        <ele>1814.6</ele>
        <time>2021-02-27T13:10:18Z</time>
      </trkpt>
      <trkpt lat="45.23292" lon="6.16617">
        <ele>1814.6</ele>
        <time>2021-02-27T13:10:20Z</time>
      </trkpt>
      <trkpt lat="45.23293" lon="6.16619">
        <ele>1815.4</ele>
        <time>2021-02-27T13:10:21Z</time>
      </trkpt>
      <trkpt lat="45.23293" lon="6.16622">
        <ele>1815.4</ele>
        <time>2021-02-27T13:10:22Z</time>
      </trkpt>
      <trkpt lat="45.23294" lon="6.16623">
        <ele>1815.4</ele>
        <time>2021-02-27T13:10:25Z</time>
      </trkpt>
      <trkpt lat="45.23295" lon="6.16625">
        <ele>1815.8</ele>
        <time>2021-02-27T13:10:31Z</time>
      </trkpt>
      <trkpt lat="45.23295" lon="6.16626">
        <ele>1815.8</ele>
        <time>2021-02-27T13:10:37Z</time>
      </trkpt>
      <trkpt lat="45.23296" lon="6.16627">
        <ele>1815.8</ele>
        <time>2021-02-27T13:10:40Z</time>
      </trkpt>
      <trkpt lat="45.23297" lon="6.16628">
        <ele>1815.2</ele>
        <time>2021-02-27T13:10:41Z</time>
      </trkpt>
      <trkpt lat="45.23298" lon="6.16632">
        <ele>1815.2</ele>
        <time>2021-02-27T13:10:43Z</time>
      </trkpt>
      <trkpt lat="45.23299" lon="6.16635">
        <ele>1815.2</ele>
        <time>2021-02-27T13:10:45Z</time>
      </trkpt>
      <trkpt lat="45.233" lon="6.16638">
        <ele>1815.2</ele>
        <time>2021-02-27T13:10:47Z</time>
      </trkpt>
      <trkpt lat="45.23302" lon="6.16641">
        <ele>1815.2</ele>
        <time>2021-02-27T13:10:49Z</time>
      </trkpt>
      <trkpt lat="45.23303" lon="6.16644">
        <ele>1816.6</ele>
        <time>2021-02-27T13:10:51Z</time>
      </trkpt>
      <trkpt lat="45.23303" lon="6.16648">
        <ele>1816.6</ele>
        <time>2021-02-27T13:10:53Z</time>
      </trkpt>
      <trkpt lat="45.23303" lon="6.16652">
        <ele>1816.6</ele>
        <time>2021-02-27T13:10:55Z</time>
      </trkpt>
      <trkpt lat="45.23304" lon="6.16656">
        <ele>1816.6</ele>
        <time>2021-02-27T13:10:57Z</time>
      </trkpt>
      <trkpt lat="45.23304" lon="6.1666">
        <ele>1816.6</ele>
        <time>2021-02-27T13:10:59Z</time>
      </trkpt>
      <trkpt lat="45.23305" lon="6.16663">
        <ele>1817.2</ele>
        <time>2021-02-27T13:11:01Z</time>
      </trkpt>
      <trkpt lat="45.23306" lon="6.16666">
        <ele>1817.2</ele>
        <time>2021-02-27T13:11:03Z</time>
      </trkpt>
      <trkpt lat="45.23307" lon="6.1667">
        <ele>1817.2</ele>
        <time>2021-02-27T13:11:05Z</time>
      </trkpt>
      <trkpt lat="45.23307" lon="6.16673">
        <ele>1817.2</ele>
        <time>2021-02-27T13:11:07Z</time>
      </trkpt>
      <trkpt lat="45.23308" lon="6.16677">
        <ele>1817.2</ele>
        <time>2021-02-27T13:11:09Z</time>
      </trkpt>
      <trkpt lat="45.23308" lon="6.1668">
        <ele>1817</ele>
        <time>2021-02-27T13:11:11Z</time>
      </trkpt>
      <trkpt lat="45.23308" lon="6.16683">
        <ele>1817</ele>
        <time>2021-02-27T13:11:13Z</time>
      </trkpt>
      <trkpt lat="45.23309" lon="6.16687">
        <ele>1817</ele>
        <time>2021-02-27T13:11:15Z</time>
      </trkpt>
      <trkpt lat="45.23309" lon="6.16691">
        <ele>1817</ele>
        <time>2021-02-27T13:11:17Z</time>
      </trkpt>
      <trkpt lat="45.2331" lon="6.16694">
        <ele>1817</ele>
        <time>2021-02-27T13:11:19Z</time>
      </trkpt>
      <trkpt lat="45.2331" lon="6.16697">
        <ele>1818.6</ele>
        <time>2021-02-27T13:11:21Z</time>
      </trkpt>
      <trkpt lat="45.23311" lon="6.16703">
        <ele>1818.6</ele>
        <time>2021-02-27T13:11:23Z</time>
      </trkpt>
      <trkpt lat="45.23311" lon="6.16705">
        <ele>1818.6</ele>
        <time>2021-02-27T13:11:25Z</time>
      </trkpt>
      <trkpt lat="45.23311" lon="6.16707">
        <ele>1818.6</ele>
        <time>2021-02-27T13:11:28Z</time>
      </trkpt>
      <trkpt lat="45.23311" lon="6.16709">
        <ele>1818.6</ele>
        <time>2021-02-27T13:11:30Z</time>
      </trkpt>
      <trkpt lat="45.23312" lon="6.16712">
        <ele>1819.4</ele>
        <time>2021-02-27T13:11:31Z</time>
      </trkpt>
      <trkpt lat="45.23313" lon="6.16716">
        <ele>1819.4</ele>
        <time>2021-02-27T13:11:32Z</time>
      </trkpt>
      <trkpt lat="45.23313" lon="6.16718">
        <ele>1819.4</ele>
        <time>2021-02-27T13:11:34Z</time>
      </trkpt>
      <trkpt lat="45.23314" lon="6.1672">
        <ele>1819.4</ele>
        <time>2021-02-27T13:11:36Z</time>
      </trkpt>
      <trkpt lat="45.23315" lon="6.16723">
        <ele>1819.4</ele>
        <time>2021-02-27T13:11:38Z</time>
      </trkpt>
      <trkpt lat="45.23315" lon="6.16725">
        <ele>1819.4</ele>
        <time>2021-02-27T13:11:40Z</time>
      </trkpt>
      <trkpt lat="45.23316" lon="6.16728">
        <ele>1820.2</ele>
        <time>2021-02-27T13:11:41Z</time>
      </trkpt>
      <trkpt lat="45.23317" lon="6.16731">
        <ele>1820.2</ele>
        <time>2021-02-27T13:11:42Z</time>
      </trkpt>
      <trkpt lat="45.23317" lon="6.16732">
        <ele>1820.2</ele>
        <time>2021-02-27T13:11:44Z</time>
      </trkpt>
      <trkpt lat="45.23318" lon="6.16734">
        <ele>1820.2</ele>
        <time>2021-02-27T13:11:46Z</time>
      </trkpt>
      <trkpt lat="45.23319" lon="6.16736">
        <ele>1820.2</ele>
        <time>2021-02-27T13:11:48Z</time>
      </trkpt>
      <trkpt lat="45.23319" lon="6.16738">
        <ele>1820.2</ele>
        <time>2021-02-27T13:11:50Z</time>
      </trkpt>
      <trkpt lat="45.2332" lon="6.16739">
        <ele>1821.2</ele>
        <time>2021-02-27T13:11:51Z</time>
      </trkpt>
      <trkpt lat="45.23321" lon="6.16744">
        <ele>1821.2</ele>
        <time>2021-02-27T13:11:52Z</time>
      </trkpt>
      <trkpt lat="45.23321" lon="6.16746">
        <ele>1821.2</ele>
        <time>2021-02-27T13:11:54Z</time>
      </trkpt>
      <trkpt lat="45.23322" lon="6.16748">
        <ele>1821.2</ele>
        <time>2021-02-27T13:11:56Z</time>
      </trkpt>
      <trkpt lat="45.23322" lon="6.16751">
        <ele>1821.2</ele>
        <time>2021-02-27T13:11:58Z</time>
      </trkpt>
      <trkpt lat="45.23323" lon="6.16753">
        <ele>1821.2</ele>
        <time>2021-02-27T13:12:00Z</time>
      </trkpt>
      <trkpt lat="45.23323" lon="6.16755">
        <ele>1822</ele>
        <time>2021-02-27T13:12:01Z</time>
      </trkpt>
      <trkpt lat="45.23324" lon="6.16758">
        <ele>1822</ele>
        <time>2021-02-27T13:12:02Z</time>
      </trkpt>
      <trkpt lat="45.23325" lon="6.1676">
        <ele>1822</ele>
        <time>2021-02-27T13:12:04Z</time>
      </trkpt>
      <trkpt lat="45.23325" lon="6.16762">
        <ele>1822</ele>
        <time>2021-02-27T13:12:06Z</time>
      </trkpt>
      <trkpt lat="45.23326" lon="6.16764">
        <ele>1822</ele>
        <time>2021-02-27T13:12:08Z</time>
      </trkpt>
      <trkpt lat="45.23326" lon="6.16766">
        <ele>1822</ele>
        <time>2021-02-27T13:12:10Z</time>
      </trkpt>
      <trkpt lat="45.23327" lon="6.16768">
        <ele>1822.8</ele>
        <time>2021-02-27T13:12:11Z</time>
      </trkpt>
      <trkpt lat="45.23329" lon="6.16772">
        <ele>1822.8</ele>
        <time>2021-02-27T13:12:13Z</time>
      </trkpt>
      <trkpt lat="45.23329" lon="6.16773">
        <ele>1822.8</ele>
        <time>2021-02-27T13:12:16Z</time>
      </trkpt>
      <trkpt lat="45.2333" lon="6.16775">
        <ele>1822.8</ele>
        <time>2021-02-27T13:12:18Z</time>
      </trkpt>
      <trkpt lat="45.23331" lon="6.16776">
        <ele>1822.8</ele>
        <time>2021-02-27T13:12:20Z</time>
      </trkpt>
      <trkpt lat="45.23332" lon="6.16778">
        <ele>1824.2</ele>
        <time>2021-02-27T13:12:21Z</time>
      </trkpt>
      <trkpt lat="45.23333" lon="6.16782">
        <ele>1824.2</ele>
        <time>2021-02-27T13:12:22Z</time>
      </trkpt>
      <trkpt lat="45.23334" lon="6.16783">
        <ele>1824.2</ele>
        <time>2021-02-27T13:12:24Z</time>
      </trkpt>
      <trkpt lat="45.23335" lon="6.16785">
        <ele>1824.2</ele>
        <time>2021-02-27T13:12:26Z</time>
      </trkpt>
      <trkpt lat="45.23336" lon="6.16786">
        <ele>1824.2</ele>
        <time>2021-02-27T13:12:28Z</time>
      </trkpt>
      <trkpt lat="45.23337" lon="6.16787">
        <ele>1824.2</ele>
        <time>2021-02-27T13:12:30Z</time>
      </trkpt>
      <trkpt lat="45.23338" lon="6.16789">
        <ele>1825.2</ele>
        <time>2021-02-27T13:12:31Z</time>
      </trkpt>
      <trkpt lat="45.2334" lon="6.16794">
        <ele>1825.2</ele>
        <time>2021-02-27T13:12:32Z</time>
      </trkpt>
      <trkpt lat="45.23341" lon="6.16796">
        <ele>1825.2</ele>
        <time>2021-02-27T13:12:34Z</time>
      </trkpt>
      <trkpt lat="45.23342" lon="6.16798">
        <ele>1825.2</ele>
        <time>2021-02-27T13:12:36Z</time>
      </trkpt>
      <trkpt lat="45.23343" lon="6.168">
        <ele>1825.2</ele>
        <time>2021-02-27T13:12:38Z</time>
      </trkpt>
      <trkpt lat="45.23344" lon="6.16802">
        <ele>1825.2</ele>
        <time>2021-02-27T13:12:40Z</time>
      </trkpt>
      <trkpt lat="45.23345" lon="6.16804">
        <ele>1825</ele>
        <time>2021-02-27T13:12:41Z</time>
      </trkpt>
      <trkpt lat="45.23346" lon="6.16807">
        <ele>1825</ele>
        <time>2021-02-27T13:12:42Z</time>
      </trkpt>
      <trkpt lat="45.23347" lon="6.1681">
        <ele>1825</ele>
        <time>2021-02-27T13:12:44Z</time>
      </trkpt>
      <trkpt lat="45.23347" lon="6.16812">
        <ele>1825</ele>
        <time>2021-02-27T13:12:46Z</time>
      </trkpt>
      <trkpt lat="45.23348" lon="6.16814">
        <ele>1825</ele>
        <time>2021-02-27T13:12:48Z</time>
      </trkpt>
      <trkpt lat="45.23349" lon="6.16816">
        <ele>1825</ele>
        <time>2021-02-27T13:12:50Z</time>
      </trkpt>
      <trkpt lat="45.23349" lon="6.16819">
        <ele>1825.8</ele>
        <time>2021-02-27T13:12:51Z</time>
      </trkpt>
      <trkpt lat="45.2335" lon="6.16823">
        <ele>1825.8</ele>
        <time>2021-02-27T13:12:52Z</time>
      </trkpt>
      <trkpt lat="45.23351" lon="6.16825">
        <ele>1825.8</ele>
        <time>2021-02-27T13:12:54Z</time>
      </trkpt>
      <trkpt lat="45.23351" lon="6.16828">
        <ele>1825.8</ele>
        <time>2021-02-27T13:12:56Z</time>
      </trkpt>
      <trkpt lat="45.23352" lon="6.1683">
        <ele>1825.8</ele>
        <time>2021-02-27T13:12:58Z</time>
      </trkpt>
      <trkpt lat="45.23352" lon="6.16833">
        <ele>1825.8</ele>
        <time>2021-02-27T13:13:00Z</time>
      </trkpt>
      <trkpt lat="45.23353" lon="6.16835">
        <ele>1827</ele>
        <time>2021-02-27T13:13:01Z</time>
      </trkpt>
      <trkpt lat="45.23353" lon="6.16837">
        <ele>1827</ele>
        <time>2021-02-27T13:13:02Z</time>
      </trkpt>
      <trkpt lat="45.23353" lon="6.1684">
        <ele>1827</ele>
        <time>2021-02-27T13:13:04Z</time>
      </trkpt>
      <trkpt lat="45.23354" lon="6.16843">
        <ele>1827</ele>
        <time>2021-02-27T13:13:06Z</time>
      </trkpt>
      <trkpt lat="45.23354" lon="6.16846">
        <ele>1827</ele>
        <time>2021-02-27T13:13:08Z</time>
      </trkpt>
      <trkpt lat="45.23354" lon="6.16849">
        <ele>1827.6</ele>
        <time>2021-02-27T13:13:11Z</time>
      </trkpt>
      <trkpt lat="45.23354" lon="6.16855">
        <ele>1827.6</ele>
        <time>2021-02-27T13:13:13Z</time>
      </trkpt>
      <trkpt lat="45.23355" lon="6.16857">
        <ele>1827.6</ele>
        <time>2021-02-27T13:13:16Z</time>
      </trkpt>
      <trkpt lat="45.23355" lon="6.1686">
        <ele>1827.6</ele>
        <time>2021-02-27T13:13:18Z</time>
      </trkpt>
      <trkpt lat="45.23355" lon="6.16862">
        <ele>1827.6</ele>
        <time>2021-02-27T13:13:20Z</time>
      </trkpt>
      <trkpt lat="45.23355" lon="6.16864">
        <ele>1828</ele>
        <time>2021-02-27T13:13:21Z</time>
      </trkpt>
      <trkpt lat="45.23356" lon="6.16868">
        <ele>1828</ele>
        <time>2021-02-27T13:13:22Z</time>
      </trkpt>
      <trkpt lat="45.23356" lon="6.1687">
        <ele>1828</ele>
        <time>2021-02-27T13:13:24Z</time>
      </trkpt>
      <trkpt lat="45.23357" lon="6.16872">
        <ele>1828</ele>
        <time>2021-02-27T13:13:26Z</time>
      </trkpt>
      <trkpt lat="45.23357" lon="6.16874">
        <ele>1828</ele>
        <time>2021-02-27T13:13:28Z</time>
      </trkpt>
      <trkpt lat="45.23358" lon="6.16876">
        <ele>1828</ele>
        <time>2021-02-27T13:13:30Z</time>
      </trkpt>
      <trkpt lat="45.23358" lon="6.16878">
        <ele>1830.4</ele>
        <time>2021-02-27T13:13:31Z</time>
      </trkpt>
      <trkpt lat="45.23359" lon="6.1688">
        <ele>1830.4</ele>
        <time>2021-02-27T13:13:32Z</time>
      </trkpt>
      <trkpt lat="45.2336" lon="6.16884">
        <ele>1830.4</ele>
        <time>2021-02-27T13:13:35Z</time>
      </trkpt>
      <trkpt lat="45.23361" lon="6.16886">
        <ele>1830.4</ele>
        <time>2021-02-27T13:13:37Z</time>
      </trkpt>
      <trkpt lat="45.23362" lon="6.16889">
        <ele>1830.4</ele>
        <time>2021-02-27T13:13:39Z</time>
      </trkpt>
      <trkpt lat="45.23362" lon="6.16889">
        <ele>1831.2</ele>
        <time>2021-02-27T13:13:41Z</time>
      </trkpt>
      <trkpt lat="45.23363" lon="6.16893">
        <ele>1831.2</ele>
        <time>2021-02-27T13:13:42Z</time>
      </trkpt>
      <trkpt lat="45.23364" lon="6.16896">
        <ele>1831.2</ele>
        <time>2021-02-27T13:13:44Z</time>
      </trkpt>
      <trkpt lat="45.23365" lon="6.16898">
        <ele>1831.2</ele>
        <time>2021-02-27T13:13:46Z</time>
      </trkpt>
      <trkpt lat="45.23367" lon="6.16902">
        <ele>1831.2</ele>
        <time>2021-02-27T13:13:49Z</time>
      </trkpt>
      <trkpt lat="45.23369" lon="6.16905">
        <ele>1832.6</ele>
        <time>2021-02-27T13:13:51Z</time>
      </trkpt>
      <trkpt lat="45.2337" lon="6.16908">
        <ele>1832.6</ele>
        <time>2021-02-27T13:13:53Z</time>
      </trkpt>
      <trkpt lat="45.2337" lon="6.16911">
        <ele>1832.6</ele>
        <time>2021-02-27T13:13:55Z</time>
      </trkpt>
      <trkpt lat="45.2337" lon="6.16914">
        <ele>1832.6</ele>
        <time>2021-02-27T13:13:57Z</time>
      </trkpt>
      <trkpt lat="45.23372" lon="6.16917">
        <ele>1832.6</ele>
        <time>2021-02-27T13:13:59Z</time>
      </trkpt>
      <trkpt lat="45.23374" lon="6.1692">
        <ele>1833</ele>
        <time>2021-02-27T13:14:01Z</time>
      </trkpt>
      <trkpt lat="45.23377" lon="6.16924">
        <ele>1833</ele>
        <time>2021-02-27T13:14:03Z</time>
      </trkpt>
      <trkpt lat="45.23378" lon="6.16926">
        <ele>1833</ele>
        <time>2021-02-27T13:14:04Z</time>
      </trkpt>
      <trkpt lat="45.23379" lon="6.16928">
        <ele>1833</ele>
        <time>2021-02-27T13:14:06Z</time>
      </trkpt>
      <trkpt lat="45.2338" lon="6.1693">
        <ele>1833</ele>
        <time>2021-02-27T13:14:08Z</time>
      </trkpt>
      <trkpt lat="45.23381" lon="6.16931">
        <ele>1833</ele>
        <time>2021-02-27T13:14:10Z</time>
      </trkpt>
      <trkpt lat="45.23382" lon="6.16933">
        <ele>1834.6</ele>
        <time>2021-02-27T13:14:11Z</time>
      </trkpt>
      <trkpt lat="45.23383" lon="6.16934">
        <ele>1834.6</ele>
        <time>2021-02-27T13:14:12Z</time>
      </trkpt>
      <trkpt lat="45.23384" lon="6.16938">
        <ele>1834.6</ele>
        <time>2021-02-27T13:14:15Z</time>
      </trkpt>
      <trkpt lat="45.23386" lon="6.16941">
        <ele>1834.6</ele>
        <time>2021-02-27T13:14:17Z</time>
      </trkpt>
      <trkpt lat="45.23387" lon="6.16943">
        <ele>1834.6</ele>
        <time>2021-02-27T13:14:19Z</time>
      </trkpt>
      <trkpt lat="45.23387" lon="6.16943">
        <ele>1835.6</ele>
        <time>2021-02-27T13:14:21Z</time>
      </trkpt>
      <trkpt lat="45.2339" lon="6.16948">
        <ele>1835.6</ele>
        <time>2021-02-27T13:14:22Z</time>
      </trkpt>
      <trkpt lat="45.23391" lon="6.1695">
        <ele>1835.6</ele>
        <time>2021-02-27T13:14:24Z</time>
      </trkpt>
      <trkpt lat="45.23392" lon="6.16952">
        <ele>1835.6</ele>
        <time>2021-02-27T13:14:26Z</time>
      </trkpt>
      <trkpt lat="45.23393" lon="6.16954">
        <ele>1835.6</ele>
        <time>2021-02-27T13:14:28Z</time>
      </trkpt>
      <trkpt lat="45.23394" lon="6.16956">
        <ele>1835.6</ele>
        <time>2021-02-27T13:14:30Z</time>
      </trkpt>
      <trkpt lat="45.23395" lon="6.16958">
        <ele>1836</ele>
        <time>2021-02-27T13:14:31Z</time>
      </trkpt>
      <trkpt lat="45.23396" lon="6.16959">
        <ele>1836</ele>
        <time>2021-02-27T13:14:32Z</time>
      </trkpt>
      <trkpt lat="45.23397" lon="6.16961">
        <ele>1836</ele>
        <time>2021-02-27T13:14:34Z</time>
      </trkpt>
      <trkpt lat="45.23399" lon="6.16964">
        <ele>1836</ele>
        <time>2021-02-27T13:14:36Z</time>
      </trkpt>
      <trkpt lat="45.234" lon="6.16967">
        <ele>1836</ele>
        <time>2021-02-27T13:14:39Z</time>
      </trkpt>
      <trkpt lat="45.23401" lon="6.1697">
        <ele>1836.8</ele>
        <time>2021-02-27T13:14:41Z</time>
      </trkpt>
      <trkpt lat="45.23403" lon="6.16972">
        <ele>1836.8</ele>
        <time>2021-02-27T13:14:43Z</time>
      </trkpt>
      <trkpt lat="45.23404" lon="6.16974">
        <ele>1836.8</ele>
        <time>2021-02-27T13:14:45Z</time>
      </trkpt>
      <trkpt lat="45.23405" lon="6.16977">
        <ele>1836.8</ele>
        <time>2021-02-27T13:14:47Z</time>
      </trkpt>
      <trkpt lat="45.23407" lon="6.1698">
        <ele>1836.8</ele>
        <time>2021-02-27T13:14:49Z</time>
      </trkpt>
      <trkpt lat="45.23409" lon="6.16982">
        <ele>1838.6</ele>
        <time>2021-02-27T13:14:51Z</time>
      </trkpt>
      <trkpt lat="45.23411" lon="6.16988">
        <ele>1838.6</ele>
        <time>2021-02-27T13:14:53Z</time>
      </trkpt>
      <trkpt lat="45.23411" lon="6.1699">
        <ele>1838.6</ele>
        <time>2021-02-27T13:14:54Z</time>
      </trkpt>
      <trkpt lat="45.23412" lon="6.16992">
        <ele>1838.6</ele>
        <time>2021-02-27T13:14:56Z</time>
      </trkpt>
      <trkpt lat="45.23413" lon="6.16995">
        <ele>1838.6</ele>
        <time>2021-02-27T13:14:58Z</time>
      </trkpt>
      <trkpt lat="45.23414" lon="6.16997">
        <ele>1838.6</ele>
        <time>2021-02-27T13:15:00Z</time>
      </trkpt>
      <trkpt lat="45.23414" lon="6.16999">
        <ele>1838.8</ele>
        <time>2021-02-27T13:15:01Z</time>
      </trkpt>
      <trkpt lat="45.23416" lon="6.17003">
        <ele>1838.8</ele>
        <time>2021-02-27T13:15:02Z</time>
      </trkpt>
      <trkpt lat="45.23417" lon="6.17005">
        <ele>1838.8</ele>
        <time>2021-02-27T13:15:04Z</time>
      </trkpt>
      <trkpt lat="45.23418" lon="6.17008">
        <ele>1838.8</ele>
        <time>2021-02-27T13:15:06Z</time>
      </trkpt>
      <trkpt lat="45.23418" lon="6.1701">
        <ele>1838.8</ele>
        <time>2021-02-27T13:15:08Z</time>
      </trkpt>
      <trkpt lat="45.23419" lon="6.17012">
        <ele>1838.8</ele>
        <time>2021-02-27T13:15:10Z</time>
      </trkpt>
      <trkpt lat="45.2342" lon="6.17015">
        <ele>1838.8</ele>
        <time>2021-02-27T13:15:11Z</time>
      </trkpt>
      <trkpt lat="45.23422" lon="6.17019">
        <ele>1838.8</ele>
        <time>2021-02-27T13:15:12Z</time>
      </trkpt>
      <trkpt lat="45.23423" lon="6.17021">
        <ele>1838.8</ele>
        <time>2021-02-27T13:15:14Z</time>
      </trkpt>
      <trkpt lat="45.23424" lon="6.17024">
        <ele>1838.8</ele>
        <time>2021-02-27T13:15:16Z</time>
      </trkpt>
      <trkpt lat="45.23424" lon="6.17026">
        <ele>1838.8</ele>
        <time>2021-02-27T13:15:18Z</time>
      </trkpt>
      <trkpt lat="45.23425" lon="6.17029">
        <ele>1838.8</ele>
        <time>2021-02-27T13:15:20Z</time>
      </trkpt>
      <trkpt lat="45.23426" lon="6.17031">
        <ele>1839.8</ele>
        <time>2021-02-27T13:15:21Z</time>
      </trkpt>
      <trkpt lat="45.23427" lon="6.17035">
        <ele>1839.8</ele>
        <time>2021-02-27T13:15:22Z</time>
      </trkpt>
      <trkpt lat="45.23428" lon="6.17037">
        <ele>1839.8</ele>
        <time>2021-02-27T13:15:24Z</time>
      </trkpt>
      <trkpt lat="45.23429" lon="6.1704">
        <ele>1839.8</ele>
        <time>2021-02-27T13:15:26Z</time>
      </trkpt>
      <trkpt lat="45.23429" lon="6.17042">
        <ele>1839.8</ele>
        <time>2021-02-27T13:15:28Z</time>
      </trkpt>
      <trkpt lat="45.2343" lon="6.17044">
        <ele>1839.8</ele>
        <time>2021-02-27T13:15:30Z</time>
      </trkpt>
      <trkpt lat="45.2343" lon="6.17047">
        <ele>1841</ele>
        <time>2021-02-27T13:15:31Z</time>
      </trkpt>
      <trkpt lat="45.23431" lon="6.17051">
        <ele>1841</ele>
        <time>2021-02-27T13:15:32Z</time>
      </trkpt>
      <trkpt lat="45.23432" lon="6.17053">
        <ele>1841</ele>
        <time>2021-02-27T13:15:34Z</time>
      </trkpt>
      <trkpt lat="45.23433" lon="6.17055">
        <ele>1841</ele>
        <time>2021-02-27T13:15:36Z</time>
      </trkpt>
      <trkpt lat="45.23433" lon="6.17058">
        <ele>1841</ele>
        <time>2021-02-27T13:15:38Z</time>
      </trkpt>
      <trkpt lat="45.23434" lon="6.1706">
        <ele>1841</ele>
        <time>2021-02-27T13:15:40Z</time>
      </trkpt>
      <trkpt lat="45.23434" lon="6.17063">
        <ele>1842.4</ele>
        <time>2021-02-27T13:15:41Z</time>
      </trkpt>
      <trkpt lat="45.23436" lon="6.17067">
        <ele>1842.4</ele>
        <time>2021-02-27T13:15:42Z</time>
      </trkpt>
      <trkpt lat="45.23436" lon="6.17069">
        <ele>1842.4</ele>
        <time>2021-02-27T13:15:44Z</time>
      </trkpt>
      <trkpt lat="45.23437" lon="6.17072">
        <ele>1842.4</ele>
        <time>2021-02-27T13:15:46Z</time>
      </trkpt>
      <trkpt lat="45.23438" lon="6.17074">
        <ele>1842.4</ele>
        <time>2021-02-27T13:15:48Z</time>
      </trkpt>
      <trkpt lat="45.23438" lon="6.17077">
        <ele>1842.4</ele>
        <time>2021-02-27T13:15:50Z</time>
      </trkpt>
      <trkpt lat="45.23439" lon="6.17079">
        <ele>1843</ele>
        <time>2021-02-27T13:15:51Z</time>
      </trkpt>
      <trkpt lat="45.2344" lon="6.17083">
        <ele>1843</ele>
        <time>2021-02-27T13:15:52Z</time>
      </trkpt>
      <trkpt lat="45.23441" lon="6.17085">
        <ele>1843</ele>
        <time>2021-02-27T13:15:54Z</time>
      </trkpt>
      <trkpt lat="45.23442" lon="6.17088">
        <ele>1843</ele>
        <time>2021-02-27T13:15:56Z</time>
      </trkpt>
      <trkpt lat="45.23443" lon="6.1709">
        <ele>1843</ele>
        <time>2021-02-27T13:15:58Z</time>
      </trkpt>
      <trkpt lat="45.23444" lon="6.17092">
        <ele>1843</ele>
        <time>2021-02-27T13:16:00Z</time>
      </trkpt>
      <trkpt lat="45.23445" lon="6.17094">
        <ele>1844.8</ele>
        <time>2021-02-27T13:16:01Z</time>
      </trkpt>
      <trkpt lat="45.23445" lon="6.17096">
        <ele>1844.8</ele>
        <time>2021-02-27T13:16:02Z</time>
      </trkpt>
      <trkpt lat="45.23445" lon="6.17099">
        <ele>1844.8</ele>
        <time>2021-02-27T13:16:04Z</time>
      </trkpt>
      <trkpt lat="45.23447" lon="6.17101">
        <ele>1844.8</ele>
        <time>2021-02-27T13:16:06Z</time>
      </trkpt>
      <trkpt lat="45.23448" lon="6.17104">
        <ele>1844.8</ele>
        <time>2021-02-27T13:16:09Z</time>
      </trkpt>
      <trkpt lat="45.23449" lon="6.17108">
        <ele>1845.2</ele>
        <time>2021-02-27T13:16:11Z</time>
      </trkpt>
      <trkpt lat="45.2345" lon="6.17111">
        <ele>1845.2</ele>
        <time>2021-02-27T13:16:13Z</time>
      </trkpt>
      <trkpt lat="45.23452" lon="6.17114">
        <ele>1845.2</ele>
        <time>2021-02-27T13:16:15Z</time>
      </trkpt>
      <trkpt lat="45.23453" lon="6.17117">
        <ele>1845.2</ele>
        <time>2021-02-27T13:16:17Z</time>
      </trkpt>
      <trkpt lat="45.23453" lon="6.1712">
        <ele>1845.2</ele>
        <time>2021-02-27T13:16:19Z</time>
      </trkpt>
      <trkpt lat="45.23455" lon="6.17123">
        <ele>1846.2</ele>
        <time>2021-02-27T13:16:21Z</time>
      </trkpt>
      <trkpt lat="45.23456" lon="6.17126">
        <ele>1846.2</ele>
        <time>2021-02-27T13:16:23Z</time>
      </trkpt>
      <trkpt lat="45.23457" lon="6.17129">
        <ele>1846.2</ele>
        <time>2021-02-27T13:16:25Z</time>
      </trkpt>
      <trkpt lat="45.23459" lon="6.17132">
        <ele>1846.2</ele>
        <time>2021-02-27T13:16:27Z</time>
      </trkpt>
      <trkpt lat="45.23461" lon="6.17135">
        <ele>1846.2</ele>
        <time>2021-02-27T13:16:29Z</time>
      </trkpt>
      <trkpt lat="45.23462" lon="6.17138">
        <ele>1847.6</ele>
        <time>2021-02-27T13:16:31Z</time>
      </trkpt>
      <trkpt lat="45.23464" lon="6.17141">
        <ele>1847.6</ele>
        <time>2021-02-27T13:16:33Z</time>
      </trkpt>
      <trkpt lat="45.23465" lon="6.17144">
        <ele>1847.6</ele>
        <time>2021-02-27T13:16:35Z</time>
      </trkpt>
      <trkpt lat="45.23466" lon="6.17148">
        <ele>1847.6</ele>
        <time>2021-02-27T13:16:37Z</time>
      </trkpt>
      <trkpt lat="45.23467" lon="6.17151">
        <ele>1847.6</ele>
        <time>2021-02-27T13:16:39Z</time>
      </trkpt>
      <trkpt lat="45.23468" lon="6.17154">
        <ele>1849</ele>
        <time>2021-02-27T13:16:41Z</time>
      </trkpt>
      <trkpt lat="45.23469" lon="6.17157">
        <ele>1849</ele>
        <time>2021-02-27T13:16:43Z</time>
      </trkpt>
      <trkpt lat="45.2347" lon="6.1716">
        <ele>1849</ele>
        <time>2021-02-27T13:16:45Z</time>
      </trkpt>
      <trkpt lat="45.23472" lon="6.17163">
        <ele>1849</ele>
        <time>2021-02-27T13:16:47Z</time>
      </trkpt>
      <trkpt lat="45.23473" lon="6.17165">
        <ele>1849</ele>
        <time>2021-02-27T13:16:49Z</time>
      </trkpt>
      <trkpt lat="45.23474" lon="6.17168">
        <ele>1850.4</ele>
        <time>2021-02-27T13:16:51Z</time>
      </trkpt>
      <trkpt lat="45.23475" lon="6.1717">
        <ele>1850.4</ele>
        <time>2021-02-27T13:16:53Z</time>
      </trkpt>
      <trkpt lat="45.23477" lon="6.17173">
        <ele>1850.4</ele>
        <time>2021-02-27T13:16:55Z</time>
      </trkpt>
      <trkpt lat="45.23478" lon="6.17175">
        <ele>1850.4</ele>
        <time>2021-02-27T13:16:57Z</time>
      </trkpt>
      <trkpt lat="45.23479" lon="6.17178">
        <ele>1850.4</ele>
        <time>2021-02-27T13:16:59Z</time>
      </trkpt>
      <trkpt lat="45.23481" lon="6.17181">
        <ele>1851.6</ele>
        <time>2021-02-27T13:17:01Z</time>
      </trkpt>
      <trkpt lat="45.23483" lon="6.17184">
        <ele>1851.6</ele>
        <time>2021-02-27T13:17:03Z</time>
      </trkpt>
      <trkpt lat="45.23484" lon="6.17187">
        <ele>1851.6</ele>
        <time>2021-02-27T13:17:05Z</time>
      </trkpt>
      <trkpt lat="45.23485" lon="6.1719">
        <ele>1851.6</ele>
        <time>2021-02-27T13:17:07Z</time>
      </trkpt>
      <trkpt lat="45.23487" lon="6.17193">
        <ele>1851.6</ele>
        <time>2021-02-27T13:17:09Z</time>
      </trkpt>
      <trkpt lat="45.23489" lon="6.17195">
        <ele>1853</ele>
        <time>2021-02-27T13:17:11Z</time>
      </trkpt>
      <trkpt lat="45.2349" lon="6.17198">
        <ele>1853</ele>
        <time>2021-02-27T13:17:13Z</time>
      </trkpt>
      <trkpt lat="45.23492" lon="6.172">
        <ele>1853</ele>
        <time>2021-02-27T13:17:15Z</time>
      </trkpt>
      <trkpt lat="45.23493" lon="6.17203">
        <ele>1853</ele>
        <time>2021-02-27T13:17:17Z</time>
      </trkpt>
      <trkpt lat="45.23495" lon="6.17205">
        <ele>1853</ele>
        <time>2021-02-27T13:17:19Z</time>
      </trkpt>
      <trkpt lat="45.23497" lon="6.17207">
        <ele>1854.2</ele>
        <time>2021-02-27T13:17:21Z</time>
      </trkpt>
      <trkpt lat="45.23499" lon="6.17209">
        <ele>1854.2</ele>
        <time>2021-02-27T13:17:23Z</time>
      </trkpt>
      <trkpt lat="45.23501" lon="6.17211">
        <ele>1854.2</ele>
        <time>2021-02-27T13:17:25Z</time>
      </trkpt>
      <trkpt lat="45.23502" lon="6.17213">
        <ele>1854.2</ele>
        <time>2021-02-27T13:17:27Z</time>
      </trkpt>
      <trkpt lat="45.23505" lon="6.17215">
        <ele>1854.2</ele>
        <time>2021-02-27T13:17:29Z</time>
      </trkpt>
      <trkpt lat="45.23507" lon="6.17217">
        <ele>1855.2</ele>
        <time>2021-02-27T13:17:31Z</time>
      </trkpt>
      <trkpt lat="45.23509" lon="6.17218">
        <ele>1855.2</ele>
        <time>2021-02-27T13:17:33Z</time>
      </trkpt>
      <trkpt lat="45.23511" lon="6.17219">
        <ele>1855.2</ele>
        <time>2021-02-27T13:17:35Z</time>
      </trkpt>
      <trkpt lat="45.23514" lon="6.1722">
        <ele>1855.2</ele>
        <time>2021-02-27T13:17:37Z</time>
      </trkpt>
      <trkpt lat="45.23515" lon="6.17222">
        <ele>1855.2</ele>
        <time>2021-02-27T13:17:39Z</time>
      </trkpt>
      <trkpt lat="45.23517" lon="6.17224">
        <ele>1855.6</ele>
        <time>2021-02-27T13:17:41Z</time>
      </trkpt>
      <trkpt lat="45.23519" lon="6.17225">
        <ele>1855.6</ele>
        <time>2021-02-27T13:17:43Z</time>
      </trkpt>
      <trkpt lat="45.23522" lon="6.17227">
        <ele>1855.6</ele>
        <time>2021-02-27T13:17:45Z</time>
      </trkpt>
      <trkpt lat="45.23524" lon="6.17229">
        <ele>1855.6</ele>
        <time>2021-02-27T13:17:47Z</time>
      </trkpt>
      <trkpt lat="45.23526" lon="6.1723">
        <ele>1855.6</ele>
        <time>2021-02-27T13:17:49Z</time>
      </trkpt>
      <trkpt lat="45.23529" lon="6.17232">
        <ele>1855.8</ele>
        <time>2021-02-27T13:17:51Z</time>
      </trkpt>
      <trkpt lat="45.23531" lon="6.17234">
        <ele>1855.8</ele>
        <time>2021-02-27T13:17:53Z</time>
      </trkpt>
      <trkpt lat="45.23534" lon="6.17235">
        <ele>1855.8</ele>
        <time>2021-02-27T13:17:55Z</time>
      </trkpt>
      <trkpt lat="45.23536" lon="6.17236">
        <ele>1855.8</ele>
        <time>2021-02-27T13:17:57Z</time>
      </trkpt>
      <trkpt lat="45.23539" lon="6.17237">
        <ele>1855.8</ele>
        <time>2021-02-27T13:17:59Z</time>
      </trkpt>
      <trkpt lat="45.23541" lon="6.17238">
        <ele>1855.4</ele>
        <time>2021-02-27T13:18:01Z</time>
      </trkpt>
      <trkpt lat="45.23543" lon="6.1724">
        <ele>1855.4</ele>
        <time>2021-02-27T13:18:03Z</time>
      </trkpt>
      <trkpt lat="45.23545" lon="6.17242">
        <ele>1855.4</ele>
        <time>2021-02-27T13:18:05Z</time>
      </trkpt>
      <trkpt lat="45.23547" lon="6.17244">
        <ele>1855.4</ele>
        <time>2021-02-27T13:18:07Z</time>
      </trkpt>
      <trkpt lat="45.23548" lon="6.17245">
        <ele>1855.4</ele>
        <time>2021-02-27T13:18:09Z</time>
      </trkpt>
      <trkpt lat="45.2355" lon="6.17247">
        <ele>1857.2</ele>
        <time>2021-02-27T13:18:11Z</time>
      </trkpt>
      <trkpt lat="45.23552" lon="6.17249">
        <ele>1857.2</ele>
        <time>2021-02-27T13:18:13Z</time>
      </trkpt>
      <trkpt lat="45.23554" lon="6.17251">
        <ele>1857.2</ele>
        <time>2021-02-27T13:18:15Z</time>
      </trkpt>
      <trkpt lat="45.23556" lon="6.17253">
        <ele>1857.2</ele>
        <time>2021-02-27T13:18:17Z</time>
      </trkpt>
      <trkpt lat="45.23557" lon="6.17255">
        <ele>1857.2</ele>
        <time>2021-02-27T13:18:19Z</time>
      </trkpt>
      <trkpt lat="45.23559" lon="6.17257">
        <ele>1856.8</ele>
        <time>2021-02-27T13:18:21Z</time>
      </trkpt>
      <trkpt lat="45.23562" lon="6.1726">
        <ele>1856.8</ele>
        <time>2021-02-27T13:18:22Z</time>
      </trkpt>
      <trkpt lat="45.23563" lon="6.17262">
        <ele>1856.8</ele>
        <time>2021-02-27T13:18:24Z</time>
      </trkpt>
      <trkpt lat="45.23564" lon="6.17264">
        <ele>1856.8</ele>
        <time>2021-02-27T13:18:26Z</time>
      </trkpt>
      <trkpt lat="45.23566" lon="6.17266">
        <ele>1856.8</ele>
        <time>2021-02-27T13:18:28Z</time>
      </trkpt>
      <trkpt lat="45.23567" lon="6.17268">
        <ele>1856.8</ele>
        <time>2021-02-27T13:18:30Z</time>
      </trkpt>
      <trkpt lat="45.23568" lon="6.1727">
        <ele>1858.8</ele>
        <time>2021-02-27T13:18:31Z</time>
      </trkpt>
      <trkpt lat="45.23571" lon="6.17273">
        <ele>1858.8</ele>
        <time>2021-02-27T13:18:32Z</time>
      </trkpt>
      <trkpt lat="45.23572" lon="6.17275">
        <ele>1858.8</ele>
        <time>2021-02-27T13:18:34Z</time>
      </trkpt>
      <trkpt lat="45.23573" lon="6.17277">
        <ele>1858.8</ele>
        <time>2021-02-27T13:18:36Z</time>
      </trkpt>
      <trkpt lat="45.23574" lon="6.17279">
        <ele>1858.8</ele>
        <time>2021-02-27T13:18:38Z</time>
      </trkpt>
      <trkpt lat="45.23576" lon="6.1728">
        <ele>1858.8</ele>
        <time>2021-02-27T13:18:40Z</time>
      </trkpt>
      <trkpt lat="45.23577" lon="6.17282">
        <ele>1859.2</ele>
        <time>2021-02-27T13:18:41Z</time>
      </trkpt>
      <trkpt lat="45.23579" lon="6.17285">
        <ele>1859.2</ele>
        <time>2021-02-27T13:18:42Z</time>
      </trkpt>
      <trkpt lat="45.2358" lon="6.17287">
        <ele>1859.2</ele>
        <time>2021-02-27T13:18:44Z</time>
      </trkpt>
      <trkpt lat="45.23581" lon="6.17289">
        <ele>1859.2</ele>
        <time>2021-02-27T13:18:46Z</time>
      </trkpt>
      <trkpt lat="45.23582" lon="6.17291">
        <ele>1859.2</ele>
        <time>2021-02-27T13:18:48Z</time>
      </trkpt>
      <trkpt lat="45.23583" lon="6.17293">
        <ele>1859.2</ele>
        <time>2021-02-27T13:18:50Z</time>
      </trkpt>
      <trkpt lat="45.23584" lon="6.17295">
        <ele>1860.4</ele>
        <time>2021-02-27T13:18:51Z</time>
      </trkpt>
      <trkpt lat="45.23586" lon="6.17299">
        <ele>1860.4</ele>
        <time>2021-02-27T13:18:52Z</time>
      </trkpt>
      <trkpt lat="45.23587" lon="6.17301">
        <ele>1860.4</ele>
        <time>2021-02-27T13:18:54Z</time>
      </trkpt>
      <trkpt lat="45.23588" lon="6.17303">
        <ele>1860.4</ele>
        <time>2021-02-27T13:18:56Z</time>
      </trkpt>
      <trkpt lat="45.23589" lon="6.17305">
        <ele>1860.4</ele>
        <time>2021-02-27T13:18:58Z</time>
      </trkpt>
      <trkpt lat="45.2359" lon="6.17307">
        <ele>1860.4</ele>
        <time>2021-02-27T13:19:00Z</time>
      </trkpt>
      <trkpt lat="45.23591" lon="6.1731">
        <ele>1861.6</ele>
        <time>2021-02-27T13:19:01Z</time>
      </trkpt>
      <trkpt lat="45.23593" lon="6.17313">
        <ele>1861.6</ele>
        <time>2021-02-27T13:19:02Z</time>
      </trkpt>
      <trkpt lat="45.23594" lon="6.17315">
        <ele>1861.6</ele>
        <time>2021-02-27T13:19:04Z</time>
      </trkpt>
      <trkpt lat="45.23595" lon="6.17317">
        <ele>1861.6</ele>
        <time>2021-02-27T13:19:06Z</time>
      </trkpt>
      <trkpt lat="45.23596" lon="6.17319">
        <ele>1861.6</ele>
        <time>2021-02-27T13:19:08Z</time>
      </trkpt>
      <trkpt lat="45.23597" lon="6.17322">
        <ele>1861.6</ele>
        <time>2021-02-27T13:19:10Z</time>
      </trkpt>
      <trkpt lat="45.23598" lon="6.17324">
        <ele>1862</ele>
        <time>2021-02-27T13:19:11Z</time>
      </trkpt>
      <trkpt lat="45.23599" lon="6.17327">
        <ele>1862</ele>
        <time>2021-02-27T13:19:12Z</time>
      </trkpt>
      <trkpt lat="45.236" lon="6.17329">
        <ele>1862</ele>
        <time>2021-02-27T13:19:14Z</time>
      </trkpt>
      <trkpt lat="45.23601" lon="6.17331">
        <ele>1862</ele>
        <time>2021-02-27T13:19:16Z</time>
      </trkpt>
      <trkpt lat="45.23602" lon="6.17333">
        <ele>1862</ele>
        <time>2021-02-27T13:19:18Z</time>
      </trkpt>
      <trkpt lat="45.23603" lon="6.17335">
        <ele>1862</ele>
        <time>2021-02-27T13:19:20Z</time>
      </trkpt>
      <trkpt lat="45.23604" lon="6.17337">
        <ele>1863.6</ele>
        <time>2021-02-27T13:19:21Z</time>
      </trkpt>
      <trkpt lat="45.23605" lon="6.17338">
        <ele>1863.6</ele>
        <time>2021-02-27T13:19:22Z</time>
      </trkpt>
      <trkpt lat="45.23606" lon="6.17341">
        <ele>1863.6</ele>
        <time>2021-02-27T13:19:24Z</time>
      </trkpt>
      <trkpt lat="45.23608" lon="6.17343">
        <ele>1863.6</ele>
        <time>2021-02-27T13:19:26Z</time>
      </trkpt>
      <trkpt lat="45.23609" lon="6.17345">
        <ele>1863.6</ele>
        <time>2021-02-27T13:19:28Z</time>
      </trkpt>
      <trkpt lat="45.23611" lon="6.17348">
        <ele>1864.6</ele>
        <time>2021-02-27T13:19:31Z</time>
      </trkpt>
      <trkpt lat="45.23613" lon="6.17351">
        <ele>1864.6</ele>
        <time>2021-02-27T13:19:34Z</time>
      </trkpt>
      <trkpt lat="45.23616" lon="6.17352">
        <ele>1864.6</ele>
        <time>2021-02-27T13:19:36Z</time>
      </trkpt>
      <trkpt lat="45.23618" lon="6.17355">
        <ele>1864.6</ele>
        <time>2021-02-27T13:19:39Z</time>
      </trkpt>
      <trkpt lat="45.23621" lon="6.17356">
        <ele>1865.8</ele>
        <time>2021-02-27T13:19:41Z</time>
      </trkpt>
      <trkpt lat="45.23622" lon="6.17356">
        <ele>1865.8</ele>
        <time>2021-02-27T13:19:43Z</time>
      </trkpt>
      <trkpt lat="45.23625" lon="6.17358">
        <ele>1865.8</ele>
        <time>2021-02-27T13:19:45Z</time>
      </trkpt>
      <trkpt lat="45.23628" lon="6.17359">
        <ele>1865.8</ele>
        <time>2021-02-27T13:19:47Z</time>
      </trkpt>
      <trkpt lat="45.2363" lon="6.17361">
        <ele>1865.8</ele>
        <time>2021-02-27T13:19:49Z</time>
      </trkpt>
      <trkpt lat="45.23632" lon="6.17362">
        <ele>1866.8</ele>
        <time>2021-02-27T13:19:51Z</time>
      </trkpt>
      <trkpt lat="45.23634" lon="6.17364">
        <ele>1866.8</ele>
        <time>2021-02-27T13:19:53Z</time>
      </trkpt>
      <trkpt lat="45.23636" lon="6.17366">
        <ele>1866.8</ele>
        <time>2021-02-27T13:19:55Z</time>
      </trkpt>
      <trkpt lat="45.23637" lon="6.17369">
        <ele>1866.8</ele>
        <time>2021-02-27T13:19:57Z</time>
      </trkpt>
      <trkpt lat="45.23638" lon="6.17371">
        <ele>1866.8</ele>
        <time>2021-02-27T13:19:59Z</time>
      </trkpt>
      <trkpt lat="45.2364" lon="6.17374">
        <ele>1867.6</ele>
        <time>2021-02-27T13:20:01Z</time>
      </trkpt>
      <trkpt lat="45.23641" lon="6.17377">
        <ele>1867.6</ele>
        <time>2021-02-27T13:20:03Z</time>
      </trkpt>
      <trkpt lat="45.23643" lon="6.17379">
        <ele>1867.6</ele>
        <time>2021-02-27T13:20:05Z</time>
      </trkpt>
      <trkpt lat="45.23645" lon="6.17383">
        <ele>1867.6</ele>
        <time>2021-02-27T13:20:07Z</time>
      </trkpt>
      <trkpt lat="45.23646" lon="6.17385">
        <ele>1867.6</ele>
        <time>2021-02-27T13:20:09Z</time>
      </trkpt>
      <trkpt lat="45.23646" lon="6.17388">
        <ele>1868.8</ele>
        <time>2021-02-27T13:20:11Z</time>
      </trkpt>
      <trkpt lat="45.23648" lon="6.17392">
        <ele>1868.8</ele>
        <time>2021-02-27T13:20:13Z</time>
      </trkpt>
      <trkpt lat="45.23649" lon="6.17394">
        <ele>1868.8</ele>
        <time>2021-02-27T13:20:15Z</time>
      </trkpt>
      <trkpt lat="45.23651" lon="6.17397">
        <ele>1868.8</ele>
        <time>2021-02-27T13:20:17Z</time>
      </trkpt>
      <trkpt lat="45.23651" lon="6.174">
        <ele>1868.8</ele>
        <time>2021-02-27T13:20:19Z</time>
      </trkpt>
      <trkpt lat="45.23652" lon="6.17402">
        <ele>1870.6</ele>
        <time>2021-02-27T13:20:21Z</time>
      </trkpt>
      <trkpt lat="45.23654" lon="6.17406">
        <ele>1870.6</ele>
        <time>2021-02-27T13:20:23Z</time>
      </trkpt>
      <trkpt lat="45.23655" lon="6.17408">
        <ele>1870.6</ele>
        <time>2021-02-27T13:20:25Z</time>
      </trkpt>
      <trkpt lat="45.23657" lon="6.17411">
        <ele>1870.6</ele>
        <time>2021-02-27T13:20:27Z</time>
      </trkpt>
      <trkpt lat="45.23658" lon="6.17414">
        <ele>1870.6</ele>
        <time>2021-02-27T13:20:29Z</time>
      </trkpt>
      <trkpt lat="45.2366" lon="6.17417">
        <ele>1871.2</ele>
        <time>2021-02-27T13:20:31Z</time>
      </trkpt>
      <trkpt lat="45.23661" lon="6.1742">
        <ele>1871.2</ele>
        <time>2021-02-27T13:20:33Z</time>
      </trkpt>
      <trkpt lat="45.23662" lon="6.17422">
        <ele>1871.2</ele>
        <time>2021-02-27T13:20:35Z</time>
      </trkpt>
      <trkpt lat="45.23663" lon="6.17425">
        <ele>1871.2</ele>
        <time>2021-02-27T13:20:37Z</time>
      </trkpt>
      <trkpt lat="45.23663" lon="6.17429">
        <ele>1871.2</ele>
        <time>2021-02-27T13:20:39Z</time>
      </trkpt>
      <trkpt lat="45.23665" lon="6.17432">
        <ele>1872.6</ele>
        <time>2021-02-27T13:20:41Z</time>
      </trkpt>
      <trkpt lat="45.23666" lon="6.17435">
        <ele>1872.6</ele>
        <time>2021-02-27T13:20:43Z</time>
      </trkpt>
      <trkpt lat="45.23667" lon="6.17438">
        <ele>1872.6</ele>
        <time>2021-02-27T13:20:45Z</time>
      </trkpt>
      <trkpt lat="45.23669" lon="6.17441">
        <ele>1872.6</ele>
        <time>2021-02-27T13:20:47Z</time>
      </trkpt>
      <trkpt lat="45.23669" lon="6.17444">
        <ele>1872.6</ele>
        <time>2021-02-27T13:20:49Z</time>
      </trkpt>
      <trkpt lat="45.23671" lon="6.17447">
        <ele>1873.8</ele>
        <time>2021-02-27T13:20:51Z</time>
      </trkpt>
      <trkpt lat="45.23672" lon="6.17452">
        <ele>1873.8</ele>
        <time>2021-02-27T13:20:53Z</time>
      </trkpt>
      <trkpt lat="45.23673" lon="6.17454">
        <ele>1873.8</ele>
        <time>2021-02-27T13:20:55Z</time>
      </trkpt>
      <trkpt lat="45.23674" lon="6.17456">
        <ele>1873.8</ele>
        <time>2021-02-27T13:20:57Z</time>
      </trkpt>
      <trkpt lat="45.23675" lon="6.17457">
        <ele>1873.8</ele>
        <time>2021-02-27T13:21:00Z</time>
      </trkpt>
      <trkpt lat="45.23676" lon="6.17459">
        <ele>1874.2</ele>
        <time>2021-02-27T13:21:01Z</time>
      </trkpt>
      <trkpt lat="45.23678" lon="6.17462">
        <ele>1874.2</ele>
        <time>2021-02-27T13:21:02Z</time>
      </trkpt>
      <trkpt lat="45.2368" lon="6.17464">
        <ele>1874.2</ele>
        <time>2021-02-27T13:21:04Z</time>
      </trkpt>
      <trkpt lat="45.23681" lon="6.17465">
        <ele>1874.2</ele>
        <time>2021-02-27T13:21:06Z</time>
      </trkpt>
      <trkpt lat="45.23682" lon="6.17467">
        <ele>1874.2</ele>
        <time>2021-02-27T13:21:08Z</time>
      </trkpt>
      <trkpt lat="45.23684" lon="6.17468">
        <ele>1874.2</ele>
        <time>2021-02-27T13:21:10Z</time>
      </trkpt>
      <trkpt lat="45.23685" lon="6.1747">
        <ele>1876.2</ele>
        <time>2021-02-27T13:21:11Z</time>
      </trkpt>
      <trkpt lat="45.23686" lon="6.17471">
        <ele>1876.2</ele>
        <time>2021-02-27T13:21:12Z</time>
      </trkpt>
      <trkpt lat="45.23688" lon="6.17473">
        <ele>1876.2</ele>
        <time>2021-02-27T13:21:14Z</time>
      </trkpt>
      <trkpt lat="45.2369" lon="6.17474">
        <ele>1876.2</ele>
        <time>2021-02-27T13:21:16Z</time>
      </trkpt>
      <trkpt lat="45.23692" lon="6.17476">
        <ele>1876.2</ele>
        <time>2021-02-27T13:21:18Z</time>
      </trkpt>
      <trkpt lat="45.23694" lon="6.17478">
        <ele>1878</ele>
        <time>2021-02-27T13:21:21Z</time>
      </trkpt>
      <trkpt lat="45.23697" lon="6.1748">
        <ele>1878</ele>
        <time>2021-02-27T13:21:23Z</time>
      </trkpt>
      <trkpt lat="45.23699" lon="6.1748">
        <ele>1878</ele>
        <time>2021-02-27T13:21:26Z</time>
      </trkpt>
      <trkpt lat="45.23701" lon="6.17481">
        <ele>1878</ele>
        <time>2021-02-27T13:21:28Z</time>
      </trkpt>
      <trkpt lat="45.23704" lon="6.17483">
        <ele>1879.2</ele>
        <time>2021-02-27T13:21:31Z</time>
      </trkpt>
      <trkpt lat="45.23706" lon="6.17483">
        <ele>1879.2</ele>
        <time>2021-02-27T13:21:34Z</time>
      </trkpt>
      <trkpt lat="45.23709" lon="6.17484">
        <ele>1879.2</ele>
        <time>2021-02-27T13:21:36Z</time>
      </trkpt>
      <trkpt lat="45.23711" lon="6.17484">
        <ele>1879.2</ele>
        <time>2021-02-27T13:21:39Z</time>
      </trkpt>
      <trkpt lat="45.23713" lon="6.17485">
        <ele>1881.2</ele>
        <time>2021-02-27T13:21:41Z</time>
      </trkpt>
      <trkpt lat="45.23715" lon="6.17486">
        <ele>1881.2</ele>
        <time>2021-02-27T13:21:42Z</time>
      </trkpt>
      <trkpt lat="45.23717" lon="6.17487">
        <ele>1881.2</ele>
        <time>2021-02-27T13:21:44Z</time>
      </trkpt>
      <trkpt lat="45.2372" lon="6.17488">
        <ele>1881.2</ele>
        <time>2021-02-27T13:21:46Z</time>
      </trkpt>
      <trkpt lat="45.23723" lon="6.1749">
        <ele>1881.2</ele>
        <time>2021-02-27T13:21:49Z</time>
      </trkpt>
      <trkpt lat="45.23725" lon="6.17492">
        <ele>1882.6</ele>
        <time>2021-02-27T13:21:51Z</time>
      </trkpt>
      <trkpt lat="45.23727" lon="6.17493">
        <ele>1882.6</ele>
        <time>2021-02-27T13:21:53Z</time>
      </trkpt>
      <trkpt lat="45.2373" lon="6.17495">
        <ele>1882.6</ele>
        <time>2021-02-27T13:21:55Z</time>
      </trkpt>
      <trkpt lat="45.23732" lon="6.17497">
        <ele>1882.6</ele>
        <time>2021-02-27T13:21:57Z</time>
      </trkpt>
      <trkpt lat="45.23733" lon="6.17499">
        <ele>1882.6</ele>
        <time>2021-02-27T13:21:59Z</time>
      </trkpt>
      <trkpt lat="45.23736" lon="6.175">
        <ele>1883</ele>
        <time>2021-02-27T13:22:01Z</time>
      </trkpt>
      <trkpt lat="45.23738" lon="6.17502">
        <ele>1883</ele>
        <time>2021-02-27T13:22:03Z</time>
      </trkpt>
      <trkpt lat="45.23739" lon="6.17504">
        <ele>1883</ele>
        <time>2021-02-27T13:22:05Z</time>
      </trkpt>
      <trkpt lat="45.23741" lon="6.17506">
        <ele>1883</ele>
        <time>2021-02-27T13:22:07Z</time>
      </trkpt>
      <trkpt lat="45.23743" lon="6.17508">
        <ele>1883</ele>
        <time>2021-02-27T13:22:09Z</time>
      </trkpt>
      <trkpt lat="45.23745" lon="6.17509">
        <ele>1884.2</ele>
        <time>2021-02-27T13:22:11Z</time>
      </trkpt>
      <trkpt lat="45.23749" lon="6.17512">
        <ele>1884.2</ele>
        <time>2021-02-27T13:22:13Z</time>
      </trkpt>
      <trkpt lat="45.2375" lon="6.17512">
        <ele>1884.2</ele>
        <time>2021-02-27T13:22:15Z</time>
      </trkpt>
      <trkpt lat="45.23752" lon="6.17513">
        <ele>1884.2</ele>
        <time>2021-02-27T13:22:17Z</time>
      </trkpt>
      <trkpt lat="45.23753" lon="6.17514">
        <ele>1884.2</ele>
        <time>2021-02-27T13:22:20Z</time>
      </trkpt>
      <trkpt lat="45.23754" lon="6.17515">
        <ele>1886</ele>
        <time>2021-02-27T13:22:21Z</time>
      </trkpt>
      <trkpt lat="45.23757" lon="6.17516">
        <ele>1886</ele>
        <time>2021-02-27T13:22:22Z</time>
      </trkpt>
      <trkpt lat="45.23759" lon="6.17517">
        <ele>1886</ele>
        <time>2021-02-27T13:22:24Z</time>
      </trkpt>
      <trkpt lat="45.23761" lon="6.17517">
        <ele>1886</ele>
        <time>2021-02-27T13:22:26Z</time>
      </trkpt>
      <trkpt lat="45.23762" lon="6.17518">
        <ele>1886</ele>
        <time>2021-02-27T13:22:28Z</time>
      </trkpt>
      <trkpt lat="45.23764" lon="6.17518">
        <ele>1886</ele>
        <time>2021-02-27T13:22:30Z</time>
      </trkpt>
      <trkpt lat="45.23766" lon="6.17519">
        <ele>1887.4</ele>
        <time>2021-02-27T13:22:31Z</time>
      </trkpt>
      <trkpt lat="45.23769" lon="6.1752">
        <ele>1887.4</ele>
        <time>2021-02-27T13:22:33Z</time>
      </trkpt>
      <trkpt lat="45.2377" lon="6.1752">
        <ele>1887.4</ele>
        <time>2021-02-27T13:22:35Z</time>
      </trkpt>
      <trkpt lat="45.23772" lon="6.1752">
        <ele>1887.4</ele>
        <time>2021-02-27T13:22:37Z</time>
      </trkpt>
      <trkpt lat="45.23773" lon="6.1752">
        <ele>1887.4</ele>
        <time>2021-02-27T13:22:40Z</time>
      </trkpt>
      <trkpt lat="45.23775" lon="6.1752">
        <ele>1889.4</ele>
        <time>2021-02-27T13:22:41Z</time>
      </trkpt>
      <trkpt lat="45.23779" lon="6.17522">
        <ele>1889.4</ele>
        <time>2021-02-27T13:22:42Z</time>
      </trkpt>
      <trkpt lat="45.23781" lon="6.17523">
        <ele>1889.4</ele>
        <time>2021-02-27T13:22:44Z</time>
      </trkpt>
      <trkpt lat="45.23782" lon="6.17523">
        <ele>1889.4</ele>
        <time>2021-02-27T13:22:46Z</time>
      </trkpt>
      <trkpt lat="45.23784" lon="6.17524">
        <ele>1889.4</ele>
        <time>2021-02-27T13:22:48Z</time>
      </trkpt>
      <trkpt lat="45.23786" lon="6.17525">
        <ele>1889.4</ele>
        <time>2021-02-27T13:22:50Z</time>
      </trkpt>
      <trkpt lat="45.23788" lon="6.17525">
        <ele>1889.6</ele>
        <time>2021-02-27T13:22:51Z</time>
      </trkpt>
      <trkpt lat="45.23791" lon="6.17527">
        <ele>1889.6</ele>
        <time>2021-02-27T13:22:52Z</time>
      </trkpt>
      <trkpt lat="45.23792" lon="6.17528">
        <ele>1889.6</ele>
        <time>2021-02-27T13:22:54Z</time>
      </trkpt>
      <trkpt lat="45.23794" lon="6.17529">
        <ele>1889.6</ele>
        <time>2021-02-27T13:22:56Z</time>
      </trkpt>
      <trkpt lat="45.23796" lon="6.1753">
        <ele>1889.6</ele>
        <time>2021-02-27T13:22:58Z</time>
      </trkpt>
      <trkpt lat="45.23797" lon="6.17531">
        <ele>1889.6</ele>
        <time>2021-02-27T13:23:00Z</time>
      </trkpt>
      <trkpt lat="45.23799" lon="6.17532">
        <ele>1890</ele>
        <time>2021-02-27T13:23:01Z</time>
      </trkpt>
      <trkpt lat="45.23802" lon="6.17533">
        <ele>1890</ele>
        <time>2021-02-27T13:23:02Z</time>
      </trkpt>
      <trkpt lat="45.23803" lon="6.17534">
        <ele>1890</ele>
        <time>2021-02-27T13:23:04Z</time>
      </trkpt>
      <trkpt lat="45.23804" lon="6.17535">
        <ele>1890</ele>
        <time>2021-02-27T13:23:06Z</time>
      </trkpt>
      <trkpt lat="45.23806" lon="6.17536">
        <ele>1890</ele>
        <time>2021-02-27T13:23:08Z</time>
      </trkpt>
      <trkpt lat="45.23807" lon="6.17536">
        <ele>1890</ele>
        <time>2021-02-27T13:23:10Z</time>
      </trkpt>
      <trkpt lat="45.23809" lon="6.17537">
        <ele>1891.2</ele>
        <time>2021-02-27T13:23:11Z</time>
      </trkpt>
      <trkpt lat="45.2381" lon="6.17538">
        <ele>1891.2</ele>
        <time>2021-02-27T13:23:13Z</time>
      </trkpt>
      <trkpt lat="45.23813" lon="6.17539">
        <ele>1891.2</ele>
        <time>2021-02-27T13:23:15Z</time>
      </trkpt>
      <trkpt lat="45.23815" lon="6.17541">
        <ele>1891.2</ele>
        <time>2021-02-27T13:23:17Z</time>
      </trkpt>
      <trkpt lat="45.23817" lon="6.17543">
        <ele>1891.2</ele>
        <time>2021-02-27T13:23:19Z</time>
      </trkpt>
      <trkpt lat="45.23819" lon="6.17545">
        <ele>1891.6</ele>
        <time>2021-02-27T13:23:21Z</time>
      </trkpt>
      <trkpt lat="45.23821" lon="6.17546">
        <ele>1891.6</ele>
        <time>2021-02-27T13:23:23Z</time>
      </trkpt>
      <trkpt lat="45.23823" lon="6.17549">
        <ele>1891.6</ele>
        <time>2021-02-27T13:23:25Z</time>
      </trkpt>
      <trkpt lat="45.23825" lon="6.17551">
        <ele>1891.6</ele>
        <time>2021-02-27T13:23:27Z</time>
      </trkpt>
      <trkpt lat="45.23827" lon="6.17553">
        <ele>1891.6</ele>
        <time>2021-02-27T13:23:29Z</time>
      </trkpt>
      <trkpt lat="45.23829" lon="6.17555">
        <ele>1893.6</ele>
        <time>2021-02-27T13:23:31Z</time>
      </trkpt>
      <trkpt lat="45.23831" lon="6.17557">
        <ele>1893.6</ele>
        <time>2021-02-27T13:23:33Z</time>
      </trkpt>
      <trkpt lat="45.23833" lon="6.17559">
        <ele>1893.6</ele>
        <time>2021-02-27T13:23:35Z</time>
      </trkpt>
      <trkpt lat="45.23834" lon="6.17562">
        <ele>1893.6</ele>
        <time>2021-02-27T13:23:37Z</time>
      </trkpt>
      <trkpt lat="45.23836" lon="6.17564">
        <ele>1893.6</ele>
        <time>2021-02-27T13:23:39Z</time>
      </trkpt>
      <trkpt lat="45.23837" lon="6.17567">
        <ele>1894.4</ele>
        <time>2021-02-27T13:23:41Z</time>
      </trkpt>
      <trkpt lat="45.2384" lon="6.1757">
        <ele>1894.4</ele>
        <time>2021-02-27T13:23:43Z</time>
      </trkpt>
      <trkpt lat="45.23842" lon="6.17572">
        <ele>1894.4</ele>
        <time>2021-02-27T13:23:45Z</time>
      </trkpt>
      <trkpt lat="45.23843" lon="6.17574">
        <ele>1894.4</ele>
        <time>2021-02-27T13:23:47Z</time>
      </trkpt>
      <trkpt lat="45.23844" lon="6.17576">
        <ele>1894.4</ele>
        <time>2021-02-27T13:23:50Z</time>
      </trkpt>
      <trkpt lat="45.23846" lon="6.17578">
        <ele>1895.6</ele>
        <time>2021-02-27T13:23:51Z</time>
      </trkpt>
      <trkpt lat="45.23847" lon="6.17582">
        <ele>1895.6</ele>
        <time>2021-02-27T13:23:52Z</time>
      </trkpt>
      <trkpt lat="45.23848" lon="6.17584">
        <ele>1895.6</ele>
        <time>2021-02-27T13:23:54Z</time>
      </trkpt>
      <trkpt lat="45.23849" lon="6.17586">
        <ele>1895.6</ele>
        <time>2021-02-27T13:23:56Z</time>
      </trkpt>
      <trkpt lat="45.2385" lon="6.17589">
        <ele>1895.6</ele>
        <time>2021-02-27T13:23:58Z</time>
      </trkpt>
      <trkpt lat="45.2385" lon="6.17591">
        <ele>1895.6</ele>
        <time>2021-02-27T13:24:00Z</time>
      </trkpt>
      <trkpt lat="45.23851" lon="6.17593">
        <ele>1896.4</ele>
        <time>2021-02-27T13:24:01Z</time>
      </trkpt>
      <trkpt lat="45.23852" lon="6.17596">
        <ele>1896.4</ele>
        <time>2021-02-27T13:24:02Z</time>
      </trkpt>
      <trkpt lat="45.23852" lon="6.17598">
        <ele>1896.4</ele>
        <time>2021-02-27T13:24:04Z</time>
      </trkpt>
      <trkpt lat="45.23853" lon="6.17599">
        <ele>1896.4</ele>
        <time>2021-02-27T13:24:06Z</time>
      </trkpt>
      <trkpt lat="45.23853" lon="6.17601">
        <ele>1897.6</ele>
        <time>2021-02-27T13:24:11Z</time>
      </trkpt>
      <trkpt lat="45.23854" lon="6.17602">
        <ele>1898</ele>
        <time>2021-02-27T13:24:21Z</time>
      </trkpt>
      <trkpt lat="45.23854" lon="6.17603">
        <ele>1897.6</ele>
        <time>2021-02-27T13:24:31Z</time>
      </trkpt>
      <trkpt lat="45.23854" lon="6.17605">
        <ele>1898</ele>
        <time>2021-02-27T13:24:41Z</time>
      </trkpt>
      <trkpt lat="45.23855" lon="6.17606">
        <ele>1898.2</ele>
        <time>2021-02-27T13:24:51Z</time>
      </trkpt>
      <trkpt lat="45.23855" lon="6.17608">
        <ele>1898.4</ele>
        <time>2021-02-27T13:25:01Z</time>
      </trkpt>
      <trkpt lat="45.23856" lon="6.17609">
        <ele>1898.4</ele>
        <time>2021-02-27T13:25:02Z</time>
      </trkpt>
      <trkpt lat="45.23856" lon="6.1761">
        <ele>1898.4</ele>
        <time>2021-02-27T13:25:04Z</time>
      </trkpt>
      <trkpt lat="45.23856" lon="6.17612">
        <ele>1898.4</ele>
        <time>2021-02-27T13:25:06Z</time>
      </trkpt>
      <trkpt lat="45.23857" lon="6.17613">
        <ele>1898.4</ele>
        <time>2021-02-27T13:25:08Z</time>
      </trkpt>
      <trkpt lat="45.23857" lon="6.17615">
        <ele>1898.4</ele>
        <time>2021-02-27T13:25:10Z</time>
      </trkpt>
      <trkpt lat="45.23858" lon="6.17616">
        <ele>1898.8</ele>
        <time>2021-02-27T13:25:11Z</time>
      </trkpt>
      <trkpt lat="45.23858" lon="6.1762">
        <ele>1898.8</ele>
        <time>2021-02-27T13:25:12Z</time>
      </trkpt>
      <trkpt lat="45.23858" lon="6.17622">
        <ele>1898.8</ele>
        <time>2021-02-27T13:25:14Z</time>
      </trkpt>
      <trkpt lat="45.23857" lon="6.17625">
        <ele>1898.8</ele>
        <time>2021-02-27T13:25:16Z</time>
      </trkpt>
      <trkpt lat="45.23857" lon="6.17627">
        <ele>1898.8</ele>
        <time>2021-02-27T13:25:18Z</time>
      </trkpt>
      <trkpt lat="45.23857" lon="6.17629">
        <ele>1898.8</ele>
        <time>2021-02-27T13:25:20Z</time>
      </trkpt>
      <trkpt lat="45.23857" lon="6.17631">
        <ele>1899.8</ele>
        <time>2021-02-27T13:25:21Z</time>
      </trkpt>
      <trkpt lat="45.23856" lon="6.17633">
        <ele>1899.8</ele>
        <time>2021-02-27T13:25:22Z</time>
      </trkpt>
      <trkpt lat="45.23857" lon="6.17636">
        <ele>1899.8</ele>
        <time>2021-02-27T13:25:24Z</time>
      </trkpt>
      <trkpt lat="45.23856" lon="6.17639">
        <ele>1899.8</ele>
        <time>2021-02-27T13:25:26Z</time>
      </trkpt>
      <trkpt lat="45.23855" lon="6.17642">
        <ele>1899.8</ele>
        <time>2021-02-27T13:25:29Z</time>
      </trkpt>
      <trkpt lat="45.23855" lon="6.17642">
        <ele>1900.6</ele>
        <time>2021-02-27T13:25:31Z</time>
      </trkpt>
      <trkpt lat="45.23856" lon="6.17648">
        <ele>1900.6</ele>
        <time>2021-02-27T13:25:33Z</time>
      </trkpt>
      <trkpt lat="45.23856" lon="6.1765">
        <ele>1900.6</ele>
        <time>2021-02-27T13:25:35Z</time>
      </trkpt>
      <trkpt lat="45.23857" lon="6.17652">
        <ele>1900.6</ele>
        <time>2021-02-27T13:25:37Z</time>
      </trkpt>
      <trkpt lat="45.23857" lon="6.17654">
        <ele>1900.6</ele>
        <time>2021-02-27T13:25:40Z</time>
      </trkpt>
      <trkpt lat="45.23858" lon="6.17656">
        <ele>1901.2</ele>
        <time>2021-02-27T13:25:41Z</time>
      </trkpt>
      <trkpt lat="45.23858" lon="6.1766">
        <ele>1901.2</ele>
        <time>2021-02-27T13:25:42Z</time>
      </trkpt>
      <trkpt lat="45.23858" lon="6.17662">
        <ele>1901.2</ele>
        <time>2021-02-27T13:25:45Z</time>
      </trkpt>
      <trkpt lat="45.23858" lon="6.17664">
        <ele>1901.2</ele>
        <time>2021-02-27T13:25:48Z</time>
      </trkpt>
      <trkpt lat="45.23858" lon="6.17666">
        <ele>1901.2</ele>
        <time>2021-02-27T13:25:50Z</time>
      </trkpt>
      <trkpt lat="45.23858" lon="6.17668">
        <ele>1901.6</ele>
        <time>2021-02-27T13:25:51Z</time>
      </trkpt>
      <trkpt lat="45.23858" lon="6.17672">
        <ele>1901.6</ele>
        <time>2021-02-27T13:25:53Z</time>
      </trkpt>
      <trkpt lat="45.2386" lon="6.17674">
        <ele>1901.6</ele>
        <time>2021-02-27T13:25:55Z</time>
      </trkpt>
      <trkpt lat="45.23861" lon="6.17676">
        <ele>1901.6</ele>
        <time>2021-02-27T13:25:57Z</time>
      </trkpt>
      <trkpt lat="45.23863" lon="6.17679">
        <ele>1901.6</ele>
        <time>2021-02-27T13:25:59Z</time>
      </trkpt>
      <trkpt lat="45.23864" lon="6.17682">
        <ele>1903.4</ele>
        <time>2021-02-27T13:26:01Z</time>
      </trkpt>
      <trkpt lat="45.23866" lon="6.17687">
        <ele>1903.4</ele>
        <time>2021-02-27T13:26:04Z</time>
      </trkpt>
      <trkpt lat="45.23866" lon="6.1769">
        <ele>1903.4</ele>
        <time>2021-02-27T13:26:06Z</time>
      </trkpt>
      <trkpt lat="45.23866" lon="6.17692">
        <ele>1903.4</ele>
        <time>2021-02-27T13:26:08Z</time>
      </trkpt>
      <trkpt lat="45.23866" lon="6.17694">
        <ele>1903.4</ele>
        <time>2021-02-27T13:26:10Z</time>
      </trkpt>
      <trkpt lat="45.23866" lon="6.17697">
        <ele>1904</ele>
        <time>2021-02-27T13:26:11Z</time>
      </trkpt>
      <trkpt lat="45.23867" lon="6.17701">
        <ele>1904</ele>
        <time>2021-02-27T13:26:12Z</time>
      </trkpt>
      <trkpt lat="45.23868" lon="6.17704">
        <ele>1904</ele>
        <time>2021-02-27T13:26:14Z</time>
      </trkpt>
      <trkpt lat="45.23868" lon="6.17706">
        <ele>1904</ele>
        <time>2021-02-27T13:26:16Z</time>
      </trkpt>
      <trkpt lat="45.23869" lon="6.17709">
        <ele>1904</ele>
        <time>2021-02-27T13:26:18Z</time>
      </trkpt>
      <trkpt lat="45.23869" lon="6.17712">
        <ele>1904</ele>
        <time>2021-02-27T13:26:20Z</time>
      </trkpt>
      <trkpt lat="45.23869" lon="6.17715">
        <ele>1904.6</ele>
        <time>2021-02-27T13:26:21Z</time>
      </trkpt>
      <trkpt lat="45.23869" lon="6.17719">
        <ele>1904.6</ele>
        <time>2021-02-27T13:26:22Z</time>
      </trkpt>
      <trkpt lat="45.23869" lon="6.17722">
        <ele>1904.6</ele>
        <time>2021-02-27T13:26:24Z</time>
      </trkpt>
      <trkpt lat="45.23869" lon="6.17725">
        <ele>1904.6</ele>
        <time>2021-02-27T13:26:26Z</time>
      </trkpt>
      <trkpt lat="45.23869" lon="6.17727">
        <ele>1904.6</ele>
        <time>2021-02-27T13:26:28Z</time>
      </trkpt>
      <trkpt lat="45.23868" lon="6.1773">
        <ele>1904.6</ele>
        <time>2021-02-27T13:26:30Z</time>
      </trkpt>
      <trkpt lat="45.23868" lon="6.17733">
        <ele>1905.2</ele>
        <time>2021-02-27T13:26:31Z</time>
      </trkpt>
      <trkpt lat="45.23868" lon="6.17736">
        <ele>1905.2</ele>
        <time>2021-02-27T13:26:32Z</time>
      </trkpt>
      <trkpt lat="45.23868" lon="6.17738">
        <ele>1905.2</ele>
        <time>2021-02-27T13:26:34Z</time>
      </trkpt>
      <trkpt lat="45.23869" lon="6.17739">
        <ele>1905.2</ele>
        <time>2021-02-27T13:26:36Z</time>
      </trkpt>
      <trkpt lat="45.23869" lon="6.17741">
        <ele>1905.2</ele>
        <time>2021-02-27T13:26:38Z</time>
      </trkpt>
      <trkpt lat="45.23869" lon="6.17743">
        <ele>1905.2</ele>
        <time>2021-02-27T13:26:40Z</time>
      </trkpt>
      <trkpt lat="45.23869" lon="6.17745">
        <ele>1906.8</ele>
        <time>2021-02-27T13:26:41Z</time>
      </trkpt>
      <trkpt lat="45.23869" lon="6.17749">
        <ele>1906.8</ele>
        <time>2021-02-27T13:26:43Z</time>
      </trkpt>
      <trkpt lat="45.2387" lon="6.17752">
        <ele>1906.8</ele>
        <time>2021-02-27T13:26:45Z</time>
      </trkpt>
      <trkpt lat="45.2387" lon="6.17756">
        <ele>1906.8</ele>
        <time>2021-02-27T13:26:47Z</time>
      </trkpt>
      <trkpt lat="45.2387" lon="6.17756">
        <ele>1908</ele>
        <time>2021-02-27T13:26:51Z</time>
      </trkpt>
      <trkpt lat="45.2387" lon="6.17762">
        <ele>1908</ele>
        <time>2021-02-27T13:26:52Z</time>
      </trkpt>
      <trkpt lat="45.2387" lon="6.17765">
        <ele>1908</ele>
        <time>2021-02-27T13:26:54Z</time>
      </trkpt>
      <trkpt lat="45.2387" lon="6.17767">
        <ele>1908</ele>
        <time>2021-02-27T13:26:56Z</time>
      </trkpt>
      <trkpt lat="45.2387" lon="6.1777">
        <ele>1908</ele>
        <time>2021-02-27T13:26:58Z</time>
      </trkpt>
      <trkpt lat="45.2387" lon="6.17772">
        <ele>1908</ele>
        <time>2021-02-27T13:27:00Z</time>
      </trkpt>
      <trkpt lat="45.2387" lon="6.17775">
        <ele>1907.8</ele>
        <time>2021-02-27T13:27:01Z</time>
      </trkpt>
      <trkpt lat="45.2387" lon="6.17776">
        <ele>1907.8</ele>
        <time>2021-02-27T13:27:02Z</time>
      </trkpt>
      <trkpt lat="45.23871" lon="6.17779">
        <ele>1907.8</ele>
        <time>2021-02-27T13:27:04Z</time>
      </trkpt>
      <trkpt lat="45.23871" lon="6.17781">
        <ele>1907.8</ele>
        <time>2021-02-27T13:27:06Z</time>
      </trkpt>
      <trkpt lat="45.23872" lon="6.17784">
        <ele>1907.8</ele>
        <time>2021-02-27T13:27:09Z</time>
      </trkpt>
      <trkpt lat="45.23871" lon="6.17787">
        <ele>1908.6</ele>
        <time>2021-02-27T13:27:11Z</time>
      </trkpt>
      <trkpt lat="45.23872" lon="6.1779">
        <ele>1908.6</ele>
        <time>2021-02-27T13:27:13Z</time>
      </trkpt>
      <trkpt lat="45.23872" lon="6.17793">
        <ele>1908.6</ele>
        <time>2021-02-27T13:27:15Z</time>
      </trkpt>
      <trkpt lat="45.23872" lon="6.17796">
        <ele>1908.6</ele>
        <time>2021-02-27T13:27:17Z</time>
      </trkpt>
      <trkpt lat="45.23874" lon="6.17798">
        <ele>1908.6</ele>
        <time>2021-02-27T13:27:19Z</time>
      </trkpt>
      <trkpt lat="45.23875" lon="6.17801">
        <ele>1909.2</ele>
        <time>2021-02-27T13:27:21Z</time>
      </trkpt>
      <trkpt lat="45.23877" lon="6.17804">
        <ele>1909.2</ele>
        <time>2021-02-27T13:27:24Z</time>
      </trkpt>
      <trkpt lat="45.23878" lon="6.17807">
        <ele>1909.2</ele>
        <time>2021-02-27T13:27:26Z</time>
      </trkpt>
      <trkpt lat="45.2388" lon="6.17809">
        <ele>1909.2</ele>
        <time>2021-02-27T13:27:28Z</time>
      </trkpt>
      <trkpt lat="45.23881" lon="6.17811">
        <ele>1909.2</ele>
        <time>2021-02-27T13:27:29Z</time>
      </trkpt>
      <trkpt lat="45.23884" lon="6.17815">
        <ele>1910</ele>
        <time>2021-02-27T13:27:31Z</time>
      </trkpt>
      <trkpt lat="45.23885" lon="6.17819">
        <ele>1910</ele>
        <time>2021-02-27T13:27:33Z</time>
      </trkpt>
      <trkpt lat="45.23885" lon="6.17823">
        <ele>1910</ele>
        <time>2021-02-27T13:27:35Z</time>
      </trkpt>
      <trkpt lat="45.23885" lon="6.17826">
        <ele>1910</ele>
        <time>2021-02-27T13:27:37Z</time>
      </trkpt>
      <trkpt lat="45.23885" lon="6.1783">
        <ele>1910</ele>
        <time>2021-02-27T13:27:39Z</time>
      </trkpt>
      <trkpt lat="45.23885" lon="6.17833">
        <ele>1910.4</ele>
        <time>2021-02-27T13:27:41Z</time>
      </trkpt>
      <trkpt lat="45.23886" lon="6.17836">
        <ele>1910.4</ele>
        <time>2021-02-27T13:27:43Z</time>
      </trkpt>
      <trkpt lat="45.23886" lon="6.1784">
        <ele>1910.4</ele>
        <time>2021-02-27T13:27:45Z</time>
      </trkpt>
      <trkpt lat="45.23887" lon="6.17843">
        <ele>1910.4</ele>
        <time>2021-02-27T13:27:47Z</time>
      </trkpt>
      <trkpt lat="45.23887" lon="6.17847">
        <ele>1910.4</ele>
        <time>2021-02-27T13:27:49Z</time>
      </trkpt>
      <trkpt lat="45.23888" lon="6.1785">
        <ele>1911.2</ele>
        <time>2021-02-27T13:27:51Z</time>
      </trkpt>
      <trkpt lat="45.23888" lon="6.17854">
        <ele>1911.2</ele>
        <time>2021-02-27T13:27:53Z</time>
      </trkpt>
      <trkpt lat="45.2389" lon="6.17858">
        <ele>1911.2</ele>
        <time>2021-02-27T13:27:55Z</time>
      </trkpt>
      <trkpt lat="45.2389" lon="6.17861">
        <ele>1911.2</ele>
        <time>2021-02-27T13:27:57Z</time>
      </trkpt>
      <trkpt lat="45.23891" lon="6.17865">
        <ele>1911.2</ele>
        <time>2021-02-27T13:27:59Z</time>
      </trkpt>
      <trkpt lat="45.23893" lon="6.17869">
        <ele>1911.6</ele>
        <time>2021-02-27T13:28:01Z</time>
      </trkpt>
      <trkpt lat="45.23895" lon="6.17875">
        <ele>1911.6</ele>
        <time>2021-02-27T13:28:03Z</time>
      </trkpt>
      <trkpt lat="45.23895" lon="6.17878">
        <ele>1911.6</ele>
        <time>2021-02-27T13:28:05Z</time>
      </trkpt>
      <trkpt lat="45.23895" lon="6.17881">
        <ele>1911.6</ele>
        <time>2021-02-27T13:28:08Z</time>
      </trkpt>
      <trkpt lat="45.23896" lon="6.17883">
        <ele>1911.6</ele>
        <time>2021-02-27T13:28:10Z</time>
      </trkpt>
      <trkpt lat="45.23896" lon="6.17886">
        <ele>1912.4</ele>
        <time>2021-02-27T13:28:11Z</time>
      </trkpt>
      <trkpt lat="45.23897" lon="6.1789">
        <ele>1912.4</ele>
        <time>2021-02-27T13:28:12Z</time>
      </trkpt>
      <trkpt lat="45.23897" lon="6.17893">
        <ele>1912.4</ele>
        <time>2021-02-27T13:28:14Z</time>
      </trkpt>
      <trkpt lat="45.23898" lon="6.17896">
        <ele>1912.4</ele>
        <time>2021-02-27T13:28:16Z</time>
      </trkpt>
      <trkpt lat="45.23899" lon="6.17899">
        <ele>1912.4</ele>
        <time>2021-02-27T13:28:18Z</time>
      </trkpt>
      <trkpt lat="45.23899" lon="6.17901">
        <ele>1912.4</ele>
        <time>2021-02-27T13:28:20Z</time>
      </trkpt>
      <trkpt lat="45.239" lon="6.17904">
        <ele>1913.4</ele>
        <time>2021-02-27T13:28:21Z</time>
      </trkpt>
      <trkpt lat="45.239" lon="6.17908">
        <ele>1913.4</ele>
        <time>2021-02-27T13:28:22Z</time>
      </trkpt>
      <trkpt lat="45.239" lon="6.1791">
        <ele>1913.4</ele>
        <time>2021-02-27T13:28:24Z</time>
      </trkpt>
      <trkpt lat="45.23901" lon="6.17913">
        <ele>1913.4</ele>
        <time>2021-02-27T13:28:26Z</time>
      </trkpt>
      <trkpt lat="45.23901" lon="6.17915">
        <ele>1913.4</ele>
        <time>2021-02-27T13:28:28Z</time>
      </trkpt>
      <trkpt lat="45.23901" lon="6.17917">
        <ele>1913.4</ele>
        <time>2021-02-27T13:28:30Z</time>
      </trkpt>
      <trkpt lat="45.23902" lon="6.1792">
        <ele>1914.2</ele>
        <time>2021-02-27T13:28:31Z</time>
      </trkpt>
      <trkpt lat="45.23901" lon="6.17924">
        <ele>1914.2</ele>
        <time>2021-02-27T13:28:32Z</time>
      </trkpt>
      <trkpt lat="45.23901" lon="6.17927">
        <ele>1914.2</ele>
        <time>2021-02-27T13:28:34Z</time>
      </trkpt>
      <trkpt lat="45.239" lon="6.1793">
        <ele>1914.2</ele>
        <time>2021-02-27T13:28:36Z</time>
      </trkpt>
      <trkpt lat="45.239" lon="6.17932">
        <ele>1914.2</ele>
        <time>2021-02-27T13:28:38Z</time>
      </trkpt>
      <trkpt lat="45.239" lon="6.17935">
        <ele>1914.2</ele>
        <time>2021-02-27T13:28:40Z</time>
      </trkpt>
      <trkpt lat="45.23899" lon="6.17938">
        <ele>1915.2</ele>
        <time>2021-02-27T13:28:41Z</time>
      </trkpt>
      <trkpt lat="45.23898" lon="6.1794">
        <ele>1915.2</ele>
        <time>2021-02-27T13:28:42Z</time>
      </trkpt>
      <trkpt lat="45.23896" lon="6.17942">
        <ele>1915.2</ele>
        <time>2021-02-27T13:28:43Z</time>
      </trkpt>
      <trkpt lat="45.23895" lon="6.17947">
        <ele>1915.2</ele>
        <time>2021-02-27T13:28:45Z</time>
      </trkpt>
      <trkpt lat="45.23895" lon="6.17951">
        <ele>1915.2</ele>
        <time>2021-02-27T13:28:47Z</time>
      </trkpt>
      <trkpt lat="45.23897" lon="6.17955">
        <ele>1915.2</ele>
        <time>2021-02-27T13:28:49Z</time>
      </trkpt>
      <trkpt lat="45.23898" lon="6.17958">
        <ele>1916.6</ele>
        <time>2021-02-27T13:28:51Z</time>
      </trkpt>
      <trkpt lat="45.23898" lon="6.17962">
        <ele>1916.6</ele>
        <time>2021-02-27T13:28:53Z</time>
      </trkpt>
      <trkpt lat="45.23899" lon="6.17965">
        <ele>1916.6</ele>
        <time>2021-02-27T13:28:55Z</time>
      </trkpt>
      <trkpt lat="45.23899" lon="6.17969">
        <ele>1916.6</ele>
        <time>2021-02-27T13:28:57Z</time>
      </trkpt>
      <trkpt lat="45.23899" lon="6.17973">
        <ele>1916.6</ele>
        <time>2021-02-27T13:28:59Z</time>
      </trkpt>
      <trkpt lat="45.239" lon="6.17976">
        <ele>1917.2</ele>
        <time>2021-02-27T13:29:01Z</time>
      </trkpt>
      <trkpt lat="45.23899" lon="6.17979">
        <ele>1917.2</ele>
        <time>2021-02-27T13:29:03Z</time>
      </trkpt>
      <trkpt lat="45.239" lon="6.17983">
        <ele>1917.2</ele>
        <time>2021-02-27T13:29:05Z</time>
      </trkpt>
      <trkpt lat="45.239" lon="6.17986">
        <ele>1917.2</ele>
        <time>2021-02-27T13:29:07Z</time>
      </trkpt>
      <trkpt lat="45.239" lon="6.1799">
        <ele>1917.2</ele>
        <time>2021-02-27T13:29:09Z</time>
      </trkpt>
      <trkpt lat="45.239" lon="6.17994">
        <ele>1918.2</ele>
        <time>2021-02-27T13:29:11Z</time>
      </trkpt>
      <trkpt lat="45.239" lon="6.17997">
        <ele>1918.2</ele>
        <time>2021-02-27T13:29:13Z</time>
      </trkpt>
      <trkpt lat="45.239" lon="6.18001">
        <ele>1918.2</ele>
        <time>2021-02-27T13:29:15Z</time>
      </trkpt>
      <trkpt lat="45.23899" lon="6.18004">
        <ele>1918.2</ele>
        <time>2021-02-27T13:29:17Z</time>
      </trkpt>
      <trkpt lat="45.239" lon="6.18009">
        <ele>1918.2</ele>
        <time>2021-02-27T13:29:19Z</time>
      </trkpt>
      <trkpt lat="45.239" lon="6.18012">
        <ele>1919.4</ele>
        <time>2021-02-27T13:29:21Z</time>
      </trkpt>
      <trkpt lat="45.23902" lon="6.18019">
        <ele>1919.4</ele>
        <time>2021-02-27T13:29:23Z</time>
      </trkpt>
      <trkpt lat="45.23903" lon="6.18021">
        <ele>1919.4</ele>
        <time>2021-02-27T13:29:25Z</time>
      </trkpt>
      <trkpt lat="45.23903" lon="6.18024">
        <ele>1919.4</ele>
        <time>2021-02-27T13:29:27Z</time>
      </trkpt>
      <trkpt lat="45.23904" lon="6.18026">
        <ele>1919.4</ele>
        <time>2021-02-27T13:29:29Z</time>
      </trkpt>
      <trkpt lat="45.23904" lon="6.18029">
        <ele>1919.4</ele>
        <time>2021-02-27T13:29:30Z</time>
      </trkpt>
      <trkpt lat="45.23905" lon="6.18032">
        <ele>1920.4</ele>
        <time>2021-02-27T13:29:31Z</time>
      </trkpt>
      <trkpt lat="45.23906" lon="6.18036">
        <ele>1920.4</ele>
        <time>2021-02-27T13:29:32Z</time>
      </trkpt>
      <trkpt lat="45.23907" lon="6.18039">
        <ele>1920.4</ele>
        <time>2021-02-27T13:29:34Z</time>
      </trkpt>
      <trkpt lat="45.23908" lon="6.18042">
        <ele>1920.4</ele>
        <time>2021-02-27T13:29:36Z</time>
      </trkpt>
      <trkpt lat="45.23908" lon="6.18044">
        <ele>1920.4</ele>
        <time>2021-02-27T13:29:38Z</time>
      </trkpt>
      <trkpt lat="45.23909" lon="6.18047">
        <ele>1920.4</ele>
        <time>2021-02-27T13:29:40Z</time>
      </trkpt>
      <trkpt lat="45.2391" lon="6.1805">
        <ele>1921</ele>
        <time>2021-02-27T13:29:41Z</time>
      </trkpt>
      <trkpt lat="45.2391" lon="6.18054">
        <ele>1921</ele>
        <time>2021-02-27T13:29:42Z</time>
      </trkpt>
      <trkpt lat="45.2391" lon="6.18057">
        <ele>1921</ele>
        <time>2021-02-27T13:29:44Z</time>
      </trkpt>
      <trkpt lat="45.23911" lon="6.1806">
        <ele>1921</ele>
        <time>2021-02-27T13:29:46Z</time>
      </trkpt>
      <trkpt lat="45.23911" lon="6.18063">
        <ele>1921</ele>
        <time>2021-02-27T13:29:48Z</time>
      </trkpt>
      <trkpt lat="45.23912" lon="6.18066">
        <ele>1921</ele>
        <time>2021-02-27T13:29:50Z</time>
      </trkpt>
      <trkpt lat="45.23912" lon="6.18068">
        <ele>1921.4</ele>
        <time>2021-02-27T13:29:51Z</time>
      </trkpt>
      <trkpt lat="45.23912" lon="6.18073">
        <ele>1921.4</ele>
        <time>2021-02-27T13:29:52Z</time>
      </trkpt>
      <trkpt lat="45.23911" lon="6.18076">
        <ele>1921.4</ele>
        <time>2021-02-27T13:29:54Z</time>
      </trkpt>
      <trkpt lat="45.23911" lon="6.18079">
        <ele>1921.4</ele>
        <time>2021-02-27T13:29:56Z</time>
      </trkpt>
      <trkpt lat="45.23911" lon="6.18082">
        <ele>1921.4</ele>
        <time>2021-02-27T13:29:58Z</time>
      </trkpt>
      <trkpt lat="45.2391" lon="6.18086">
        <ele>1921.4</ele>
        <time>2021-02-27T13:30:00Z</time>
      </trkpt>
      <trkpt lat="45.2391" lon="6.18089">
        <ele>1922.8</ele>
        <time>2021-02-27T13:30:01Z</time>
      </trkpt>
      <trkpt lat="45.2391" lon="6.18094">
        <ele>1922.8</ele>
        <time>2021-02-27T13:30:02Z</time>
      </trkpt>
      <trkpt lat="45.2391" lon="6.18097">
        <ele>1922.8</ele>
        <time>2021-02-27T13:30:04Z</time>
      </trkpt>
      <trkpt lat="45.2391" lon="6.181">
        <ele>1922.8</ele>
        <time>2021-02-27T13:30:06Z</time>
      </trkpt>
      <trkpt lat="45.2391" lon="6.18103">
        <ele>1922.8</ele>
        <time>2021-02-27T13:30:08Z</time>
      </trkpt>
      <trkpt lat="45.2391" lon="6.18106">
        <ele>1922.8</ele>
        <time>2021-02-27T13:30:10Z</time>
      </trkpt>
      <trkpt lat="45.2391" lon="6.18109">
        <ele>1923.6</ele>
        <time>2021-02-27T13:30:11Z</time>
      </trkpt>
      <trkpt lat="45.23909" lon="6.18114">
        <ele>1923.6</ele>
        <time>2021-02-27T13:30:12Z</time>
      </trkpt>
      <trkpt lat="45.23909" lon="6.18116">
        <ele>1923.6</ele>
        <time>2021-02-27T13:30:14Z</time>
      </trkpt>
      <trkpt lat="45.23909" lon="6.18119">
        <ele>1923.6</ele>
        <time>2021-02-27T13:30:16Z</time>
      </trkpt>
      <trkpt lat="45.23909" lon="6.18122">
        <ele>1923.6</ele>
        <time>2021-02-27T13:30:18Z</time>
      </trkpt>
      <trkpt lat="45.23909" lon="6.18125">
        <ele>1923.6</ele>
        <time>2021-02-27T13:30:20Z</time>
      </trkpt>
      <trkpt lat="45.23909" lon="6.18128">
        <ele>1924.8</ele>
        <time>2021-02-27T13:30:21Z</time>
      </trkpt>
      <trkpt lat="45.23909" lon="6.1813">
        <ele>1924.8</ele>
        <time>2021-02-27T13:30:22Z</time>
      </trkpt>
      <trkpt lat="45.23909" lon="6.18133">
        <ele>1924.8</ele>
        <time>2021-02-27T13:30:24Z</time>
      </trkpt>
      <trkpt lat="45.2391" lon="6.18137">
        <ele>1924.8</ele>
        <time>2021-02-27T13:30:26Z</time>
      </trkpt>
      <trkpt lat="45.2391" lon="6.18142">
        <ele>1924.8</ele>
        <time>2021-02-27T13:30:28Z</time>
      </trkpt>
      <trkpt lat="45.2391" lon="6.18145">
        <ele>1924.8</ele>
        <time>2021-02-27T13:30:29Z</time>
      </trkpt>
      <trkpt lat="45.23909" lon="6.18149">
        <ele>1925.8</ele>
        <time>2021-02-27T13:30:31Z</time>
      </trkpt>
      <trkpt lat="45.23908" lon="6.18156">
        <ele>1925.8</ele>
        <time>2021-02-27T13:30:33Z</time>
      </trkpt>
      <trkpt lat="45.23908" lon="6.18158">
        <ele>1925.8</ele>
        <time>2021-02-27T13:30:35Z</time>
      </trkpt>
      <trkpt lat="45.23907" lon="6.1816">
        <ele>1925.8</ele>
        <time>2021-02-27T13:30:37Z</time>
      </trkpt>
      <trkpt lat="45.23907" lon="6.18162">
        <ele>1925.8</ele>
        <time>2021-02-27T13:30:38Z</time>
      </trkpt>
      <trkpt lat="45.23906" lon="6.18165">
        <ele>1925.8</ele>
        <time>2021-02-27T13:30:40Z</time>
      </trkpt>
      <trkpt lat="45.23906" lon="6.18167">
        <ele>1926.2</ele>
        <time>2021-02-27T13:30:41Z</time>
      </trkpt>
      <trkpt lat="45.23905" lon="6.18171">
        <ele>1926.2</ele>
        <time>2021-02-27T13:30:42Z</time>
      </trkpt>
      <trkpt lat="45.23905" lon="6.18174">
        <ele>1926.2</ele>
        <time>2021-02-27T13:30:44Z</time>
      </trkpt>
      <trkpt lat="45.23905" lon="6.18176">
        <ele>1926.2</ele>
        <time>2021-02-27T13:30:46Z</time>
      </trkpt>
      <trkpt lat="45.23904" lon="6.18179">
        <ele>1926.2</ele>
        <time>2021-02-27T13:30:48Z</time>
      </trkpt>
      <trkpt lat="45.23904" lon="6.18182">
        <ele>1926.2</ele>
        <time>2021-02-27T13:30:50Z</time>
      </trkpt>
      <trkpt lat="45.23904" lon="6.18184">
        <ele>1927.4</ele>
        <time>2021-02-27T13:30:51Z</time>
      </trkpt>
      <trkpt lat="45.23903" lon="6.18189">
        <ele>1927.4</ele>
        <time>2021-02-27T13:30:52Z</time>
      </trkpt>
      <trkpt lat="45.23903" lon="6.18191">
        <ele>1927.4</ele>
        <time>2021-02-27T13:30:54Z</time>
      </trkpt>
      <trkpt lat="45.23902" lon="6.18194">
        <ele>1927.4</ele>
        <time>2021-02-27T13:30:56Z</time>
      </trkpt>
      <trkpt lat="45.23902" lon="6.18196">
        <ele>1927.4</ele>
        <time>2021-02-27T13:30:58Z</time>
      </trkpt>
      <trkpt lat="45.23901" lon="6.18199">
        <ele>1927.4</ele>
        <time>2021-02-27T13:31:00Z</time>
      </trkpt>
      <trkpt lat="45.23901" lon="6.18201">
        <ele>1928.2</ele>
        <time>2021-02-27T13:31:01Z</time>
      </trkpt>
      <trkpt lat="45.239" lon="6.18203">
        <ele>1928.2</ele>
        <time>2021-02-27T13:31:02Z</time>
      </trkpt>
      <trkpt lat="45.23899" lon="6.18206">
        <ele>1928.2</ele>
        <time>2021-02-27T13:31:04Z</time>
      </trkpt>
      <trkpt lat="45.23898" lon="6.18209">
        <ele>1928.2</ele>
        <time>2021-02-27T13:31:05Z</time>
      </trkpt>
      <trkpt lat="45.23898" lon="6.18212">
        <ele>1928.2</ele>
        <time>2021-02-27T13:31:07Z</time>
      </trkpt>
      <trkpt lat="45.23897" lon="6.18215">
        <ele>1928.2</ele>
        <time>2021-02-27T13:31:09Z</time>
      </trkpt>
      <trkpt lat="45.23896" lon="6.18219">
        <ele>1929.4</ele>
        <time>2021-02-27T13:31:11Z</time>
      </trkpt>
      <trkpt lat="45.23895" lon="6.18222">
        <ele>1929.4</ele>
        <time>2021-02-27T13:31:13Z</time>
      </trkpt>
      <trkpt lat="45.23894" lon="6.18226">
        <ele>1929.4</ele>
        <time>2021-02-27T13:31:15Z</time>
      </trkpt>
      <trkpt lat="45.23894" lon="6.1823">
        <ele>1929.4</ele>
        <time>2021-02-27T13:31:17Z</time>
      </trkpt>
      <trkpt lat="45.23894" lon="6.18233">
        <ele>1929.4</ele>
        <time>2021-02-27T13:31:19Z</time>
      </trkpt>
      <trkpt lat="45.23894" lon="6.18237">
        <ele>1930.2</ele>
        <time>2021-02-27T13:31:21Z</time>
      </trkpt>
      <trkpt lat="45.23893" lon="6.1824">
        <ele>1930.2</ele>
        <time>2021-02-27T13:31:23Z</time>
      </trkpt>
      <trkpt lat="45.23893" lon="6.18244">
        <ele>1930.2</ele>
        <time>2021-02-27T13:31:25Z</time>
      </trkpt>
      <trkpt lat="45.23892" lon="6.18247">
        <ele>1930.2</ele>
        <time>2021-02-27T13:31:27Z</time>
      </trkpt>
      <trkpt lat="45.23891" lon="6.18251">
        <ele>1930.2</ele>
        <time>2021-02-27T13:31:29Z</time>
      </trkpt>
      <trkpt lat="45.2389" lon="6.18255">
        <ele>1931.2</ele>
        <time>2021-02-27T13:31:31Z</time>
      </trkpt>
      <trkpt lat="45.2389" lon="6.18259">
        <ele>1931.2</ele>
        <time>2021-02-27T13:31:33Z</time>
      </trkpt>
      <trkpt lat="45.23891" lon="6.18262">
        <ele>1931.2</ele>
        <time>2021-02-27T13:31:35Z</time>
      </trkpt>
      <trkpt lat="45.23892" lon="6.18266">
        <ele>1931.2</ele>
        <time>2021-02-27T13:31:37Z</time>
      </trkpt>
      <trkpt lat="45.23892" lon="6.18269">
        <ele>1931.2</ele>
        <time>2021-02-27T13:31:39Z</time>
      </trkpt>
      <trkpt lat="45.23892" lon="6.18273">
        <ele>1931.8</ele>
        <time>2021-02-27T13:31:41Z</time>
      </trkpt>
      <trkpt lat="45.23892" lon="6.18276">
        <ele>1931.8</ele>
        <time>2021-02-27T13:31:43Z</time>
      </trkpt>
      <trkpt lat="45.23893" lon="6.1828">
        <ele>1931.8</ele>
        <time>2021-02-27T13:31:45Z</time>
      </trkpt>
      <trkpt lat="45.23893" lon="6.18283">
        <ele>1931.8</ele>
        <time>2021-02-27T13:31:47Z</time>
      </trkpt>
      <trkpt lat="45.23893" lon="6.18287">
        <ele>1931.8</ele>
        <time>2021-02-27T13:31:49Z</time>
      </trkpt>
      <trkpt lat="45.23894" lon="6.1829">
        <ele>1932.8</ele>
        <time>2021-02-27T13:31:51Z</time>
      </trkpt>
      <trkpt lat="45.23894" lon="6.18294">
        <ele>1932.8</ele>
        <time>2021-02-27T13:31:53Z</time>
      </trkpt>
      <trkpt lat="45.23895" lon="6.18298">
        <ele>1932.8</ele>
        <time>2021-02-27T13:31:55Z</time>
      </trkpt>
      <trkpt lat="45.23896" lon="6.18302">
        <ele>1932.8</ele>
        <time>2021-02-27T13:31:57Z</time>
      </trkpt>
      <trkpt lat="45.23896" lon="6.18305">
        <ele>1932.8</ele>
        <time>2021-02-27T13:31:59Z</time>
      </trkpt>
      <trkpt lat="45.23895" lon="6.18309">
        <ele>1933.8</ele>
        <time>2021-02-27T13:32:01Z</time>
      </trkpt>
      <trkpt lat="45.23894" lon="6.18312">
        <ele>1933.8</ele>
        <time>2021-02-27T13:32:03Z</time>
      </trkpt>
      <trkpt lat="45.23894" lon="6.18316">
        <ele>1933.8</ele>
        <time>2021-02-27T13:32:05Z</time>
      </trkpt>
      <trkpt lat="45.23894" lon="6.18319">
        <ele>1933.8</ele>
        <time>2021-02-27T13:32:07Z</time>
      </trkpt>
      <trkpt lat="45.23896" lon="6.18323">
        <ele>1933.8</ele>
        <time>2021-02-27T13:32:09Z</time>
      </trkpt>
      <trkpt lat="45.23896" lon="6.18326">
        <ele>1934.2</ele>
        <time>2021-02-27T13:32:11Z</time>
      </trkpt>
      <trkpt lat="45.23896" lon="6.1833">
        <ele>1934.2</ele>
        <time>2021-02-27T13:32:13Z</time>
      </trkpt>
      <trkpt lat="45.23896" lon="6.18333">
        <ele>1934.2</ele>
        <time>2021-02-27T13:32:15Z</time>
      </trkpt>
      <trkpt lat="45.23895" lon="6.18337">
        <ele>1934.2</ele>
        <time>2021-02-27T13:32:17Z</time>
      </trkpt>
      <trkpt lat="45.23895" lon="6.18341">
        <ele>1934.2</ele>
        <time>2021-02-27T13:32:19Z</time>
      </trkpt>
      <trkpt lat="45.23896" lon="6.18344">
        <ele>1935.6</ele>
        <time>2021-02-27T13:32:21Z</time>
      </trkpt>
      <trkpt lat="45.23896" lon="6.18348">
        <ele>1935.6</ele>
        <time>2021-02-27T13:32:23Z</time>
      </trkpt>
      <trkpt lat="45.23896" lon="6.18352">
        <ele>1935.6</ele>
        <time>2021-02-27T13:32:25Z</time>
      </trkpt>
      <trkpt lat="45.23896" lon="6.18355">
        <ele>1935.6</ele>
        <time>2021-02-27T13:32:27Z</time>
      </trkpt>
      <trkpt lat="45.23895" lon="6.18358">
        <ele>1935.6</ele>
        <time>2021-02-27T13:32:29Z</time>
      </trkpt>
      <trkpt lat="45.23894" lon="6.18361">
        <ele>1936.4</ele>
        <time>2021-02-27T13:32:31Z</time>
      </trkpt>
      <trkpt lat="45.23894" lon="6.18365">
        <ele>1936.4</ele>
        <time>2021-02-27T13:32:33Z</time>
      </trkpt>
      <trkpt lat="45.23892" lon="6.18368">
        <ele>1936.4</ele>
        <time>2021-02-27T13:32:35Z</time>
      </trkpt>
      <trkpt lat="45.23892" lon="6.18372">
        <ele>1936.4</ele>
        <time>2021-02-27T13:32:37Z</time>
      </trkpt>
      <trkpt lat="45.23891" lon="6.18376">
        <ele>1936.4</ele>
        <time>2021-02-27T13:32:39Z</time>
      </trkpt>
      <trkpt lat="45.23891" lon="6.18379">
        <ele>1936.4</ele>
        <time>2021-02-27T13:32:41Z</time>
      </trkpt>
      <trkpt lat="45.2389" lon="6.18382">
        <ele>1936.4</ele>
        <time>2021-02-27T13:32:43Z</time>
      </trkpt>
      <trkpt lat="45.23889" lon="6.18385">
        <ele>1936.4</ele>
        <time>2021-02-27T13:32:46Z</time>
      </trkpt>
      <trkpt lat="45.23888" lon="6.18388">
        <ele>1936.4</ele>
        <time>2021-02-27T13:32:49Z</time>
      </trkpt>
      <trkpt lat="45.23889" lon="6.18391">
        <ele>1937.6</ele>
        <time>2021-02-27T13:32:51Z</time>
      </trkpt>
      <trkpt lat="45.23887" lon="6.18397">
        <ele>1937.6</ele>
        <time>2021-02-27T13:32:53Z</time>
      </trkpt>
      <trkpt lat="45.23887" lon="6.18399">
        <ele>1937.6</ele>
        <time>2021-02-27T13:32:55Z</time>
      </trkpt>
      <trkpt lat="45.23886" lon="6.18402">
        <ele>1937.6</ele>
        <time>2021-02-27T13:32:57Z</time>
      </trkpt>
      <trkpt lat="45.23885" lon="6.18404">
        <ele>1937.6</ele>
        <time>2021-02-27T13:32:59Z</time>
      </trkpt>
      <trkpt lat="45.23885" lon="6.18407">
        <ele>1937.6</ele>
        <time>2021-02-27T13:33:00Z</time>
      </trkpt>
      <trkpt lat="45.23884" lon="6.1841">
        <ele>1938.2</ele>
        <time>2021-02-27T13:33:01Z</time>
      </trkpt>
      <trkpt lat="45.23884" lon="6.18414">
        <ele>1938.2</ele>
        <time>2021-02-27T13:33:02Z</time>
      </trkpt>
      <trkpt lat="45.23885" lon="6.18417">
        <ele>1938.2</ele>
        <time>2021-02-27T13:33:04Z</time>
      </trkpt>
      <trkpt lat="45.23885" lon="6.1842">
        <ele>1938.2</ele>
        <time>2021-02-27T13:33:06Z</time>
      </trkpt>
      <trkpt lat="45.23885" lon="6.18423">
        <ele>1938.2</ele>
        <time>2021-02-27T13:33:08Z</time>
      </trkpt>
      <trkpt lat="45.23886" lon="6.18425">
        <ele>1938.2</ele>
        <time>2021-02-27T13:33:10Z</time>
      </trkpt>
      <trkpt lat="45.23886" lon="6.18428">
        <ele>1939.4</ele>
        <time>2021-02-27T13:33:11Z</time>
      </trkpt>
      <trkpt lat="45.23886" lon="6.1843">
        <ele>1939.4</ele>
        <time>2021-02-27T13:33:12Z</time>
      </trkpt>
      <trkpt lat="45.23887" lon="6.18434">
        <ele>1939.4</ele>
        <time>2021-02-27T13:33:14Z</time>
      </trkpt>
      <trkpt lat="45.23887" lon="6.18437">
        <ele>1939.4</ele>
        <time>2021-02-27T13:33:16Z</time>
      </trkpt>
      <trkpt lat="45.23888" lon="6.18441">
        <ele>1939.4</ele>
        <time>2021-02-27T13:33:18Z</time>
      </trkpt>
      <trkpt lat="45.23888" lon="6.18444">
        <ele>1939.4</ele>
        <time>2021-02-27T13:33:19Z</time>
      </trkpt>
      <trkpt lat="45.23889" lon="6.18448">
        <ele>1939.6</ele>
        <time>2021-02-27T13:33:21Z</time>
      </trkpt>
      <trkpt lat="45.2389" lon="6.18452">
        <ele>1939.6</ele>
        <time>2021-02-27T13:33:23Z</time>
      </trkpt>
      <trkpt lat="45.23892" lon="6.18455">
        <ele>1939.6</ele>
        <time>2021-02-27T13:33:25Z</time>
      </trkpt>
      <trkpt lat="45.23893" lon="6.18458">
        <ele>1939.6</ele>
        <time>2021-02-27T13:33:27Z</time>
      </trkpt>
      <trkpt lat="45.23894" lon="6.18461">
        <ele>1939.6</ele>
        <time>2021-02-27T13:33:29Z</time>
      </trkpt>
      <trkpt lat="45.23896" lon="6.18464">
        <ele>1940.8</ele>
        <time>2021-02-27T13:33:31Z</time>
      </trkpt>
      <trkpt lat="45.23896" lon="6.18467">
        <ele>1940.8</ele>
        <time>2021-02-27T13:33:33Z</time>
      </trkpt>
      <trkpt lat="45.23898" lon="6.1847">
        <ele>1940.8</ele>
        <time>2021-02-27T13:33:35Z</time>
      </trkpt>
      <trkpt lat="45.23899" lon="6.18473">
        <ele>1940.8</ele>
        <time>2021-02-27T13:33:37Z</time>
      </trkpt>
      <trkpt lat="45.23901" lon="6.18476">
        <ele>1940.8</ele>
        <time>2021-02-27T13:33:39Z</time>
      </trkpt>
      <trkpt lat="45.23902" lon="6.18478">
        <ele>1941.2</ele>
        <time>2021-02-27T13:33:41Z</time>
      </trkpt>
      <trkpt lat="45.23903" lon="6.18481">
        <ele>1941.2</ele>
        <time>2021-02-27T13:33:43Z</time>
      </trkpt>
      <trkpt lat="45.23905" lon="6.18483">
        <ele>1941.2</ele>
        <time>2021-02-27T13:33:45Z</time>
      </trkpt>
      <trkpt lat="45.23907" lon="6.18486">
        <ele>1941.2</ele>
        <time>2021-02-27T13:33:47Z</time>
      </trkpt>
      <trkpt lat="45.23908" lon="6.18489">
        <ele>1941.2</ele>
        <time>2021-02-27T13:33:49Z</time>
      </trkpt>
      <trkpt lat="45.2391" lon="6.18491">
        <ele>1942</ele>
        <time>2021-02-27T13:33:51Z</time>
      </trkpt>
      <trkpt lat="45.23912" lon="6.18494">
        <ele>1942</ele>
        <time>2021-02-27T13:33:53Z</time>
      </trkpt>
      <trkpt lat="45.23915" lon="6.18496">
        <ele>1942</ele>
        <time>2021-02-27T13:33:55Z</time>
      </trkpt>
      <trkpt lat="45.23917" lon="6.185">
        <ele>1942</ele>
        <time>2021-02-27T13:33:57Z</time>
      </trkpt>
      <trkpt lat="45.23917" lon="6.18502">
        <ele>1942</ele>
        <time>2021-02-27T13:33:59Z</time>
      </trkpt>
      <trkpt lat="45.23918" lon="6.18505">
        <ele>1942</ele>
        <time>2021-02-27T13:34:01Z</time>
      </trkpt>
      <trkpt lat="45.2392" lon="6.18508">
        <ele>1942</ele>
        <time>2021-02-27T13:34:03Z</time>
      </trkpt>
      <trkpt lat="45.23921" lon="6.18511">
        <ele>1942</ele>
        <time>2021-02-27T13:34:05Z</time>
      </trkpt>
      <trkpt lat="45.23922" lon="6.18515">
        <ele>1942</ele>
        <time>2021-02-27T13:34:07Z</time>
      </trkpt>
      <trkpt lat="45.23924" lon="6.18519">
        <ele>1942</ele>
        <time>2021-02-27T13:34:09Z</time>
      </trkpt>
      <trkpt lat="45.23925" lon="6.18522">
        <ele>1943</ele>
        <time>2021-02-27T13:34:11Z</time>
      </trkpt>
      <trkpt lat="45.23925" lon="6.18525">
        <ele>1943</ele>
        <time>2021-02-27T13:34:13Z</time>
      </trkpt>
      <trkpt lat="45.23926" lon="6.18528">
        <ele>1943</ele>
        <time>2021-02-27T13:34:15Z</time>
      </trkpt>
      <trkpt lat="45.23926" lon="6.18531">
        <ele>1943</ele>
        <time>2021-02-27T13:34:17Z</time>
      </trkpt>
      <trkpt lat="45.23926" lon="6.18534">
        <ele>1943</ele>
        <time>2021-02-27T13:34:19Z</time>
      </trkpt>
      <trkpt lat="45.23926" lon="6.18538">
        <ele>1943.4</ele>
        <time>2021-02-27T13:34:21Z</time>
      </trkpt>
      <trkpt lat="45.23926" lon="6.18542">
        <ele>1943.4</ele>
        <time>2021-02-27T13:34:23Z</time>
      </trkpt>
      <trkpt lat="45.23925" lon="6.18545">
        <ele>1943.4</ele>
        <time>2021-02-27T13:34:25Z</time>
      </trkpt>
      <trkpt lat="45.23925" lon="6.18548">
        <ele>1943.4</ele>
        <time>2021-02-27T13:34:27Z</time>
      </trkpt>
      <trkpt lat="45.23924" lon="6.18551">
        <ele>1943.4</ele>
        <time>2021-02-27T13:34:29Z</time>
      </trkpt>
      <trkpt lat="45.23923" lon="6.18554">
        <ele>1944.4</ele>
        <time>2021-02-27T13:34:31Z</time>
      </trkpt>
      <trkpt lat="45.23922" lon="6.18558">
        <ele>1944.4</ele>
        <time>2021-02-27T13:34:33Z</time>
      </trkpt>
      <trkpt lat="45.2392" lon="6.1856">
        <ele>1944.4</ele>
        <time>2021-02-27T13:34:35Z</time>
      </trkpt>
      <trkpt lat="45.23918" lon="6.18562">
        <ele>1944.4</ele>
        <time>2021-02-27T13:34:37Z</time>
      </trkpt>
      <trkpt lat="45.23917" lon="6.18564">
        <ele>1944.4</ele>
        <time>2021-02-27T13:34:39Z</time>
      </trkpt>
      <trkpt lat="45.23914" lon="6.18566">
        <ele>1945.8</ele>
        <time>2021-02-27T13:34:41Z</time>
      </trkpt>
      <trkpt lat="45.2391" lon="6.18568">
        <ele>1945.8</ele>
        <time>2021-02-27T13:34:44Z</time>
      </trkpt>
      <trkpt lat="45.23909" lon="6.1857">
        <ele>1945.8</ele>
        <time>2021-02-27T13:34:46Z</time>
      </trkpt>
      <trkpt lat="45.23907" lon="6.18571">
        <ele>1945.8</ele>
        <time>2021-02-27T13:34:48Z</time>
      </trkpt>
      <trkpt lat="45.23906" lon="6.18572">
        <ele>1945.8</ele>
        <time>2021-02-27T13:34:50Z</time>
      </trkpt>
      <trkpt lat="45.23905" lon="6.18573">
        <ele>1947.2</ele>
        <time>2021-02-27T13:34:51Z</time>
      </trkpt>
      <trkpt lat="45.23903" lon="6.18573">
        <ele>1947.2</ele>
        <time>2021-02-27T13:34:52Z</time>
      </trkpt>
      <trkpt lat="45.23901" lon="6.18575">
        <ele>1947.2</ele>
        <time>2021-02-27T13:34:54Z</time>
      </trkpt>
      <trkpt lat="45.23898" lon="6.18575">
        <ele>1947.2</ele>
        <time>2021-02-27T13:34:56Z</time>
      </trkpt>
      <trkpt lat="45.23895" lon="6.18575">
        <ele>1947.2</ele>
        <time>2021-02-27T13:34:58Z</time>
      </trkpt>
      <trkpt lat="45.23893" lon="6.18575">
        <ele>1947.2</ele>
        <time>2021-02-27T13:34:59Z</time>
      </trkpt>
      <trkpt lat="45.23893" lon="6.18575">
        <ele>1948.2</ele>
        <time>2021-02-27T13:35:01Z</time>
      </trkpt>
      <trkpt lat="45.23891" lon="6.18576">
        <ele>1948.2</ele>
        <time>2021-02-27T13:35:02Z</time>
      </trkpt>
      <trkpt lat="45.23889" lon="6.18577">
        <ele>1948.2</ele>
        <time>2021-02-27T13:35:04Z</time>
      </trkpt>
      <trkpt lat="45.23886" lon="6.18578">
        <ele>1948.2</ele>
        <time>2021-02-27T13:35:06Z</time>
      </trkpt>
      <trkpt lat="45.23884" lon="6.1858">
        <ele>1948.2</ele>
        <time>2021-02-27T13:35:08Z</time>
      </trkpt>
      <trkpt lat="45.23882" lon="6.18581">
        <ele>1948.2</ele>
        <time>2021-02-27T13:35:09Z</time>
      </trkpt>
      <trkpt lat="45.2388" lon="6.18583">
        <ele>1949</ele>
        <time>2021-02-27T13:35:11Z</time>
      </trkpt>
      <trkpt lat="45.23877" lon="6.18584">
        <ele>1949</ele>
        <time>2021-02-27T13:35:13Z</time>
      </trkpt>
      <trkpt lat="45.23875" lon="6.18585">
        <ele>1949</ele>
        <time>2021-02-27T13:35:15Z</time>
      </trkpt>
      <trkpt lat="45.23873" lon="6.18587">
        <ele>1949</ele>
        <time>2021-02-27T13:35:17Z</time>
      </trkpt>
      <trkpt lat="45.23871" lon="6.18589">
        <ele>1949</ele>
        <time>2021-02-27T13:35:19Z</time>
      </trkpt>
      <trkpt lat="45.23869" lon="6.1859">
        <ele>1950.4</ele>
        <time>2021-02-27T13:35:21Z</time>
      </trkpt>
      <trkpt lat="45.23867" lon="6.18592">
        <ele>1950.4</ele>
        <time>2021-02-27T13:35:23Z</time>
      </trkpt>
      <trkpt lat="45.23864" lon="6.18594">
        <ele>1950.4</ele>
        <time>2021-02-27T13:35:25Z</time>
      </trkpt>
      <trkpt lat="45.23861" lon="6.18595">
        <ele>1950.4</ele>
        <time>2021-02-27T13:35:27Z</time>
      </trkpt>
      <trkpt lat="45.2386" lon="6.18597">
        <ele>1950.4</ele>
        <time>2021-02-27T13:35:29Z</time>
      </trkpt>
      <trkpt lat="45.23858" lon="6.186">
        <ele>1950.8</ele>
        <time>2021-02-27T13:35:31Z</time>
      </trkpt>
      <trkpt lat="45.23856" lon="6.18602">
        <ele>1950.8</ele>
        <time>2021-02-27T13:35:33Z</time>
      </trkpt>
      <trkpt lat="45.23855" lon="6.18604">
        <ele>1950.8</ele>
        <time>2021-02-27T13:35:35Z</time>
      </trkpt>
      <trkpt lat="45.23853" lon="6.18607">
        <ele>1950.8</ele>
        <time>2021-02-27T13:35:37Z</time>
      </trkpt>
      <trkpt lat="45.23851" lon="6.18608">
        <ele>1950.8</ele>
        <time>2021-02-27T13:35:39Z</time>
      </trkpt>
      <trkpt lat="45.23848" lon="6.1861">
        <ele>1951.2</ele>
        <time>2021-02-27T13:35:41Z</time>
      </trkpt>
      <trkpt lat="45.23845" lon="6.18614">
        <ele>1951.2</ele>
        <time>2021-02-27T13:35:43Z</time>
      </trkpt>
      <trkpt lat="45.23844" lon="6.18617">
        <ele>1951.2</ele>
        <time>2021-02-27T13:35:46Z</time>
      </trkpt>
      <trkpt lat="45.23843" lon="6.18619">
        <ele>1951.2</ele>
        <time>2021-02-27T13:35:48Z</time>
      </trkpt>
      <trkpt lat="45.23842" lon="6.18621">
        <ele>1951.2</ele>
        <time>2021-02-27T13:35:50Z</time>
      </trkpt>
      <trkpt lat="45.2384" lon="6.18623">
        <ele>1952.4</ele>
        <time>2021-02-27T13:35:51Z</time>
      </trkpt>
      <trkpt lat="45.23839" lon="6.18627">
        <ele>1952.4</ele>
        <time>2021-02-27T13:35:52Z</time>
      </trkpt>
      <trkpt lat="45.23839" lon="6.18629">
        <ele>1952.4</ele>
        <time>2021-02-27T13:35:54Z</time>
      </trkpt>
      <trkpt lat="45.23838" lon="6.18632">
        <ele>1952.4</ele>
        <time>2021-02-27T13:35:56Z</time>
      </trkpt>
      <trkpt lat="45.23837" lon="6.18635">
        <ele>1952.4</ele>
        <time>2021-02-27T13:35:58Z</time>
      </trkpt>
      <trkpt lat="45.23837" lon="6.18637">
        <ele>1952.4</ele>
        <time>2021-02-27T13:36:00Z</time>
      </trkpt>
      <trkpt lat="45.23836" lon="6.1864">
        <ele>1953.2</ele>
        <time>2021-02-27T13:36:01Z</time>
      </trkpt>
      <trkpt lat="45.23835" lon="6.18643">
        <ele>1953.2</ele>
        <time>2021-02-27T13:36:02Z</time>
      </trkpt>
      <trkpt lat="45.23834" lon="6.18645">
        <ele>1953.2</ele>
        <time>2021-02-27T13:36:04Z</time>
      </trkpt>
      <trkpt lat="45.23833" lon="6.18647">
        <ele>1953.2</ele>
        <time>2021-02-27T13:36:06Z</time>
      </trkpt>
      <trkpt lat="45.23832" lon="6.18649">
        <ele>1953.2</ele>
        <time>2021-02-27T13:36:08Z</time>
      </trkpt>
      <trkpt lat="45.23831" lon="6.18652">
        <ele>1953.2</ele>
        <time>2021-02-27T13:36:10Z</time>
      </trkpt>
      <trkpt lat="45.2383" lon="6.18654">
        <ele>1954.4</ele>
        <time>2021-02-27T13:36:11Z</time>
      </trkpt>
      <trkpt lat="45.23829" lon="6.18655">
        <ele>1954.4</ele>
        <time>2021-02-27T13:36:12Z</time>
      </trkpt>
      <trkpt lat="45.23828" lon="6.18658">
        <ele>1954.4</ele>
        <time>2021-02-27T13:36:15Z</time>
      </trkpt>
      <trkpt lat="45.23827" lon="6.18661">
        <ele>1954.4</ele>
        <time>2021-02-27T13:36:17Z</time>
      </trkpt>
      <trkpt lat="45.23826" lon="6.18665">
        <ele>1954.4</ele>
        <time>2021-02-27T13:36:19Z</time>
      </trkpt>
      <trkpt lat="45.23824" lon="6.18668">
        <ele>1955</ele>
        <time>2021-02-27T13:36:21Z</time>
      </trkpt>
      <trkpt lat="45.23824" lon="6.18671">
        <ele>1955</ele>
        <time>2021-02-27T13:36:23Z</time>
      </trkpt>
      <trkpt lat="45.23823" lon="6.18674">
        <ele>1955</ele>
        <time>2021-02-27T13:36:25Z</time>
      </trkpt>
      <trkpt lat="45.23822" lon="6.18677">
        <ele>1955</ele>
        <time>2021-02-27T13:36:27Z</time>
      </trkpt>
      <trkpt lat="45.23821" lon="6.1868">
        <ele>1955</ele>
        <time>2021-02-27T13:36:29Z</time>
      </trkpt>
      <trkpt lat="45.23819" lon="6.18683">
        <ele>1955.4</ele>
        <time>2021-02-27T13:36:31Z</time>
      </trkpt>
      <trkpt lat="45.23818" lon="6.18686">
        <ele>1955.4</ele>
        <time>2021-02-27T13:36:33Z</time>
      </trkpt>
      <trkpt lat="45.23816" lon="6.18689">
        <ele>1955.4</ele>
        <time>2021-02-27T13:36:35Z</time>
      </trkpt>
      <trkpt lat="45.23814" lon="6.18692">
        <ele>1955.4</ele>
        <time>2021-02-27T13:36:37Z</time>
      </trkpt>
      <trkpt lat="45.23813" lon="6.18695">
        <ele>1955.4</ele>
        <time>2021-02-27T13:36:39Z</time>
      </trkpt>
      <trkpt lat="45.23812" lon="6.18698">
        <ele>1957</ele>
        <time>2021-02-27T13:36:41Z</time>
      </trkpt>
      <trkpt lat="45.2381" lon="6.18701">
        <ele>1957</ele>
        <time>2021-02-27T13:36:43Z</time>
      </trkpt>
      <trkpt lat="45.23809" lon="6.18705">
        <ele>1957</ele>
        <time>2021-02-27T13:36:45Z</time>
      </trkpt>
      <trkpt lat="45.23807" lon="6.18708">
        <ele>1957</ele>
        <time>2021-02-27T13:36:47Z</time>
      </trkpt>
      <trkpt lat="45.23806" lon="6.18711">
        <ele>1957</ele>
        <time>2021-02-27T13:36:49Z</time>
      </trkpt>
      <trkpt lat="45.23804" lon="6.18714">
        <ele>1957.6</ele>
        <time>2021-02-27T13:36:51Z</time>
      </trkpt>
      <trkpt lat="45.23802" lon="6.18717">
        <ele>1957.6</ele>
        <time>2021-02-27T13:36:53Z</time>
      </trkpt>
      <trkpt lat="45.23801" lon="6.1872">
        <ele>1957.6</ele>
        <time>2021-02-27T13:36:55Z</time>
      </trkpt>
      <trkpt lat="45.23801" lon="6.18723">
        <ele>1957.6</ele>
        <time>2021-02-27T13:36:57Z</time>
      </trkpt>
      <trkpt lat="45.23801" lon="6.18726">
        <ele>1957.6</ele>
        <time>2021-02-27T13:36:59Z</time>
      </trkpt>
      <trkpt lat="45.23799" lon="6.18729">
        <ele>1958.2</ele>
        <time>2021-02-27T13:37:01Z</time>
      </trkpt>
      <trkpt lat="45.23798" lon="6.18732">
        <ele>1958.2</ele>
        <time>2021-02-27T13:37:03Z</time>
      </trkpt>
      <trkpt lat="45.23797" lon="6.18735">
        <ele>1958.2</ele>
        <time>2021-02-27T13:37:05Z</time>
      </trkpt>
      <trkpt lat="45.23796" lon="6.18738">
        <ele>1958.2</ele>
        <time>2021-02-27T13:37:07Z</time>
      </trkpt>
      <trkpt lat="45.23794" lon="6.18742">
        <ele>1958.2</ele>
        <time>2021-02-27T13:37:09Z</time>
      </trkpt>
      <trkpt lat="45.23793" lon="6.18745">
        <ele>1959.2</ele>
        <time>2021-02-27T13:37:11Z</time>
      </trkpt>
      <trkpt lat="45.23791" lon="6.18748">
        <ele>1959.2</ele>
        <time>2021-02-27T13:37:13Z</time>
      </trkpt>
      <trkpt lat="45.2379" lon="6.18751">
        <ele>1959.2</ele>
        <time>2021-02-27T13:37:15Z</time>
      </trkpt>
      <trkpt lat="45.23789" lon="6.18755">
        <ele>1959.2</ele>
        <time>2021-02-27T13:37:17Z</time>
      </trkpt>
      <trkpt lat="45.23788" lon="6.18758">
        <ele>1959.2</ele>
        <time>2021-02-27T13:37:19Z</time>
      </trkpt>
      <trkpt lat="45.23786" lon="6.18761">
        <ele>1960.2</ele>
        <time>2021-02-27T13:37:21Z</time>
      </trkpt>
      <trkpt lat="45.23785" lon="6.18763">
        <ele>1960.2</ele>
        <time>2021-02-27T13:37:23Z</time>
      </trkpt>
      <trkpt lat="45.23783" lon="6.18766">
        <ele>1960.2</ele>
        <time>2021-02-27T13:37:25Z</time>
      </trkpt>
      <trkpt lat="45.23782" lon="6.18769">
        <ele>1960.2</ele>
        <time>2021-02-27T13:37:27Z</time>
      </trkpt>
      <trkpt lat="45.23781" lon="6.18771">
        <ele>1960.2</ele>
        <time>2021-02-27T13:37:29Z</time>
      </trkpt>
      <trkpt lat="45.23779" lon="6.18774">
        <ele>1961</ele>
        <time>2021-02-27T13:37:31Z</time>
      </trkpt>
      <trkpt lat="45.23777" lon="6.18777">
        <ele>1961</ele>
        <time>2021-02-27T13:37:33Z</time>
      </trkpt>
      <trkpt lat="45.23775" lon="6.18779">
        <ele>1961</ele>
        <time>2021-02-27T13:37:35Z</time>
      </trkpt>
      <trkpt lat="45.23774" lon="6.18782">
        <ele>1961</ele>
        <time>2021-02-27T13:37:37Z</time>
      </trkpt>
      <trkpt lat="45.23772" lon="6.18785">
        <ele>1961</ele>
        <time>2021-02-27T13:37:39Z</time>
      </trkpt>
      <trkpt lat="45.2377" lon="6.18788">
        <ele>1962</ele>
        <time>2021-02-27T13:37:41Z</time>
      </trkpt>
      <trkpt lat="45.23769" lon="6.18791">
        <ele>1962</ele>
        <time>2021-02-27T13:37:43Z</time>
      </trkpt>
      <trkpt lat="45.23767" lon="6.18793">
        <ele>1962</ele>
        <time>2021-02-27T13:37:45Z</time>
      </trkpt>
      <trkpt lat="45.23766" lon="6.18796">
        <ele>1962</ele>
        <time>2021-02-27T13:37:47Z</time>
      </trkpt>
      <trkpt lat="45.23765" lon="6.18799">
        <ele>1962</ele>
        <time>2021-02-27T13:37:49Z</time>
      </trkpt>
      <trkpt lat="45.23765" lon="6.18802">
        <ele>1962.6</ele>
        <time>2021-02-27T13:37:51Z</time>
      </trkpt>
      <trkpt lat="45.23765" lon="6.18806">
        <ele>1962.6</ele>
        <time>2021-02-27T13:37:53Z</time>
      </trkpt>
      <trkpt lat="45.23764" lon="6.18809">
        <ele>1962.6</ele>
        <time>2021-02-27T13:37:55Z</time>
      </trkpt>
      <trkpt lat="45.23763" lon="6.18812">
        <ele>1962.6</ele>
        <time>2021-02-27T13:37:57Z</time>
      </trkpt>
      <trkpt lat="45.23761" lon="6.18815">
        <ele>1962.6</ele>
        <time>2021-02-27T13:37:59Z</time>
      </trkpt>
      <trkpt lat="45.23761" lon="6.18818">
        <ele>1963.4</ele>
        <time>2021-02-27T13:38:01Z</time>
      </trkpt>
      <trkpt lat="45.2376" lon="6.18822">
        <ele>1963.4</ele>
        <time>2021-02-27T13:38:03Z</time>
      </trkpt>
      <trkpt lat="45.2376" lon="6.18825">
        <ele>1963.4</ele>
        <time>2021-02-27T13:38:05Z</time>
      </trkpt>
      <trkpt lat="45.23759" lon="6.18828">
        <ele>1963.4</ele>
        <time>2021-02-27T13:38:07Z</time>
      </trkpt>
      <trkpt lat="45.23758" lon="6.18832">
        <ele>1963.4</ele>
        <time>2021-02-27T13:38:09Z</time>
      </trkpt>
      <trkpt lat="45.23757" lon="6.18835">
        <ele>1964.6</ele>
        <time>2021-02-27T13:38:11Z</time>
      </trkpt>
      <trkpt lat="45.23757" lon="6.18839">
        <ele>1964.6</ele>
        <time>2021-02-27T13:38:13Z</time>
      </trkpt>
      <trkpt lat="45.23756" lon="6.18842">
        <ele>1964.6</ele>
        <time>2021-02-27T13:38:15Z</time>
      </trkpt>
      <trkpt lat="45.23755" lon="6.18845">
        <ele>1964.6</ele>
        <time>2021-02-27T13:38:17Z</time>
      </trkpt>
      <trkpt lat="45.23755" lon="6.18849">
        <ele>1964.6</ele>
        <time>2021-02-27T13:38:19Z</time>
      </trkpt>
      <trkpt lat="45.23754" lon="6.18852">
        <ele>1965.6</ele>
        <time>2021-02-27T13:38:21Z</time>
      </trkpt>
      <trkpt lat="45.23754" lon="6.18856">
        <ele>1965.6</ele>
        <time>2021-02-27T13:38:23Z</time>
      </trkpt>
      <trkpt lat="45.23753" lon="6.18859">
        <ele>1965.6</ele>
        <time>2021-02-27T13:38:25Z</time>
      </trkpt>
      <trkpt lat="45.23753" lon="6.18863">
        <ele>1965.6</ele>
        <time>2021-02-27T13:38:27Z</time>
      </trkpt>
      <trkpt lat="45.23752" lon="6.18866">
        <ele>1965.6</ele>
        <time>2021-02-27T13:38:29Z</time>
      </trkpt>
      <trkpt lat="45.23751" lon="6.18869">
        <ele>1966.2</ele>
        <time>2021-02-27T13:38:31Z</time>
      </trkpt>
      <trkpt lat="45.2375" lon="6.18873">
        <ele>1966.2</ele>
        <time>2021-02-27T13:38:33Z</time>
      </trkpt>
      <trkpt lat="45.23749" lon="6.18876">
        <ele>1966.2</ele>
        <time>2021-02-27T13:38:35Z</time>
      </trkpt>
      <trkpt lat="45.23749" lon="6.18879">
        <ele>1966.2</ele>
        <time>2021-02-27T13:38:37Z</time>
      </trkpt>
      <trkpt lat="45.23749" lon="6.18882">
        <ele>1966.2</ele>
        <time>2021-02-27T13:38:39Z</time>
      </trkpt>
      <trkpt lat="45.23748" lon="6.18885">
        <ele>1966.2</ele>
        <time>2021-02-27T13:38:41Z</time>
      </trkpt>
      <trkpt lat="45.23746" lon="6.18889">
        <ele>1966.2</ele>
        <time>2021-02-27T13:38:43Z</time>
      </trkpt>
      <trkpt lat="45.23745" lon="6.18892">
        <ele>1966.2</ele>
        <time>2021-02-27T13:38:45Z</time>
      </trkpt>
      <trkpt lat="45.23744" lon="6.18894">
        <ele>1966.2</ele>
        <time>2021-02-27T13:38:47Z</time>
      </trkpt>
      <trkpt lat="45.23743" lon="6.18897">
        <ele>1966.2</ele>
        <time>2021-02-27T13:38:49Z</time>
      </trkpt>
      <trkpt lat="45.23741" lon="6.189">
        <ele>1967.2</ele>
        <time>2021-02-27T13:38:51Z</time>
      </trkpt>
      <trkpt lat="45.23741" lon="6.18904">
        <ele>1967.2</ele>
        <time>2021-02-27T13:38:53Z</time>
      </trkpt>
      <trkpt lat="45.2374" lon="6.18907">
        <ele>1967.2</ele>
        <time>2021-02-27T13:38:55Z</time>
      </trkpt>
      <trkpt lat="45.23739" lon="6.18909">
        <ele>1967.2</ele>
        <time>2021-02-27T13:38:57Z</time>
      </trkpt>
      <trkpt lat="45.23737" lon="6.18912">
        <ele>1967.2</ele>
        <time>2021-02-27T13:38:59Z</time>
      </trkpt>
      <trkpt lat="45.23736" lon="6.18915">
        <ele>1968.2</ele>
        <time>2021-02-27T13:39:01Z</time>
      </trkpt>
      <trkpt lat="45.23735" lon="6.18919">
        <ele>1968.2</ele>
        <time>2021-02-27T13:39:03Z</time>
      </trkpt>
      <trkpt lat="45.23734" lon="6.18922">
        <ele>1968.2</ele>
        <time>2021-02-27T13:39:05Z</time>
      </trkpt>
      <trkpt lat="45.23733" lon="6.18925">
        <ele>1968.2</ele>
        <time>2021-02-27T13:39:07Z</time>
      </trkpt>
      <trkpt lat="45.23732" lon="6.18928">
        <ele>1968.2</ele>
        <time>2021-02-27T13:39:09Z</time>
      </trkpt>
      <trkpt lat="45.23732" lon="6.18928">
        <ele>1969</ele>
        <time>2021-02-27T13:39:11Z</time>
      </trkpt>
      <trkpt lat="45.23732" lon="6.18928">
        <ele>1969.6</ele>
        <time>2021-02-27T13:39:21Z</time>
      </trkpt>
      <trkpt lat="45.2373" lon="6.1893">
        <ele>1969.4</ele>
        <time>2021-02-27T13:39:31Z</time>
      </trkpt>
      <trkpt lat="45.23727" lon="6.18932">
        <ele>1969.4</ele>
        <time>2021-02-27T13:39:33Z</time>
      </trkpt>
      <trkpt lat="45.23725" lon="6.18934">
        <ele>1969.4</ele>
        <time>2021-02-27T13:39:35Z</time>
      </trkpt>
      <trkpt lat="45.23724" lon="6.18935">
        <ele>1969.4</ele>
        <time>2021-02-27T13:39:38Z</time>
      </trkpt>
      <trkpt lat="45.23724" lon="6.18935">
        <ele>1967</ele>
        <time>2021-02-27T13:39:41Z</time>
      </trkpt>
      <trkpt lat="45.23722" lon="6.18937">
        <ele>1967</ele>
        <time>2021-02-27T13:39:46Z</time>
      </trkpt>
      <trkpt lat="45.23722" lon="6.18937">
        <ele>1966</ele>
        <time>2021-02-27T13:39:51Z</time>
      </trkpt>
      <trkpt lat="45.23722" lon="6.18937">
        <ele>1966</ele>
        <time>2021-02-27T13:40:01Z</time>
      </trkpt>
      <trkpt lat="45.23722" lon="6.18937">
        <ele>1965</ele>
        <time>2021-02-27T13:40:11Z</time>
      </trkpt>
      <trkpt lat="45.23722" lon="6.18937">
        <ele>1964.8</ele>
        <time>2021-02-27T13:40:21Z</time>
      </trkpt>
      <trkpt lat="45.23722" lon="6.18937">
        <ele>1966.2</ele>
        <time>2021-02-27T13:40:31Z</time>
      </trkpt>
      <trkpt lat="45.23722" lon="6.18937">
        <ele>1966.4</ele>
        <time>2021-02-27T13:40:41Z</time>
      </trkpt>
      <trkpt lat="45.23722" lon="6.18937">
        <ele>1965.4</ele>
        <time>2021-02-27T13:40:51Z</time>
      </trkpt>
      <trkpt lat="45.23722" lon="6.18937">
        <ele>1966.6</ele>
        <time>2021-02-27T13:41:01Z</time>
      </trkpt>
      <trkpt lat="45.23722" lon="6.18937">
        <ele>1966.2</ele>
        <time>2021-02-27T13:41:11Z</time>
      </trkpt>
      <trkpt lat="45.23723" lon="6.18935">
        <ele>1966.2</ele>
        <time>2021-02-27T13:41:20Z</time>
      </trkpt>
      <trkpt lat="45.23723" lon="6.18935">
        <ele>1967</ele>
        <time>2021-02-27T13:41:21Z</time>
      </trkpt>
      <trkpt lat="45.23725" lon="6.18932">
        <ele>1967</ele>
        <time>2021-02-27T13:41:22Z</time>
      </trkpt>
      <trkpt lat="45.23726" lon="6.18928">
        <ele>1967</ele>
        <time>2021-02-27T13:41:24Z</time>
      </trkpt>
      <trkpt lat="45.23727" lon="6.18926">
        <ele>1967</ele>
        <time>2021-02-27T13:41:26Z</time>
      </trkpt>
      <trkpt lat="45.23729" lon="6.18925">
        <ele>1967</ele>
        <time>2021-02-27T13:41:28Z</time>
      </trkpt>
      <trkpt lat="45.23731" lon="6.18928">
        <ele>1968.4</ele>
        <time>2021-02-27T13:41:31Z</time>
      </trkpt>
      <trkpt lat="45.23731" lon="6.1893">
        <ele>1968.4</ele>
        <time>2021-02-27T13:41:33Z</time>
      </trkpt>
      <trkpt lat="45.23731" lon="6.18933">
        <ele>1968.4</ele>
        <time>2021-02-27T13:41:35Z</time>
      </trkpt>
      <trkpt lat="45.2373" lon="6.18936">
        <ele>1968.4</ele>
        <time>2021-02-27T13:41:38Z</time>
      </trkpt>
      <trkpt lat="45.2373" lon="6.18936">
        <ele>1969.2</ele>
        <time>2021-02-27T13:41:41Z</time>
      </trkpt>
      <trkpt lat="45.23728" lon="6.18942">
        <ele>1969.2</ele>
        <time>2021-02-27T13:41:42Z</time>
      </trkpt>
      <trkpt lat="45.23728" lon="6.18943">
        <ele>1969.2</ele>
        <time>2021-02-27T13:41:44Z</time>
      </trkpt>
      <trkpt lat="45.23727" lon="6.18945">
        <ele>1969.2</ele>
        <time>2021-02-27T13:41:46Z</time>
      </trkpt>
      <trkpt lat="45.23726" lon="6.18947">
        <ele>1969.2</ele>
        <time>2021-02-27T13:41:48Z</time>
      </trkpt>
      <trkpt lat="45.23726" lon="6.18949">
        <ele>1969.2</ele>
        <time>2021-02-27T13:41:50Z</time>
      </trkpt>
      <trkpt lat="45.23725" lon="6.1895">
        <ele>1969</ele>
        <time>2021-02-27T13:41:51Z</time>
      </trkpt>
      <trkpt lat="45.23725" lon="6.18952">
        <ele>1969</ele>
        <time>2021-02-27T13:41:52Z</time>
      </trkpt>
      <trkpt lat="45.23724" lon="6.18954">
        <ele>1969</ele>
        <time>2021-02-27T13:41:54Z</time>
      </trkpt>
      <trkpt lat="45.23723" lon="6.18958">
        <ele>1969</ele>
        <time>2021-02-27T13:41:57Z</time>
      </trkpt>
      <trkpt lat="45.23723" lon="6.18961">
        <ele>1969</ele>
        <time>2021-02-27T13:41:59Z</time>
      </trkpt>
      <trkpt lat="45.23722" lon="6.18964">
        <ele>1969.8</ele>
        <time>2021-02-27T13:42:01Z</time>
      </trkpt>
      <trkpt lat="45.23721" lon="6.1897">
        <ele>1969.8</ele>
        <time>2021-02-27T13:42:03Z</time>
      </trkpt>
      <trkpt lat="45.2372" lon="6.18972">
        <ele>1969.8</ele>
        <time>2021-02-27T13:42:05Z</time>
      </trkpt>
      <trkpt lat="45.23719" lon="6.18974">
        <ele>1969.8</ele>
        <time>2021-02-27T13:42:07Z</time>
      </trkpt>
      <trkpt lat="45.23719" lon="6.18977">
        <ele>1969.8</ele>
        <time>2021-02-27T13:42:10Z</time>
      </trkpt>
      <trkpt lat="45.23718" lon="6.18979">
        <ele>1970.4</ele>
        <time>2021-02-27T13:42:11Z</time>
      </trkpt>
      <trkpt lat="45.23717" lon="6.18983">
        <ele>1970.4</ele>
        <time>2021-02-27T13:42:12Z</time>
      </trkpt>
      <trkpt lat="45.23717" lon="6.18985">
        <ele>1970.4</ele>
        <time>2021-02-27T13:42:14Z</time>
      </trkpt>
      <trkpt lat="45.23717" lon="6.18987">
        <ele>1970.4</ele>
        <time>2021-02-27T13:42:16Z</time>
      </trkpt>
      <trkpt lat="45.23716" lon="6.18989">
        <ele>1970.4</ele>
        <time>2021-02-27T13:42:18Z</time>
      </trkpt>
      <trkpt lat="45.23716" lon="6.18991">
        <ele>1970.4</ele>
        <time>2021-02-27T13:42:20Z</time>
      </trkpt>
      <trkpt lat="45.23716" lon="6.18993">
        <ele>1971.6</ele>
        <time>2021-02-27T13:42:21Z</time>
      </trkpt>
      <trkpt lat="45.23715" lon="6.18997">
        <ele>1971.6</ele>
        <time>2021-02-27T13:42:22Z</time>
      </trkpt>
      <trkpt lat="45.23715" lon="6.18999">
        <ele>1971.6</ele>
        <time>2021-02-27T13:42:24Z</time>
      </trkpt>
      <trkpt lat="45.23715" lon="6.19001">
        <ele>1971.6</ele>
        <time>2021-02-27T13:42:26Z</time>
      </trkpt>
      <trkpt lat="45.23714" lon="6.19004">
        <ele>1971.6</ele>
        <time>2021-02-27T13:42:28Z</time>
      </trkpt>
      <trkpt lat="45.23714" lon="6.19006">
        <ele>1971.6</ele>
        <time>2021-02-27T13:42:30Z</time>
      </trkpt>
      <trkpt lat="45.23713" lon="6.19008">
        <ele>1972</ele>
        <time>2021-02-27T13:42:31Z</time>
      </trkpt>
      <trkpt lat="45.23713" lon="6.19009">
        <ele>1972</ele>
        <time>2021-02-27T13:42:32Z</time>
      </trkpt>
      <trkpt lat="45.23711" lon="6.19012">
        <ele>1972</ele>
        <time>2021-02-27T13:42:34Z</time>
      </trkpt>
      <trkpt lat="45.23711" lon="6.19015">
        <ele>1972</ele>
        <time>2021-02-27T13:42:36Z</time>
      </trkpt>
      <trkpt lat="45.2371" lon="6.19018">
        <ele>1972</ele>
        <time>2021-02-27T13:42:38Z</time>
      </trkpt>
      <trkpt lat="45.23709" lon="6.19021">
        <ele>1972.4</ele>
        <time>2021-02-27T13:42:41Z</time>
      </trkpt>
      <trkpt lat="45.23708" lon="6.19024">
        <ele>1972.4</ele>
        <time>2021-02-27T13:42:43Z</time>
      </trkpt>
      <trkpt lat="45.23708" lon="6.19027">
        <ele>1972.4</ele>
        <time>2021-02-27T13:42:45Z</time>
      </trkpt>
      <trkpt lat="45.23707" lon="6.1903">
        <ele>1972.4</ele>
        <time>2021-02-27T13:42:47Z</time>
      </trkpt>
      <trkpt lat="45.23706" lon="6.19033">
        <ele>1972.4</ele>
        <time>2021-02-27T13:42:49Z</time>
      </trkpt>
      <trkpt lat="45.23705" lon="6.19036">
        <ele>1973</ele>
        <time>2021-02-27T13:42:51Z</time>
      </trkpt>
      <trkpt lat="45.23703" lon="6.19039">
        <ele>1973</ele>
        <time>2021-02-27T13:42:53Z</time>
      </trkpt>
      <trkpt lat="45.23703" lon="6.19042">
        <ele>1973</ele>
        <time>2021-02-27T13:42:56Z</time>
      </trkpt>
      <trkpt lat="45.23701" lon="6.19044">
        <ele>1973</ele>
        <time>2021-02-27T13:42:57Z</time>
      </trkpt>
      <trkpt lat="45.23701" lon="6.19047">
        <ele>1973</ele>
        <time>2021-02-27T13:42:59Z</time>
      </trkpt>
      <trkpt lat="45.237" lon="6.1905">
        <ele>1974.2</ele>
        <time>2021-02-27T13:43:01Z</time>
      </trkpt>
      <trkpt lat="45.23699" lon="6.19053">
        <ele>1974.2</ele>
        <time>2021-02-27T13:43:03Z</time>
      </trkpt>
      <trkpt lat="45.23699" lon="6.19056">
        <ele>1974.2</ele>
        <time>2021-02-27T13:43:05Z</time>
      </trkpt>
      <trkpt lat="45.23698" lon="6.19059">
        <ele>1974.2</ele>
        <time>2021-02-27T13:43:07Z</time>
      </trkpt>
      <trkpt lat="45.23697" lon="6.19061">
        <ele>1974.2</ele>
        <time>2021-02-27T13:43:09Z</time>
      </trkpt>
      <trkpt lat="45.23697" lon="6.19064">
        <ele>1974.8</ele>
        <time>2021-02-27T13:43:11Z</time>
      </trkpt>
      <trkpt lat="45.23697" lon="6.19067">
        <ele>1974.8</ele>
        <time>2021-02-27T13:43:13Z</time>
      </trkpt>
      <trkpt lat="45.23696" lon="6.1907">
        <ele>1974.8</ele>
        <time>2021-02-27T13:43:15Z</time>
      </trkpt>
      <trkpt lat="45.23695" lon="6.19073">
        <ele>1974.8</ele>
        <time>2021-02-27T13:43:17Z</time>
      </trkpt>
      <trkpt lat="45.23695" lon="6.19076">
        <ele>1974.8</ele>
        <time>2021-02-27T13:43:19Z</time>
      </trkpt>
      <trkpt lat="45.23694" lon="6.19079">
        <ele>1976</ele>
        <time>2021-02-27T13:43:21Z</time>
      </trkpt>
      <trkpt lat="45.23692" lon="6.19084">
        <ele>1976</ele>
        <time>2021-02-27T13:43:24Z</time>
      </trkpt>
      <trkpt lat="45.23691" lon="6.19086">
        <ele>1976</ele>
        <time>2021-02-27T13:43:26Z</time>
      </trkpt>
      <trkpt lat="45.2369" lon="6.19088">
        <ele>1976</ele>
        <time>2021-02-27T13:43:28Z</time>
      </trkpt>
      <trkpt lat="45.23689" lon="6.19089">
        <ele>1976</ele>
        <time>2021-02-27T13:43:30Z</time>
      </trkpt>
      <trkpt lat="45.23688" lon="6.19091">
        <ele>1976.8</ele>
        <time>2021-02-27T13:43:31Z</time>
      </trkpt>
      <trkpt lat="45.23684" lon="6.19096">
        <ele>1976.8</ele>
        <time>2021-02-27T13:43:34Z</time>
      </trkpt>
      <trkpt lat="45.23683" lon="6.19098">
        <ele>1976.8</ele>
        <time>2021-02-27T13:43:36Z</time>
      </trkpt>
      <trkpt lat="45.23682" lon="6.191">
        <ele>1976.8</ele>
        <time>2021-02-27T13:43:38Z</time>
      </trkpt>
      <trkpt lat="45.2368" lon="6.19102">
        <ele>1976.8</ele>
        <time>2021-02-27T13:43:40Z</time>
      </trkpt>
      <trkpt lat="45.23679" lon="6.19103">
        <ele>1977.6</ele>
        <time>2021-02-27T13:43:41Z</time>
      </trkpt>
      <trkpt lat="45.23678" lon="6.19105">
        <ele>1977.6</ele>
        <time>2021-02-27T13:43:42Z</time>
      </trkpt>
      <trkpt lat="45.23677" lon="6.19107">
        <ele>1977.6</ele>
        <time>2021-02-27T13:43:44Z</time>
      </trkpt>
      <trkpt lat="45.23675" lon="6.19109">
        <ele>1977.6</ele>
        <time>2021-02-27T13:43:46Z</time>
      </trkpt>
      <trkpt lat="45.23673" lon="6.19111">
        <ele>1977.6</ele>
        <time>2021-02-27T13:43:48Z</time>
      </trkpt>
      <trkpt lat="45.23672" lon="6.19114">
        <ele>1978.6</ele>
        <time>2021-02-27T13:43:51Z</time>
      </trkpt>
      <trkpt lat="45.2367" lon="6.19117">
        <ele>1978.6</ele>
        <time>2021-02-27T13:43:54Z</time>
      </trkpt>
      <trkpt lat="45.23668" lon="6.19119">
        <ele>1978.6</ele>
        <time>2021-02-27T13:43:56Z</time>
      </trkpt>
      <trkpt lat="45.23666" lon="6.19122">
        <ele>1978.6</ele>
        <time>2021-02-27T13:43:59Z</time>
      </trkpt>
      <trkpt lat="45.23664" lon="6.19124">
        <ele>1978.8</ele>
        <time>2021-02-27T13:44:01Z</time>
      </trkpt>
      <trkpt lat="45.23662" lon="6.19128">
        <ele>1978.8</ele>
        <time>2021-02-27T13:44:03Z</time>
      </trkpt>
      <trkpt lat="45.23661" lon="6.1913">
        <ele>1978.8</ele>
        <time>2021-02-27T13:44:05Z</time>
      </trkpt>
      <trkpt lat="45.23659" lon="6.19133">
        <ele>1978.8</ele>
        <time>2021-02-27T13:44:07Z</time>
      </trkpt>
      <trkpt lat="45.23657" lon="6.19135">
        <ele>1978.8</ele>
        <time>2021-02-27T13:44:09Z</time>
      </trkpt>
      <trkpt lat="45.23655" lon="6.19137">
        <ele>1979.8</ele>
        <time>2021-02-27T13:44:11Z</time>
      </trkpt>
      <trkpt lat="45.23654" lon="6.1914">
        <ele>1979.8</ele>
        <time>2021-02-27T13:44:13Z</time>
      </trkpt>
      <trkpt lat="45.23653" lon="6.19143">
        <ele>1979.8</ele>
        <time>2021-02-27T13:44:15Z</time>
      </trkpt>
      <trkpt lat="45.23652" lon="6.19145">
        <ele>1979.8</ele>
        <time>2021-02-27T13:44:17Z</time>
      </trkpt>
      <trkpt lat="45.2365" lon="6.19148">
        <ele>1979.8</ele>
        <time>2021-02-27T13:44:19Z</time>
      </trkpt>
      <trkpt lat="45.2365" lon="6.19148">
        <ele>1981.2</ele>
        <time>2021-02-27T13:44:21Z</time>
      </trkpt>
      <trkpt lat="45.23648" lon="6.19151">
        <ele>1981.2</ele>
        <time>2021-02-27T13:44:22Z</time>
      </trkpt>
      <trkpt lat="45.23646" lon="6.19154">
        <ele>1981.2</ele>
        <time>2021-02-27T13:44:25Z</time>
      </trkpt>
      <trkpt lat="45.23644" lon="6.19157">
        <ele>1981.2</ele>
        <time>2021-02-27T13:44:27Z</time>
      </trkpt>
      <trkpt lat="45.23642" lon="6.19159">
        <ele>1981.2</ele>
        <time>2021-02-27T13:44:29Z</time>
      </trkpt>
      <trkpt lat="45.23641" lon="6.19162">
        <ele>1981.4</ele>
        <time>2021-02-27T13:44:31Z</time>
      </trkpt>
      <trkpt lat="45.23639" lon="6.19165">
        <ele>1981.4</ele>
        <time>2021-02-27T13:44:33Z</time>
      </trkpt>
      <trkpt lat="45.23637" lon="6.19167">
        <ele>1981.4</ele>
        <time>2021-02-27T13:44:35Z</time>
      </trkpt>
      <trkpt lat="45.23635" lon="6.19168">
        <ele>1981.4</ele>
        <time>2021-02-27T13:44:37Z</time>
      </trkpt>
      <trkpt lat="45.23634" lon="6.1917">
        <ele>1981.4</ele>
        <time>2021-02-27T13:44:39Z</time>
      </trkpt>
      <trkpt lat="45.23632" lon="6.19173">
        <ele>1982.4</ele>
        <time>2021-02-27T13:44:41Z</time>
      </trkpt>
      <trkpt lat="45.2363" lon="6.19174">
        <ele>1982.4</ele>
        <time>2021-02-27T13:44:43Z</time>
      </trkpt>
      <trkpt lat="45.23628" lon="6.19177">
        <ele>1982.4</ele>
        <time>2021-02-27T13:44:45Z</time>
      </trkpt>
      <trkpt lat="45.23627" lon="6.19179">
        <ele>1982.4</ele>
        <time>2021-02-27T13:44:47Z</time>
      </trkpt>
      <trkpt lat="45.23625" lon="6.19181">
        <ele>1982.4</ele>
        <time>2021-02-27T13:44:49Z</time>
      </trkpt>
      <trkpt lat="45.23624" lon="6.19184">
        <ele>1983.4</ele>
        <time>2021-02-27T13:44:51Z</time>
      </trkpt>
      <trkpt lat="45.23622" lon="6.19186">
        <ele>1983.4</ele>
        <time>2021-02-27T13:44:53Z</time>
      </trkpt>
      <trkpt lat="45.2362" lon="6.19188">
        <ele>1983.4</ele>
        <time>2021-02-27T13:44:55Z</time>
      </trkpt>
      <trkpt lat="45.23619" lon="6.19191">
        <ele>1983.4</ele>
        <time>2021-02-27T13:44:57Z</time>
      </trkpt>
      <trkpt lat="45.23618" lon="6.19193">
        <ele>1983.4</ele>
        <time>2021-02-27T13:44:59Z</time>
      </trkpt>
      <trkpt lat="45.23617" lon="6.19196">
        <ele>1984.6</ele>
        <time>2021-02-27T13:45:01Z</time>
      </trkpt>
      <trkpt lat="45.23615" lon="6.19198">
        <ele>1984.6</ele>
        <time>2021-02-27T13:45:03Z</time>
      </trkpt>
      <trkpt lat="45.23613" lon="6.19201">
        <ele>1984.6</ele>
        <time>2021-02-27T13:45:05Z</time>
      </trkpt>
      <trkpt lat="45.23612" lon="6.19203">
        <ele>1984.6</ele>
        <time>2021-02-27T13:45:07Z</time>
      </trkpt>
      <trkpt lat="45.2361" lon="6.19206">
        <ele>1984.6</ele>
        <time>2021-02-27T13:45:09Z</time>
      </trkpt>
      <trkpt lat="45.23608" lon="6.19208">
        <ele>1985.6</ele>
        <time>2021-02-27T13:45:11Z</time>
      </trkpt>
      <trkpt lat="45.23607" lon="6.19211">
        <ele>1985.6</ele>
        <time>2021-02-27T13:45:13Z</time>
      </trkpt>
      <trkpt lat="45.23606" lon="6.19214">
        <ele>1985.6</ele>
        <time>2021-02-27T13:45:15Z</time>
      </trkpt>
      <trkpt lat="45.23604" lon="6.19216">
        <ele>1985.6</ele>
        <time>2021-02-27T13:45:17Z</time>
      </trkpt>
      <trkpt lat="45.23603" lon="6.19218">
        <ele>1985.6</ele>
        <time>2021-02-27T13:45:19Z</time>
      </trkpt>
      <trkpt lat="45.23601" lon="6.1922">
        <ele>1986.8</ele>
        <time>2021-02-27T13:45:21Z</time>
      </trkpt>
      <trkpt lat="45.236" lon="6.19223">
        <ele>1986.8</ele>
        <time>2021-02-27T13:45:23Z</time>
      </trkpt>
      <trkpt lat="45.23598" lon="6.19225">
        <ele>1986.8</ele>
        <time>2021-02-27T13:45:25Z</time>
      </trkpt>
      <trkpt lat="45.23596" lon="6.19227">
        <ele>1986.8</ele>
        <time>2021-02-27T13:45:27Z</time>
      </trkpt>
      <trkpt lat="45.23594" lon="6.19229">
        <ele>1986.8</ele>
        <time>2021-02-27T13:45:29Z</time>
      </trkpt>
      <trkpt lat="45.23594" lon="6.19229">
        <ele>1986.8</ele>
        <time>2021-02-27T13:45:31Z</time>
      </trkpt>
      <trkpt lat="45.23591" lon="6.19233">
        <ele>1986.8</ele>
        <time>2021-02-27T13:45:32Z</time>
      </trkpt>
      <trkpt lat="45.2359" lon="6.19235">
        <ele>1986.8</ele>
        <time>2021-02-27T13:45:34Z</time>
      </trkpt>
      <trkpt lat="45.23589" lon="6.19236">
        <ele>1986.8</ele>
        <time>2021-02-27T13:45:36Z</time>
      </trkpt>
      <trkpt lat="45.23587" lon="6.19238">
        <ele>1986.8</ele>
        <time>2021-02-27T13:45:38Z</time>
      </trkpt>
      <trkpt lat="45.23586" lon="6.1924">
        <ele>1986.8</ele>
        <time>2021-02-27T13:45:40Z</time>
      </trkpt>
      <trkpt lat="45.23585" lon="6.19241">
        <ele>1988.6</ele>
        <time>2021-02-27T13:45:41Z</time>
      </trkpt>
      <trkpt lat="45.23583" lon="6.19244">
        <ele>1988.6</ele>
        <time>2021-02-27T13:45:42Z</time>
      </trkpt>
      <trkpt lat="45.23582" lon="6.19245">
        <ele>1988.6</ele>
        <time>2021-02-27T13:45:44Z</time>
      </trkpt>
      <trkpt lat="45.2358" lon="6.19247">
        <ele>1988.6</ele>
        <time>2021-02-27T13:45:46Z</time>
      </trkpt>
      <trkpt lat="45.23579" lon="6.19248">
        <ele>1988.6</ele>
        <time>2021-02-27T13:45:48Z</time>
      </trkpt>
      <trkpt lat="45.23577" lon="6.1925">
        <ele>1988.6</ele>
        <time>2021-02-27T13:45:50Z</time>
      </trkpt>
      <trkpt lat="45.23576" lon="6.19251">
        <ele>1989.6</ele>
        <time>2021-02-27T13:45:51Z</time>
      </trkpt>
      <trkpt lat="45.23575" lon="6.19253">
        <ele>1989.6</ele>
        <time>2021-02-27T13:45:52Z</time>
      </trkpt>
      <trkpt lat="45.23573" lon="6.19255">
        <ele>1989.6</ele>
        <time>2021-02-27T13:45:54Z</time>
      </trkpt>
      <trkpt lat="45.23571" lon="6.19257">
        <ele>1989.6</ele>
        <time>2021-02-27T13:45:56Z</time>
      </trkpt>
      <trkpt lat="45.23568" lon="6.19259">
        <ele>1989.6</ele>
        <time>2021-02-27T13:45:59Z</time>
      </trkpt>
      <trkpt lat="45.23566" lon="6.19262">
        <ele>1989.8</ele>
        <time>2021-02-27T13:46:01Z</time>
      </trkpt>
      <trkpt lat="45.23564" lon="6.19263">
        <ele>1989.8</ele>
        <time>2021-02-27T13:46:03Z</time>
      </trkpt>
      <trkpt lat="45.23563" lon="6.19265">
        <ele>1989.8</ele>
        <time>2021-02-27T13:46:05Z</time>
      </trkpt>
      <trkpt lat="45.23562" lon="6.19268">
        <ele>1989.8</ele>
        <time>2021-02-27T13:46:07Z</time>
      </trkpt>
      <trkpt lat="45.23561" lon="6.1927">
        <ele>1989.8</ele>
        <time>2021-02-27T13:46:09Z</time>
      </trkpt>
      <trkpt lat="45.23559" lon="6.19272">
        <ele>1991.4</ele>
        <time>2021-02-27T13:46:11Z</time>
      </trkpt>
      <trkpt lat="45.23557" lon="6.19274">
        <ele>1991.4</ele>
        <time>2021-02-27T13:46:13Z</time>
      </trkpt>
      <trkpt lat="45.23555" lon="6.19277">
        <ele>1991.4</ele>
        <time>2021-02-27T13:46:15Z</time>
      </trkpt>
      <trkpt lat="45.23553" lon="6.19278">
        <ele>1991.4</ele>
        <time>2021-02-27T13:46:17Z</time>
      </trkpt>
      <trkpt lat="45.23551" lon="6.1928">
        <ele>1991.4</ele>
        <time>2021-02-27T13:46:19Z</time>
      </trkpt>
      <trkpt lat="45.23549" lon="6.19282">
        <ele>1992.4</ele>
        <time>2021-02-27T13:46:21Z</time>
      </trkpt>
      <trkpt lat="45.23548" lon="6.19283">
        <ele>1992.4</ele>
        <time>2021-02-27T13:46:23Z</time>
      </trkpt>
      <trkpt lat="45.23546" lon="6.19285">
        <ele>1992.4</ele>
        <time>2021-02-27T13:46:25Z</time>
      </trkpt>
      <trkpt lat="45.23544" lon="6.19287">
        <ele>1992.4</ele>
        <time>2021-02-27T13:46:27Z</time>
      </trkpt>
      <trkpt lat="45.23542" lon="6.19288">
        <ele>1992.4</ele>
        <time>2021-02-27T13:46:29Z</time>
      </trkpt>
      <trkpt lat="45.23539" lon="6.19289">
        <ele>1993</ele>
        <time>2021-02-27T13:46:31Z</time>
      </trkpt>
      <trkpt lat="45.23537" lon="6.1929">
        <ele>1993</ele>
        <time>2021-02-27T13:46:33Z</time>
      </trkpt>
      <trkpt lat="45.23535" lon="6.19291">
        <ele>1993</ele>
        <time>2021-02-27T13:46:35Z</time>
      </trkpt>
      <trkpt lat="45.23533" lon="6.19293">
        <ele>1993</ele>
        <time>2021-02-27T13:46:37Z</time>
      </trkpt>
      <trkpt lat="45.23531" lon="6.19294">
        <ele>1993</ele>
        <time>2021-02-27T13:46:39Z</time>
      </trkpt>
      <trkpt lat="45.23528" lon="6.19295">
        <ele>1994</ele>
        <time>2021-02-27T13:46:41Z</time>
      </trkpt>
      <trkpt lat="45.23526" lon="6.19295">
        <ele>1994</ele>
        <time>2021-02-27T13:46:43Z</time>
      </trkpt>
      <trkpt lat="45.23524" lon="6.19296">
        <ele>1994</ele>
        <time>2021-02-27T13:46:45Z</time>
      </trkpt>
      <trkpt lat="45.23521" lon="6.19296">
        <ele>1994</ele>
        <time>2021-02-27T13:46:47Z</time>
      </trkpt>
      <trkpt lat="45.23518" lon="6.19297">
        <ele>1994</ele>
        <time>2021-02-27T13:46:49Z</time>
      </trkpt>
      <trkpt lat="45.23515" lon="6.19298">
        <ele>1994.2</ele>
        <time>2021-02-27T13:46:51Z</time>
      </trkpt>
      <trkpt lat="45.23513" lon="6.19299">
        <ele>1994.2</ele>
        <time>2021-02-27T13:46:53Z</time>
      </trkpt>
      <trkpt lat="45.2351" lon="6.19301">
        <ele>1994.2</ele>
        <time>2021-02-27T13:46:55Z</time>
      </trkpt>
      <trkpt lat="45.23509" lon="6.19302">
        <ele>1994.2</ele>
        <time>2021-02-27T13:46:57Z</time>
      </trkpt>
      <trkpt lat="45.23506" lon="6.19303">
        <ele>1994.2</ele>
        <time>2021-02-27T13:46:59Z</time>
      </trkpt>
      <trkpt lat="45.23505" lon="6.19305">
        <ele>1995.2</ele>
        <time>2021-02-27T13:47:01Z</time>
      </trkpt>
      <trkpt lat="45.23503" lon="6.19306">
        <ele>1995.2</ele>
        <time>2021-02-27T13:47:03Z</time>
      </trkpt>
      <trkpt lat="45.23501" lon="6.19307">
        <ele>1995.2</ele>
        <time>2021-02-27T13:47:05Z</time>
      </trkpt>
      <trkpt lat="45.23498" lon="6.19309">
        <ele>1995.2</ele>
        <time>2021-02-27T13:47:07Z</time>
      </trkpt>
      <trkpt lat="45.23495" lon="6.1931">
        <ele>1995.2</ele>
        <time>2021-02-27T13:47:09Z</time>
      </trkpt>
      <trkpt lat="45.23495" lon="6.1931">
        <ele>1996.2</ele>
        <time>2021-02-27T13:47:11Z</time>
      </trkpt>
      <trkpt lat="45.23491" lon="6.19313">
        <ele>1996.2</ele>
        <time>2021-02-27T13:47:12Z</time>
      </trkpt>
      <trkpt lat="45.2349" lon="6.19314">
        <ele>1996.2</ele>
        <time>2021-02-27T13:47:14Z</time>
      </trkpt>
      <trkpt lat="45.23488" lon="6.19316">
        <ele>1996.2</ele>
        <time>2021-02-27T13:47:16Z</time>
      </trkpt>
      <trkpt lat="45.23486" lon="6.19317">
        <ele>1996.2</ele>
        <time>2021-02-27T13:47:18Z</time>
      </trkpt>
      <trkpt lat="45.23485" lon="6.19318">
        <ele>1996.2</ele>
        <time>2021-02-27T13:47:20Z</time>
      </trkpt>
      <trkpt lat="45.23483" lon="6.19319">
        <ele>1995.8</ele>
        <time>2021-02-27T13:47:21Z</time>
      </trkpt>
      <trkpt lat="45.2348" lon="6.19319">
        <ele>1995.8</ele>
        <time>2021-02-27T13:47:22Z</time>
      </trkpt>
      <trkpt lat="45.23478" lon="6.1932">
        <ele>1995.8</ele>
        <time>2021-02-27T13:47:24Z</time>
      </trkpt>
      <trkpt lat="45.23476" lon="6.1932">
        <ele>1995.8</ele>
        <time>2021-02-27T13:47:26Z</time>
      </trkpt>
      <trkpt lat="45.23474" lon="6.1932">
        <ele>1995.8</ele>
        <time>2021-02-27T13:47:28Z</time>
      </trkpt>
      <trkpt lat="45.23472" lon="6.19321">
        <ele>1995.8</ele>
        <time>2021-02-27T13:47:30Z</time>
      </trkpt>
      <trkpt lat="45.2347" lon="6.19321">
        <ele>1997</ele>
        <time>2021-02-27T13:47:31Z</time>
      </trkpt>
      <trkpt lat="45.23467" lon="6.19322">
        <ele>1997</ele>
        <time>2021-02-27T13:47:32Z</time>
      </trkpt>
      <trkpt lat="45.23465" lon="6.19322">
        <ele>1997</ele>
        <time>2021-02-27T13:47:34Z</time>
      </trkpt>
      <trkpt lat="45.23463" lon="6.19322">
        <ele>1997</ele>
        <time>2021-02-27T13:47:36Z</time>
      </trkpt>
      <trkpt lat="45.23461" lon="6.19323">
        <ele>1997</ele>
        <time>2021-02-27T13:47:38Z</time>
      </trkpt>
      <trkpt lat="45.2346" lon="6.19323">
        <ele>1997</ele>
        <time>2021-02-27T13:47:40Z</time>
      </trkpt>
      <trkpt lat="45.23458" lon="6.19323">
        <ele>1997.8</ele>
        <time>2021-02-27T13:47:41Z</time>
      </trkpt>
      <trkpt lat="45.23455" lon="6.19324">
        <ele>1997.8</ele>
        <time>2021-02-27T13:47:42Z</time>
      </trkpt>
      <trkpt lat="45.23453" lon="6.19325">
        <ele>1997.8</ele>
        <time>2021-02-27T13:47:44Z</time>
      </trkpt>
      <trkpt lat="45.23451" lon="6.19325">
        <ele>1997.8</ele>
        <time>2021-02-27T13:47:46Z</time>
      </trkpt>
      <trkpt lat="45.2345" lon="6.19326">
        <ele>1997.8</ele>
        <time>2021-02-27T13:47:48Z</time>
      </trkpt>
      <trkpt lat="45.23448" lon="6.19326">
        <ele>1997.8</ele>
        <time>2021-02-27T13:47:50Z</time>
      </trkpt>
      <trkpt lat="45.23446" lon="6.19327">
        <ele>1998.2</ele>
        <time>2021-02-27T13:47:51Z</time>
      </trkpt>
      <trkpt lat="45.23443" lon="6.19328">
        <ele>1998.2</ele>
        <time>2021-02-27T13:47:53Z</time>
      </trkpt>
      <trkpt lat="45.2344" lon="6.19328">
        <ele>1998.2</ele>
        <time>2021-02-27T13:47:55Z</time>
      </trkpt>
      <trkpt lat="45.23438" lon="6.19328">
        <ele>1998.2</ele>
        <time>2021-02-27T13:47:58Z</time>
      </trkpt>
      <trkpt lat="45.23436" lon="6.19329">
        <ele>1998.2</ele>
        <time>2021-02-27T13:48:00Z</time>
      </trkpt>
      <trkpt lat="45.23434" lon="6.19329">
        <ele>1999.6</ele>
        <time>2021-02-27T13:48:01Z</time>
      </trkpt>
      <trkpt lat="45.23431" lon="6.19329">
        <ele>1999.6</ele>
        <time>2021-02-27T13:48:02Z</time>
      </trkpt>
      <trkpt lat="45.2343" lon="6.19329">
        <ele>1999.6</ele>
        <time>2021-02-27T13:48:04Z</time>
      </trkpt>
      <trkpt lat="45.23428" lon="6.19329">
        <ele>1999.6</ele>
        <time>2021-02-27T13:48:06Z</time>
      </trkpt>
      <trkpt lat="45.23426" lon="6.1933">
        <ele>1999.6</ele>
        <time>2021-02-27T13:48:08Z</time>
      </trkpt>
      <trkpt lat="45.23425" lon="6.1933">
        <ele>1999.6</ele>
        <time>2021-02-27T13:48:10Z</time>
      </trkpt>
      <trkpt lat="45.23423" lon="6.1933">
        <ele>2001</ele>
        <time>2021-02-27T13:48:11Z</time>
      </trkpt>
      <trkpt lat="45.23421" lon="6.19331">
        <ele>2001</ele>
        <time>2021-02-27T13:48:12Z</time>
      </trkpt>
      <trkpt lat="45.2342" lon="6.19333">
        <ele>2001</ele>
        <time>2021-02-27T13:48:14Z</time>
      </trkpt>
      <trkpt lat="45.23419" lon="6.19334">
        <ele>2001</ele>
        <time>2021-02-27T13:48:16Z</time>
      </trkpt>
      <trkpt lat="45.23417" lon="6.19336">
        <ele>2001</ele>
        <time>2021-02-27T13:48:18Z</time>
      </trkpt>
      <trkpt lat="45.23416" lon="6.19337">
        <ele>2001</ele>
        <time>2021-02-27T13:48:20Z</time>
      </trkpt>
      <trkpt lat="45.23415" lon="6.19338">
        <ele>2002</ele>
        <time>2021-02-27T13:48:21Z</time>
      </trkpt>
      <trkpt lat="45.23414" lon="6.19342">
        <ele>2002</ele>
        <time>2021-02-27T13:48:22Z</time>
      </trkpt>
      <trkpt lat="45.23413" lon="6.19344">
        <ele>2002</ele>
        <time>2021-02-27T13:48:24Z</time>
      </trkpt>
      <trkpt lat="45.23412" lon="6.19347">
        <ele>2002</ele>
        <time>2021-02-27T13:48:26Z</time>
      </trkpt>
      <trkpt lat="45.23411" lon="6.19349">
        <ele>2002</ele>
        <time>2021-02-27T13:48:28Z</time>
      </trkpt>
      <trkpt lat="45.2341" lon="6.19351">
        <ele>2002</ele>
        <time>2021-02-27T13:48:30Z</time>
      </trkpt>
      <trkpt lat="45.23409" lon="6.19353">
        <ele>2002.4</ele>
        <time>2021-02-27T13:48:31Z</time>
      </trkpt>
      <trkpt lat="45.23409" lon="6.19354">
        <ele>2002.4</ele>
        <time>2021-02-27T13:48:32Z</time>
      </trkpt>
      <trkpt lat="45.23407" lon="6.19356">
        <ele>2002.4</ele>
        <time>2021-02-27T13:48:33Z</time>
      </trkpt>
      <trkpt lat="45.23406" lon="6.19359">
        <ele>2002.4</ele>
        <time>2021-02-27T13:48:35Z</time>
      </trkpt>
      <trkpt lat="45.23405" lon="6.19362">
        <ele>2002.4</ele>
        <time>2021-02-27T13:48:37Z</time>
      </trkpt>
      <trkpt lat="45.23404" lon="6.19365">
        <ele>2002.4</ele>
        <time>2021-02-27T13:48:39Z</time>
      </trkpt>
      <trkpt lat="45.23403" lon="6.19368">
        <ele>2001.2</ele>
        <time>2021-02-27T13:48:41Z</time>
      </trkpt>
      <trkpt lat="45.23402" lon="6.19371">
        <ele>2001.2</ele>
        <time>2021-02-27T13:48:43Z</time>
      </trkpt>
      <trkpt lat="45.23401" lon="6.19374">
        <ele>2001.2</ele>
        <time>2021-02-27T13:48:45Z</time>
      </trkpt>
      <trkpt lat="45.234" lon="6.19377">
        <ele>2001.2</ele>
        <time>2021-02-27T13:48:47Z</time>
      </trkpt>
      <trkpt lat="45.23399" lon="6.1938">
        <ele>2001.2</ele>
        <time>2021-02-27T13:48:49Z</time>
      </trkpt>
      <trkpt lat="45.23398" lon="6.19382">
        <ele>2001.6</ele>
        <time>2021-02-27T13:48:51Z</time>
      </trkpt>
      <trkpt lat="45.23397" lon="6.19385">
        <ele>2001.6</ele>
        <time>2021-02-27T13:48:53Z</time>
      </trkpt>
      <trkpt lat="45.23396" lon="6.19389">
        <ele>2001.6</ele>
        <time>2021-02-27T13:48:55Z</time>
      </trkpt>
      <trkpt lat="45.23395" lon="6.19392">
        <ele>2001.6</ele>
        <time>2021-02-27T13:48:57Z</time>
      </trkpt>
      <trkpt lat="45.23395" lon="6.19395">
        <ele>2001.6</ele>
        <time>2021-02-27T13:48:59Z</time>
      </trkpt>
      <trkpt lat="45.23395" lon="6.19398">
        <ele>2002.8</ele>
        <time>2021-02-27T13:49:01Z</time>
      </trkpt>
      <trkpt lat="45.23396" lon="6.19401">
        <ele>2002.8</ele>
        <time>2021-02-27T13:49:03Z</time>
      </trkpt>
      <trkpt lat="45.23396" lon="6.19404">
        <ele>2002.8</ele>
        <time>2021-02-27T13:49:05Z</time>
      </trkpt>
      <trkpt lat="45.23397" lon="6.19407">
        <ele>2002.8</ele>
        <time>2021-02-27T13:49:07Z</time>
      </trkpt>
      <trkpt lat="45.23397" lon="6.1941">
        <ele>2002.8</ele>
        <time>2021-02-27T13:49:09Z</time>
      </trkpt>
      <trkpt lat="45.23398" lon="6.19413">
        <ele>2003.8</ele>
        <time>2021-02-27T13:49:11Z</time>
      </trkpt>
      <trkpt lat="45.234" lon="6.19416">
        <ele>2003.8</ele>
        <time>2021-02-27T13:49:14Z</time>
      </trkpt>
      <trkpt lat="45.23401" lon="6.19417">
        <ele>2003.8</ele>
        <time>2021-02-27T13:49:17Z</time>
      </trkpt>
      <trkpt lat="45.23403" lon="6.19419">
        <ele>2003.8</ele>
        <time>2021-02-27T13:49:19Z</time>
      </trkpt>
      <trkpt lat="45.23404" lon="6.19421">
        <ele>2005.4</ele>
        <time>2021-02-27T13:49:21Z</time>
      </trkpt>
      <trkpt lat="45.23406" lon="6.19424">
        <ele>2005.4</ele>
        <time>2021-02-27T13:49:23Z</time>
      </trkpt>
      <trkpt lat="45.23408" lon="6.19426">
        <ele>2005.4</ele>
        <time>2021-02-27T13:49:25Z</time>
      </trkpt>
      <trkpt lat="45.23409" lon="6.19427">
        <ele>2005.4</ele>
        <time>2021-02-27T13:49:28Z</time>
      </trkpt>
      <trkpt lat="45.2341" lon="6.19429">
        <ele>2005.4</ele>
        <time>2021-02-27T13:49:30Z</time>
      </trkpt>
      <trkpt lat="45.23411" lon="6.1943">
        <ele>2007.2</ele>
        <time>2021-02-27T13:49:31Z</time>
      </trkpt>
      <trkpt lat="45.23413" lon="6.19433">
        <ele>2007.2</ele>
        <time>2021-02-27T13:49:33Z</time>
      </trkpt>
      <trkpt lat="45.23413" lon="6.19435">
        <ele>2007.2</ele>
        <time>2021-02-27T13:49:35Z</time>
      </trkpt>
      <trkpt lat="45.23415" lon="6.19437">
        <ele>2007.2</ele>
        <time>2021-02-27T13:49:37Z</time>
      </trkpt>
      <trkpt lat="45.23416" lon="6.19439">
        <ele>2007.2</ele>
        <time>2021-02-27T13:49:39Z</time>
      </trkpt>
      <trkpt lat="45.23418" lon="6.19441">
        <ele>2010</ele>
        <time>2021-02-27T13:49:41Z</time>
      </trkpt>
      <trkpt lat="45.23419" lon="6.19443">
        <ele>2010</ele>
        <time>2021-02-27T13:49:43Z</time>
      </trkpt>
      <trkpt lat="45.23421" lon="6.19445">
        <ele>2010</ele>
        <time>2021-02-27T13:49:45Z</time>
      </trkpt>
      <trkpt lat="45.23421" lon="6.19447">
        <ele>2010</ele>
        <time>2021-02-27T13:49:47Z</time>
      </trkpt>
      <trkpt lat="45.23423" lon="6.1945">
        <ele>2010</ele>
        <time>2021-02-27T13:49:49Z</time>
      </trkpt>
      <trkpt lat="45.23423" lon="6.1945">
        <ele>2010.8</ele>
        <time>2021-02-27T13:49:51Z</time>
      </trkpt>
      <trkpt lat="45.23424" lon="6.19453">
        <ele>2010.8</ele>
        <time>2021-02-27T13:49:52Z</time>
      </trkpt>
      <trkpt lat="45.23425" lon="6.19456">
        <ele>2010.8</ele>
        <time>2021-02-27T13:49:54Z</time>
      </trkpt>
      <trkpt lat="45.23426" lon="6.19459">
        <ele>2010.8</ele>
        <time>2021-02-27T13:49:57Z</time>
      </trkpt>
      <trkpt lat="45.23427" lon="6.19462">
        <ele>2010.8</ele>
        <time>2021-02-27T13:49:59Z</time>
      </trkpt>
      <trkpt lat="45.23428" lon="6.19464">
        <ele>2011.6</ele>
        <time>2021-02-27T13:50:01Z</time>
      </trkpt>
      <trkpt lat="45.2343" lon="6.19468">
        <ele>2011.6</ele>
        <time>2021-02-27T13:50:03Z</time>
      </trkpt>
      <trkpt lat="45.23431" lon="6.1947">
        <ele>2011.6</ele>
        <time>2021-02-27T13:50:05Z</time>
      </trkpt>
      <trkpt lat="45.23431" lon="6.19472">
        <ele>2011.6</ele>
        <time>2021-02-27T13:50:07Z</time>
      </trkpt>
      <trkpt lat="45.23432" lon="6.19474">
        <ele>2011.6</ele>
        <time>2021-02-27T13:50:10Z</time>
      </trkpt>
      <trkpt lat="45.23433" lon="6.19476">
        <ele>2012.6</ele>
        <time>2021-02-27T13:50:11Z</time>
      </trkpt>
      <trkpt lat="45.23435" lon="6.19478">
        <ele>2012.6</ele>
        <time>2021-02-27T13:50:12Z</time>
      </trkpt>
      <trkpt lat="45.23436" lon="6.1948">
        <ele>2012.6</ele>
        <time>2021-02-27T13:50:14Z</time>
      </trkpt>
      <trkpt lat="45.23437" lon="6.19482">
        <ele>2012.6</ele>
        <time>2021-02-27T13:50:16Z</time>
      </trkpt>
      <trkpt lat="45.23438" lon="6.19483">
        <ele>2012.6</ele>
        <time>2021-02-27T13:50:18Z</time>
      </trkpt>
      <trkpt lat="45.23439" lon="6.19485">
        <ele>2012.6</ele>
        <time>2021-02-27T13:50:20Z</time>
      </trkpt>
      <trkpt lat="45.2344" lon="6.19487">
        <ele>2013</ele>
        <time>2021-02-27T13:50:21Z</time>
      </trkpt>
      <trkpt lat="45.23441" lon="6.19488">
        <ele>2013</ele>
        <time>2021-02-27T13:50:23Z</time>
      </trkpt>
      <trkpt lat="45.23443" lon="6.1949">
        <ele>2013</ele>
        <time>2021-02-27T13:50:25Z</time>
      </trkpt>
      <trkpt lat="45.23444" lon="6.19492">
        <ele>2013</ele>
        <time>2021-02-27T13:50:27Z</time>
      </trkpt>
      <trkpt lat="45.23445" lon="6.19494">
        <ele>2013</ele>
        <time>2021-02-27T13:50:29Z</time>
      </trkpt>
      <trkpt lat="45.23447" lon="6.19496">
        <ele>2014</ele>
        <time>2021-02-27T13:50:31Z</time>
      </trkpt>
      <trkpt lat="45.23449" lon="6.19502">
        <ele>2014</ele>
        <time>2021-02-27T13:50:34Z</time>
      </trkpt>
      <trkpt lat="45.2345" lon="6.19503">
        <ele>2014</ele>
        <time>2021-02-27T13:50:36Z</time>
      </trkpt>
      <trkpt lat="45.23451" lon="6.19505">
        <ele>2014</ele>
        <time>2021-02-27T13:50:38Z</time>
      </trkpt>
      <trkpt lat="45.23452" lon="6.19506">
        <ele>2014</ele>
        <time>2021-02-27T13:50:40Z</time>
      </trkpt>
      <trkpt lat="45.23453" lon="6.19508">
        <ele>2015.8</ele>
        <time>2021-02-27T13:50:41Z</time>
      </trkpt>
      <trkpt lat="45.23455" lon="6.1951">
        <ele>2015.8</ele>
        <time>2021-02-27T13:50:43Z</time>
      </trkpt>
      <trkpt lat="45.23457" lon="6.19512">
        <ele>2015.8</ele>
        <time>2021-02-27T13:50:46Z</time>
      </trkpt>
      <trkpt lat="45.23459" lon="6.19514">
        <ele>2015.8</ele>
        <time>2021-02-27T13:50:48Z</time>
      </trkpt>
      <trkpt lat="45.23461" lon="6.19517">
        <ele>2017.2</ele>
        <time>2021-02-27T13:50:51Z</time>
      </trkpt>
      <trkpt lat="45.23462" lon="6.19519">
        <ele>2017.2</ele>
        <time>2021-02-27T13:50:54Z</time>
      </trkpt>
      <trkpt lat="45.23464" lon="6.19522">
        <ele>2017.2</ele>
        <time>2021-02-27T13:50:57Z</time>
      </trkpt>
      <trkpt lat="45.23466" lon="6.19524">
        <ele>2017.2</ele>
        <time>2021-02-27T13:50:59Z</time>
      </trkpt>
      <trkpt lat="45.23467" lon="6.19526">
        <ele>2018</ele>
        <time>2021-02-27T13:51:01Z</time>
      </trkpt>
      <trkpt lat="45.2347" lon="6.19529">
        <ele>2018</ele>
        <time>2021-02-27T13:51:04Z</time>
      </trkpt>
      <trkpt lat="45.23471" lon="6.1953">
        <ele>2018</ele>
        <time>2021-02-27T13:51:06Z</time>
      </trkpt>
      <trkpt lat="45.23473" lon="6.19531">
        <ele>2018</ele>
        <time>2021-02-27T13:51:08Z</time>
      </trkpt>
      <trkpt lat="45.23474" lon="6.19532">
        <ele>2018</ele>
        <time>2021-02-27T13:51:10Z</time>
      </trkpt>
      <trkpt lat="45.23475" lon="6.19533">
        <ele>2019.4</ele>
        <time>2021-02-27T13:51:11Z</time>
      </trkpt>
      <trkpt lat="45.23476" lon="6.19534">
        <ele>2019.4</ele>
        <time>2021-02-27T13:51:12Z</time>
      </trkpt>
      <trkpt lat="45.23477" lon="6.19536">
        <ele>2019.4</ele>
        <time>2021-02-27T13:51:15Z</time>
      </trkpt>
      <trkpt lat="45.23479" lon="6.19539">
        <ele>2019.4</ele>
        <time>2021-02-27T13:51:18Z</time>
      </trkpt>
      <trkpt lat="45.23481" lon="6.19541">
        <ele>2020.2</ele>
        <time>2021-02-27T13:51:21Z</time>
      </trkpt>
      <trkpt lat="45.23483" lon="6.19544">
        <ele>2020.2</ele>
        <time>2021-02-27T13:51:23Z</time>
      </trkpt>
      <trkpt lat="45.23484" lon="6.19545">
        <ele>2020.2</ele>
        <time>2021-02-27T13:51:26Z</time>
      </trkpt>
      <trkpt lat="45.23485" lon="6.19546">
        <ele>2020.2</ele>
        <time>2021-02-27T13:51:28Z</time>
      </trkpt>
      <trkpt lat="45.23486" lon="6.19547">
        <ele>2020.2</ele>
        <time>2021-02-27T13:51:30Z</time>
      </trkpt>
      <trkpt lat="45.23486" lon="6.19548">
        <ele>2022</ele>
        <time>2021-02-27T13:51:31Z</time>
      </trkpt>
      <trkpt lat="45.23489" lon="6.19551">
        <ele>2022</ele>
        <time>2021-02-27T13:51:33Z</time>
      </trkpt>
      <trkpt lat="45.2349" lon="6.19552">
        <ele>2022</ele>
        <time>2021-02-27T13:51:35Z</time>
      </trkpt>
      <trkpt lat="45.23493" lon="6.19554">
        <ele>2022</ele>
        <time>2021-02-27T13:51:37Z</time>
      </trkpt>
      <trkpt lat="45.23494" lon="6.19555">
        <ele>2022</ele>
        <time>2021-02-27T13:51:39Z</time>
      </trkpt>
      <trkpt lat="45.23494" lon="6.19555">
        <ele>2023.6</ele>
        <time>2021-02-27T13:51:41Z</time>
      </trkpt>
      <trkpt lat="45.23496" lon="6.19559">
        <ele>2023.6</ele>
        <time>2021-02-27T13:51:42Z</time>
      </trkpt>
      <trkpt lat="45.23497" lon="6.1956">
        <ele>2023.6</ele>
        <time>2021-02-27T13:51:44Z</time>
      </trkpt>
      <trkpt lat="45.23499" lon="6.19561">
        <ele>2023.6</ele>
        <time>2021-02-27T13:51:47Z</time>
      </trkpt>
      <trkpt lat="45.235" lon="6.19562">
        <ele>2023.6</ele>
        <time>2021-02-27T13:51:50Z</time>
      </trkpt>
      <trkpt lat="45.23501" lon="6.19563">
        <ele>2025.6</ele>
        <time>2021-02-27T13:51:51Z</time>
      </trkpt>
      <trkpt lat="45.23502" lon="6.19565">
        <ele>2025.6</ele>
        <time>2021-02-27T13:51:53Z</time>
      </trkpt>
      <trkpt lat="45.23504" lon="6.19566">
        <ele>2025.6</ele>
        <time>2021-02-27T13:51:56Z</time>
      </trkpt>
      <trkpt lat="45.23506" lon="6.19568">
        <ele>2025.6</ele>
        <time>2021-02-27T13:51:59Z</time>
      </trkpt>
      <trkpt lat="45.23506" lon="6.19568">
        <ele>2027.4</ele>
        <time>2021-02-27T13:52:01Z</time>
      </trkpt>
      <trkpt lat="45.23508" lon="6.1957">
        <ele>2027.4</ele>
        <time>2021-02-27T13:52:02Z</time>
      </trkpt>
      <trkpt lat="45.2351" lon="6.19571">
        <ele>2027.4</ele>
        <time>2021-02-27T13:52:05Z</time>
      </trkpt>
      <trkpt lat="45.23512" lon="6.19573">
        <ele>2027.4</ele>
        <time>2021-02-27T13:52:08Z</time>
      </trkpt>
      <trkpt lat="45.23514" lon="6.19574">
        <ele>2029</ele>
        <time>2021-02-27T13:52:11Z</time>
      </trkpt>
      <trkpt lat="45.23516" lon="6.19576">
        <ele>2029</ele>
        <time>2021-02-27T13:52:15Z</time>
      </trkpt>
      <trkpt lat="45.23518" lon="6.19578">
        <ele>2029</ele>
        <time>2021-02-27T13:52:18Z</time>
      </trkpt>
      <trkpt lat="45.2352" lon="6.19579">
        <ele>2031</ele>
        <time>2021-02-27T13:52:21Z</time>
      </trkpt>
      <trkpt lat="45.23523" lon="6.19582">
        <ele>2031</ele>
        <time>2021-02-27T13:52:24Z</time>
      </trkpt>
      <trkpt lat="45.23525" lon="6.19583">
        <ele>2031</ele>
        <time>2021-02-27T13:52:27Z</time>
      </trkpt>
      <trkpt lat="45.23526" lon="6.19585">
        <ele>2032.8</ele>
        <time>2021-02-27T13:52:31Z</time>
      </trkpt>
      <trkpt lat="45.23527" lon="6.19586">
        <ele>2032.8</ele>
        <time>2021-02-27T13:52:34Z</time>
      </trkpt>
      <trkpt lat="45.23528" lon="6.19587">
        <ele>2032.8</ele>
        <time>2021-02-27T13:52:37Z</time>
      </trkpt>
      <trkpt lat="45.23529" lon="6.19589">
        <ele>2032.8</ele>
        <time>2021-02-27T13:52:40Z</time>
      </trkpt>
      <trkpt lat="45.23531" lon="6.1959">
        <ele>2035</ele>
        <time>2021-02-27T13:52:41Z</time>
      </trkpt>
      <trkpt lat="45.23533" lon="6.19592">
        <ele>2035</ele>
        <time>2021-02-27T13:52:43Z</time>
      </trkpt>
      <trkpt lat="45.23534" lon="6.19595">
        <ele>2035</ele>
        <time>2021-02-27T13:52:46Z</time>
      </trkpt>
      <trkpt lat="45.23536" lon="6.19598">
        <ele>2035</ele>
        <time>2021-02-27T13:52:49Z</time>
      </trkpt>
      <trkpt lat="45.23536" lon="6.19598">
        <ele>2036.8</ele>
        <time>2021-02-27T13:52:51Z</time>
      </trkpt>
      <trkpt lat="45.23534" lon="6.196">
        <ele>2036.8</ele>
        <time>2021-02-27T13:52:53Z</time>
      </trkpt>
      <trkpt lat="45.23533" lon="6.19602">
        <ele>2036.8</ele>
        <time>2021-02-27T13:52:55Z</time>
      </trkpt>
      <trkpt lat="45.23531" lon="6.19604">
        <ele>2036.8</ele>
        <time>2021-02-27T13:52:58Z</time>
      </trkpt>
      <trkpt lat="45.2353" lon="6.19606">
        <ele>2039.4</ele>
        <time>2021-02-27T13:53:01Z</time>
      </trkpt>
      <trkpt lat="45.23527" lon="6.19609">
        <ele>2039.4</ele>
        <time>2021-02-27T13:53:04Z</time>
      </trkpt>
      <trkpt lat="45.23526" lon="6.19611">
        <ele>2039.4</ele>
        <time>2021-02-27T13:53:07Z</time>
      </trkpt>
      <trkpt lat="45.23526" lon="6.19612">
        <ele>2039.4</ele>
        <time>2021-02-27T13:53:10Z</time>
      </trkpt>
      <trkpt lat="45.23525" lon="6.19613">
        <ele>2041.2</ele>
        <time>2021-02-27T13:53:11Z</time>
      </trkpt>
      <trkpt lat="45.23526" lon="6.19615">
        <ele>2041.2</ele>
        <time>2021-02-27T13:53:13Z</time>
      </trkpt>
      <trkpt lat="45.23528" lon="6.19617">
        <ele>2041.2</ele>
        <time>2021-02-27T13:53:16Z</time>
      </trkpt>
      <trkpt lat="45.23529" lon="6.19619">
        <ele>2041.2</ele>
        <time>2021-02-27T13:53:19Z</time>
      </trkpt>
      <trkpt lat="45.23531" lon="6.1962">
        <ele>2043.4</ele>
        <time>2021-02-27T13:53:21Z</time>
      </trkpt>
      <trkpt lat="45.23532" lon="6.19623">
        <ele>2043.4</ele>
        <time>2021-02-27T13:53:23Z</time>
      </trkpt>
      <trkpt lat="45.23531" lon="6.19625">
        <ele>2043.4</ele>
        <time>2021-02-27T13:53:26Z</time>
      </trkpt>
      <trkpt lat="45.23529" lon="6.19628">
        <ele>2043.4</ele>
        <time>2021-02-27T13:53:29Z</time>
      </trkpt>
      <trkpt lat="45.23529" lon="6.19628">
        <ele>2045.4</ele>
        <time>2021-02-27T13:53:31Z</time>
      </trkpt>
      <trkpt lat="45.23526" lon="6.1963">
        <ele>2045.4</ele>
        <time>2021-02-27T13:53:32Z</time>
      </trkpt>
      <trkpt lat="45.23526" lon="6.19632">
        <ele>2045.4</ele>
        <time>2021-02-27T13:53:34Z</time>
      </trkpt>
      <trkpt lat="45.23525" lon="6.19633">
        <ele>2045.4</ele>
        <time>2021-02-27T13:53:37Z</time>
      </trkpt>
      <trkpt lat="45.23525" lon="6.19634">
        <ele>2045.4</ele>
        <time>2021-02-27T13:53:40Z</time>
      </trkpt>
      <trkpt lat="45.23524" lon="6.19635">
        <ele>2047.4</ele>
        <time>2021-02-27T13:53:41Z</time>
      </trkpt>
      <trkpt lat="45.23526" lon="6.19637">
        <ele>2047.4</ele>
        <time>2021-02-27T13:53:44Z</time>
      </trkpt>
      <trkpt lat="45.23527" lon="6.1964">
        <ele>2047.4</ele>
        <time>2021-02-27T13:53:47Z</time>
      </trkpt>
      <trkpt lat="45.23528" lon="6.19642">
        <ele>2047.4</ele>
        <time>2021-02-27T13:53:49Z</time>
      </trkpt>
      <trkpt lat="45.23528" lon="6.19642">
        <ele>2049.6</ele>
        <time>2021-02-27T13:53:51Z</time>
      </trkpt>
      <trkpt lat="45.23529" lon="6.19645">
        <ele>2049.6</ele>
        <time>2021-02-27T13:53:52Z</time>
      </trkpt>
      <trkpt lat="45.23527" lon="6.19647">
        <ele>2049.6</ele>
        <time>2021-02-27T13:53:55Z</time>
      </trkpt>
      <trkpt lat="45.23525" lon="6.19649">
        <ele>2049.6</ele>
        <time>2021-02-27T13:53:58Z</time>
      </trkpt>
      <trkpt lat="45.23523" lon="6.19652">
        <ele>2051.4</ele>
        <time>2021-02-27T13:54:01Z</time>
      </trkpt>
      <trkpt lat="45.2352" lon="6.19655">
        <ele>2051.4</ele>
        <time>2021-02-27T13:54:04Z</time>
      </trkpt>
      <trkpt lat="45.23519" lon="6.19656">
        <ele>2051.4</ele>
        <time>2021-02-27T13:54:07Z</time>
      </trkpt>
      <trkpt lat="45.23519" lon="6.19658">
        <ele>2051.4</ele>
        <time>2021-02-27T13:54:10Z</time>
      </trkpt>
      <trkpt lat="45.23518" lon="6.19659">
        <ele>2053.4</ele>
        <time>2021-02-27T13:54:11Z</time>
      </trkpt>
      <trkpt lat="45.23517" lon="6.19661">
        <ele>2053.4</ele>
        <time>2021-02-27T13:54:12Z</time>
      </trkpt>
      <trkpt lat="45.23515" lon="6.19663">
        <ele>2053.4</ele>
        <time>2021-02-27T13:54:14Z</time>
      </trkpt>
      <trkpt lat="45.23514" lon="6.19665">
        <ele>2053.4</ele>
        <time>2021-02-27T13:54:16Z</time>
      </trkpt>
      <trkpt lat="45.23512" lon="6.19667">
        <ele>2053.4</ele>
        <time>2021-02-27T13:54:19Z</time>
      </trkpt>
      <trkpt lat="45.23512" lon="6.19667">
        <ele>2055.4</ele>
        <time>2021-02-27T13:54:21Z</time>
      </trkpt>
      <trkpt lat="45.2351" lon="6.19669">
        <ele>2055.4</ele>
        <time>2021-02-27T13:54:22Z</time>
      </trkpt>
      <trkpt lat="45.23509" lon="6.19672">
        <ele>2055.4</ele>
        <time>2021-02-27T13:54:24Z</time>
      </trkpt>
      <trkpt lat="45.23507" lon="6.19673">
        <ele>2055.4</ele>
        <time>2021-02-27T13:54:26Z</time>
      </trkpt>
      <trkpt lat="45.23505" lon="6.19676">
        <ele>2055.4</ele>
        <time>2021-02-27T13:54:29Z</time>
      </trkpt>
      <trkpt lat="45.23505" lon="6.19676">
        <ele>2057</ele>
        <time>2021-02-27T13:54:31Z</time>
      </trkpt>
      <trkpt lat="45.23506" lon="6.19678">
        <ele>2057</ele>
        <time>2021-02-27T13:54:33Z</time>
      </trkpt>
      <trkpt lat="45.23507" lon="6.1968">
        <ele>2057</ele>
        <time>2021-02-27T13:54:36Z</time>
      </trkpt>
      <trkpt lat="45.23509" lon="6.19682">
        <ele>2057</ele>
        <time>2021-02-27T13:54:39Z</time>
      </trkpt>
      <trkpt lat="45.23509" lon="6.19682">
        <ele>2059.2</ele>
        <time>2021-02-27T13:54:41Z</time>
      </trkpt>
      <trkpt lat="45.2351" lon="6.19684">
        <ele>2059.2</ele>
        <time>2021-02-27T13:54:42Z</time>
      </trkpt>
      <trkpt lat="45.23511" lon="6.19686">
        <ele>2059.2</ele>
        <time>2021-02-27T13:54:45Z</time>
      </trkpt>
      <trkpt lat="45.23514" lon="6.19687">
        <ele>2059.2</ele>
        <time>2021-02-27T13:54:48Z</time>
      </trkpt>
      <trkpt lat="45.23516" lon="6.1969">
        <ele>2061.4</ele>
        <time>2021-02-27T13:54:51Z</time>
      </trkpt>
      <trkpt lat="45.23518" lon="6.19692">
        <ele>2061.4</ele>
        <time>2021-02-27T13:54:54Z</time>
      </trkpt>
      <trkpt lat="45.23519" lon="6.19695">
        <ele>2061.4</ele>
        <time>2021-02-27T13:54:58Z</time>
      </trkpt>
      <trkpt lat="45.23521" lon="6.19696">
        <ele>2063.6</ele>
        <time>2021-02-27T13:55:01Z</time>
      </trkpt>
      <trkpt lat="45.23522" lon="6.19698">
        <ele>2063.6</ele>
        <time>2021-02-27T13:55:03Z</time>
      </trkpt>
      <trkpt lat="45.23524" lon="6.19699">
        <ele>2063.6</ele>
        <time>2021-02-27T13:55:06Z</time>
      </trkpt>
      <trkpt lat="45.23526" lon="6.19701">
        <ele>2063.6</ele>
        <time>2021-02-27T13:55:09Z</time>
      </trkpt>
      <trkpt lat="45.23526" lon="6.19701">
        <ele>2066</ele>
        <time>2021-02-27T13:55:11Z</time>
      </trkpt>
      <trkpt lat="45.23528" lon="6.19703">
        <ele>2066</ele>
        <time>2021-02-27T13:55:12Z</time>
      </trkpt>
      <trkpt lat="45.2353" lon="6.19704">
        <ele>2066</ele>
        <time>2021-02-27T13:55:15Z</time>
      </trkpt>
      <trkpt lat="45.23531" lon="6.19707">
        <ele>2066</ele>
        <time>2021-02-27T13:55:19Z</time>
      </trkpt>
      <trkpt lat="45.23533" lon="6.19708">
        <ele>2068.6</ele>
        <time>2021-02-27T13:55:21Z</time>
      </trkpt>
      <trkpt lat="45.23535" lon="6.19711">
        <ele>2068.6</ele>
        <time>2021-02-27T13:55:24Z</time>
      </trkpt>
      <trkpt lat="45.23536" lon="6.19712">
        <ele>2068.6</ele>
        <time>2021-02-27T13:55:27Z</time>
      </trkpt>
      <trkpt lat="45.23537" lon="6.19713">
        <ele>2068.6</ele>
        <time>2021-02-27T13:55:30Z</time>
      </trkpt>
      <trkpt lat="45.23538" lon="6.19714">
        <ele>2070.6</ele>
        <time>2021-02-27T13:55:31Z</time>
      </trkpt>
      <trkpt lat="45.2354" lon="6.19716">
        <ele>2070.6</ele>
        <time>2021-02-27T13:55:33Z</time>
      </trkpt>
      <trkpt lat="45.23541" lon="6.19719">
        <ele>2070.6</ele>
        <time>2021-02-27T13:55:37Z</time>
      </trkpt>
      <trkpt lat="45.23542" lon="6.1972">
        <ele>2070.6</ele>
        <time>2021-02-27T13:55:39Z</time>
      </trkpt>
      <trkpt lat="45.23542" lon="6.1972">
        <ele>2072.4</ele>
        <time>2021-02-27T13:55:41Z</time>
      </trkpt>
      <trkpt lat="45.23544" lon="6.19722">
        <ele>2072.4</ele>
        <time>2021-02-27T13:55:42Z</time>
      </trkpt>
      <trkpt lat="45.23546" lon="6.19725">
        <ele>2072.4</ele>
        <time>2021-02-27T13:55:45Z</time>
      </trkpt>
      <trkpt lat="45.23548" lon="6.19727">
        <ele>2072.4</ele>
        <time>2021-02-27T13:55:49Z</time>
      </trkpt>
      <trkpt lat="45.23548" lon="6.19727">
        <ele>2075.2</ele>
        <time>2021-02-27T13:55:51Z</time>
      </trkpt>
      <trkpt lat="45.23549" lon="6.1973">
        <ele>2075.2</ele>
        <time>2021-02-27T13:55:53Z</time>
      </trkpt>
      <trkpt lat="45.23551" lon="6.19732">
        <ele>2075.2</ele>
        <time>2021-02-27T13:55:55Z</time>
      </trkpt>
      <trkpt lat="45.23553" lon="6.19735">
        <ele>2075.2</ele>
        <time>2021-02-27T13:55:58Z</time>
      </trkpt>
      <trkpt lat="45.23553" lon="6.19737">
        <ele>2076.8</ele>
        <time>2021-02-27T13:56:01Z</time>
      </trkpt>
      <trkpt lat="45.23552" lon="6.19739">
        <ele>2076.8</ele>
        <time>2021-02-27T13:56:04Z</time>
      </trkpt>
      <trkpt lat="45.2355" lon="6.1974">
        <ele>2076.8</ele>
        <time>2021-02-27T13:56:06Z</time>
      </trkpt>
      <trkpt lat="45.23547" lon="6.19742">
        <ele>2076.8</ele>
        <time>2021-02-27T13:56:09Z</time>
      </trkpt>
      <trkpt lat="45.23547" lon="6.19742">
        <ele>2079</ele>
        <time>2021-02-27T13:56:11Z</time>
      </trkpt>
      <trkpt lat="45.23546" lon="6.19745">
        <ele>2079</ele>
        <time>2021-02-27T13:56:13Z</time>
      </trkpt>
      <trkpt lat="45.23546" lon="6.19746">
        <ele>2079</ele>
        <time>2021-02-27T13:56:17Z</time>
      </trkpt>
      <trkpt lat="45.23547" lon="6.19747">
        <ele>2079</ele>
        <time>2021-02-27T13:56:20Z</time>
      </trkpt>
      <trkpt lat="45.23548" lon="6.19748">
        <ele>2080.8</ele>
        <time>2021-02-27T13:56:21Z</time>
      </trkpt>
      <trkpt lat="45.2355" lon="6.1975">
        <ele>2080.8</ele>
        <time>2021-02-27T13:56:23Z</time>
      </trkpt>
      <trkpt lat="45.23552" lon="6.19752">
        <ele>2080.8</ele>
        <time>2021-02-27T13:56:25Z</time>
      </trkpt>
      <trkpt lat="45.23554" lon="6.19753">
        <ele>2080.8</ele>
        <time>2021-02-27T13:56:27Z</time>
      </trkpt>
      <trkpt lat="45.23556" lon="6.19754">
        <ele>2080.8</ele>
        <time>2021-02-27T13:56:29Z</time>
      </trkpt>
      <trkpt lat="45.23557" lon="6.19757">
        <ele>2082.4</ele>
        <time>2021-02-27T13:56:31Z</time>
      </trkpt>
      <trkpt lat="45.23559" lon="6.19759">
        <ele>2082.4</ele>
        <time>2021-02-27T13:56:33Z</time>
      </trkpt>
      <trkpt lat="45.2356" lon="6.19761">
        <ele>2082.4</ele>
        <time>2021-02-27T13:56:35Z</time>
      </trkpt>
      <trkpt lat="45.23562" lon="6.19763">
        <ele>2082.4</ele>
        <time>2021-02-27T13:56:37Z</time>
      </trkpt>
      <trkpt lat="45.23563" lon="6.19764">
        <ele>2082.4</ele>
        <time>2021-02-27T13:56:40Z</time>
      </trkpt>
      <trkpt lat="45.23564" lon="6.19766">
        <ele>2084.2</ele>
        <time>2021-02-27T13:56:41Z</time>
      </trkpt>
      <trkpt lat="45.23565" lon="6.19767">
        <ele>2084.2</ele>
        <time>2021-02-27T13:56:42Z</time>
      </trkpt>
      <trkpt lat="45.23566" lon="6.19769">
        <ele>2084.2</ele>
        <time>2021-02-27T13:56:44Z</time>
      </trkpt>
      <trkpt lat="45.23568" lon="6.19771">
        <ele>2084.2</ele>
        <time>2021-02-27T13:56:47Z</time>
      </trkpt>
      <trkpt lat="45.2357" lon="6.19773">
        <ele>2084.2</ele>
        <time>2021-02-27T13:56:49Z</time>
      </trkpt>
      <trkpt lat="45.23571" lon="6.19776">
        <ele>2085</ele>
        <time>2021-02-27T13:56:51Z</time>
      </trkpt>
      <trkpt lat="45.23573" lon="6.19778">
        <ele>2085</ele>
        <time>2021-02-27T13:56:54Z</time>
      </trkpt>
      <trkpt lat="45.23575" lon="6.19781">
        <ele>2085</ele>
        <time>2021-02-27T13:56:57Z</time>
      </trkpt>
      <trkpt lat="45.23577" lon="6.19782">
        <ele>2085</ele>
        <time>2021-02-27T13:56:59Z</time>
      </trkpt>
      <trkpt lat="45.23578" lon="6.19785">
        <ele>2086</ele>
        <time>2021-02-27T13:57:01Z</time>
      </trkpt>
      <trkpt lat="45.2358" lon="6.19787">
        <ele>2086</ele>
        <time>2021-02-27T13:57:04Z</time>
      </trkpt>
      <trkpt lat="45.23582" lon="6.1979">
        <ele>2086</ele>
        <time>2021-02-27T13:57:07Z</time>
      </trkpt>
      <trkpt lat="45.23583" lon="6.19791">
        <ele>2086</ele>
        <time>2021-02-27T13:57:09Z</time>
      </trkpt>
      <trkpt lat="45.23585" lon="6.19793">
        <ele>2087.8</ele>
        <time>2021-02-27T13:57:11Z</time>
      </trkpt>
      <trkpt lat="45.23588" lon="6.19797">
        <ele>2087.8</ele>
        <time>2021-02-27T13:57:14Z</time>
      </trkpt>
      <trkpt lat="45.23589" lon="6.19798">
        <ele>2087.8</ele>
        <time>2021-02-27T13:57:16Z</time>
      </trkpt>
      <trkpt lat="45.2359" lon="6.198">
        <ele>2087.8</ele>
        <time>2021-02-27T13:57:18Z</time>
      </trkpt>
      <trkpt lat="45.23592" lon="6.19801">
        <ele>2087.8</ele>
        <time>2021-02-27T13:57:20Z</time>
      </trkpt>
      <trkpt lat="45.23593" lon="6.19803">
        <ele>2089.2</ele>
        <time>2021-02-27T13:57:21Z</time>
      </trkpt>
      <trkpt lat="45.23595" lon="6.19805">
        <ele>2089.2</ele>
        <time>2021-02-27T13:57:22Z</time>
      </trkpt>
      <trkpt lat="45.23596" lon="6.19807">
        <ele>2089.2</ele>
        <time>2021-02-27T13:57:24Z</time>
      </trkpt>
      <trkpt lat="45.23597" lon="6.19809">
        <ele>2089.2</ele>
        <time>2021-02-27T13:57:26Z</time>
      </trkpt>
      <trkpt lat="45.23598" lon="6.1981">
        <ele>2089.2</ele>
        <time>2021-02-27T13:57:28Z</time>
      </trkpt>
      <trkpt lat="45.23599" lon="6.19812">
        <ele>2089.2</ele>
        <time>2021-02-27T13:57:30Z</time>
      </trkpt>
      <trkpt lat="45.236" lon="6.19813">
        <ele>2089.8</ele>
        <time>2021-02-27T13:57:31Z</time>
      </trkpt>
      <trkpt lat="45.23602" lon="6.19815">
        <ele>2089.8</ele>
        <time>2021-02-27T13:57:33Z</time>
      </trkpt>
      <trkpt lat="45.23603" lon="6.19817">
        <ele>2089.8</ele>
        <time>2021-02-27T13:57:35Z</time>
      </trkpt>
      <trkpt lat="45.23604" lon="6.1982">
        <ele>2089.8</ele>
        <time>2021-02-27T13:57:37Z</time>
      </trkpt>
      <trkpt lat="45.23605" lon="6.19822">
        <ele>2089.8</ele>
        <time>2021-02-27T13:57:39Z</time>
      </trkpt>
      <trkpt lat="45.23605" lon="6.19822">
        <ele>2091</ele>
        <time>2021-02-27T13:57:41Z</time>
      </trkpt>
      <trkpt lat="45.23607" lon="6.19826">
        <ele>2091</ele>
        <time>2021-02-27T13:57:42Z</time>
      </trkpt>
      <trkpt lat="45.23608" lon="6.19827">
        <ele>2091</ele>
        <time>2021-02-27T13:57:44Z</time>
      </trkpt>
      <trkpt lat="45.23609" lon="6.19828">
        <ele>2091</ele>
        <time>2021-02-27T13:57:46Z</time>
      </trkpt>
      <trkpt lat="45.2361" lon="6.1983">
        <ele>2091</ele>
        <time>2021-02-27T13:57:48Z</time>
      </trkpt>
      <trkpt lat="45.23611" lon="6.19831">
        <ele>2091</ele>
        <time>2021-02-27T13:57:50Z</time>
      </trkpt>
      <trkpt lat="45.23612" lon="6.19832">
        <ele>2092.8</ele>
        <time>2021-02-27T13:57:51Z</time>
      </trkpt>
      <trkpt lat="45.23613" lon="6.19837">
        <ele>2092.8</ele>
        <time>2021-02-27T13:57:53Z</time>
      </trkpt>
      <trkpt lat="45.23614" lon="6.19839">
        <ele>2092.8</ele>
        <time>2021-02-27T13:57:56Z</time>
      </trkpt>
      <trkpt lat="45.23615" lon="6.1984">
        <ele>2092.8</ele>
        <time>2021-02-27T13:57:58Z</time>
      </trkpt>
      <trkpt lat="45.23616" lon="6.19842">
        <ele>2092.8</ele>
        <time>2021-02-27T13:58:00Z</time>
      </trkpt>
      <trkpt lat="45.23617" lon="6.19843">
        <ele>2093.8</ele>
        <time>2021-02-27T13:58:01Z</time>
      </trkpt>
      <trkpt lat="45.2362" lon="6.19847">
        <ele>2093.8</ele>
        <time>2021-02-27T13:58:03Z</time>
      </trkpt>
      <trkpt lat="45.2362" lon="6.19849">
        <ele>2093.8</ele>
        <time>2021-02-27T13:58:05Z</time>
      </trkpt>
      <trkpt lat="45.23621" lon="6.1985">
        <ele>2093.8</ele>
        <time>2021-02-27T13:58:07Z</time>
      </trkpt>
      <trkpt lat="45.23622" lon="6.19852">
        <ele>2093.8</ele>
        <time>2021-02-27T13:58:10Z</time>
      </trkpt>
      <trkpt lat="45.23623" lon="6.19853">
        <ele>2096</ele>
        <time>2021-02-27T13:58:11Z</time>
      </trkpt>
      <trkpt lat="45.23626" lon="6.19857">
        <ele>2096</ele>
        <time>2021-02-27T13:58:13Z</time>
      </trkpt>
      <trkpt lat="45.23627" lon="6.19858">
        <ele>2096</ele>
        <time>2021-02-27T13:58:16Z</time>
      </trkpt>
      <trkpt lat="45.23628" lon="6.1986">
        <ele>2096</ele>
        <time>2021-02-27T13:58:18Z</time>
      </trkpt>
      <trkpt lat="45.23629" lon="6.19861">
        <ele>2096</ele>
        <time>2021-02-27T13:58:20Z</time>
      </trkpt>
      <trkpt lat="45.2363" lon="6.19863">
        <ele>2096.8</ele>
        <time>2021-02-27T13:58:21Z</time>
      </trkpt>
      <trkpt lat="45.23633" lon="6.19866">
        <ele>2096.8</ele>
        <time>2021-02-27T13:58:22Z</time>
      </trkpt>
      <trkpt lat="45.23634" lon="6.19868">
        <ele>2096.8</ele>
        <time>2021-02-27T13:58:24Z</time>
      </trkpt>
      <trkpt lat="45.23635" lon="6.1987">
        <ele>2096.8</ele>
        <time>2021-02-27T13:58:27Z</time>
      </trkpt>
      <trkpt lat="45.23636" lon="6.19871">
        <ele>2096.8</ele>
        <time>2021-02-27T13:58:30Z</time>
      </trkpt>
      <trkpt lat="45.23637" lon="6.19873">
        <ele>2098.2</ele>
        <time>2021-02-27T13:58:31Z</time>
      </trkpt>
      <trkpt lat="45.23638" lon="6.19876">
        <ele>2098.2</ele>
        <time>2021-02-27T13:58:33Z</time>
      </trkpt>
      <trkpt lat="45.23639" lon="6.19879">
        <ele>2098.2</ele>
        <time>2021-02-27T13:58:36Z</time>
      </trkpt>
      <trkpt lat="45.23641" lon="6.19882">
        <ele>2098.2</ele>
        <time>2021-02-27T13:58:39Z</time>
      </trkpt>
      <trkpt lat="45.23641" lon="6.19882">
        <ele>2100.4</ele>
        <time>2021-02-27T13:58:41Z</time>
      </trkpt>
      <trkpt lat="45.23642" lon="6.19886">
        <ele>2100.4</ele>
        <time>2021-02-27T13:58:42Z</time>
      </trkpt>
      <trkpt lat="45.23642" lon="6.19889">
        <ele>2100.4</ele>
        <time>2021-02-27T13:58:44Z</time>
      </trkpt>
      <trkpt lat="45.23644" lon="6.19891">
        <ele>2100.4</ele>
        <time>2021-02-27T13:58:46Z</time>
      </trkpt>
      <trkpt lat="45.23645" lon="6.19893">
        <ele>2100.4</ele>
        <time>2021-02-27T13:58:48Z</time>
      </trkpt>
      <trkpt lat="45.23646" lon="6.19897">
        <ele>2101.8</ele>
        <time>2021-02-27T13:58:51Z</time>
      </trkpt>
      <trkpt lat="45.23647" lon="6.199">
        <ele>2101.8</ele>
        <time>2021-02-27T13:58:54Z</time>
      </trkpt>
      <trkpt lat="45.23648" lon="6.19904">
        <ele>2101.8</ele>
        <time>2021-02-27T13:58:57Z</time>
      </trkpt>
      <trkpt lat="45.2365" lon="6.19906">
        <ele>2101.8</ele>
        <time>2021-02-27T13:58:59Z</time>
      </trkpt>
      <trkpt lat="45.23652" lon="6.19908">
        <ele>2103.2</ele>
        <time>2021-02-27T13:59:01Z</time>
      </trkpt>
      <trkpt lat="45.23653" lon="6.1991">
        <ele>2103.2</ele>
        <time>2021-02-27T13:59:03Z</time>
      </trkpt>
      <trkpt lat="45.23654" lon="6.19912">
        <ele>2103.2</ele>
        <time>2021-02-27T13:59:05Z</time>
      </trkpt>
      <trkpt lat="45.23655" lon="6.19915">
        <ele>2103.2</ele>
        <time>2021-02-27T13:59:08Z</time>
      </trkpt>
      <trkpt lat="45.23657" lon="6.19918">
        <ele>2105</ele>
        <time>2021-02-27T13:59:11Z</time>
      </trkpt>
      <trkpt lat="45.23658" lon="6.19922">
        <ele>2105</ele>
        <time>2021-02-27T13:59:14Z</time>
      </trkpt>
      <trkpt lat="45.23658" lon="6.19924">
        <ele>2105</ele>
        <time>2021-02-27T13:59:17Z</time>
      </trkpt>
      <trkpt lat="45.23659" lon="6.19926">
        <ele>2105</ele>
        <time>2021-02-27T13:59:20Z</time>
      </trkpt>
      <trkpt lat="45.23659" lon="6.19927">
        <ele>2107</ele>
        <time>2021-02-27T13:59:21Z</time>
      </trkpt>
      <trkpt lat="45.2366" lon="6.1993">
        <ele>2107</ele>
        <time>2021-02-27T13:59:23Z</time>
      </trkpt>
      <trkpt lat="45.23661" lon="6.19933">
        <ele>2107</ele>
        <time>2021-02-27T13:59:26Z</time>
      </trkpt>
      <trkpt lat="45.23661" lon="6.19936">
        <ele>2107</ele>
        <time>2021-02-27T13:59:29Z</time>
      </trkpt>
      <trkpt lat="45.23662" lon="6.19938">
        <ele>2109</ele>
        <time>2021-02-27T13:59:31Z</time>
      </trkpt>
      <trkpt lat="45.23663" lon="6.19942">
        <ele>2109</ele>
        <time>2021-02-27T13:59:34Z</time>
      </trkpt>
      <trkpt lat="45.23665" lon="6.19944">
        <ele>2109</ele>
        <time>2021-02-27T13:59:37Z</time>
      </trkpt>
      <trkpt lat="45.23667" lon="6.19946">
        <ele>2109</ele>
        <time>2021-02-27T13:59:39Z</time>
      </trkpt>
      <trkpt lat="45.23668" lon="6.19948">
        <ele>2111</ele>
        <time>2021-02-27T13:59:41Z</time>
      </trkpt>
      <trkpt lat="45.2367" lon="6.19952">
        <ele>2111</ele>
        <time>2021-02-27T13:59:43Z</time>
      </trkpt>
      <trkpt lat="45.23671" lon="6.19953">
        <ele>2111</ele>
        <time>2021-02-27T13:59:46Z</time>
      </trkpt>
      <trkpt lat="45.23672" lon="6.19955">
        <ele>2111</ele>
        <time>2021-02-27T13:59:48Z</time>
      </trkpt>
      <trkpt lat="45.23673" lon="6.19957">
        <ele>2111</ele>
        <time>2021-02-27T13:59:50Z</time>
      </trkpt>
      <trkpt lat="45.23674" lon="6.19959">
        <ele>2113.4</ele>
        <time>2021-02-27T13:59:51Z</time>
      </trkpt>
      <trkpt lat="45.23674" lon="6.19961">
        <ele>2113.4</ele>
        <time>2021-02-27T13:59:53Z</time>
      </trkpt>
      <trkpt lat="45.23675" lon="6.19964">
        <ele>2113.4</ele>
        <time>2021-02-27T13:59:56Z</time>
      </trkpt>
      <trkpt lat="45.23676" lon="6.19967">
        <ele>2113.4</ele>
        <time>2021-02-27T13:59:58Z</time>
      </trkpt>
      <trkpt lat="45.23677" lon="6.1997">
        <ele>2114.8</ele>
        <time>2021-02-27T14:00:01Z</time>
      </trkpt>
      <trkpt lat="45.23677" lon="6.19972">
        <ele>2114.8</ele>
        <time>2021-02-27T14:00:03Z</time>
      </trkpt>
      <trkpt lat="45.23679" lon="6.19975">
        <ele>2114.8</ele>
        <time>2021-02-27T14:00:06Z</time>
      </trkpt>
      <trkpt lat="45.2368" lon="6.19978">
        <ele>2114.8</ele>
        <time>2021-02-27T14:00:09Z</time>
      </trkpt>
      <trkpt lat="45.23681" lon="6.1998">
        <ele>2116.6</ele>
        <time>2021-02-27T14:00:11Z</time>
      </trkpt>
      <trkpt lat="45.23683" lon="6.19985">
        <ele>2116.6</ele>
        <time>2021-02-27T14:00:14Z</time>
      </trkpt>
      <trkpt lat="45.23684" lon="6.19986">
        <ele>2116.6</ele>
        <time>2021-02-27T14:00:17Z</time>
      </trkpt>
      <trkpt lat="45.23685" lon="6.19987">
        <ele>2116.6</ele>
        <time>2021-02-27T14:00:20Z</time>
      </trkpt>
      <trkpt lat="45.23685" lon="6.19989">
        <ele>2118.8</ele>
        <time>2021-02-27T14:00:21Z</time>
      </trkpt>
      <trkpt lat="45.23687" lon="6.19991">
        <ele>2118.8</ele>
        <time>2021-02-27T14:00:23Z</time>
      </trkpt>
      <trkpt lat="45.23688" lon="6.19994">
        <ele>2118.8</ele>
        <time>2021-02-27T14:00:25Z</time>
      </trkpt>
      <trkpt lat="45.2369" lon="6.19996">
        <ele>2118.8</ele>
        <time>2021-02-27T14:00:28Z</time>
      </trkpt>
      <trkpt lat="45.23691" lon="6.2">
        <ele>2121</ele>
        <time>2021-02-27T14:00:31Z</time>
      </trkpt>
      <trkpt lat="45.23692" lon="6.20004">
        <ele>2121</ele>
        <time>2021-02-27T14:00:34Z</time>
      </trkpt>
      <trkpt lat="45.23693" lon="6.20006">
        <ele>2121</ele>
        <time>2021-02-27T14:00:37Z</time>
      </trkpt>
      <trkpt lat="45.23694" lon="6.20007">
        <ele>2121</ele>
        <time>2021-02-27T14:00:40Z</time>
      </trkpt>
      <trkpt lat="45.23695" lon="6.20008">
        <ele>2123.2</ele>
        <time>2021-02-27T14:00:41Z</time>
      </trkpt>
      <trkpt lat="45.23696" lon="6.20011">
        <ele>2123.2</ele>
        <time>2021-02-27T14:00:43Z</time>
      </trkpt>
      <trkpt lat="45.23698" lon="6.20014">
        <ele>2123.2</ele>
        <time>2021-02-27T14:00:46Z</time>
      </trkpt>
      <trkpt lat="45.23699" lon="6.20017">
        <ele>2123.2</ele>
        <time>2021-02-27T14:00:49Z</time>
      </trkpt>
      <trkpt lat="45.23699" lon="6.20017">
        <ele>2124.2</ele>
        <time>2021-02-27T14:00:51Z</time>
      </trkpt>
      <trkpt lat="45.23701" lon="6.20021">
        <ele>2124.2</ele>
        <time>2021-02-27T14:00:52Z</time>
      </trkpt>
      <trkpt lat="45.23702" lon="6.20023">
        <ele>2124.2</ele>
        <time>2021-02-27T14:00:55Z</time>
      </trkpt>
      <trkpt lat="45.23702" lon="6.20024">
        <ele>2124.2</ele>
        <time>2021-02-27T14:00:58Z</time>
      </trkpt>
      <trkpt lat="45.23703" lon="6.20026">
        <ele>2124.2</ele>
        <time>2021-02-27T14:01:00Z</time>
      </trkpt>
      <trkpt lat="45.23704" lon="6.20028">
        <ele>2126.6</ele>
        <time>2021-02-27T14:01:01Z</time>
      </trkpt>
      <trkpt lat="45.23705" lon="6.2003">
        <ele>2126.6</ele>
        <time>2021-02-27T14:01:02Z</time>
      </trkpt>
      <trkpt lat="45.23707" lon="6.20033">
        <ele>2126.6</ele>
        <time>2021-02-27T14:01:05Z</time>
      </trkpt>
      <trkpt lat="45.23708" lon="6.20036">
        <ele>2126.6</ele>
        <time>2021-02-27T14:01:08Z</time>
      </trkpt>
      <trkpt lat="45.23709" lon="6.20039">
        <ele>2128.2</ele>
        <time>2021-02-27T14:01:11Z</time>
      </trkpt>
      <trkpt lat="45.23711" lon="6.20043">
        <ele>2128.2</ele>
        <time>2021-02-27T14:01:13Z</time>
      </trkpt>
      <trkpt lat="45.23711" lon="6.20044">
        <ele>2128.2</ele>
        <time>2021-02-27T14:01:16Z</time>
      </trkpt>
      <trkpt lat="45.23712" lon="6.20046">
        <ele>2128.2</ele>
        <time>2021-02-27T14:01:18Z</time>
      </trkpt>
      <trkpt lat="45.23712" lon="6.20047">
        <ele>2128.2</ele>
        <time>2021-02-27T14:01:20Z</time>
      </trkpt>
      <trkpt lat="45.23713" lon="6.20049">
        <ele>2129.4</ele>
        <time>2021-02-27T14:01:21Z</time>
      </trkpt>
      <trkpt lat="45.23714" lon="6.20051">
        <ele>2129.4</ele>
        <time>2021-02-27T14:01:22Z</time>
      </trkpt>
      <trkpt lat="45.23715" lon="6.20054">
        <ele>2129.4</ele>
        <time>2021-02-27T14:01:24Z</time>
      </trkpt>
      <trkpt lat="45.23715" lon="6.20057">
        <ele>2129.4</ele>
        <time>2021-02-27T14:01:27Z</time>
      </trkpt>
      <trkpt lat="45.23717" lon="6.20059">
        <ele>2129.4</ele>
        <time>2021-02-27T14:01:29Z</time>
      </trkpt>
      <trkpt lat="45.23717" lon="6.20059">
        <ele>2130.2</ele>
        <time>2021-02-27T14:01:31Z</time>
      </trkpt>
      <trkpt lat="45.23717" lon="6.20062">
        <ele>2130.2</ele>
        <time>2021-02-27T14:01:32Z</time>
      </trkpt>
      <trkpt lat="45.23719" lon="6.20065">
        <ele>2130.2</ele>
        <time>2021-02-27T14:01:35Z</time>
      </trkpt>
      <trkpt lat="45.2372" lon="6.20068">
        <ele>2130.2</ele>
        <time>2021-02-27T14:01:38Z</time>
      </trkpt>
      <trkpt lat="45.23721" lon="6.20072">
        <ele>2131.6</ele>
        <time>2021-02-27T14:01:41Z</time>
      </trkpt>
      <trkpt lat="45.23722" lon="6.20075">
        <ele>2131.6</ele>
        <time>2021-02-27T14:01:44Z</time>
      </trkpt>
      <trkpt lat="45.23723" lon="6.20076">
        <ele>2131.6</ele>
        <time>2021-02-27T14:01:46Z</time>
      </trkpt>
      <trkpt lat="45.23724" lon="6.2008">
        <ele>2131.6</ele>
        <time>2021-02-27T14:01:49Z</time>
      </trkpt>
      <trkpt lat="45.23724" lon="6.2008">
        <ele>2133</ele>
        <time>2021-02-27T14:01:51Z</time>
      </trkpt>
      <trkpt lat="45.23725" lon="6.20083">
        <ele>2133</ele>
        <time>2021-02-27T14:01:52Z</time>
      </trkpt>
      <trkpt lat="45.23726" lon="6.20086">
        <ele>2133</ele>
        <time>2021-02-27T14:01:54Z</time>
      </trkpt>
      <trkpt lat="45.23728" lon="6.20088">
        <ele>2133</ele>
        <time>2021-02-27T14:01:57Z</time>
      </trkpt>
      <trkpt lat="45.23729" lon="6.20091">
        <ele>2133</ele>
        <time>2021-02-27T14:01:59Z</time>
      </trkpt>
      <trkpt lat="45.23729" lon="6.20091">
        <ele>2134</ele>
        <time>2021-02-27T14:02:01Z</time>
      </trkpt>
      <trkpt lat="45.23732" lon="6.20094">
        <ele>2134</ele>
        <time>2021-02-27T14:02:02Z</time>
      </trkpt>
      <trkpt lat="45.23733" lon="6.20096">
        <ele>2134</ele>
        <time>2021-02-27T14:02:05Z</time>
      </trkpt>
      <trkpt lat="45.23734" lon="6.20097">
        <ele>2134</ele>
        <time>2021-02-27T14:02:08Z</time>
      </trkpt>
      <trkpt lat="45.23734" lon="6.20099">
        <ele>2134</ele>
        <time>2021-02-27T14:02:10Z</time>
      </trkpt>
      <trkpt lat="45.23735" lon="6.201">
        <ele>2136</ele>
        <time>2021-02-27T14:02:11Z</time>
      </trkpt>
      <trkpt lat="45.23737" lon="6.20102">
        <ele>2136</ele>
        <time>2021-02-27T14:02:12Z</time>
      </trkpt>
      <trkpt lat="45.23738" lon="6.20105">
        <ele>2136</ele>
        <time>2021-02-27T14:02:15Z</time>
      </trkpt>
      <trkpt lat="45.23739" lon="6.20108">
        <ele>2136</ele>
        <time>2021-02-27T14:02:17Z</time>
      </trkpt>
      <trkpt lat="45.2374" lon="6.2011">
        <ele>2136</ele>
        <time>2021-02-27T14:02:19Z</time>
      </trkpt>
      <trkpt lat="45.2374" lon="6.2011">
        <ele>2137.2</ele>
        <time>2021-02-27T14:02:21Z</time>
      </trkpt>
      <trkpt lat="45.23742" lon="6.20113">
        <ele>2137.2</ele>
        <time>2021-02-27T14:02:22Z</time>
      </trkpt>
      <trkpt lat="45.23744" lon="6.20116">
        <ele>2137.2</ele>
        <time>2021-02-27T14:02:25Z</time>
      </trkpt>
      <trkpt lat="45.23745" lon="6.20117">
        <ele>2137.2</ele>
        <time>2021-02-27T14:02:27Z</time>
      </trkpt>
      <trkpt lat="45.23747" lon="6.20119">
        <ele>2137.2</ele>
        <time>2021-02-27T14:02:29Z</time>
      </trkpt>
      <trkpt lat="45.23748" lon="6.20121">
        <ele>2138.6</ele>
        <time>2021-02-27T14:02:31Z</time>
      </trkpt>
      <trkpt lat="45.23749" lon="6.20124">
        <ele>2138.6</ele>
        <time>2021-02-27T14:02:34Z</time>
      </trkpt>
      <trkpt lat="45.23751" lon="6.20126">
        <ele>2138.6</ele>
        <time>2021-02-27T14:02:36Z</time>
      </trkpt>
      <trkpt lat="45.23752" lon="6.20128">
        <ele>2138.6</ele>
        <time>2021-02-27T14:02:38Z</time>
      </trkpt>
      <trkpt lat="45.23753" lon="6.20131">
        <ele>2140</ele>
        <time>2021-02-27T14:02:41Z</time>
      </trkpt>
      <trkpt lat="45.23756" lon="6.20134">
        <ele>2140</ele>
        <time>2021-02-27T14:02:43Z</time>
      </trkpt>
      <trkpt lat="45.23757" lon="6.20136">
        <ele>2140</ele>
        <time>2021-02-27T14:02:45Z</time>
      </trkpt>
      <trkpt lat="45.23758" lon="6.20137">
        <ele>2140</ele>
        <time>2021-02-27T14:02:48Z</time>
      </trkpt>
      <trkpt lat="45.23759" lon="6.20139">
        <ele>2140</ele>
        <time>2021-02-27T14:02:50Z</time>
      </trkpt>
      <trkpt lat="45.23759" lon="6.2014">
        <ele>2140.8</ele>
        <time>2021-02-27T14:02:51Z</time>
      </trkpt>
      <trkpt lat="45.2376" lon="6.20141">
        <ele>2140.8</ele>
        <time>2021-02-27T14:02:52Z</time>
      </trkpt>
      <trkpt lat="45.23762" lon="6.20144">
        <ele>2140.8</ele>
        <time>2021-02-27T14:02:55Z</time>
      </trkpt>
      <trkpt lat="45.23764" lon="6.20146">
        <ele>2140.8</ele>
        <time>2021-02-27T14:02:58Z</time>
      </trkpt>
      <trkpt lat="45.23765" lon="6.20149">
        <ele>2143</ele>
        <time>2021-02-27T14:03:01Z</time>
      </trkpt>
      <trkpt lat="45.23767" lon="6.20153">
        <ele>2143</ele>
        <time>2021-02-27T14:03:04Z</time>
      </trkpt>
      <trkpt lat="45.23768" lon="6.20154">
        <ele>2143</ele>
        <time>2021-02-27T14:03:07Z</time>
      </trkpt>
      <trkpt lat="45.23768" lon="6.20155">
        <ele>2143</ele>
        <time>2021-02-27T14:03:10Z</time>
      </trkpt>
      <trkpt lat="45.23769" lon="6.20157">
        <ele>2144.2</ele>
        <time>2021-02-27T14:03:11Z</time>
      </trkpt>
      <trkpt lat="45.2377" lon="6.20159">
        <ele>2144.2</ele>
        <time>2021-02-27T14:03:12Z</time>
      </trkpt>
      <trkpt lat="45.23771" lon="6.20161">
        <ele>2144.2</ele>
        <time>2021-02-27T14:03:15Z</time>
      </trkpt>
      <trkpt lat="45.23773" lon="6.20163">
        <ele>2144.2</ele>
        <time>2021-02-27T14:03:17Z</time>
      </trkpt>
      <trkpt lat="45.23774" lon="6.20165">
        <ele>2144.2</ele>
        <time>2021-02-27T14:03:19Z</time>
      </trkpt>
      <trkpt lat="45.23774" lon="6.20165">
        <ele>2146</ele>
        <time>2021-02-27T14:03:21Z</time>
      </trkpt>
      <trkpt lat="45.23775" lon="6.20168">
        <ele>2146</ele>
        <time>2021-02-27T14:03:22Z</time>
      </trkpt>
      <trkpt lat="45.23776" lon="6.2017">
        <ele>2146</ele>
        <time>2021-02-27T14:03:24Z</time>
      </trkpt>
      <trkpt lat="45.23778" lon="6.20174">
        <ele>2146</ele>
        <time>2021-02-27T14:03:27Z</time>
      </trkpt>
      <trkpt lat="45.2378" lon="6.20176">
        <ele>2146</ele>
        <time>2021-02-27T14:03:29Z</time>
      </trkpt>
      <trkpt lat="45.2378" lon="6.20176">
        <ele>2147.4</ele>
        <time>2021-02-27T14:03:31Z</time>
      </trkpt>
      <trkpt lat="45.23782" lon="6.2018">
        <ele>2147.4</ele>
        <time>2021-02-27T14:03:32Z</time>
      </trkpt>
      <trkpt lat="45.23783" lon="6.20181">
        <ele>2147.4</ele>
        <time>2021-02-27T14:03:35Z</time>
      </trkpt>
      <trkpt lat="45.23784" lon="6.20183">
        <ele>2147.4</ele>
        <time>2021-02-27T14:03:37Z</time>
      </trkpt>
      <trkpt lat="45.23785" lon="6.20184">
        <ele>2147.4</ele>
        <time>2021-02-27T14:03:40Z</time>
      </trkpt>
      <trkpt lat="45.23785" lon="6.20185">
        <ele>2149</ele>
        <time>2021-02-27T14:03:41Z</time>
      </trkpt>
      <trkpt lat="45.23788" lon="6.20189">
        <ele>2149</ele>
        <time>2021-02-27T14:03:43Z</time>
      </trkpt>
      <trkpt lat="45.23789" lon="6.20191">
        <ele>2149</ele>
        <time>2021-02-27T14:03:45Z</time>
      </trkpt>
      <trkpt lat="45.2379" lon="6.20192">
        <ele>2149</ele>
        <time>2021-02-27T14:03:48Z</time>
      </trkpt>
      <trkpt lat="45.23791" lon="6.20193">
        <ele>2149</ele>
        <time>2021-02-27T14:03:50Z</time>
      </trkpt>
      <trkpt lat="45.23792" lon="6.20195">
        <ele>2150.6</ele>
        <time>2021-02-27T14:03:51Z</time>
      </trkpt>
      <trkpt lat="45.23794" lon="6.20197">
        <ele>2150.6</ele>
        <time>2021-02-27T14:03:53Z</time>
      </trkpt>
      <trkpt lat="45.23795" lon="6.202">
        <ele>2150.6</ele>
        <time>2021-02-27T14:03:56Z</time>
      </trkpt>
      <trkpt lat="45.23797" lon="6.20202">
        <ele>2150.6</ele>
        <time>2021-02-27T14:03:58Z</time>
      </trkpt>
      <trkpt lat="45.23798" lon="6.20205">
        <ele>2152.2</ele>
        <time>2021-02-27T14:04:01Z</time>
      </trkpt>
      <trkpt lat="45.238" lon="6.20209">
        <ele>2152.2</ele>
        <time>2021-02-27T14:04:04Z</time>
      </trkpt>
      <trkpt lat="45.23801" lon="6.2021">
        <ele>2152.2</ele>
        <time>2021-02-27T14:04:07Z</time>
      </trkpt>
      <trkpt lat="45.23802" lon="6.20211">
        <ele>2152.2</ele>
        <time>2021-02-27T14:04:10Z</time>
      </trkpt>
      <trkpt lat="45.23803" lon="6.20212">
        <ele>2153.8</ele>
        <time>2021-02-27T14:04:11Z</time>
      </trkpt>
      <trkpt lat="45.23804" lon="6.20214">
        <ele>2153.8</ele>
        <time>2021-02-27T14:04:12Z</time>
      </trkpt>
      <trkpt lat="45.23805" lon="6.20216">
        <ele>2153.8</ele>
        <time>2021-02-27T14:04:14Z</time>
      </trkpt>
      <trkpt lat="45.23807" lon="6.20218">
        <ele>2153.8</ele>
        <time>2021-02-27T14:04:16Z</time>
      </trkpt>
      <trkpt lat="45.23808" lon="6.20221">
        <ele>2153.8</ele>
        <time>2021-02-27T14:04:19Z</time>
      </trkpt>
      <trkpt lat="45.2381" lon="6.20222">
        <ele>2155.2</ele>
        <time>2021-02-27T14:04:21Z</time>
      </trkpt>
      <trkpt lat="45.23813" lon="6.20226">
        <ele>2155.2</ele>
        <time>2021-02-27T14:04:23Z</time>
      </trkpt>
      <trkpt lat="45.23814" lon="6.20228">
        <ele>2155.2</ele>
        <time>2021-02-27T14:04:25Z</time>
      </trkpt>
      <trkpt lat="45.23815" lon="6.20229">
        <ele>2155.2</ele>
        <time>2021-02-27T14:04:27Z</time>
      </trkpt>
      <trkpt lat="45.23816" lon="6.20231">
        <ele>2155.2</ele>
        <time>2021-02-27T14:04:30Z</time>
      </trkpt>
      <trkpt lat="45.23818" lon="6.20232">
        <ele>2156.8</ele>
        <time>2021-02-27T14:04:31Z</time>
      </trkpt>
      <trkpt lat="45.2382" lon="6.20235">
        <ele>2156.8</ele>
        <time>2021-02-27T14:04:33Z</time>
      </trkpt>
      <trkpt lat="45.23821" lon="6.20236">
        <ele>2156.8</ele>
        <time>2021-02-27T14:04:36Z</time>
      </trkpt>
      <trkpt lat="45.23822" lon="6.20238">
        <ele>2156.8</ele>
        <time>2021-02-27T14:04:38Z</time>
      </trkpt>
      <trkpt lat="45.23823" lon="6.20239">
        <ele>2156.8</ele>
        <time>2021-02-27T14:04:40Z</time>
      </trkpt>
      <trkpt lat="45.23824" lon="6.2024">
        <ele>2158.2</ele>
        <time>2021-02-27T14:04:41Z</time>
      </trkpt>
      <trkpt lat="45.23826" lon="6.20243">
        <ele>2158.2</ele>
        <time>2021-02-27T14:04:43Z</time>
      </trkpt>
      <trkpt lat="45.23828" lon="6.20245">
        <ele>2158.2</ele>
        <time>2021-02-27T14:04:45Z</time>
      </trkpt>
      <trkpt lat="45.23829" lon="6.20247">
        <ele>2158.2</ele>
        <time>2021-02-27T14:04:47Z</time>
      </trkpt>
      <trkpt lat="45.2383" lon="6.20249">
        <ele>2158.2</ele>
        <time>2021-02-27T14:04:49Z</time>
      </trkpt>
      <trkpt lat="45.23831" lon="6.20251">
        <ele>2159.6</ele>
        <time>2021-02-27T14:04:51Z</time>
      </trkpt>
      <trkpt lat="45.23833" lon="6.20252">
        <ele>2159.6</ele>
        <time>2021-02-27T14:04:53Z</time>
      </trkpt>
      <trkpt lat="45.23835" lon="6.20255">
        <ele>2159.6</ele>
        <time>2021-02-27T14:04:56Z</time>
      </trkpt>
      <trkpt lat="45.23837" lon="6.20258">
        <ele>2159.6</ele>
        <time>2021-02-27T14:04:59Z</time>
      </trkpt>
      <trkpt lat="45.23837" lon="6.20258">
        <ele>2161.4</ele>
        <time>2021-02-27T14:05:01Z</time>
      </trkpt>
      <trkpt lat="45.2384" lon="6.20263">
        <ele>2161.4</ele>
        <time>2021-02-27T14:05:02Z</time>
      </trkpt>
      <trkpt lat="45.23841" lon="6.20264">
        <ele>2161.4</ele>
        <time>2021-02-27T14:05:04Z</time>
      </trkpt>
      <trkpt lat="45.23842" lon="6.20266">
        <ele>2161.4</ele>
        <time>2021-02-27T14:05:07Z</time>
      </trkpt>
      <trkpt lat="45.23843" lon="6.20268">
        <ele>2161.4</ele>
        <time>2021-02-27T14:05:10Z</time>
      </trkpt>
      <trkpt lat="45.23844" lon="6.2027">
        <ele>2163</ele>
        <time>2021-02-27T14:05:11Z</time>
      </trkpt>
      <trkpt lat="45.23845" lon="6.20271">
        <ele>2163</ele>
        <time>2021-02-27T14:05:12Z</time>
      </trkpt>
      <trkpt lat="45.23847" lon="6.20273">
        <ele>2163</ele>
        <time>2021-02-27T14:05:14Z</time>
      </trkpt>
      <trkpt lat="45.23848" lon="6.20275">
        <ele>2163</ele>
        <time>2021-02-27T14:05:16Z</time>
      </trkpt>
      <trkpt lat="45.2385" lon="6.20278">
        <ele>2163</ele>
        <time>2021-02-27T14:05:19Z</time>
      </trkpt>
      <trkpt lat="45.2385" lon="6.20278">
        <ele>2164.2</ele>
        <time>2021-02-27T14:05:21Z</time>
      </trkpt>
      <trkpt lat="45.23852" lon="6.20283">
        <ele>2164.2</ele>
        <time>2021-02-27T14:05:22Z</time>
      </trkpt>
      <trkpt lat="45.23853" lon="6.20284">
        <ele>2164.2</ele>
        <time>2021-02-27T14:05:24Z</time>
      </trkpt>
      <trkpt lat="45.23854" lon="6.20286">
        <ele>2164.2</ele>
        <time>2021-02-27T14:05:26Z</time>
      </trkpt>
      <trkpt lat="45.23855" lon="6.20288">
        <ele>2164.2</ele>
        <time>2021-02-27T14:05:28Z</time>
      </trkpt>
      <trkpt lat="45.23856" lon="6.20289">
        <ele>2164.2</ele>
        <time>2021-02-27T14:05:30Z</time>
      </trkpt>
      <trkpt lat="45.23857" lon="6.20291">
        <ele>2165.4</ele>
        <time>2021-02-27T14:05:31Z</time>
      </trkpt>
      <trkpt lat="45.23858" lon="6.20292">
        <ele>2165.4</ele>
        <time>2021-02-27T14:05:32Z</time>
      </trkpt>
      <trkpt lat="45.2386" lon="6.20295">
        <ele>2165.4</ele>
        <time>2021-02-27T14:05:35Z</time>
      </trkpt>
      <trkpt lat="45.23861" lon="6.20297">
        <ele>2165.4</ele>
        <time>2021-02-27T14:05:37Z</time>
      </trkpt>
      <trkpt lat="45.23862" lon="6.20299">
        <ele>2165.4</ele>
        <time>2021-02-27T14:05:39Z</time>
      </trkpt>
      <trkpt lat="45.23864" lon="6.20301">
        <ele>2166.4</ele>
        <time>2021-02-27T14:05:41Z</time>
      </trkpt>
      <trkpt lat="45.23865" lon="6.20304">
        <ele>2166.4</ele>
        <time>2021-02-27T14:05:43Z</time>
      </trkpt>
      <trkpt lat="45.23867" lon="6.20307">
        <ele>2166.4</ele>
        <time>2021-02-27T14:05:46Z</time>
      </trkpt>
      <trkpt lat="45.23868" lon="6.2031">
        <ele>2166.4</ele>
        <time>2021-02-27T14:05:48Z</time>
      </trkpt>
      <trkpt lat="45.23868" lon="6.20313">
        <ele>2166.8</ele>
        <time>2021-02-27T14:05:51Z</time>
      </trkpt>
      <trkpt lat="45.23871" lon="6.20318">
        <ele>2166.8</ele>
        <time>2021-02-27T14:05:53Z</time>
      </trkpt>
      <trkpt lat="45.23872" lon="6.20319">
        <ele>2166.8</ele>
        <time>2021-02-27T14:05:55Z</time>
      </trkpt>
      <trkpt lat="45.23873" lon="6.20321">
        <ele>2166.8</ele>
        <time>2021-02-27T14:05:57Z</time>
      </trkpt>
      <trkpt lat="45.23874" lon="6.20323">
        <ele>2166.8</ele>
        <time>2021-02-27T14:06:00Z</time>
      </trkpt>
      <trkpt lat="45.23874" lon="6.20325">
        <ele>2168.2</ele>
        <time>2021-02-27T14:06:01Z</time>
      </trkpt>
      <trkpt lat="45.23876" lon="6.20328">
        <ele>2168.2</ele>
        <time>2021-02-27T14:06:02Z</time>
      </trkpt>
      <trkpt lat="45.23877" lon="6.20329">
        <ele>2168.2</ele>
        <time>2021-02-27T14:06:05Z</time>
      </trkpt>
      <trkpt lat="45.23878" lon="6.20331">
        <ele>2168.2</ele>
        <time>2021-02-27T14:06:08Z</time>
      </trkpt>
      <trkpt lat="45.23879" lon="6.20332">
        <ele>2168.2</ele>
        <time>2021-02-27T14:06:10Z</time>
      </trkpt>
      <trkpt lat="45.2388" lon="6.20334">
        <ele>2168.8</ele>
        <time>2021-02-27T14:06:11Z</time>
      </trkpt>
      <trkpt lat="45.23882" lon="6.20337">
        <ele>2168.8</ele>
        <time>2021-02-27T14:06:13Z</time>
      </trkpt>
      <trkpt lat="45.23883" lon="6.20339">
        <ele>2168.8</ele>
        <time>2021-02-27T14:06:15Z</time>
      </trkpt>
      <trkpt lat="45.23885" lon="6.20342">
        <ele>2168.8</ele>
        <time>2021-02-27T14:06:18Z</time>
      </trkpt>
      <trkpt lat="45.23886" lon="6.20345">
        <ele>2170</ele>
        <time>2021-02-27T14:06:21Z</time>
      </trkpt>
      <trkpt lat="45.23888" lon="6.20349">
        <ele>2170</ele>
        <time>2021-02-27T14:06:23Z</time>
      </trkpt>
      <trkpt lat="45.23889" lon="6.20351">
        <ele>2170</ele>
        <time>2021-02-27T14:06:26Z</time>
      </trkpt>
      <trkpt lat="45.2389" lon="6.20353">
        <ele>2170</ele>
        <time>2021-02-27T14:06:28Z</time>
      </trkpt>
      <trkpt lat="45.23891" lon="6.20355">
        <ele>2170</ele>
        <time>2021-02-27T14:06:30Z</time>
      </trkpt>
      <trkpt lat="45.23892" lon="6.20356">
        <ele>2171.2</ele>
        <time>2021-02-27T14:06:31Z</time>
      </trkpt>
      <trkpt lat="45.23892" lon="6.20358">
        <ele>2171.2</ele>
        <time>2021-02-27T14:06:32Z</time>
      </trkpt>
      <trkpt lat="45.23894" lon="6.2036">
        <ele>2171.2</ele>
        <time>2021-02-27T14:06:34Z</time>
      </trkpt>
      <trkpt lat="45.23896" lon="6.20361">
        <ele>2171.2</ele>
        <time>2021-02-27T14:06:36Z</time>
      </trkpt>
      <trkpt lat="45.23897" lon="6.20364">
        <ele>2171.2</ele>
        <time>2021-02-27T14:06:39Z</time>
      </trkpt>
      <trkpt lat="45.23897" lon="6.20364">
        <ele>2172.4</ele>
        <time>2021-02-27T14:06:41Z</time>
      </trkpt>
      <trkpt lat="45.23899" lon="6.20369">
        <ele>2172.4</ele>
        <time>2021-02-27T14:06:42Z</time>
      </trkpt>
      <trkpt lat="45.239" lon="6.2037">
        <ele>2172.4</ele>
        <time>2021-02-27T14:06:44Z</time>
      </trkpt>
      <trkpt lat="45.23901" lon="6.20372">
        <ele>2172.4</ele>
        <time>2021-02-27T14:06:46Z</time>
      </trkpt>
      <trkpt lat="45.23902" lon="6.20374">
        <ele>2172.4</ele>
        <time>2021-02-27T14:06:48Z</time>
      </trkpt>
      <trkpt lat="45.23903" lon="6.20375">
        <ele>2172.4</ele>
        <time>2021-02-27T14:06:50Z</time>
      </trkpt>
      <trkpt lat="45.23904" lon="6.20377">
        <ele>2174.4</ele>
        <time>2021-02-27T14:06:51Z</time>
      </trkpt>
      <trkpt lat="45.23905" lon="6.20379">
        <ele>2174.4</ele>
        <time>2021-02-27T14:06:53Z</time>
      </trkpt>
      <trkpt lat="45.23906" lon="6.20383">
        <ele>2174.4</ele>
        <time>2021-02-27T14:06:56Z</time>
      </trkpt>
      <trkpt lat="45.23907" lon="6.20386">
        <ele>2174.4</ele>
        <time>2021-02-27T14:06:59Z</time>
      </trkpt>
      <trkpt lat="45.23907" lon="6.20386">
        <ele>2175.4</ele>
        <time>2021-02-27T14:07:01Z</time>
      </trkpt>
      <trkpt lat="45.23908" lon="6.20391">
        <ele>2175.4</ele>
        <time>2021-02-27T14:07:02Z</time>
      </trkpt>
      <trkpt lat="45.23909" lon="6.20393">
        <ele>2175.4</ele>
        <time>2021-02-27T14:07:05Z</time>
      </trkpt>
      <trkpt lat="45.2391" lon="6.20394">
        <ele>2175.4</ele>
        <time>2021-02-27T14:07:08Z</time>
      </trkpt>
      <trkpt lat="45.2391" lon="6.20396">
        <ele>2175.4</ele>
        <time>2021-02-27T14:07:10Z</time>
      </trkpt>
      <trkpt lat="45.23911" lon="6.20398">
        <ele>2177.2</ele>
        <time>2021-02-27T14:07:11Z</time>
      </trkpt>
      <trkpt lat="45.23912" lon="6.20401">
        <ele>2177.2</ele>
        <time>2021-02-27T14:07:13Z</time>
      </trkpt>
      <trkpt lat="45.23913" lon="6.20403">
        <ele>2177.2</ele>
        <time>2021-02-27T14:07:15Z</time>
      </trkpt>
      <trkpt lat="45.23914" lon="6.20406">
        <ele>2177.2</ele>
        <time>2021-02-27T14:07:18Z</time>
      </trkpt>
      <trkpt lat="45.23916" lon="6.20409">
        <ele>2179.2</ele>
        <time>2021-02-27T14:07:21Z</time>
      </trkpt>
      <trkpt lat="45.23917" lon="6.20412">
        <ele>2179.2</ele>
        <time>2021-02-27T14:07:24Z</time>
      </trkpt>
      <trkpt lat="45.23917" lon="6.20416">
        <ele>2179.2</ele>
        <time>2021-02-27T14:07:27Z</time>
      </trkpt>
      <trkpt lat="45.23915" lon="6.20416">
        <ele>2179.6</ele>
        <time>2021-02-27T14:07:31Z</time>
      </trkpt>
      <trkpt lat="45.23911" lon="6.20416">
        <ele>2179.6</ele>
        <time>2021-02-27T14:07:34Z</time>
      </trkpt>
      <trkpt lat="45.2391" lon="6.20416">
        <ele>2179.6</ele>
        <time>2021-02-27T14:07:37Z</time>
      </trkpt>
      <trkpt lat="45.23908" lon="6.20416">
        <ele>2179.6</ele>
        <time>2021-02-27T14:07:40Z</time>
      </trkpt>
      <trkpt lat="45.23907" lon="6.20417">
        <ele>2181.6</ele>
        <time>2021-02-27T14:07:41Z</time>
      </trkpt>
      <trkpt lat="45.23904" lon="6.20417">
        <ele>2181.6</ele>
        <time>2021-02-27T14:07:42Z</time>
      </trkpt>
      <trkpt lat="45.23902" lon="6.20417">
        <ele>2181.6</ele>
        <time>2021-02-27T14:07:45Z</time>
      </trkpt>
      <trkpt lat="45.23901" lon="6.20417">
        <ele>2181.6</ele>
        <time>2021-02-27T14:07:48Z</time>
      </trkpt>
      <trkpt lat="45.239" lon="6.20417">
        <ele>2181.6</ele>
        <time>2021-02-27T14:07:50Z</time>
      </trkpt>
      <trkpt lat="45.23898" lon="6.20417">
        <ele>2184.4</ele>
        <time>2021-02-27T14:07:51Z</time>
      </trkpt>
      <trkpt lat="45.23894" lon="6.20418">
        <ele>2184.4</ele>
        <time>2021-02-27T14:07:52Z</time>
      </trkpt>
      <trkpt lat="45.23893" lon="6.20419">
        <ele>2184.4</ele>
        <time>2021-02-27T14:07:55Z</time>
      </trkpt>
      <trkpt lat="45.23891" lon="6.20419">
        <ele>2184.4</ele>
        <time>2021-02-27T14:07:57Z</time>
      </trkpt>
      <trkpt lat="45.2389" lon="6.20419">
        <ele>2184.4</ele>
        <time>2021-02-27T14:08:00Z</time>
      </trkpt>
      <trkpt lat="45.23889" lon="6.20419">
        <ele>2186.2</ele>
        <time>2021-02-27T14:08:01Z</time>
      </trkpt>
      <trkpt lat="45.23885" lon="6.2042">
        <ele>2186.2</ele>
        <time>2021-02-27T14:08:02Z</time>
      </trkpt>
      <trkpt lat="45.23884" lon="6.20421">
        <ele>2186.2</ele>
        <time>2021-02-27T14:08:04Z</time>
      </trkpt>
      <trkpt lat="45.23882" lon="6.20421">
        <ele>2186.2</ele>
        <time>2021-02-27T14:08:07Z</time>
      </trkpt>
      <trkpt lat="45.23881" lon="6.20421">
        <ele>2186.2</ele>
        <time>2021-02-27T14:08:10Z</time>
      </trkpt>
      <trkpt lat="45.2388" lon="6.20422">
        <ele>2188</ele>
        <time>2021-02-27T14:08:11Z</time>
      </trkpt>
      <trkpt lat="45.23876" lon="6.20423">
        <ele>2188</ele>
        <time>2021-02-27T14:08:12Z</time>
      </trkpt>
      <trkpt lat="45.23875" lon="6.20424">
        <ele>2188</ele>
        <time>2021-02-27T14:08:14Z</time>
      </trkpt>
      <trkpt lat="45.23874" lon="6.20424">
        <ele>2188</ele>
        <time>2021-02-27T14:08:16Z</time>
      </trkpt>
      <trkpt lat="45.23872" lon="6.20425">
        <ele>2188</ele>
        <time>2021-02-27T14:08:18Z</time>
      </trkpt>
      <trkpt lat="45.23871" lon="6.20426">
        <ele>2188</ele>
        <time>2021-02-27T14:08:20Z</time>
      </trkpt>
      <trkpt lat="45.23869" lon="6.20427">
        <ele>2189.4</ele>
        <time>2021-02-27T14:08:21Z</time>
      </trkpt>
      <trkpt lat="45.23868" lon="6.20428">
        <ele>2189.4</ele>
        <time>2021-02-27T14:08:23Z</time>
      </trkpt>
      <trkpt lat="45.23867" lon="6.2043">
        <ele>2189.4</ele>
        <time>2021-02-27T14:08:25Z</time>
      </trkpt>
      <trkpt lat="45.23867" lon="6.20433">
        <ele>2189.4</ele>
        <time>2021-02-27T14:08:28Z</time>
      </trkpt>
      <trkpt lat="45.23868" lon="6.20436">
        <ele>2191.6</ele>
        <time>2021-02-27T14:08:31Z</time>
      </trkpt>
      <trkpt lat="45.23868" lon="6.20441">
        <ele>2191.6</ele>
        <time>2021-02-27T14:08:34Z</time>
      </trkpt>
      <trkpt lat="45.23869" lon="6.20442">
        <ele>2191.6</ele>
        <time>2021-02-27T14:08:37Z</time>
      </trkpt>
      <trkpt lat="45.23869" lon="6.20443">
        <ele>2191.6</ele>
        <time>2021-02-27T14:08:40Z</time>
      </trkpt>
      <trkpt lat="45.23869" lon="6.20445">
        <ele>2194.2</ele>
        <time>2021-02-27T14:08:41Z</time>
      </trkpt>
      <trkpt lat="45.2387" lon="6.20448">
        <ele>2194.2</ele>
        <time>2021-02-27T14:08:43Z</time>
      </trkpt>
      <trkpt lat="45.2387" lon="6.20451">
        <ele>2194.2</ele>
        <time>2021-02-27T14:08:46Z</time>
      </trkpt>
      <trkpt lat="45.2387" lon="6.20454">
        <ele>2194.2</ele>
        <time>2021-02-27T14:08:49Z</time>
      </trkpt>
      <trkpt lat="45.2387" lon="6.20454">
        <ele>2196.6</ele>
        <time>2021-02-27T14:08:51Z</time>
      </trkpt>
      <trkpt lat="45.23871" lon="6.20459">
        <ele>2196.6</ele>
        <time>2021-02-27T14:08:52Z</time>
      </trkpt>
      <trkpt lat="45.23872" lon="6.20461">
        <ele>2196.6</ele>
        <time>2021-02-27T14:08:54Z</time>
      </trkpt>
      <trkpt lat="45.23873" lon="6.20463">
        <ele>2196.6</ele>
        <time>2021-02-27T14:08:57Z</time>
      </trkpt>
      <trkpt lat="45.23873" lon="6.20464">
        <ele>2196.6</ele>
        <time>2021-02-27T14:09:00Z</time>
      </trkpt>
      <trkpt lat="45.23874" lon="6.20466">
        <ele>2198.6</ele>
        <time>2021-02-27T14:09:01Z</time>
      </trkpt>
      <trkpt lat="45.23874" lon="6.20469">
        <ele>2198.6</ele>
        <time>2021-02-27T14:09:03Z</time>
      </trkpt>
      <trkpt lat="45.23875" lon="6.20472">
        <ele>2198.6</ele>
        <time>2021-02-27T14:09:06Z</time>
      </trkpt>
      <trkpt lat="45.23876" lon="6.20474">
        <ele>2198.6</ele>
        <time>2021-02-27T14:09:09Z</time>
      </trkpt>
      <trkpt lat="45.23876" lon="6.20474">
        <ele>2201.2</ele>
        <time>2021-02-27T14:09:11Z</time>
      </trkpt>
      <trkpt lat="45.23877" lon="6.20478">
        <ele>2201.2</ele>
        <time>2021-02-27T14:09:12Z</time>
      </trkpt>
      <trkpt lat="45.23878" lon="6.20481">
        <ele>2201.2</ele>
        <time>2021-02-27T14:09:15Z</time>
      </trkpt>
      <trkpt lat="45.23878" lon="6.20483">
        <ele>2201.2</ele>
        <time>2021-02-27T14:09:17Z</time>
      </trkpt>
      <trkpt lat="45.23879" lon="6.20486">
        <ele>2201.2</ele>
        <time>2021-02-27T14:09:19Z</time>
      </trkpt>
      <trkpt lat="45.23879" lon="6.20486">
        <ele>2203.4</ele>
        <time>2021-02-27T14:09:21Z</time>
      </trkpt>
      <trkpt lat="45.2388" lon="6.20489">
        <ele>2203.4</ele>
        <time>2021-02-27T14:09:22Z</time>
      </trkpt>
      <trkpt lat="45.2388" lon="6.20492">
        <ele>2203.4</ele>
        <time>2021-02-27T14:09:24Z</time>
      </trkpt>
      <trkpt lat="45.23881" lon="6.20496">
        <ele>2203.4</ele>
        <time>2021-02-27T14:09:27Z</time>
      </trkpt>
      <trkpt lat="45.23882" lon="6.20498">
        <ele>2203.4</ele>
        <time>2021-02-27T14:09:29Z</time>
      </trkpt>
      <trkpt lat="45.23882" lon="6.20501">
        <ele>2205.4</ele>
        <time>2021-02-27T14:09:31Z</time>
      </trkpt>
      <trkpt lat="45.23882" lon="6.20503">
        <ele>2205.4</ele>
        <time>2021-02-27T14:09:33Z</time>
      </trkpt>
      <trkpt lat="45.23883" lon="6.20506">
        <ele>2205.4</ele>
        <time>2021-02-27T14:09:35Z</time>
      </trkpt>
      <trkpt lat="45.23884" lon="6.20509">
        <ele>2205.4</ele>
        <time>2021-02-27T14:09:37Z</time>
      </trkpt>
      <trkpt lat="45.23885" lon="6.20511">
        <ele>2205.4</ele>
        <time>2021-02-27T14:09:39Z</time>
      </trkpt>
      <trkpt lat="45.23885" lon="6.20511">
        <ele>2206.8</ele>
        <time>2021-02-27T14:09:41Z</time>
      </trkpt>
      <trkpt lat="45.23886" lon="6.20515">
        <ele>2206.8</ele>
        <time>2021-02-27T14:09:42Z</time>
      </trkpt>
      <trkpt lat="45.23888" lon="6.20517">
        <ele>2206.8</ele>
        <time>2021-02-27T14:09:44Z</time>
      </trkpt>
      <trkpt lat="45.23889" lon="6.2052">
        <ele>2206.8</ele>
        <time>2021-02-27T14:09:46Z</time>
      </trkpt>
      <trkpt lat="45.23891" lon="6.20522">
        <ele>2206.8</ele>
        <time>2021-02-27T14:09:49Z</time>
      </trkpt>
      <trkpt lat="45.23891" lon="6.20522">
        <ele>2207.4</ele>
        <time>2021-02-27T14:09:51Z</time>
      </trkpt>
      <trkpt lat="45.23892" lon="6.20525">
        <ele>2207.4</ele>
        <time>2021-02-27T14:09:52Z</time>
      </trkpt>
      <trkpt lat="45.23893" lon="6.20526">
        <ele>2207.4</ele>
        <time>2021-02-27T14:09:54Z</time>
      </trkpt>
      <trkpt lat="45.23895" lon="6.20529">
        <ele>2207.4</ele>
        <time>2021-02-27T14:09:57Z</time>
      </trkpt>
      <trkpt lat="45.23896" lon="6.20532">
        <ele>2207.4</ele>
        <time>2021-02-27T14:09:59Z</time>
      </trkpt>
      <trkpt lat="45.23898" lon="6.20534">
        <ele>2209.6</ele>
        <time>2021-02-27T14:10:01Z</time>
      </trkpt>
      <trkpt lat="45.23899" lon="6.20538">
        <ele>2209.6</ele>
        <time>2021-02-27T14:10:04Z</time>
      </trkpt>
      <trkpt lat="45.239" lon="6.2054">
        <ele>2209.6</ele>
        <time>2021-02-27T14:10:07Z</time>
      </trkpt>
      <trkpt lat="45.23901" lon="6.20541">
        <ele>2209.6</ele>
        <time>2021-02-27T14:10:10Z</time>
      </trkpt>
      <trkpt lat="45.23901" lon="6.20543">
        <ele>2212.4</ele>
        <time>2021-02-27T14:10:11Z</time>
      </trkpt>
      <trkpt lat="45.23903" lon="6.20547">
        <ele>2212.4</ele>
        <time>2021-02-27T14:10:13Z</time>
      </trkpt>
      <trkpt lat="45.23903" lon="6.20549">
        <ele>2212.4</ele>
        <time>2021-02-27T14:10:15Z</time>
      </trkpt>
      <trkpt lat="45.23904" lon="6.2055">
        <ele>2212.4</ele>
        <time>2021-02-27T14:10:18Z</time>
      </trkpt>
      <trkpt lat="45.23905" lon="6.20552">
        <ele>2212.4</ele>
        <time>2021-02-27T14:10:20Z</time>
      </trkpt>
      <trkpt lat="45.23905" lon="6.20554">
        <ele>2214.2</ele>
        <time>2021-02-27T14:10:21Z</time>
      </trkpt>
      <trkpt lat="45.23907" lon="6.20558">
        <ele>2214.2</ele>
        <time>2021-02-27T14:10:23Z</time>
      </trkpt>
      <trkpt lat="45.23907" lon="6.2056">
        <ele>2214.2</ele>
        <time>2021-02-27T14:10:25Z</time>
      </trkpt>
      <trkpt lat="45.23908" lon="6.20562">
        <ele>2214.2</ele>
        <time>2021-02-27T14:10:27Z</time>
      </trkpt>
      <trkpt lat="45.23909" lon="6.20563">
        <ele>2214.2</ele>
        <time>2021-02-27T14:10:30Z</time>
      </trkpt>
      <trkpt lat="45.23909" lon="6.20565">
        <ele>2216.2</ele>
        <time>2021-02-27T14:10:31Z</time>
      </trkpt>
      <trkpt lat="45.2391" lon="6.20569">
        <ele>2216.2</ele>
        <time>2021-02-27T14:10:33Z</time>
      </trkpt>
      <trkpt lat="45.2391" lon="6.2057">
        <ele>2216.2</ele>
        <time>2021-02-27T14:10:35Z</time>
      </trkpt>
      <trkpt lat="45.2391" lon="6.2057">
        <ele>2217.6</ele>
        <time>2021-02-27T14:10:41Z</time>
      </trkpt>
      <trkpt lat="45.2391" lon="6.20571">
        <ele>2217.4</ele>
        <time>2021-02-27T14:10:51Z</time>
      </trkpt>
      <trkpt lat="45.2391" lon="6.20572">
        <ele>2217.8</ele>
        <time>2021-02-27T14:11:01Z</time>
      </trkpt>
      <trkpt lat="45.2391" lon="6.20572">
        <ele>2217.4</ele>
        <time>2021-02-27T14:11:11Z</time>
      </trkpt>
      <trkpt lat="45.2391" lon="6.20573">
        <ele>2217.8</ele>
        <time>2021-02-27T14:11:21Z</time>
      </trkpt>
      <trkpt lat="45.2391" lon="6.20574">
        <ele>2217.8</ele>
        <time>2021-02-27T14:11:31Z</time>
      </trkpt>
      <trkpt lat="45.2391" lon="6.20574">
        <ele>2217.4</ele>
        <time>2021-02-27T14:11:41Z</time>
      </trkpt>
      <trkpt lat="45.23911" lon="6.20575">
        <ele>2216.2</ele>
        <time>2021-02-27T14:11:51Z</time>
      </trkpt>
      <trkpt lat="45.23911" lon="6.20576">
        <ele>2216</ele>
        <time>2021-02-27T14:12:01Z</time>
      </trkpt>
      <trkpt lat="45.23911" lon="6.20577">
        <ele>2216.8</ele>
        <time>2021-02-27T14:12:11Z</time>
      </trkpt>
      <trkpt lat="45.23911" lon="6.20577">
        <ele>2216.2</ele>
        <time>2021-02-27T14:12:21Z</time>
      </trkpt>
      <trkpt lat="45.23911" lon="6.20578">
        <ele>2217.6</ele>
        <time>2021-02-27T14:12:31Z</time>
      </trkpt>
      <trkpt lat="45.23911" lon="6.20579">
        <ele>2218</ele>
        <time>2021-02-27T14:12:41Z</time>
      </trkpt>
      <trkpt lat="45.23911" lon="6.20579">
        <ele>2217</ele>
        <time>2021-02-27T14:12:51Z</time>
      </trkpt>
      <trkpt lat="45.23911" lon="6.2058">
        <ele>2217</ele>
        <time>2021-02-27T14:13:01Z</time>
      </trkpt>
      <trkpt lat="45.23911" lon="6.20581">
        <ele>2216.4</ele>
        <time>2021-02-27T14:13:11Z</time>
      </trkpt>
      <trkpt lat="45.23911" lon="6.20581">
        <ele>2215.6</ele>
        <time>2021-02-27T14:13:21Z</time>
      </trkpt>
      <trkpt lat="45.23911" lon="6.20582">
        <ele>2216</ele>
        <time>2021-02-27T14:13:31Z</time>
      </trkpt>
      <trkpt lat="45.23911" lon="6.20583">
        <ele>2217.4</ele>
        <time>2021-02-27T14:13:41Z</time>
      </trkpt>
      <trkpt lat="45.23911" lon="6.20583">
        <ele>2217.2</ele>
        <time>2021-02-27T14:13:51Z</time>
      </trkpt>
      <trkpt lat="45.23911" lon="6.20584">
        <ele>2217.2</ele>
        <time>2021-02-27T14:13:53Z</time>
      </trkpt>
      <trkpt lat="45.23911" lon="6.20585">
        <ele>2217.2</ele>
        <time>2021-02-27T14:13:55Z</time>
      </trkpt>
      <trkpt lat="45.23912" lon="6.20585">
        <ele>2217.2</ele>
        <time>2021-02-27T14:13:56Z</time>
      </trkpt>
      <trkpt lat="45.23912" lon="6.20586">
        <ele>2217.2</ele>
        <time>2021-02-27T14:13:58Z</time>
      </trkpt>
      <trkpt lat="45.23912" lon="6.20587">
        <ele>2217.2</ele>
        <time>2021-02-27T14:14:00Z</time>
      </trkpt>
      <trkpt lat="45.23912" lon="6.20587">
        <ele>2218</ele>
        <time>2021-02-27T14:14:01Z</time>
      </trkpt>
      <trkpt lat="45.23913" lon="6.20591">
        <ele>2218</ele>
        <time>2021-02-27T14:14:02Z</time>
      </trkpt>
      <trkpt lat="45.23914" lon="6.20594">
        <ele>2218</ele>
        <time>2021-02-27T14:14:04Z</time>
      </trkpt>
      <trkpt lat="45.23914" lon="6.20596">
        <ele>2218</ele>
        <time>2021-02-27T14:14:06Z</time>
      </trkpt>
      <trkpt lat="45.23915" lon="6.20598">
        <ele>2218</ele>
        <time>2021-02-27T14:14:08Z</time>
      </trkpt>
      <trkpt lat="45.23916" lon="6.206">
        <ele>2218</ele>
        <time>2021-02-27T14:14:10Z</time>
      </trkpt>
      <trkpt lat="45.23917" lon="6.20602">
        <ele>2219.8</ele>
        <time>2021-02-27T14:14:11Z</time>
      </trkpt>
      <trkpt lat="45.23918" lon="6.20605">
        <ele>2219.8</ele>
        <time>2021-02-27T14:14:12Z</time>
      </trkpt>
      <trkpt lat="45.23919" lon="6.20607">
        <ele>2219.8</ele>
        <time>2021-02-27T14:14:14Z</time>
      </trkpt>
      <trkpt lat="45.2392" lon="6.20609">
        <ele>2219.8</ele>
        <time>2021-02-27T14:14:16Z</time>
      </trkpt>
      <trkpt lat="45.23921" lon="6.20611">
        <ele>2219.8</ele>
        <time>2021-02-27T14:14:18Z</time>
      </trkpt>
      <trkpt lat="45.23922" lon="6.20613">
        <ele>2219.8</ele>
        <time>2021-02-27T14:14:20Z</time>
      </trkpt>
      <trkpt lat="45.23922" lon="6.20615">
        <ele>2220.8</ele>
        <time>2021-02-27T14:14:21Z</time>
      </trkpt>
      <trkpt lat="45.23924" lon="6.20618">
        <ele>2220.8</ele>
        <time>2021-02-27T14:14:22Z</time>
      </trkpt>
      <trkpt lat="45.23925" lon="6.2062">
        <ele>2220.8</ele>
        <time>2021-02-27T14:14:24Z</time>
      </trkpt>
      <trkpt lat="45.23926" lon="6.20622">
        <ele>2220.8</ele>
        <time>2021-02-27T14:14:26Z</time>
      </trkpt>
      <trkpt lat="45.23926" lon="6.20624">
        <ele>2220.8</ele>
        <time>2021-02-27T14:14:28Z</time>
      </trkpt>
      <trkpt lat="45.23927" lon="6.20626">
        <ele>2220.8</ele>
        <time>2021-02-27T14:14:30Z</time>
      </trkpt>
      <trkpt lat="45.23928" lon="6.20628">
        <ele>2222.6</ele>
        <time>2021-02-27T14:14:31Z</time>
      </trkpt>
      <trkpt lat="45.23929" lon="6.20631">
        <ele>2222.6</ele>
        <time>2021-02-27T14:14:32Z</time>
      </trkpt>
      <trkpt lat="45.23929" lon="6.20633">
        <ele>2222.6</ele>
        <time>2021-02-27T14:14:34Z</time>
      </trkpt>
      <trkpt lat="45.2393" lon="6.20635">
        <ele>2222.6</ele>
        <time>2021-02-27T14:14:36Z</time>
      </trkpt>
      <trkpt lat="45.2393" lon="6.20637">
        <ele>2222.6</ele>
        <time>2021-02-27T14:14:38Z</time>
      </trkpt>
      <trkpt lat="45.2393" lon="6.20639">
        <ele>2222.6</ele>
        <time>2021-02-27T14:14:40Z</time>
      </trkpt>
      <trkpt lat="45.23931" lon="6.20641">
        <ele>2221.8</ele>
        <time>2021-02-27T14:14:41Z</time>
      </trkpt>
      <trkpt lat="45.23932" lon="6.20646">
        <ele>2221.8</ele>
        <time>2021-02-27T14:14:42Z</time>
      </trkpt>
      <trkpt lat="45.23933" lon="6.20647">
        <ele>2221.8</ele>
        <time>2021-02-27T14:14:44Z</time>
      </trkpt>
      <trkpt lat="45.23934" lon="6.20649">
        <ele>2221.8</ele>
        <time>2021-02-27T14:14:46Z</time>
      </trkpt>
      <trkpt lat="45.23934" lon="6.20651">
        <ele>2221.8</ele>
        <time>2021-02-27T14:14:48Z</time>
      </trkpt>
      <trkpt lat="45.23935" lon="6.20653">
        <ele>2221.8</ele>
        <time>2021-02-27T14:14:50Z</time>
      </trkpt>
      <trkpt lat="45.23936" lon="6.20655">
        <ele>2223.4</ele>
        <time>2021-02-27T14:14:51Z</time>
      </trkpt>
      <trkpt lat="45.23937" lon="6.20659">
        <ele>2223.4</ele>
        <time>2021-02-27T14:14:53Z</time>
      </trkpt>
      <trkpt lat="45.23938" lon="6.20661">
        <ele>2223.4</ele>
        <time>2021-02-27T14:14:55Z</time>
      </trkpt>
      <trkpt lat="45.23938" lon="6.20663">
        <ele>2223.4</ele>
        <time>2021-02-27T14:14:58Z</time>
      </trkpt>
      <trkpt lat="45.23939" lon="6.20664">
        <ele>2223.4</ele>
        <time>2021-02-27T14:15:00Z</time>
      </trkpt>
      <trkpt lat="45.23939" lon="6.20666">
        <ele>2224.4</ele>
        <time>2021-02-27T14:15:01Z</time>
      </trkpt>
      <trkpt lat="45.2394" lon="6.20669">
        <ele>2224.4</ele>
        <time>2021-02-27T14:15:02Z</time>
      </trkpt>
      <trkpt lat="45.23941" lon="6.20672">
        <ele>2224.4</ele>
        <time>2021-02-27T14:15:04Z</time>
      </trkpt>
      <trkpt lat="45.23941" lon="6.20676">
        <ele>2224.4</ele>
        <time>2021-02-27T14:15:07Z</time>
      </trkpt>
      <trkpt lat="45.23943" lon="6.20678">
        <ele>2224.4</ele>
        <time>2021-02-27T14:15:09Z</time>
      </trkpt>
      <trkpt lat="45.23943" lon="6.2068">
        <ele>2226.2</ele>
        <time>2021-02-27T14:15:11Z</time>
      </trkpt>
      <trkpt lat="45.23945" lon="6.20684">
        <ele>2226.2</ele>
        <time>2021-02-27T14:15:14Z</time>
      </trkpt>
      <trkpt lat="45.23946" lon="6.20687">
        <ele>2226.2</ele>
        <time>2021-02-27T14:15:17Z</time>
      </trkpt>
      <trkpt lat="45.23947" lon="6.20689">
        <ele>2226.2</ele>
        <time>2021-02-27T14:15:19Z</time>
      </trkpt>
      <trkpt lat="45.23948" lon="6.20691">
        <ele>2226.6</ele>
        <time>2021-02-27T14:15:21Z</time>
      </trkpt>
      <trkpt lat="45.2395" lon="6.20695">
        <ele>2226.6</ele>
        <time>2021-02-27T14:15:23Z</time>
      </trkpt>
      <trkpt lat="45.23951" lon="6.20696">
        <ele>2226.6</ele>
        <time>2021-02-27T14:15:25Z</time>
      </trkpt>
      <trkpt lat="45.23951" lon="6.20698">
        <ele>2226.6</ele>
        <time>2021-02-27T14:15:28Z</time>
      </trkpt>
      <trkpt lat="45.23952" lon="6.20699">
        <ele>2226.6</ele>
        <time>2021-02-27T14:15:30Z</time>
      </trkpt>
      <trkpt lat="45.23953" lon="6.20701">
        <ele>2228.6</ele>
        <time>2021-02-27T14:15:31Z</time>
      </trkpt>
      <trkpt lat="45.23955" lon="6.20706">
        <ele>2228.6</ele>
        <time>2021-02-27T14:15:33Z</time>
      </trkpt>
      <trkpt lat="45.23955" lon="6.20708">
        <ele>2228.6</ele>
        <time>2021-02-27T14:15:36Z</time>
      </trkpt>
      <trkpt lat="45.23956" lon="6.20709">
        <ele>2228.6</ele>
        <time>2021-02-27T14:15:38Z</time>
      </trkpt>
      <trkpt lat="45.23957" lon="6.20711">
        <ele>2228.6</ele>
        <time>2021-02-27T14:15:40Z</time>
      </trkpt>
      <trkpt lat="45.23957" lon="6.20713">
        <ele>2229.6</ele>
        <time>2021-02-27T14:15:41Z</time>
      </trkpt>
      <trkpt lat="45.23958" lon="6.20716">
        <ele>2229.6</ele>
        <time>2021-02-27T14:15:43Z</time>
      </trkpt>
      <trkpt lat="45.23959" lon="6.2072">
        <ele>2229.6</ele>
        <time>2021-02-27T14:15:46Z</time>
      </trkpt>
      <trkpt lat="45.23961" lon="6.20723">
        <ele>2229.6</ele>
        <time>2021-02-27T14:15:49Z</time>
      </trkpt>
      <trkpt lat="45.23961" lon="6.20723">
        <ele>2231.4</ele>
        <time>2021-02-27T14:15:51Z</time>
      </trkpt>
      <trkpt lat="45.23962" lon="6.20726">
        <ele>2231.4</ele>
        <time>2021-02-27T14:15:52Z</time>
      </trkpt>
      <trkpt lat="45.23963" lon="6.20729">
        <ele>2231.4</ele>
        <time>2021-02-27T14:15:54Z</time>
      </trkpt>
      <trkpt lat="45.23964" lon="6.20732">
        <ele>2231.4</ele>
        <time>2021-02-27T14:15:57Z</time>
      </trkpt>
      <trkpt lat="45.23965" lon="6.20734">
        <ele>2231.4</ele>
        <time>2021-02-27T14:15:59Z</time>
      </trkpt>
      <trkpt lat="45.23965" lon="6.20734">
        <ele>2233</ele>
        <time>2021-02-27T14:16:01Z</time>
      </trkpt>
      <trkpt lat="45.23965" lon="6.20737">
        <ele>2233</ele>
        <time>2021-02-27T14:16:02Z</time>
      </trkpt>
      <trkpt lat="45.23967" lon="6.20739">
        <ele>2233</ele>
        <time>2021-02-27T14:16:05Z</time>
      </trkpt>
      <trkpt lat="45.23967" lon="6.20742">
        <ele>2233</ele>
        <time>2021-02-27T14:16:08Z</time>
      </trkpt>
      <trkpt lat="45.23969" lon="6.20745">
        <ele>2234.4</ele>
        <time>2021-02-27T14:16:11Z</time>
      </trkpt>
      <trkpt lat="45.2397" lon="6.20749">
        <ele>2234.4</ele>
        <time>2021-02-27T14:16:14Z</time>
      </trkpt>
      <trkpt lat="45.23971" lon="6.2075">
        <ele>2234.4</ele>
        <time>2021-02-27T14:16:17Z</time>
      </trkpt>
      <trkpt lat="45.23971" lon="6.20751">
        <ele>2234.4</ele>
        <time>2021-02-27T14:16:20Z</time>
      </trkpt>
      <trkpt lat="45.23972" lon="6.20753">
        <ele>2235.4</ele>
        <time>2021-02-27T14:16:21Z</time>
      </trkpt>
      <trkpt lat="45.23973" lon="6.20755">
        <ele>2235.4</ele>
        <time>2021-02-27T14:16:23Z</time>
      </trkpt>
      <trkpt lat="45.23974" lon="6.20758">
        <ele>2235.4</ele>
        <time>2021-02-27T14:16:26Z</time>
      </trkpt>
      <trkpt lat="45.23975" lon="6.20761">
        <ele>2235.4</ele>
        <time>2021-02-27T14:16:29Z</time>
      </trkpt>
      <trkpt lat="45.23975" lon="6.20761">
        <ele>2237.2</ele>
        <time>2021-02-27T14:16:31Z</time>
      </trkpt>
      <trkpt lat="45.23977" lon="6.20763">
        <ele>2237.2</ele>
        <time>2021-02-27T14:16:32Z</time>
      </trkpt>
      <trkpt lat="45.23977" lon="6.20766">
        <ele>2237.2</ele>
        <time>2021-02-27T14:16:35Z</time>
      </trkpt>
      <trkpt lat="45.23978" lon="6.20769">
        <ele>2237.2</ele>
        <time>2021-02-27T14:16:38Z</time>
      </trkpt>
      <trkpt lat="45.23979" lon="6.20771">
        <ele>2237.8</ele>
        <time>2021-02-27T14:16:41Z</time>
      </trkpt>
      <trkpt lat="45.23981" lon="6.20775">
        <ele>2237.8</ele>
        <time>2021-02-27T14:16:44Z</time>
      </trkpt>
      <trkpt lat="45.23982" lon="6.20776">
        <ele>2237.8</ele>
        <time>2021-02-27T14:16:47Z</time>
      </trkpt>
      <trkpt lat="45.23982" lon="6.20777">
        <ele>2237.8</ele>
        <time>2021-02-27T14:16:50Z</time>
      </trkpt>
      <trkpt lat="45.23983" lon="6.20779">
        <ele>2239.8</ele>
        <time>2021-02-27T14:16:51Z</time>
      </trkpt>
      <trkpt lat="45.23984" lon="6.20781">
        <ele>2239.8</ele>
        <time>2021-02-27T14:16:53Z</time>
      </trkpt>
      <trkpt lat="45.23985" lon="6.20783">
        <ele>2239.8</ele>
        <time>2021-02-27T14:16:56Z</time>
      </trkpt>
      <trkpt lat="45.23987" lon="6.20786">
        <ele>2239.8</ele>
        <time>2021-02-27T14:16:59Z</time>
      </trkpt>
      <trkpt lat="45.23987" lon="6.20786">
        <ele>2240.6</ele>
        <time>2021-02-27T14:17:01Z</time>
      </trkpt>
      <trkpt lat="45.23988" lon="6.20788">
        <ele>2240.6</ele>
        <time>2021-02-27T14:17:02Z</time>
      </trkpt>
      <trkpt lat="45.23989" lon="6.2079">
        <ele>2240.6</ele>
        <time>2021-02-27T14:17:05Z</time>
      </trkpt>
      <trkpt lat="45.23991" lon="6.20792">
        <ele>2240.6</ele>
        <time>2021-02-27T14:17:08Z</time>
      </trkpt>
      <trkpt lat="45.23992" lon="6.20795">
        <ele>2242.2</ele>
        <time>2021-02-27T14:17:11Z</time>
      </trkpt>
      <trkpt lat="45.23994" lon="6.20797">
        <ele>2242.2</ele>
        <time>2021-02-27T14:17:13Z</time>
      </trkpt>
      <trkpt lat="45.23995" lon="6.20799">
        <ele>2242.2</ele>
        <time>2021-02-27T14:17:16Z</time>
      </trkpt>
      <trkpt lat="45.23996" lon="6.20802">
        <ele>2242.2</ele>
        <time>2021-02-27T14:17:19Z</time>
      </trkpt>
      <trkpt lat="45.23996" lon="6.20802">
        <ele>2243.4</ele>
        <time>2021-02-27T14:17:21Z</time>
      </trkpt>
      <trkpt lat="45.23997" lon="6.20804">
        <ele>2243.4</ele>
        <time>2021-02-27T14:17:22Z</time>
      </trkpt>
      <trkpt lat="45.23998" lon="6.20807">
        <ele>2243.4</ele>
        <time>2021-02-27T14:17:25Z</time>
      </trkpt>
      <trkpt lat="45.24" lon="6.20809">
        <ele>2243.4</ele>
        <time>2021-02-27T14:17:28Z</time>
      </trkpt>
      <trkpt lat="45.24" lon="6.20812">
        <ele>2244</ele>
        <time>2021-02-27T14:17:31Z</time>
      </trkpt>
      <trkpt lat="45.24001" lon="6.20815">
        <ele>2244</ele>
        <time>2021-02-27T14:17:34Z</time>
      </trkpt>
      <trkpt lat="45.24003" lon="6.20817">
        <ele>2244</ele>
        <time>2021-02-27T14:17:36Z</time>
      </trkpt>
      <trkpt lat="45.24004" lon="6.20819">
        <ele>2244</ele>
        <time>2021-02-27T14:17:39Z</time>
      </trkpt>
      <trkpt lat="45.24004" lon="6.20822">
        <ele>2245</ele>
        <time>2021-02-27T14:17:41Z</time>
      </trkpt>
      <trkpt lat="45.24005" lon="6.20824">
        <ele>2245</ele>
        <time>2021-02-27T14:17:43Z</time>
      </trkpt>
      <trkpt lat="45.24007" lon="6.20826">
        <ele>2245</ele>
        <time>2021-02-27T14:17:45Z</time>
      </trkpt>
      <trkpt lat="45.24008" lon="6.20829">
        <ele>2245</ele>
        <time>2021-02-27T14:17:48Z</time>
      </trkpt>
      <trkpt lat="45.2401" lon="6.20832">
        <ele>2247.4</ele>
        <time>2021-02-27T14:17:51Z</time>
      </trkpt>
      <trkpt lat="45.24011" lon="6.20835">
        <ele>2247.4</ele>
        <time>2021-02-27T14:17:53Z</time>
      </trkpt>
      <trkpt lat="45.24013" lon="6.20838">
        <ele>2247.4</ele>
        <time>2021-02-27T14:17:56Z</time>
      </trkpt>
      <trkpt lat="45.24013" lon="6.20841">
        <ele>2247.4</ele>
        <time>2021-02-27T14:17:59Z</time>
      </trkpt>
      <trkpt lat="45.24014" lon="6.20844">
        <ele>2248.2</ele>
        <time>2021-02-27T14:18:01Z</time>
      </trkpt>
      <trkpt lat="45.24017" lon="6.20848">
        <ele>2248.2</ele>
        <time>2021-02-27T14:18:04Z</time>
      </trkpt>
      <trkpt lat="45.24018" lon="6.2085">
        <ele>2248.2</ele>
        <time>2021-02-27T14:18:07Z</time>
      </trkpt>
      <trkpt lat="45.24018" lon="6.20851">
        <ele>2248.2</ele>
        <time>2021-02-27T14:18:10Z</time>
      </trkpt>
      <trkpt lat="45.24019" lon="6.20853">
        <ele>2249.4</ele>
        <time>2021-02-27T14:18:11Z</time>
      </trkpt>
      <trkpt lat="45.24019" lon="6.20857">
        <ele>2249.4</ele>
        <time>2021-02-27T14:18:13Z</time>
      </trkpt>
      <trkpt lat="45.2402" lon="6.20859">
        <ele>2249.4</ele>
        <time>2021-02-27T14:18:15Z</time>
      </trkpt>
      <trkpt lat="45.24021" lon="6.20863">
        <ele>2249.4</ele>
        <time>2021-02-27T14:18:18Z</time>
      </trkpt>
      <trkpt lat="45.24021" lon="6.20866">
        <ele>2249.8</ele>
        <time>2021-02-27T14:18:21Z</time>
      </trkpt>
      <trkpt lat="45.24023" lon="6.20868">
        <ele>2249.8</ele>
        <time>2021-02-27T14:18:23Z</time>
      </trkpt>
      <trkpt lat="45.24024" lon="6.20871">
        <ele>2249.8</ele>
        <time>2021-02-27T14:18:26Z</time>
      </trkpt>
      <trkpt lat="45.24025" lon="6.20874">
        <ele>2249.8</ele>
        <time>2021-02-27T14:18:29Z</time>
      </trkpt>
      <trkpt lat="45.24026" lon="6.20876">
        <ele>2251.4</ele>
        <time>2021-02-27T14:18:31Z</time>
      </trkpt>
      <trkpt lat="45.24027" lon="6.2088">
        <ele>2251.4</ele>
        <time>2021-02-27T14:18:34Z</time>
      </trkpt>
      <trkpt lat="45.24029" lon="6.20882">
        <ele>2251.4</ele>
        <time>2021-02-27T14:18:36Z</time>
      </trkpt>
      <trkpt lat="45.2403" lon="6.20884">
        <ele>2251.4</ele>
        <time>2021-02-27T14:18:38Z</time>
      </trkpt>
      <trkpt lat="45.24032" lon="6.20887">
        <ele>2252.8</ele>
        <time>2021-02-27T14:18:41Z</time>
      </trkpt>
      <trkpt lat="45.24033" lon="6.20889">
        <ele>2252.8</ele>
        <time>2021-02-27T14:18:43Z</time>
      </trkpt>
      <trkpt lat="45.24034" lon="6.20892">
        <ele>2252.8</ele>
        <time>2021-02-27T14:18:46Z</time>
      </trkpt>
      <trkpt lat="45.24036" lon="6.20895">
        <ele>2252.8</ele>
        <time>2021-02-27T14:18:49Z</time>
      </trkpt>
      <trkpt lat="45.24036" lon="6.20895">
        <ele>2253.8</ele>
        <time>2021-02-27T14:18:51Z</time>
      </trkpt>
      <trkpt lat="45.24037" lon="6.20898">
        <ele>2253.8</ele>
        <time>2021-02-27T14:18:52Z</time>
      </trkpt>
      <trkpt lat="45.24038" lon="6.209">
        <ele>2253.8</ele>
        <time>2021-02-27T14:18:55Z</time>
      </trkpt>
      <trkpt lat="45.2404" lon="6.20902">
        <ele>2253.8</ele>
        <time>2021-02-27T14:18:57Z</time>
      </trkpt>
      <trkpt lat="45.24042" lon="6.20903">
        <ele>2253.8</ele>
        <time>2021-02-27T14:18:59Z</time>
      </trkpt>
      <trkpt lat="45.24043" lon="6.20906">
        <ele>2256</ele>
        <time>2021-02-27T14:19:01Z</time>
      </trkpt>
      <trkpt lat="45.24045" lon="6.20909">
        <ele>2256</ele>
        <time>2021-02-27T14:19:04Z</time>
      </trkpt>
      <trkpt lat="45.24046" lon="6.20913">
        <ele>2256</ele>
        <time>2021-02-27T14:19:07Z</time>
      </trkpt>
      <trkpt lat="45.24048" lon="6.20914">
        <ele>2256</ele>
        <time>2021-02-27T14:19:09Z</time>
      </trkpt>
      <trkpt lat="45.24048" lon="6.20914">
        <ele>2257.2</ele>
        <time>2021-02-27T14:19:11Z</time>
      </trkpt>
      <trkpt lat="45.24049" lon="6.20917">
        <ele>2257.2</ele>
        <time>2021-02-27T14:19:12Z</time>
      </trkpt>
      <trkpt lat="45.24051" lon="6.2092">
        <ele>2257.2</ele>
        <time>2021-02-27T14:19:14Z</time>
      </trkpt>
      <trkpt lat="45.24052" lon="6.20922">
        <ele>2257.2</ele>
        <time>2021-02-27T14:19:17Z</time>
      </trkpt>
      <trkpt lat="45.24053" lon="6.20925">
        <ele>2257.2</ele>
        <time>2021-02-27T14:19:19Z</time>
      </trkpt>
      <trkpt lat="45.24054" lon="6.20927">
        <ele>2258.8</ele>
        <time>2021-02-27T14:19:21Z</time>
      </trkpt>
      <trkpt lat="45.24056" lon="6.20929">
        <ele>2258.8</ele>
        <time>2021-02-27T14:19:23Z</time>
      </trkpt>
      <trkpt lat="45.24057" lon="6.20932">
        <ele>2258.8</ele>
        <time>2021-02-27T14:19:26Z</time>
      </trkpt>
      <trkpt lat="45.24059" lon="6.20934">
        <ele>2258.8</ele>
        <time>2021-02-27T14:19:28Z</time>
      </trkpt>
      <trkpt lat="45.24061" lon="6.20936">
        <ele>2259.8</ele>
        <time>2021-02-27T14:19:31Z</time>
      </trkpt>
      <trkpt lat="45.24062" lon="6.20938">
        <ele>2259.8</ele>
        <time>2021-02-27T14:19:33Z</time>
      </trkpt>
      <trkpt lat="45.24064" lon="6.20941">
        <ele>2259.8</ele>
        <time>2021-02-27T14:19:36Z</time>
      </trkpt>
      <trkpt lat="45.24065" lon="6.20944">
        <ele>2259.8</ele>
        <time>2021-02-27T14:19:39Z</time>
      </trkpt>
      <trkpt lat="45.24066" lon="6.20946">
        <ele>2260.6</ele>
        <time>2021-02-27T14:19:41Z</time>
      </trkpt>
      <trkpt lat="45.24067" lon="6.20949">
        <ele>2260.6</ele>
        <time>2021-02-27T14:19:44Z</time>
      </trkpt>
      <trkpt lat="45.24069" lon="6.20951">
        <ele>2260.6</ele>
        <time>2021-02-27T14:19:46Z</time>
      </trkpt>
      <trkpt lat="45.24071" lon="6.20953">
        <ele>2260.6</ele>
        <time>2021-02-27T14:19:49Z</time>
      </trkpt>
      <trkpt lat="45.24071" lon="6.20953">
        <ele>2262.8</ele>
        <time>2021-02-27T14:19:51Z</time>
      </trkpt>
      <trkpt lat="45.24073" lon="6.20955">
        <ele>2262.8</ele>
        <time>2021-02-27T14:19:52Z</time>
      </trkpt>
      <trkpt lat="45.24075" lon="6.20957">
        <ele>2262.8</ele>
        <time>2021-02-27T14:19:55Z</time>
      </trkpt>
      <trkpt lat="45.24076" lon="6.20959">
        <ele>2262.8</ele>
        <time>2021-02-27T14:19:57Z</time>
      </trkpt>
      <trkpt lat="45.24078" lon="6.2096">
        <ele>2262.8</ele>
        <time>2021-02-27T14:19:59Z</time>
      </trkpt>
      <trkpt lat="45.24078" lon="6.2096">
        <ele>2264.8</ele>
        <time>2021-02-27T14:20:01Z</time>
      </trkpt>
      <trkpt lat="45.24079" lon="6.20963">
        <ele>2264.8</ele>
        <time>2021-02-27T14:20:02Z</time>
      </trkpt>
      <trkpt lat="45.24081" lon="6.20965">
        <ele>2264.8</ele>
        <time>2021-02-27T14:20:04Z</time>
      </trkpt>
      <trkpt lat="45.24082" lon="6.20966">
        <ele>2264.8</ele>
        <time>2021-02-27T14:20:06Z</time>
      </trkpt>
      <trkpt lat="45.24084" lon="6.20969">
        <ele>2264.8</ele>
        <time>2021-02-27T14:20:09Z</time>
      </trkpt>
      <trkpt lat="45.24084" lon="6.20969">
        <ele>2266.4</ele>
        <time>2021-02-27T14:20:11Z</time>
      </trkpt>
      <trkpt lat="45.24086" lon="6.20973">
        <ele>2266.4</ele>
        <time>2021-02-27T14:20:12Z</time>
      </trkpt>
      <trkpt lat="45.24087" lon="6.20975">
        <ele>2266.4</ele>
        <time>2021-02-27T14:20:15Z</time>
      </trkpt>
      <trkpt lat="45.24089" lon="6.20977">
        <ele>2266.4</ele>
        <time>2021-02-27T14:20:17Z</time>
      </trkpt>
      <trkpt lat="45.2409" lon="6.20979">
        <ele>2266.4</ele>
        <time>2021-02-27T14:20:19Z</time>
      </trkpt>
      <trkpt lat="45.2409" lon="6.20979">
        <ele>2268</ele>
        <time>2021-02-27T14:20:21Z</time>
      </trkpt>
      <trkpt lat="45.24092" lon="6.20981">
        <ele>2268</ele>
        <time>2021-02-27T14:20:22Z</time>
      </trkpt>
      <trkpt lat="45.24094" lon="6.20983">
        <ele>2268</ele>
        <time>2021-02-27T14:20:24Z</time>
      </trkpt>
      <trkpt lat="45.24095" lon="6.20985">
        <ele>2268</ele>
        <time>2021-02-27T14:20:26Z</time>
      </trkpt>
      <trkpt lat="45.24097" lon="6.20987">
        <ele>2268</ele>
        <time>2021-02-27T14:20:28Z</time>
      </trkpt>
      <trkpt lat="45.24098" lon="6.2099">
        <ele>2269.4</ele>
        <time>2021-02-27T14:20:31Z</time>
      </trkpt>
      <trkpt lat="45.24101" lon="6.20993">
        <ele>2269.4</ele>
        <time>2021-02-27T14:20:33Z</time>
      </trkpt>
      <trkpt lat="45.24102" lon="6.20994">
        <ele>2269.4</ele>
        <time>2021-02-27T14:20:35Z</time>
      </trkpt>
      <trkpt lat="45.24103" lon="6.20996">
        <ele>2269.4</ele>
        <time>2021-02-27T14:20:37Z</time>
      </trkpt>
      <trkpt lat="45.24103" lon="6.20997">
        <ele>2269.4</ele>
        <time>2021-02-27T14:20:40Z</time>
      </trkpt>
      <trkpt lat="45.24104" lon="6.20999">
        <ele>2270.6</ele>
        <time>2021-02-27T14:20:41Z</time>
      </trkpt>
      <trkpt lat="45.24106" lon="6.21002">
        <ele>2270.6</ele>
        <time>2021-02-27T14:20:43Z</time>
      </trkpt>
      <trkpt lat="45.24107" lon="6.21003">
        <ele>2270.6</ele>
        <time>2021-02-27T14:20:45Z</time>
      </trkpt>
      <trkpt lat="45.24108" lon="6.21004">
        <ele>2270.6</ele>
        <time>2021-02-27T14:20:47Z</time>
      </trkpt>
      <trkpt lat="45.24108" lon="6.21005">
        <ele>2270.6</ele>
        <time>2021-02-27T14:20:50Z</time>
      </trkpt>
      <trkpt lat="45.24109" lon="6.21006">
        <ele>2272.2</ele>
        <time>2021-02-27T14:20:51Z</time>
      </trkpt>
      <trkpt lat="45.24111" lon="6.2101">
        <ele>2272.2</ele>
        <time>2021-02-27T14:20:53Z</time>
      </trkpt>
      <trkpt lat="45.24112" lon="6.21012">
        <ele>2272.2</ele>
        <time>2021-02-27T14:20:56Z</time>
      </trkpt>
      <trkpt lat="45.24114" lon="6.21015">
        <ele>2272.2</ele>
        <time>2021-02-27T14:20:59Z</time>
      </trkpt>
      <trkpt lat="45.24114" lon="6.21015">
        <ele>2274</ele>
        <time>2021-02-27T14:21:01Z</time>
      </trkpt>
      <trkpt lat="45.24116" lon="6.21017">
        <ele>2274</ele>
        <time>2021-02-27T14:21:02Z</time>
      </trkpt>
      <trkpt lat="45.24117" lon="6.2102">
        <ele>2274</ele>
        <time>2021-02-27T14:21:05Z</time>
      </trkpt>
      <trkpt lat="45.24118" lon="6.21023">
        <ele>2274</ele>
        <time>2021-02-27T14:21:08Z</time>
      </trkpt>
      <trkpt lat="45.2412" lon="6.21026">
        <ele>2275.4</ele>
        <time>2021-02-27T14:21:11Z</time>
      </trkpt>
      <trkpt lat="45.24123" lon="6.2103">
        <ele>2275.4</ele>
        <time>2021-02-27T14:21:14Z</time>
      </trkpt>
      <trkpt lat="45.24124" lon="6.21031">
        <ele>2275.4</ele>
        <time>2021-02-27T14:21:17Z</time>
      </trkpt>
      <trkpt lat="45.24125" lon="6.21033">
        <ele>2275.4</ele>
        <time>2021-02-27T14:21:20Z</time>
      </trkpt>
      <trkpt lat="45.24127" lon="6.21034">
        <ele>2276.4</ele>
        <time>2021-02-27T14:21:21Z</time>
      </trkpt>
      <trkpt lat="45.24128" lon="6.21036">
        <ele>2276.4</ele>
        <time>2021-02-27T14:21:23Z</time>
      </trkpt>
      <trkpt lat="45.2413" lon="6.21038">
        <ele>2276.4</ele>
        <time>2021-02-27T14:21:26Z</time>
      </trkpt>
      <trkpt lat="45.24132" lon="6.21041">
        <ele>2276.4</ele>
        <time>2021-02-27T14:21:29Z</time>
      </trkpt>
      <trkpt lat="45.24132" lon="6.21041">
        <ele>2278.4</ele>
        <time>2021-02-27T14:21:31Z</time>
      </trkpt>
      <trkpt lat="45.24135" lon="6.21045">
        <ele>2278.4</ele>
        <time>2021-02-27T14:21:32Z</time>
      </trkpt>
      <trkpt lat="45.24136" lon="6.21046">
        <ele>2278.4</ele>
        <time>2021-02-27T14:21:35Z</time>
      </trkpt>
      <trkpt lat="45.24137" lon="6.21048">
        <ele>2278.4</ele>
        <time>2021-02-27T14:21:38Z</time>
      </trkpt>
      <trkpt lat="45.24138" lon="6.21049">
        <ele>2278.4</ele>
        <time>2021-02-27T14:21:40Z</time>
      </trkpt>
      <trkpt lat="45.24139" lon="6.2105">
        <ele>2279.6</ele>
        <time>2021-02-27T14:21:41Z</time>
      </trkpt>
      <trkpt lat="45.24141" lon="6.21055">
        <ele>2279.6</ele>
        <time>2021-02-27T14:21:43Z</time>
      </trkpt>
      <trkpt lat="45.24142" lon="6.21056">
        <ele>2279.6</ele>
        <time>2021-02-27T14:21:46Z</time>
      </trkpt>
      <trkpt lat="45.24143" lon="6.21058">
        <ele>2279.6</ele>
        <time>2021-02-27T14:21:48Z</time>
      </trkpt>
      <trkpt lat="45.24144" lon="6.21059">
        <ele>2279.6</ele>
        <time>2021-02-27T14:21:50Z</time>
      </trkpt>
      <trkpt lat="45.24145" lon="6.2106">
        <ele>2281.2</ele>
        <time>2021-02-27T14:21:51Z</time>
      </trkpt>
      <trkpt lat="45.24148" lon="6.21064">
        <ele>2281.2</ele>
        <time>2021-02-27T14:21:53Z</time>
      </trkpt>
      <trkpt lat="45.24149" lon="6.21065">
        <ele>2281.2</ele>
        <time>2021-02-27T14:21:55Z</time>
      </trkpt>
      <trkpt lat="45.2415" lon="6.21067">
        <ele>2281.2</ele>
        <time>2021-02-27T14:21:57Z</time>
      </trkpt>
      <trkpt lat="45.24151" lon="6.21068">
        <ele>2281.2</ele>
        <time>2021-02-27T14:22:00Z</time>
      </trkpt>
      <trkpt lat="45.24152" lon="6.21069">
        <ele>2282.8</ele>
        <time>2021-02-27T14:22:01Z</time>
      </trkpt>
      <trkpt lat="45.24154" lon="6.21073">
        <ele>2282.8</ele>
        <time>2021-02-27T14:22:02Z</time>
      </trkpt>
      <trkpt lat="45.24155" lon="6.21074">
        <ele>2282.8</ele>
        <time>2021-02-27T14:22:05Z</time>
      </trkpt>
      <trkpt lat="45.24156" lon="6.21076">
        <ele>2282.8</ele>
        <time>2021-02-27T14:22:07Z</time>
      </trkpt>
      <trkpt lat="45.24157" lon="6.21077">
        <ele>2282.8</ele>
        <time>2021-02-27T14:22:10Z</time>
      </trkpt>
      <trkpt lat="45.24157" lon="6.21079">
        <ele>2284.2</ele>
        <time>2021-02-27T14:22:11Z</time>
      </trkpt>
      <trkpt lat="45.24159" lon="6.21081">
        <ele>2284.2</ele>
        <time>2021-02-27T14:22:13Z</time>
      </trkpt>
      <trkpt lat="45.24161" lon="6.21083">
        <ele>2284.2</ele>
        <time>2021-02-27T14:22:16Z</time>
      </trkpt>
      <trkpt lat="45.24163" lon="6.21086">
        <ele>2284.2</ele>
        <time>2021-02-27T14:22:19Z</time>
      </trkpt>
      <trkpt lat="45.24165" lon="6.21087">
        <ele>2285.6</ele>
        <time>2021-02-27T14:22:21Z</time>
      </trkpt>
      <trkpt lat="45.24167" lon="6.21088">
        <ele>2285.6</ele>
        <time>2021-02-27T14:22:24Z</time>
      </trkpt>
      <trkpt lat="45.24168" lon="6.2109">
        <ele>2285.6</ele>
        <time>2021-02-27T14:22:26Z</time>
      </trkpt>
      <trkpt lat="45.24171" lon="6.21091">
        <ele>2285.6</ele>
        <time>2021-02-27T14:22:28Z</time>
      </trkpt>
      <trkpt lat="45.24173" lon="6.21093">
        <ele>2287.2</ele>
        <time>2021-02-27T14:22:31Z</time>
      </trkpt>
      <trkpt lat="45.24174" lon="6.21096">
        <ele>2287.2</ele>
        <time>2021-02-27T14:22:36Z</time>
      </trkpt>
      <trkpt lat="45.24172" lon="6.21097">
        <ele>2287.2</ele>
        <time>2021-02-27T14:22:39Z</time>
      </trkpt>
      <trkpt lat="45.2417" lon="6.21097">
        <ele>2289.8</ele>
        <time>2021-02-27T14:22:41Z</time>
      </trkpt>
      <trkpt lat="45.24168" lon="6.21098">
        <ele>2289.8</ele>
        <time>2021-02-27T14:22:43Z</time>
      </trkpt>
      <trkpt lat="45.24166" lon="6.21099">
        <ele>2289.8</ele>
        <time>2021-02-27T14:22:45Z</time>
      </trkpt>
      <trkpt lat="45.24164" lon="6.211">
        <ele>2289.8</ele>
        <time>2021-02-27T14:22:47Z</time>
      </trkpt>
      <trkpt lat="45.24162" lon="6.21101">
        <ele>2289.8</ele>
        <time>2021-02-27T14:22:49Z</time>
      </trkpt>
      <trkpt lat="45.24159" lon="6.21101">
        <ele>2291.4</ele>
        <time>2021-02-27T14:22:51Z</time>
      </trkpt>
      <trkpt lat="45.24154" lon="6.21103">
        <ele>2291.4</ele>
        <time>2021-02-27T14:22:53Z</time>
      </trkpt>
      <trkpt lat="45.24153" lon="6.21103">
        <ele>2291.4</ele>
        <time>2021-02-27T14:22:55Z</time>
      </trkpt>
      <trkpt lat="45.24151" lon="6.21104">
        <ele>2291.4</ele>
        <time>2021-02-27T14:22:58Z</time>
      </trkpt>
      <trkpt lat="45.2415" lon="6.21104">
        <ele>2291.4</ele>
        <time>2021-02-27T14:23:00Z</time>
      </trkpt>
      <trkpt lat="45.24149" lon="6.21104">
        <ele>2292.8</ele>
        <time>2021-02-27T14:23:01Z</time>
      </trkpt>
      <trkpt lat="45.24148" lon="6.21104">
        <ele>2292.8</ele>
        <time>2021-02-27T14:23:02Z</time>
      </trkpt>
      <trkpt lat="45.24145" lon="6.21104">
        <ele>2292.8</ele>
        <time>2021-02-27T14:23:06Z</time>
      </trkpt>
      <trkpt lat="45.24143" lon="6.21104">
        <ele>2292.8</ele>
        <time>2021-02-27T14:23:08Z</time>
      </trkpt>
      <trkpt lat="45.24141" lon="6.21105">
        <ele>2295.4</ele>
        <time>2021-02-27T14:23:11Z</time>
      </trkpt>
      <trkpt lat="45.24139" lon="6.21105">
        <ele>2295.4</ele>
        <time>2021-02-27T14:23:13Z</time>
      </trkpt>
      <trkpt lat="45.24137" lon="6.21104">
        <ele>2295.4</ele>
        <time>2021-02-27T14:23:16Z</time>
      </trkpt>
      <trkpt lat="45.24134" lon="6.21103">
        <ele>2295.4</ele>
        <time>2021-02-27T14:23:19Z</time>
      </trkpt>
      <trkpt lat="45.24134" lon="6.21103">
        <ele>2297.4</ele>
        <time>2021-02-27T14:23:21Z</time>
      </trkpt>
      <trkpt lat="45.24132" lon="6.21103">
        <ele>2297.4</ele>
        <time>2021-02-27T14:23:23Z</time>
      </trkpt>
      <trkpt lat="45.2413" lon="6.21102">
        <ele>2297.4</ele>
        <time>2021-02-27T14:23:26Z</time>
      </trkpt>
      <trkpt lat="45.24128" lon="6.21102">
        <ele>2297.4</ele>
        <time>2021-02-27T14:23:29Z</time>
      </trkpt>
      <trkpt lat="45.24128" lon="6.21102">
        <ele>2298.8</ele>
        <time>2021-02-27T14:23:31Z</time>
      </trkpt>
      <trkpt lat="45.24125" lon="6.21101">
        <ele>2298.8</ele>
        <time>2021-02-27T14:23:32Z</time>
      </trkpt>
      <trkpt lat="45.24123" lon="6.21101">
        <ele>2298.8</ele>
        <time>2021-02-27T14:23:34Z</time>
      </trkpt>
      <trkpt lat="45.24122" lon="6.21101">
        <ele>2298.8</ele>
        <time>2021-02-27T14:23:36Z</time>
      </trkpt>
      <trkpt lat="45.24121" lon="6.21101">
        <ele>2298.8</ele>
        <time>2021-02-27T14:23:40Z</time>
      </trkpt>
      <trkpt lat="45.2412" lon="6.21101">
        <ele>2299.8</ele>
        <time>2021-02-27T14:23:41Z</time>
      </trkpt>
      <trkpt lat="45.24123" lon="6.21105">
        <ele>2299.8</ele>
        <time>2021-02-27T14:23:49Z</time>
      </trkpt>
      <trkpt lat="45.24124" lon="6.21106">
        <ele>2300.8</ele>
        <time>2021-02-27T14:23:51Z</time>
      </trkpt>
      <trkpt lat="45.24125" lon="6.21107">
        <ele>2300.8</ele>
        <time>2021-02-27T14:23:53Z</time>
      </trkpt>
      <trkpt lat="45.24127" lon="6.21108">
        <ele>2300.8</ele>
        <time>2021-02-27T14:23:56Z</time>
      </trkpt>
      <trkpt lat="45.24128" lon="6.21109">
        <ele>2300.8</ele>
        <time>2021-02-27T14:23:58Z</time>
      </trkpt>
      <trkpt lat="45.24129" lon="6.21111">
        <ele>2300.8</ele>
        <time>2021-02-27T14:24:00Z</time>
      </trkpt>
      <trkpt lat="45.2413" lon="6.21112">
        <ele>2301.8</ele>
        <time>2021-02-27T14:24:01Z</time>
      </trkpt>
      <trkpt lat="45.24133" lon="6.21114">
        <ele>2301.8</ele>
        <time>2021-02-27T14:24:02Z</time>
      </trkpt>
      <trkpt lat="45.24134" lon="6.21115">
        <ele>2301.8</ele>
        <time>2021-02-27T14:24:04Z</time>
      </trkpt>
      <trkpt lat="45.24135" lon="6.21116">
        <ele>2301.8</ele>
        <time>2021-02-27T14:24:06Z</time>
      </trkpt>
      <trkpt lat="45.24136" lon="6.21117">
        <ele>2301.8</ele>
        <time>2021-02-27T14:24:08Z</time>
      </trkpt>
      <trkpt lat="45.24137" lon="6.21118">
        <ele>2301.8</ele>
        <time>2021-02-27T14:24:10Z</time>
      </trkpt>
      <trkpt lat="45.24138" lon="6.2112">
        <ele>2304.8</ele>
        <time>2021-02-27T14:24:11Z</time>
      </trkpt>
      <trkpt lat="45.24141" lon="6.21123">
        <ele>2304.8</ele>
        <time>2021-02-27T14:24:13Z</time>
      </trkpt>
      <trkpt lat="45.24142" lon="6.21124">
        <ele>2304.8</ele>
        <time>2021-02-27T14:24:15Z</time>
      </trkpt>
      <trkpt lat="45.24143" lon="6.21125">
        <ele>2304.8</ele>
        <time>2021-02-27T14:24:18Z</time>
      </trkpt>
      <trkpt lat="45.24145" lon="6.21126">
        <ele>2304.8</ele>
        <time>2021-02-27T14:24:20Z</time>
      </trkpt>
      <trkpt lat="45.24146" lon="6.21127">
        <ele>2306</ele>
        <time>2021-02-27T14:24:21Z</time>
      </trkpt>
      <trkpt lat="45.24149" lon="6.21129">
        <ele>2306</ele>
        <time>2021-02-27T14:24:22Z</time>
      </trkpt>
      <trkpt lat="45.2415" lon="6.2113">
        <ele>2306</ele>
        <time>2021-02-27T14:24:25Z</time>
      </trkpt>
      <trkpt lat="45.24151" lon="6.21131">
        <ele>2306</ele>
        <time>2021-02-27T14:24:28Z</time>
      </trkpt>
      <trkpt lat="45.24152" lon="6.21132">
        <ele>2306</ele>
        <time>2021-02-27T14:24:30Z</time>
      </trkpt>
      <trkpt lat="45.24153" lon="6.21133">
        <ele>2307.4</ele>
        <time>2021-02-27T14:24:31Z</time>
      </trkpt>
      <trkpt lat="45.24157" lon="6.21135">
        <ele>2307.4</ele>
        <time>2021-02-27T14:24:32Z</time>
      </trkpt>
      <trkpt lat="45.24158" lon="6.21136">
        <ele>2307.4</ele>
        <time>2021-02-27T14:24:35Z</time>
      </trkpt>
      <trkpt lat="45.24159" lon="6.21137">
        <ele>2307.4</ele>
        <time>2021-02-27T14:24:37Z</time>
      </trkpt>
      <trkpt lat="45.2416" lon="6.21138">
        <ele>2307.4</ele>
        <time>2021-02-27T14:24:40Z</time>
      </trkpt>
      <trkpt lat="45.24162" lon="6.21139">
        <ele>2309</ele>
        <time>2021-02-27T14:24:41Z</time>
      </trkpt>
      <trkpt lat="45.24163" lon="6.2114">
        <ele>2309</ele>
        <time>2021-02-27T14:24:42Z</time>
      </trkpt>
      <trkpt lat="45.24165" lon="6.21142">
        <ele>2309</ele>
        <time>2021-02-27T14:24:45Z</time>
      </trkpt>
      <trkpt lat="45.24168" lon="6.21143">
        <ele>2309</ele>
        <time>2021-02-27T14:24:48Z</time>
      </trkpt>
      <trkpt lat="45.2417" lon="6.21145">
        <ele>2310.2</ele>
        <time>2021-02-27T14:24:51Z</time>
      </trkpt>
      <trkpt lat="45.24173" lon="6.21148">
        <ele>2310.2</ele>
        <time>2021-02-27T14:24:53Z</time>
      </trkpt>
      <trkpt lat="45.24174" lon="6.21149">
        <ele>2310.2</ele>
        <time>2021-02-27T14:24:55Z</time>
      </trkpt>
      <trkpt lat="45.24176" lon="6.2115">
        <ele>2310.2</ele>
        <time>2021-02-27T14:24:57Z</time>
      </trkpt>
      <trkpt lat="45.24177" lon="6.21151">
        <ele>2310.2</ele>
        <time>2021-02-27T14:25:00Z</time>
      </trkpt>
      <trkpt lat="45.24178" lon="6.21152">
        <ele>2312.8</ele>
        <time>2021-02-27T14:25:01Z</time>
      </trkpt>
      <trkpt lat="45.2418" lon="6.21153">
        <ele>2312.8</ele>
        <time>2021-02-27T14:25:02Z</time>
      </trkpt>
      <trkpt lat="45.24182" lon="6.21154">
        <ele>2312.8</ele>
        <time>2021-02-27T14:25:04Z</time>
      </trkpt>
      <trkpt lat="45.24183" lon="6.21155">
        <ele>2312.8</ele>
        <time>2021-02-27T14:25:07Z</time>
      </trkpt>
      <trkpt lat="45.24184" lon="6.21156">
        <ele>2312.8</ele>
        <time>2021-02-27T14:25:10Z</time>
      </trkpt>
      <trkpt lat="45.24185" lon="6.21158">
        <ele>2314.6</ele>
        <time>2021-02-27T14:25:11Z</time>
      </trkpt>
      <trkpt lat="45.24187" lon="6.21159">
        <ele>2314.6</ele>
        <time>2021-02-27T14:25:13Z</time>
      </trkpt>
      <trkpt lat="45.24189" lon="6.21161">
        <ele>2314.6</ele>
        <time>2021-02-27T14:25:15Z</time>
      </trkpt>
      <trkpt lat="45.2419" lon="6.21163">
        <ele>2314.6</ele>
        <time>2021-02-27T14:25:18Z</time>
      </trkpt>
      <trkpt lat="45.24193" lon="6.21164">
        <ele>2316.4</ele>
        <time>2021-02-27T14:25:21Z</time>
      </trkpt>
      <trkpt lat="45.24196" lon="6.21167">
        <ele>2316.4</ele>
        <time>2021-02-27T14:25:24Z</time>
      </trkpt>
      <trkpt lat="45.24197" lon="6.21169">
        <ele>2316.4</ele>
        <time>2021-02-27T14:25:26Z</time>
      </trkpt>
      <trkpt lat="45.242" lon="6.21171">
        <ele>2316.4</ele>
        <time>2021-02-27T14:25:29Z</time>
      </trkpt>
      <trkpt lat="45.24201" lon="6.21173">
        <ele>2318.6</ele>
        <time>2021-02-27T14:25:31Z</time>
      </trkpt>
      <trkpt lat="45.24203" lon="6.21177">
        <ele>2318.6</ele>
        <time>2021-02-27T14:25:34Z</time>
      </trkpt>
      <trkpt lat="45.24204" lon="6.21178">
        <ele>2318.6</ele>
        <time>2021-02-27T14:25:36Z</time>
      </trkpt>
      <trkpt lat="45.24205" lon="6.21179">
        <ele>2318.6</ele>
        <time>2021-02-27T14:25:38Z</time>
      </trkpt>
      <trkpt lat="45.24206" lon="6.2118">
        <ele>2318.6</ele>
        <time>2021-02-27T14:25:40Z</time>
      </trkpt>
      <trkpt lat="45.24207" lon="6.21182">
        <ele>2320.8</ele>
        <time>2021-02-27T14:25:41Z</time>
      </trkpt>
      <trkpt lat="45.24208" lon="6.21184">
        <ele>2320.8</ele>
        <time>2021-02-27T14:25:43Z</time>
      </trkpt>
      <trkpt lat="45.24209" lon="6.21187">
        <ele>2320.8</ele>
        <time>2021-02-27T14:25:46Z</time>
      </trkpt>
      <trkpt lat="45.24211" lon="6.21189">
        <ele>2320.8</ele>
        <time>2021-02-27T14:25:49Z</time>
      </trkpt>
      <trkpt lat="45.24211" lon="6.21189">
        <ele>2322.2</ele>
        <time>2021-02-27T14:25:51Z</time>
      </trkpt>
      <trkpt lat="45.24214" lon="6.21191">
        <ele>2322.2</ele>
        <time>2021-02-27T14:25:52Z</time>
      </trkpt>
      <trkpt lat="45.24215" lon="6.21192">
        <ele>2322.2</ele>
        <time>2021-02-27T14:25:55Z</time>
      </trkpt>
      <trkpt lat="45.24216" lon="6.21193">
        <ele>2322.2</ele>
        <time>2021-02-27T14:25:57Z</time>
      </trkpt>
      <trkpt lat="45.24217" lon="6.21194">
        <ele>2322.2</ele>
        <time>2021-02-27T14:26:00Z</time>
      </trkpt>
      <trkpt lat="45.24218" lon="6.21195">
        <ele>2324.4</ele>
        <time>2021-02-27T14:26:01Z</time>
      </trkpt>
      <trkpt lat="45.2422" lon="6.21197">
        <ele>2324.4</ele>
        <time>2021-02-27T14:26:03Z</time>
      </trkpt>
      <trkpt lat="45.24222" lon="6.21198">
        <ele>2324.4</ele>
        <time>2021-02-27T14:26:06Z</time>
      </trkpt>
      <trkpt lat="45.24223" lon="6.21201">
        <ele>2324.4</ele>
        <time>2021-02-27T14:26:09Z</time>
      </trkpt>
      <trkpt lat="45.24223" lon="6.21201">
        <ele>2326.4</ele>
        <time>2021-02-27T14:26:11Z</time>
      </trkpt>
      <trkpt lat="45.24227" lon="6.21203">
        <ele>2326.4</ele>
        <time>2021-02-27T14:26:12Z</time>
      </trkpt>
      <trkpt lat="45.24228" lon="6.21205">
        <ele>2326.4</ele>
        <time>2021-02-27T14:26:15Z</time>
      </trkpt>
      <trkpt lat="45.24229" lon="6.21206">
        <ele>2326.4</ele>
        <time>2021-02-27T14:26:17Z</time>
      </trkpt>
      <trkpt lat="45.2423" lon="6.21207">
        <ele>2326.4</ele>
        <time>2021-02-27T14:26:20Z</time>
      </trkpt>
      <trkpt lat="45.24231" lon="6.21208">
        <ele>2329.6</ele>
        <time>2021-02-27T14:26:21Z</time>
      </trkpt>
      <trkpt lat="45.24233" lon="6.2121">
        <ele>2329.6</ele>
        <time>2021-02-27T14:26:22Z</time>
      </trkpt>
      <trkpt lat="45.24234" lon="6.21213">
        <ele>2329.6</ele>
        <time>2021-02-27T14:26:25Z</time>
      </trkpt>
      <trkpt lat="45.24235" lon="6.21217">
        <ele>2329.6</ele>
        <time>2021-02-27T14:26:28Z</time>
      </trkpt>
      <trkpt lat="45.24236" lon="6.21221">
        <ele>2331</ele>
        <time>2021-02-27T14:26:31Z</time>
      </trkpt>
      <trkpt lat="45.24237" lon="6.21226">
        <ele>2331</ele>
        <time>2021-02-27T14:26:34Z</time>
      </trkpt>
      <trkpt lat="45.24238" lon="6.21228">
        <ele>2331</ele>
        <time>2021-02-27T14:26:37Z</time>
      </trkpt>
      <trkpt lat="45.24238" lon="6.2123">
        <ele>2331</ele>
        <time>2021-02-27T14:26:40Z</time>
      </trkpt>
      <trkpt lat="45.24239" lon="6.21232">
        <ele>2333.6</ele>
        <time>2021-02-27T14:26:41Z</time>
      </trkpt>
      <trkpt lat="45.2424" lon="6.21235">
        <ele>2333.6</ele>
        <time>2021-02-27T14:26:43Z</time>
      </trkpt>
      <trkpt lat="45.24241" lon="6.21237">
        <ele>2333.6</ele>
        <time>2021-02-27T14:26:45Z</time>
      </trkpt>
      <trkpt lat="45.24241" lon="6.21239">
        <ele>2333.6</ele>
        <time>2021-02-27T14:26:48Z</time>
      </trkpt>
      <trkpt lat="45.24242" lon="6.2124">
        <ele>2333.6</ele>
        <time>2021-02-27T14:26:50Z</time>
      </trkpt>
      <trkpt lat="45.24242" lon="6.21242">
        <ele>2335.2</ele>
        <time>2021-02-27T14:26:51Z</time>
      </trkpt>
      <trkpt lat="45.24243" lon="6.21244">
        <ele>2335.2</ele>
        <time>2021-02-27T14:26:52Z</time>
      </trkpt>
      <trkpt lat="45.24244" lon="6.21247">
        <ele>2335.2</ele>
        <time>2021-02-27T14:26:55Z</time>
      </trkpt>
      <trkpt lat="45.24245" lon="6.21251">
        <ele>2335.2</ele>
        <time>2021-02-27T14:26:58Z</time>
      </trkpt>
      <trkpt lat="45.24246" lon="6.21254">
        <ele>2337.2</ele>
        <time>2021-02-27T14:27:01Z</time>
      </trkpt>
      <trkpt lat="45.24247" lon="6.21258">
        <ele>2337.2</ele>
        <time>2021-02-27T14:27:04Z</time>
      </trkpt>
      <trkpt lat="45.24247" lon="6.2126">
        <ele>2337.2</ele>
        <time>2021-02-27T14:27:07Z</time>
      </trkpt>
      <trkpt lat="45.24247" lon="6.21262">
        <ele>2337.2</ele>
        <time>2021-02-27T14:27:10Z</time>
      </trkpt>
      <trkpt lat="45.24247" lon="6.21263">
        <ele>2339.8</ele>
        <time>2021-02-27T14:27:11Z</time>
      </trkpt>
      <trkpt lat="45.24246" lon="6.21268">
        <ele>2339.8</ele>
        <time>2021-02-27T14:27:13Z</time>
      </trkpt>
      <trkpt lat="45.24246" lon="6.2127">
        <ele>2339.8</ele>
        <time>2021-02-27T14:27:15Z</time>
      </trkpt>
      <trkpt lat="45.24247" lon="6.21271">
        <ele>2339.8</ele>
        <time>2021-02-27T14:27:17Z</time>
      </trkpt>
      <trkpt lat="45.24247" lon="6.21273">
        <ele>2339.8</ele>
        <time>2021-02-27T14:27:20Z</time>
      </trkpt>
      <trkpt lat="45.24247" lon="6.21275">
        <ele>2342</ele>
        <time>2021-02-27T14:27:21Z</time>
      </trkpt>
      <trkpt lat="45.24247" lon="6.21277">
        <ele>2342</ele>
        <time>2021-02-27T14:27:22Z</time>
      </trkpt>
      <trkpt lat="45.24247" lon="6.21281">
        <ele>2342</ele>
        <time>2021-02-27T14:27:25Z</time>
      </trkpt>
      <trkpt lat="45.24248" lon="6.21284">
        <ele>2342</ele>
        <time>2021-02-27T14:27:28Z</time>
      </trkpt>
      <trkpt lat="45.24249" lon="6.21287">
        <ele>2344.6</ele>
        <time>2021-02-27T14:27:31Z</time>
      </trkpt>
      <trkpt lat="45.2425" lon="6.21291">
        <ele>2344.6</ele>
        <time>2021-02-27T14:27:34Z</time>
      </trkpt>
      <trkpt lat="45.24251" lon="6.21294">
        <ele>2344.6</ele>
        <time>2021-02-27T14:27:36Z</time>
      </trkpt>
      <trkpt lat="45.24251" lon="6.21297">
        <ele>2344.6</ele>
        <time>2021-02-27T14:27:38Z</time>
      </trkpt>
      <trkpt lat="45.24251" lon="6.213">
        <ele>2346</ele>
        <time>2021-02-27T14:27:41Z</time>
      </trkpt>
      <trkpt lat="45.24251" lon="6.21305">
        <ele>2346</ele>
        <time>2021-02-27T14:27:44Z</time>
      </trkpt>
      <trkpt lat="45.24251" lon="6.21307">
        <ele>2346</ele>
        <time>2021-02-27T14:27:47Z</time>
      </trkpt>
      <trkpt lat="45.24251" lon="6.21308">
        <ele>2346</ele>
        <time>2021-02-27T14:27:50Z</time>
      </trkpt>
      <trkpt lat="45.24251" lon="6.2131">
        <ele>2348.6</ele>
        <time>2021-02-27T14:27:51Z</time>
      </trkpt>
      <trkpt lat="45.24251" lon="6.21313">
        <ele>2348.6</ele>
        <time>2021-02-27T14:27:53Z</time>
      </trkpt>
      <trkpt lat="45.24252" lon="6.21317">
        <ele>2348.6</ele>
        <time>2021-02-27T14:27:56Z</time>
      </trkpt>
      <trkpt lat="45.24252" lon="6.2132">
        <ele>2348.6</ele>
        <time>2021-02-27T14:27:59Z</time>
      </trkpt>
      <trkpt lat="45.24253" lon="6.21323">
        <ele>2350</ele>
        <time>2021-02-27T14:28:01Z</time>
      </trkpt>
      <trkpt lat="45.24253" lon="6.21328">
        <ele>2350</ele>
        <time>2021-02-27T14:28:04Z</time>
      </trkpt>
      <trkpt lat="45.24254" lon="6.2133">
        <ele>2350</ele>
        <time>2021-02-27T14:28:07Z</time>
      </trkpt>
      <trkpt lat="45.24254" lon="6.21331">
        <ele>2350</ele>
        <time>2021-02-27T14:28:10Z</time>
      </trkpt>
      <trkpt lat="45.24254" lon="6.21333">
        <ele>2352.6</ele>
        <time>2021-02-27T14:28:11Z</time>
      </trkpt>
      <trkpt lat="45.24255" lon="6.21335">
        <ele>2352.6</ele>
        <time>2021-02-27T14:28:12Z</time>
      </trkpt>
      <trkpt lat="45.24255" lon="6.21339">
        <ele>2352.6</ele>
        <time>2021-02-27T14:28:15Z</time>
      </trkpt>
      <trkpt lat="45.24256" lon="6.21342">
        <ele>2352.6</ele>
        <time>2021-02-27T14:28:18Z</time>
      </trkpt>
      <trkpt lat="45.24257" lon="6.21346">
        <ele>2353.6</ele>
        <time>2021-02-27T14:28:21Z</time>
      </trkpt>
      <trkpt lat="45.24258" lon="6.2135">
        <ele>2353.6</ele>
        <time>2021-02-27T14:28:24Z</time>
      </trkpt>
      <trkpt lat="45.24258" lon="6.21352">
        <ele>2353.6</ele>
        <time>2021-02-27T14:28:26Z</time>
      </trkpt>
      <trkpt lat="45.24258" lon="6.21355">
        <ele>2353.6</ele>
        <time>2021-02-27T14:28:28Z</time>
      </trkpt>
      <trkpt lat="45.24258" lon="6.21359">
        <ele>2354.4</ele>
        <time>2021-02-27T14:28:31Z</time>
      </trkpt>
      <trkpt lat="45.24258" lon="6.21362">
        <ele>2354.4</ele>
        <time>2021-02-27T14:28:33Z</time>
      </trkpt>
      <trkpt lat="45.24258" lon="6.21364">
        <ele>2354.4</ele>
        <time>2021-02-27T14:28:35Z</time>
      </trkpt>
      <trkpt lat="45.24259" lon="6.21368">
        <ele>2354.4</ele>
        <time>2021-02-27T14:28:38Z</time>
      </trkpt>
      <trkpt lat="45.24259" lon="6.21371">
        <ele>2356.2</ele>
        <time>2021-02-27T14:28:41Z</time>
      </trkpt>
      <trkpt lat="45.24259" lon="6.21377">
        <ele>2356.2</ele>
        <time>2021-02-27T14:28:44Z</time>
      </trkpt>
      <trkpt lat="45.24259" lon="6.21379">
        <ele>2356.2</ele>
        <time>2021-02-27T14:28:46Z</time>
      </trkpt>
      <trkpt lat="45.24258" lon="6.21381">
        <ele>2356.2</ele>
        <time>2021-02-27T14:28:48Z</time>
      </trkpt>
      <trkpt lat="45.24258" lon="6.21383">
        <ele>2356.2</ele>
        <time>2021-02-27T14:28:50Z</time>
      </trkpt>
      <trkpt lat="45.24258" lon="6.21385">
        <ele>2358.4</ele>
        <time>2021-02-27T14:28:51Z</time>
      </trkpt>
      <trkpt lat="45.24258" lon="6.21387">
        <ele>2358.4</ele>
        <time>2021-02-27T14:28:53Z</time>
      </trkpt>
      <trkpt lat="45.24258" lon="6.21391">
        <ele>2358.4</ele>
        <time>2021-02-27T14:28:56Z</time>
      </trkpt>
      <trkpt lat="45.24258" lon="6.21393">
        <ele>2358.4</ele>
        <time>2021-02-27T14:28:58Z</time>
      </trkpt>
      <trkpt lat="45.24257" lon="6.21397">
        <ele>2359</ele>
        <time>2021-02-27T14:29:01Z</time>
      </trkpt>
      <trkpt lat="45.24257" lon="6.214">
        <ele>2359</ele>
        <time>2021-02-27T14:29:03Z</time>
      </trkpt>
      <trkpt lat="45.24256" lon="6.21402">
        <ele>2359</ele>
        <time>2021-02-27T14:29:05Z</time>
      </trkpt>
      <trkpt lat="45.24256" lon="6.21405">
        <ele>2359</ele>
        <time>2021-02-27T14:29:07Z</time>
      </trkpt>
      <trkpt lat="45.24255" lon="6.21408">
        <ele>2359</ele>
        <time>2021-02-27T14:29:09Z</time>
      </trkpt>
      <trkpt lat="45.24255" lon="6.21408">
        <ele>2360.8</ele>
        <time>2021-02-27T14:29:11Z</time>
      </trkpt>
      <trkpt lat="45.24255" lon="6.21412">
        <ele>2360.8</ele>
        <time>2021-02-27T14:29:12Z</time>
      </trkpt>
      <trkpt lat="45.24254" lon="6.21414">
        <ele>2360.8</ele>
        <time>2021-02-27T14:29:14Z</time>
      </trkpt>
      <trkpt lat="45.24254" lon="6.21417">
        <ele>2360.8</ele>
        <time>2021-02-27T14:29:16Z</time>
      </trkpt>
      <trkpt lat="45.24254" lon="6.21421">
        <ele>2360.8</ele>
        <time>2021-02-27T14:29:19Z</time>
      </trkpt>
      <trkpt lat="45.24253" lon="6.21423">
        <ele>2363.4</ele>
        <time>2021-02-27T14:29:21Z</time>
      </trkpt>
      <trkpt lat="45.24252" lon="6.21426">
        <ele>2363.4</ele>
        <time>2021-02-27T14:29:23Z</time>
      </trkpt>
      <trkpt lat="45.24252" lon="6.2143">
        <ele>2363.4</ele>
        <time>2021-02-27T14:29:26Z</time>
      </trkpt>
      <trkpt lat="45.24251" lon="6.21434">
        <ele>2363.4</ele>
        <time>2021-02-27T14:29:29Z</time>
      </trkpt>
      <trkpt lat="45.24251" lon="6.21434">
        <ele>2364.4</ele>
        <time>2021-02-27T14:29:31Z</time>
      </trkpt>
      <trkpt lat="45.2425" lon="6.21437">
        <ele>2364.4</ele>
        <time>2021-02-27T14:29:32Z</time>
      </trkpt>
      <trkpt lat="45.24249" lon="6.2144">
        <ele>2364.4</ele>
        <time>2021-02-27T14:29:35Z</time>
      </trkpt>
      <trkpt lat="45.24248" lon="6.21444">
        <ele>2364.4</ele>
        <time>2021-02-27T14:29:38Z</time>
      </trkpt>
      <trkpt lat="45.24248" lon="6.21444">
        <ele>2365.2</ele>
        <time>2021-02-27T14:29:41Z</time>
      </trkpt>
      <trkpt lat="45.24247" lon="6.21444">
        <ele>2365.4</ele>
        <time>2021-02-27T14:29:51Z</time>
      </trkpt>
      <trkpt lat="45.24247" lon="6.21445">
        <ele>2366.6</ele>
        <time>2021-02-27T14:30:01Z</time>
      </trkpt>
      <trkpt lat="45.24247" lon="6.21445">
        <ele>2365.4</ele>
        <time>2021-02-27T14:30:11Z</time>
      </trkpt>
      <trkpt lat="45.24246" lon="6.21446">
        <ele>2365.2</ele>
        <time>2021-02-27T14:30:21Z</time>
      </trkpt>
      <trkpt lat="45.24246" lon="6.21446">
        <ele>2366.8</ele>
        <time>2021-02-27T14:30:31Z</time>
      </trkpt>
      <trkpt lat="45.24246" lon="6.21447">
        <ele>2366</ele>
        <time>2021-02-27T14:30:41Z</time>
      </trkpt>
      <trkpt lat="45.24245" lon="6.21448">
        <ele>2366</ele>
        <time>2021-02-27T14:30:51Z</time>
      </trkpt>
      <trkpt lat="45.24245" lon="6.21448">
        <ele>2366.6</ele>
        <time>2021-02-27T14:31:01Z</time>
      </trkpt>
      <trkpt lat="45.24245" lon="6.21449">
        <ele>2366.8</ele>
        <time>2021-02-27T14:31:11Z</time>
      </trkpt>
      <trkpt lat="45.24244" lon="6.21449">
        <ele>2367.4</ele>
        <time>2021-02-27T14:31:21Z</time>
      </trkpt>
      <trkpt lat="45.24244" lon="6.2145">
        <ele>2365.8</ele>
        <time>2021-02-27T14:31:31Z</time>
      </trkpt>
      <trkpt lat="45.24244" lon="6.2145">
        <ele>2365.8</ele>
        <time>2021-02-27T14:31:41Z</time>
      </trkpt>
      <trkpt lat="45.24243" lon="6.21451">
        <ele>2366.6</ele>
        <time>2021-02-27T14:31:51Z</time>
      </trkpt>
      <trkpt lat="45.24243" lon="6.21452">
        <ele>2366.6</ele>
        <time>2021-02-27T14:31:56Z</time>
      </trkpt>
      <trkpt lat="45.24243" lon="6.21452">
        <ele>2366.6</ele>
        <time>2021-02-27T14:31:58Z</time>
      </trkpt>
      <trkpt lat="45.24242" lon="6.21453">
        <ele>2366.6</ele>
        <time>2021-02-27T14:32:00Z</time>
      </trkpt>
      <trkpt lat="45.24242" lon="6.21453">
        <ele>2367.8</ele>
        <time>2021-02-27T14:32:01Z</time>
      </trkpt>
      <trkpt lat="45.2424" lon="6.21458">
        <ele>2367.8</ele>
        <time>2021-02-27T14:32:02Z</time>
      </trkpt>
      <trkpt lat="45.24238" lon="6.2146">
        <ele>2367.8</ele>
        <time>2021-02-27T14:32:03Z</time>
      </trkpt>
      <trkpt lat="45.24237" lon="6.21463">
        <ele>2367.8</ele>
        <time>2021-02-27T14:32:05Z</time>
      </trkpt>
      <trkpt lat="45.24236" lon="6.21466">
        <ele>2367.8</ele>
        <time>2021-02-27T14:32:07Z</time>
      </trkpt>
      <trkpt lat="45.24235" lon="6.21469">
        <ele>2367.8</ele>
        <time>2021-02-27T14:32:09Z</time>
      </trkpt>
      <trkpt lat="45.24234" lon="6.21471">
        <ele>2368.2</ele>
        <time>2021-02-27T14:32:11Z</time>
      </trkpt>
      <trkpt lat="45.24233" lon="6.21475">
        <ele>2368.2</ele>
        <time>2021-02-27T14:32:13Z</time>
      </trkpt>
      <trkpt lat="45.24233" lon="6.21478">
        <ele>2368.2</ele>
        <time>2021-02-27T14:32:15Z</time>
      </trkpt>
      <trkpt lat="45.24232" lon="6.21482">
        <ele>2368.2</ele>
        <time>2021-02-27T14:32:17Z</time>
      </trkpt>
      <trkpt lat="45.24231" lon="6.21485">
        <ele>2368.2</ele>
        <time>2021-02-27T14:32:19Z</time>
      </trkpt>
      <trkpt lat="45.2423" lon="6.21487">
        <ele>2367.4</ele>
        <time>2021-02-27T14:32:21Z</time>
      </trkpt>
      <trkpt lat="45.24229" lon="6.2149">
        <ele>2367.4</ele>
        <time>2021-02-27T14:32:23Z</time>
      </trkpt>
      <trkpt lat="45.24228" lon="6.21493">
        <ele>2367.4</ele>
        <time>2021-02-27T14:32:25Z</time>
      </trkpt>
      <trkpt lat="45.24227" lon="6.21495">
        <ele>2367.4</ele>
        <time>2021-02-27T14:32:27Z</time>
      </trkpt>
      <trkpt lat="45.24226" lon="6.21498">
        <ele>2367.4</ele>
        <time>2021-02-27T14:32:29Z</time>
      </trkpt>
      <trkpt lat="45.24226" lon="6.21501">
        <ele>2368.2</ele>
        <time>2021-02-27T14:32:31Z</time>
      </trkpt>
      <trkpt lat="45.24225" lon="6.21504">
        <ele>2368.2</ele>
        <time>2021-02-27T14:32:33Z</time>
      </trkpt>
      <trkpt lat="45.24224" lon="6.21508">
        <ele>2368.2</ele>
        <time>2021-02-27T14:32:35Z</time>
      </trkpt>
      <trkpt lat="45.24223" lon="6.21511">
        <ele>2368.2</ele>
        <time>2021-02-27T14:32:37Z</time>
      </trkpt>
      <trkpt lat="45.24223" lon="6.21515">
        <ele>2368.2</ele>
        <time>2021-02-27T14:32:39Z</time>
      </trkpt>
      <trkpt lat="45.24223" lon="6.21518">
        <ele>2369.4</ele>
        <time>2021-02-27T14:32:41Z</time>
      </trkpt>
      <trkpt lat="45.24221" lon="6.21521">
        <ele>2369.4</ele>
        <time>2021-02-27T14:32:44Z</time>
      </trkpt>
      <trkpt lat="45.24221" lon="6.21524">
        <ele>2369.4</ele>
        <time>2021-02-27T14:32:46Z</time>
      </trkpt>
      <trkpt lat="45.2422" lon="6.21526">
        <ele>2369.4</ele>
        <time>2021-02-27T14:32:48Z</time>
      </trkpt>
      <trkpt lat="45.2422" lon="6.21526">
        <ele>2371.4</ele>
        <time>2021-02-27T14:32:51Z</time>
      </trkpt>
      <trkpt lat="45.24219" lon="6.21526">
        <ele>2372.4</ele>
        <time>2021-02-27T14:33:01Z</time>
      </trkpt>
      <trkpt lat="45.24219" lon="6.21527">
        <ele>2370.8</ele>
        <time>2021-02-27T14:33:11Z</time>
      </trkpt>
      <trkpt lat="45.24218" lon="6.21528">
        <ele>2372</ele>
        <time>2021-02-27T14:33:21Z</time>
      </trkpt>
      <trkpt lat="45.24218" lon="6.21528">
        <ele>2372.8</ele>
        <time>2021-02-27T14:33:31Z</time>
      </trkpt>
      <trkpt lat="45.24218" lon="6.21529">
        <ele>2371.6</ele>
        <time>2021-02-27T14:33:41Z</time>
      </trkpt>
      <trkpt lat="45.24217" lon="6.21529">
        <ele>2372</ele>
        <time>2021-02-27T14:33:51Z</time>
      </trkpt>
      <trkpt lat="45.24217" lon="6.2153">
        <ele>2373.2</ele>
        <time>2021-02-27T14:34:01Z</time>
      </trkpt>
      <trkpt lat="45.24217" lon="6.2153">
        <ele>2372.8</ele>
        <time>2021-02-27T14:34:11Z</time>
      </trkpt>
      <trkpt lat="45.24216" lon="6.21531">
        <ele>2372.6</ele>
        <time>2021-02-27T14:34:21Z</time>
      </trkpt>
      <trkpt lat="45.24216" lon="6.21532">
        <ele>2372.2</ele>
        <time>2021-02-27T14:34:31Z</time>
      </trkpt>
      <trkpt lat="45.24215" lon="6.21532">
        <ele>2371.4</ele>
        <time>2021-02-27T14:34:41Z</time>
      </trkpt>
      <trkpt lat="45.24215" lon="6.21533">
        <ele>2371.4</ele>
        <time>2021-02-27T14:34:47Z</time>
      </trkpt>
      <trkpt lat="45.24215" lon="6.21533">
        <ele>2371.4</ele>
        <time>2021-02-27T14:34:48Z</time>
      </trkpt>
      <trkpt lat="45.24214" lon="6.21534">
        <ele>2371.4</ele>
        <time>2021-02-27T14:34:50Z</time>
      </trkpt>
      <trkpt lat="45.24214" lon="6.21535">
        <ele>2370.8</ele>
        <time>2021-02-27T14:34:51Z</time>
      </trkpt>
      <trkpt lat="45.2421" lon="6.2154">
        <ele>2370.8</ele>
        <time>2021-02-27T14:34:52Z</time>
      </trkpt>
      <trkpt lat="45.24208" lon="6.21542">
        <ele>2370.8</ele>
        <time>2021-02-27T14:34:53Z</time>
      </trkpt>
      <trkpt lat="45.24207" lon="6.21544">
        <ele>2370.8</ele>
        <time>2021-02-27T14:34:54Z</time>
      </trkpt>
      <trkpt lat="45.24206" lon="6.21546">
        <ele>2370.8</ele>
        <time>2021-02-27T14:34:55Z</time>
      </trkpt>
      <trkpt lat="45.24204" lon="6.21548">
        <ele>2370.8</ele>
        <time>2021-02-27T14:34:57Z</time>
      </trkpt>
      <trkpt lat="45.24203" lon="6.2155">
        <ele>2370.8</ele>
        <time>2021-02-27T14:34:59Z</time>
      </trkpt>
      <trkpt lat="45.24201" lon="6.21552">
        <ele>2370.4</ele>
        <time>2021-02-27T14:35:01Z</time>
      </trkpt>
      <trkpt lat="45.24197" lon="6.21557">
        <ele>2370.4</ele>
        <time>2021-02-27T14:35:03Z</time>
      </trkpt>
      <trkpt lat="45.24195" lon="6.2156">
        <ele>2370.4</ele>
        <time>2021-02-27T14:35:04Z</time>
      </trkpt>
      <trkpt lat="45.24193" lon="6.21563">
        <ele>2370.4</ele>
        <time>2021-02-27T14:35:05Z</time>
      </trkpt>
      <trkpt lat="45.24191" lon="6.21566">
        <ele>2370.4</ele>
        <time>2021-02-27T14:35:06Z</time>
      </trkpt>
      <trkpt lat="45.24189" lon="6.21568">
        <ele>2370.4</ele>
        <time>2021-02-27T14:35:07Z</time>
      </trkpt>
      <trkpt lat="45.24186" lon="6.21571">
        <ele>2370.4</ele>
        <time>2021-02-27T14:35:08Z</time>
      </trkpt>
      <trkpt lat="45.24184" lon="6.21574">
        <ele>2370.4</ele>
        <time>2021-02-27T14:35:09Z</time>
      </trkpt>
      <trkpt lat="45.24182" lon="6.21577">
        <ele>2370.4</ele>
        <time>2021-02-27T14:35:10Z</time>
      </trkpt>
      <trkpt lat="45.2418" lon="6.21579">
        <ele>2368</ele>
        <time>2021-02-27T14:35:11Z</time>
      </trkpt>
      <trkpt lat="45.24174" lon="6.21588">
        <ele>2368</ele>
        <time>2021-02-27T14:35:12Z</time>
      </trkpt>
      <trkpt lat="45.24171" lon="6.21592">
        <ele>2368</ele>
        <time>2021-02-27T14:35:13Z</time>
      </trkpt>
      <trkpt lat="45.24169" lon="6.21597">
        <ele>2368</ele>
        <time>2021-02-27T14:35:14Z</time>
      </trkpt>
      <trkpt lat="45.24166" lon="6.21601">
        <ele>2368</ele>
        <time>2021-02-27T14:35:15Z</time>
      </trkpt>
      <trkpt lat="45.24164" lon="6.21605">
        <ele>2368</ele>
        <time>2021-02-27T14:35:16Z</time>
      </trkpt>
      <trkpt lat="45.24161" lon="6.2161">
        <ele>2368</ele>
        <time>2021-02-27T14:35:17Z</time>
      </trkpt>
      <trkpt lat="45.24159" lon="6.21614">
        <ele>2368</ele>
        <time>2021-02-27T14:35:18Z</time>
      </trkpt>
      <trkpt lat="45.24156" lon="6.21619">
        <ele>2368</ele>
        <time>2021-02-27T14:35:19Z</time>
      </trkpt>
      <trkpt lat="45.24154" lon="6.21623">
        <ele>2368</ele>
        <time>2021-02-27T14:35:20Z</time>
      </trkpt>
      <trkpt lat="45.24151" lon="6.21627">
        <ele>2361.8</ele>
        <time>2021-02-27T14:35:21Z</time>
      </trkpt>
      <trkpt lat="45.24146" lon="6.21637">
        <ele>2361.8</ele>
        <time>2021-02-27T14:35:22Z</time>
      </trkpt>
      <trkpt lat="45.24143" lon="6.21642">
        <ele>2361.8</ele>
        <time>2021-02-27T14:35:23Z</time>
      </trkpt>
      <trkpt lat="45.2414" lon="6.21647">
        <ele>2361.8</ele>
        <time>2021-02-27T14:35:24Z</time>
      </trkpt>
      <trkpt lat="45.24138" lon="6.21653">
        <ele>2361.8</ele>
        <time>2021-02-27T14:35:25Z</time>
      </trkpt>
      <trkpt lat="45.24135" lon="6.21658">
        <ele>2361.8</ele>
        <time>2021-02-27T14:35:26Z</time>
      </trkpt>
      <trkpt lat="45.24132" lon="6.21663">
        <ele>2361.8</ele>
        <time>2021-02-27T14:35:27Z</time>
      </trkpt>
      <trkpt lat="45.2413" lon="6.21668">
        <ele>2361.8</ele>
        <time>2021-02-27T14:35:28Z</time>
      </trkpt>
      <trkpt lat="45.24127" lon="6.21674">
        <ele>2361.8</ele>
        <time>2021-02-27T14:35:29Z</time>
      </trkpt>
      <trkpt lat="45.24124" lon="6.21679">
        <ele>2361.8</ele>
        <time>2021-02-27T14:35:30Z</time>
      </trkpt>
      <trkpt lat="45.24122" lon="6.21684">
        <ele>2353.6</ele>
        <time>2021-02-27T14:35:31Z</time>
      </trkpt>
      <trkpt lat="45.24117" lon="6.21696">
        <ele>2353.6</ele>
        <time>2021-02-27T14:35:32Z</time>
      </trkpt>
      <trkpt lat="45.24115" lon="6.21701">
        <ele>2353.6</ele>
        <time>2021-02-27T14:35:33Z</time>
      </trkpt>
      <trkpt lat="45.24114" lon="6.21706">
        <ele>2353.6</ele>
        <time>2021-02-27T14:35:34Z</time>
      </trkpt>
      <trkpt lat="45.24112" lon="6.21711">
        <ele>2353.6</ele>
        <time>2021-02-27T14:35:35Z</time>
      </trkpt>
      <trkpt lat="45.2411" lon="6.21717">
        <ele>2353.6</ele>
        <time>2021-02-27T14:35:36Z</time>
      </trkpt>
      <trkpt lat="45.24108" lon="6.21722">
        <ele>2353.6</ele>
        <time>2021-02-27T14:35:37Z</time>
      </trkpt>
      <trkpt lat="45.24106" lon="6.21727">
        <ele>2353.6</ele>
        <time>2021-02-27T14:35:38Z</time>
      </trkpt>
      <trkpt lat="45.24104" lon="6.21732">
        <ele>2353.6</ele>
        <time>2021-02-27T14:35:39Z</time>
      </trkpt>
      <trkpt lat="45.24103" lon="6.21738">
        <ele>2353.6</ele>
        <time>2021-02-27T14:35:40Z</time>
      </trkpt>
      <trkpt lat="45.24101" lon="6.21743">
        <ele>2349.6</ele>
        <time>2021-02-27T14:35:41Z</time>
      </trkpt>
      <trkpt lat="45.24097" lon="6.21753">
        <ele>2349.6</ele>
        <time>2021-02-27T14:35:42Z</time>
      </trkpt>
      <trkpt lat="45.24094" lon="6.21758">
        <ele>2349.6</ele>
        <time>2021-02-27T14:35:43Z</time>
      </trkpt>
      <trkpt lat="45.24092" lon="6.21763">
        <ele>2349.6</ele>
        <time>2021-02-27T14:35:44Z</time>
      </trkpt>
      <trkpt lat="45.24089" lon="6.21768">
        <ele>2349.6</ele>
        <time>2021-02-27T14:35:45Z</time>
      </trkpt>
      <trkpt lat="45.24087" lon="6.21773">
        <ele>2349.6</ele>
        <time>2021-02-27T14:35:46Z</time>
      </trkpt>
      <trkpt lat="45.24085" lon="6.21778">
        <ele>2349.6</ele>
        <time>2021-02-27T14:35:47Z</time>
      </trkpt>
      <trkpt lat="45.24082" lon="6.21783">
        <ele>2349.6</ele>
        <time>2021-02-27T14:35:48Z</time>
      </trkpt>
      <trkpt lat="45.2408" lon="6.21788">
        <ele>2349.6</ele>
        <time>2021-02-27T14:35:49Z</time>
      </trkpt>
      <trkpt lat="45.24077" lon="6.21793">
        <ele>2349.6</ele>
        <time>2021-02-27T14:35:50Z</time>
      </trkpt>
      <trkpt lat="45.24075" lon="6.21799">
        <ele>2344.2</ele>
        <time>2021-02-27T14:35:51Z</time>
      </trkpt>
      <trkpt lat="45.24068" lon="6.21815">
        <ele>2344.2</ele>
        <time>2021-02-27T14:35:52Z</time>
      </trkpt>
      <trkpt lat="45.24066" lon="6.21822">
        <ele>2344.2</ele>
        <time>2021-02-27T14:35:53Z</time>
      </trkpt>
      <trkpt lat="45.24063" lon="6.2183">
        <ele>2344.2</ele>
        <time>2021-02-27T14:35:54Z</time>
      </trkpt>
      <trkpt lat="45.2406" lon="6.21838">
        <ele>2344.2</ele>
        <time>2021-02-27T14:35:55Z</time>
      </trkpt>
      <trkpt lat="45.24058" lon="6.21845">
        <ele>2344.2</ele>
        <time>2021-02-27T14:35:56Z</time>
      </trkpt>
      <trkpt lat="45.24055" lon="6.21853">
        <ele>2344.2</ele>
        <time>2021-02-27T14:35:57Z</time>
      </trkpt>
      <trkpt lat="45.24053" lon="6.21861">
        <ele>2344.2</ele>
        <time>2021-02-27T14:35:58Z</time>
      </trkpt>
      <trkpt lat="45.2405" lon="6.21868">
        <ele>2344.2</ele>
        <time>2021-02-27T14:35:59Z</time>
      </trkpt>
      <trkpt lat="45.24047" lon="6.21876">
        <ele>2344.2</ele>
        <time>2021-02-27T14:36:00Z</time>
      </trkpt>
      <trkpt lat="45.24045" lon="6.21884">
        <ele>2336.8</ele>
        <time>2021-02-27T14:36:01Z</time>
      </trkpt>
      <trkpt lat="45.24041" lon="6.21899">
        <ele>2336.8</ele>
        <time>2021-02-27T14:36:02Z</time>
      </trkpt>
      <trkpt lat="45.2404" lon="6.21906">
        <ele>2336.8</ele>
        <time>2021-02-27T14:36:03Z</time>
      </trkpt>
      <trkpt lat="45.24039" lon="6.21912">
        <ele>2336.8</ele>
        <time>2021-02-27T14:36:04Z</time>
      </trkpt>
      <trkpt lat="45.24038" lon="6.21918">
        <ele>2336.8</ele>
        <time>2021-02-27T14:36:05Z</time>
      </trkpt>
      <trkpt lat="45.24036" lon="6.21924">
        <ele>2336.8</ele>
        <time>2021-02-27T14:36:06Z</time>
      </trkpt>
      <trkpt lat="45.24035" lon="6.21931">
        <ele>2336.8</ele>
        <time>2021-02-27T14:36:07Z</time>
      </trkpt>
      <trkpt lat="45.24034" lon="6.21937">
        <ele>2336.8</ele>
        <time>2021-02-27T14:36:08Z</time>
      </trkpt>
      <trkpt lat="45.24033" lon="6.21943">
        <ele>2336.8</ele>
        <time>2021-02-27T14:36:09Z</time>
      </trkpt>
      <trkpt lat="45.24032" lon="6.21949">
        <ele>2336.8</ele>
        <time>2021-02-27T14:36:10Z</time>
      </trkpt>
      <trkpt lat="45.24031" lon="6.21956">
        <ele>2328</ele>
        <time>2021-02-27T14:36:11Z</time>
      </trkpt>
      <trkpt lat="45.24029" lon="6.21969">
        <ele>2328</ele>
        <time>2021-02-27T14:36:12Z</time>
      </trkpt>
      <trkpt lat="45.24029" lon="6.21974">
        <ele>2328</ele>
        <time>2021-02-27T14:36:13Z</time>
      </trkpt>
      <trkpt lat="45.24028" lon="6.2198">
        <ele>2328</ele>
        <time>2021-02-27T14:36:14Z</time>
      </trkpt>
      <trkpt lat="45.24027" lon="6.21986">
        <ele>2328</ele>
        <time>2021-02-27T14:36:15Z</time>
      </trkpt>
      <trkpt lat="45.24026" lon="6.21992">
        <ele>2328</ele>
        <time>2021-02-27T14:36:16Z</time>
      </trkpt>
      <trkpt lat="45.24026" lon="6.21998">
        <ele>2328</ele>
        <time>2021-02-27T14:36:17Z</time>
      </trkpt>
      <trkpt lat="45.24025" lon="6.22004">
        <ele>2328</ele>
        <time>2021-02-27T14:36:18Z</time>
      </trkpt>
      <trkpt lat="45.24024" lon="6.22009">
        <ele>2328</ele>
        <time>2021-02-27T14:36:19Z</time>
      </trkpt>
      <trkpt lat="45.24023" lon="6.22015">
        <ele>2328</ele>
        <time>2021-02-27T14:36:20Z</time>
      </trkpt>
      <trkpt lat="45.24022" lon="6.22021">
        <ele>2322.8</ele>
        <time>2021-02-27T14:36:21Z</time>
      </trkpt>
      <trkpt lat="45.24019" lon="6.22032">
        <ele>2322.8</ele>
        <time>2021-02-27T14:36:22Z</time>
      </trkpt>
      <trkpt lat="45.24017" lon="6.22038">
        <ele>2322.8</ele>
        <time>2021-02-27T14:36:23Z</time>
      </trkpt>
      <trkpt lat="45.24016" lon="6.22043">
        <ele>2322.8</ele>
        <time>2021-02-27T14:36:24Z</time>
      </trkpt>
      <trkpt lat="45.24015" lon="6.22048">
        <ele>2322.8</ele>
        <time>2021-02-27T14:36:25Z</time>
      </trkpt>
      <trkpt lat="45.24013" lon="6.22053">
        <ele>2322.8</ele>
        <time>2021-02-27T14:36:26Z</time>
      </trkpt>
      <trkpt lat="45.24012" lon="6.22058">
        <ele>2322.8</ele>
        <time>2021-02-27T14:36:27Z</time>
      </trkpt>
      <trkpt lat="45.2401" lon="6.22064">
        <ele>2322.8</ele>
        <time>2021-02-27T14:36:28Z</time>
      </trkpt>
      <trkpt lat="45.24009" lon="6.22069">
        <ele>2322.8</ele>
        <time>2021-02-27T14:36:29Z</time>
      </trkpt>
      <trkpt lat="45.24008" lon="6.22074">
        <ele>2322.8</ele>
        <time>2021-02-27T14:36:30Z</time>
      </trkpt>
      <trkpt lat="45.24006" lon="6.22079">
        <ele>2315.2</ele>
        <time>2021-02-27T14:36:31Z</time>
      </trkpt>
      <trkpt lat="45.24007" lon="6.22092">
        <ele>2315.2</ele>
        <time>2021-02-27T14:36:32Z</time>
      </trkpt>
      <trkpt lat="45.24007" lon="6.22099">
        <ele>2315.2</ele>
        <time>2021-02-27T14:36:33Z</time>
      </trkpt>
      <trkpt lat="45.24007" lon="6.22106">
        <ele>2315.2</ele>
        <time>2021-02-27T14:36:34Z</time>
      </trkpt>
      <trkpt lat="45.24007" lon="6.22114">
        <ele>2315.2</ele>
        <time>2021-02-27T14:36:35Z</time>
      </trkpt>
      <trkpt lat="45.24007" lon="6.22121">
        <ele>2315.2</ele>
        <time>2021-02-27T14:36:36Z</time>
      </trkpt>
      <trkpt lat="45.24007" lon="6.22128">
        <ele>2315.2</ele>
        <time>2021-02-27T14:36:37Z</time>
      </trkpt>
      <trkpt lat="45.24007" lon="6.22135">
        <ele>2315.2</ele>
        <time>2021-02-27T14:36:38Z</time>
      </trkpt>
      <trkpt lat="45.24007" lon="6.22142">
        <ele>2315.2</ele>
        <time>2021-02-27T14:36:39Z</time>
      </trkpt>
      <trkpt lat="45.24007" lon="6.22149">
        <ele>2315.2</ele>
        <time>2021-02-27T14:36:40Z</time>
      </trkpt>
      <trkpt lat="45.24007" lon="6.22156">
        <ele>2309.2</ele>
        <time>2021-02-27T14:36:41Z</time>
      </trkpt>
      <trkpt lat="45.24007" lon="6.22173">
        <ele>2309.2</ele>
        <time>2021-02-27T14:36:42Z</time>
      </trkpt>
      <trkpt lat="45.24006" lon="6.22179">
        <ele>2309.2</ele>
        <time>2021-02-27T14:36:43Z</time>
      </trkpt>
      <trkpt lat="45.24006" lon="6.22186">
        <ele>2309.2</ele>
        <time>2021-02-27T14:36:44Z</time>
      </trkpt>
      <trkpt lat="45.24006" lon="6.22193">
        <ele>2309.2</ele>
        <time>2021-02-27T14:36:45Z</time>
      </trkpt>
      <trkpt lat="45.24006" lon="6.222">
        <ele>2309.2</ele>
        <time>2021-02-27T14:36:46Z</time>
      </trkpt>
      <trkpt lat="45.24005" lon="6.22207">
        <ele>2309.2</ele>
        <time>2021-02-27T14:36:47Z</time>
      </trkpt>
      <trkpt lat="45.24005" lon="6.22214">
        <ele>2309.2</ele>
        <time>2021-02-27T14:36:48Z</time>
      </trkpt>
      <trkpt lat="45.24005" lon="6.2222">
        <ele>2309.2</ele>
        <time>2021-02-27T14:36:49Z</time>
      </trkpt>
      <trkpt lat="45.24004" lon="6.22227">
        <ele>2309.2</ele>
        <time>2021-02-27T14:36:50Z</time>
      </trkpt>
      <trkpt lat="45.24004" lon="6.22234">
        <ele>2299.2</ele>
        <time>2021-02-27T14:36:51Z</time>
      </trkpt>
      <trkpt lat="45.24002" lon="6.22245">
        <ele>2299.2</ele>
        <time>2021-02-27T14:36:52Z</time>
      </trkpt>
      <trkpt lat="45.24001" lon="6.22249">
        <ele>2299.2</ele>
        <time>2021-02-27T14:36:53Z</time>
      </trkpt>
      <trkpt lat="45.23999" lon="6.22253">
        <ele>2299.2</ele>
        <time>2021-02-27T14:36:54Z</time>
      </trkpt>
      <trkpt lat="45.23998" lon="6.22257">
        <ele>2299.2</ele>
        <time>2021-02-27T14:36:55Z</time>
      </trkpt>
      <trkpt lat="45.23996" lon="6.22261">
        <ele>2299.2</ele>
        <time>2021-02-27T14:36:56Z</time>
      </trkpt>
      <trkpt lat="45.23995" lon="6.22264">
        <ele>2299.2</ele>
        <time>2021-02-27T14:36:57Z</time>
      </trkpt>
      <trkpt lat="45.23994" lon="6.22268">
        <ele>2299.2</ele>
        <time>2021-02-27T14:36:58Z</time>
      </trkpt>
      <trkpt lat="45.23992" lon="6.22272">
        <ele>2299.2</ele>
        <time>2021-02-27T14:36:59Z</time>
      </trkpt>
      <trkpt lat="45.23991" lon="6.22276">
        <ele>2299.2</ele>
        <time>2021-02-27T14:37:00Z</time>
      </trkpt>
      <trkpt lat="45.2399" lon="6.2228">
        <ele>2292.4</ele>
        <time>2021-02-27T14:37:01Z</time>
      </trkpt>
      <trkpt lat="45.23985" lon="6.22288">
        <ele>2292.4</ele>
        <time>2021-02-27T14:37:02Z</time>
      </trkpt>
      <trkpt lat="45.23984" lon="6.22294">
        <ele>2292.4</ele>
        <time>2021-02-27T14:37:03Z</time>
      </trkpt>
      <trkpt lat="45.23982" lon="6.22299">
        <ele>2292.4</ele>
        <time>2021-02-27T14:37:04Z</time>
      </trkpt>
      <trkpt lat="45.23981" lon="6.22305">
        <ele>2292.4</ele>
        <time>2021-02-27T14:37:05Z</time>
      </trkpt>
      <trkpt lat="45.2398" lon="6.2231">
        <ele>2292.4</ele>
        <time>2021-02-27T14:37:06Z</time>
      </trkpt>
      <trkpt lat="45.23978" lon="6.22316">
        <ele>2292.4</ele>
        <time>2021-02-27T14:37:07Z</time>
      </trkpt>
      <trkpt lat="45.23977" lon="6.22321">
        <ele>2292.4</ele>
        <time>2021-02-27T14:37:08Z</time>
      </trkpt>
      <trkpt lat="45.23975" lon="6.22327">
        <ele>2292.4</ele>
        <time>2021-02-27T14:37:09Z</time>
      </trkpt>
      <trkpt lat="45.23974" lon="6.22332">
        <ele>2292.4</ele>
        <time>2021-02-27T14:37:10Z</time>
      </trkpt>
      <trkpt lat="45.23972" lon="6.22338">
        <ele>2283.2</ele>
        <time>2021-02-27T14:37:11Z</time>
      </trkpt>
      <trkpt lat="45.2397" lon="6.22348">
        <ele>2283.2</ele>
        <time>2021-02-27T14:37:12Z</time>
      </trkpt>
      <trkpt lat="45.23969" lon="6.22353">
        <ele>2283.2</ele>
        <time>2021-02-27T14:37:13Z</time>
      </trkpt>
      <trkpt lat="45.23968" lon="6.22359">
        <ele>2283.2</ele>
        <time>2021-02-27T14:37:14Z</time>
      </trkpt>
      <trkpt lat="45.23967" lon="6.22364">
        <ele>2283.2</ele>
        <time>2021-02-27T14:37:15Z</time>
      </trkpt>
      <trkpt lat="45.23966" lon="6.22369">
        <ele>2283.2</ele>
        <time>2021-02-27T14:37:16Z</time>
      </trkpt>
      <trkpt lat="45.23965" lon="6.22375">
        <ele>2283.2</ele>
        <time>2021-02-27T14:37:17Z</time>
      </trkpt>
      <trkpt lat="45.23963" lon="6.2238">
        <ele>2283.2</ele>
        <time>2021-02-27T14:37:18Z</time>
      </trkpt>
      <trkpt lat="45.23962" lon="6.22386">
        <ele>2283.2</ele>
        <time>2021-02-27T14:37:19Z</time>
      </trkpt>
      <trkpt lat="45.23961" lon="6.22391">
        <ele>2283.2</ele>
        <time>2021-02-27T14:37:20Z</time>
      </trkpt>
      <trkpt lat="45.2396" lon="6.22396">
        <ele>2278.4</ele>
        <time>2021-02-27T14:37:21Z</time>
      </trkpt>
      <trkpt lat="45.23957" lon="6.2241">
        <ele>2278.4</ele>
        <time>2021-02-27T14:37:22Z</time>
      </trkpt>
      <trkpt lat="45.23955" lon="6.22415">
        <ele>2278.4</ele>
        <time>2021-02-27T14:37:23Z</time>
      </trkpt>
      <trkpt lat="45.23954" lon="6.2242">
        <ele>2278.4</ele>
        <time>2021-02-27T14:37:24Z</time>
      </trkpt>
      <trkpt lat="45.23952" lon="6.22425">
        <ele>2278.4</ele>
        <time>2021-02-27T14:37:25Z</time>
      </trkpt>
      <trkpt lat="45.23951" lon="6.22431">
        <ele>2278.4</ele>
        <time>2021-02-27T14:37:26Z</time>
      </trkpt>
      <trkpt lat="45.23949" lon="6.22436">
        <ele>2278.4</ele>
        <time>2021-02-27T14:37:27Z</time>
      </trkpt>
      <trkpt lat="45.23947" lon="6.22441">
        <ele>2278.4</ele>
        <time>2021-02-27T14:37:28Z</time>
      </trkpt>
      <trkpt lat="45.23946" lon="6.22446">
        <ele>2278.4</ele>
        <time>2021-02-27T14:37:29Z</time>
      </trkpt>
      <trkpt lat="45.23944" lon="6.22452">
        <ele>2278.4</ele>
        <time>2021-02-27T14:37:30Z</time>
      </trkpt>
      <trkpt lat="45.23942" lon="6.22457">
        <ele>2272</ele>
        <time>2021-02-27T14:37:31Z</time>
      </trkpt>
      <trkpt lat="45.23937" lon="6.22466">
        <ele>2272</ele>
        <time>2021-02-27T14:37:32Z</time>
      </trkpt>
      <trkpt lat="45.23934" lon="6.2247">
        <ele>2272</ele>
        <time>2021-02-27T14:37:33Z</time>
      </trkpt>
      <trkpt lat="45.23931" lon="6.22475">
        <ele>2272</ele>
        <time>2021-02-27T14:37:34Z</time>
      </trkpt>
      <trkpt lat="45.23928" lon="6.22479">
        <ele>2272</ele>
        <time>2021-02-27T14:37:35Z</time>
      </trkpt>
      <trkpt lat="45.23925" lon="6.22483">
        <ele>2272</ele>
        <time>2021-02-27T14:37:36Z</time>
      </trkpt>
      <trkpt lat="45.23923" lon="6.22487">
        <ele>2272</ele>
        <time>2021-02-27T14:37:37Z</time>
      </trkpt>
      <trkpt lat="45.2392" lon="6.22492">
        <ele>2272</ele>
        <time>2021-02-27T14:37:38Z</time>
      </trkpt>
      <trkpt lat="45.23917" lon="6.22496">
        <ele>2272</ele>
        <time>2021-02-27T14:37:39Z</time>
      </trkpt>
      <trkpt lat="45.23914" lon="6.225">
        <ele>2272</ele>
        <time>2021-02-27T14:37:40Z</time>
      </trkpt>
      <trkpt lat="45.23911" lon="6.22504">
        <ele>2266.2</ele>
        <time>2021-02-27T14:37:41Z</time>
      </trkpt>
      <trkpt lat="45.23904" lon="6.22512">
        <ele>2266.2</ele>
        <time>2021-02-27T14:37:42Z</time>
      </trkpt>
      <trkpt lat="45.23901" lon="6.22515">
        <ele>2266.2</ele>
        <time>2021-02-27T14:37:43Z</time>
      </trkpt>
      <trkpt lat="45.23898" lon="6.22519">
        <ele>2266.2</ele>
        <time>2021-02-27T14:37:44Z</time>
      </trkpt>
      <trkpt lat="45.23896" lon="6.22522">
        <ele>2266.2</ele>
        <time>2021-02-27T14:37:45Z</time>
      </trkpt>
      <trkpt lat="45.23893" lon="6.22525">
        <ele>2266.2</ele>
        <time>2021-02-27T14:37:46Z</time>
      </trkpt>
      <trkpt lat="45.2389" lon="6.22529">
        <ele>2266.2</ele>
        <time>2021-02-27T14:37:47Z</time>
      </trkpt>
      <trkpt lat="45.23887" lon="6.22532">
        <ele>2266.2</ele>
        <time>2021-02-27T14:37:48Z</time>
      </trkpt>
      <trkpt lat="45.23885" lon="6.22535">
        <ele>2266.2</ele>
        <time>2021-02-27T14:37:49Z</time>
      </trkpt>
      <trkpt lat="45.23882" lon="6.22538">
        <ele>2266.2</ele>
        <time>2021-02-27T14:37:50Z</time>
      </trkpt>
      <trkpt lat="45.23879" lon="6.22542">
        <ele>2258</ele>
        <time>2021-02-27T14:37:51Z</time>
      </trkpt>
      <trkpt lat="45.23875" lon="6.22557">
        <ele>2258</ele>
        <time>2021-02-27T14:37:52Z</time>
      </trkpt>
      <trkpt lat="45.23874" lon="6.22566">
        <ele>2258</ele>
        <time>2021-02-27T14:37:53Z</time>
      </trkpt>
      <trkpt lat="45.23873" lon="6.22575">
        <ele>2258</ele>
        <time>2021-02-27T14:37:54Z</time>
      </trkpt>
      <trkpt lat="45.23872" lon="6.22585">
        <ele>2258</ele>
        <time>2021-02-27T14:37:55Z</time>
      </trkpt>
      <trkpt lat="45.23872" lon="6.22594">
        <ele>2258</ele>
        <time>2021-02-27T14:37:56Z</time>
      </trkpt>
      <trkpt lat="45.23871" lon="6.22603">
        <ele>2258</ele>
        <time>2021-02-27T14:37:57Z</time>
      </trkpt>
      <trkpt lat="45.2387" lon="6.22612">
        <ele>2258</ele>
        <time>2021-02-27T14:37:58Z</time>
      </trkpt>
      <trkpt lat="45.23869" lon="6.22621">
        <ele>2258</ele>
        <time>2021-02-27T14:37:59Z</time>
      </trkpt>
      <trkpt lat="45.23869" lon="6.2263">
        <ele>2258</ele>
        <time>2021-02-27T14:38:00Z</time>
      </trkpt>
      <trkpt lat="45.23868" lon="6.2264">
        <ele>2245.2</ele>
        <time>2021-02-27T14:38:01Z</time>
      </trkpt>
      <trkpt lat="45.23872" lon="6.22654">
        <ele>2245.2</ele>
        <time>2021-02-27T14:38:02Z</time>
      </trkpt>
      <trkpt lat="45.23874" lon="6.22659">
        <ele>2245.2</ele>
        <time>2021-02-27T14:38:03Z</time>
      </trkpt>
      <trkpt lat="45.23876" lon="6.22665">
        <ele>2245.2</ele>
        <time>2021-02-27T14:38:04Z</time>
      </trkpt>
      <trkpt lat="45.23878" lon="6.2267">
        <ele>2245.2</ele>
        <time>2021-02-27T14:38:05Z</time>
      </trkpt>
      <trkpt lat="45.23879" lon="6.22675">
        <ele>2245.2</ele>
        <time>2021-02-27T14:38:06Z</time>
      </trkpt>
      <trkpt lat="45.23881" lon="6.22681">
        <ele>2245.2</ele>
        <time>2021-02-27T14:38:07Z</time>
      </trkpt>
      <trkpt lat="45.23883" lon="6.22686">
        <ele>2245.2</ele>
        <time>2021-02-27T14:38:08Z</time>
      </trkpt>
      <trkpt lat="45.23885" lon="6.22691">
        <ele>2245.2</ele>
        <time>2021-02-27T14:38:09Z</time>
      </trkpt>
      <trkpt lat="45.23887" lon="6.22697">
        <ele>2245.2</ele>
        <time>2021-02-27T14:38:10Z</time>
      </trkpt>
      <trkpt lat="45.23889" lon="6.22702">
        <ele>2241</ele>
        <time>2021-02-27T14:38:11Z</time>
      </trkpt>
      <trkpt lat="45.23889" lon="6.22713">
        <ele>2241</ele>
        <time>2021-02-27T14:38:12Z</time>
      </trkpt>
      <trkpt lat="45.23887" lon="6.22718">
        <ele>2241</ele>
        <time>2021-02-27T14:38:13Z</time>
      </trkpt>
      <trkpt lat="45.23885" lon="6.22723">
        <ele>2241</ele>
        <time>2021-02-27T14:38:14Z</time>
      </trkpt>
      <trkpt lat="45.23883" lon="6.22729">
        <ele>2241</ele>
        <time>2021-02-27T14:38:15Z</time>
      </trkpt>
      <trkpt lat="45.23881" lon="6.22734">
        <ele>2241</ele>
        <time>2021-02-27T14:38:16Z</time>
      </trkpt>
      <trkpt lat="45.23878" lon="6.22739">
        <ele>2241</ele>
        <time>2021-02-27T14:38:17Z</time>
      </trkpt>
      <trkpt lat="45.23876" lon="6.22745">
        <ele>2241</ele>
        <time>2021-02-27T14:38:18Z</time>
      </trkpt>
      <trkpt lat="45.23874" lon="6.2275">
        <ele>2241</ele>
        <time>2021-02-27T14:38:19Z</time>
      </trkpt>
      <trkpt lat="45.23872" lon="6.22755">
        <ele>2241</ele>
        <time>2021-02-27T14:38:20Z</time>
      </trkpt>
      <trkpt lat="45.2387" lon="6.22761">
        <ele>2233.4</ele>
        <time>2021-02-27T14:38:21Z</time>
      </trkpt>
      <trkpt lat="45.2386" lon="6.22772">
        <ele>2233.4</ele>
        <time>2021-02-27T14:38:22Z</time>
      </trkpt>
      <trkpt lat="45.23855" lon="6.22778">
        <ele>2233.4</ele>
        <time>2021-02-27T14:38:23Z</time>
      </trkpt>
      <trkpt lat="45.2385" lon="6.22784">
        <ele>2233.4</ele>
        <time>2021-02-27T14:38:24Z</time>
      </trkpt>
      <trkpt lat="45.23846" lon="6.2279">
        <ele>2233.4</ele>
        <time>2021-02-27T14:38:25Z</time>
      </trkpt>
      <trkpt lat="45.23841" lon="6.22796">
        <ele>2233.4</ele>
        <time>2021-02-27T14:38:26Z</time>
      </trkpt>
      <trkpt lat="45.23836" lon="6.22802">
        <ele>2233.4</ele>
        <time>2021-02-27T14:38:27Z</time>
      </trkpt>
      <trkpt lat="45.23832" lon="6.22808">
        <ele>2233.4</ele>
        <time>2021-02-27T14:38:28Z</time>
      </trkpt>
      <trkpt lat="45.23827" lon="6.22814">
        <ele>2233.4</ele>
        <time>2021-02-27T14:38:29Z</time>
      </trkpt>
      <trkpt lat="45.23822" lon="6.2282">
        <ele>2233.4</ele>
        <time>2021-02-27T14:38:30Z</time>
      </trkpt>
      <trkpt lat="45.23818" lon="6.22826">
        <ele>2223.2</ele>
        <time>2021-02-27T14:38:31Z</time>
      </trkpt>
      <trkpt lat="45.23816" lon="6.2284">
        <ele>2223.2</ele>
        <time>2021-02-27T14:38:32Z</time>
      </trkpt>
      <trkpt lat="45.23817" lon="6.22844">
        <ele>2223.2</ele>
        <time>2021-02-27T14:38:33Z</time>
      </trkpt>
      <trkpt lat="45.23817" lon="6.22848">
        <ele>2223.2</ele>
        <time>2021-02-27T14:38:34Z</time>
      </trkpt>
      <trkpt lat="45.23817" lon="6.22851">
        <ele>2223.2</ele>
        <time>2021-02-27T14:38:35Z</time>
      </trkpt>
      <trkpt lat="45.23818" lon="6.22855">
        <ele>2223.2</ele>
        <time>2021-02-27T14:38:36Z</time>
      </trkpt>
      <trkpt lat="45.23818" lon="6.22859">
        <ele>2223.2</ele>
        <time>2021-02-27T14:38:37Z</time>
      </trkpt>
      <trkpt lat="45.23818" lon="6.22862">
        <ele>2223.2</ele>
        <time>2021-02-27T14:38:38Z</time>
      </trkpt>
      <trkpt lat="45.23819" lon="6.22866">
        <ele>2223.2</ele>
        <time>2021-02-27T14:38:40Z</time>
      </trkpt>
      <trkpt lat="45.23819" lon="6.2287">
        <ele>2215.4</ele>
        <time>2021-02-27T14:38:41Z</time>
      </trkpt>
      <trkpt lat="45.23822" lon="6.22873">
        <ele>2213.8</ele>
        <time>2021-02-27T14:38:51Z</time>
      </trkpt>
      <trkpt lat="45.23825" lon="6.22877">
        <ele>2214</ele>
        <time>2021-02-27T14:39:01Z</time>
      </trkpt>
      <trkpt lat="45.23828" lon="6.2288">
        <ele>2214.2</ele>
        <time>2021-02-27T14:39:11Z</time>
      </trkpt>
      <trkpt lat="45.23831" lon="6.22884">
        <ele>2214.2</ele>
        <time>2021-02-27T14:39:21Z</time>
      </trkpt>
      <trkpt lat="45.23835" lon="6.22887">
        <ele>2213.8</ele>
        <time>2021-02-27T14:39:31Z</time>
      </trkpt>
      <trkpt lat="45.23838" lon="6.2289">
        <ele>2214</ele>
        <time>2021-02-27T14:39:41Z</time>
      </trkpt>
      <trkpt lat="45.23841" lon="6.22894">
        <ele>2214</ele>
        <time>2021-02-27T14:39:51Z</time>
      </trkpt>
      <trkpt lat="45.23844" lon="6.22897">
        <ele>2214</ele>
        <time>2021-02-27T14:39:52Z</time>
      </trkpt>
      <trkpt lat="45.23847" lon="6.22901">
        <ele>2214</ele>
        <time>2021-02-27T14:39:53Z</time>
      </trkpt>
      <trkpt lat="45.2385" lon="6.22904">
        <ele>2214</ele>
        <time>2021-02-27T14:39:54Z</time>
      </trkpt>
      <trkpt lat="45.23853" lon="6.22908">
        <ele>2214</ele>
        <time>2021-02-27T14:39:55Z</time>
      </trkpt>
      <trkpt lat="45.23857" lon="6.22911">
        <ele>2214</ele>
        <time>2021-02-27T14:39:56Z</time>
      </trkpt>
      <trkpt lat="45.2386" lon="6.22914">
        <ele>2214</ele>
        <time>2021-02-27T14:39:57Z</time>
      </trkpt>
      <trkpt lat="45.23863" lon="6.22918">
        <ele>2214</ele>
        <time>2021-02-27T14:39:58Z</time>
      </trkpt>
      <trkpt lat="45.23866" lon="6.22921">
        <ele>2214</ele>
        <time>2021-02-27T14:39:59Z</time>
      </trkpt>
      <trkpt lat="45.23869" lon="6.22925">
        <ele>2214</ele>
        <time>2021-02-27T14:40:00Z</time>
      </trkpt>
      <trkpt lat="45.23872" lon="6.22928">
        <ele>2204.4</ele>
        <time>2021-02-27T14:40:01Z</time>
      </trkpt>
      <trkpt lat="45.23879" lon="6.22935">
        <ele>2204.4</ele>
        <time>2021-02-27T14:40:02Z</time>
      </trkpt>
      <trkpt lat="45.2388" lon="6.2294">
        <ele>2204.4</ele>
        <time>2021-02-27T14:40:03Z</time>
      </trkpt>
      <trkpt lat="45.23881" lon="6.22944">
        <ele>2204.4</ele>
        <time>2021-02-27T14:40:04Z</time>
      </trkpt>
      <trkpt lat="45.23882" lon="6.22949">
        <ele>2204.4</ele>
        <time>2021-02-27T14:40:05Z</time>
      </trkpt>
      <trkpt lat="45.23883" lon="6.22954">
        <ele>2204.4</ele>
        <time>2021-02-27T14:40:06Z</time>
      </trkpt>
      <trkpt lat="45.23884" lon="6.22958">
        <ele>2204.4</ele>
        <time>2021-02-27T14:40:07Z</time>
      </trkpt>
      <trkpt lat="45.23885" lon="6.22963">
        <ele>2204.4</ele>
        <time>2021-02-27T14:40:08Z</time>
      </trkpt>
      <trkpt lat="45.23886" lon="6.22968">
        <ele>2204.4</ele>
        <time>2021-02-27T14:40:09Z</time>
      </trkpt>
      <trkpt lat="45.23887" lon="6.22972">
        <ele>2204.4</ele>
        <time>2021-02-27T14:40:10Z</time>
      </trkpt>
      <trkpt lat="45.23888" lon="6.22977">
        <ele>2193.6</ele>
        <time>2021-02-27T14:40:11Z</time>
      </trkpt>
      <trkpt lat="45.23897" lon="6.22991">
        <ele>2193.6</ele>
        <time>2021-02-27T14:40:12Z</time>
      </trkpt>
      <trkpt lat="45.23898" lon="6.22999">
        <ele>2193.6</ele>
        <time>2021-02-27T14:40:13Z</time>
      </trkpt>
      <trkpt lat="45.239" lon="6.23008">
        <ele>2193.6</ele>
        <time>2021-02-27T14:40:14Z</time>
      </trkpt>
      <trkpt lat="45.23902" lon="6.23016">
        <ele>2193.6</ele>
        <time>2021-02-27T14:40:15Z</time>
      </trkpt>
      <trkpt lat="45.23904" lon="6.23024">
        <ele>2193.6</ele>
        <time>2021-02-27T14:40:16Z</time>
      </trkpt>
      <trkpt lat="45.23905" lon="6.23032">
        <ele>2193.6</ele>
        <time>2021-02-27T14:40:17Z</time>
      </trkpt>
      <trkpt lat="45.23907" lon="6.23041">
        <ele>2193.6</ele>
        <time>2021-02-27T14:40:18Z</time>
      </trkpt>
      <trkpt lat="45.23909" lon="6.23049">
        <ele>2193.6</ele>
        <time>2021-02-27T14:40:19Z</time>
      </trkpt>
      <trkpt lat="45.2391" lon="6.23057">
        <ele>2193.6</ele>
        <time>2021-02-27T14:40:20Z</time>
      </trkpt>
      <trkpt lat="45.23912" lon="6.23065">
        <ele>2176.4</ele>
        <time>2021-02-27T14:40:21Z</time>
      </trkpt>
      <trkpt lat="45.23912" lon="6.23079">
        <ele>2176.4</ele>
        <time>2021-02-27T14:40:22Z</time>
      </trkpt>
      <trkpt lat="45.23912" lon="6.23083">
        <ele>2176.4</ele>
        <time>2021-02-27T14:40:23Z</time>
      </trkpt>
      <trkpt lat="45.23912" lon="6.23086">
        <ele>2176.4</ele>
        <time>2021-02-27T14:40:24Z</time>
      </trkpt>
      <trkpt lat="45.23912" lon="6.2309">
        <ele>2176.4</ele>
        <time>2021-02-27T14:40:25Z</time>
      </trkpt>
      <trkpt lat="45.23912" lon="6.23094">
        <ele>2176.4</ele>
        <time>2021-02-27T14:40:26Z</time>
      </trkpt>
      <trkpt lat="45.23912" lon="6.23098">
        <ele>2176.4</ele>
        <time>2021-02-27T14:40:27Z</time>
      </trkpt>
      <trkpt lat="45.23912" lon="6.23101">
        <ele>2176.4</ele>
        <time>2021-02-27T14:40:28Z</time>
      </trkpt>
      <trkpt lat="45.23912" lon="6.23105">
        <ele>2176.4</ele>
        <time>2021-02-27T14:40:29Z</time>
      </trkpt>
      <trkpt lat="45.23912" lon="6.23109">
        <ele>2176.4</ele>
        <time>2021-02-27T14:40:30Z</time>
      </trkpt>
      <trkpt lat="45.23912" lon="6.23113">
        <ele>2172.8</ele>
        <time>2021-02-27T14:40:31Z</time>
      </trkpt>
      <trkpt lat="45.23912" lon="6.23116">
        <ele>2172.8</ele>
        <time>2021-02-27T14:40:33Z</time>
      </trkpt>
      <trkpt lat="45.23912" lon="6.23116">
        <ele>2173.4</ele>
        <time>2021-02-27T14:40:41Z</time>
      </trkpt>
      <trkpt lat="45.23912" lon="6.23117">
        <ele>2173.4</ele>
        <time>2021-02-27T14:40:51Z</time>
      </trkpt>
      <trkpt lat="45.23912" lon="6.23118">
        <ele>2173.8</ele>
        <time>2021-02-27T14:41:01Z</time>
      </trkpt>
      <trkpt lat="45.23912" lon="6.23119">
        <ele>2173.8</ele>
        <time>2021-02-27T14:41:11Z</time>
      </trkpt>
      <trkpt lat="45.23912" lon="6.2312">
        <ele>2175</ele>
        <time>2021-02-27T14:41:21Z</time>
      </trkpt>
      <trkpt lat="45.23912" lon="6.23121">
        <ele>2174.4</ele>
        <time>2021-02-27T14:41:31Z</time>
      </trkpt>
      <trkpt lat="45.23912" lon="6.23122">
        <ele>2174.6</ele>
        <time>2021-02-27T14:41:41Z</time>
      </trkpt>
      <trkpt lat="45.23913" lon="6.23122">
        <ele>2173.8</ele>
        <time>2021-02-27T14:41:51Z</time>
      </trkpt>
      <trkpt lat="45.23913" lon="6.23123">
        <ele>2175</ele>
        <time>2021-02-27T14:42:01Z</time>
      </trkpt>
      <trkpt lat="45.23913" lon="6.23124">
        <ele>2174.4</ele>
        <time>2021-02-27T14:42:11Z</time>
      </trkpt>
      <trkpt lat="45.23913" lon="6.23125">
        <ele>2174.2</ele>
        <time>2021-02-27T14:42:21Z</time>
      </trkpt>
      <trkpt lat="45.23913" lon="6.23126">
        <ele>2174.2</ele>
        <time>2021-02-27T14:42:31Z</time>
      </trkpt>
      <trkpt lat="45.23913" lon="6.23127">
        <ele>2174.6</ele>
        <time>2021-02-27T14:42:41Z</time>
      </trkpt>
      <trkpt lat="45.23913" lon="6.23127">
        <ele>2174.2</ele>
        <time>2021-02-27T14:42:51Z</time>
      </trkpt>
      <trkpt lat="45.23913" lon="6.23128">
        <ele>2174.4</ele>
        <time>2021-02-27T14:43:01Z</time>
      </trkpt>
      <trkpt lat="45.23913" lon="6.23129">
        <ele>2174.8</ele>
        <time>2021-02-27T14:43:11Z</time>
      </trkpt>
      <trkpt lat="45.23913" lon="6.2313">
        <ele>2175.4</ele>
        <time>2021-02-27T14:43:21Z</time>
      </trkpt>
      <trkpt lat="45.23913" lon="6.23131">
        <ele>2175.8</ele>
        <time>2021-02-27T14:43:31Z</time>
      </trkpt>
      <trkpt lat="45.23913" lon="6.23132">
        <ele>2175.8</ele>
        <time>2021-02-27T14:43:36Z</time>
      </trkpt>
      <trkpt lat="45.23913" lon="6.23133">
        <ele>2175.8</ele>
        <time>2021-02-27T14:43:38Z</time>
      </trkpt>
      <trkpt lat="45.23913" lon="6.23133">
        <ele>2175.8</ele>
        <time>2021-02-27T14:43:40Z</time>
      </trkpt>
      <trkpt lat="45.23913" lon="6.23134">
        <ele>2175</ele>
        <time>2021-02-27T14:43:41Z</time>
      </trkpt>
      <trkpt lat="45.23913" lon="6.23136">
        <ele>2175</ele>
        <time>2021-02-27T14:43:42Z</time>
      </trkpt>
      <trkpt lat="45.23914" lon="6.2314">
        <ele>2175</ele>
        <time>2021-02-27T14:43:44Z</time>
      </trkpt>
      <trkpt lat="45.23914" lon="6.23144">
        <ele>2175</ele>
        <time>2021-02-27T14:43:46Z</time>
      </trkpt>
      <trkpt lat="45.23915" lon="6.23146">
        <ele>2175</ele>
        <time>2021-02-27T14:43:48Z</time>
      </trkpt>
      <trkpt lat="45.23916" lon="6.2315">
        <ele>2176.2</ele>
        <time>2021-02-27T14:43:51Z</time>
      </trkpt>
      <trkpt lat="45.23917" lon="6.23152">
        <ele>2176.2</ele>
        <time>2021-02-27T14:43:53Z</time>
      </trkpt>
      <trkpt lat="45.23917" lon="6.23155">
        <ele>2176.2</ele>
        <time>2021-02-27T14:43:55Z</time>
      </trkpt>
      <trkpt lat="45.23918" lon="6.23158">
        <ele>2176.2</ele>
        <time>2021-02-27T14:43:57Z</time>
      </trkpt>
      <trkpt lat="45.23918" lon="6.2316">
        <ele>2176.2</ele>
        <time>2021-02-27T14:43:59Z</time>
      </trkpt>
      <trkpt lat="45.23919" lon="6.23163">
        <ele>2177.8</ele>
        <time>2021-02-27T14:44:01Z</time>
      </trkpt>
      <trkpt lat="45.23918" lon="6.23166">
        <ele>2177.8</ele>
        <time>2021-02-27T14:44:03Z</time>
      </trkpt>
      <trkpt lat="45.23918" lon="6.23168">
        <ele>2177.8</ele>
        <time>2021-02-27T14:44:05Z</time>
      </trkpt>
      <trkpt lat="45.23918" lon="6.23171">
        <ele>2177.8</ele>
        <time>2021-02-27T14:44:07Z</time>
      </trkpt>
      <trkpt lat="45.23919" lon="6.23174">
        <ele>2177.8</ele>
        <time>2021-02-27T14:44:09Z</time>
      </trkpt>
      <trkpt lat="45.23918" lon="6.23176">
        <ele>2178.4</ele>
        <time>2021-02-27T14:44:11Z</time>
      </trkpt>
      <trkpt lat="45.23917" lon="6.23179">
        <ele>2178.4</ele>
        <time>2021-02-27T14:44:13Z</time>
      </trkpt>
      <trkpt lat="45.23917" lon="6.23182">
        <ele>2178.4</ele>
        <time>2021-02-27T14:44:15Z</time>
      </trkpt>
      <trkpt lat="45.23916" lon="6.23185">
        <ele>2178.4</ele>
        <time>2021-02-27T14:44:17Z</time>
      </trkpt>
      <trkpt lat="45.23916" lon="6.23188">
        <ele>2178.4</ele>
        <time>2021-02-27T14:44:19Z</time>
      </trkpt>
      <trkpt lat="45.23916" lon="6.23188">
        <ele>2180.2</ele>
        <time>2021-02-27T14:44:21Z</time>
      </trkpt>
      <trkpt lat="45.23915" lon="6.23192">
        <ele>2180.2</ele>
        <time>2021-02-27T14:44:22Z</time>
      </trkpt>
      <trkpt lat="45.23914" lon="6.23196">
        <ele>2180.2</ele>
        <time>2021-02-27T14:44:25Z</time>
      </trkpt>
      <trkpt lat="45.23914" lon="6.23198">
        <ele>2180.2</ele>
        <time>2021-02-27T14:44:27Z</time>
      </trkpt>
      <trkpt lat="45.23913" lon="6.23201">
        <ele>2181.2</ele>
        <time>2021-02-27T14:44:31Z</time>
      </trkpt>
      <trkpt lat="45.23912" lon="6.23203">
        <ele>2181.2</ele>
        <time>2021-02-27T14:44:34Z</time>
      </trkpt>
      <trkpt lat="45.23911" lon="6.23206">
        <ele>2181.2</ele>
        <time>2021-02-27T14:44:37Z</time>
      </trkpt>
      <trkpt lat="45.23909" lon="6.23208">
        <ele>2181.2</ele>
        <time>2021-02-27T14:44:39Z</time>
      </trkpt>
      <trkpt lat="45.23908" lon="6.2321">
        <ele>2181.6</ele>
        <time>2021-02-27T14:44:41Z</time>
      </trkpt>
      <trkpt lat="45.23906" lon="6.23213">
        <ele>2181.6</ele>
        <time>2021-02-27T14:44:44Z</time>
      </trkpt>
      <trkpt lat="45.23906" lon="6.23214">
        <ele>2182.8</ele>
        <time>2021-02-27T14:44:51Z</time>
      </trkpt>
      <trkpt lat="45.23906" lon="6.23215">
        <ele>2183</ele>
        <time>2021-02-27T14:45:01Z</time>
      </trkpt>
      <trkpt lat="45.23906" lon="6.23216">
        <ele>2182.4</ele>
        <time>2021-02-27T14:45:11Z</time>
      </trkpt>
      <trkpt lat="45.23906" lon="6.23217">
        <ele>2184</ele>
        <time>2021-02-27T14:45:21Z</time>
      </trkpt>
      <trkpt lat="45.23905" lon="6.23218">
        <ele>2184</ele>
        <time>2021-02-27T14:45:28Z</time>
      </trkpt>
      <trkpt lat="45.23905" lon="6.23219">
        <ele>2184</ele>
        <time>2021-02-27T14:45:30Z</time>
      </trkpt>
      <trkpt lat="45.23905" lon="6.2322">
        <ele>2184.4</ele>
        <time>2021-02-27T14:45:31Z</time>
      </trkpt>
      <trkpt lat="45.23905" lon="6.23226">
        <ele>2184.4</ele>
        <time>2021-02-27T14:45:32Z</time>
      </trkpt>
      <trkpt lat="45.23904" lon="6.23228">
        <ele>2184.4</ele>
        <time>2021-02-27T14:45:34Z</time>
      </trkpt>
      <trkpt lat="45.23904" lon="6.2323">
        <ele>2184.4</ele>
        <time>2021-02-27T14:45:36Z</time>
      </trkpt>
      <trkpt lat="45.23903" lon="6.23231">
        <ele>2185.6</ele>
        <time>2021-02-27T14:45:41Z</time>
      </trkpt>
      <trkpt lat="45.23903" lon="6.23233">
        <ele>2185.6</ele>
        <time>2021-02-27T14:45:42Z</time>
      </trkpt>
      <trkpt lat="45.23902" lon="6.23235">
        <ele>2185.6</ele>
        <time>2021-02-27T14:45:45Z</time>
      </trkpt>
      <trkpt lat="45.23902" lon="6.23237">
        <ele>2186</ele>
        <time>2021-02-27T14:45:51Z</time>
      </trkpt>
      <trkpt lat="45.23901" lon="6.23238">
        <ele>2186</ele>
        <time>2021-02-27T14:45:57Z</time>
      </trkpt>
      <trkpt lat="45.23901" lon="6.2324">
        <ele>2186</ele>
        <time>2021-02-27T14:46:00Z</time>
      </trkpt>
      <trkpt lat="45.239" lon="6.23242">
        <ele>2186.6</ele>
        <time>2021-02-27T14:46:01Z</time>
      </trkpt>
      <trkpt lat="45.23899" lon="6.23247">
        <ele>2186.6</ele>
        <time>2021-02-27T14:46:02Z</time>
      </trkpt>
      <trkpt lat="45.23898" lon="6.23249">
        <ele>2186.6</ele>
        <time>2021-02-27T14:46:05Z</time>
      </trkpt>
      <trkpt lat="45.23897" lon="6.23251">
        <ele>2186.6</ele>
        <time>2021-02-27T14:46:08Z</time>
      </trkpt>
      <trkpt lat="45.23897" lon="6.23253">
        <ele>2186.6</ele>
        <time>2021-02-27T14:46:10Z</time>
      </trkpt>
      <trkpt lat="45.23896" lon="6.23255">
        <ele>2187.8</ele>
        <time>2021-02-27T14:46:11Z</time>
      </trkpt>
      <trkpt lat="45.23895" lon="6.2326">
        <ele>2187.8</ele>
        <time>2021-02-27T14:46:12Z</time>
      </trkpt>
      <trkpt lat="45.23894" lon="6.23262">
        <ele>2187.8</ele>
        <time>2021-02-27T14:46:14Z</time>
      </trkpt>
      <trkpt lat="45.23894" lon="6.23264">
        <ele>2187.8</ele>
        <time>2021-02-27T14:46:16Z</time>
      </trkpt>
      <trkpt lat="45.23893" lon="6.23266">
        <ele>2187.8</ele>
        <time>2021-02-27T14:46:18Z</time>
      </trkpt>
      <trkpt lat="45.23892" lon="6.23268">
        <ele>2187.8</ele>
        <time>2021-02-27T14:46:20Z</time>
      </trkpt>
      <trkpt lat="45.23892" lon="6.2327">
        <ele>2188.4</ele>
        <time>2021-02-27T14:46:21Z</time>
      </trkpt>
      <trkpt lat="45.2389" lon="6.23274">
        <ele>2188.4</ele>
        <time>2021-02-27T14:46:22Z</time>
      </trkpt>
      <trkpt lat="45.23889" lon="6.23276">
        <ele>2188.4</ele>
        <time>2021-02-27T14:46:24Z</time>
      </trkpt>
      <trkpt lat="45.23889" lon="6.23279">
        <ele>2188.4</ele>
        <time>2021-02-27T14:46:26Z</time>
      </trkpt>
      <trkpt lat="45.23888" lon="6.23281">
        <ele>2188.4</ele>
        <time>2021-02-27T14:46:28Z</time>
      </trkpt>
      <trkpt lat="45.23887" lon="6.23283">
        <ele>2188.4</ele>
        <time>2021-02-27T14:46:30Z</time>
      </trkpt>
      <trkpt lat="45.23886" lon="6.23286">
        <ele>2189.4</ele>
        <time>2021-02-27T14:46:31Z</time>
      </trkpt>
      <trkpt lat="45.23885" lon="6.23287">
        <ele>2189.4</ele>
        <time>2021-02-27T14:46:32Z</time>
      </trkpt>
      <trkpt lat="45.23885" lon="6.23291">
        <ele>2189.4</ele>
        <time>2021-02-27T14:46:34Z</time>
      </trkpt>
      <trkpt lat="45.23884" lon="6.23295">
        <ele>2189.4</ele>
        <time>2021-02-27T14:46:37Z</time>
      </trkpt>
      <trkpt lat="45.23883" lon="6.23297">
        <ele>2189.4</ele>
        <time>2021-02-27T14:46:39Z</time>
      </trkpt>
      <trkpt lat="45.23882" lon="6.233">
        <ele>2188.8</ele>
        <time>2021-02-27T14:46:41Z</time>
      </trkpt>
      <trkpt lat="45.23882" lon="6.23303">
        <ele>2188.8</ele>
        <time>2021-02-27T14:46:43Z</time>
      </trkpt>
      <trkpt lat="45.2388" lon="6.23305">
        <ele>2188.8</ele>
        <time>2021-02-27T14:46:45Z</time>
      </trkpt>
      <trkpt lat="45.2388" lon="6.23307">
        <ele>2188.8</ele>
        <time>2021-02-27T14:46:47Z</time>
      </trkpt>
      <trkpt lat="45.2388" lon="6.2331">
        <ele>2188.8</ele>
        <time>2021-02-27T14:46:49Z</time>
      </trkpt>
      <trkpt lat="45.23878" lon="6.23313">
        <ele>2189</ele>
        <time>2021-02-27T14:46:51Z</time>
      </trkpt>
      <trkpt lat="45.23878" lon="6.23316">
        <ele>2189</ele>
        <time>2021-02-27T14:46:53Z</time>
      </trkpt>
      <trkpt lat="45.23877" lon="6.23319">
        <ele>2189</ele>
        <time>2021-02-27T14:46:55Z</time>
      </trkpt>
      <trkpt lat="45.23876" lon="6.23322">
        <ele>2189</ele>
        <time>2021-02-27T14:46:57Z</time>
      </trkpt>
      <trkpt lat="45.23876" lon="6.23324">
        <ele>2189</ele>
        <time>2021-02-27T14:46:59Z</time>
      </trkpt>
      <trkpt lat="45.23875" lon="6.23327">
        <ele>2189.2</ele>
        <time>2021-02-27T14:47:01Z</time>
      </trkpt>
      <trkpt lat="45.23874" lon="6.23332">
        <ele>2189.2</ele>
        <time>2021-02-27T14:47:03Z</time>
      </trkpt>
      <trkpt lat="45.23873" lon="6.23335">
        <ele>2189.2</ele>
        <time>2021-02-27T14:47:05Z</time>
      </trkpt>
      <trkpt lat="45.23872" lon="6.23337">
        <ele>2189.2</ele>
        <time>2021-02-27T14:47:08Z</time>
      </trkpt>
      <trkpt lat="45.23872" lon="6.23339">
        <ele>2189.2</ele>
        <time>2021-02-27T14:47:10Z</time>
      </trkpt>
      <trkpt lat="45.23871" lon="6.23341">
        <ele>2188.8</ele>
        <time>2021-02-27T14:47:11Z</time>
      </trkpt>
      <trkpt lat="45.2387" lon="6.23345">
        <ele>2188.8</ele>
        <time>2021-02-27T14:47:12Z</time>
      </trkpt>
      <trkpt lat="45.23869" lon="6.23347">
        <ele>2188.8</ele>
        <time>2021-02-27T14:47:14Z</time>
      </trkpt>
      <trkpt lat="45.23869" lon="6.2335">
        <ele>2188.8</ele>
        <time>2021-02-27T14:47:16Z</time>
      </trkpt>
      <trkpt lat="45.23868" lon="6.23352">
        <ele>2188.8</ele>
        <time>2021-02-27T14:47:18Z</time>
      </trkpt>
      <trkpt lat="45.23867" lon="6.23354">
        <ele>2188.8</ele>
        <time>2021-02-27T14:47:20Z</time>
      </trkpt>
      <trkpt lat="45.23867" lon="6.23357">
        <ele>2189.2</ele>
        <time>2021-02-27T14:47:21Z</time>
      </trkpt>
      <trkpt lat="45.23867" lon="6.23358">
        <ele>2189.2</ele>
        <time>2021-02-27T14:47:22Z</time>
      </trkpt>
      <trkpt lat="45.23866" lon="6.23362">
        <ele>2189.2</ele>
        <time>2021-02-27T14:47:24Z</time>
      </trkpt>
      <trkpt lat="45.23865" lon="6.23365">
        <ele>2189.2</ele>
        <time>2021-02-27T14:47:26Z</time>
      </trkpt>
      <trkpt lat="45.23864" lon="6.23369">
        <ele>2189.2</ele>
        <time>2021-02-27T14:47:29Z</time>
      </trkpt>
      <trkpt lat="45.23863" lon="6.23372">
        <ele>2189.8</ele>
        <time>2021-02-27T14:47:31Z</time>
      </trkpt>
      <trkpt lat="45.23862" lon="6.23377">
        <ele>2189.8</ele>
        <time>2021-02-27T14:47:34Z</time>
      </trkpt>
      <trkpt lat="45.23861" lon="6.23379">
        <ele>2189.8</ele>
        <time>2021-02-27T14:47:36Z</time>
      </trkpt>
      <trkpt lat="45.23861" lon="6.23381">
        <ele>2189.8</ele>
        <time>2021-02-27T14:47:38Z</time>
      </trkpt>
      <trkpt lat="45.2386" lon="6.23383">
        <ele>2189.8</ele>
        <time>2021-02-27T14:47:40Z</time>
      </trkpt>
      <trkpt lat="45.23859" lon="6.23385">
        <ele>2190.8</ele>
        <time>2021-02-27T14:47:41Z</time>
      </trkpt>
      <trkpt lat="45.23859" lon="6.23387">
        <ele>2190.8</ele>
        <time>2021-02-27T14:47:43Z</time>
      </trkpt>
      <trkpt lat="45.23858" lon="6.2339">
        <ele>2190.8</ele>
        <time>2021-02-27T14:47:45Z</time>
      </trkpt>
      <trkpt lat="45.23857" lon="6.23393">
        <ele>2190.8</ele>
        <time>2021-02-27T14:47:48Z</time>
      </trkpt>
      <trkpt lat="45.23856" lon="6.23396">
        <ele>2192</ele>
        <time>2021-02-27T14:47:51Z</time>
      </trkpt>
      <trkpt lat="45.23855" lon="6.234">
        <ele>2192</ele>
        <time>2021-02-27T14:47:54Z</time>
      </trkpt>
      <trkpt lat="45.23855" lon="6.23401">
        <ele>2192</ele>
        <time>2021-02-27T14:48:00Z</time>
      </trkpt>
      <trkpt lat="45.23855" lon="6.23402">
        <ele>2193.4</ele>
        <time>2021-02-27T14:48:01Z</time>
      </trkpt>
      <trkpt lat="45.23854" lon="6.23405">
        <ele>2193.4</ele>
        <time>2021-02-27T14:48:04Z</time>
      </trkpt>
      <trkpt lat="45.23852" lon="6.23407">
        <ele>2193.4</ele>
        <time>2021-02-27T14:48:07Z</time>
      </trkpt>
      <trkpt lat="45.23851" lon="6.23409">
        <ele>2193.4</ele>
        <time>2021-02-27T14:48:09Z</time>
      </trkpt>
      <trkpt lat="45.23851" lon="6.23409">
        <ele>2194.4</ele>
        <time>2021-02-27T14:48:11Z</time>
      </trkpt>
      <trkpt lat="45.2385" lon="6.23413">
        <ele>2194.4</ele>
        <time>2021-02-27T14:48:12Z</time>
      </trkpt>
      <trkpt lat="45.2385" lon="6.23416">
        <ele>2194.4</ele>
        <time>2021-02-27T14:48:15Z</time>
      </trkpt>
      <trkpt lat="45.23849" lon="6.23418">
        <ele>2194.4</ele>
        <time>2021-02-27T14:48:17Z</time>
      </trkpt>
      <trkpt lat="45.23848" lon="6.23421">
        <ele>2194.4</ele>
        <time>2021-02-27T14:48:19Z</time>
      </trkpt>
      <trkpt lat="45.23847" lon="6.23424">
        <ele>2196.2</ele>
        <time>2021-02-27T14:48:21Z</time>
      </trkpt>
      <trkpt lat="45.23846" lon="6.23426">
        <ele>2196.2</ele>
        <time>2021-02-27T14:48:23Z</time>
      </trkpt>
      <trkpt lat="45.23846" lon="6.23429">
        <ele>2196.2</ele>
        <time>2021-02-27T14:48:25Z</time>
      </trkpt>
      <trkpt lat="45.23845" lon="6.23432">
        <ele>2196.2</ele>
        <time>2021-02-27T14:48:27Z</time>
      </trkpt>
      <trkpt lat="45.23844" lon="6.23435">
        <ele>2196.2</ele>
        <time>2021-02-27T14:48:29Z</time>
      </trkpt>
      <trkpt lat="45.23843" lon="6.23438">
        <ele>2198</ele>
        <time>2021-02-27T14:48:31Z</time>
      </trkpt>
      <trkpt lat="45.23842" lon="6.23441">
        <ele>2198</ele>
        <time>2021-02-27T14:48:33Z</time>
      </trkpt>
      <trkpt lat="45.23842" lon="6.23443">
        <ele>2198</ele>
        <time>2021-02-27T14:48:35Z</time>
      </trkpt>
      <trkpt lat="45.2384" lon="6.23446">
        <ele>2198</ele>
        <time>2021-02-27T14:48:37Z</time>
      </trkpt>
      <trkpt lat="45.2384" lon="6.23449">
        <ele>2198</ele>
        <time>2021-02-27T14:48:39Z</time>
      </trkpt>
      <trkpt lat="45.23839" lon="6.23452">
        <ele>2200.2</ele>
        <time>2021-02-27T14:48:41Z</time>
      </trkpt>
      <trkpt lat="45.23838" lon="6.23455">
        <ele>2200.2</ele>
        <time>2021-02-27T14:48:43Z</time>
      </trkpt>
      <trkpt lat="45.23837" lon="6.23459">
        <ele>2200.2</ele>
        <time>2021-02-27T14:48:45Z</time>
      </trkpt>
      <trkpt lat="45.23836" lon="6.23462">
        <ele>2200.2</ele>
        <time>2021-02-27T14:48:47Z</time>
      </trkpt>
      <trkpt lat="45.23835" lon="6.23464">
        <ele>2200.2</ele>
        <time>2021-02-27T14:48:49Z</time>
      </trkpt>
      <trkpt lat="45.23834" lon="6.23468">
        <ele>2200.4</ele>
        <time>2021-02-27T14:48:51Z</time>
      </trkpt>
      <trkpt lat="45.23834" lon="6.23471">
        <ele>2200.4</ele>
        <time>2021-02-27T14:48:53Z</time>
      </trkpt>
      <trkpt lat="45.23832" lon="6.23474">
        <ele>2200.4</ele>
        <time>2021-02-27T14:48:55Z</time>
      </trkpt>
      <trkpt lat="45.23831" lon="6.23477">
        <ele>2200.4</ele>
        <time>2021-02-27T14:48:57Z</time>
      </trkpt>
      <trkpt lat="45.2383" lon="6.2348">
        <ele>2200.4</ele>
        <time>2021-02-27T14:48:59Z</time>
      </trkpt>
      <trkpt lat="45.23829" lon="6.23483">
        <ele>2202.6</ele>
        <time>2021-02-27T14:49:01Z</time>
      </trkpt>
      <trkpt lat="45.23829" lon="6.23486">
        <ele>2202.6</ele>
        <time>2021-02-27T14:49:03Z</time>
      </trkpt>
      <trkpt lat="45.23827" lon="6.23489">
        <ele>2202.6</ele>
        <time>2021-02-27T14:49:05Z</time>
      </trkpt>
      <trkpt lat="45.23826" lon="6.23492">
        <ele>2202.6</ele>
        <time>2021-02-27T14:49:07Z</time>
      </trkpt>
      <trkpt lat="45.23824" lon="6.23495">
        <ele>2202.6</ele>
        <time>2021-02-27T14:49:09Z</time>
      </trkpt>
      <trkpt lat="45.23822" lon="6.23497">
        <ele>2204.6</ele>
        <time>2021-02-27T14:49:11Z</time>
      </trkpt>
      <trkpt lat="45.23821" lon="6.23499">
        <ele>2204.6</ele>
        <time>2021-02-27T14:49:13Z</time>
      </trkpt>
      <trkpt lat="45.2382" lon="6.23502">
        <ele>2204.6</ele>
        <time>2021-02-27T14:49:15Z</time>
      </trkpt>
      <trkpt lat="45.23819" lon="6.23505">
        <ele>2204.6</ele>
        <time>2021-02-27T14:49:17Z</time>
      </trkpt>
      <trkpt lat="45.23818" lon="6.23508">
        <ele>2204.6</ele>
        <time>2021-02-27T14:49:19Z</time>
      </trkpt>
      <trkpt lat="45.23817" lon="6.23511">
        <ele>2206.2</ele>
        <time>2021-02-27T14:49:21Z</time>
      </trkpt>
      <trkpt lat="45.23816" lon="6.23518">
        <ele>2206.2</ele>
        <time>2021-02-27T14:49:23Z</time>
      </trkpt>
      <trkpt lat="45.23816" lon="6.23521">
        <ele>2206.2</ele>
        <time>2021-02-27T14:49:25Z</time>
      </trkpt>
      <trkpt lat="45.23815" lon="6.23523">
        <ele>2206.2</ele>
        <time>2021-02-27T14:49:27Z</time>
      </trkpt>
      <trkpt lat="45.23815" lon="6.23526">
        <ele>2206.2</ele>
        <time>2021-02-27T14:49:29Z</time>
      </trkpt>
      <trkpt lat="45.23815" lon="6.23529">
        <ele>2206.2</ele>
        <time>2021-02-27T14:49:30Z</time>
      </trkpt>
      <trkpt lat="45.23814" lon="6.23532">
        <ele>2205.8</ele>
        <time>2021-02-27T14:49:31Z</time>
      </trkpt>
      <trkpt lat="45.23813" lon="6.23538">
        <ele>2205.8</ele>
        <time>2021-02-27T14:49:32Z</time>
      </trkpt>
      <trkpt lat="45.23812" lon="6.23542">
        <ele>2205.8</ele>
        <time>2021-02-27T14:49:34Z</time>
      </trkpt>
      <trkpt lat="45.23811" lon="6.23545">
        <ele>2205.8</ele>
        <time>2021-02-27T14:49:36Z</time>
      </trkpt>
      <trkpt lat="45.2381" lon="6.23549">
        <ele>2205.8</ele>
        <time>2021-02-27T14:49:37Z</time>
      </trkpt>
      <trkpt lat="45.23809" lon="6.23553">
        <ele>2205.8</ele>
        <time>2021-02-27T14:49:38Z</time>
      </trkpt>
      <trkpt lat="45.23807" lon="6.23556">
        <ele>2205.8</ele>
        <time>2021-02-27T14:49:39Z</time>
      </trkpt>
      <trkpt lat="45.23806" lon="6.2356">
        <ele>2205.8</ele>
        <time>2021-02-27T14:49:40Z</time>
      </trkpt>
      <trkpt lat="45.23805" lon="6.23564">
        <ele>2202.8</ele>
        <time>2021-02-27T14:49:41Z</time>
      </trkpt>
      <trkpt lat="45.23803" lon="6.23572">
        <ele>2202.8</ele>
        <time>2021-02-27T14:49:42Z</time>
      </trkpt>
      <trkpt lat="45.23802" lon="6.23576">
        <ele>2202.8</ele>
        <time>2021-02-27T14:49:43Z</time>
      </trkpt>
      <trkpt lat="45.23801" lon="6.2358">
        <ele>2202.8</ele>
        <time>2021-02-27T14:49:44Z</time>
      </trkpt>
      <trkpt lat="45.238" lon="6.23584">
        <ele>2202.8</ele>
        <time>2021-02-27T14:49:45Z</time>
      </trkpt>
      <trkpt lat="45.23799" lon="6.23588">
        <ele>2202.8</ele>
        <time>2021-02-27T14:49:46Z</time>
      </trkpt>
      <trkpt lat="45.23798" lon="6.23592">
        <ele>2202.8</ele>
        <time>2021-02-27T14:49:47Z</time>
      </trkpt>
      <trkpt lat="45.23797" lon="6.23595">
        <ele>2202.8</ele>
        <time>2021-02-27T14:49:48Z</time>
      </trkpt>
      <trkpt lat="45.23796" lon="6.23599">
        <ele>2202.8</ele>
        <time>2021-02-27T14:49:49Z</time>
      </trkpt>
      <trkpt lat="45.23795" lon="6.23603">
        <ele>2202.8</ele>
        <time>2021-02-27T14:49:50Z</time>
      </trkpt>
      <trkpt lat="45.23794" lon="6.23607">
        <ele>2197</ele>
        <time>2021-02-27T14:49:51Z</time>
      </trkpt>
      <trkpt lat="45.23792" lon="6.23617">
        <ele>2197</ele>
        <time>2021-02-27T14:49:52Z</time>
      </trkpt>
      <trkpt lat="45.23791" lon="6.23621">
        <ele>2197</ele>
        <time>2021-02-27T14:49:53Z</time>
      </trkpt>
      <trkpt lat="45.2379" lon="6.23625">
        <ele>2197</ele>
        <time>2021-02-27T14:49:54Z</time>
      </trkpt>
      <trkpt lat="45.23789" lon="6.2363">
        <ele>2197</ele>
        <time>2021-02-27T14:49:55Z</time>
      </trkpt>
      <trkpt lat="45.23788" lon="6.23634">
        <ele>2197</ele>
        <time>2021-02-27T14:49:56Z</time>
      </trkpt>
      <trkpt lat="45.23787" lon="6.23638">
        <ele>2197</ele>
        <time>2021-02-27T14:49:57Z</time>
      </trkpt>
      <trkpt lat="45.23786" lon="6.23642">
        <ele>2197</ele>
        <time>2021-02-27T14:49:58Z</time>
      </trkpt>
      <trkpt lat="45.23786" lon="6.23646">
        <ele>2197</ele>
        <time>2021-02-27T14:49:59Z</time>
      </trkpt>
      <trkpt lat="45.23785" lon="6.23651">
        <ele>2197</ele>
        <time>2021-02-27T14:50:00Z</time>
      </trkpt>
      <trkpt lat="45.23784" lon="6.23655">
        <ele>2191.6</ele>
        <time>2021-02-27T14:50:01Z</time>
      </trkpt>
      <trkpt lat="45.23781" lon="6.23663">
        <ele>2191.6</ele>
        <time>2021-02-27T14:50:02Z</time>
      </trkpt>
      <trkpt lat="45.2378" lon="6.23666">
        <ele>2191.6</ele>
        <time>2021-02-27T14:50:03Z</time>
      </trkpt>
      <trkpt lat="45.23779" lon="6.2367">
        <ele>2191.6</ele>
        <time>2021-02-27T14:50:04Z</time>
      </trkpt>
      <trkpt lat="45.23778" lon="6.23673">
        <ele>2191.6</ele>
        <time>2021-02-27T14:50:05Z</time>
      </trkpt>
      <trkpt lat="45.23777" lon="6.23677">
        <ele>2191.6</ele>
        <time>2021-02-27T14:50:06Z</time>
      </trkpt>
      <trkpt lat="45.23776" lon="6.2368">
        <ele>2191.6</ele>
        <time>2021-02-27T14:50:07Z</time>
      </trkpt>
      <trkpt lat="45.23775" lon="6.23684">
        <ele>2191.6</ele>
        <time>2021-02-27T14:50:08Z</time>
      </trkpt>
      <trkpt lat="45.23774" lon="6.23687">
        <ele>2191.6</ele>
        <time>2021-02-27T14:50:09Z</time>
      </trkpt>
      <trkpt lat="45.23773" lon="6.23691">
        <ele>2191.6</ele>
        <time>2021-02-27T14:50:10Z</time>
      </trkpt>
      <trkpt lat="45.23772" lon="6.23694">
        <ele>2187.6</ele>
        <time>2021-02-27T14:50:11Z</time>
      </trkpt>
      <trkpt lat="45.2377" lon="6.23702">
        <ele>2187.6</ele>
        <time>2021-02-27T14:50:12Z</time>
      </trkpt>
      <trkpt lat="45.2377" lon="6.23705">
        <ele>2187.6</ele>
        <time>2021-02-27T14:50:13Z</time>
      </trkpt>
      <trkpt lat="45.23769" lon="6.23708">
        <ele>2187.6</ele>
        <time>2021-02-27T14:50:14Z</time>
      </trkpt>
      <trkpt lat="45.23768" lon="6.23711">
        <ele>2187.6</ele>
        <time>2021-02-27T14:50:15Z</time>
      </trkpt>
      <trkpt lat="45.23768" lon="6.23714">
        <ele>2187.6</ele>
        <time>2021-02-27T14:50:16Z</time>
      </trkpt>
      <trkpt lat="45.23767" lon="6.23717">
        <ele>2187.6</ele>
        <time>2021-02-27T14:50:17Z</time>
      </trkpt>
      <trkpt lat="45.23766" lon="6.2372">
        <ele>2187.6</ele>
        <time>2021-02-27T14:50:18Z</time>
      </trkpt>
      <trkpt lat="45.23766" lon="6.23722">
        <ele>2187.6</ele>
        <time>2021-02-27T14:50:19Z</time>
      </trkpt>
      <trkpt lat="45.23765" lon="6.23725">
        <ele>2187.6</ele>
        <time>2021-02-27T14:50:20Z</time>
      </trkpt>
      <trkpt lat="45.23764" lon="6.23728">
        <ele>2185.6</ele>
        <time>2021-02-27T14:50:21Z</time>
      </trkpt>
      <trkpt lat="45.23762" lon="6.23735">
        <ele>2185.6</ele>
        <time>2021-02-27T14:50:22Z</time>
      </trkpt>
      <trkpt lat="45.23761" lon="6.23739">
        <ele>2185.6</ele>
        <time>2021-02-27T14:50:23Z</time>
      </trkpt>
      <trkpt lat="45.2376" lon="6.23743">
        <ele>2185.6</ele>
        <time>2021-02-27T14:50:24Z</time>
      </trkpt>
      <trkpt lat="45.23759" lon="6.23746">
        <ele>2185.6</ele>
        <time>2021-02-27T14:50:25Z</time>
      </trkpt>
      <trkpt lat="45.23758" lon="6.2375">
        <ele>2185.6</ele>
        <time>2021-02-27T14:50:26Z</time>
      </trkpt>
      <trkpt lat="45.23757" lon="6.23754">
        <ele>2185.6</ele>
        <time>2021-02-27T14:50:27Z</time>
      </trkpt>
      <trkpt lat="45.23757" lon="6.23758">
        <ele>2185.6</ele>
        <time>2021-02-27T14:50:28Z</time>
      </trkpt>
      <trkpt lat="45.23756" lon="6.23761">
        <ele>2185.6</ele>
        <time>2021-02-27T14:50:29Z</time>
      </trkpt>
      <trkpt lat="45.23755" lon="6.23765">
        <ele>2185.6</ele>
        <time>2021-02-27T14:50:30Z</time>
      </trkpt>
      <trkpt lat="45.23754" lon="6.23769">
        <ele>2181</ele>
        <time>2021-02-27T14:50:31Z</time>
      </trkpt>
      <trkpt lat="45.23753" lon="6.23774">
        <ele>2181</ele>
        <time>2021-02-27T14:50:32Z</time>
      </trkpt>
      <trkpt lat="45.23752" lon="6.23777">
        <ele>2181</ele>
        <time>2021-02-27T14:50:34Z</time>
      </trkpt>
      <trkpt lat="45.23752" lon="6.23779">
        <ele>2181</ele>
        <time>2021-02-27T14:50:36Z</time>
      </trkpt>
      <trkpt lat="45.23751" lon="6.23782">
        <ele>2181</ele>
        <time>2021-02-27T14:50:38Z</time>
      </trkpt>
      <trkpt lat="45.2375" lon="6.23785">
        <ele>2181</ele>
        <time>2021-02-27T14:50:40Z</time>
      </trkpt>
      <trkpt lat="45.2375" lon="6.23788">
        <ele>2180.2</ele>
        <time>2021-02-27T14:50:41Z</time>
      </trkpt>
      <trkpt lat="45.23748" lon="6.23792">
        <ele>2180.2</ele>
        <time>2021-02-27T14:50:42Z</time>
      </trkpt>
      <trkpt lat="45.23748" lon="6.23794">
        <ele>2180.2</ele>
        <time>2021-02-27T14:50:44Z</time>
      </trkpt>
      <trkpt lat="45.23747" lon="6.23796">
        <ele>2180.2</ele>
        <time>2021-02-27T14:50:46Z</time>
      </trkpt>
      <trkpt lat="45.23746" lon="6.23799">
        <ele>2180.2</ele>
        <time>2021-02-27T14:50:48Z</time>
      </trkpt>
      <trkpt lat="45.23746" lon="6.23801">
        <ele>2180.2</ele>
        <time>2021-02-27T14:50:50Z</time>
      </trkpt>
      <trkpt lat="45.23745" lon="6.23803">
        <ele>2183.6</ele>
        <time>2021-02-27T14:50:51Z</time>
      </trkpt>
      <trkpt lat="45.23744" lon="6.23808">
        <ele>2183.6</ele>
        <time>2021-02-27T14:50:52Z</time>
      </trkpt>
      <trkpt lat="45.23743" lon="6.23811">
        <ele>2183.6</ele>
        <time>2021-02-27T14:50:54Z</time>
      </trkpt>
      <trkpt lat="45.23742" lon="6.23814">
        <ele>2183.6</ele>
        <time>2021-02-27T14:50:56Z</time>
      </trkpt>
      <trkpt lat="45.23741" lon="6.23817">
        <ele>2183.6</ele>
        <time>2021-02-27T14:50:58Z</time>
      </trkpt>
      <trkpt lat="45.23741" lon="6.2382">
        <ele>2183.6</ele>
        <time>2021-02-27T14:51:00Z</time>
      </trkpt>
      <trkpt lat="45.2374" lon="6.23822">
        <ele>2184.2</ele>
        <time>2021-02-27T14:51:01Z</time>
      </trkpt>
      <trkpt lat="45.23739" lon="6.23824">
        <ele>2184.2</ele>
        <time>2021-02-27T14:51:02Z</time>
      </trkpt>
      <trkpt lat="45.23738" lon="6.23827">
        <ele>2184.2</ele>
        <time>2021-02-27T14:51:03Z</time>
      </trkpt>
      <trkpt lat="45.23737" lon="6.23831">
        <ele>2184.2</ele>
        <time>2021-02-27T14:51:05Z</time>
      </trkpt>
      <trkpt lat="45.23735" lon="6.23834">
        <ele>2184.2</ele>
        <time>2021-02-27T14:51:07Z</time>
      </trkpt>
      <trkpt lat="45.23735" lon="6.23837">
        <ele>2184.2</ele>
        <time>2021-02-27T14:51:09Z</time>
      </trkpt>
      <trkpt lat="45.23735" lon="6.23842">
        <ele>2184.8</ele>
        <time>2021-02-27T14:51:11Z</time>
      </trkpt>
      <trkpt lat="45.23733" lon="6.23845">
        <ele>2184.8</ele>
        <time>2021-02-27T14:51:13Z</time>
      </trkpt>
      <trkpt lat="45.23733" lon="6.23849">
        <ele>2184.8</ele>
        <time>2021-02-27T14:51:15Z</time>
      </trkpt>
      <trkpt lat="45.23732" lon="6.23853">
        <ele>2184.8</ele>
        <time>2021-02-27T14:51:17Z</time>
      </trkpt>
      <trkpt lat="45.2373" lon="6.23856">
        <ele>2184.8</ele>
        <time>2021-02-27T14:51:19Z</time>
      </trkpt>
      <trkpt lat="45.23729" lon="6.2386">
        <ele>2185.4</ele>
        <time>2021-02-27T14:51:21Z</time>
      </trkpt>
      <trkpt lat="45.23729" lon="6.23864">
        <ele>2185.4</ele>
        <time>2021-02-27T14:51:23Z</time>
      </trkpt>
      <trkpt lat="45.23728" lon="6.23866">
        <ele>2185.4</ele>
        <time>2021-02-27T14:51:25Z</time>
      </trkpt>
      <trkpt lat="45.23727" lon="6.23869">
        <ele>2185.4</ele>
        <time>2021-02-27T14:51:27Z</time>
      </trkpt>
      <trkpt lat="45.23725" lon="6.23872">
        <ele>2185.4</ele>
        <time>2021-02-27T14:51:29Z</time>
      </trkpt>
      <trkpt lat="45.23725" lon="6.23875">
        <ele>2187</ele>
        <time>2021-02-27T14:51:31Z</time>
      </trkpt>
      <trkpt lat="45.23724" lon="6.23878">
        <ele>2187</ele>
        <time>2021-02-27T14:51:33Z</time>
      </trkpt>
      <trkpt lat="45.23722" lon="6.23881">
        <ele>2187</ele>
        <time>2021-02-27T14:51:35Z</time>
      </trkpt>
      <trkpt lat="45.23721" lon="6.23885">
        <ele>2187</ele>
        <time>2021-02-27T14:51:37Z</time>
      </trkpt>
      <trkpt lat="45.23721" lon="6.23887">
        <ele>2187</ele>
        <time>2021-02-27T14:51:39Z</time>
      </trkpt>
      <trkpt lat="45.23721" lon="6.2389">
        <ele>2187.4</ele>
        <time>2021-02-27T14:51:41Z</time>
      </trkpt>
      <trkpt lat="45.2372" lon="6.23893">
        <ele>2187.4</ele>
        <time>2021-02-27T14:51:44Z</time>
      </trkpt>
      <trkpt lat="45.2372" lon="6.23896">
        <ele>2187.4</ele>
        <time>2021-02-27T14:51:46Z</time>
      </trkpt>
      <trkpt lat="45.23719" lon="6.23899">
        <ele>2187.4</ele>
        <time>2021-02-27T14:51:49Z</time>
      </trkpt>
      <trkpt lat="45.23717" lon="6.23902">
        <ele>2190.2</ele>
        <time>2021-02-27T14:51:51Z</time>
      </trkpt>
      <trkpt lat="45.23716" lon="6.23907">
        <ele>2190.2</ele>
        <time>2021-02-27T14:51:54Z</time>
      </trkpt>
      <trkpt lat="45.23716" lon="6.23909">
        <ele>2190.2</ele>
        <time>2021-02-27T14:51:56Z</time>
      </trkpt>
      <trkpt lat="45.23715" lon="6.2391">
        <ele>2190.2</ele>
        <time>2021-02-27T14:51:58Z</time>
      </trkpt>
      <trkpt lat="45.23715" lon="6.23912">
        <ele>2190.2</ele>
        <time>2021-02-27T14:52:00Z</time>
      </trkpt>
      <trkpt lat="45.23714" lon="6.23914">
        <ele>2192</ele>
        <time>2021-02-27T14:52:01Z</time>
      </trkpt>
      <trkpt lat="45.23714" lon="6.23915">
        <ele>2192</ele>
        <time>2021-02-27T14:52:02Z</time>
      </trkpt>
      <trkpt lat="45.23713" lon="6.23919">
        <ele>2192</ele>
        <time>2021-02-27T14:52:05Z</time>
      </trkpt>
      <trkpt lat="45.23712" lon="6.23922">
        <ele>2192</ele>
        <time>2021-02-27T14:52:08Z</time>
      </trkpt>
      <trkpt lat="45.23711" lon="6.23925">
        <ele>2195.6</ele>
        <time>2021-02-27T14:52:11Z</time>
      </trkpt>
      <trkpt lat="45.23711" lon="6.23928">
        <ele>2195.6</ele>
        <time>2021-02-27T14:52:13Z</time>
      </trkpt>
      <trkpt lat="45.23711" lon="6.23931">
        <ele>2195.6</ele>
        <time>2021-02-27T14:52:15Z</time>
      </trkpt>
      <trkpt lat="45.23709" lon="6.23933">
        <ele>2195.6</ele>
        <time>2021-02-27T14:52:17Z</time>
      </trkpt>
      <trkpt lat="45.23709" lon="6.23936">
        <ele>2195.6</ele>
        <time>2021-02-27T14:52:19Z</time>
      </trkpt>
      <trkpt lat="45.23708" lon="6.23939">
        <ele>2197.8</ele>
        <time>2021-02-27T14:52:21Z</time>
      </trkpt>
      <trkpt lat="45.23707" lon="6.23941">
        <ele>2197.8</ele>
        <time>2021-02-27T14:52:24Z</time>
      </trkpt>
      <trkpt lat="45.23705" lon="6.23944">
        <ele>2197.8</ele>
        <time>2021-02-27T14:52:27Z</time>
      </trkpt>
      <trkpt lat="45.23705" lon="6.23947">
        <ele>2197.8</ele>
        <time>2021-02-27T14:52:29Z</time>
      </trkpt>
      <trkpt lat="45.23703" lon="6.2395">
        <ele>2201.4</ele>
        <time>2021-02-27T14:52:31Z</time>
      </trkpt>
      <trkpt lat="45.23702" lon="6.23956">
        <ele>2201.4</ele>
        <time>2021-02-27T14:52:34Z</time>
      </trkpt>
      <trkpt lat="45.23701" lon="6.23958">
        <ele>2201.4</ele>
        <time>2021-02-27T14:52:36Z</time>
      </trkpt>
      <trkpt lat="45.23701" lon="6.2396">
        <ele>2201.4</ele>
        <time>2021-02-27T14:52:38Z</time>
      </trkpt>
      <trkpt lat="45.237" lon="6.23962">
        <ele>2201.4</ele>
        <time>2021-02-27T14:52:40Z</time>
      </trkpt>
      <trkpt lat="45.237" lon="6.23964">
        <ele>2203.6</ele>
        <time>2021-02-27T14:52:41Z</time>
      </trkpt>
      <trkpt lat="45.23698" lon="6.23968">
        <ele>2203.6</ele>
        <time>2021-02-27T14:52:42Z</time>
      </trkpt>
      <trkpt lat="45.23698" lon="6.2397">
        <ele>2203.6</ele>
        <time>2021-02-27T14:52:44Z</time>
      </trkpt>
      <trkpt lat="45.23697" lon="6.23972">
        <ele>2203.6</ele>
        <time>2021-02-27T14:52:46Z</time>
      </trkpt>
      <trkpt lat="45.23696" lon="6.23975">
        <ele>2203.6</ele>
        <time>2021-02-27T14:52:48Z</time>
      </trkpt>
      <trkpt lat="45.23695" lon="6.23977">
        <ele>2203.6</ele>
        <time>2021-02-27T14:52:50Z</time>
      </trkpt>
      <trkpt lat="45.23695" lon="6.23979">
        <ele>2204.4</ele>
        <time>2021-02-27T14:52:51Z</time>
      </trkpt>
      <trkpt lat="45.23693" lon="6.23984">
        <ele>2204.4</ele>
        <time>2021-02-27T14:52:52Z</time>
      </trkpt>
      <trkpt lat="45.23692" lon="6.23987">
        <ele>2204.4</ele>
        <time>2021-02-27T14:52:54Z</time>
      </trkpt>
      <trkpt lat="45.23692" lon="6.23989">
        <ele>2204.4</ele>
        <time>2021-02-27T14:52:56Z</time>
      </trkpt>
      <trkpt lat="45.23691" lon="6.23992">
        <ele>2204.4</ele>
        <time>2021-02-27T14:52:58Z</time>
      </trkpt>
      <trkpt lat="45.2369" lon="6.23995">
        <ele>2204.4</ele>
        <time>2021-02-27T14:53:00Z</time>
      </trkpt>
      <trkpt lat="45.2369" lon="6.23997">
        <ele>2205.6</ele>
        <time>2021-02-27T14:53:01Z</time>
      </trkpt>
      <trkpt lat="45.23689" lon="6.24002">
        <ele>2205.6</ele>
        <time>2021-02-27T14:53:02Z</time>
      </trkpt>
      <trkpt lat="45.23688" lon="6.24004">
        <ele>2205.6</ele>
        <time>2021-02-27T14:53:04Z</time>
      </trkpt>
      <trkpt lat="45.23688" lon="6.24007">
        <ele>2205.6</ele>
        <time>2021-02-27T14:53:06Z</time>
      </trkpt>
      <trkpt lat="45.23687" lon="6.24009">
        <ele>2205.6</ele>
        <time>2021-02-27T14:53:08Z</time>
      </trkpt>
      <trkpt lat="45.23687" lon="6.24012">
        <ele>2205.6</ele>
        <time>2021-02-27T14:53:10Z</time>
      </trkpt>
      <trkpt lat="45.23687" lon="6.24014">
        <ele>2207.2</ele>
        <time>2021-02-27T14:53:11Z</time>
      </trkpt>
      <trkpt lat="45.23686" lon="6.24019">
        <ele>2207.2</ele>
        <time>2021-02-27T14:53:12Z</time>
      </trkpt>
      <trkpt lat="45.23685" lon="6.24022">
        <ele>2207.2</ele>
        <time>2021-02-27T14:53:14Z</time>
      </trkpt>
      <trkpt lat="45.23684" lon="6.24025">
        <ele>2207.2</ele>
        <time>2021-02-27T14:53:16Z</time>
      </trkpt>
      <trkpt lat="45.23684" lon="6.24028">
        <ele>2207.2</ele>
        <time>2021-02-27T14:53:18Z</time>
      </trkpt>
      <trkpt lat="45.23683" lon="6.24031">
        <ele>2207.2</ele>
        <time>2021-02-27T14:53:20Z</time>
      </trkpt>
      <trkpt lat="45.23682" lon="6.24034">
        <ele>2209</ele>
        <time>2021-02-27T14:53:21Z</time>
      </trkpt>
      <trkpt lat="45.23681" lon="6.24038">
        <ele>2209</ele>
        <time>2021-02-27T14:53:22Z</time>
      </trkpt>
      <trkpt lat="45.2368" lon="6.2404">
        <ele>2209</ele>
        <time>2021-02-27T14:53:24Z</time>
      </trkpt>
      <trkpt lat="45.2368" lon="6.24042">
        <ele>2209</ele>
        <time>2021-02-27T14:53:26Z</time>
      </trkpt>
      <trkpt lat="45.23679" lon="6.24045">
        <ele>2209</ele>
        <time>2021-02-27T14:53:28Z</time>
      </trkpt>
      <trkpt lat="45.23678" lon="6.24047">
        <ele>2209</ele>
        <time>2021-02-27T14:53:30Z</time>
      </trkpt>
      <trkpt lat="45.23677" lon="6.2405">
        <ele>2209.6</ele>
        <time>2021-02-27T14:53:31Z</time>
      </trkpt>
      <trkpt lat="45.23676" lon="6.24054">
        <ele>2209.6</ele>
        <time>2021-02-27T14:53:32Z</time>
      </trkpt>
      <trkpt lat="45.23675" lon="6.24056">
        <ele>2209.6</ele>
        <time>2021-02-27T14:53:34Z</time>
      </trkpt>
      <trkpt lat="45.23675" lon="6.24058">
        <ele>2209.6</ele>
        <time>2021-02-27T14:53:36Z</time>
      </trkpt>
      <trkpt lat="45.23674" lon="6.2406">
        <ele>2209.6</ele>
        <time>2021-02-27T14:53:38Z</time>
      </trkpt>
      <trkpt lat="45.23673" lon="6.24063">
        <ele>2209.6</ele>
        <time>2021-02-27T14:53:40Z</time>
      </trkpt>
      <trkpt lat="45.23672" lon="6.24065">
        <ele>2210.6</ele>
        <time>2021-02-27T14:53:41Z</time>
      </trkpt>
      <trkpt lat="45.23672" lon="6.24067">
        <ele>2210.6</ele>
        <time>2021-02-27T14:53:42Z</time>
      </trkpt>
      <trkpt lat="45.23671" lon="6.24069">
        <ele>2210.6</ele>
        <time>2021-02-27T14:53:44Z</time>
      </trkpt>
      <trkpt lat="45.2367" lon="6.24072">
        <ele>2210.6</ele>
        <time>2021-02-27T14:53:46Z</time>
      </trkpt>
      <trkpt lat="45.23669" lon="6.24075">
        <ele>2210.6</ele>
        <time>2021-02-27T14:53:48Z</time>
      </trkpt>
      <trkpt lat="45.23668" lon="6.24078">
        <ele>2212</ele>
        <time>2021-02-27T14:53:51Z</time>
      </trkpt>
      <trkpt lat="45.23667" lon="6.24084">
        <ele>2212</ele>
        <time>2021-02-27T14:53:54Z</time>
      </trkpt>
      <trkpt lat="45.23667" lon="6.24086">
        <ele>2212</ele>
        <time>2021-02-27T14:53:56Z</time>
      </trkpt>
      <trkpt lat="45.23666" lon="6.24089">
        <ele>2212</ele>
        <time>2021-02-27T14:53:58Z</time>
      </trkpt>
      <trkpt lat="45.23666" lon="6.24091">
        <ele>2212</ele>
        <time>2021-02-27T14:54:00Z</time>
      </trkpt>
      <trkpt lat="45.23665" lon="6.24093">
        <ele>2214.2</ele>
        <time>2021-02-27T14:54:01Z</time>
      </trkpt>
      <trkpt lat="45.23664" lon="6.24097">
        <ele>2214.2</ele>
        <time>2021-02-27T14:54:02Z</time>
      </trkpt>
      <trkpt lat="45.23664" lon="6.241">
        <ele>2214.2</ele>
        <time>2021-02-27T14:54:04Z</time>
      </trkpt>
      <trkpt lat="45.23663" lon="6.24103">
        <ele>2214.2</ele>
        <time>2021-02-27T14:54:06Z</time>
      </trkpt>
      <trkpt lat="45.23662" lon="6.24106">
        <ele>2214.2</ele>
        <time>2021-02-27T14:54:08Z</time>
      </trkpt>
      <trkpt lat="45.23661" lon="6.24109">
        <ele>2214.2</ele>
        <time>2021-02-27T14:54:10Z</time>
      </trkpt>
      <trkpt lat="45.23661" lon="6.24111">
        <ele>2214.4</ele>
        <time>2021-02-27T14:54:11Z</time>
      </trkpt>
      <trkpt lat="45.2366" lon="6.24114">
        <ele>2214.4</ele>
        <time>2021-02-27T14:54:12Z</time>
      </trkpt>
      <trkpt lat="45.23659" lon="6.24118">
        <ele>2214.4</ele>
        <time>2021-02-27T14:54:14Z</time>
      </trkpt>
      <trkpt lat="45.23658" lon="6.24121">
        <ele>2214.4</ele>
        <time>2021-02-27T14:54:16Z</time>
      </trkpt>
      <trkpt lat="45.23658" lon="6.24121">
        <ele>2213.2</ele>
        <time>2021-02-27T14:54:21Z</time>
      </trkpt>
      <trkpt lat="45.23657" lon="6.24124">
        <ele>2213</ele>
        <time>2021-02-27T14:54:31Z</time>
      </trkpt>
      <trkpt lat="45.23657" lon="6.24126">
        <ele>2213</ele>
        <time>2021-02-27T14:54:39Z</time>
      </trkpt>
      <trkpt lat="45.23657" lon="6.24128">
        <ele>2213</ele>
        <time>2021-02-27T14:54:40Z</time>
      </trkpt>
      <trkpt lat="45.23656" lon="6.2413">
        <ele>2212.8</ele>
        <time>2021-02-27T14:54:41Z</time>
      </trkpt>
      <trkpt lat="45.23654" lon="6.24135">
        <ele>2212.8</ele>
        <time>2021-02-27T14:54:43Z</time>
      </trkpt>
      <trkpt lat="45.23653" lon="6.24139">
        <ele>2212.8</ele>
        <time>2021-02-27T14:54:45Z</time>
      </trkpt>
      <trkpt lat="45.23652" lon="6.24143">
        <ele>2212.8</ele>
        <time>2021-02-27T14:54:47Z</time>
      </trkpt>
      <trkpt lat="45.23652" lon="6.24147">
        <ele>2212.8</ele>
        <time>2021-02-27T14:54:49Z</time>
      </trkpt>
      <trkpt lat="45.2365" lon="6.2415">
        <ele>2212.6</ele>
        <time>2021-02-27T14:54:51Z</time>
      </trkpt>
      <trkpt lat="45.2365" lon="6.24154">
        <ele>2212.6</ele>
        <time>2021-02-27T14:54:53Z</time>
      </trkpt>
      <trkpt lat="45.23649" lon="6.24157">
        <ele>2212.6</ele>
        <time>2021-02-27T14:54:55Z</time>
      </trkpt>
      <trkpt lat="45.23648" lon="6.2416">
        <ele>2212.6</ele>
        <time>2021-02-27T14:54:57Z</time>
      </trkpt>
      <trkpt lat="45.23647" lon="6.24163">
        <ele>2212.6</ele>
        <time>2021-02-27T14:54:59Z</time>
      </trkpt>
      <trkpt lat="45.23647" lon="6.24166">
        <ele>2213.2</ele>
        <time>2021-02-27T14:55:01Z</time>
      </trkpt>
      <trkpt lat="45.23647" lon="6.24169">
        <ele>2213.2</ele>
        <time>2021-02-27T14:55:03Z</time>
      </trkpt>
      <trkpt lat="45.23645" lon="6.24172">
        <ele>2213.2</ele>
        <time>2021-02-27T14:55:05Z</time>
      </trkpt>
      <trkpt lat="45.23645" lon="6.24176">
        <ele>2213.2</ele>
        <time>2021-02-27T14:55:07Z</time>
      </trkpt>
      <trkpt lat="45.23644" lon="6.2418">
        <ele>2213.2</ele>
        <time>2021-02-27T14:55:09Z</time>
      </trkpt>
      <trkpt lat="45.23644" lon="6.24182">
        <ele>2213.8</ele>
        <time>2021-02-27T14:55:11Z</time>
      </trkpt>
      <trkpt lat="45.23644" lon="6.24186">
        <ele>2213.8</ele>
        <time>2021-02-27T14:55:14Z</time>
      </trkpt>
      <trkpt lat="45.23644" lon="6.2419">
        <ele>2213.8</ele>
        <time>2021-02-27T14:55:17Z</time>
      </trkpt>
      <trkpt lat="45.23644" lon="6.2419">
        <ele>2215.4</ele>
        <time>2021-02-27T14:55:21Z</time>
      </trkpt>
      <trkpt lat="45.23643" lon="6.24193">
        <ele>2215.4</ele>
        <time>2021-02-27T14:55:22Z</time>
      </trkpt>
      <trkpt lat="45.23644" lon="6.24193">
        <ele>2215.2</ele>
        <time>2021-02-27T14:55:31Z</time>
      </trkpt>
      <trkpt lat="45.23644" lon="6.24194">
        <ele>2216.2</ele>
        <time>2021-02-27T14:55:41Z</time>
      </trkpt>
      <trkpt lat="45.23645" lon="6.24195">
        <ele>2215.2</ele>
        <time>2021-02-27T14:55:51Z</time>
      </trkpt>
      <trkpt lat="45.23645" lon="6.24195">
        <ele>2215.4</ele>
        <time>2021-02-27T14:56:01Z</time>
      </trkpt>
      <trkpt lat="45.23646" lon="6.24196">
        <ele>2215.8</ele>
        <time>2021-02-27T14:56:11Z</time>
      </trkpt>
      <trkpt lat="45.23647" lon="6.24197">
        <ele>2216</ele>
        <time>2021-02-27T14:56:21Z</time>
      </trkpt>
      <trkpt lat="45.23647" lon="6.24197">
        <ele>2215.6</ele>
        <time>2021-02-27T14:56:31Z</time>
      </trkpt>
      <trkpt lat="45.23648" lon="6.24198">
        <ele>2215.6</ele>
        <time>2021-02-27T14:56:38Z</time>
      </trkpt>
      <trkpt lat="45.23648" lon="6.24198">
        <ele>2215.6</ele>
        <time>2021-02-27T14:56:39Z</time>
      </trkpt>
      <trkpt lat="45.23649" lon="6.24199">
        <ele>2215.6</ele>
        <time>2021-02-27T14:56:40Z</time>
      </trkpt>
      <trkpt lat="45.23649" lon="6.242">
        <ele>2216.2</ele>
        <time>2021-02-27T14:56:41Z</time>
      </trkpt>
      <trkpt lat="45.23652" lon="6.24209">
        <ele>2216.2</ele>
        <time>2021-02-27T14:56:42Z</time>
      </trkpt>
      <trkpt lat="45.23654" lon="6.24213">
        <ele>2216.2</ele>
        <time>2021-02-27T14:56:43Z</time>
      </trkpt>
      <trkpt lat="45.23655" lon="6.24217">
        <ele>2216.2</ele>
        <time>2021-02-27T14:56:44Z</time>
      </trkpt>
      <trkpt lat="45.23657" lon="6.24222">
        <ele>2216.2</ele>
        <time>2021-02-27T14:56:45Z</time>
      </trkpt>
      <trkpt lat="45.23658" lon="6.24226">
        <ele>2216.2</ele>
        <time>2021-02-27T14:56:46Z</time>
      </trkpt>
      <trkpt lat="45.2366" lon="6.24231">
        <ele>2216.2</ele>
        <time>2021-02-27T14:56:47Z</time>
      </trkpt>
      <trkpt lat="45.23661" lon="6.24235">
        <ele>2216.2</ele>
        <time>2021-02-27T14:56:48Z</time>
      </trkpt>
      <trkpt lat="45.23663" lon="6.2424">
        <ele>2216.2</ele>
        <time>2021-02-27T14:56:49Z</time>
      </trkpt>
      <trkpt lat="45.23664" lon="6.24244">
        <ele>2216.2</ele>
        <time>2021-02-27T14:56:50Z</time>
      </trkpt>
      <trkpt lat="45.23666" lon="6.24249">
        <ele>2214.2</ele>
        <time>2021-02-27T14:56:51Z</time>
      </trkpt>
      <trkpt lat="45.23666" lon="6.24255">
        <ele>2214.2</ele>
        <time>2021-02-27T14:56:52Z</time>
      </trkpt>
      <trkpt lat="45.23667" lon="6.24258">
        <ele>2214.2</ele>
        <time>2021-02-27T14:56:53Z</time>
      </trkpt>
      <trkpt lat="45.23667" lon="6.24261">
        <ele>2214.2</ele>
        <time>2021-02-27T14:56:54Z</time>
      </trkpt>
      <trkpt lat="45.23667" lon="6.24264">
        <ele>2214.2</ele>
        <time>2021-02-27T14:56:55Z</time>
      </trkpt>
      <trkpt lat="45.23667" lon="6.24267">
        <ele>2214.2</ele>
        <time>2021-02-27T14:56:56Z</time>
      </trkpt>
      <trkpt lat="45.23667" lon="6.2427">
        <ele>2214.2</ele>
        <time>2021-02-27T14:56:57Z</time>
      </trkpt>
      <trkpt lat="45.23667" lon="6.24274">
        <ele>2214.2</ele>
        <time>2021-02-27T14:56:58Z</time>
      </trkpt>
      <trkpt lat="45.23667" lon="6.24277">
        <ele>2214.2</ele>
        <time>2021-02-27T14:56:59Z</time>
      </trkpt>
      <trkpt lat="45.23668" lon="6.2428">
        <ele>2214.2</ele>
        <time>2021-02-27T14:57:00Z</time>
      </trkpt>
      <trkpt lat="45.23668" lon="6.24283">
        <ele>2211.4</ele>
        <time>2021-02-27T14:57:01Z</time>
      </trkpt>
      <trkpt lat="45.23668" lon="6.2429">
        <ele>2211.4</ele>
        <time>2021-02-27T14:57:02Z</time>
      </trkpt>
      <trkpt lat="45.23668" lon="6.24293">
        <ele>2211.4</ele>
        <time>2021-02-27T14:57:03Z</time>
      </trkpt>
      <trkpt lat="45.23668" lon="6.24297">
        <ele>2211.4</ele>
        <time>2021-02-27T14:57:04Z</time>
      </trkpt>
      <trkpt lat="45.23669" lon="6.243">
        <ele>2211.4</ele>
        <time>2021-02-27T14:57:05Z</time>
      </trkpt>
      <trkpt lat="45.23669" lon="6.24304">
        <ele>2211.4</ele>
        <time>2021-02-27T14:57:06Z</time>
      </trkpt>
      <trkpt lat="45.23669" lon="6.24307">
        <ele>2211.4</ele>
        <time>2021-02-27T14:57:07Z</time>
      </trkpt>
      <trkpt lat="45.23669" lon="6.24311">
        <ele>2211.4</ele>
        <time>2021-02-27T14:57:08Z</time>
      </trkpt>
      <trkpt lat="45.23669" lon="6.24314">
        <ele>2211.4</ele>
        <time>2021-02-27T14:57:09Z</time>
      </trkpt>
      <trkpt lat="45.2367" lon="6.24318">
        <ele>2211.4</ele>
        <time>2021-02-27T14:57:10Z</time>
      </trkpt>
      <trkpt lat="45.2367" lon="6.24321">
        <ele>2211</ele>
        <time>2021-02-27T14:57:11Z</time>
      </trkpt>
      <trkpt lat="45.2367" lon="6.24329">
        <ele>2211</ele>
        <time>2021-02-27T14:57:12Z</time>
      </trkpt>
      <trkpt lat="45.2367" lon="6.24333">
        <ele>2211</ele>
        <time>2021-02-27T14:57:13Z</time>
      </trkpt>
      <trkpt lat="45.2367" lon="6.24337">
        <ele>2211</ele>
        <time>2021-02-27T14:57:14Z</time>
      </trkpt>
      <trkpt lat="45.2367" lon="6.24341">
        <ele>2211</ele>
        <time>2021-02-27T14:57:15Z</time>
      </trkpt>
      <trkpt lat="45.2367" lon="6.24345">
        <ele>2211</ele>
        <time>2021-02-27T14:57:16Z</time>
      </trkpt>
      <trkpt lat="45.2367" lon="6.24349">
        <ele>2211</ele>
        <time>2021-02-27T14:57:17Z</time>
      </trkpt>
      <trkpt lat="45.2367" lon="6.24353">
        <ele>2211</ele>
        <time>2021-02-27T14:57:18Z</time>
      </trkpt>
      <trkpt lat="45.2367" lon="6.24357">
        <ele>2211</ele>
        <time>2021-02-27T14:57:19Z</time>
      </trkpt>
      <trkpt lat="45.2367" lon="6.24361">
        <ele>2211</ele>
        <time>2021-02-27T14:57:20Z</time>
      </trkpt>
      <trkpt lat="45.2367" lon="6.24364">
        <ele>2209</ele>
        <time>2021-02-27T14:57:21Z</time>
      </trkpt>
      <trkpt lat="45.23668" lon="6.24373">
        <ele>2209</ele>
        <time>2021-02-27T14:57:22Z</time>
      </trkpt>
      <trkpt lat="45.23667" lon="6.24378">
        <ele>2209</ele>
        <time>2021-02-27T14:57:23Z</time>
      </trkpt>
      <trkpt lat="45.23665" lon="6.24383">
        <ele>2209</ele>
        <time>2021-02-27T14:57:24Z</time>
      </trkpt>
      <trkpt lat="45.23664" lon="6.24388">
        <ele>2209</ele>
        <time>2021-02-27T14:57:25Z</time>
      </trkpt>
      <trkpt lat="45.23662" lon="6.24392">
        <ele>2209</ele>
        <time>2021-02-27T14:57:26Z</time>
      </trkpt>
      <trkpt lat="45.23661" lon="6.24397">
        <ele>2209</ele>
        <time>2021-02-27T14:57:27Z</time>
      </trkpt>
      <trkpt lat="45.23659" lon="6.24402">
        <ele>2209</ele>
        <time>2021-02-27T14:57:28Z</time>
      </trkpt>
      <trkpt lat="45.23658" lon="6.24407">
        <ele>2209</ele>
        <time>2021-02-27T14:57:29Z</time>
      </trkpt>
      <trkpt lat="45.23656" lon="6.24411">
        <ele>2209</ele>
        <time>2021-02-27T14:57:30Z</time>
      </trkpt>
      <trkpt lat="45.23655" lon="6.24416">
        <ele>2206</ele>
        <time>2021-02-27T14:57:31Z</time>
      </trkpt>
      <trkpt lat="45.23651" lon="6.24428">
        <ele>2206</ele>
        <time>2021-02-27T14:57:32Z</time>
      </trkpt>
      <trkpt lat="45.23649" lon="6.24434">
        <ele>2206</ele>
        <time>2021-02-27T14:57:33Z</time>
      </trkpt>
      <trkpt lat="45.23647" lon="6.2444">
        <ele>2206</ele>
        <time>2021-02-27T14:57:34Z</time>
      </trkpt>
      <trkpt lat="45.23645" lon="6.24446">
        <ele>2206</ele>
        <time>2021-02-27T14:57:35Z</time>
      </trkpt>
      <trkpt lat="45.23643" lon="6.24452">
        <ele>2206</ele>
        <time>2021-02-27T14:57:36Z</time>
      </trkpt>
      <trkpt lat="45.23641" lon="6.24458">
        <ele>2206</ele>
        <time>2021-02-27T14:57:37Z</time>
      </trkpt>
      <trkpt lat="45.23639" lon="6.24464">
        <ele>2206</ele>
        <time>2021-02-27T14:57:38Z</time>
      </trkpt>
      <trkpt lat="45.23637" lon="6.2447">
        <ele>2206</ele>
        <time>2021-02-27T14:57:39Z</time>
      </trkpt>
      <trkpt lat="45.23635" lon="6.24476">
        <ele>2206</ele>
        <time>2021-02-27T14:57:40Z</time>
      </trkpt>
      <trkpt lat="45.23633" lon="6.24482">
        <ele>2201.8</ele>
        <time>2021-02-27T14:57:41Z</time>
      </trkpt>
      <trkpt lat="45.2363" lon="6.24497">
        <ele>2201.8</ele>
        <time>2021-02-27T14:57:42Z</time>
      </trkpt>
      <trkpt lat="45.23628" lon="6.24504">
        <ele>2201.8</ele>
        <time>2021-02-27T14:57:43Z</time>
      </trkpt>
      <trkpt lat="45.23626" lon="6.24511">
        <ele>2201.8</ele>
        <time>2021-02-27T14:57:44Z</time>
      </trkpt>
      <trkpt lat="45.23624" lon="6.24518">
        <ele>2201.8</ele>
        <time>2021-02-27T14:57:45Z</time>
      </trkpt>
      <trkpt lat="45.23622" lon="6.24525">
        <ele>2201.8</ele>
        <time>2021-02-27T14:57:46Z</time>
      </trkpt>
      <trkpt lat="45.23621" lon="6.24532">
        <ele>2201.8</ele>
        <time>2021-02-27T14:57:47Z</time>
      </trkpt>
      <trkpt lat="45.23619" lon="6.24539">
        <ele>2201.8</ele>
        <time>2021-02-27T14:57:48Z</time>
      </trkpt>
      <trkpt lat="45.23617" lon="6.24546">
        <ele>2201.8</ele>
        <time>2021-02-27T14:57:49Z</time>
      </trkpt>
      <trkpt lat="45.23615" lon="6.24553">
        <ele>2201.8</ele>
        <time>2021-02-27T14:57:50Z</time>
      </trkpt>
      <trkpt lat="45.23613" lon="6.2456">
        <ele>2195.2</ele>
        <time>2021-02-27T14:57:51Z</time>
      </trkpt>
      <trkpt lat="45.23605" lon="6.24575">
        <ele>2195.2</ele>
        <time>2021-02-27T14:57:52Z</time>
      </trkpt>
      <trkpt lat="45.23601" lon="6.24582">
        <ele>2195.2</ele>
        <time>2021-02-27T14:57:53Z</time>
      </trkpt>
      <trkpt lat="45.23596" lon="6.2459">
        <ele>2195.2</ele>
        <time>2021-02-27T14:57:54Z</time>
      </trkpt>
      <trkpt lat="45.23592" lon="6.24597">
        <ele>2195.2</ele>
        <time>2021-02-27T14:57:55Z</time>
      </trkpt>
      <trkpt lat="45.23587" lon="6.24604">
        <ele>2195.2</ele>
        <time>2021-02-27T14:57:56Z</time>
      </trkpt>
      <trkpt lat="45.23583" lon="6.24611">
        <ele>2195.2</ele>
        <time>2021-02-27T14:57:57Z</time>
      </trkpt>
      <trkpt lat="45.23578" lon="6.24619">
        <ele>2195.2</ele>
        <time>2021-02-27T14:57:58Z</time>
      </trkpt>
      <trkpt lat="45.23574" lon="6.24626">
        <ele>2195.2</ele>
        <time>2021-02-27T14:57:59Z</time>
      </trkpt>
      <trkpt lat="45.23569" lon="6.24633">
        <ele>2195.2</ele>
        <time>2021-02-27T14:58:00Z</time>
      </trkpt>
      <trkpt lat="45.23565" lon="6.24641">
        <ele>2184.4</ele>
        <time>2021-02-27T14:58:01Z</time>
      </trkpt>
      <trkpt lat="45.23552" lon="6.24652">
        <ele>2184.4</ele>
        <time>2021-02-27T14:58:02Z</time>
      </trkpt>
      <trkpt lat="45.23545" lon="6.24656">
        <ele>2184.4</ele>
        <time>2021-02-27T14:58:03Z</time>
      </trkpt>
      <trkpt lat="45.23538" lon="6.2466">
        <ele>2184.4</ele>
        <time>2021-02-27T14:58:04Z</time>
      </trkpt>
      <trkpt lat="45.23531" lon="6.24664">
        <ele>2184.4</ele>
        <time>2021-02-27T14:58:05Z</time>
      </trkpt>
      <trkpt lat="45.23524" lon="6.24667">
        <ele>2184.4</ele>
        <time>2021-02-27T14:58:06Z</time>
      </trkpt>
      <trkpt lat="45.23517" lon="6.24671">
        <ele>2184.4</ele>
        <time>2021-02-27T14:58:07Z</time>
      </trkpt>
      <trkpt lat="45.23511" lon="6.24675">
        <ele>2184.4</ele>
        <time>2021-02-27T14:58:08Z</time>
      </trkpt>
      <trkpt lat="45.23504" lon="6.24679">
        <ele>2184.4</ele>
        <time>2021-02-27T14:58:09Z</time>
      </trkpt>
      <trkpt lat="45.23497" lon="6.24683">
        <ele>2184.4</ele>
        <time>2021-02-27T14:58:10Z</time>
      </trkpt>
      <trkpt lat="45.2349" lon="6.24687">
        <ele>2171.6</ele>
        <time>2021-02-27T14:58:11Z</time>
      </trkpt>
      <trkpt lat="45.23481" lon="6.24688">
        <ele>2171.6</ele>
        <time>2021-02-27T14:58:12Z</time>
      </trkpt>
      <trkpt lat="45.23469" lon="6.24689">
        <ele>2171.6</ele>
        <time>2021-02-27T14:58:13Z</time>
      </trkpt>
      <trkpt lat="45.2346" lon="6.2469">
        <ele>2171.6</ele>
        <time>2021-02-27T14:58:14Z</time>
      </trkpt>
      <trkpt lat="45.23452" lon="6.24692">
        <ele>2171.6</ele>
        <time>2021-02-27T14:58:15Z</time>
      </trkpt>
      <trkpt lat="45.2344" lon="6.24694">
        <ele>2171.6</ele>
        <time>2021-02-27T14:58:16Z</time>
      </trkpt>
      <trkpt lat="45.23431" lon="6.24694">
        <ele>2171.6</ele>
        <time>2021-02-27T14:58:17Z</time>
      </trkpt>
      <trkpt lat="45.23421" lon="6.24696">
        <ele>2171.6</ele>
        <time>2021-02-27T14:58:18Z</time>
      </trkpt>
      <trkpt lat="45.23413" lon="6.24696">
        <ele>2171.6</ele>
        <time>2021-02-27T14:58:19Z</time>
      </trkpt>
      <trkpt lat="45.23403" lon="6.24697">
        <ele>2171.6</ele>
        <time>2021-02-27T14:58:20Z</time>
      </trkpt>
      <trkpt lat="45.23394" lon="6.24698">
        <ele>2159.4</ele>
        <time>2021-02-27T14:58:21Z</time>
      </trkpt>
      <trkpt lat="45.23378" lon="6.247">
        <ele>2159.4</ele>
        <time>2021-02-27T14:58:22Z</time>
      </trkpt>
      <trkpt lat="45.2337" lon="6.247">
        <ele>2159.4</ele>
        <time>2021-02-27T14:58:23Z</time>
      </trkpt>
      <trkpt lat="45.23363" lon="6.247">
        <ele>2159.4</ele>
        <time>2021-02-27T14:58:24Z</time>
      </trkpt>
      <trkpt lat="45.23355" lon="6.247">
        <ele>2159.4</ele>
        <time>2021-02-27T14:58:25Z</time>
      </trkpt>
      <trkpt lat="45.23348" lon="6.24701">
        <ele>2159.4</ele>
        <time>2021-02-27T14:58:26Z</time>
      </trkpt>
      <trkpt lat="45.2334" lon="6.24701">
        <ele>2159.4</ele>
        <time>2021-02-27T14:58:27Z</time>
      </trkpt>
      <trkpt lat="45.23333" lon="6.24701">
        <ele>2159.4</ele>
        <time>2021-02-27T14:58:28Z</time>
      </trkpt>
      <trkpt lat="45.23325" lon="6.24702">
        <ele>2159.4</ele>
        <time>2021-02-27T14:58:29Z</time>
      </trkpt>
      <trkpt lat="45.23318" lon="6.24702">
        <ele>2159.4</ele>
        <time>2021-02-27T14:58:30Z</time>
      </trkpt>
      <trkpt lat="45.2331" lon="6.24702">
        <ele>2147</ele>
        <time>2021-02-27T14:58:31Z</time>
      </trkpt>
      <trkpt lat="45.23293" lon="6.24702">
        <ele>2147</ele>
        <time>2021-02-27T14:58:32Z</time>
      </trkpt>
      <trkpt lat="45.23285" lon="6.24701">
        <ele>2147</ele>
        <time>2021-02-27T14:58:33Z</time>
      </trkpt>
      <trkpt lat="45.23277" lon="6.247">
        <ele>2147</ele>
        <time>2021-02-27T14:58:34Z</time>
      </trkpt>
      <trkpt lat="45.23269" lon="6.24699">
        <ele>2147</ele>
        <time>2021-02-27T14:58:35Z</time>
      </trkpt>
      <trkpt lat="45.23261" lon="6.24699">
        <ele>2147</ele>
        <time>2021-02-27T14:58:36Z</time>
      </trkpt>
      <trkpt lat="45.23253" lon="6.24698">
        <ele>2147</ele>
        <time>2021-02-27T14:58:37Z</time>
      </trkpt>
      <trkpt lat="45.23245" lon="6.24697">
        <ele>2147</ele>
        <time>2021-02-27T14:58:38Z</time>
      </trkpt>
      <trkpt lat="45.23236" lon="6.24697">
        <ele>2147</ele>
        <time>2021-02-27T14:58:39Z</time>
      </trkpt>
      <trkpt lat="45.23228" lon="6.24696">
        <ele>2147</ele>
        <time>2021-02-27T14:58:40Z</time>
      </trkpt>
      <trkpt lat="45.2322" lon="6.24695">
        <ele>2135.8</ele>
        <time>2021-02-27T14:58:41Z</time>
      </trkpt>
      <trkpt lat="45.2321" lon="6.24693">
        <ele>2135.8</ele>
        <time>2021-02-27T14:58:42Z</time>
      </trkpt>
      <trkpt lat="45.23201" lon="6.24692">
        <ele>2135.8</ele>
        <time>2021-02-27T14:58:43Z</time>
      </trkpt>
      <trkpt lat="45.23191" lon="6.2469">
        <ele>2135.8</ele>
        <time>2021-02-27T14:58:44Z</time>
      </trkpt>
      <trkpt lat="45.2318" lon="6.24689">
        <ele>2135.8</ele>
        <time>2021-02-27T14:58:45Z</time>
      </trkpt>
      <trkpt lat="45.23169" lon="6.24688">
        <ele>2135.8</ele>
        <time>2021-02-27T14:58:46Z</time>
      </trkpt>
      <trkpt lat="45.23159" lon="6.24688">
        <ele>2135.8</ele>
        <time>2021-02-27T14:58:47Z</time>
      </trkpt>
      <trkpt lat="45.23146" lon="6.2469">
        <ele>2135.8</ele>
        <time>2021-02-27T14:58:48Z</time>
      </trkpt>
      <trkpt lat="45.23137" lon="6.24693">
        <ele>2135.8</ele>
        <time>2021-02-27T14:58:49Z</time>
      </trkpt>
      <trkpt lat="45.23123" lon="6.24701">
        <ele>2135.8</ele>
        <time>2021-02-27T14:58:50Z</time>
      </trkpt>
      <trkpt lat="45.23118" lon="6.24704">
        <ele>2120.2</ele>
        <time>2021-02-27T14:58:51Z</time>
      </trkpt>
      <trkpt lat="45.23109" lon="6.24712">
        <ele>2120.2</ele>
        <time>2021-02-27T14:58:52Z</time>
      </trkpt>
      <trkpt lat="45.23101" lon="6.24724">
        <ele>2120.2</ele>
        <time>2021-02-27T14:58:53Z</time>
      </trkpt>
      <trkpt lat="45.23095" lon="6.24738">
        <ele>2120.2</ele>
        <time>2021-02-27T14:58:54Z</time>
      </trkpt>
      <trkpt lat="45.23092" lon="6.24752">
        <ele>2120.2</ele>
        <time>2021-02-27T14:58:55Z</time>
      </trkpt>
      <trkpt lat="45.23093" lon="6.24766">
        <ele>2120.2</ele>
        <time>2021-02-27T14:58:56Z</time>
      </trkpt>
      <trkpt lat="45.23093" lon="6.24781">
        <ele>2120.2</ele>
        <time>2021-02-27T14:58:57Z</time>
      </trkpt>
      <trkpt lat="45.23092" lon="6.24796">
        <ele>2120.2</ele>
        <time>2021-02-27T14:58:58Z</time>
      </trkpt>
      <trkpt lat="45.23089" lon="6.24809">
        <ele>2120.2</ele>
        <time>2021-02-27T14:58:59Z</time>
      </trkpt>
      <trkpt lat="45.23084" lon="6.2482">
        <ele>2120.2</ele>
        <time>2021-02-27T14:59:00Z</time>
      </trkpt>
      <trkpt lat="45.23077" lon="6.24829">
        <ele>2105.2</ele>
        <time>2021-02-27T14:59:01Z</time>
      </trkpt>
      <trkpt lat="45.2307" lon="6.24837">
        <ele>2105.2</ele>
        <time>2021-02-27T14:59:02Z</time>
      </trkpt>
      <trkpt lat="45.23062" lon="6.24846">
        <ele>2105.2</ele>
        <time>2021-02-27T14:59:03Z</time>
      </trkpt>
      <trkpt lat="45.23055" lon="6.24854">
        <ele>2105.2</ele>
        <time>2021-02-27T14:59:04Z</time>
      </trkpt>
      <trkpt lat="45.23045" lon="6.24865">
        <ele>2105.2</ele>
        <time>2021-02-27T14:59:05Z</time>
      </trkpt>
      <trkpt lat="45.2304" lon="6.24872">
        <ele>2105.2</ele>
        <time>2021-02-27T14:59:06Z</time>
      </trkpt>
      <trkpt lat="45.23032" lon="6.2488">
        <ele>2105.2</ele>
        <time>2021-02-27T14:59:07Z</time>
      </trkpt>
      <trkpt lat="45.23021" lon="6.24889">
        <ele>2105.2</ele>
        <time>2021-02-27T14:59:08Z</time>
      </trkpt>
      <trkpt lat="45.23013" lon="6.24894">
        <ele>2105.2</ele>
        <time>2021-02-27T14:59:09Z</time>
      </trkpt>
      <trkpt lat="45.23004" lon="6.24901">
        <ele>2105.2</ele>
        <time>2021-02-27T14:59:10Z</time>
      </trkpt>
      <trkpt lat="45.22995" lon="6.24906">
        <ele>2085.8</ele>
        <time>2021-02-27T14:59:11Z</time>
      </trkpt>
      <trkpt lat="45.22986" lon="6.24912">
        <ele>2085.8</ele>
        <time>2021-02-27T14:59:12Z</time>
      </trkpt>
      <trkpt lat="45.22976" lon="6.24918">
        <ele>2085.8</ele>
        <time>2021-02-27T14:59:13Z</time>
      </trkpt>
      <trkpt lat="45.22966" lon="6.24922">
        <ele>2085.8</ele>
        <time>2021-02-27T14:59:14Z</time>
      </trkpt>
      <trkpt lat="45.22957" lon="6.24926">
        <ele>2085.8</ele>
        <time>2021-02-27T14:59:15Z</time>
      </trkpt>
      <trkpt lat="45.22947" lon="6.24931">
        <ele>2085.8</ele>
        <time>2021-02-27T14:59:16Z</time>
      </trkpt>
      <trkpt lat="45.22937" lon="6.24937">
        <ele>2085.8</ele>
        <time>2021-02-27T14:59:17Z</time>
      </trkpt>
      <trkpt lat="45.22929" lon="6.2494">
        <ele>2085.8</ele>
        <time>2021-02-27T14:59:18Z</time>
      </trkpt>
      <trkpt lat="45.22919" lon="6.24943">
        <ele>2085.8</ele>
        <time>2021-02-27T14:59:19Z</time>
      </trkpt>
      <trkpt lat="45.22909" lon="6.24947">
        <ele>2085.8</ele>
        <time>2021-02-27T14:59:20Z</time>
      </trkpt>
      <trkpt lat="45.22897" lon="6.24949">
        <ele>2070.2</ele>
        <time>2021-02-27T14:59:21Z</time>
      </trkpt>
      <trkpt lat="45.22885" lon="6.24952">
        <ele>2070.2</ele>
        <time>2021-02-27T14:59:22Z</time>
      </trkpt>
      <trkpt lat="45.22877" lon="6.24951">
        <ele>2070.2</ele>
        <time>2021-02-27T14:59:23Z</time>
      </trkpt>
      <trkpt lat="45.22866" lon="6.24952">
        <ele>2070.2</ele>
        <time>2021-02-27T14:59:24Z</time>
      </trkpt>
      <trkpt lat="45.22855" lon="6.24952">
        <ele>2070.2</ele>
        <time>2021-02-27T14:59:25Z</time>
      </trkpt>
      <trkpt lat="45.22843" lon="6.24951">
        <ele>2070.2</ele>
        <time>2021-02-27T14:59:26Z</time>
      </trkpt>
      <trkpt lat="45.22831" lon="6.24951">
        <ele>2070.2</ele>
        <time>2021-02-27T14:59:27Z</time>
      </trkpt>
      <trkpt lat="45.2282" lon="6.24952">
        <ele>2070.2</ele>
        <time>2021-02-27T14:59:28Z</time>
      </trkpt>
      <trkpt lat="45.2281" lon="6.24953">
        <ele>2070.2</ele>
        <time>2021-02-27T14:59:29Z</time>
      </trkpt>
      <trkpt lat="45.22795" lon="6.2496">
        <ele>2070.2</ele>
        <time>2021-02-27T14:59:30Z</time>
      </trkpt>
      <trkpt lat="45.2279" lon="6.24963">
        <ele>2053.4</ele>
        <time>2021-02-27T14:59:31Z</time>
      </trkpt>
      <trkpt lat="45.22775" lon="6.24974">
        <ele>2053.4</ele>
        <time>2021-02-27T14:59:32Z</time>
      </trkpt>
      <trkpt lat="45.22768" lon="6.2498">
        <ele>2053.4</ele>
        <time>2021-02-27T14:59:33Z</time>
      </trkpt>
      <trkpt lat="45.22762" lon="6.24985">
        <ele>2053.4</ele>
        <time>2021-02-27T14:59:34Z</time>
      </trkpt>
      <trkpt lat="45.22755" lon="6.2499">
        <ele>2053.4</ele>
        <time>2021-02-27T14:59:35Z</time>
      </trkpt>
      <trkpt lat="45.22749" lon="6.24995">
        <ele>2053.4</ele>
        <time>2021-02-27T14:59:36Z</time>
      </trkpt>
      <trkpt lat="45.22742" lon="6.25">
        <ele>2053.4</ele>
        <time>2021-02-27T14:59:37Z</time>
      </trkpt>
      <trkpt lat="45.22735" lon="6.25005">
        <ele>2053.4</ele>
        <time>2021-02-27T14:59:38Z</time>
      </trkpt>
      <trkpt lat="45.22729" lon="6.25011">
        <ele>2053.4</ele>
        <time>2021-02-27T14:59:39Z</time>
      </trkpt>
      <trkpt lat="45.22722" lon="6.25016">
        <ele>2053.4</ele>
        <time>2021-02-27T14:59:40Z</time>
      </trkpt>
      <trkpt lat="45.22716" lon="6.25021">
        <ele>2035.2</ele>
        <time>2021-02-27T14:59:41Z</time>
      </trkpt>
      <trkpt lat="45.22715" lon="6.25042">
        <ele>2035.2</ele>
        <time>2021-02-27T14:59:42Z</time>
      </trkpt>
      <trkpt lat="45.22717" lon="6.25051">
        <ele>2035.2</ele>
        <time>2021-02-27T14:59:43Z</time>
      </trkpt>
      <trkpt lat="45.2272" lon="6.2506">
        <ele>2035.2</ele>
        <time>2021-02-27T14:59:44Z</time>
      </trkpt>
      <trkpt lat="45.22722" lon="6.25069">
        <ele>2035.2</ele>
        <time>2021-02-27T14:59:45Z</time>
      </trkpt>
      <trkpt lat="45.22724" lon="6.25078">
        <ele>2035.2</ele>
        <time>2021-02-27T14:59:46Z</time>
      </trkpt>
      <trkpt lat="45.22727" lon="6.25087">
        <ele>2035.2</ele>
        <time>2021-02-27T14:59:47Z</time>
      </trkpt>
      <trkpt lat="45.22729" lon="6.25096">
        <ele>2035.2</ele>
        <time>2021-02-27T14:59:48Z</time>
      </trkpt>
      <trkpt lat="45.22731" lon="6.25104">
        <ele>2035.2</ele>
        <time>2021-02-27T14:59:49Z</time>
      </trkpt>
      <trkpt lat="45.22734" lon="6.25113">
        <ele>2035.2</ele>
        <time>2021-02-27T14:59:50Z</time>
      </trkpt>
      <trkpt lat="45.22736" lon="6.25122">
        <ele>2020</ele>
        <time>2021-02-27T14:59:51Z</time>
      </trkpt>
      <trkpt lat="45.2274" lon="6.25128">
        <ele>2020</ele>
        <time>2021-02-27T15:00:00Z</time>
      </trkpt>
      <trkpt lat="45.2274" lon="6.25128">
        <ele>2014</ele>
        <time>2021-02-27T15:00:01Z</time>
      </trkpt>
      <trkpt lat="45.22745" lon="6.25133">
        <ele>2014</ele>
        <time>2021-02-27T15:00:03Z</time>
      </trkpt>
      <trkpt lat="45.22748" lon="6.25136">
        <ele>2014</ele>
        <time>2021-02-27T15:00:05Z</time>
      </trkpt>
      <trkpt lat="45.22751" lon="6.2514">
        <ele>2014</ele>
        <time>2021-02-27T15:00:06Z</time>
      </trkpt>
      <trkpt lat="45.22754" lon="6.25143">
        <ele>2014</ele>
        <time>2021-02-27T15:00:07Z</time>
      </trkpt>
      <trkpt lat="45.22758" lon="6.25147">
        <ele>2014</ele>
        <time>2021-02-27T15:00:08Z</time>
      </trkpt>
      <trkpt lat="45.22761" lon="6.25151">
        <ele>2014</ele>
        <time>2021-02-27T15:00:09Z</time>
      </trkpt>
      <trkpt lat="45.22764" lon="6.25154">
        <ele>2014</ele>
        <time>2021-02-27T15:00:10Z</time>
      </trkpt>
      <trkpt lat="45.22767" lon="6.25158">
        <ele>2012.6</ele>
        <time>2021-02-27T15:00:11Z</time>
      </trkpt>
      <trkpt lat="45.22771" lon="6.25173">
        <ele>2012.6</ele>
        <time>2021-02-27T15:00:12Z</time>
      </trkpt>
      <trkpt lat="45.22771" lon="6.25181">
        <ele>2012.6</ele>
        <time>2021-02-27T15:00:13Z</time>
      </trkpt>
      <trkpt lat="45.2277" lon="6.25189">
        <ele>2012.6</ele>
        <time>2021-02-27T15:00:14Z</time>
      </trkpt>
      <trkpt lat="45.2277" lon="6.25197">
        <ele>2012.6</ele>
        <time>2021-02-27T15:00:15Z</time>
      </trkpt>
      <trkpt lat="45.2277" lon="6.25205">
        <ele>2012.6</ele>
        <time>2021-02-27T15:00:16Z</time>
      </trkpt>
      <trkpt lat="45.22769" lon="6.25214">
        <ele>2012.6</ele>
        <time>2021-02-27T15:00:17Z</time>
      </trkpt>
      <trkpt lat="45.22769" lon="6.25222">
        <ele>2012.6</ele>
        <time>2021-02-27T15:00:18Z</time>
      </trkpt>
      <trkpt lat="45.22768" lon="6.2523">
        <ele>2012.6</ele>
        <time>2021-02-27T15:00:19Z</time>
      </trkpt>
      <trkpt lat="45.22768" lon="6.25238">
        <ele>2012.6</ele>
        <time>2021-02-27T15:00:20Z</time>
      </trkpt>
      <trkpt lat="45.22767" lon="6.25246">
        <ele>1994</ele>
        <time>2021-02-27T15:00:21Z</time>
      </trkpt>
      <trkpt lat="45.22761" lon="6.25254">
        <ele>1994</ele>
        <time>2021-02-27T15:00:22Z</time>
      </trkpt>
      <trkpt lat="45.22755" lon="6.25262">
        <ele>1994</ele>
        <time>2021-02-27T15:00:23Z</time>
      </trkpt>
      <trkpt lat="45.22749" lon="6.2527">
        <ele>1994</ele>
        <time>2021-02-27T15:00:24Z</time>
      </trkpt>
      <trkpt lat="45.22741" lon="6.2528">
        <ele>1994</ele>
        <time>2021-02-27T15:00:25Z</time>
      </trkpt>
      <trkpt lat="45.22736" lon="6.25288">
        <ele>1994</ele>
        <time>2021-02-27T15:00:26Z</time>
      </trkpt>
      <trkpt lat="45.22727" lon="6.25297">
        <ele>1994</ele>
        <time>2021-02-27T15:00:27Z</time>
      </trkpt>
      <trkpt lat="45.22721" lon="6.25304">
        <ele>1994</ele>
        <time>2021-02-27T15:00:28Z</time>
      </trkpt>
      <trkpt lat="45.22714" lon="6.25312">
        <ele>1994</ele>
        <time>2021-02-27T15:00:29Z</time>
      </trkpt>
      <trkpt lat="45.22707" lon="6.2532">
        <ele>1994</ele>
        <time>2021-02-27T15:00:30Z</time>
      </trkpt>
      <trkpt lat="45.22699" lon="6.25327">
        <ele>1970.6</ele>
        <time>2021-02-27T15:00:31Z</time>
      </trkpt>
      <trkpt lat="45.22686" lon="6.2534">
        <ele>1970.6</ele>
        <time>2021-02-27T15:00:32Z</time>
      </trkpt>
      <trkpt lat="45.22679" lon="6.25345">
        <ele>1970.6</ele>
        <time>2021-02-27T15:00:33Z</time>
      </trkpt>
      <trkpt lat="45.22673" lon="6.25351">
        <ele>1970.6</ele>
        <time>2021-02-27T15:00:34Z</time>
      </trkpt>
      <trkpt lat="45.22667" lon="6.25356">
        <ele>1970.6</ele>
        <time>2021-02-27T15:00:35Z</time>
      </trkpt>
      <trkpt lat="45.2266" lon="6.25362">
        <ele>1970.6</ele>
        <time>2021-02-27T15:00:36Z</time>
      </trkpt>
      <trkpt lat="45.22654" lon="6.25367">
        <ele>1970.6</ele>
        <time>2021-02-27T15:00:37Z</time>
      </trkpt>
      <trkpt lat="45.22648" lon="6.25372">
        <ele>1970.6</ele>
        <time>2021-02-27T15:00:38Z</time>
      </trkpt>
      <trkpt lat="45.22641" lon="6.25378">
        <ele>1970.6</ele>
        <time>2021-02-27T15:00:39Z</time>
      </trkpt>
      <trkpt lat="45.22635" lon="6.25383">
        <ele>1970.6</ele>
        <time>2021-02-27T15:00:40Z</time>
      </trkpt>
      <trkpt lat="45.22629" lon="6.25389">
        <ele>1945.8</ele>
        <time>2021-02-27T15:00:41Z</time>
      </trkpt>
      <trkpt lat="45.22623" lon="6.25395">
        <ele>1945.8</ele>
        <time>2021-02-27T15:00:42Z</time>
      </trkpt>
      <trkpt lat="45.22616" lon="6.25402">
        <ele>1945.8</ele>
        <time>2021-02-27T15:00:43Z</time>
      </trkpt>
      <trkpt lat="45.22607" lon="6.25414">
        <ele>1945.8</ele>
        <time>2021-02-27T15:00:44Z</time>
      </trkpt>
      <trkpt lat="45.22602" lon="6.25427">
        <ele>1945.8</ele>
        <time>2021-02-27T15:00:45Z</time>
      </trkpt>
      <trkpt lat="45.22599" lon="6.25438">
        <ele>1945.8</ele>
        <time>2021-02-27T15:00:46Z</time>
      </trkpt>
      <trkpt lat="45.22597" lon="6.25454">
        <ele>1945.8</ele>
        <time>2021-02-27T15:00:47Z</time>
      </trkpt>
      <trkpt lat="45.22597" lon="6.2547">
        <ele>1945.8</ele>
        <time>2021-02-27T15:00:48Z</time>
      </trkpt>
      <trkpt lat="45.22596" lon="6.25485">
        <ele>1945.8</ele>
        <time>2021-02-27T15:00:49Z</time>
      </trkpt>
      <trkpt lat="45.22592" lon="6.25498">
        <ele>1945.8</ele>
        <time>2021-02-27T15:00:50Z</time>
      </trkpt>
      <trkpt lat="45.22588" lon="6.2551">
        <ele>1924.6</ele>
        <time>2021-02-27T15:00:51Z</time>
      </trkpt>
      <trkpt lat="45.22583" lon="6.25521">
        <ele>1924.6</ele>
        <time>2021-02-27T15:00:52Z</time>
      </trkpt>
      <trkpt lat="45.22579" lon="6.25533">
        <ele>1924.6</ele>
        <time>2021-02-27T15:00:53Z</time>
      </trkpt>
      <trkpt lat="45.22579" lon="6.25541">
        <ele>1924.6</ele>
        <time>2021-02-27T15:00:54Z</time>
      </trkpt>
      <trkpt lat="45.2258" lon="6.25549">
        <ele>1924.6</ele>
        <time>2021-02-27T15:00:55Z</time>
      </trkpt>
      <trkpt lat="45.2258" lon="6.25555">
        <ele>1924.6</ele>
        <time>2021-02-27T15:00:56Z</time>
      </trkpt>
      <trkpt lat="45.2258" lon="6.25555">
        <ele>1915.6</ele>
        <time>2021-02-27T15:01:01Z</time>
      </trkpt>
      <trkpt lat="45.22581" lon="6.25558">
        <ele>1915.6</ele>
        <time>2021-02-27T15:01:03Z</time>
      </trkpt>
      <trkpt lat="45.22581" lon="6.25558">
        <ele>1914.2</ele>
        <time>2021-02-27T15:01:11Z</time>
      </trkpt>
      <trkpt lat="45.22581" lon="6.25558">
        <ele>1914.8</ele>
        <time>2021-02-27T15:01:21Z</time>
      </trkpt>
      <trkpt lat="45.22581" lon="6.25558">
        <ele>1913.8</ele>
        <time>2021-02-27T15:01:31Z</time>
      </trkpt>
      <trkpt lat="45.22581" lon="6.25562">
        <ele>1913.8</ele>
        <time>2021-02-27T15:01:40Z</time>
      </trkpt>
      <trkpt lat="45.22581" lon="6.25566">
        <ele>1913.4</ele>
        <time>2021-02-27T15:01:41Z</time>
      </trkpt>
      <trkpt lat="45.22578" lon="6.25575">
        <ele>1913.4</ele>
        <time>2021-02-27T15:01:42Z</time>
      </trkpt>
      <trkpt lat="45.22577" lon="6.2558">
        <ele>1913.4</ele>
        <time>2021-02-27T15:01:43Z</time>
      </trkpt>
      <trkpt lat="45.22576" lon="6.25585">
        <ele>1913.4</ele>
        <time>2021-02-27T15:01:44Z</time>
      </trkpt>
      <trkpt lat="45.22574" lon="6.2559">
        <ele>1913.4</ele>
        <time>2021-02-27T15:01:45Z</time>
      </trkpt>
      <trkpt lat="45.22573" lon="6.25596">
        <ele>1913.4</ele>
        <time>2021-02-27T15:01:46Z</time>
      </trkpt>
      <trkpt lat="45.22572" lon="6.25601">
        <ele>1913.4</ele>
        <time>2021-02-27T15:01:47Z</time>
      </trkpt>
      <trkpt lat="45.22571" lon="6.25606">
        <ele>1913.4</ele>
        <time>2021-02-27T15:01:48Z</time>
      </trkpt>
      <trkpt lat="45.2257" lon="6.25612">
        <ele>1913.4</ele>
        <time>2021-02-27T15:01:49Z</time>
      </trkpt>
      <trkpt lat="45.22569" lon="6.25617">
        <ele>1913.4</ele>
        <time>2021-02-27T15:01:50Z</time>
      </trkpt>
      <trkpt lat="45.22568" lon="6.25622">
        <ele>1905.4</ele>
        <time>2021-02-27T15:01:51Z</time>
      </trkpt>
      <trkpt lat="45.22564" lon="6.25636">
        <ele>1905.4</ele>
        <time>2021-02-27T15:01:52Z</time>
      </trkpt>
      <trkpt lat="45.22562" lon="6.25643">
        <ele>1905.4</ele>
        <time>2021-02-27T15:01:53Z</time>
      </trkpt>
      <trkpt lat="45.2256" lon="6.25649">
        <ele>1905.4</ele>
        <time>2021-02-27T15:01:54Z</time>
      </trkpt>
      <trkpt lat="45.22558" lon="6.25656">
        <ele>1905.4</ele>
        <time>2021-02-27T15:01:55Z</time>
      </trkpt>
      <trkpt lat="45.22557" lon="6.25663">
        <ele>1905.4</ele>
        <time>2021-02-27T15:01:56Z</time>
      </trkpt>
      <trkpt lat="45.22555" lon="6.25669">
        <ele>1905.4</ele>
        <time>2021-02-27T15:01:57Z</time>
      </trkpt>
      <trkpt lat="45.22553" lon="6.25676">
        <ele>1905.4</ele>
        <time>2021-02-27T15:01:58Z</time>
      </trkpt>
      <trkpt lat="45.22551" lon="6.25682">
        <ele>1905.4</ele>
        <time>2021-02-27T15:01:59Z</time>
      </trkpt>
      <trkpt lat="45.22549" lon="6.25689">
        <ele>1905.4</ele>
        <time>2021-02-27T15:02:00Z</time>
      </trkpt>
      <trkpt lat="45.22547" lon="6.25695">
        <ele>1890.8</ele>
        <time>2021-02-27T15:02:01Z</time>
      </trkpt>
      <trkpt lat="45.22542" lon="6.25708">
        <ele>1890.8</ele>
        <time>2021-02-27T15:02:02Z</time>
      </trkpt>
      <trkpt lat="45.22539" lon="6.25712">
        <ele>1890.8</ele>
        <time>2021-02-27T15:02:03Z</time>
      </trkpt>
      <trkpt lat="45.22537" lon="6.25717">
        <ele>1890.8</ele>
        <time>2021-02-27T15:02:04Z</time>
      </trkpt>
      <trkpt lat="45.22534" lon="6.25722">
        <ele>1890.8</ele>
        <time>2021-02-27T15:02:05Z</time>
      </trkpt>
      <trkpt lat="45.22532" lon="6.25726">
        <ele>1890.8</ele>
        <time>2021-02-27T15:02:06Z</time>
      </trkpt>
      <trkpt lat="45.22529" lon="6.25731">
        <ele>1890.8</ele>
        <time>2021-02-27T15:02:07Z</time>
      </trkpt>
      <trkpt lat="45.22527" lon="6.25736">
        <ele>1890.8</ele>
        <time>2021-02-27T15:02:08Z</time>
      </trkpt>
      <trkpt lat="45.22524" lon="6.2574">
        <ele>1890.8</ele>
        <time>2021-02-27T15:02:09Z</time>
      </trkpt>
      <trkpt lat="45.22522" lon="6.25745">
        <ele>1890.8</ele>
        <time>2021-02-27T15:02:10Z</time>
      </trkpt>
      <trkpt lat="45.22519" lon="6.2575">
        <ele>1875.2</ele>
        <time>2021-02-27T15:02:11Z</time>
      </trkpt>
      <trkpt lat="45.2251" lon="6.25748">
        <ele>1875.2</ele>
        <time>2021-02-27T15:02:12Z</time>
      </trkpt>
      <trkpt lat="45.22506" lon="6.25746">
        <ele>1875.2</ele>
        <time>2021-02-27T15:02:13Z</time>
      </trkpt>
      <trkpt lat="45.22501" lon="6.25744">
        <ele>1875.2</ele>
        <time>2021-02-27T15:02:14Z</time>
      </trkpt>
      <trkpt lat="45.22496" lon="6.25742">
        <ele>1875.2</ele>
        <time>2021-02-27T15:02:15Z</time>
      </trkpt>
      <trkpt lat="45.22492" lon="6.2574">
        <ele>1875.2</ele>
        <time>2021-02-27T15:02:16Z</time>
      </trkpt>
      <trkpt lat="45.22487" lon="6.25739">
        <ele>1875.2</ele>
        <time>2021-02-27T15:02:17Z</time>
      </trkpt>
      <trkpt lat="45.22482" lon="6.25737">
        <ele>1875.2</ele>
        <time>2021-02-27T15:02:18Z</time>
      </trkpt>
      <trkpt lat="45.22477" lon="6.25735">
        <ele>1875.2</ele>
        <time>2021-02-27T15:02:19Z</time>
      </trkpt>
      <trkpt lat="45.22473" lon="6.25733">
        <ele>1875.2</ele>
        <time>2021-02-27T15:02:20Z</time>
      </trkpt>
      <trkpt lat="45.22468" lon="6.25731">
        <ele>1859</ele>
        <time>2021-02-27T15:02:21Z</time>
      </trkpt>
      <trkpt lat="45.22455" lon="6.25732">
        <ele>1859</ele>
        <time>2021-02-27T15:02:22Z</time>
      </trkpt>
      <trkpt lat="45.22448" lon="6.25736">
        <ele>1859</ele>
        <time>2021-02-27T15:02:23Z</time>
      </trkpt>
      <trkpt lat="45.22442" lon="6.2574">
        <ele>1859</ele>
        <time>2021-02-27T15:02:24Z</time>
      </trkpt>
      <trkpt lat="45.22435" lon="6.25744">
        <ele>1859</ele>
        <time>2021-02-27T15:02:25Z</time>
      </trkpt>
      <trkpt lat="45.22429" lon="6.25748">
        <ele>1859</ele>
        <time>2021-02-27T15:02:26Z</time>
      </trkpt>
      <trkpt lat="45.22422" lon="6.25752">
        <ele>1859</ele>
        <time>2021-02-27T15:02:27Z</time>
      </trkpt>
      <trkpt lat="45.22415" lon="6.25756">
        <ele>1859</ele>
        <time>2021-02-27T15:02:28Z</time>
      </trkpt>
      <trkpt lat="45.22409" lon="6.2576">
        <ele>1859</ele>
        <time>2021-02-27T15:02:29Z</time>
      </trkpt>
      <trkpt lat="45.22402" lon="6.25763">
        <ele>1859</ele>
        <time>2021-02-27T15:02:30Z</time>
      </trkpt>
      <trkpt lat="45.22396" lon="6.25767">
        <ele>1837.8</ele>
        <time>2021-02-27T15:02:31Z</time>
      </trkpt>
      <trkpt lat="45.22381" lon="6.25782">
        <ele>1837.8</ele>
        <time>2021-02-27T15:02:32Z</time>
      </trkpt>
      <trkpt lat="45.22376" lon="6.25784">
        <ele>1837.8</ele>
        <time>2021-02-27T15:02:33Z</time>
      </trkpt>
      <trkpt lat="45.2237" lon="6.25787">
        <ele>1837.8</ele>
        <time>2021-02-27T15:02:34Z</time>
      </trkpt>
      <trkpt lat="45.22365" lon="6.25789">
        <ele>1837.8</ele>
        <time>2021-02-27T15:02:35Z</time>
      </trkpt>
      <trkpt lat="45.2236" lon="6.25792">
        <ele>1837.8</ele>
        <time>2021-02-27T15:02:36Z</time>
      </trkpt>
      <trkpt lat="45.22354" lon="6.25794">
        <ele>1837.8</ele>
        <time>2021-02-27T15:02:37Z</time>
      </trkpt>
      <trkpt lat="45.22349" lon="6.25796">
        <ele>1837.8</ele>
        <time>2021-02-27T15:02:38Z</time>
      </trkpt>
      <trkpt lat="45.22343" lon="6.25799">
        <ele>1837.8</ele>
        <time>2021-02-27T15:02:39Z</time>
      </trkpt>
      <trkpt lat="45.22338" lon="6.25801">
        <ele>1837.8</ele>
        <time>2021-02-27T15:02:40Z</time>
      </trkpt>
      <trkpt lat="45.22332" lon="6.25804">
        <ele>1823.4</ele>
        <time>2021-02-27T15:02:41Z</time>
      </trkpt>
      <trkpt lat="45.22317" lon="6.25805">
        <ele>1823.4</ele>
        <time>2021-02-27T15:02:42Z</time>
      </trkpt>
      <trkpt lat="45.2231" lon="6.25806">
        <ele>1823.4</ele>
        <time>2021-02-27T15:02:43Z</time>
      </trkpt>
      <trkpt lat="45.22303" lon="6.25807">
        <ele>1823.4</ele>
        <time>2021-02-27T15:02:44Z</time>
      </trkpt>
      <trkpt lat="45.22296" lon="6.25808">
        <ele>1823.4</ele>
        <time>2021-02-27T15:02:45Z</time>
      </trkpt>
      <trkpt lat="45.22288" lon="6.25809">
        <ele>1823.4</ele>
        <time>2021-02-27T15:02:46Z</time>
      </trkpt>
      <trkpt lat="45.22281" lon="6.2581">
        <ele>1823.4</ele>
        <time>2021-02-27T15:02:47Z</time>
      </trkpt>
      <trkpt lat="45.22274" lon="6.25811">
        <ele>1823.4</ele>
        <time>2021-02-27T15:02:48Z</time>
      </trkpt>
      <trkpt lat="45.22267" lon="6.25812">
        <ele>1823.4</ele>
        <time>2021-02-27T15:02:49Z</time>
      </trkpt>
      <trkpt lat="45.22259" lon="6.25813">
        <ele>1823.4</ele>
        <time>2021-02-27T15:02:50Z</time>
      </trkpt>
      <trkpt lat="45.22252" lon="6.25814">
        <ele>1815.4</ele>
        <time>2021-02-27T15:02:51Z</time>
      </trkpt>
      <trkpt lat="45.22243" lon="6.25811">
        <ele>1815.4</ele>
        <time>2021-02-27T15:02:52Z</time>
      </trkpt>
      <trkpt lat="45.22241" lon="6.2581">
        <ele>1815.4</ele>
        <time>2021-02-27T15:02:53Z</time>
      </trkpt>
      <trkpt lat="45.22239" lon="6.25809">
        <ele>1815.4</ele>
        <time>2021-02-27T15:02:58Z</time>
      </trkpt>
      <trkpt lat="45.22238" lon="6.25807">
        <ele>1815.4</ele>
        <time>2021-02-27T15:03:00Z</time>
      </trkpt>
      <trkpt lat="45.22236" lon="6.25806">
        <ele>1811.8</ele>
        <time>2021-02-27T15:03:01Z</time>
      </trkpt>
      <trkpt lat="45.2223" lon="6.25804">
        <ele>1811.8</ele>
        <time>2021-02-27T15:03:02Z</time>
      </trkpt>
      <trkpt lat="45.22226" lon="6.25802">
        <ele>1811.8</ele>
        <time>2021-02-27T15:03:03Z</time>
      </trkpt>
      <trkpt lat="45.22223" lon="6.25801">
        <ele>1811.8</ele>
        <time>2021-02-27T15:03:04Z</time>
      </trkpt>
      <trkpt lat="45.22219" lon="6.25799">
        <ele>1811.8</ele>
        <time>2021-02-27T15:03:05Z</time>
      </trkpt>
      <trkpt lat="45.22216" lon="6.25798">
        <ele>1811.8</ele>
        <time>2021-02-27T15:03:06Z</time>
      </trkpt>
      <trkpt lat="45.22212" lon="6.25796">
        <ele>1811.8</ele>
        <time>2021-02-27T15:03:07Z</time>
      </trkpt>
      <trkpt lat="45.22209" lon="6.25795">
        <ele>1811.8</ele>
        <time>2021-02-27T15:03:08Z</time>
      </trkpt>
      <trkpt lat="45.22205" lon="6.25793">
        <ele>1811.8</ele>
        <time>2021-02-27T15:03:09Z</time>
      </trkpt>
      <trkpt lat="45.22202" lon="6.25792">
        <ele>1811.8</ele>
        <time>2021-02-27T15:03:10Z</time>
      </trkpt>
      <trkpt lat="45.22198" lon="6.2579">
        <ele>1807</ele>
        <time>2021-02-27T15:03:11Z</time>
      </trkpt>
      <trkpt lat="45.22189" lon="6.25785">
        <ele>1807</ele>
        <time>2021-02-27T15:03:12Z</time>
      </trkpt>
      <trkpt lat="45.22186" lon="6.25783">
        <ele>1807</ele>
        <time>2021-02-27T15:03:13Z</time>
      </trkpt>
      <trkpt lat="45.22182" lon="6.2578">
        <ele>1807</ele>
        <time>2021-02-27T15:03:14Z</time>
      </trkpt>
      <trkpt lat="45.22178" lon="6.25778">
        <ele>1807</ele>
        <time>2021-02-27T15:03:15Z</time>
      </trkpt>
      <trkpt lat="45.22174" lon="6.25776">
        <ele>1807</ele>
        <time>2021-02-27T15:03:16Z</time>
      </trkpt>
      <trkpt lat="45.2217" lon="6.25773">
        <ele>1807</ele>
        <time>2021-02-27T15:03:17Z</time>
      </trkpt>
      <trkpt lat="45.22166" lon="6.25771">
        <ele>1807</ele>
        <time>2021-02-27T15:03:18Z</time>
      </trkpt>
      <trkpt lat="45.22162" lon="6.25769">
        <ele>1807</ele>
        <time>2021-02-27T15:03:19Z</time>
      </trkpt>
      <trkpt lat="45.22159" lon="6.25767">
        <ele>1807</ele>
        <time>2021-02-27T15:03:20Z</time>
      </trkpt>
      <trkpt lat="45.22155" lon="6.25764">
        <ele>1799.2</ele>
        <time>2021-02-27T15:03:21Z</time>
      </trkpt>
      <trkpt lat="45.22144" lon="6.2576">
        <ele>1799.2</ele>
        <time>2021-02-27T15:03:22Z</time>
      </trkpt>
      <trkpt lat="45.22138" lon="6.25756">
        <ele>1799.2</ele>
        <time>2021-02-27T15:03:23Z</time>
      </trkpt>
      <trkpt lat="45.22133" lon="6.25752">
        <ele>1799.2</ele>
        <time>2021-02-27T15:03:24Z</time>
      </trkpt>
      <trkpt lat="45.22128" lon="6.25748">
        <ele>1799.2</ele>
        <time>2021-02-27T15:03:25Z</time>
      </trkpt>
      <trkpt lat="45.22123" lon="6.25744">
        <ele>1799.2</ele>
        <time>2021-02-27T15:03:26Z</time>
      </trkpt>
      <trkpt lat="45.22117" lon="6.2574">
        <ele>1799.2</ele>
        <time>2021-02-27T15:03:27Z</time>
      </trkpt>
      <trkpt lat="45.22112" lon="6.25736">
        <ele>1799.2</ele>
        <time>2021-02-27T15:03:28Z</time>
      </trkpt>
      <trkpt lat="45.22107" lon="6.25732">
        <ele>1799.2</ele>
        <time>2021-02-27T15:03:29Z</time>
      </trkpt>
      <trkpt lat="45.22102" lon="6.25727">
        <ele>1799.2</ele>
        <time>2021-02-27T15:03:30Z</time>
      </trkpt>
      <trkpt lat="45.22096" lon="6.25723">
        <ele>1788.2</ele>
        <time>2021-02-27T15:03:31Z</time>
      </trkpt>
      <trkpt lat="45.22086" lon="6.25717">
        <ele>1788.2</ele>
        <time>2021-02-27T15:03:32Z</time>
      </trkpt>
      <trkpt lat="45.22081" lon="6.25715">
        <ele>1788.2</ele>
        <time>2021-02-27T15:03:33Z</time>
      </trkpt>
      <trkpt lat="45.22076" lon="6.25713">
        <ele>1788.2</ele>
        <time>2021-02-27T15:03:34Z</time>
      </trkpt>
      <trkpt lat="45.22071" lon="6.2571">
        <ele>1788.2</ele>
        <time>2021-02-27T15:03:35Z</time>
      </trkpt>
      <trkpt lat="45.22067" lon="6.25708">
        <ele>1788.2</ele>
        <time>2021-02-27T15:03:36Z</time>
      </trkpt>
      <trkpt lat="45.22062" lon="6.25706">
        <ele>1788.2</ele>
        <time>2021-02-27T15:03:37Z</time>
      </trkpt>
      <trkpt lat="45.22057" lon="6.25703">
        <ele>1788.2</ele>
        <time>2021-02-27T15:03:38Z</time>
      </trkpt>
      <trkpt lat="45.22052" lon="6.25701">
        <ele>1788.2</ele>
        <time>2021-02-27T15:03:39Z</time>
      </trkpt>
      <trkpt lat="45.22047" lon="6.25699">
        <ele>1788.2</ele>
        <time>2021-02-27T15:03:40Z</time>
      </trkpt>
      <trkpt lat="45.22042" lon="6.25696">
        <ele>1775.2</ele>
        <time>2021-02-27T15:03:41Z</time>
      </trkpt>
      <trkpt lat="45.2203" lon="6.25691">
        <ele>1775.2</ele>
        <time>2021-02-27T15:03:42Z</time>
      </trkpt>
      <trkpt lat="45.22024" lon="6.25689">
        <ele>1775.2</ele>
        <time>2021-02-27T15:03:43Z</time>
      </trkpt>
      <trkpt lat="45.22019" lon="6.25688">
        <ele>1775.2</ele>
        <time>2021-02-27T15:03:44Z</time>
      </trkpt>
      <trkpt lat="45.22013" lon="6.25686">
        <ele>1775.2</ele>
        <time>2021-02-27T15:03:45Z</time>
      </trkpt>
      <trkpt lat="45.22007" lon="6.25684">
        <ele>1775.2</ele>
        <time>2021-02-27T15:03:46Z</time>
      </trkpt>
      <trkpt lat="45.22002" lon="6.25682">
        <ele>1775.2</ele>
        <time>2021-02-27T15:03:47Z</time>
      </trkpt>
      <trkpt lat="45.21996" lon="6.2568">
        <ele>1775.2</ele>
        <time>2021-02-27T15:03:48Z</time>
      </trkpt>
      <trkpt lat="45.2199" lon="6.25678">
        <ele>1775.2</ele>
        <time>2021-02-27T15:03:49Z</time>
      </trkpt>
      <trkpt lat="45.21984" lon="6.25676">
        <ele>1775.2</ele>
        <time>2021-02-27T15:03:50Z</time>
      </trkpt>
      <trkpt lat="45.21979" lon="6.25675">
        <ele>1758.8</ele>
        <time>2021-02-27T15:03:51Z</time>
      </trkpt>
      <trkpt lat="45.2197" lon="6.25673">
        <ele>1758.8</ele>
        <time>2021-02-27T15:03:52Z</time>
      </trkpt>
      <trkpt lat="45.21959" lon="6.25674">
        <ele>1758.8</ele>
        <time>2021-02-27T15:03:53Z</time>
      </trkpt>
      <trkpt lat="45.21947" lon="6.25678">
        <ele>1758.8</ele>
        <time>2021-02-27T15:03:54Z</time>
      </trkpt>
      <trkpt lat="45.21935" lon="6.25686">
        <ele>1758.8</ele>
        <time>2021-02-27T15:03:55Z</time>
      </trkpt>
      <trkpt lat="45.21922" lon="6.25697">
        <ele>1758.8</ele>
        <time>2021-02-27T15:03:56Z</time>
      </trkpt>
      <trkpt lat="45.21909" lon="6.25708">
        <ele>1758.8</ele>
        <time>2021-02-27T15:03:57Z</time>
      </trkpt>
      <trkpt lat="45.21895" lon="6.25715">
        <ele>1758.8</ele>
        <time>2021-02-27T15:03:58Z</time>
      </trkpt>
      <trkpt lat="45.21871" lon="6.25714">
        <ele>1758.8</ele>
        <time>2021-02-27T15:03:59Z</time>
      </trkpt>
      <trkpt lat="45.21862" lon="6.2571">
        <ele>1758.8</ele>
        <time>2021-02-27T15:04:00Z</time>
      </trkpt>
      <trkpt lat="45.21853" lon="6.25707">
        <ele>1731.2</ele>
        <time>2021-02-27T15:04:01Z</time>
      </trkpt>
      <trkpt lat="45.21834" lon="6.25696">
        <ele>1731.2</ele>
        <time>2021-02-27T15:04:02Z</time>
      </trkpt>
      <trkpt lat="45.21828" lon="6.25694">
        <ele>1731.2</ele>
        <time>2021-02-27T15:04:03Z</time>
      </trkpt>
      <trkpt lat="45.21821" lon="6.25692">
        <ele>1731.2</ele>
        <time>2021-02-27T15:04:04Z</time>
      </trkpt>
      <trkpt lat="45.21815" lon="6.2569">
        <ele>1731.2</ele>
        <time>2021-02-27T15:04:05Z</time>
      </trkpt>
      <trkpt lat="45.21808" lon="6.25688">
        <ele>1731.2</ele>
        <time>2021-02-27T15:04:06Z</time>
      </trkpt>
      <trkpt lat="45.21802" lon="6.25685">
        <ele>1731.2</ele>
        <time>2021-02-27T15:04:07Z</time>
      </trkpt>
      <trkpt lat="45.21796" lon="6.25683">
        <ele>1731.2</ele>
        <time>2021-02-27T15:04:08Z</time>
      </trkpt>
      <trkpt lat="45.21789" lon="6.25681">
        <ele>1702.4</ele>
        <time>2021-02-27T15:04:11Z</time>
      </trkpt>
      <trkpt lat="45.21789" lon="6.25685">
        <ele>1698.2</ele>
        <time>2021-02-27T15:04:21Z</time>
      </trkpt>
      <trkpt lat="45.21788" lon="6.25688">
        <ele>1698.2</ele>
        <time>2021-02-27T15:04:29Z</time>
      </trkpt>
      <trkpt lat="45.21787" lon="6.25691">
        <ele>1698.2</ele>
        <time>2021-02-27T15:04:30Z</time>
      </trkpt>
      <trkpt lat="45.21787" lon="6.25694">
        <ele>1696.8</ele>
        <time>2021-02-27T15:04:31Z</time>
      </trkpt>
      <trkpt lat="45.21782" lon="6.25711">
        <ele>1696.8</ele>
        <time>2021-02-27T15:04:32Z</time>
      </trkpt>
      <trkpt lat="45.2178" lon="6.25721">
        <ele>1696.8</ele>
        <time>2021-02-27T15:04:33Z</time>
      </trkpt>
      <trkpt lat="45.21777" lon="6.25731">
        <ele>1696.8</ele>
        <time>2021-02-27T15:04:34Z</time>
      </trkpt>
      <trkpt lat="45.21775" lon="6.25741">
        <ele>1696.8</ele>
        <time>2021-02-27T15:04:35Z</time>
      </trkpt>
      <trkpt lat="45.21772" lon="6.25751">
        <ele>1696.8</ele>
        <time>2021-02-27T15:04:36Z</time>
      </trkpt>
      <trkpt lat="45.2177" lon="6.25761">
        <ele>1696.8</ele>
        <time>2021-02-27T15:04:37Z</time>
      </trkpt>
      <trkpt lat="45.21767" lon="6.25771">
        <ele>1696.8</ele>
        <time>2021-02-27T15:04:38Z</time>
      </trkpt>
      <trkpt lat="45.21765" lon="6.25781">
        <ele>1696.8</ele>
        <time>2021-02-27T15:04:39Z</time>
      </trkpt>
      <trkpt lat="45.21762" lon="6.25791">
        <ele>1696.8</ele>
        <time>2021-02-27T15:04:40Z</time>
      </trkpt>
      <trkpt lat="45.2176" lon="6.25801">
        <ele>1689</ele>
        <time>2021-02-27T15:04:41Z</time>
      </trkpt>
      <trkpt lat="45.21757" lon="6.25814">
        <ele>1689</ele>
        <time>2021-02-27T15:04:42Z</time>
      </trkpt>
      <trkpt lat="45.21757" lon="6.25827">
        <ele>1689</ele>
        <time>2021-02-27T15:04:43Z</time>
      </trkpt>
      <trkpt lat="45.21757" lon="6.2584">
        <ele>1689</ele>
        <time>2021-02-27T15:04:44Z</time>
      </trkpt>
      <trkpt lat="45.21758" lon="6.25853">
        <ele>1689</ele>
        <time>2021-02-27T15:04:45Z</time>
      </trkpt>
      <trkpt lat="45.21757" lon="6.2587">
        <ele>1689</ele>
        <time>2021-02-27T15:04:46Z</time>
      </trkpt>
      <trkpt lat="45.21757" lon="6.25881">
        <ele>1689</ele>
        <time>2021-02-27T15:04:47Z</time>
      </trkpt>
      <trkpt lat="45.21756" lon="6.25895">
        <ele>1689</ele>
        <time>2021-02-27T15:04:48Z</time>
      </trkpt>
      <trkpt lat="45.21755" lon="6.2591">
        <ele>1689</ele>
        <time>2021-02-27T15:04:49Z</time>
      </trkpt>
      <trkpt lat="45.21754" lon="6.25925">
        <ele>1689</ele>
        <time>2021-02-27T15:04:50Z</time>
      </trkpt>
      <trkpt lat="45.21752" lon="6.2594">
        <ele>1671.4</ele>
        <time>2021-02-27T15:04:51Z</time>
      </trkpt>
      <trkpt lat="45.21751" lon="6.25955">
        <ele>1671.4</ele>
        <time>2021-02-27T15:04:52Z</time>
      </trkpt>
      <trkpt lat="45.21749" lon="6.25969">
        <ele>1671.4</ele>
        <time>2021-02-27T15:04:53Z</time>
      </trkpt>
      <trkpt lat="45.21745" lon="6.25983">
        <ele>1671.4</ele>
        <time>2021-02-27T15:04:54Z</time>
      </trkpt>
      <trkpt lat="45.21741" lon="6.25997">
        <ele>1671.4</ele>
        <time>2021-02-27T15:04:55Z</time>
      </trkpt>
      <trkpt lat="45.21735" lon="6.26009">
        <ele>1671.4</ele>
        <time>2021-02-27T15:04:56Z</time>
      </trkpt>
      <trkpt lat="45.21729" lon="6.2602">
        <ele>1671.4</ele>
        <time>2021-02-27T15:04:57Z</time>
      </trkpt>
      <trkpt lat="45.21723" lon="6.2603">
        <ele>1671.4</ele>
        <time>2021-02-27T15:04:58Z</time>
      </trkpt>
      <trkpt lat="45.21715" lon="6.26042">
        <ele>1671.4</ele>
        <time>2021-02-27T15:04:59Z</time>
      </trkpt>
      <trkpt lat="45.21711" lon="6.2605">
        <ele>1671.4</ele>
        <time>2021-02-27T15:05:00Z</time>
      </trkpt>
      <trkpt lat="45.21706" lon="6.26059">
        <ele>1654.6</ele>
        <time>2021-02-27T15:05:01Z</time>
      </trkpt>
      <trkpt lat="45.21697" lon="6.26076">
        <ele>1654.6</ele>
        <time>2021-02-27T15:05:02Z</time>
      </trkpt>
      <trkpt lat="45.21694" lon="6.26084">
        <ele>1654.6</ele>
        <time>2021-02-27T15:05:03Z</time>
      </trkpt>
      <trkpt lat="45.2169" lon="6.26092">
        <ele>1654.6</ele>
        <time>2021-02-27T15:05:04Z</time>
      </trkpt>
      <trkpt lat="45.21687" lon="6.261">
        <ele>1654.6</ele>
        <time>2021-02-27T15:05:05Z</time>
      </trkpt>
      <trkpt lat="45.21683" lon="6.26108">
        <ele>1654.6</ele>
        <time>2021-02-27T15:05:06Z</time>
      </trkpt>
      <trkpt lat="45.2168" lon="6.26115">
        <ele>1654.6</ele>
        <time>2021-02-27T15:05:07Z</time>
      </trkpt>
      <trkpt lat="45.21676" lon="6.26123">
        <ele>1654.6</ele>
        <time>2021-02-27T15:05:08Z</time>
      </trkpt>
      <trkpt lat="45.21673" lon="6.26131">
        <ele>1654.6</ele>
        <time>2021-02-27T15:05:09Z</time>
      </trkpt>
      <trkpt lat="45.2167" lon="6.26139">
        <ele>1654.6</ele>
        <time>2021-02-27T15:05:10Z</time>
      </trkpt>
      <trkpt lat="45.21666" lon="6.26147">
        <ele>1644</ele>
        <time>2021-02-27T15:05:11Z</time>
      </trkpt>
      <trkpt lat="45.21661" lon="6.26162">
        <ele>1644</ele>
        <time>2021-02-27T15:05:12Z</time>
      </trkpt>
      <trkpt lat="45.21658" lon="6.2617">
        <ele>1644</ele>
        <time>2021-02-27T15:05:13Z</time>
      </trkpt>
      <trkpt lat="45.21656" lon="6.26177">
        <ele>1644</ele>
        <time>2021-02-27T15:05:14Z</time>
      </trkpt>
      <trkpt lat="45.21653" lon="6.26185">
        <ele>1644</ele>
        <time>2021-02-27T15:05:15Z</time>
      </trkpt>
      <trkpt lat="45.21651" lon="6.26193">
        <ele>1644</ele>
        <time>2021-02-27T15:05:16Z</time>
      </trkpt>
      <trkpt lat="45.21648" lon="6.262">
        <ele>1644</ele>
        <time>2021-02-27T15:05:17Z</time>
      </trkpt>
      <trkpt lat="45.21646" lon="6.26208">
        <ele>1644</ele>
        <time>2021-02-27T15:05:18Z</time>
      </trkpt>
      <trkpt lat="45.21643" lon="6.26215">
        <ele>1644</ele>
        <time>2021-02-27T15:05:19Z</time>
      </trkpt>
      <trkpt lat="45.21641" lon="6.26223">
        <ele>1644</ele>
        <time>2021-02-27T15:05:20Z</time>
      </trkpt>
      <trkpt lat="45.21638" lon="6.26231">
        <ele>1636</ele>
        <time>2021-02-27T15:05:21Z</time>
      </trkpt>
      <trkpt lat="45.21636" lon="6.26248">
        <ele>1636</ele>
        <time>2021-02-27T15:05:22Z</time>
      </trkpt>
      <trkpt lat="45.21636" lon="6.26256">
        <ele>1636</ele>
        <time>2021-02-27T15:05:23Z</time>
      </trkpt>
      <trkpt lat="45.21636" lon="6.26265">
        <ele>1636</ele>
        <time>2021-02-27T15:05:24Z</time>
      </trkpt>
      <trkpt lat="45.21635" lon="6.26273">
        <ele>1636</ele>
        <time>2021-02-27T15:05:25Z</time>
      </trkpt>
      <trkpt lat="45.21635" lon="6.26281">
        <ele>1636</ele>
        <time>2021-02-27T15:05:26Z</time>
      </trkpt>
      <trkpt lat="45.21634" lon="6.26289">
        <ele>1636</ele>
        <time>2021-02-27T15:05:27Z</time>
      </trkpt>
      <trkpt lat="45.21634" lon="6.26298">
        <ele>1636</ele>
        <time>2021-02-27T15:05:28Z</time>
      </trkpt>
      <trkpt lat="45.21634" lon="6.26306">
        <ele>1636</ele>
        <time>2021-02-27T15:05:29Z</time>
      </trkpt>
      <trkpt lat="45.21633" lon="6.26314">
        <ele>1636</ele>
        <time>2021-02-27T15:05:30Z</time>
      </trkpt>
      <trkpt lat="45.21633" lon="6.26323">
        <ele>1628.6</ele>
        <time>2021-02-27T15:05:31Z</time>
      </trkpt>
      <trkpt lat="45.21634" lon="6.26339">
        <ele>1628.6</ele>
        <time>2021-02-27T15:05:32Z</time>
      </trkpt>
      <trkpt lat="45.21635" lon="6.26346">
        <ele>1628.6</ele>
        <time>2021-02-27T15:05:33Z</time>
      </trkpt>
      <trkpt lat="45.21635" lon="6.26353">
        <ele>1628.6</ele>
        <time>2021-02-27T15:05:34Z</time>
      </trkpt>
      <trkpt lat="45.21636" lon="6.2636">
        <ele>1628.6</ele>
        <time>2021-02-27T15:05:35Z</time>
      </trkpt>
      <trkpt lat="45.21636" lon="6.26366">
        <ele>1628.6</ele>
        <time>2021-02-27T15:05:36Z</time>
      </trkpt>
      <trkpt lat="45.21637" lon="6.26373">
        <ele>1628.6</ele>
        <time>2021-02-27T15:05:37Z</time>
      </trkpt>
      <trkpt lat="45.21637" lon="6.2638">
        <ele>1628.6</ele>
        <time>2021-02-27T15:05:38Z</time>
      </trkpt>
      <trkpt lat="45.21638" lon="6.26387">
        <ele>1628.6</ele>
        <time>2021-02-27T15:05:39Z</time>
      </trkpt>
      <trkpt lat="45.21638" lon="6.26394">
        <ele>1628.6</ele>
        <time>2021-02-27T15:05:40Z</time>
      </trkpt>
      <trkpt lat="45.21639" lon="6.26401">
        <ele>1623.2</ele>
        <time>2021-02-27T15:05:41Z</time>
      </trkpt>
      <trkpt lat="45.21638" lon="6.26413">
        <ele>1623.2</ele>
        <time>2021-02-27T15:05:42Z</time>
      </trkpt>
      <trkpt lat="45.21637" lon="6.26418">
        <ele>1623.2</ele>
        <time>2021-02-27T15:05:43Z</time>
      </trkpt>
      <trkpt lat="45.21636" lon="6.26423">
        <ele>1623.2</ele>
        <time>2021-02-27T15:05:44Z</time>
      </trkpt>
      <trkpt lat="45.21635" lon="6.26428">
        <ele>1623.2</ele>
        <time>2021-02-27T15:05:45Z</time>
      </trkpt>
      <trkpt lat="45.21634" lon="6.26433">
        <ele>1623.2</ele>
        <time>2021-02-27T15:05:46Z</time>
      </trkpt>
      <trkpt lat="45.21633" lon="6.26438">
        <ele>1623.2</ele>
        <time>2021-02-27T15:05:47Z</time>
      </trkpt>
      <trkpt lat="45.21632" lon="6.26443">
        <ele>1623.2</ele>
        <time>2021-02-27T15:05:48Z</time>
      </trkpt>
      <trkpt lat="45.21631" lon="6.26448">
        <ele>1623.2</ele>
        <time>2021-02-27T15:05:49Z</time>
      </trkpt>
      <trkpt lat="45.2163" lon="6.26453">
        <ele>1623.2</ele>
        <time>2021-02-27T15:05:50Z</time>
      </trkpt>
      <trkpt lat="45.21629" lon="6.26458">
        <ele>1619.4</ele>
        <time>2021-02-27T15:05:51Z</time>
      </trkpt>
      <trkpt lat="45.21623" lon="6.26471">
        <ele>1619.4</ele>
        <time>2021-02-27T15:05:52Z</time>
      </trkpt>
      <trkpt lat="45.21619" lon="6.26479">
        <ele>1619.4</ele>
        <time>2021-02-27T15:05:53Z</time>
      </trkpt>
      <trkpt lat="45.21614" lon="6.26488">
        <ele>1619.4</ele>
        <time>2021-02-27T15:05:54Z</time>
      </trkpt>
      <trkpt lat="45.2161" lon="6.26496">
        <ele>1619.4</ele>
        <time>2021-02-27T15:05:55Z</time>
      </trkpt>
      <trkpt lat="45.21605" lon="6.26504">
        <ele>1619.4</ele>
        <time>2021-02-27T15:05:56Z</time>
      </trkpt>
      <trkpt lat="45.21601" lon="6.26512">
        <ele>1619.4</ele>
        <time>2021-02-27T15:05:57Z</time>
      </trkpt>
      <trkpt lat="45.21597" lon="6.2652">
        <ele>1619.4</ele>
        <time>2021-02-27T15:05:58Z</time>
      </trkpt>
      <trkpt lat="45.21592" lon="6.26528">
        <ele>1619.4</ele>
        <time>2021-02-27T15:05:59Z</time>
      </trkpt>
      <trkpt lat="45.21588" lon="6.26536">
        <ele>1619.4</ele>
        <time>2021-02-27T15:06:00Z</time>
      </trkpt>
      <trkpt lat="45.21583" lon="6.26544">
        <ele>1610.6</ele>
        <time>2021-02-27T15:06:01Z</time>
      </trkpt>
      <trkpt lat="45.21576" lon="6.26554">
        <ele>1610.6</ele>
        <time>2021-02-27T15:06:02Z</time>
      </trkpt>
      <trkpt lat="45.21568" lon="6.26563">
        <ele>1610.6</ele>
        <time>2021-02-27T15:06:03Z</time>
      </trkpt>
      <trkpt lat="45.2156" lon="6.26573">
        <ele>1610.6</ele>
        <time>2021-02-27T15:06:04Z</time>
      </trkpt>
      <trkpt lat="45.21552" lon="6.26581">
        <ele>1610.6</ele>
        <time>2021-02-27T15:06:05Z</time>
      </trkpt>
      <trkpt lat="45.21543" lon="6.26588">
        <ele>1610.6</ele>
        <time>2021-02-27T15:06:06Z</time>
      </trkpt>
      <trkpt lat="45.21534" lon="6.26595">
        <ele>1610.6</ele>
        <time>2021-02-27T15:06:07Z</time>
      </trkpt>
      <trkpt lat="45.21525" lon="6.26601">
        <ele>1610.6</ele>
        <time>2021-02-27T15:06:08Z</time>
      </trkpt>
      <trkpt lat="45.21516" lon="6.26607">
        <ele>1610.6</ele>
        <time>2021-02-27T15:06:09Z</time>
      </trkpt>
      <trkpt lat="45.21508" lon="6.26611">
        <ele>1610.6</ele>
        <time>2021-02-27T15:06:10Z</time>
      </trkpt>
      <trkpt lat="45.215" lon="6.26611">
        <ele>1589.8</ele>
        <time>2021-02-27T15:06:11Z</time>
      </trkpt>
      <trkpt lat="45.21492" lon="6.26611">
        <ele>1589.8</ele>
        <time>2021-02-27T15:06:12Z</time>
      </trkpt>
      <trkpt lat="45.21483" lon="6.26614">
        <ele>1589.8</ele>
        <time>2021-02-27T15:06:13Z</time>
      </trkpt>
      <trkpt lat="45.21472" lon="6.26619">
        <ele>1589.8</ele>
        <time>2021-02-27T15:06:14Z</time>
      </trkpt>
      <trkpt lat="45.21463" lon="6.26627">
        <ele>1589.8</ele>
        <time>2021-02-27T15:06:15Z</time>
      </trkpt>
      <trkpt lat="45.21454" lon="6.26637">
        <ele>1589.8</ele>
        <time>2021-02-27T15:06:16Z</time>
      </trkpt>
      <trkpt lat="45.21446" lon="6.26649">
        <ele>1589.8</ele>
        <time>2021-02-27T15:06:17Z</time>
      </trkpt>
      <trkpt lat="45.21439" lon="6.26663">
        <ele>1589.8</ele>
        <time>2021-02-27T15:06:18Z</time>
      </trkpt>
      <trkpt lat="45.21431" lon="6.26678">
        <ele>1589.8</ele>
        <time>2021-02-27T15:06:19Z</time>
      </trkpt>
      <trkpt lat="45.21416" lon="6.26696">
        <ele>1589.8</ele>
        <time>2021-02-27T15:06:20Z</time>
      </trkpt>
      <trkpt lat="45.2141" lon="6.26702">
        <ele>1567.8</ele>
        <time>2021-02-27T15:06:21Z</time>
      </trkpt>
      <trkpt lat="45.21394" lon="6.26713">
        <ele>1567.8</ele>
        <time>2021-02-27T15:06:22Z</time>
      </trkpt>
      <trkpt lat="45.21388" lon="6.26712">
        <ele>1567.8</ele>
        <time>2021-02-27T15:06:23Z</time>
      </trkpt>
      <trkpt lat="45.21382" lon="6.26711">
        <ele>1567.8</ele>
        <time>2021-02-27T15:06:24Z</time>
      </trkpt>
      <trkpt lat="45.21376" lon="6.2671">
        <ele>1567.8</ele>
        <time>2021-02-27T15:06:25Z</time>
      </trkpt>
      <trkpt lat="45.21371" lon="6.26709">
        <ele>1567.8</ele>
        <time>2021-02-27T15:06:26Z</time>
      </trkpt>
      <trkpt lat="45.21365" lon="6.26708">
        <ele>1567.8</ele>
        <time>2021-02-27T15:06:27Z</time>
      </trkpt>
      <trkpt lat="45.21359" lon="6.26706">
        <ele>1567.8</ele>
        <time>2021-02-27T15:06:28Z</time>
      </trkpt>
      <trkpt lat="45.21354" lon="6.26705">
        <ele>1567.8</ele>
        <time>2021-02-27T15:06:29Z</time>
      </trkpt>
      <trkpt lat="45.21348" lon="6.26704">
        <ele>1567.8</ele>
        <time>2021-02-27T15:06:30Z</time>
      </trkpt>
      <trkpt lat="45.21342" lon="6.26703">
        <ele>1552.8</ele>
        <time>2021-02-27T15:06:31Z</time>
      </trkpt>
      <trkpt lat="45.21339" lon="6.26698">
        <ele>1552.8</ele>
        <time>2021-02-27T15:06:32Z</time>
      </trkpt>
      <trkpt lat="45.21336" lon="6.26693">
        <ele>1552.8</ele>
        <time>2021-02-27T15:06:33Z</time>
      </trkpt>
      <trkpt lat="45.21333" lon="6.26689">
        <ele>1552.8</ele>
        <time>2021-02-27T15:06:34Z</time>
      </trkpt>
      <trkpt lat="45.2133" lon="6.26685">
        <ele>1552.8</ele>
        <time>2021-02-27T15:06:35Z</time>
      </trkpt>
      <trkpt lat="45.21327" lon="6.26682">
        <ele>1552.8</ele>
        <time>2021-02-27T15:06:36Z</time>
      </trkpt>
      <trkpt lat="45.21326" lon="6.26679">
        <ele>1552.8</ele>
        <time>2021-02-27T15:06:37Z</time>
      </trkpt>
      <trkpt lat="45.21324" lon="6.26677">
        <ele>1552.8</ele>
        <time>2021-02-27T15:06:38Z</time>
      </trkpt>
      <trkpt lat="45.21324" lon="6.26677">
        <ele>1549</ele>
        <time>2021-02-27T15:06:41Z</time>
      </trkpt>
      <trkpt lat="45.21322" lon="6.26678">
        <ele>1549</ele>
        <time>2021-02-27T15:06:49Z</time>
      </trkpt>
      <trkpt lat="45.21322" lon="6.26678">
        <ele>1549.8</ele>
        <time>2021-02-27T15:06:51Z</time>
      </trkpt>
      <trkpt lat="45.21322" lon="6.26678">
        <ele>1549.8</ele>
        <time>2021-02-27T15:07:01Z</time>
      </trkpt>
    </trkseg>
  </trk>
</gpx>